<?xml version='1.0' encoding='UTF-8'?><gpx version="1.1" creator="JPX - https://github.com/jenetics/jpx" xmlns="http://www.topografix.com/GPX/1/1"><trk><trkseg><trkpt lat="49.10806606500534" lon="6.704431043654161"><ele>238.4</ele><time>2026-05-02T18:18:14Z</time></trkpt><trkpt lat="49.10818855506364" lon="6.704404522902267"><ele>238.8</ele><time>2026-05-02T18:20:17Z</time></trkpt><trkpt lat="49.10827495960783" lon="6.7043981279257405"><ele>239.2</ele><time>2026-05-02T18:20:19Z</time></trkpt><trkpt lat="49.10834795072379" lon="6.704295418243577"><ele>239.6</ele><time>2026-05-02T18:20:21Z</time></trkpt><trkpt lat="49.10834239419319" lon="6.704134776606696"><ele>240.0</ele><time>2026-05-02T18:20:23Z</time></trkpt><trkpt lat="49.10837385417375" lon="6.7040398513722765"><ele>240.0</ele><time>2026-05-02T18:20:48Z</time></trkpt><trkpt lat="49.1085215863128" lon="6.7041004484684805"><ele>240.0</ele><time>2026-05-02T18:20:51Z</time></trkpt><trkpt lat="49.108607296007584" lon="6.704162952031516"><ele>240.0</ele><time>2026-05-02T18:20:52Z</time></trkpt><trkpt lat="49.1086895447962" lon="6.704219140473929"><ele>240.0</ele><time>2026-05-02T18:20:53Z</time></trkpt><trkpt lat="49.1087854190511" lon="6.704281544389349"><ele>240.0</ele><time>2026-05-02T18:20:54Z</time></trkpt><trkpt lat="49.10887525223597" lon="6.704331026901992"><ele>240.0</ele><time>2026-05-02T18:20:55Z</time></trkpt><trkpt lat="49.108960309129564" lon="6.704383833588164"><ele>240.0</ele><time>2026-05-02T18:20:56Z</time></trkpt><trkpt lat="49.10904093135099" lon="6.704432885683639"><ele>240.0</ele><time>2026-05-02T18:20:57Z</time></trkpt><trkpt lat="49.10910804304872" lon="6.704477131106608"><ele>240.0</ele><time>2026-05-02T18:20:58Z</time></trkpt><trkpt lat="49.10916604204027" lon="6.704538784632268"><ele>240.0</ele><time>2026-05-02T18:20:59Z</time></trkpt><trkpt lat="49.10921861199725" lon="6.704599549845008"><ele>240.0</ele><time>2026-05-02T18:20:59.999Z</time></trkpt><trkpt lat="49.109128199888374" lon="6.70477594901654"><ele>240.0</ele><time>2026-05-02T18:21:00.999Z</time></trkpt><trkpt lat="49.10911072509054" lon="6.704888338259997"><ele>240.0</ele><time>2026-05-02T18:21:02.999Z</time></trkpt><trkpt lat="49.10926780455926" lon="6.7050596175128945"><ele>240.0</ele><time>2026-05-02T18:21:14.999Z</time></trkpt><trkpt lat="49.10934138629949" lon="6.7050804972718"><ele>240.0</ele><time>2026-05-02T18:21:15.999Z</time></trkpt><trkpt lat="49.109425576983654" lon="6.705107499267427"><ele>240.0</ele><time>2026-05-02T18:21:16.999Z</time></trkpt><trkpt lat="49.109522693509476" lon="6.705142644884922"><ele>240.0</ele><time>2026-05-02T18:21:17.999Z</time></trkpt><trkpt lat="49.10961026901423" lon="6.705184136116081"><ele>240.0</ele><time>2026-05-02T18:21:18.999Z</time></trkpt><trkpt lat="49.109696338147465" lon="6.705228324769625"><ele>240.0</ele><time>2026-05-02T18:21:19.999Z</time></trkpt><trkpt lat="49.10979324142915" lon="6.705275350959914"><ele>240.0</ele><time>2026-05-02T18:21:20.999Z</time></trkpt><trkpt lat="49.10988868659403" lon="6.705315784270492"><ele>240.0</ele><time>2026-05-02T18:21:21.999Z</time></trkpt><trkpt lat="49.109977863341406" lon="6.705347906057523"><ele>240.6</ele><time>2026-05-02T18:21:22.999Z</time></trkpt><trkpt lat="49.110053792602244" lon="6.70533021968229"><ele>241.2</ele><time>2026-05-02T18:21:23.999Z</time></trkpt><trkpt lat="49.110117284508576" lon="6.705259774989198"><ele>241.8</ele><time>2026-05-02T18:21:24.999Z</time></trkpt><trkpt lat="49.110201228521014" lon="6.705208553780008"><ele>242.4</ele><time>2026-05-02T18:21:25.999Z</time></trkpt><trkpt lat="49.11030158494523" lon="6.705183097651346"><ele>243.0</ele><time>2026-05-02T18:21:26.999Z</time></trkpt><trkpt lat="49.11041700234314" lon="6.705189346435262"><ele>243.0</ele><time>2026-05-02T18:21:27.999Z</time></trkpt><trkpt lat="49.110538725573825" lon="6.705204350191216"><ele>243.0</ele><time>2026-05-02T18:21:28.999Z</time></trkpt><trkpt lat="49.11065151506622" lon="6.705229553410486"><ele>243.0</ele><time>2026-05-02T18:21:29.999Z</time></trkpt><trkpt lat="49.110757961459115" lon="6.705256194551424"><ele>243.0</ele><time>2026-05-02T18:21:31Z</time></trkpt><trkpt lat="49.11086742466" lon="6.70528440584592"><ele>244.25</ele><time>2026-05-02T18:21:32Z</time></trkpt><trkpt lat="49.110976119406445" lon="6.705314331415809"><ele>245.5</ele><time>2026-05-02T18:21:33Z</time></trkpt><trkpt lat="49.11109434870805" lon="6.705344485070357"><ele>246.75</ele><time>2026-05-02T18:21:34Z</time></trkpt><trkpt lat="49.11121959504141" lon="6.705368125613893"><ele>248.0</ele><time>2026-05-02T18:21:35Z</time></trkpt><trkpt lat="49.1113341399601" lon="6.705394904575146"><ele>248.0</ele><time>2026-05-02T18:21:36Z</time></trkpt><trkpt lat="49.11143162263086" lon="6.705426643289957"><ele>248.0</ele><time>2026-05-02T18:21:37Z</time></trkpt><trkpt lat="49.11151667795827" lon="6.705468206849318"><ele>248.0</ele><time>2026-05-02T18:21:38Z</time></trkpt><trkpt lat="49.11158521287084" lon="6.705490178708981"><ele>248.0</ele><time>2026-05-02T18:21:39Z</time></trkpt><trkpt lat="49.11165521466187" lon="6.705515217150907"><ele>248.0</ele><time>2026-05-02T18:21:41Z</time></trkpt><trkpt lat="49.11169072301782" lon="6.705259272050384"><ele>247.0</ele><time>2026-05-02T18:21:42Z</time></trkpt><trkpt lat="49.111687621323966" lon="6.705079039227544"><ele>246.0</ele><time>2026-05-02T18:21:43Z</time></trkpt><trkpt lat="49.11168740889316" lon="6.704885075863262"><ele>245.0</ele><time>2026-05-02T18:21:44Z</time></trkpt><trkpt lat="49.11169138970301" lon="6.704728602484402"><ele>244.0</ele><time>2026-05-02T18:21:45Z</time></trkpt><trkpt lat="49.11169477371657" lon="6.704587483135643"><ele>243.0</ele><time>2026-05-02T18:21:46Z</time></trkpt><trkpt lat="49.11168779704194" lon="6.70444030872453"><ele>242.60000000000002</ele><time>2026-05-02T18:21:47Z</time></trkpt><trkpt lat="49.1116845511565" lon="6.704268885517146"><ele>242.20000000000002</ele><time>2026-05-02T18:21:48Z</time></trkpt><trkpt lat="49.1116543993671" lon="6.704111284887794"><ele>241.8</ele><time>2026-05-02T18:21:49Z</time></trkpt><trkpt lat="49.11159823183603" lon="6.703970431619099"><ele>241.4</ele><time>2026-05-02T18:21:50Z</time></trkpt><trkpt lat="49.11155269567415" lon="6.703827989615172"><ele>241.0</ele><time>2026-05-02T18:21:51Z</time></trkpt><trkpt lat="49.11149689130567" lon="6.703700225084202"><ele>240.99999999999997</ele><time>2026-05-02T18:21:52Z</time></trkpt><trkpt lat="49.111434309305906" lon="6.7036059552391585"><ele>241.0</ele><time>2026-05-02T18:21:53Z</time></trkpt><trkpt lat="49.11138129137469" lon="6.703530164597596"><ele>241.0</ele><time>2026-05-02T18:21:55Z</time></trkpt><trkpt lat="49.111300161939724" lon="6.7034812650348075"><ele>241.0</ele><time>2026-05-02T18:22:07Z</time></trkpt><trkpt lat="49.111235541056615" lon="6.703548311801006"><ele>240.99999999999997</ele><time>2026-05-02T18:22:08Z</time></trkpt><trkpt lat="49.1111666138196" lon="6.7035846550663765"><ele>241.0</ele><time>2026-05-02T18:22:09Z</time></trkpt><trkpt lat="49.11107898675339" lon="6.703624374322259"><ele>241.0</ele><time>2026-05-02T18:22:10Z</time></trkpt><trkpt lat="49.11097121691606" lon="6.703671550168954"><ele>241.00000000000003</ele><time>2026-05-02T18:22:11Z</time></trkpt><trkpt lat="49.11087486696141" lon="6.703704420310642"><ele>241.00000000000003</ele><time>2026-05-02T18:22:12Z</time></trkpt><trkpt lat="49.11077418618202" lon="6.703734170167638"><ele>241.0</ele><time>2026-05-02T18:22:13Z</time></trkpt><trkpt lat="49.11066660777736" lon="6.703772526200549"><ele>241.0</ele><time>2026-05-02T18:22:14Z</time></trkpt><trkpt lat="49.110552947738775" lon="6.703815372524935"><ele>240.75</ele><time>2026-05-02T18:22:15Z</time></trkpt><trkpt lat="49.110429806220544" lon="6.703862166804404"><ele>240.5</ele><time>2026-05-02T18:22:16Z</time></trkpt><trkpt lat="49.110310117506565" lon="6.703904887522125"><ele>240.25</ele><time>2026-05-02T18:22:17Z</time></trkpt><trkpt lat="49.110203007959804" lon="6.7039404454729405"><ele>240.0</ele><time>2026-05-02T18:22:18Z</time></trkpt><trkpt lat="49.11009047380086" lon="6.703985809485622"><ele>240.0</ele><time>2026-05-02T18:22:19Z</time></trkpt><trkpt lat="49.10997674263775" lon="6.704044380341585"><ele>240.0</ele><time>2026-05-02T18:22:20Z</time></trkpt><trkpt lat="49.109864683827624" lon="6.704115945612946"><ele>240.0</ele><time>2026-05-02T18:22:21Z</time></trkpt><trkpt lat="49.109757428750804" lon="6.704189899427329"><ele>240.0</ele><time>2026-05-02T18:22:22Z</time></trkpt><trkpt lat="49.10965699027594" lon="6.704264999053208"><ele>240.0</ele><time>2026-05-02T18:22:23Z</time></trkpt><trkpt lat="49.109568618516874" lon="6.704332720730757"><ele>240.0</ele><time>2026-05-02T18:22:24Z</time></trkpt><trkpt lat="49.1094886833505" lon="6.704391551504985"><ele>240.0</ele><time>2026-05-02T18:22:25Z</time></trkpt><trkpt lat="49.10940911421333" lon="6.704446601706583"><ele>240.0</ele><time>2026-05-02T18:22:26Z</time></trkpt><trkpt lat="49.109337807595956" lon="6.704499656014012"><ele>240.0</ele><time>2026-05-02T18:22:27Z</time></trkpt><trkpt lat="49.109272439487384" lon="6.704527150477"><ele>240.0</ele><time>2026-05-02T18:22:28Z</time></trkpt><trkpt lat="49.109158194203" lon="6.704594312981794"><ele>240.0</ele><time>2026-05-02T18:22:30Z</time></trkpt><trkpt lat="49.10911113615163" lon="6.704781947511891"><ele>240.0</ele><time>2026-05-02T18:22:32Z</time></trkpt><trkpt lat="49.10908639926127" lon="6.704893346918945"><ele>240.0</ele><time>2026-05-02T18:22:40Z</time></trkpt><trkpt lat="49.10898310963802" lon="6.704850936244672"><ele>240.0</ele><time>2026-05-02T18:22:41Z</time></trkpt><trkpt lat="49.108907740519214" lon="6.704825236603847"><ele>240.0</ele><time>2026-05-02T18:22:42Z</time></trkpt><trkpt lat="49.108824995228765" lon="6.704800678145063"><ele>240.0</ele><time>2026-05-02T18:22:43Z</time></trkpt><trkpt lat="49.10870447583386" lon="6.704793738804878"><ele>240.0</ele><time>2026-05-02T18:22:44Z</time></trkpt><trkpt lat="49.1085863879972" lon="6.70478665057523"><ele>240.0</ele><time>2026-05-02T18:22:45Z</time></trkpt><trkpt lat="49.10845133255695" lon="6.704786605648766"><ele>240.0</ele><time>2026-05-02T18:22:46Z</time></trkpt><trkpt lat="49.10830609855847" lon="6.704791293759413"><ele>239.33333333333331</ele><time>2026-05-02T18:22:47Z</time></trkpt><trkpt lat="49.10815893463236" lon="6.704806541923147"><ele>238.66666666666666</ele><time>2026-05-02T18:22:48Z</time></trkpt><trkpt lat="49.108002088673175" lon="6.704829752758879"><ele>238.0</ele><time>2026-05-02T18:22:49Z</time></trkpt><trkpt lat="49.10785487204729" lon="6.704855376346695"><ele>238.0</ele><time>2026-05-02T18:22:50Z</time></trkpt><trkpt lat="49.10772034178188" lon="6.704879632835254"><ele>238.0</ele><time>2026-05-02T18:22:51Z</time></trkpt><trkpt lat="49.10758880840893" lon="6.7049068423401526"><ele>238.0</ele><time>2026-05-02T18:22:52Z</time></trkpt><trkpt lat="49.10744696672202" lon="6.704925690088649"><ele>238.0</ele><time>2026-05-02T18:22:53Z</time></trkpt><trkpt lat="49.10730286897671" lon="6.704945945976165"><ele>236.75</ele><time>2026-05-02T18:22:54Z</time></trkpt><trkpt lat="49.10715750114951" lon="6.704970402761354"><ele>235.5</ele><time>2026-05-02T18:22:55Z</time></trkpt><trkpt lat="49.10701567844533" lon="6.70499770702611"><ele>234.25</ele><time>2026-05-02T18:22:56Z</time></trkpt><trkpt lat="49.10687284584584" lon="6.705020052228366"><ele>233.0</ele><time>2026-05-02T18:22:57Z</time></trkpt><trkpt lat="49.10673242585161" lon="6.705035181787144"><ele>233.0</ele><time>2026-05-02T18:22:58Z</time></trkpt><trkpt lat="49.1065951873004" lon="6.705056636818122"><ele>233.0</ele><time>2026-05-02T18:22:59Z</time></trkpt><trkpt lat="49.106462548165986" lon="6.705084455047473"><ele>233.0</ele><time>2026-05-02T18:23:00Z</time></trkpt><trkpt lat="49.10633475916238" lon="6.705096156069499"><ele>233.0</ele><time>2026-05-02T18:23:01Z</time></trkpt><trkpt lat="49.106217774074494" lon="6.705112736089613"><ele>232.5</ele><time>2026-05-02T18:23:02Z</time></trkpt><trkpt lat="49.106103957591415" lon="6.705130079024431"><ele>232.0</ele><time>2026-05-02T18:23:03Z</time></trkpt><trkpt lat="49.105985005608886" lon="6.70514995889775"><ele>231.5</ele><time>2026-05-02T18:23:04Z</time></trkpt><trkpt lat="49.1058644628695" lon="6.7051760890046435"><ele>231.0</ele><time>2026-05-02T18:23:05Z</time></trkpt><trkpt lat="49.105739763704946" lon="6.705198998948335"><ele>231.0</ele><time>2026-05-02T18:23:05.999Z</time></trkpt><trkpt lat="49.10561420274509" lon="6.705228730266307"><ele>231.00000000000003</ele><time>2026-05-02T18:23:06.999Z</time></trkpt><trkpt lat="49.10549532241158" lon="6.705241872155102"><ele>231.00000000000003</ele><time>2026-05-02T18:23:07.999Z</time></trkpt><trkpt lat="49.10538905967442" lon="6.705251276716742"><ele>231.0</ele><time>2026-05-02T18:23:08.999Z</time></trkpt><trkpt lat="49.10529613911113" lon="6.705258990050511"><ele>231.0</ele><time>2026-05-02T18:23:09.999Z</time></trkpt><trkpt lat="49.10521512848139" lon="6.705273408483094"><ele>231.0</ele><time>2026-05-02T18:23:10.999Z</time></trkpt><trkpt lat="49.10513893761251" lon="6.70528328744866"><ele>231.00000000000003</ele><time>2026-05-02T18:23:11.999Z</time></trkpt><trkpt lat="49.105017815020446" lon="6.705242993823283"><ele>231.00000000000003</ele><time>2026-05-02T18:23:13.999Z</time></trkpt><trkpt lat="49.104946076287106" lon="6.705214886361031"><ele>231.0</ele><time>2026-05-02T18:23:14.999Z</time></trkpt><trkpt lat="49.10483526458066" lon="6.705296025410257"><ele>231.0</ele><time>2026-05-02T18:23:16.999Z</time></trkpt><trkpt lat="49.104813051735" lon="6.7054626238456665"><ele>231.20000000000002</ele><time>2026-05-02T18:23:18.999Z</time></trkpt><trkpt lat="49.10487052286224" lon="6.705634106053496"><ele>231.40000000000003</ele><time>2026-05-02T18:23:20.999Z</time></trkpt><trkpt lat="49.10491463523468" lon="6.7057112799377325"><ele>231.6</ele><time>2026-05-02T18:23:21.999Z</time></trkpt><trkpt lat="49.10495714100689" lon="6.705878010054183"><ele>231.8</ele><time>2026-05-02T18:23:23.999Z</time></trkpt><trkpt lat="49.104968238174756" lon="6.705979277197608"><ele>232.0</ele><time>2026-05-02T18:23:24.999Z</time></trkpt><trkpt lat="49.10497864845551" lon="6.706092995197808"><ele>231.71428571428575</ele><time>2026-05-02T18:23:25.999Z</time></trkpt><trkpt lat="49.10499088960147" lon="6.706219149183267"><ele>231.42857142857144</ele><time>2026-05-02T18:23:26.999Z</time></trkpt><trkpt lat="49.10500250579445" lon="6.7063393537190965"><ele>231.14285714285714</ele><time>2026-05-02T18:23:27.999Z</time></trkpt><trkpt lat="49.105015693391984" lon="6.706446471953439"><ele>230.85714285714286</ele><time>2026-05-02T18:23:28.999Z</time></trkpt><trkpt lat="49.105041045383786" lon="6.706538874683835"><ele>230.57142857142856</ele><time>2026-05-02T18:23:29.999Z</time></trkpt><trkpt lat="49.10508515349183" lon="6.706616541891798"><ele>230.28571428571425</ele><time>2026-05-02T18:23:30.999Z</time></trkpt><trkpt lat="49.10513219037819" lon="6.706699039011242"><ele>229.99999999999997</ele><time>2026-05-02T18:23:31.999Z</time></trkpt><trkpt lat="49.105163718039094" lon="6.706803946052572"><ele>230.0</ele><time>2026-05-02T18:23:32.999Z</time></trkpt><trkpt lat="49.105176064548054" lon="6.706907743284618"><ele>230.0</ele><time>2026-05-02T18:23:33.999Z</time></trkpt><trkpt lat="49.105186993830806" lon="6.707099132950394"><ele>230.0</ele><time>2026-05-02T18:23:35.999Z</time></trkpt><trkpt lat="49.1052664860713" lon="6.707190560178099"><ele>230.0</ele><time>2026-05-02T18:23:37.999Z</time></trkpt><trkpt lat="49.105377534685985" lon="6.707152910207778"><ele>230.0</ele><time>2026-05-02T18:23:39.999Z</time></trkpt><trkpt lat="49.10545364783574" lon="6.707162905858264"><ele>230.0</ele><time>2026-05-02T18:23:40.999Z</time></trkpt><trkpt lat="49.10553700991907" lon="6.707226515466215"><ele>230.0</ele><time>2026-05-02T18:23:41.999Z</time></trkpt><trkpt lat="49.10561220124017" lon="6.707337251397014"><ele>230.0</ele><time>2026-05-02T18:23:43Z</time></trkpt><trkpt lat="49.10568979614874" lon="6.707464093032922"><ele>230.0</ele><time>2026-05-02T18:23:44Z</time></trkpt><trkpt lat="49.10576689219503" lon="6.707584164894794"><ele>230.0</ele><time>2026-05-02T18:23:45Z</time></trkpt><trkpt lat="49.105834517723956" lon="6.707683594603274"><ele>229.66666666666669</ele><time>2026-05-02T18:23:46Z</time></trkpt><trkpt lat="49.10589533414439" lon="6.707780041322903"><ele>229.33333333333334</ele><time>2026-05-02T18:23:47Z</time></trkpt><trkpt lat="49.10596390271023" lon="6.707877064389428"><ele>229.0</ele><time>2026-05-02T18:23:48Z</time></trkpt><trkpt lat="49.10602261691677" lon="6.707963377461994"><ele>228.66666666666669</ele><time>2026-05-02T18:23:49Z</time></trkpt><trkpt lat="49.10607607958072" lon="6.708052051756709"><ele>228.33333333333334</ele><time>2026-05-02T18:23:50Z</time></trkpt><trkpt lat="49.10612753427573" lon="6.708160606745018"><ele>228.0</ele><time>2026-05-02T18:23:51Z</time></trkpt><trkpt lat="49.106169587270216" lon="6.7082850658528645"><ele>228.0</ele><time>2026-05-02T18:23:52Z</time></trkpt><trkpt lat="49.10621531094745" lon="6.708411226126546"><ele>228.0</ele><time>2026-05-02T18:23:53Z</time></trkpt><trkpt lat="49.10627254626787" lon="6.708535984968147"><ele>228.0</ele><time>2026-05-02T18:23:54Z</time></trkpt><trkpt lat="49.10632088537948" lon="6.708660477767779"><ele>228.0</ele><time>2026-05-02T18:23:55Z</time></trkpt><trkpt lat="49.106355595230454" lon="6.708779336984164"><ele>228.0</ele><time>2026-05-02T18:23:56Z</time></trkpt><trkpt lat="49.106392470641" lon="6.70890305748977"><ele>228.0</ele><time>2026-05-02T18:23:57Z</time></trkpt><trkpt lat="49.10643309605189" lon="6.70903831305233"><ele>228.0</ele><time>2026-05-02T18:23:58Z</time></trkpt><trkpt lat="49.106476425658855" lon="6.709184354011301"><ele>228.0</ele><time>2026-05-02T18:23:59Z</time></trkpt><trkpt lat="49.10652563916096" lon="6.709334462781812"><ele>228.0</ele><time>2026-05-02T18:24:00Z</time></trkpt><trkpt lat="49.106574834519634" lon="6.709480938934155"><ele>228.0</ele><time>2026-05-02T18:24:01Z</time></trkpt><trkpt lat="49.106618730496244" lon="6.709619037913561"><ele>228.4</ele><time>2026-05-02T18:24:02Z</time></trkpt><trkpt lat="49.10665652981182" lon="6.709752686427495"><ele>228.8</ele><time>2026-05-02T18:24:03Z</time></trkpt><trkpt lat="49.10669207142896" lon="6.70987910299022"><ele>229.2</ele><time>2026-05-02T18:24:04Z</time></trkpt><trkpt lat="49.10673979639603" lon="6.710003846347267"><ele>229.6</ele><time>2026-05-02T18:24:05Z</time></trkpt><trkpt lat="49.10679284253365" lon="6.7101377819759565"><ele>230.0</ele><time>2026-05-02T18:24:06Z</time></trkpt><trkpt lat="49.10684381861182" lon="6.710297835396535"><ele>230.0</ele><time>2026-05-02T18:24:07Z</time></trkpt><trkpt lat="49.10689337546818" lon="6.710468640116542"><ele>230.0</ele><time>2026-05-02T18:24:08Z</time></trkpt><trkpt lat="49.106955575128346" lon="6.710650703370317"><ele>230.0</ele><time>2026-05-02T18:24:09Z</time></trkpt><trkpt lat="49.10702159704575" lon="6.710842607405324"><ele>230.0</ele><time>2026-05-02T18:24:10Z</time></trkpt><trkpt lat="49.1070719342441" lon="6.711033676213996"><ele>229.6</ele><time>2026-05-02T18:24:11Z</time></trkpt><trkpt lat="49.10711792289481" lon="6.711210345887783"><ele>229.2</ele><time>2026-05-02T18:24:12Z</time></trkpt><trkpt lat="49.107154346816216" lon="6.711374347266868"><ele>228.8</ele><time>2026-05-02T18:24:13Z</time></trkpt><trkpt lat="49.10718600108304" lon="6.711524099351167"><ele>228.4</ele><time>2026-05-02T18:24:14Z</time></trkpt><trkpt lat="49.10721877957505" lon="6.711677682950572"><ele>228.0</ele><time>2026-05-02T18:24:15Z</time></trkpt><trkpt lat="49.10726125838996" lon="6.7118208744116705"><ele>228.5</ele><time>2026-05-02T18:24:16Z</time></trkpt><trkpt lat="49.10731690505228" lon="6.711967270152933"><ele>229.0</ele><time>2026-05-02T18:24:17Z</time></trkpt><trkpt lat="49.10735987623682" lon="6.712139182933493"><ele>229.5</ele><time>2026-05-02T18:24:18Z</time></trkpt><trkpt lat="49.10739266826979" lon="6.712315912823183"><ele>230.0</ele><time>2026-05-02T18:24:19Z</time></trkpt><trkpt lat="49.10741915533311" lon="6.712486263704222"><ele>230.6</ele><time>2026-05-02T18:24:20Z</time></trkpt><trkpt lat="49.107451482293556" lon="6.712644046051688"><ele>231.2</ele><time>2026-05-02T18:24:21Z</time></trkpt><trkpt lat="49.107484491039074" lon="6.712798315954315"><ele>231.8</ele><time>2026-05-02T18:24:22Z</time></trkpt><trkpt lat="49.107508466290454" lon="6.7129650365201545"><ele>232.4</ele><time>2026-05-02T18:24:23Z</time></trkpt><trkpt lat="49.10753621993478" lon="6.7131433421401105"><ele>233.0</ele><time>2026-05-02T18:24:24Z</time></trkpt><trkpt lat="49.10755819496666" lon="6.713322369802083"><ele>233.25</ele><time>2026-05-02T18:24:25Z</time></trkpt><trkpt lat="49.10758857553487" lon="6.713500836355552"><ele>233.5</ele><time>2026-05-02T18:24:26Z</time></trkpt><trkpt lat="49.10762202449838" lon="6.713674668439333"><ele>233.75</ele><time>2026-05-02T18:24:27Z</time></trkpt><trkpt lat="49.10764371118169" lon="6.713839536046715"><ele>234.0</ele><time>2026-05-02T18:24:28Z</time></trkpt><trkpt lat="49.10766097262993" lon="6.713994830740535"><ele>234.0</ele><time>2026-05-02T18:24:29Z</time></trkpt><trkpt lat="49.1076812720937" lon="6.714152362876198"><ele>233.99999999999997</ele><time>2026-05-02T18:24:30Z</time></trkpt><trkpt lat="49.107703248295444" lon="6.714311714562606"><ele>233.99999999999997</ele><time>2026-05-02T18:24:31Z</time></trkpt><trkpt lat="49.10771679193377" lon="6.714467532837736"><ele>234.0</ele><time>2026-05-02T18:24:32Z</time></trkpt><trkpt lat="49.10773615527417" lon="6.714609628983915"><ele>234.0</ele><time>2026-05-02T18:24:33Z</time></trkpt><trkpt lat="49.107752758200455" lon="6.714741447650812"><ele>233.2</ele><time>2026-05-02T18:24:34Z</time></trkpt><trkpt lat="49.107776659975485" lon="6.714863502251985"><ele>232.39999999999998</ele><time>2026-05-02T18:24:35Z</time></trkpt><trkpt lat="49.10779544150302" lon="6.714996268661643"><ele>231.6</ele><time>2026-05-02T18:24:36Z</time></trkpt><trkpt lat="49.10782667086137" lon="6.7151379672280855"><ele>230.8</ele><time>2026-05-02T18:24:37Z</time></trkpt><trkpt lat="49.107848979149665" lon="6.71529175208286"><ele>230.0</ele><time>2026-05-02T18:24:38Z</time></trkpt><trkpt lat="49.10787231832863" lon="6.7154566060245005"><ele>230.0</ele><time>2026-05-02T18:24:39Z</time></trkpt><trkpt lat="49.10789846244724" lon="6.715619385422308"><ele>230.0</ele><time>2026-05-02T18:24:40Z</time></trkpt><trkpt lat="49.10792214895105" lon="6.715775571099366"><ele>230.0</ele><time>2026-05-02T18:24:41Z</time></trkpt><trkpt lat="49.107945794153" lon="6.715935528389146"><ele>230.0</ele><time>2026-05-02T18:24:42Z</time></trkpt><trkpt lat="49.10796589196055" lon="6.716097067462346"><ele>230.0</ele><time>2026-05-02T18:24:43Z</time></trkpt><trkpt lat="49.10799355411275" lon="6.716260785664899"><ele>229.75</ele><time>2026-05-02T18:24:44Z</time></trkpt><trkpt lat="49.10801157358782" lon="6.716432224630255"><ele>229.5</ele><time>2026-05-02T18:24:45Z</time></trkpt><trkpt lat="49.10801409569778" lon="6.716606354096385"><ele>229.25</ele><time>2026-05-02T18:24:46Z</time></trkpt><trkpt lat="49.107996630202045" lon="6.716781199215702"><ele>229.0</ele><time>2026-05-02T18:24:47Z</time></trkpt><trkpt lat="49.107959908218405" lon="6.716940417653404"><ele>229.33333333333331</ele><time>2026-05-02T18:24:48Z</time></trkpt><trkpt lat="49.10791803137654" lon="6.7170734105747565"><ele>229.66666666666666</ele><time>2026-05-02T18:24:49Z</time></trkpt><trkpt lat="49.107886240304154" lon="6.717204197317278"><ele>230.0</ele><time>2026-05-02T18:24:50Z</time></trkpt><trkpt lat="49.10785737569989" lon="6.717330891283805"><ele>230.33333333333331</ele><time>2026-05-02T18:24:51Z</time></trkpt><trkpt lat="49.10783351387149" lon="6.71745276173242"><ele>230.66666666666666</ele><time>2026-05-02T18:24:52Z</time></trkpt><trkpt lat="49.10781087022622" lon="6.717565927043493"><ele>231.0</ele><time>2026-05-02T18:24:53Z</time></trkpt><trkpt lat="49.10778218596233" lon="6.717663291518444"><ele>232.4</ele><time>2026-05-02T18:24:54Z</time></trkpt><trkpt lat="49.10773129183869" lon="6.717756147872278"><ele>233.8</ele><time>2026-05-02T18:24:55Z</time></trkpt><trkpt lat="49.10767175530226" lon="6.7178559934837505"><ele>235.20000000000002</ele><time>2026-05-02T18:24:55.999Z</time></trkpt><trkpt lat="49.1076858262152" lon="6.7181157996844645"><ele>236.60000000000002</ele><time>2026-05-02T18:24:57.999Z</time></trkpt><trkpt lat="49.10773288304707" lon="6.718227119179975"><ele>238.0</ele><time>2026-05-02T18:24:58.999Z</time></trkpt><trkpt lat="49.10780540612457" lon="6.7183071137540695"><ele>238.0</ele><time>2026-05-02T18:24:59.999Z</time></trkpt><trkpt lat="49.10780562923905" lon="6.718505171498803"><ele>238.0</ele><time>2026-05-02T18:25:00.999Z</time></trkpt><trkpt lat="49.10784031290499" lon="6.718670993513246"><ele>238.0</ele><time>2026-05-02T18:25:01.999Z</time></trkpt><trkpt lat="49.107883061961395" lon="6.718851787595533"><ele>238.0</ele><time>2026-05-02T18:25:02.999Z</time></trkpt><trkpt lat="49.10792602189423" lon="6.719041305658952"><ele>240.5</ele><time>2026-05-02T18:25:03.999Z</time></trkpt><trkpt lat="49.10797006245953" lon="6.719242934484349"><ele>243.0</ele><time>2026-05-02T18:25:04.999Z</time></trkpt><trkpt lat="49.10801529264471" lon="6.719448684275146"><ele>245.5</ele><time>2026-05-02T18:25:05.999Z</time></trkpt><trkpt lat="49.10806431278576" lon="6.719658016986735"><ele>248.0</ele><time>2026-05-02T18:25:06.999Z</time></trkpt><trkpt lat="49.10811185590217" lon="6.719868167426461"><ele>249.5</ele><time>2026-05-02T18:25:07.999Z</time></trkpt><trkpt lat="49.10815551827182" lon="6.720075194243862"><ele>251.0</ele><time>2026-05-02T18:25:08.999Z</time></trkpt><trkpt lat="49.1082010554232" lon="6.720270181806671"><ele>252.5</ele><time>2026-05-02T18:25:09.999Z</time></trkpt><trkpt lat="49.10824824869143" lon="6.7204691747717655"><ele>254.0</ele><time>2026-05-02T18:25:10.999Z</time></trkpt><trkpt lat="49.10829713073583" lon="6.720672121224031"><ele>248.75</ele><time>2026-05-02T18:25:11.999Z</time></trkpt><trkpt lat="49.10834178435712" lon="6.720877149372951"><ele>243.5</ele><time>2026-05-02T18:25:12.999Z</time></trkpt><trkpt lat="49.10838560953562" lon="6.721079488620769"><ele>238.25</ele><time>2026-05-02T18:25:13.999Z</time></trkpt><trkpt lat="49.108431893593945" lon="6.721279272451713"><ele>233.0</ele><time>2026-05-02T18:25:14.999Z</time></trkpt><trkpt lat="49.1084772081419" lon="6.721479463437309"><ele>233.0</ele><time>2026-05-02T18:25:15.999Z</time></trkpt><trkpt lat="49.10852182426957" lon="6.721676622894185"><ele>233.0</ele><time>2026-05-02T18:25:16.999Z</time></trkpt><trkpt lat="49.108568274710734" lon="6.721879858721778"><ele>233.0</ele><time>2026-05-02T18:25:17.999Z</time></trkpt><trkpt lat="49.108614929756314" lon="6.722082901947343"><ele>233.0</ele><time>2026-05-02T18:25:18.999Z</time></trkpt><trkpt lat="49.10865426421922" lon="6.722277233689267"><ele>233.75</ele><time>2026-05-02T18:25:19.999Z</time></trkpt><trkpt lat="49.108687415397554" lon="6.722471078230553"><ele>234.5</ele><time>2026-05-02T18:25:20.999Z</time></trkpt><trkpt lat="49.1087177563381" lon="6.7226640490051945"><ele>235.25</ele><time>2026-05-02T18:25:21.999Z</time></trkpt><trkpt lat="49.108739336463564" lon="6.722850538939688"><ele>236.0</ele><time>2026-05-02T18:25:22.999Z</time></trkpt><trkpt lat="49.108760283564585" lon="6.72302933118317"><ele>236.8</ele><time>2026-05-02T18:25:23.999Z</time></trkpt><trkpt lat="49.10877391058619" lon="6.723214126679844"><ele>237.60000000000002</ele><time>2026-05-02T18:25:24.999Z</time></trkpt><trkpt lat="49.10878508503838" lon="6.723381233189459"><ele>238.4</ele><time>2026-05-02T18:25:25.999Z</time></trkpt><trkpt lat="49.1087973302824" lon="6.723524013963615"><ele>239.2</ele><time>2026-05-02T18:25:26.999Z</time></trkpt><trkpt lat="49.10881151962958" lon="6.723663084636231"><ele>240.0</ele><time>2026-05-02T18:25:27.999Z</time></trkpt><trkpt lat="49.10881927238784" lon="6.72378086550893"><ele>241.25</ele><time>2026-05-02T18:25:28.999Z</time></trkpt><trkpt lat="49.108828721807015" lon="6.723911668810645"><ele>242.5</ele><time>2026-05-02T18:25:29.999Z</time></trkpt><trkpt lat="49.108847348159465" lon="6.724100540865792"><ele>243.75</ele><time>2026-05-02T18:25:30.999Z</time></trkpt><trkpt lat="49.10887367020341" lon="6.724320280648875"><ele>245.0</ele><time>2026-05-02T18:25:31.999Z</time></trkpt><trkpt lat="49.10889823652488" lon="6.724580452916896"><ele>247.66666666666669</ele><time>2026-05-02T18:25:32.999Z</time></trkpt><trkpt lat="49.1089193421055" lon="6.724842444016228"><ele>250.33333333333331</ele><time>2026-05-02T18:25:33.999Z</time></trkpt><trkpt lat="49.10894005834632" lon="6.72507733736629"><ele>253.0</ele><time>2026-05-02T18:25:34.999Z</time></trkpt><trkpt lat="49.10896273219517" lon="6.725304461904039"><ele>253.5</ele><time>2026-05-02T18:25:35.999Z</time></trkpt><trkpt lat="49.108987268026326" lon="6.725526388748736"><ele>254.0</ele><time>2026-05-02T18:25:36.999Z</time></trkpt><trkpt lat="49.10899989919511" lon="6.725744550798266"><ele>254.5</ele><time>2026-05-02T18:25:37.999Z</time></trkpt><trkpt lat="49.10902398302103" lon="6.725965345025666"><ele>255.0</ele><time>2026-05-02T18:25:38.999Z</time></trkpt><trkpt lat="49.10904421054586" lon="6.72617940556279"><ele>255.25</ele><time>2026-05-02T18:25:39.999Z</time></trkpt><trkpt lat="49.10907070992176" lon="6.726388375054854"><ele>255.5</ele><time>2026-05-02T18:25:40.999Z</time></trkpt><trkpt lat="49.10909847500189" lon="6.726590051928945"><ele>255.75</ele><time>2026-05-02T18:25:41.999Z</time></trkpt><trkpt lat="49.10913486492438" lon="6.726793249894931"><ele>256.0</ele><time>2026-05-02T18:25:42.999Z</time></trkpt><trkpt lat="49.10917544635156" lon="6.727008760575147"><ele>249.33333333333331</ele><time>2026-05-02T18:25:43.999Z</time></trkpt><trkpt lat="49.10922106427013" lon="6.727232804948549"><ele>242.66666666666669</ele><time>2026-05-02T18:25:44.999Z</time></trkpt><trkpt lat="49.109261033051105" lon="6.727467630637998"><ele>236.0</ele><time>2026-05-02T18:25:45.999Z</time></trkpt><trkpt lat="49.10930139491341" lon="6.727706771772213"><ele>235.66666666666669</ele><time>2026-05-02T18:25:46.999Z</time></trkpt><trkpt lat="49.109315094396564" lon="6.727958598947631"><ele>235.33333333333331</ele><time>2026-05-02T18:25:47.999Z</time></trkpt><trkpt lat="49.10930952910782" lon="6.728223514467617"><ele>235.0</ele><time>2026-05-02T18:25:48.999Z</time></trkpt><trkpt lat="49.10928017660233" lon="6.72848738344616"><ele>234.66666666666666</ele><time>2026-05-02T18:25:49.999Z</time></trkpt><trkpt lat="49.10925852865758" lon="6.728759579850198"><ele>234.33333333333331</ele><time>2026-05-02T18:25:50.999Z</time></trkpt><trkpt lat="49.10924221740458" lon="6.729047393035722"><ele>234.0</ele><time>2026-05-02T18:25:51.999Z</time></trkpt><trkpt lat="49.109212707249185" lon="6.7293380080334435"><ele>233.33333333333331</ele><time>2026-05-02T18:25:52.999Z</time></trkpt><trkpt lat="49.109179818728556" lon="6.729638170101168"><ele>232.66666666666666</ele><time>2026-05-02T18:25:53.999Z</time></trkpt><trkpt lat="49.10914761919428" lon="6.729944737407809"><ele>232.0</ele><time>2026-05-02T18:25:55Z</time></trkpt><trkpt lat="49.10911726421987" lon="6.730258475402661"><ele>230.0</ele><time>2026-05-02T18:25:56Z</time></trkpt><trkpt lat="49.10908674232104" lon="6.730574853466726"><ele>228.0</ele><time>2026-05-02T18:25:57Z</time></trkpt><trkpt lat="49.10905280097434" lon="6.7308962966935395"><ele>226.0</ele><time>2026-05-02T18:25:58Z</time></trkpt><trkpt lat="49.10901871549895" lon="6.7312157910378225"><ele>230.66666666666666</ele><time>2026-05-02T18:25:59Z</time></trkpt><trkpt lat="49.108982155665906" lon="6.731513436894081"><ele>235.33333333333331</ele><time>2026-05-02T18:26:00Z</time></trkpt><trkpt lat="49.10894786182648" lon="6.731790434728674"><ele>240.0</ele><time>2026-05-02T18:26:01Z</time></trkpt><trkpt lat="49.108917343568685" lon="6.732050770382908"><ele>240.0</ele><time>2026-05-02T18:26:02Z</time></trkpt><trkpt lat="49.108890517995164" lon="6.7323066444072035"><ele>240.0</ele><time>2026-05-02T18:26:03Z</time></trkpt><trkpt lat="49.108863160150115" lon="6.732569048339404"><ele>240.0</ele><time>2026-05-02T18:26:04Z</time></trkpt><trkpt lat="49.10883765179679" lon="6.732836789438821"><ele>238.0</ele><time>2026-05-02T18:26:05Z</time></trkpt><trkpt lat="49.10881685937022" lon="6.733106626373832"><ele>236.0</ele><time>2026-05-02T18:26:06Z</time></trkpt><trkpt lat="49.108803973832195" lon="6.733378827059738"><ele>234.0</ele><time>2026-05-02T18:26:07Z</time></trkpt><trkpt lat="49.10879545406873" lon="6.733648384404371"><ele>234.0</ele><time>2026-05-02T18:26:08Z</time></trkpt><trkpt lat="49.10879797305699" lon="6.733915223527009"><ele>234.0</ele><time>2026-05-02T18:26:09Z</time></trkpt><trkpt lat="49.108804081554474" lon="6.734164406110931"><ele>234.0</ele><time>2026-05-02T18:26:10Z</time></trkpt><trkpt lat="49.10881139067937" lon="6.734397371315024"><ele>235.25</ele><time>2026-05-02T18:26:11Z</time></trkpt><trkpt lat="49.10881720753651" lon="6.7346057862911906"><ele>236.5</ele><time>2026-05-02T18:26:12Z</time></trkpt><trkpt lat="49.10881875178988" lon="6.734800499888807"><ele>237.75</ele><time>2026-05-02T18:26:13Z</time></trkpt><trkpt lat="49.10881565273616" lon="6.734985082420776"><ele>239.0</ele><time>2026-05-02T18:26:14Z</time></trkpt><trkpt lat="49.10879662617893" lon="6.735162467530383"><ele>239.79999999999998</ele><time>2026-05-02T18:26:15Z</time></trkpt><trkpt lat="49.10875404657473" lon="6.735319581054349"><ele>240.59999999999997</ele><time>2026-05-02T18:26:16Z</time></trkpt><trkpt lat="49.10871078016858" lon="6.73545644327996"><ele>241.4</ele><time>2026-05-02T18:26:17Z</time></trkpt><trkpt lat="49.108714353205556" lon="6.735592227180275"><ele>242.2</ele><time>2026-05-02T18:26:18Z</time></trkpt><trkpt lat="49.10877037351034" lon="6.735727151016346"><ele>243.0</ele><time>2026-05-02T18:26:19Z</time></trkpt><trkpt lat="49.10882478224669" lon="6.735907045789792"><ele>244.0</ele><time>2026-05-02T18:26:20Z</time></trkpt><trkpt lat="49.10882257926996" lon="6.736152503474526"><ele>245.0</ele><time>2026-05-02T18:26:21Z</time></trkpt><trkpt lat="49.10883822773224" lon="6.736422695625135"><ele>246.0</ele><time>2026-05-02T18:26:22Z</time></trkpt><trkpt lat="49.10883842674653" lon="6.7366904971433925"><ele>246.5</ele><time>2026-05-02T18:26:23Z</time></trkpt><trkpt lat="49.10884328584219" lon="6.736920313947963"><ele>247.0</ele><time>2026-05-02T18:26:24Z</time></trkpt><trkpt lat="49.10884973339091" lon="6.737134001364828"><ele>247.5</ele><time>2026-05-02T18:26:25Z</time></trkpt><trkpt lat="49.10885643798744" lon="6.737336457919137"><ele>248.0</ele><time>2026-05-02T18:26:26Z</time></trkpt><trkpt lat="49.108865032912696" lon="6.737537458862222"><ele>248.25</ele><time>2026-05-02T18:26:27Z</time></trkpt><trkpt lat="49.10886905827247" lon="6.737725545093519"><ele>248.5</ele><time>2026-05-02T18:26:28Z</time></trkpt><trkpt lat="49.10888009366658" lon="6.737904696094331"><ele>248.75</ele><time>2026-05-02T18:26:29Z</time></trkpt><trkpt lat="49.10889444848049" lon="6.738083205862333"><ele>249.0</ele><time>2026-05-02T18:26:30Z</time></trkpt><trkpt lat="49.10891445034773" lon="6.738270504079111"><ele>249.0</ele><time>2026-05-02T18:26:31Z</time></trkpt><trkpt lat="49.108930081082235" lon="6.738459936257738"><ele>249.0</ele><time>2026-05-02T18:26:32Z</time></trkpt><trkpt lat="49.10894370756815" lon="6.738638587976455"><ele>249.0</ele><time>2026-05-02T18:26:33Z</time></trkpt><trkpt lat="49.108957599748365" lon="6.7388126082875335"><ele>249.0</ele><time>2026-05-02T18:26:34Z</time></trkpt><trkpt lat="49.10897386594609" lon="6.738986260395584"><ele>249.25</ele><time>2026-05-02T18:26:35Z</time></trkpt><trkpt lat="49.10898803231789" lon="6.739165048830962"><ele>249.5</ele><time>2026-05-02T18:26:36Z</time></trkpt><trkpt lat="49.10899959853238" lon="6.739348506146473"><ele>249.75</ele><time>2026-05-02T18:26:37Z</time></trkpt><trkpt lat="49.10900999165849" lon="6.739536214734329"><ele>250.0</ele><time>2026-05-02T18:26:38Z</time></trkpt><trkpt lat="49.10901447659031" lon="6.739728329832921"><ele>250.25</ele><time>2026-05-02T18:26:39Z</time></trkpt><trkpt lat="49.10901665571599" lon="6.739915133830916"><ele>250.5</ele><time>2026-05-02T18:26:40Z</time></trkpt><trkpt lat="49.10901347124936" lon="6.740095403684855"><ele>250.75</ele><time>2026-05-02T18:26:41Z</time></trkpt><trkpt lat="49.109011709518875" lon="6.740268949693668"><ele>251.0</ele><time>2026-05-02T18:26:42Z</time></trkpt><trkpt lat="49.10900630550378" lon="6.740441964494746"><ele>251.0</ele><time>2026-05-02T18:26:43Z</time></trkpt><trkpt lat="49.1089968251452" lon="6.740618329237604"><ele>251.0</ele><time>2026-05-02T18:26:44Z</time></trkpt><trkpt lat="49.1089795033387" lon="6.740799865204622"><ele>251.0</ele><time>2026-05-02T18:26:45Z</time></trkpt><trkpt lat="49.10895870338806" lon="6.740984474821832"><ele>251.0</ele><time>2026-05-02T18:26:46Z</time></trkpt><trkpt lat="49.10893328816792" lon="6.7411657928987445"><ele>247.8</ele><time>2026-05-02T18:26:47Z</time></trkpt><trkpt lat="49.10890960607951" lon="6.741342883747452"><ele>244.60000000000002</ele><time>2026-05-02T18:26:48Z</time></trkpt><trkpt lat="49.10888334050144" lon="6.741505195987425"><ele>241.4</ele><time>2026-05-02T18:26:49Z</time></trkpt><trkpt lat="49.108844150696406" lon="6.741658441403337"><ele>238.2</ele><time>2026-05-02T18:26:50Z</time></trkpt><trkpt lat="49.10879339364862" lon="6.741807980492203"><ele>235.0</ele><time>2026-05-02T18:26:51Z</time></trkpt><trkpt lat="49.1087303329519" lon="6.7419481368449965"><ele>232.25</ele><time>2026-05-02T18:26:52Z</time></trkpt><trkpt lat="49.10865493592309" lon="6.742081743262661"><ele>229.5</ele><time>2026-05-02T18:26:53Z</time></trkpt><trkpt lat="49.108571254714874" lon="6.742207998551688"><ele>226.75</ele><time>2026-05-02T18:26:54Z</time></trkpt><trkpt lat="49.10847837247479" lon="6.742323343626338"><ele>224.0</ele><time>2026-05-02T18:26:55Z</time></trkpt><trkpt lat="49.10838055511234" lon="6.742433979113402"><ele>224.0</ele><time>2026-05-02T18:26:56Z</time></trkpt><trkpt lat="49.10830165034858" lon="6.7425489042436055"><ele>223.99999999999997</ele><time>2026-05-02T18:26:57Z</time></trkpt><trkpt lat="49.10823647105719" lon="6.742666294920594"><ele>223.99999999999997</ele><time>2026-05-02T18:26:58Z</time></trkpt><trkpt lat="49.108180329799275" lon="6.742780096265563"><ele>224.0</ele><time>2026-05-02T18:26:59Z</time></trkpt><trkpt lat="49.10813491547669" lon="6.742893291143602"><ele>224.0</ele><time>2026-05-02T18:27:00Z</time></trkpt><trkpt lat="49.1081012794886" lon="6.742976805271708"><ele>224.33333333333334</ele><time>2026-05-02T18:27:01Z</time></trkpt><trkpt lat="49.10803912771593" lon="6.743048115660791"><ele>224.66666666666669</ele><time>2026-05-02T18:27:04Z</time></trkpt><trkpt lat="49.10793664698262" lon="6.743092688077402"><ele>225.0</ele><time>2026-05-02T18:27:06Z</time></trkpt><trkpt lat="49.107869767819366" lon="6.743148544929454"><ele>225.33333333333331</ele><time>2026-05-02T18:27:07Z</time></trkpt><trkpt lat="49.10781312768079" lon="6.7432440209562845"><ele>225.66666666666666</ele><time>2026-05-02T18:27:08Z</time></trkpt><trkpt lat="49.1077580515219" lon="6.743354857352262"><ele>226.0</ele><time>2026-05-02T18:27:09Z</time></trkpt><trkpt lat="49.10768452089548" lon="6.743451588449477"><ele>226.0</ele><time>2026-05-02T18:27:10Z</time></trkpt><trkpt lat="49.10757529392491" lon="6.743533820945152"><ele>226.0</ele><time>2026-05-02T18:27:11Z</time></trkpt><trkpt lat="49.10743947112546" lon="6.74362312437581"><ele>226.0</ele><time>2026-05-02T18:27:12Z</time></trkpt><trkpt lat="49.1072616501272" lon="6.7437083564885425"><ele>230.0</ele><time>2026-05-02T18:27:13Z</time></trkpt><trkpt lat="49.10704827265181" lon="6.743763446579543"><ele>234.0</ele><time>2026-05-02T18:27:14Z</time></trkpt><trkpt lat="49.106815260575694" lon="6.743781805600595"><ele>234.0</ele><time>2026-05-02T18:27:15Z</time></trkpt><trkpt lat="49.106563616568444" lon="6.743795891166722"><ele>234.0</ele><time>2026-05-02T18:27:16Z</time></trkpt><trkpt lat="49.10633707230134" lon="6.7438345605672465"><ele>234.0</ele><time>2026-05-02T18:27:17Z</time></trkpt><trkpt lat="49.10613116506454" lon="6.743864825851697"><ele>234.0</ele><time>2026-05-02T18:27:18Z</time></trkpt><trkpt lat="49.10593929082959" lon="6.743889803875238"><ele>234.0</ele><time>2026-05-02T18:27:19Z</time></trkpt><trkpt lat="49.10575227414363" lon="6.743922324462019"><ele>234.66666666666669</ele><time>2026-05-02T18:27:20Z</time></trkpt><trkpt lat="49.10557262704804" lon="6.74396377668174"><ele>235.33333333333334</ele><time>2026-05-02T18:27:21Z</time></trkpt><trkpt lat="49.105397346697714" lon="6.744013600588947"><ele>236.0</ele><time>2026-05-02T18:27:22Z</time></trkpt><trkpt lat="49.10521908686609" lon="6.744077326297778"><ele>236.0</ele><time>2026-05-02T18:27:23Z</time></trkpt><trkpt lat="49.10505447856145" lon="6.74414341739138"><ele>236.0</ele><time>2026-05-02T18:27:24Z</time></trkpt><trkpt lat="49.104900374167826" lon="6.744207316466924"><ele>236.0</ele><time>2026-05-02T18:27:25Z</time></trkpt><trkpt lat="49.10475311308419" lon="6.744270754213647"><ele>236.66666666666669</ele><time>2026-05-02T18:27:26Z</time></trkpt><trkpt lat="49.104612389046906" lon="6.744347815791481"><ele>237.33333333333331</ele><time>2026-05-02T18:27:27Z</time></trkpt><trkpt lat="49.10447991246302" lon="6.744465793924221"><ele>238.0</ele><time>2026-05-02T18:27:28Z</time></trkpt><trkpt lat="49.104369035325746" lon="6.744638278228813"><ele>239.33333333333331</ele><time>2026-05-02T18:27:29Z</time></trkpt><trkpt lat="49.1042868769336" lon="6.7448548779895034"><ele>240.66666666666669</ele><time>2026-05-02T18:27:30Z</time></trkpt><trkpt lat="49.10419715824248" lon="6.74506066599988"><ele>242.0</ele><time>2026-05-02T18:27:31Z</time></trkpt><trkpt lat="49.10406610501097" lon="6.7452660535366356"><ele>242.0</ele><time>2026-05-02T18:27:32Z</time></trkpt><trkpt lat="49.103878375644356" lon="6.745375450155663"><ele>242.0</ele><time>2026-05-02T18:27:33Z</time></trkpt><trkpt lat="49.103696706295594" lon="6.745499474492299"><ele>242.0</ele><time>2026-05-02T18:27:34Z</time></trkpt><trkpt lat="49.10351931622099" lon="6.745597363492421"><ele>242.0</ele><time>2026-05-02T18:27:35Z</time></trkpt><trkpt lat="49.10335869741043" lon="6.745698207338488"><ele>242.0</ele><time>2026-05-02T18:27:36Z</time></trkpt><trkpt lat="49.10321262569287" lon="6.745802509962389"><ele>242.0</ele><time>2026-05-02T18:27:37Z</time></trkpt><trkpt lat="49.1030890024264" lon="6.745905593134112"><ele>241.8</ele><time>2026-05-02T18:27:38Z</time></trkpt><trkpt lat="49.102991750920516" lon="6.746028026862633"><ele>241.6</ele><time>2026-05-02T18:27:39Z</time></trkpt><trkpt lat="49.10291690400469" lon="6.746156152506244"><ele>241.40000000000003</ele><time>2026-05-02T18:27:40Z</time></trkpt><trkpt lat="49.10285513217868" lon="6.746262757307412"><ele>241.20000000000002</ele><time>2026-05-02T18:27:41Z</time></trkpt><trkpt lat="49.102785466833865" lon="6.746335339109527"><ele>241.0</ele><time>2026-05-02T18:27:42Z</time></trkpt><trkpt lat="49.102712499355555" lon="6.746382059700848"><ele>241.0</ele><time>2026-05-02T18:27:43Z</time></trkpt><trkpt lat="49.102643107943855" lon="6.746449723848138"><ele>241.00000000000003</ele><time>2026-05-02T18:27:44Z</time></trkpt><trkpt lat="49.102602603497225" lon="6.746555618286075"><ele>241.00000000000003</ele><time>2026-05-02T18:27:45Z</time></trkpt><trkpt lat="49.102607815956674" lon="6.746691606796732"><ele>241.0</ele><time>2026-05-02T18:27:46Z</time></trkpt><trkpt lat="49.10265260446926" lon="6.746832545291406"><ele>241.0</ele><time>2026-05-02T18:27:47Z</time></trkpt><trkpt lat="49.10268205707487" lon="6.74702517176022"><ele>242.33333333333331</ele><time>2026-05-02T18:27:48Z</time></trkpt><trkpt lat="49.10268328040172" lon="6.747273783696195"><ele>243.66666666666669</ele><time>2026-05-02T18:27:49Z</time></trkpt><trkpt lat="49.10265172688558" lon="6.747556433169702"><ele>245.0</ele><time>2026-05-02T18:27:50Z</time></trkpt><trkpt lat="49.10260388704786" lon="6.747874604507732"><ele>247.0</ele><time>2026-05-02T18:27:51Z</time></trkpt><trkpt lat="49.102534833180854" lon="6.748200174683794"><ele>249.0</ele><time>2026-05-02T18:27:52Z</time></trkpt><trkpt lat="49.102455067368794" lon="6.748543789170842"><ele>251.0</ele><time>2026-05-02T18:27:53Z</time></trkpt><trkpt lat="49.10238100617573" lon="6.748903395701286"><ele>253.0</ele><time>2026-05-02T18:27:54Z</time></trkpt><trkpt lat="49.10231365692546" lon="6.749254432370554"><ele>252.66666666666666</ele><time>2026-05-02T18:27:55Z</time></trkpt><trkpt lat="49.10224736237635" lon="6.7495868493293925"><ele>252.33333333333331</ele><time>2026-05-02T18:27:56Z</time></trkpt><trkpt lat="49.102186125958546" lon="6.749893062719327"><ele>252.0</ele><time>2026-05-02T18:27:57Z</time></trkpt><trkpt lat="49.10212758183623" lon="6.750174338515962"><ele>252.0</ele><time>2026-05-02T18:27:58Z</time></trkpt><trkpt lat="49.10206716077176" lon="6.750456800226725"><ele>252.0</ele><time>2026-05-02T18:27:59Z</time></trkpt><trkpt lat="49.10200808219343" lon="6.750742503529611"><ele>252.0</ele><time>2026-05-02T18:28:00Z</time></trkpt><trkpt lat="49.101952173823165" lon="6.751026279286114"><ele>252.33333333333331</ele><time>2026-05-02T18:28:01Z</time></trkpt><trkpt lat="49.10189423869434" lon="6.7513117893359365"><ele>252.66666666666666</ele><time>2026-05-02T18:28:02Z</time></trkpt><trkpt lat="49.101838891391445" lon="6.751596242595239"><ele>253.0</ele><time>2026-05-02T18:28:03Z</time></trkpt><trkpt lat="49.101782651158764" lon="6.7518813764697585"><ele>253.0</ele><time>2026-05-02T18:28:04Z</time></trkpt><trkpt lat="49.10172472664807" lon="6.752164294081748"><ele>253.0</ele><time>2026-05-02T18:28:05Z</time></trkpt><trkpt lat="49.1016651744897" lon="6.752446462337934"><ele>253.0</ele><time>2026-05-02T18:28:06Z</time></trkpt><trkpt lat="49.10160556958833" lon="6.752731816988249"><ele>253.0</ele><time>2026-05-02T18:28:07Z</time></trkpt><trkpt lat="49.10154667763393" lon="6.7530169970663065"><ele>253.0</ele><time>2026-05-02T18:28:08Z</time></trkpt><trkpt lat="49.10148795508116" lon="6.753302278415136"><ele>253.0</ele><time>2026-05-02T18:28:09Z</time></trkpt><trkpt lat="49.10142916996332" lon="6.753590610451012"><ele>253.0</ele><time>2026-05-02T18:28:10Z</time></trkpt><trkpt lat="49.10137229557071" lon="6.753878812434294"><ele>253.0</ele><time>2026-05-02T18:28:11Z</time></trkpt><trkpt lat="49.10131942057171" lon="6.754160342742149"><ele>253.0</ele><time>2026-05-02T18:28:12Z</time></trkpt><trkpt lat="49.10126723823092" lon="6.7544367756158215"><ele>253.66666666666666</ele><time>2026-05-02T18:28:13Z</time></trkpt><trkpt lat="49.10121416964456" lon="6.754705615563077"><ele>254.33333333333331</ele><time>2026-05-02T18:28:14Z</time></trkpt><trkpt lat="49.10116171262014" lon="6.754966244722149"><ele>255.0</ele><time>2026-05-02T18:28:15Z</time></trkpt><trkpt lat="49.1011085843784" lon="6.755222696530502"><ele>256.0</ele><time>2026-05-02T18:28:16Z</time></trkpt><trkpt lat="49.10105859346138" lon="6.755479014141543"><ele>257.0</ele><time>2026-05-02T18:28:17Z</time></trkpt><trkpt lat="49.10100933769578" lon="6.755732446731446"><ele>258.0</ele><time>2026-05-02T18:28:18Z</time></trkpt><trkpt lat="49.10095952209307" lon="6.755986522090551"><ele>259.3333333333333</ele><time>2026-05-02T18:28:19Z</time></trkpt><trkpt lat="49.1009099425146" lon="6.756242462506408"><ele>260.66666666666663</ele><time>2026-05-02T18:28:20Z</time></trkpt><trkpt lat="49.100857276803346" lon="6.756503857199758"><ele>262.0</ele><time>2026-05-02T18:28:21Z</time></trkpt><trkpt lat="49.100805226535144" lon="6.756764424983594"><ele>261.66666666666663</ele><time>2026-05-02T18:28:22Z</time></trkpt><trkpt lat="49.10075323220412" lon="6.757025013063936"><ele>261.3333333333333</ele><time>2026-05-02T18:28:23Z</time></trkpt><trkpt lat="49.100703095828486" lon="6.75728698729966"><ele>261.0</ele><time>2026-05-02T18:28:24Z</time></trkpt><trkpt lat="49.100649079886125" lon="6.757546538967008"><ele>261.3333333333333</ele><time>2026-05-02T18:28:25Z</time></trkpt><trkpt lat="49.100596169479616" lon="6.757810976878372"><ele>261.66666666666663</ele><time>2026-05-02T18:28:26Z</time></trkpt><trkpt lat="49.10054282449038" lon="6.7580675561938985"><ele>262.0</ele><time>2026-05-02T18:28:27Z</time></trkpt><trkpt lat="49.100490433141225" lon="6.758326268499469"><ele>262.0</ele><time>2026-05-02T18:28:28Z</time></trkpt><trkpt lat="49.1004400315664" lon="6.75858460126689"><ele>262.0</ele><time>2026-05-02T18:28:29Z</time></trkpt><trkpt lat="49.10038789267005" lon="6.758836594696627"><ele>262.0</ele><time>2026-05-02T18:28:30Z</time></trkpt><trkpt lat="49.100334452021784" lon="6.759092193064745"><ele>262.0</ele><time>2026-05-02T18:28:31Z</time></trkpt><trkpt lat="49.10027861742638" lon="6.759350059533"><ele>262.0</ele><time>2026-05-02T18:28:32Z</time></trkpt><trkpt lat="49.100225808482755" lon="6.759607380907924"><ele>262.0</ele><time>2026-05-02T18:28:33Z</time></trkpt><trkpt lat="49.10017549927433" lon="6.7598726942089655"><ele>262.0</ele><time>2026-05-02T18:28:34Z</time></trkpt><trkpt lat="49.10012322621772" lon="6.760136478069276"><ele>262.0</ele><time>2026-05-02T18:28:35Z</time></trkpt><trkpt lat="49.10006805368385" lon="6.760395972019185"><ele>262.0</ele><time>2026-05-02T18:28:36Z</time></trkpt><trkpt lat="49.10001657034403" lon="6.76066484058845"><ele>263.0</ele><time>2026-05-02T18:28:37Z</time></trkpt><trkpt lat="49.09996442939411" lon="6.760928823906587"><ele>264.0</ele><time>2026-05-02T18:28:38Z</time></trkpt><trkpt lat="49.09991087947522" lon="6.761195199666594"><ele>265.0</ele><time>2026-05-02T18:28:39Z</time></trkpt><trkpt lat="49.09985100129465" lon="6.7614685472277465"><ele>266.0</ele><time>2026-05-02T18:28:40Z</time></trkpt><trkpt lat="49.09979382179623" lon="6.761739927224498"><ele>267.0</ele><time>2026-05-02T18:28:41Z</time></trkpt><trkpt lat="49.09973511430035" lon="6.762006892192071"><ele>268.0</ele><time>2026-05-02T18:28:42Z</time></trkpt><trkpt lat="49.09967915841126" lon="6.762268357544425"><ele>268.0</ele><time>2026-05-02T18:28:43Z</time></trkpt><trkpt lat="49.099629914234804" lon="6.762513572786694"><ele>268.0</ele><time>2026-05-02T18:28:44Z</time></trkpt><trkpt lat="49.09958176005788" lon="6.762757629276659"><ele>268.0</ele><time>2026-05-02T18:28:45Z</time></trkpt><trkpt lat="49.099537133880474" lon="6.762989771829404"><ele>268.3333333333333</ele><time>2026-05-02T18:28:46Z</time></trkpt><trkpt lat="49.09949008257103" lon="6.763216745421955"><ele>268.6666666666667</ele><time>2026-05-02T18:28:47Z</time></trkpt><trkpt lat="49.09944296808185" lon="6.763452337137713"><ele>269.0</ele><time>2026-05-02T18:28:48Z</time></trkpt><trkpt lat="49.09939519300442" lon="6.7636937777258614"><ele>269.33333333333337</ele><time>2026-05-02T18:28:49Z</time></trkpt><trkpt lat="49.0993450897402" lon="6.763929145327465"><ele>269.6666666666667</ele><time>2026-05-02T18:28:50Z</time></trkpt><trkpt lat="49.09929857707941" lon="6.764152341967176"><ele>270.0</ele><time>2026-05-02T18:28:51Z</time></trkpt><trkpt lat="49.09925308615785" lon="6.764364899791689"><ele>269.3333333333333</ele><time>2026-05-02T18:28:52Z</time></trkpt><trkpt lat="49.099210636802326" lon="6.764578043938525"><ele>268.66666666666663</ele><time>2026-05-02T18:28:53Z</time></trkpt><trkpt lat="49.09916858487031" lon="6.76479485139396"><ele>268.0</ele><time>2026-05-02T18:28:54Z</time></trkpt><trkpt lat="49.099124508099834" lon="6.765023141842992"><ele>265.66666666666663</ele><time>2026-05-02T18:28:55Z</time></trkpt><trkpt lat="49.09907956419484" lon="6.765255445665291"><ele>263.3333333333333</ele><time>2026-05-02T18:28:56Z</time></trkpt><trkpt lat="49.09903131389809" lon="6.765483513060735"><ele>261.0</ele><time>2026-05-02T18:28:57Z</time></trkpt><trkpt lat="49.09898510256119" lon="6.7657043716474226"><ele>261.0</ele><time>2026-05-02T18:28:58Z</time></trkpt><trkpt lat="49.098938788328105" lon="6.765916855810293"><ele>261.0</ele><time>2026-05-02T18:28:59Z</time></trkpt><trkpt lat="49.098897102770565" lon="6.7661216889741285"><ele>261.0</ele><time>2026-05-02T18:29:00Z</time></trkpt><trkpt lat="49.09885664659868" lon="6.766321306310613"><ele>261.0</ele><time>2026-05-02T18:29:01Z</time></trkpt><trkpt lat="49.09881230989682" lon="6.7665340565288705"><ele>261.75</ele><time>2026-05-02T18:29:02Z</time></trkpt><trkpt lat="49.09876636164492" lon="6.766756273451599"><ele>262.5</ele><time>2026-05-02T18:29:03Z</time></trkpt><trkpt lat="49.098722410088236" lon="6.766969421116707"><ele>263.25</ele><time>2026-05-02T18:29:04Z</time></trkpt><trkpt lat="49.0986816799615" lon="6.7671672934900755"><ele>264.0</ele><time>2026-05-02T18:29:05Z</time></trkpt><trkpt lat="49.098643922412144" lon="6.767369016179121"><ele>264.25</ele><time>2026-05-02T18:29:06Z</time></trkpt><trkpt lat="49.098604503068934" lon="6.767579384400707"><ele>264.5</ele><time>2026-05-02T18:29:07Z</time></trkpt><trkpt lat="49.098564095888165" lon="6.767782839746309"><ele>264.75</ele><time>2026-05-02T18:29:08Z</time></trkpt><trkpt lat="49.09852354958181" lon="6.767975612905374"><ele>265.0</ele><time>2026-05-02T18:29:09Z</time></trkpt><trkpt lat="49.0984801630003" lon="6.768171099565259"><ele>265.0</ele><time>2026-05-02T18:29:10Z</time></trkpt><trkpt lat="49.098441094958424" lon="6.76837133752122"><ele>265.0</ele><time>2026-05-02T18:29:11Z</time></trkpt><trkpt lat="49.09840174692915" lon="6.768574290909636"><ele>265.0</ele><time>2026-05-02T18:29:12Z</time></trkpt><trkpt lat="49.09835996371753" lon="6.768782087631631"><ele>265.0</ele><time>2026-05-02T18:29:13Z</time></trkpt><trkpt lat="49.09831870616327" lon="6.768989322698801"><ele>265.0</ele><time>2026-05-02T18:29:14Z</time></trkpt><trkpt lat="49.098277767346325" lon="6.769193768179926"><ele>265.0</ele><time>2026-05-02T18:29:15Z</time></trkpt><trkpt lat="49.09823861755954" lon="6.769394552289852"><ele>265.0</ele><time>2026-05-02T18:29:16Z</time></trkpt><trkpt lat="49.098199423015636" lon="6.769582083094552"><ele>265.0</ele><time>2026-05-02T18:29:17Z</time></trkpt><trkpt lat="49.09816429586815" lon="6.769758309772698"><ele>265.4</ele><time>2026-05-02T18:29:18Z</time></trkpt><trkpt lat="49.09813087244702" lon="6.769922838298102"><ele>265.8</ele><time>2026-05-02T18:29:19Z</time></trkpt><trkpt lat="49.09810034881383" lon="6.77007194827484"><ele>266.2</ele><time>2026-05-02T18:29:20Z</time></trkpt><trkpt lat="49.098069161458824" lon="6.770211975997411"><ele>266.6</ele><time>2026-05-02T18:29:21Z</time></trkpt><trkpt lat="49.098042186974695" lon="6.770337258769686"><ele>267.0</ele><time>2026-05-02T18:29:22Z</time></trkpt><trkpt lat="49.09802078537253" lon="6.770449577358913"><ele>267.5</ele><time>2026-05-02T18:29:23Z</time></trkpt><trkpt lat="49.09800060189774" lon="6.770556954952874"><ele>268.0</ele><time>2026-05-02T18:29:24Z</time></trkpt><trkpt lat="49.09798149284319" lon="6.770655237100106"><ele>268.5</ele><time>2026-05-02T18:29:25Z</time></trkpt><trkpt lat="49.09794880708168" lon="6.770809485702534"><ele>269.0</ele><time>2026-05-02T18:29:27Z</time></trkpt><trkpt lat="49.09791816744702" lon="6.770945083785525"><ele>269.5</ele><time>2026-05-02T18:29:29Z</time></trkpt><trkpt lat="49.097891026508414" lon="6.771095584675244"><ele>270.0</ele><time>2026-05-02T18:29:31Z</time></trkpt><trkpt lat="49.09786130455344" lon="6.771239931080747"><ele>270.0</ele><time>2026-05-02T18:29:33Z</time></trkpt><trkpt lat="49.0978416359945" lon="6.771335838647719"><ele>270.0</ele><time>2026-05-02T18:29:35Z</time></trkpt><trkpt lat="49.097805672804654" lon="6.7715151473763004"><ele>270.0</ele><time>2026-05-02T18:29:37Z</time></trkpt><trkpt lat="49.09778594637252" lon="6.771617298773413"><ele>270.0</ele><time>2026-05-02T18:29:38Z</time></trkpt><trkpt lat="49.09775257851748" lon="6.771763123001076"><ele>270.0</ele><time>2026-05-02T18:29:39Z</time></trkpt><trkpt lat="49.09772206626812" lon="6.77191191847197"><ele>270.0</ele><time>2026-05-02T18:29:40Z</time></trkpt><trkpt lat="49.09769402953896" lon="6.772072729896289"><ele>270.0</ele><time>2026-05-02T18:29:41Z</time></trkpt><trkpt lat="49.09766340438993" lon="6.772247581759154"><ele>270.0</ele><time>2026-05-02T18:29:42Z</time></trkpt><trkpt lat="49.09762549892104" lon="6.772436536727968"><ele>270.0</ele><time>2026-05-02T18:29:43Z</time></trkpt><trkpt lat="49.09758499625042" lon="6.7726104073416185"><ele>270.0</ele><time>2026-05-02T18:29:44Z</time></trkpt><trkpt lat="49.097546681266344" lon="6.772790560735166"><ele>270.0</ele><time>2026-05-02T18:29:45Z</time></trkpt><trkpt lat="49.09751225755652" lon="6.772977550944556"><ele>270.0</ele><time>2026-05-02T18:29:46Z</time></trkpt><trkpt lat="49.097473862907705" lon="6.773172471005163"><ele>270.0</ele><time>2026-05-02T18:29:47Z</time></trkpt><trkpt lat="49.097433163492596" lon="6.773375937496764"><ele>269.75</ele><time>2026-05-02T18:29:48Z</time></trkpt><trkpt lat="49.09739181105673" lon="6.773579749198854"><ele>269.5</ele><time>2026-05-02T18:29:49Z</time></trkpt><trkpt lat="49.0973525713318" lon="6.773767850017084"><ele>269.25</ele><time>2026-05-02T18:29:50Z</time></trkpt><trkpt lat="49.09731600586534" lon="6.773939435125612"><ele>269.0</ele><time>2026-05-02T18:29:51Z</time></trkpt><trkpt lat="49.097282458526415" lon="6.774103750842581"><ele>269.0</ele><time>2026-05-02T18:29:52Z</time></trkpt><trkpt lat="49.097250432043126" lon="6.77426334819732"><ele>269.0</ele><time>2026-05-02T18:29:53Z</time></trkpt><trkpt lat="49.09721937935912" lon="6.774430169972541"><ele>269.0</ele><time>2026-05-02T18:29:54Z</time></trkpt><trkpt lat="49.09718559283295" lon="6.774599637012137"><ele>269.0</ele><time>2026-05-02T18:29:55Z</time></trkpt><trkpt lat="49.09715156734533" lon="6.774765539740703"><ele>269.4</ele><time>2026-05-02T18:29:56Z</time></trkpt><trkpt lat="49.097120271669596" lon="6.774928184630082"><ele>269.79999999999995</ele><time>2026-05-02T18:29:57Z</time></trkpt><trkpt lat="49.097090397044845" lon="6.775086533142992"><ele>270.20000000000005</ele><time>2026-05-02T18:29:58Z</time></trkpt><trkpt lat="49.097056243524094" lon="6.775248063194348"><ele>270.6</ele><time>2026-05-02T18:29:59Z</time></trkpt><trkpt lat="49.09702367440953" lon="6.775411800017751"><ele>271.0</ele><time>2026-05-02T18:30:00Z</time></trkpt><trkpt lat="49.096992925877124" lon="6.775573199769833"><ele>271.6</ele><time>2026-05-02T18:30:01Z</time></trkpt><trkpt lat="49.0969626541054" lon="6.775735495538417"><ele>272.20000000000005</ele><time>2026-05-02T18:30:02Z</time></trkpt><trkpt lat="49.09692782246471" lon="6.77589953367217"><ele>272.79999999999995</ele><time>2026-05-02T18:30:03Z</time></trkpt><trkpt lat="49.09689244239695" lon="6.776064333037604"><ele>273.4</ele><time>2026-05-02T18:30:04Z</time></trkpt><trkpt lat="49.09685664142334" lon="6.776226604142191"><ele>274.0</ele><time>2026-05-02T18:30:05Z</time></trkpt><trkpt lat="49.09682396681872" lon="6.776389914846073"><ele>275.2</ele><time>2026-05-02T18:30:06Z</time></trkpt><trkpt lat="49.09679230077151" lon="6.7765565090301925"><ele>276.4</ele><time>2026-05-02T18:30:07Z</time></trkpt><trkpt lat="49.096762202308156" lon="6.776710778994824"><ele>277.6</ele><time>2026-05-02T18:30:08Z</time></trkpt><trkpt lat="49.096732067566485" lon="6.7768585028425905"><ele>278.8</ele><time>2026-05-02T18:30:09Z</time></trkpt><trkpt lat="49.096702268651704" lon="6.777005866326705"><ele>280.0</ele><time>2026-05-02T18:30:10Z</time></trkpt><trkpt lat="49.09667108879406" lon="6.777163620663907"><ele>280.25</ele><time>2026-05-02T18:30:11Z</time></trkpt><trkpt lat="49.09663929159276" lon="6.77732823744349"><ele>280.5</ele><time>2026-05-02T18:30:12Z</time></trkpt><trkpt lat="49.09660472806186" lon="6.777501736405667"><ele>280.75</ele><time>2026-05-02T18:30:13Z</time></trkpt><trkpt lat="49.096568242849635" lon="6.777681013181721"><ele>281.0</ele><time>2026-05-02T18:30:14Z</time></trkpt><trkpt lat="49.09653221104506" lon="6.7778665542717516"><ele>280.5</ele><time>2026-05-02T18:30:15Z</time></trkpt><trkpt lat="49.0964979242309" lon="6.7780553959919985"><ele>280.0</ele><time>2026-05-02T18:30:16Z</time></trkpt><trkpt lat="49.096460126278885" lon="6.778248178279433"><ele>279.5</ele><time>2026-05-02T18:30:17Z</time></trkpt><trkpt lat="49.09641828678371" lon="6.778446517036639"><ele>279.0</ele><time>2026-05-02T18:30:18Z</time></trkpt><trkpt lat="49.09637796009467" lon="6.778653066304922"><ele>279.0</ele><time>2026-05-02T18:30:19Z</time></trkpt><trkpt lat="49.09633998338712" lon="6.778842817370366"><ele>279.0</ele><time>2026-05-02T18:30:20Z</time></trkpt><trkpt lat="49.0963051526918" lon="6.779022345835063"><ele>279.0</ele><time>2026-05-02T18:30:21Z</time></trkpt><trkpt lat="49.09627038203344" lon="6.779198721627685"><ele>279.0</ele><time>2026-05-02T18:30:22Z</time></trkpt><trkpt lat="49.09623326341625" lon="6.779380071821378"><ele>278.5</ele><time>2026-05-02T18:30:23Z</time></trkpt><trkpt lat="49.096195833919175" lon="6.779560952324582"><ele>278.0</ele><time>2026-05-02T18:30:24Z</time></trkpt><trkpt lat="49.09616127837543" lon="6.7797291068757115"><ele>277.5</ele><time>2026-05-02T18:30:25Z</time></trkpt><trkpt lat="49.09612872967804" lon="6.779888461653738"><ele>277.0</ele><time>2026-05-02T18:30:26Z</time></trkpt><trkpt lat="49.09609807872605" lon="6.780051777919809"><ele>276.75</ele><time>2026-05-02T18:30:27Z</time></trkpt><trkpt lat="49.09606333286672" lon="6.780227321186108"><ele>276.5</ele><time>2026-05-02T18:30:28Z</time></trkpt><trkpt lat="49.096022272954315" lon="6.780407898360073"><ele>276.25</ele><time>2026-05-02T18:30:29Z</time></trkpt><trkpt lat="49.09598547950547" lon="6.780588984799725"><ele>276.0</ele><time>2026-05-02T18:30:30Z</time></trkpt><trkpt lat="49.09594760006439" lon="6.780783192180799"><ele>276.0</ele><time>2026-05-02T18:30:31Z</time></trkpt><trkpt lat="49.09590562433143" lon="6.780992774143605"><ele>276.0</ele><time>2026-05-02T18:30:32Z</time></trkpt><trkpt lat="49.09586013639626" lon="6.781207945801303"><ele>276.0</ele><time>2026-05-02T18:30:33Z</time></trkpt><trkpt lat="49.09581639651749" lon="6.7814329348930436"><ele>276.0</ele><time>2026-05-02T18:30:34Z</time></trkpt><trkpt lat="49.09577220747827" lon="6.781665366128303"><ele>277.6666666666667</ele><time>2026-05-02T18:30:35Z</time></trkpt><trkpt lat="49.09572566612964" lon="6.781902212225479"><ele>279.33333333333337</ele><time>2026-05-02T18:30:36Z</time></trkpt><trkpt lat="49.095679115881794" lon="6.782137029910968"><ele>281.0</ele><time>2026-05-02T18:30:37Z</time></trkpt><trkpt lat="49.09563883322861" lon="6.782347658034947"><ele>281.0</ele><time>2026-05-02T18:30:38Z</time></trkpt><trkpt lat="49.09559985454855" lon="6.782541900267713"><ele>281.0</ele><time>2026-05-02T18:30:39Z</time></trkpt><trkpt lat="49.09556156200905" lon="6.782730565068967"><ele>281.0</ele><time>2026-05-02T18:30:40Z</time></trkpt><trkpt lat="49.095522356919275" lon="6.782938196184479"><ele>281.0</ele><time>2026-05-02T18:30:41Z</time></trkpt><trkpt lat="49.09548215316592" lon="6.78314464119313"><ele>282.0</ele><time>2026-05-02T18:30:42Z</time></trkpt><trkpt lat="49.09544170306506" lon="6.783353275183845"><ele>283.0</ele><time>2026-05-02T18:30:43Z</time></trkpt><trkpt lat="49.095401312030155" lon="6.783562895963807"><ele>284.0</ele><time>2026-05-02T18:30:44Z</time></trkpt><trkpt lat="49.09536174267162" lon="6.783768743315028"><ele>285.0</ele><time>2026-05-02T18:30:45Z</time></trkpt><trkpt lat="49.09532612040801" lon="6.783974278301855"><ele>285.25</ele><time>2026-05-02T18:30:46Z</time></trkpt><trkpt lat="49.095297343286795" lon="6.784178404789744"><ele>285.5</ele><time>2026-05-02T18:30:47Z</time></trkpt><trkpt lat="49.095280252409125" lon="6.784374725371921"><ele>285.75</ele><time>2026-05-02T18:30:48Z</time></trkpt><trkpt lat="49.09527134734521" lon="6.784553586029857"><ele>286.0</ele><time>2026-05-02T18:30:49Z</time></trkpt><trkpt lat="49.09526303449716" lon="6.784723020778535"><ele>286.0</ele><time>2026-05-02T18:30:50Z</time></trkpt><trkpt lat="49.09525430211167" lon="6.784877491094547"><ele>286.0</ele><time>2026-05-02T18:30:51Z</time></trkpt><trkpt lat="49.09523797544142" lon="6.785022497065533"><ele>286.0</ele><time>2026-05-02T18:30:52Z</time></trkpt><trkpt lat="49.095208416942036" lon="6.785177905532426"><ele>286.0</ele><time>2026-05-02T18:30:53Z</time></trkpt><trkpt lat="49.095162979794615" lon="6.785362057265097"><ele>286.0</ele><time>2026-05-02T18:30:54Z</time></trkpt><trkpt lat="49.09510904068131" lon="6.785558964750094"><ele>285.3333333333333</ele><time>2026-05-02T18:30:55Z</time></trkpt><trkpt lat="49.0950573813567" lon="6.7857650470210755"><ele>284.6666666666667</ele><time>2026-05-02T18:30:56Z</time></trkpt><trkpt lat="49.094987989990315" lon="6.785975220866981"><ele>284.0</ele><time>2026-05-02T18:30:57Z</time></trkpt><trkpt lat="49.094901827727384" lon="6.786217495907522"><ele>282.6666666666667</ele><time>2026-05-02T18:30:58Z</time></trkpt><trkpt lat="49.094821759661244" lon="6.786507463171493"><ele>281.3333333333333</ele><time>2026-05-02T18:30:59Z</time></trkpt><trkpt lat="49.09475519650406" lon="6.786834596090945"><ele>280.0</ele><time>2026-05-02T18:31:00Z</time></trkpt><trkpt lat="49.09469994166159" lon="6.787179496937829"><ele>280.0</ele><time>2026-05-02T18:31:01Z</time></trkpt><trkpt lat="49.094635079376296" lon="6.787534258209206"><ele>280.0</ele><time>2026-05-02T18:31:02Z</time></trkpt><trkpt lat="49.09456384274353" lon="6.787892658980861"><ele>280.0</ele><time>2026-05-02T18:31:03Z</time></trkpt><trkpt lat="49.094491365629324" lon="6.788240440157222"><ele>280.0</ele><time>2026-05-02T18:31:04Z</time></trkpt><trkpt lat="49.09442456555671" lon="6.788576290093147"><ele>280.0</ele><time>2026-05-02T18:31:05Z</time></trkpt><trkpt lat="49.09436137637903" lon="6.788901929572422"><ele>280.0</ele><time>2026-05-02T18:31:06Z</time></trkpt><trkpt lat="49.094296837018206" lon="6.789230157441108"><ele>280.0</ele><time>2026-05-02T18:31:07Z</time></trkpt><trkpt lat="49.094231614725906" lon="6.789561202807733"><ele>279.5</ele><time>2026-05-02T18:31:08Z</time></trkpt><trkpt lat="49.09416563916667" lon="6.789893770369019"><ele>279.0</ele><time>2026-05-02T18:31:09Z</time></trkpt><trkpt lat="49.09409907005619" lon="6.790228684019762"><ele>277.5</ele><time>2026-05-02T18:31:10Z</time></trkpt><trkpt lat="49.0940343011081" lon="6.790565479910694"><ele>276.0</ele><time>2026-05-02T18:31:11Z</time></trkpt><trkpt lat="49.09396950631355" lon="6.790904129000226"><ele>275.0</ele><time>2026-05-02T18:31:12Z</time></trkpt><trkpt lat="49.09390440812086" lon="6.791236840685991"><ele>274.0</ele><time>2026-05-02T18:31:13Z</time></trkpt><trkpt lat="49.09383688992673" lon="6.791570831215445"><ele>273.5</ele><time>2026-05-02T18:31:14Z</time></trkpt><trkpt lat="49.09377176210303" lon="6.791901859627211"><ele>273.0</ele><time>2026-05-02T18:31:15Z</time></trkpt><trkpt lat="49.09370741738125" lon="6.7922310470147895"><ele>273.0</ele><time>2026-05-02T18:31:16Z</time></trkpt><trkpt lat="49.093643065686585" lon="6.792555668864647"><ele>273.0</ele><time>2026-05-02T18:31:17Z</time></trkpt><trkpt lat="49.093579506404915" lon="6.79287821025463"><ele>273.0</ele><time>2026-05-02T18:31:18Z</time></trkpt><trkpt lat="49.09351663269726" lon="6.793198773753413"><ele>273.3333333333333</ele><time>2026-05-02T18:31:19Z</time></trkpt><trkpt lat="49.09345438352827" lon="6.793511475374829"><ele>273.66666666666663</ele><time>2026-05-02T18:31:20Z</time></trkpt><trkpt lat="49.09339019760573" lon="6.79383488003804"><ele>274.0</ele><time>2026-05-02T18:31:21Z</time></trkpt><trkpt lat="49.09332800202386" lon="6.79414364661464"><ele>273.3333333333333</ele><time>2026-05-02T18:31:22Z</time></trkpt><trkpt lat="49.09327013690234" lon="6.794435325175521"><ele>272.6666666666667</ele><time>2026-05-02T18:31:23Z</time></trkpt><trkpt lat="49.09321559365697" lon="6.794716561900366"><ele>272.0</ele><time>2026-05-02T18:31:24Z</time></trkpt><trkpt lat="49.093157338214716" lon="6.79500621982442"><ele>272.6666666666667</ele><time>2026-05-02T18:31:25Z</time></trkpt><trkpt lat="49.093100921484094" lon="6.795293182528375"><ele>273.3333333333333</ele><time>2026-05-02T18:31:26Z</time></trkpt><trkpt lat="49.09304616400497" lon="6.795574416079997"><ele>274.0</ele><time>2026-05-02T18:31:27Z</time></trkpt><trkpt lat="49.09298927157913" lon="6.7958577863649525"><ele>275.0</ele><time>2026-05-02T18:31:28Z</time></trkpt><trkpt lat="49.0929320375886" lon="6.796143485764522"><ele>276.0</ele><time>2026-05-02T18:31:29Z</time></trkpt><trkpt lat="49.09287449858462" lon="6.796430204977674"><ele>277.0</ele><time>2026-05-02T18:31:30Z</time></trkpt><trkpt lat="49.092817248122785" lon="6.796722714488127"><ele>279.3333333333333</ele><time>2026-05-02T18:31:31Z</time></trkpt><trkpt lat="49.092761430048014" lon="6.797010603203385"><ele>281.6666666666667</ele><time>2026-05-02T18:31:32Z</time></trkpt><trkpt lat="49.092701107020915" lon="6.797299811833941"><ele>284.0</ele><time>2026-05-02T18:31:33Z</time></trkpt><trkpt lat="49.09264307153109" lon="6.797584668024439"><ele>285.6666666666667</ele><time>2026-05-02T18:31:34Z</time></trkpt><trkpt lat="49.09258795659877" lon="6.797869800584452"><ele>287.3333333333333</ele><time>2026-05-02T18:31:35Z</time></trkpt><trkpt lat="49.09253308556689" lon="6.798153311855617"><ele>289.0</ele><time>2026-05-02T18:31:36Z</time></trkpt><trkpt lat="49.0924767617656" lon="6.798437734435459"><ele>290.0</ele><time>2026-05-02T18:31:37Z</time></trkpt><trkpt lat="49.09241781702732" lon="6.79871988386735"><ele>291.0</ele><time>2026-05-02T18:31:38Z</time></trkpt><trkpt lat="49.092364902933966" lon="6.799012063979757"><ele>292.0</ele><time>2026-05-02T18:31:39Z</time></trkpt><trkpt lat="49.092319814629185" lon="6.799300036789354"><ele>294.0</ele><time>2026-05-02T18:31:40Z</time></trkpt><trkpt lat="49.09227348278537" lon="6.799590277516361"><ele>296.0</ele><time>2026-05-02T18:31:41Z</time></trkpt><trkpt lat="49.09222325238093" lon="6.79988171164706"><ele>298.0</ele><time>2026-05-02T18:31:42Z</time></trkpt><trkpt lat="49.092172370137554" lon="6.8001735723590615"><ele>298.3333333333333</ele><time>2026-05-02T18:31:43Z</time></trkpt><trkpt lat="49.09212281340319" lon="6.800470657866619"><ele>298.6666666666667</ele><time>2026-05-02T18:31:44Z</time></trkpt><trkpt lat="49.092077590058395" lon="6.800767460844667"><ele>299.0</ele><time>2026-05-02T18:31:45Z</time></trkpt><trkpt lat="49.09202954238724" lon="6.801073836458002"><ele>299.0</ele><time>2026-05-02T18:31:46Z</time></trkpt><trkpt lat="49.091983435523694" lon="6.801383151785763"><ele>299.0</ele><time>2026-05-02T18:31:47Z</time></trkpt><trkpt lat="49.091932243797864" lon="6.8016988920423085"><ele>299.0</ele><time>2026-05-02T18:31:48Z</time></trkpt><trkpt lat="49.09188900205774" lon="6.802007438478915"><ele>298.6666666666667</ele><time>2026-05-02T18:31:49Z</time></trkpt><trkpt lat="49.091842115904676" lon="6.802321450575791"><ele>298.3333333333333</ele><time>2026-05-02T18:31:50Z</time></trkpt><trkpt lat="49.091798574319895" lon="6.80263719998023"><ele>298.0</ele><time>2026-05-02T18:31:51Z</time></trkpt><trkpt lat="49.0917564327707" lon="6.802943848310613"><ele>296.66666666666663</ele><time>2026-05-02T18:31:52Z</time></trkpt><trkpt lat="49.091717926168485" lon="6.80325016838105"><ele>295.3333333333333</ele><time>2026-05-02T18:31:53Z</time></trkpt><trkpt lat="49.09168164418083" lon="6.803556431333863"><ele>294.0</ele><time>2026-05-02T18:31:54Z</time></trkpt><trkpt lat="49.09164535560702" lon="6.8038640861424575"><ele>292.6666666666667</ele><time>2026-05-02T18:31:55Z</time></trkpt><trkpt lat="49.09160927084535" lon="6.8041679784069355"><ele>291.33333333333337</ele><time>2026-05-02T18:31:56Z</time></trkpt><trkpt lat="49.09157333405153" lon="6.804477742355063"><ele>290.0</ele><time>2026-05-02T18:31:57Z</time></trkpt><trkpt lat="49.09153670043538" lon="6.8047856699029525"><ele>287.6666666666667</ele><time>2026-05-02T18:31:58Z</time></trkpt><trkpt lat="49.09150174868587" lon="6.805096404360553"><ele>285.3333333333333</ele><time>2026-05-02T18:31:59Z</time></trkpt><trkpt lat="49.09146711072327" lon="6.805405457797824"><ele>283.0</ele><time>2026-05-02T18:32:00Z</time></trkpt><trkpt lat="49.09143041362876" lon="6.805713165344019"><ele>282.0</ele><time>2026-05-02T18:32:01Z</time></trkpt><trkpt lat="49.091393625299915" lon="6.806023494438075"><ele>281.0</ele><time>2026-05-02T18:32:02Z</time></trkpt><trkpt lat="49.091360475199885" lon="6.806334653091148"><ele>280.0</ele><time>2026-05-02T18:32:03Z</time></trkpt><trkpt lat="49.09132520153974" lon="6.806640774475637"><ele>280.3333333333333</ele><time>2026-05-02T18:32:04Z</time></trkpt><trkpt lat="49.09128893127174" lon="6.806951516127873"><ele>280.6666666666667</ele><time>2026-05-02T18:32:05Z</time></trkpt><trkpt lat="49.0912526571765" lon="6.807262201013609"><ele>281.0</ele><time>2026-05-02T18:32:06Z</time></trkpt><trkpt lat="49.09121967083656" lon="6.807570736789458"><ele>280.6666666666667</ele><time>2026-05-02T18:32:07Z</time></trkpt><trkpt lat="49.091189154970564" lon="6.807877925942789"><ele>280.3333333333333</ele><time>2026-05-02T18:32:08Z</time></trkpt><trkpt lat="49.09115737999693" lon="6.808188231112713"><ele>280.0</ele><time>2026-05-02T18:32:09Z</time></trkpt><trkpt lat="49.09112468049734" lon="6.808493005940747"><ele>279.66666666666663</ele><time>2026-05-02T18:32:10Z</time></trkpt><trkpt lat="49.09109032671477" lon="6.808798669199872"><ele>279.3333333333333</ele><time>2026-05-02T18:32:11Z</time></trkpt><trkpt lat="49.09105582214178" lon="6.809098083534146"><ele>279.0</ele><time>2026-05-02T18:32:12Z</time></trkpt><trkpt lat="49.091020779939115" lon="6.809396525257634"><ele>279.6666666666667</ele><time>2026-05-02T18:32:13Z</time></trkpt><trkpt lat="49.09099045688794" lon="6.809686244971231"><ele>280.33333333333337</ele><time>2026-05-02T18:32:14Z</time></trkpt><trkpt lat="49.09096079315352" lon="6.809969428702087"><ele>281.0</ele><time>2026-05-02T18:32:15Z</time></trkpt><trkpt lat="49.0909284769672" lon="6.81023138655174"><ele>281.33333333333337</ele><time>2026-05-02T18:32:16Z</time></trkpt><trkpt lat="49.09090203207878" lon="6.8104817383340315"><ele>281.6666666666667</ele><time>2026-05-02T18:32:17Z</time></trkpt><trkpt lat="49.090876433704956" lon="6.810719303470132"><ele>282.0</ele><time>2026-05-02T18:32:18Z</time></trkpt><trkpt lat="49.09084775252056" lon="6.810941891330899"><ele>282.25</ele><time>2026-05-02T18:32:19Z</time></trkpt><trkpt lat="49.09082362271259" lon="6.811159314310736"><ele>282.5</ele><time>2026-05-02T18:32:20Z</time></trkpt><trkpt lat="49.090799009704696" lon="6.811376201098696"><ele>282.75</ele><time>2026-05-02T18:32:21Z</time></trkpt><trkpt lat="49.09077333241798" lon="6.811597438238336"><ele>283.0</ele><time>2026-05-02T18:32:22Z</time></trkpt><trkpt lat="49.09074862655505" lon="6.811815409819916"><ele>281.5</ele><time>2026-05-02T18:32:23Z</time></trkpt><trkpt lat="49.09072229462815" lon="6.812026353545458"><ele>280.0</ele><time>2026-05-02T18:32:24Z</time></trkpt><trkpt lat="49.09069654050483" lon="6.812230372216446"><ele>278.5</ele><time>2026-05-02T18:32:25Z</time></trkpt><trkpt lat="49.09066815837259" lon="6.81243446148167"><ele>277.0</ele><time>2026-05-02T18:32:26Z</time></trkpt><trkpt lat="49.09063986240408" lon="6.812635267095798"><ele>277.25</ele><time>2026-05-02T18:32:27Z</time></trkpt><trkpt lat="49.09060528802193" lon="6.812831831280841"><ele>277.5</ele><time>2026-05-02T18:32:28Z</time></trkpt><trkpt lat="49.09056284719057" lon="6.813024470545089"><ele>277.75</ele><time>2026-05-02T18:32:29Z</time></trkpt><trkpt lat="49.090510264015954" lon="6.8132123623782945"><ele>278.0</ele><time>2026-05-02T18:32:30Z</time></trkpt><trkpt lat="49.09045196430067" lon="6.813398931222946"><ele>278.25</ele><time>2026-05-02T18:32:31Z</time></trkpt><trkpt lat="49.090392668797726" lon="6.813579975030409"><ele>278.5</ele><time>2026-05-02T18:32:32Z</time></trkpt><trkpt lat="49.090330765789396" lon="6.813762748298144"><ele>278.75</ele><time>2026-05-02T18:32:33Z</time></trkpt><trkpt lat="49.090264389545275" lon="6.813937565656426"><ele>279.0</ele><time>2026-05-02T18:32:34Z</time></trkpt><trkpt lat="49.09019612861587" lon="6.814105509758077"><ele>279.0</ele><time>2026-05-02T18:32:35Z</time></trkpt><trkpt lat="49.09012530707038" lon="6.814263667318104"><ele>279.0</ele><time>2026-05-02T18:32:36Z</time></trkpt><trkpt lat="49.09005044333844" lon="6.8144153966626675"><ele>279.0</ele><time>2026-05-02T18:32:37Z</time></trkpt><trkpt lat="49.08997576809262" lon="6.814570317810446"><ele>279.0</ele><time>2026-05-02T18:32:38Z</time></trkpt><trkpt lat="49.089895621224244" lon="6.814722384189385"><ele>278.25</ele><time>2026-05-02T18:32:39Z</time></trkpt><trkpt lat="49.08981270524378" lon="6.814870098090883"><ele>277.5</ele><time>2026-05-02T18:32:40Z</time></trkpt><trkpt lat="49.089724714029586" lon="6.815014479871566"><ele>276.75</ele><time>2026-05-02T18:32:41Z</time></trkpt><trkpt lat="49.08963504853773" lon="6.815147319193264"><ele>276.0</ele><time>2026-05-02T18:32:42Z</time></trkpt><trkpt lat="49.08954554821154" lon="6.8152722454882495"><ele>276.0</ele><time>2026-05-02T18:32:43Z</time></trkpt><trkpt lat="49.089455924892306" lon="6.815395181386076"><ele>276.0</ele><time>2026-05-02T18:32:44Z</time></trkpt><trkpt lat="49.08936126787161" lon="6.815511445750735"><ele>276.0</ele><time>2026-05-02T18:32:45Z</time></trkpt><trkpt lat="49.08926312454624" lon="6.815625985423622"><ele>276.0</ele><time>2026-05-02T18:32:46Z</time></trkpt><trkpt lat="49.089165710002746" lon="6.815733610914908"><ele>276.0</ele><time>2026-05-02T18:32:47Z</time></trkpt><trkpt lat="49.089066268359105" lon="6.815832100711054"><ele>276.0</ele><time>2026-05-02T18:32:48Z</time></trkpt><trkpt lat="49.08895824015513" lon="6.815918054878396"><ele>276.0</ele><time>2026-05-02T18:32:49Z</time></trkpt><trkpt lat="49.088851494517826" lon="6.816004273357515"><ele>276.0</ele><time>2026-05-02T18:32:50Z</time></trkpt><trkpt lat="49.08874676082206" lon="6.816092664550764"><ele>276.0</ele><time>2026-05-02T18:32:51Z</time></trkpt><trkpt lat="49.088640606904505" lon="6.816172973959515"><ele>276.0</ele><time>2026-05-02T18:32:52Z</time></trkpt><trkpt lat="49.08852711883874" lon="6.816249569328419"><ele>276.0</ele><time>2026-05-02T18:32:53Z</time></trkpt><trkpt lat="49.088409475424754" lon="6.816316173635591"><ele>276.0</ele><time>2026-05-02T18:32:54Z</time></trkpt><trkpt lat="49.08829020022433" lon="6.816360430275821"><ele>276.0</ele><time>2026-05-02T18:32:55Z</time></trkpt><trkpt lat="49.08817638714584" lon="6.816390902406974"><ele>276.0</ele><time>2026-05-02T18:32:56Z</time></trkpt><trkpt lat="49.08806855159313" lon="6.81641029384572"><ele>276.0</ele><time>2026-05-02T18:32:57Z</time></trkpt><trkpt lat="49.08797623919361" lon="6.8164199450559995"><ele>276.0</ele><time>2026-05-02T18:32:58Z</time></trkpt><trkpt lat="49.08789405630461" lon="6.816425179538619"><ele>276.0</ele><time>2026-05-02T18:32:59Z</time></trkpt><trkpt lat="49.087818661086224" lon="6.816426354114481"><ele>276.0</ele><time>2026-05-02T18:33:00Z</time></trkpt><trkpt lat="49.087749628918644" lon="6.816418924469054"><ele>276.0</ele><time>2026-05-02T18:33:01Z</time></trkpt><trkpt lat="49.08763068871248" lon="6.816418598109264"><ele>276.0</ele><time>2026-05-02T18:33:03Z</time></trkpt><trkpt lat="49.087561826828605" lon="6.816420066117122"><ele>276.0</ele><time>2026-05-02T18:33:05Z</time></trkpt><trkpt lat="49.08748735072042" lon="6.81643733315214"><ele>276.0</ele><time>2026-05-02T18:33:08Z</time></trkpt><trkpt lat="49.08742144079528" lon="6.816445763330901"><ele>276.0</ele><time>2026-05-02T18:33:09Z</time></trkpt><trkpt lat="49.08735009942022" lon="6.816456587982636"><ele>275.2</ele><time>2026-05-02T18:33:10Z</time></trkpt><trkpt lat="49.08725559132486" lon="6.816471113067583"><ele>274.40000000000003</ele><time>2026-05-02T18:33:11Z</time></trkpt><trkpt lat="49.08714958436483" lon="6.8164881195365545"><ele>273.6</ele><time>2026-05-02T18:33:12Z</time></trkpt><trkpt lat="49.08704198525415" lon="6.816498486857027"><ele>272.8</ele><time>2026-05-02T18:33:13Z</time></trkpt><trkpt lat="49.086917522625036" lon="6.816509409632765"><ele>272.0</ele><time>2026-05-02T18:33:14Z</time></trkpt><trkpt lat="49.08678244971973" lon="6.816521705920047"><ele>272.0</ele><time>2026-05-02T18:33:15Z</time></trkpt><trkpt lat="49.08665835024292" lon="6.816531863481064"><ele>272.0</ele><time>2026-05-02T18:33:16Z</time></trkpt><trkpt lat="49.08653258688189" lon="6.8165413281828"><ele>272.0</ele><time>2026-05-02T18:33:17Z</time></trkpt><trkpt lat="49.086398243870484" lon="6.816543427518683"><ele>272.0</ele><time>2026-05-02T18:33:18Z</time></trkpt><trkpt lat="49.086254513725606" lon="6.816536341603165"><ele>270.75</ele><time>2026-05-02T18:33:19Z</time></trkpt><trkpt lat="49.08610361674062" lon="6.8165395902093575"><ele>269.5</ele><time>2026-05-02T18:33:20Z</time></trkpt><trkpt lat="49.08596001199607" lon="6.816552619817298"><ele>268.25</ele><time>2026-05-02T18:33:21Z</time></trkpt><trkpt lat="49.08580934272931" lon="6.816570178685561"><ele>267.0</ele><time>2026-05-02T18:33:22Z</time></trkpt><trkpt lat="49.085663292459344" lon="6.8165813628661995"><ele>266.5</ele><time>2026-05-02T18:33:23Z</time></trkpt><trkpt lat="49.08552075237388" lon="6.816594292714156"><ele>266.0</ele><time>2026-05-02T18:33:24Z</time></trkpt><trkpt lat="49.08538181459992" lon="6.8166048575077"><ele>265.5</ele><time>2026-05-02T18:33:25Z</time></trkpt><trkpt lat="49.08524521899438" lon="6.8166210096491415"><ele>265.0</ele><time>2026-05-02T18:33:26Z</time></trkpt><trkpt lat="49.08511328031238" lon="6.816660205947537"><ele>265.0</ele><time>2026-05-02T18:33:27Z</time></trkpt><trkpt lat="49.08498639139529" lon="6.816732565632365"><ele>265.0</ele><time>2026-05-02T18:33:28Z</time></trkpt><trkpt lat="49.084866566863866" lon="6.816840227502806"><ele>265.0</ele><time>2026-05-02T18:33:29Z</time></trkpt><trkpt lat="49.08475214155876" lon="6.816980421362844"><ele>265.0</ele><time>2026-05-02T18:33:30Z</time></trkpt><trkpt lat="49.084640365013954" lon="6.817147631603258"><ele>263.66666666666663</ele><time>2026-05-02T18:33:31Z</time></trkpt><trkpt lat="49.08452733129595" lon="6.817332416856849"><ele>262.3333333333333</ele><time>2026-05-02T18:33:32Z</time></trkpt><trkpt lat="49.084408103566375" lon="6.817532424166923"><ele>261.0</ele><time>2026-05-02T18:33:33Z</time></trkpt><trkpt lat="49.08428351817331" lon="6.817745885551165"><ele>261.0</ele><time>2026-05-02T18:33:34Z</time></trkpt><trkpt lat="49.08415555570028" lon="6.817947666851152"><ele>261.0</ele><time>2026-05-02T18:33:35Z</time></trkpt><trkpt lat="49.08403426590844" lon="6.818152077353308"><ele>261.0</ele><time>2026-05-02T18:33:36Z</time></trkpt><trkpt lat="49.08391020221528" lon="6.818359383902902"><ele>260.0</ele><time>2026-05-02T18:33:37Z</time></trkpt><trkpt lat="49.083783974230414" lon="6.818566118650622"><ele>259.0</ele><time>2026-05-02T18:33:38Z</time></trkpt><trkpt lat="49.08365625491991" lon="6.818773551657745"><ele>258.0</ele><time>2026-05-02T18:33:39Z</time></trkpt><trkpt lat="49.08352757958536" lon="6.818986638353041"><ele>258.0</ele><time>2026-05-02T18:33:40Z</time></trkpt><trkpt lat="49.08339885498724" lon="6.819202868084017"><ele>258.0</ele><time>2026-05-02T18:33:41Z</time></trkpt><trkpt lat="49.08326941922754" lon="6.819417246262747"><ele>258.0</ele><time>2026-05-02T18:33:42Z</time></trkpt><trkpt lat="49.083139032889044" lon="6.819628290560628"><ele>258.0</ele><time>2026-05-02T18:33:43Z</time></trkpt><trkpt lat="49.083008491182476" lon="6.819842268842218"><ele>258.0</ele><time>2026-05-02T18:33:44Z</time></trkpt><trkpt lat="49.08288174966353" lon="6.82005603263287"><ele>258.0</ele><time>2026-05-02T18:33:45Z</time></trkpt><trkpt lat="49.08275711799317" lon="6.820261747827276"><ele>258.3333333333333</ele><time>2026-05-02T18:33:46Z</time></trkpt><trkpt lat="49.08263258870886" lon="6.820462347273303"><ele>258.66666666666663</ele><time>2026-05-02T18:33:47Z</time></trkpt><trkpt lat="49.08250672123861" lon="6.820663472465466"><ele>259.0</ele><time>2026-05-02T18:33:48Z</time></trkpt><trkpt lat="49.08237704332283" lon="6.820870367935478"><ele>259.0</ele><time>2026-05-02T18:33:49Z</time></trkpt><trkpt lat="49.08224943576538" lon="6.821077723305331"><ele>259.0</ele><time>2026-05-02T18:33:50Z</time></trkpt><trkpt lat="49.082121031330395" lon="6.821285307013475"><ele>259.0</ele><time>2026-05-02T18:33:51Z</time></trkpt><trkpt lat="49.08199076647014" lon="6.821494562357826"><ele>259.0</ele><time>2026-05-02T18:33:52Z</time></trkpt><trkpt lat="49.081864161778164" lon="6.821705676731063"><ele>259.0</ele><time>2026-05-02T18:33:53Z</time></trkpt><trkpt lat="49.0817393670275" lon="6.821914156933805"><ele>259.0</ele><time>2026-05-02T18:33:54Z</time></trkpt><trkpt lat="49.0816132730033" lon="6.822121013867794"><ele>261.0</ele><time>2026-05-02T18:33:55Z</time></trkpt><trkpt lat="49.08148750530034" lon="6.822328475251033"><ele>263.0</ele><time>2026-05-02T18:33:56Z</time></trkpt><trkpt lat="49.08136287728268" lon="6.822529094475745"><ele>265.0</ele><time>2026-05-02T18:33:57Z</time></trkpt><trkpt lat="49.08123684992965" lon="6.8227366081114"><ele>265.66666666666663</ele><time>2026-05-02T18:33:58Z</time></trkpt><trkpt lat="49.08111442746284" lon="6.822944428959897"><ele>266.3333333333333</ele><time>2026-05-02T18:33:59Z</time></trkpt><trkpt lat="49.08099453123191" lon="6.823152882913002"><ele>267.0</ele><time>2026-05-02T18:34:00Z</time></trkpt><trkpt lat="49.08087443107342" lon="6.823360012330277"><ele>269.6666666666667</ele><time>2026-05-02T18:34:01Z</time></trkpt><trkpt lat="49.08074767146279" lon="6.823566952642697"><ele>272.33333333333337</ele><time>2026-05-02T18:34:02Z</time></trkpt><trkpt lat="49.080621769469374" lon="6.823772765606102"><ele>275.0</ele><time>2026-05-02T18:34:03Z</time></trkpt><trkpt lat="49.0804971377707" lon="6.823981169464866"><ele>275.0</ele><time>2026-05-02T18:34:04Z</time></trkpt><trkpt lat="49.08037201462686" lon="6.824189396075187"><ele>275.0</ele><time>2026-05-02T18:34:05Z</time></trkpt><trkpt lat="49.080247895279975" lon="6.824389251426526"><ele>275.0</ele><time>2026-05-02T18:34:06Z</time></trkpt><trkpt lat="49.080126182022845" lon="6.8245817937480915"><ele>277.0</ele><time>2026-05-02T18:34:07Z</time></trkpt><trkpt lat="49.079884773850296" lon="6.824971052391786"><ele>279.0</ele><time>2026-05-02T18:34:09Z</time></trkpt><trkpt lat="49.07976607201767" lon="6.825169661457262"><ele>280.0</ele><time>2026-05-02T18:34:10Z</time></trkpt><trkpt lat="49.07964430048966" lon="6.8253666308682055"><ele>281.0</ele><time>2026-05-02T18:34:11Z</time></trkpt><trkpt lat="49.079522141896646" lon="6.825563379104764"><ele>282.0</ele><time>2026-05-02T18:34:12Z</time></trkpt><trkpt lat="49.07940186246504" lon="6.825762584130542"><ele>282.0</ele><time>2026-05-02T18:34:13Z</time></trkpt><trkpt lat="49.07928079358616" lon="6.825963437773632"><ele>282.0</ele><time>2026-05-02T18:34:14Z</time></trkpt><trkpt lat="49.079159863268224" lon="6.826160938652337"><ele>282.0</ele><time>2026-05-02T18:34:15Z</time></trkpt><trkpt lat="49.079037672224196" lon="6.826359355635068"><ele>282.0</ele><time>2026-05-02T18:34:16Z</time></trkpt><trkpt lat="49.07891271203922" lon="6.82655802242135"><ele>282.0</ele><time>2026-05-02T18:34:17Z</time></trkpt><trkpt lat="49.07878914057492" lon="6.82675559024286"><ele>282.0</ele><time>2026-05-02T18:34:18Z</time></trkpt><trkpt lat="49.07867531276107" lon="6.8269384344762365"><ele>283.0</ele><time>2026-05-02T18:34:19Z</time></trkpt><trkpt lat="49.07856666907081" lon="6.827109256974644"><ele>284.0</ele><time>2026-05-02T18:34:20Z</time></trkpt><trkpt lat="49.07846094261407" lon="6.827265900759864"><ele>285.0</ele><time>2026-05-02T18:34:21Z</time></trkpt><trkpt lat="49.07835696693923" lon="6.827412248020306"><ele>286.0</ele><time>2026-05-02T18:34:22Z</time></trkpt><trkpt lat="49.07825718991715" lon="6.827555172658047"><ele>286.25</ele><time>2026-05-02T18:34:23Z</time></trkpt><trkpt lat="49.07816089740058" lon="6.827682784879268"><ele>286.5</ele><time>2026-05-02T18:34:24Z</time></trkpt><trkpt lat="49.07806398372791" lon="6.827804367919604"><ele>286.75</ele><time>2026-05-02T18:34:25Z</time></trkpt><trkpt lat="49.077966660795006" lon="6.827917902123879"><ele>287.0</ele><time>2026-05-02T18:34:26Z</time></trkpt><trkpt lat="49.077872908015195" lon="6.828021105325469"><ele>287.0</ele><time>2026-05-02T18:34:27Z</time></trkpt><trkpt lat="49.07771757443363" lon="6.828182942267262"><ele>287.0</ele><time>2026-05-02T18:34:29Z</time></trkpt><trkpt lat="49.077666468214474" lon="6.8282603531362405"><ele>287.0</ele><time>2026-05-02T18:34:30Z</time></trkpt><trkpt lat="49.07765545161813" lon="6.828450907282589"><ele>287.0</ele><time>2026-05-02T18:34:32Z</time></trkpt><trkpt lat="49.0776734201255" lon="6.828560706068025"><ele>286.4</ele><time>2026-05-02T18:34:33Z</time></trkpt><trkpt lat="49.07769598995831" lon="6.828682978495407"><ele>285.79999999999995</ele><time>2026-05-02T18:34:34Z</time></trkpt><trkpt lat="49.07771208501901" lon="6.828830866058074"><ele>285.2</ele><time>2026-05-02T18:34:35Z</time></trkpt><trkpt lat="49.07772359706312" lon="6.828992847389983"><ele>284.59999999999997</ele><time>2026-05-02T18:34:36Z</time></trkpt><trkpt lat="49.07772921084457" lon="6.829153107796428"><ele>284.0</ele><time>2026-05-02T18:34:37Z</time></trkpt><trkpt lat="49.077735519625946" lon="6.829318983142202"><ele>283.75</ele><time>2026-05-02T18:34:38Z</time></trkpt><trkpt lat="49.07774431738445" lon="6.829498691567956"><ele>283.5</ele><time>2026-05-02T18:34:39Z</time></trkpt><trkpt lat="49.077741075645484" lon="6.829696574089827"><ele>283.25</ele><time>2026-05-02T18:34:40Z</time></trkpt><trkpt lat="49.077718499691066" lon="6.829887144641166"><ele>283.0</ele><time>2026-05-02T18:34:41Z</time></trkpt><trkpt lat="49.077686424499596" lon="6.830063704549866"><ele>283.25</ele><time>2026-05-02T18:34:42Z</time></trkpt><trkpt lat="49.077648728473605" lon="6.830221711264475"><ele>283.5</ele><time>2026-05-02T18:34:43Z</time></trkpt><trkpt lat="49.077609645926245" lon="6.8303789208159635"><ele>283.75</ele><time>2026-05-02T18:34:44Z</time></trkpt><trkpt lat="49.077565440700084" lon="6.830538197706653"><ele>284.0</ele><time>2026-05-02T18:34:45Z</time></trkpt><trkpt lat="49.077516922588146" lon="6.830704120955172"><ele>284.0</ele><time>2026-05-02T18:34:46Z</time></trkpt><trkpt lat="49.077466489533215" lon="6.830875317600241"><ele>284.0</ele><time>2026-05-02T18:34:47Z</time></trkpt><trkpt lat="49.077412721195614" lon="6.831056316529171"><ele>284.0</ele><time>2026-05-02T18:34:48Z</time></trkpt><trkpt lat="49.07736437993636" lon="6.83125472676369"><ele>284.0</ele><time>2026-05-02T18:34:49Z</time></trkpt><trkpt lat="49.0773221288253" lon="6.831466020212742"><ele>284.0</ele><time>2026-05-02T18:34:50Z</time></trkpt><trkpt lat="49.07728379190012" lon="6.83168708150162"><ele>284.0</ele><time>2026-05-02T18:34:51Z</time></trkpt><trkpt lat="49.07724965723783" lon="6.831903359767541"><ele>284.0</ele><time>2026-05-02T18:34:52Z</time></trkpt><trkpt lat="49.07722025385171" lon="6.832124089134783"><ele>284.0</ele><time>2026-05-02T18:34:53Z</time></trkpt><trkpt lat="49.077194011132974" lon="6.832347826344964"><ele>284.0</ele><time>2026-05-02T18:34:54Z</time></trkpt><trkpt lat="49.077168465800376" lon="6.832572068745234"><ele>284.0</ele><time>2026-05-02T18:34:55Z</time></trkpt><trkpt lat="49.077138958536295" lon="6.832797833727839"><ele>284.0</ele><time>2026-05-02T18:34:56Z</time></trkpt><trkpt lat="49.07710963959826" lon="6.83302593211584"><ele>284.33333333333337</ele><time>2026-05-02T18:34:57Z</time></trkpt><trkpt lat="49.07707951811503" lon="6.833255020798929"><ele>284.6666666666667</ele><time>2026-05-02T18:34:58Z</time></trkpt><trkpt lat="49.0770473772618" lon="6.833483735160301"><ele>285.0</ele><time>2026-05-02T18:34:59Z</time></trkpt><trkpt lat="49.07701454048255" lon="6.833717030740166"><ele>285.0</ele><time>2026-05-02T18:35:00Z</time></trkpt><trkpt lat="49.07697911506271" lon="6.833948246811295"><ele>285.0</ele><time>2026-05-02T18:35:01Z</time></trkpt><trkpt lat="49.07693601724538" lon="6.83417858669659"><ele>285.0</ele><time>2026-05-02T18:35:02Z</time></trkpt><trkpt lat="49.07688501833872" lon="6.83441046132347"><ele>285.25</ele><time>2026-05-02T18:35:03Z</time></trkpt><trkpt lat="49.07683310096749" lon="6.834640830014685"><ele>285.5</ele><time>2026-05-02T18:35:04Z</time></trkpt><trkpt lat="49.07678625069492" lon="6.834856120668214"><ele>285.75</ele><time>2026-05-02T18:35:05Z</time></trkpt><trkpt lat="49.076743486682126" lon="6.8350545922021135"><ele>286.0</ele><time>2026-05-02T18:35:06Z</time></trkpt><trkpt lat="49.07670379325766" lon="6.835240007044794"><ele>285.75</ele><time>2026-05-02T18:35:07Z</time></trkpt><trkpt lat="49.07666428050245" lon="6.8354310045582665"><ele>285.5</ele><time>2026-05-02T18:35:08Z</time></trkpt><trkpt lat="49.07662180995758" lon="6.835626456986097"><ele>285.25</ele><time>2026-05-02T18:35:09Z</time></trkpt><trkpt lat="49.07657763988177" lon="6.835812212077869"><ele>285.0</ele><time>2026-05-02T18:35:10Z</time></trkpt><trkpt lat="49.07652758496851" lon="6.835978351091274"><ele>285.0</ele><time>2026-05-02T18:35:11Z</time></trkpt><trkpt lat="49.07645837514977" lon="6.836121628182452"><ele>285.0</ele><time>2026-05-02T18:35:12Z</time></trkpt><trkpt lat="49.0763477579889" lon="6.836235448861282"><ele>285.0</ele><time>2026-05-02T18:35:13Z</time></trkpt><trkpt lat="49.07623329024322" lon="6.836401070836244"><ele>285.0</ele><time>2026-05-02T18:35:14Z</time></trkpt><trkpt lat="49.07610126400186" lon="6.83655259685689"><ele>285.0</ele><time>2026-05-02T18:35:15Z</time></trkpt><trkpt lat="49.07597307191943" lon="6.836705261360232"><ele>285.0</ele><time>2026-05-02T18:35:16Z</time></trkpt><trkpt lat="49.075848298600654" lon="6.836853747644797"><ele>285.0</ele><time>2026-05-02T18:35:17Z</time></trkpt><trkpt lat="49.07573069860255" lon="6.83700092176516"><ele>284.0</ele><time>2026-05-02T18:35:18Z</time></trkpt><trkpt lat="49.07561409973869" lon="6.837146008598588"><ele>283.0</ele><time>2026-05-02T18:35:19Z</time></trkpt><trkpt lat="49.07537833484183" lon="6.837428615578967"><ele>283.0</ele><time>2026-05-02T18:35:21Z</time></trkpt><trkpt lat="49.0752615101454" lon="6.837570534662144"><ele>283.0</ele><time>2026-05-02T18:35:22Z</time></trkpt><trkpt lat="49.07514241353598" lon="6.837708974287536"><ele>283.0</ele><time>2026-05-02T18:35:23Z</time></trkpt><trkpt lat="49.07502277847408" lon="6.837843268626333"><ele>283.0</ele><time>2026-05-02T18:35:24Z</time></trkpt><trkpt lat="49.0748983732823" lon="6.837969894317618"><ele>283.25</ele><time>2026-05-02T18:35:25Z</time></trkpt><trkpt lat="49.074772075971254" lon="6.838089699346067"><ele>283.5</ele><time>2026-05-02T18:35:26Z</time></trkpt><trkpt lat="49.07464371684081" lon="6.8382032284997685"><ele>283.75</ele><time>2026-05-02T18:35:27Z</time></trkpt><trkpt lat="49.07451510454062" lon="6.838311899431188"><ele>284.0</ele><time>2026-05-02T18:35:28Z</time></trkpt><trkpt lat="49.07438679908469" lon="6.8384254400514"><ele>284.0</ele><time>2026-05-02T18:35:29Z</time></trkpt><trkpt lat="49.07426389697979" lon="6.838533750962598"><ele>284.0</ele><time>2026-05-02T18:35:30Z</time></trkpt><trkpt lat="49.07413829063572" lon="6.838639600113842"><ele>284.0</ele><time>2026-05-02T18:35:31Z</time></trkpt><trkpt lat="49.074017519892976" lon="6.838745528691024"><ele>284.0</ele><time>2026-05-02T18:35:32Z</time></trkpt><trkpt lat="49.07389961079304" lon="6.838855243611522"><ele>284.0</ele><time>2026-05-02T18:35:33Z</time></trkpt><trkpt lat="49.073781817856236" lon="6.838966017356236"><ele>284.0</ele><time>2026-05-02T18:35:34Z</time></trkpt><trkpt lat="49.07366269800253" lon="6.839081223025916"><ele>284.0</ele><time>2026-05-02T18:35:35Z</time></trkpt><trkpt lat="49.07353681428349" lon="6.839202932111834"><ele>284.0</ele><time>2026-05-02T18:35:36Z</time></trkpt><trkpt lat="49.07340817114092" lon="6.839324676857393"><ele>284.25</ele><time>2026-05-02T18:35:37Z</time></trkpt><trkpt lat="49.07327919220382" lon="6.839449469331001"><ele>284.5</ele><time>2026-05-02T18:35:38Z</time></trkpt><trkpt lat="49.07315948414431" lon="6.839558224722248"><ele>284.75</ele><time>2026-05-02T18:35:39Z</time></trkpt><trkpt lat="49.07304903886549" lon="6.839654326621366"><ele>285.0</ele><time>2026-05-02T18:35:40Z</time></trkpt><trkpt lat="49.07294540706894" lon="6.839745658774096"><ele>285.5</ele><time>2026-05-02T18:35:41Z</time></trkpt><trkpt lat="49.072841783744835" lon="6.839838132016077"><ele>286.0</ele><time>2026-05-02T18:35:42Z</time></trkpt><trkpt lat="49.072737504060306" lon="6.8399321558905175"><ele>286.5</ele><time>2026-05-02T18:35:43Z</time></trkpt><trkpt lat="49.07264176146448" lon="6.840025152833281"><ele>287.0</ele><time>2026-05-02T18:35:44Z</time></trkpt><trkpt lat="49.07255353204286" lon="6.840118984213877"><ele>287.5</ele><time>2026-05-02T18:35:45Z</time></trkpt><trkpt lat="49.07246257493828" lon="6.840218965571497"><ele>288.0</ele><time>2026-05-02T18:35:46Z</time></trkpt><trkpt lat="49.07236236629445" lon="6.840324508585838"><ele>288.5</ele><time>2026-05-02T18:35:47Z</time></trkpt><trkpt lat="49.072250168600924" lon="6.840431703862083"><ele>289.0</ele><time>2026-05-02T18:35:48Z</time></trkpt><trkpt lat="49.072142455422124" lon="6.840531944698907"><ele>287.75</ele><time>2026-05-02T18:35:49Z</time></trkpt><trkpt lat="49.07204392181364" lon="6.840652259994648"><ele>286.5</ele><time>2026-05-02T18:35:50Z</time></trkpt><trkpt lat="49.0719426858528" lon="6.840757434833965"><ele>285.25</ele><time>2026-05-02T18:35:51Z</time></trkpt><trkpt lat="49.07185207356394" lon="6.8408793864314354"><ele>284.0</ele><time>2026-05-02T18:35:52Z</time></trkpt><trkpt lat="49.071763378930086" lon="6.8409992488282985"><ele>283.0</ele><time>2026-05-02T18:35:53Z</time></trkpt><trkpt lat="49.07167895855846" lon="6.84111984619323"><ele>282.0</ele><time>2026-05-02T18:35:54Z</time></trkpt><trkpt lat="49.07159211080986" lon="6.841228361177985"><ele>281.0</ele><time>2026-05-02T18:35:55Z</time></trkpt><trkpt lat="49.07150705698769" lon="6.841320685511575"><ele>280.0</ele><time>2026-05-02T18:35:56Z</time></trkpt><trkpt lat="49.071429842849106" lon="6.841397142596546"><ele>279.0</ele><time>2026-05-02T18:35:57Z</time></trkpt><trkpt lat="49.071368983651624" lon="6.841460503402945"><ele>277.59999999999997</ele><time>2026-05-02T18:35:58Z</time></trkpt><trkpt lat="49.07126246374761" lon="6.841558343212142"><ele>276.2</ele><time>2026-05-02T18:36:00Z</time></trkpt><trkpt lat="49.071187654666765" lon="6.8416488770021715"><ele>274.79999999999995</ele><time>2026-05-02T18:36:02Z</time></trkpt><trkpt lat="49.07110771430023" lon="6.841574086190818"><ele>273.4</ele><time>2026-05-02T18:36:06Z</time></trkpt><trkpt lat="49.071080470279924" lon="6.841486137264584"><ele>272.0</ele><time>2026-05-02T18:36:09Z</time></trkpt><trkpt lat="49.070903186994" lon="6.841615273796197"><ele>272.0</ele><time>2026-05-02T18:36:21Z</time></trkpt><trkpt lat="49.070815687006906" lon="6.841675083468162"><ele>272.0</ele><time>2026-05-02T18:36:23Z</time></trkpt><trkpt lat="49.07074535014195" lon="6.8417187144553"><ele>272.0</ele><time>2026-05-02T18:36:25Z</time></trkpt><trkpt lat="49.07066728001262" lon="6.841768407901199"><ele>272.0</ele><time>2026-05-02T18:36:27Z</time></trkpt><trkpt lat="49.07057350807252" lon="6.841819750656609"><ele>272.0</ele><time>2026-05-02T18:36:29Z</time></trkpt><trkpt lat="49.070483854985646" lon="6.841908620769383"><ele>269.4</ele><time>2026-05-02T18:36:31Z</time></trkpt><trkpt lat="49.07039068084219" lon="6.841999890703383"><ele>266.79999999999995</ele><time>2026-05-02T18:36:33Z</time></trkpt><trkpt lat="49.0703012651585" lon="6.84206408566444"><ele>264.2</ele><time>2026-05-02T18:36:35Z</time></trkpt><trkpt lat="49.07019642101663" lon="6.842150805112635"><ele>261.59999999999997</ele><time>2026-05-02T18:36:37Z</time></trkpt><trkpt lat="49.070104335761776" lon="6.842238394256811"><ele>259.0</ele><time>2026-05-02T18:36:39Z</time></trkpt><trkpt lat="49.070001620078614" lon="6.84232327724472"><ele>258.66666666666663</ele><time>2026-05-02T18:36:41Z</time></trkpt><trkpt lat="49.06989436260271" lon="6.842390076991511"><ele>258.3333333333333</ele><time>2026-05-02T18:36:43Z</time></trkpt><trkpt lat="49.06983061183044" lon="6.842434219993634"><ele>258.0</ele><time>2026-05-02T18:36:44Z</time></trkpt><trkpt lat="49.06972339724098" lon="6.842527039081231"><ele>257.6666666666667</ele><time>2026-05-02T18:36:46Z</time></trkpt><trkpt lat="49.06966365657136" lon="6.842582724062974"><ele>257.33333333333337</ele><time>2026-05-02T18:36:47Z</time></trkpt><trkpt lat="49.069605235477354" lon="6.842629599576689"><ele>257.0</ele><time>2026-05-02T18:36:48Z</time></trkpt><trkpt lat="49.06954543562181" lon="6.842668075037621"><ele>256.6666666666667</ele><time>2026-05-02T18:36:49Z</time></trkpt><trkpt lat="49.069431557539595" lon="6.8427335763645205"><ele>256.33333333333337</ele><time>2026-05-02T18:36:51Z</time></trkpt><trkpt lat="49.06936467940235" lon="6.842775946285287"><ele>256.0</ele><time>2026-05-02T18:36:52Z</time></trkpt><trkpt lat="49.069298078289286" lon="6.84281392051128"><ele>255.66666666666669</ele><time>2026-05-02T18:36:53Z</time></trkpt><trkpt lat="49.069227103485034" lon="6.842848588279188"><ele>255.33333333333334</ele><time>2026-05-02T18:36:54Z</time></trkpt><trkpt lat="49.06915636997211" lon="6.84288167296924"><ele>255.0</ele><time>2026-05-02T18:36:55Z</time></trkpt><trkpt lat="49.069083381827355" lon="6.8429181602854054"><ele>256.0</ele><time>2026-05-02T18:36:56Z</time></trkpt><trkpt lat="49.069014572978034" lon="6.842945874000785"><ele>257.0</ele><time>2026-05-02T18:36:57Z</time></trkpt><trkpt lat="49.068942092355414" lon="6.842957214880607"><ele>258.0</ele><time>2026-05-02T18:36:58Z</time></trkpt><trkpt lat="49.06884822243828" lon="6.842964701623691"><ele>259.0</ele><time>2026-05-02T18:36:59Z</time></trkpt><trkpt lat="49.06876269285659" lon="6.842980730310621"><ele>260.0</ele><time>2026-05-02T18:37:00Z</time></trkpt><trkpt lat="49.06868804526521" lon="6.8429989932003545"><ele>261.0</ele><time>2026-05-02T18:37:01Z</time></trkpt><trkpt lat="49.068579642243904" lon="6.843018359279176"><ele>261.0</ele><time>2026-05-02T18:37:03Z</time></trkpt><trkpt lat="49.06850470430857" lon="6.843051244265715"><ele>261.0</ele><time>2026-05-02T18:37:07Z</time></trkpt><trkpt lat="49.068464350139486" lon="6.843142770511657"><ele>261.0</ele><time>2026-05-02T18:37:30Z</time></trkpt><trkpt lat="49.06846525586587" lon="6.843249571406675"><ele>261.0</ele><time>2026-05-02T18:37:31Z</time></trkpt><trkpt lat="49.068487967357335" lon="6.843360902358456"><ele>261.0</ele><time>2026-05-02T18:37:32Z</time></trkpt><trkpt lat="49.06849128085366" lon="6.843511415739656"><ele>261.0</ele><time>2026-05-02T18:37:33Z</time></trkpt><trkpt lat="49.06851837662781" lon="6.84364566167909"><ele>260.40000000000003</ele><time>2026-05-02T18:37:34Z</time></trkpt><trkpt lat="49.06852732910522" lon="6.8438047639713115"><ele>259.8</ele><time>2026-05-02T18:37:35Z</time></trkpt><trkpt lat="49.06853839096312" lon="6.843982802131999"><ele>259.20000000000005</ele><time>2026-05-02T18:37:36Z</time></trkpt><trkpt lat="49.06855068582723" lon="6.844149422781631"><ele>258.6</ele><time>2026-05-02T18:37:37Z</time></trkpt><trkpt lat="49.06856658022079" lon="6.844325005810514"><ele>258.0</ele><time>2026-05-02T18:37:38Z</time></trkpt><trkpt lat="49.06858419011776" lon="6.844509132296806"><ele>257.6</ele><time>2026-05-02T18:37:39Z</time></trkpt><trkpt lat="49.06859833244114" lon="6.844693372627994"><ele>257.20000000000005</ele><time>2026-05-02T18:37:40Z</time></trkpt><trkpt lat="49.06861153761103" lon="6.844867278938385"><ele>256.8</ele><time>2026-05-02T18:37:41Z</time></trkpt><trkpt lat="49.0686229503685" lon="6.845027810479274"><ele>256.40000000000003</ele><time>2026-05-02T18:37:42Z</time></trkpt><trkpt lat="49.06863659456912" lon="6.845179162859084"><ele>256.0</ele><time>2026-05-02T18:37:43Z</time></trkpt><trkpt lat="49.06865241394169" lon="6.845321326681671"><ele>256.0</ele><time>2026-05-02T18:37:44Z</time></trkpt><trkpt lat="49.068665725387895" lon="6.845461613957803"><ele>256.0</ele><time>2026-05-02T18:37:45Z</time></trkpt><trkpt lat="49.06865345061744" lon="6.845589512737213"><ele>256.0</ele><time>2026-05-02T18:37:46Z</time></trkpt><trkpt lat="49.068620542262856" lon="6.845689000524756"><ele>256.0</ele><time>2026-05-02T18:37:47Z</time></trkpt><trkpt lat="49.068515397316766" lon="6.845752037260255"><ele>256.0</ele><time>2026-05-02T18:37:48Z</time></trkpt><trkpt lat="49.06840596971109" lon="6.845790157576701"><ele>253.66666666666666</ele><time>2026-05-02T18:37:49Z</time></trkpt><trkpt lat="49.0682671783016" lon="6.8458319133512315"><ele>251.33333333333331</ele><time>2026-05-02T18:37:50Z</time></trkpt><trkpt lat="49.068098512391735" lon="6.84588400242024"><ele>249.0</ele><time>2026-05-02T18:37:51Z</time></trkpt><trkpt lat="49.06791176584212" lon="6.845946768393944"><ele>249.0</ele><time>2026-05-02T18:37:52Z</time></trkpt><trkpt lat="49.06771693654341" lon="6.846010438089959"><ele>249.0</ele><time>2026-05-02T18:37:53Z</time></trkpt><trkpt lat="49.06751872740181" lon="6.84607762030874"><ele>249.0</ele><time>2026-05-02T18:37:54Z</time></trkpt><trkpt lat="49.06731357679502" lon="6.846152718187071"><ele>248.33333333333331</ele><time>2026-05-02T18:37:55Z</time></trkpt><trkpt lat="49.06710573164916" lon="6.846230015317019"><ele>247.66666666666666</ele><time>2026-05-02T18:37:56Z</time></trkpt><trkpt lat="49.06689384254427" lon="6.846304604513201"><ele>247.0</ele><time>2026-05-02T18:37:57Z</time></trkpt><trkpt lat="49.06668246349143" lon="6.846379738719512"><ele>245.66666666666666</ele><time>2026-05-02T18:37:58Z</time></trkpt><trkpt lat="49.06647050755856" lon="6.8464573213383835"><ele>244.33333333333331</ele><time>2026-05-02T18:37:59Z</time></trkpt><trkpt lat="49.06625660666657" lon="6.846531005858893"><ele>243.0</ele><time>2026-05-02T18:38:00Z</time></trkpt><trkpt lat="49.06604628453096" lon="6.8465994312326135"><ele>243.0</ele><time>2026-05-02T18:38:01Z</time></trkpt><trkpt lat="49.06583565856751" lon="6.846669478791214"><ele>243.0</ele><time>2026-05-02T18:38:02Z</time></trkpt><trkpt lat="49.065629087933836" lon="6.846739910968735"><ele>243.0</ele><time>2026-05-02T18:38:03Z</time></trkpt><trkpt lat="49.06542648170425" lon="6.846813427150597"><ele>243.0</ele><time>2026-05-02T18:38:04Z</time></trkpt><trkpt lat="49.06522497737769" lon="6.846886824211837"><ele>243.0</ele><time>2026-05-02T18:38:05Z</time></trkpt><trkpt lat="49.065025550539694" lon="6.84695679875276"><ele>243.0</ele><time>2026-05-02T18:38:06Z</time></trkpt><trkpt lat="49.06482619158659" lon="6.847023761586503"><ele>243.66666666666669</ele><time>2026-05-02T18:38:07Z</time></trkpt><trkpt lat="49.06463141286716" lon="6.847092230291916"><ele>244.33333333333334</ele><time>2026-05-02T18:38:08Z</time></trkpt><trkpt lat="49.06443449423687" lon="6.847164416889543"><ele>245.0</ele><time>2026-05-02T18:38:09Z</time></trkpt><trkpt lat="49.064237248081824" lon="6.84723403066514"><ele>248.33333333333334</ele><time>2026-05-02T18:38:10Z</time></trkpt><trkpt lat="49.06404142239991" lon="6.847296746621679"><ele>251.66666666666669</ele><time>2026-05-02T18:38:11Z</time></trkpt><trkpt lat="49.063841228448965" lon="6.847330809793105"><ele>255.0</ele><time>2026-05-02T18:38:12Z</time></trkpt><trkpt lat="49.06364024013318" lon="6.847313573701543"><ele>255.0</ele><time>2026-05-02T18:38:13Z</time></trkpt><trkpt lat="49.06344232055447" lon="6.847242001542326"><ele>255.0</ele><time>2026-05-02T18:38:14Z</time></trkpt><trkpt lat="49.06326124405882" lon="6.84710460253278"><ele>255.0</ele><time>2026-05-02T18:38:15Z</time></trkpt><trkpt lat="49.06307816379005" lon="6.846960549456957"><ele>254.66666666666669</ele><time>2026-05-02T18:38:16Z</time></trkpt><trkpt lat="49.06288339711709" lon="6.846817284402646"><ele>254.33333333333334</ele><time>2026-05-02T18:38:17Z</time></trkpt><trkpt lat="49.06269812234846" lon="6.846647755553827"><ele>254.0</ele><time>2026-05-02T18:38:18Z</time></trkpt><trkpt lat="49.06250756484626" lon="6.846492484600365"><ele>254.0</ele><time>2026-05-02T18:38:19Z</time></trkpt><trkpt lat="49.06233031714728" lon="6.846332111802326"><ele>254.0</ele><time>2026-05-02T18:38:20Z</time></trkpt><trkpt lat="49.06214450125031" lon="6.846168092827083"><ele>254.0</ele><time>2026-05-02T18:38:21Z</time></trkpt><trkpt lat="49.061948347685004" lon="6.846012260358989"><ele>253.66666666666669</ele><time>2026-05-02T18:38:22Z</time></trkpt><trkpt lat="49.06175107931872" lon="6.845863890391904"><ele>253.33333333333331</ele><time>2026-05-02T18:38:23Z</time></trkpt><trkpt lat="49.061559187888676" lon="6.845706560684544"><ele>253.0</ele><time>2026-05-02T18:38:24Z</time></trkpt><trkpt lat="49.06137001372584" lon="6.845556997955868"><ele>253.0</ele><time>2026-05-02T18:38:25Z</time></trkpt><trkpt lat="49.061183829495846" lon="6.8453931376887445"><ele>253.0</ele><time>2026-05-02T18:38:26Z</time></trkpt><trkpt lat="49.06099331422938" lon="6.8452458828157665"><ele>253.0</ele><time>2026-05-02T18:38:27Z</time></trkpt><trkpt lat="49.0608087478387" lon="6.845091625976528"><ele>253.33333333333331</ele><time>2026-05-02T18:38:28Z</time></trkpt><trkpt lat="49.06061956137077" lon="6.84494076208197"><ele>253.66666666666669</ele><time>2026-05-02T18:38:29Z</time></trkpt><trkpt lat="49.060434067684795" lon="6.84478904855107"><ele>254.0</ele><time>2026-05-02T18:38:30Z</time></trkpt><trkpt lat="49.06024709248624" lon="6.844636454595891"><ele>254.0</ele><time>2026-05-02T18:38:31Z</time></trkpt><trkpt lat="49.060062446137266" lon="6.844485429964494"><ele>254.0</ele><time>2026-05-02T18:38:32Z</time></trkpt><trkpt lat="49.05988117484674" lon="6.844331636193611"><ele>254.0</ele><time>2026-05-02T18:38:33Z</time></trkpt><trkpt lat="49.05969773098514" lon="6.84417618610034"><ele>257.6666666666667</ele><time>2026-05-02T18:38:34Z</time></trkpt><trkpt lat="49.05950981304429" lon="6.84402322567616"><ele>261.3333333333333</ele><time>2026-05-02T18:38:35Z</time></trkpt><trkpt lat="49.05932386015329" lon="6.8438668146158825"><ele>265.0</ele><time>2026-05-02T18:38:36Z</time></trkpt><trkpt lat="49.05913417151519" lon="6.84371034141317"><ele>265.66666666666663</ele><time>2026-05-02T18:38:37Z</time></trkpt><trkpt lat="49.05894811160641" lon="6.8435592331565225"><ele>266.3333333333333</ele><time>2026-05-02T18:38:38Z</time></trkpt><trkpt lat="49.05876586088211" lon="6.843408981586014"><ele>267.0</ele><time>2026-05-02T18:38:39Z</time></trkpt><trkpt lat="49.05858446817192" lon="6.8432602697175415"><ele>267.0</ele><time>2026-05-02T18:38:40Z</time></trkpt><trkpt lat="49.058397499780234" lon="6.843111672861907"><ele>267.0</ele><time>2026-05-02T18:38:41Z</time></trkpt><trkpt lat="49.05821486552896" lon="6.842963099377304"><ele>267.0</ele><time>2026-05-02T18:38:42Z</time></trkpt><trkpt lat="49.05803502946812" lon="6.842816702875104"><ele>267.3333333333333</ele><time>2026-05-02T18:38:43Z</time></trkpt><trkpt lat="49.05784850007756" lon="6.842683376459022"><ele>267.66666666666663</ele><time>2026-05-02T18:38:44Z</time></trkpt><trkpt lat="49.057654419270214" lon="6.842577616508812"><ele>268.0</ele><time>2026-05-02T18:38:45Z</time></trkpt><trkpt lat="49.057452214522606" lon="6.842505812876549"><ele>265.66666666666663</ele><time>2026-05-02T18:38:46Z</time></trkpt><trkpt lat="49.05724643707333" lon="6.842454306108711"><ele>263.3333333333333</ele><time>2026-05-02T18:38:47Z</time></trkpt><trkpt lat="49.05704891412984" lon="6.84240216262253"><ele>261.0</ele><time>2026-05-02T18:38:48Z</time></trkpt><trkpt lat="49.056868066579554" lon="6.842342480809008"><ele>261.0</ele><time>2026-05-02T18:38:49Z</time></trkpt><trkpt lat="49.05669746658351" lon="6.842286795146372"><ele>261.0</ele><time>2026-05-02T18:38:50Z</time></trkpt><trkpt lat="49.0565349395957" lon="6.84222555899915"><ele>261.0</ele><time>2026-05-02T18:38:51Z</time></trkpt><trkpt lat="49.056369769761574" lon="6.842176609823115"><ele>259.3333333333333</ele><time>2026-05-02T18:38:52Z</time></trkpt><trkpt lat="49.05620815987518" lon="6.842144192222495"><ele>257.66666666666663</ele><time>2026-05-02T18:38:53Z</time></trkpt><trkpt lat="49.05604796981939" lon="6.842140006069221"><ele>256.0</ele><time>2026-05-02T18:38:54Z</time></trkpt><trkpt lat="49.05588316486685" lon="6.842173469828203"><ele>255.0</ele><time>2026-05-02T18:38:55Z</time></trkpt><trkpt lat="49.05571657293897" lon="6.842240377655296"><ele>254.0</ele><time>2026-05-02T18:38:56Z</time></trkpt><trkpt lat="49.05555364071184" lon="6.842327502453927"><ele>253.0</ele><time>2026-05-02T18:38:57Z</time></trkpt><trkpt lat="49.055395495306634" lon="6.842434391559623"><ele>253.0</ele><time>2026-05-02T18:38:58Z</time></trkpt><trkpt lat="49.055240265191166" lon="6.842545878691267"><ele>253.0</ele><time>2026-05-02T18:38:59Z</time></trkpt><trkpt lat="49.05507895364649" lon="6.842657158706287"><ele>253.0</ele><time>2026-05-02T18:39:00Z</time></trkpt><trkpt lat="49.05491905795789" lon="6.842774343987804"><ele>251.66666666666666</ele><time>2026-05-02T18:39:01Z</time></trkpt><trkpt lat="49.05476349108068" lon="6.842900457906969"><ele>250.33333333333331</ele><time>2026-05-02T18:39:02Z</time></trkpt><trkpt lat="49.054614620211204" lon="6.843025560647557"><ele>249.0</ele><time>2026-05-02T18:39:03Z</time></trkpt><trkpt lat="49.054465618565374" lon="6.843158016467308"><ele>249.0</ele><time>2026-05-02T18:39:04Z</time></trkpt><trkpt lat="49.05431810751181" lon="6.843297081162183"><ele>249.0</ele><time>2026-05-02T18:39:05Z</time></trkpt><trkpt lat="49.05417152210545" lon="6.8434397154255775"><ele>249.0</ele><time>2026-05-02T18:39:06Z</time></trkpt><trkpt lat="49.05402962804523" lon="6.843576138612855"><ele>249.25</ele><time>2026-05-02T18:39:07Z</time></trkpt><trkpt lat="49.053895614687455" lon="6.843701789306405"><ele>249.5</ele><time>2026-05-02T18:39:08Z</time></trkpt><trkpt lat="49.05377643319747" lon="6.84381414857176"><ele>249.75</ele><time>2026-05-02T18:39:09Z</time></trkpt><trkpt lat="49.05367427446458" lon="6.843906227244391"><ele>250.0</ele><time>2026-05-02T18:39:10Z</time></trkpt><trkpt lat="49.0535803312121" lon="6.843986623797149"><ele>250.0</ele><time>2026-05-02T18:39:11Z</time></trkpt><trkpt lat="49.05348843123041" lon="6.844070220027958"><ele>250.0</ele><time>2026-05-02T18:39:12Z</time></trkpt><trkpt lat="49.05339603253296" lon="6.844153148688334"><ele>250.0</ele><time>2026-05-02T18:39:13Z</time></trkpt><trkpt lat="49.05331386740782" lon="6.844228834184593"><ele>250.0</ele><time>2026-05-02T18:39:14Z</time></trkpt><trkpt lat="49.05323823294751" lon="6.844299145756657"><ele>250.0</ele><time>2026-05-02T18:39:15Z</time></trkpt><trkpt lat="49.053162149513994" lon="6.84437414701824"><ele>250.66666666666666</ele><time>2026-05-02T18:39:16Z</time></trkpt><trkpt lat="49.053086974060584" lon="6.844443322695709"><ele>251.33333333333331</ele><time>2026-05-02T18:39:17Z</time></trkpt><trkpt lat="49.053012534070426" lon="6.844511680234918"><ele>252.0</ele><time>2026-05-02T18:39:18Z</time></trkpt><trkpt lat="49.05294711278164" lon="6.844571798432207"><ele>252.66666666666669</ele><time>2026-05-02T18:39:19Z</time></trkpt><trkpt lat="49.052832356271296" lon="6.844659619744313"><ele>253.33333333333334</ele><time>2026-05-02T18:39:21Z</time></trkpt><trkpt lat="49.05276424615059" lon="6.844664569821894"><ele>254.0</ele><time>2026-05-02T18:39:22Z</time></trkpt><trkpt lat="49.052689623691315" lon="6.844621147571558"><ele>254.0</ele><time>2026-05-02T18:39:23Z</time></trkpt><trkpt lat="49.05264522018963" lon="6.844507983335028"><ele>253.99999999999997</ele><time>2026-05-02T18:39:24Z</time></trkpt><trkpt lat="49.05259960653301" lon="6.844380766291086"><ele>253.99999999999997</ele><time>2026-05-02T18:39:25Z</time></trkpt><trkpt lat="49.05254972890939" lon="6.844237586434237"><ele>254.0</ele><time>2026-05-02T18:39:26Z</time></trkpt><trkpt lat="49.05248406506914" lon="6.844055747630959"><ele>254.0</ele><time>2026-05-02T18:39:27Z</time></trkpt><trkpt lat="49.05240655205504" lon="6.84384890055024"><ele>254.5</ele><time>2026-05-02T18:39:28Z</time></trkpt><trkpt lat="49.052332404574635" lon="6.843658498317503"><ele>255.0</ele><time>2026-05-02T18:39:29Z</time></trkpt><trkpt lat="49.05225836559252" lon="6.843471636973637"><ele>255.5</ele><time>2026-05-02T18:39:30Z</time></trkpt><trkpt lat="49.05218265019014" lon="6.843275503505999"><ele>256.0</ele><time>2026-05-02T18:39:31Z</time></trkpt><trkpt lat="49.05211395441664" lon="6.843091468043345"><ele>256.25</ele><time>2026-05-02T18:39:32Z</time></trkpt><trkpt lat="49.05205016492312" lon="6.842928958867127"><ele>256.5</ele><time>2026-05-02T18:39:33Z</time></trkpt><trkpt lat="49.05198903331681" lon="6.8427672675027145"><ele>256.75</ele><time>2026-05-02T18:39:34Z</time></trkpt><trkpt lat="49.05193419817813" lon="6.842617972815606"><ele>257.0</ele><time>2026-05-02T18:39:35Z</time></trkpt><trkpt lat="49.051883288835164" lon="6.842481805765227"><ele>257.0</ele><time>2026-05-02T18:39:36Z</time></trkpt><trkpt lat="49.05183168294514" lon="6.842353814017581"><ele>257.0</ele><time>2026-05-02T18:39:37Z</time></trkpt><trkpt lat="49.051784802106255" lon="6.842235180869347"><ele>257.0</ele><time>2026-05-02T18:39:38Z</time></trkpt><trkpt lat="49.051744310058425" lon="6.842128181288386"><ele>257.0</ele><time>2026-05-02T18:39:39Z</time></trkpt><trkpt lat="49.05170913991348" lon="6.842037220743707"><ele>257.0</ele><time>2026-05-02T18:39:40Z</time></trkpt><trkpt lat="49.051679576851406" lon="6.841932218876943"><ele>257.0</ele><time>2026-05-02T18:39:42Z</time></trkpt><trkpt lat="49.05157279953382" lon="6.841992014443336"><ele>258.33333333333337</ele><time>2026-05-02T18:39:44Z</time></trkpt><trkpt lat="49.05170919541554" lon="6.842033036428729"><ele>259.6666666666667</ele><time>2026-05-02T18:41:56Z</time></trkpt><trkpt lat="49.05179640059918" lon="6.842393701057532"><ele>261.0</ele><time>2026-05-02T18:42:25.999Z</time></trkpt><trkpt lat="49.05184089970907" lon="6.842503530270785"><ele>261.0</ele><time>2026-05-02T18:42:26.999Z</time></trkpt><trkpt lat="49.05188743461968" lon="6.842612752186849"><ele>261.0</ele><time>2026-05-02T18:42:27.999Z</time></trkpt><trkpt lat="49.05193684035201" lon="6.842730070582094"><ele>261.0</ele><time>2026-05-02T18:42:28.999Z</time></trkpt><trkpt lat="49.051986857519324" lon="6.842862784177595"><ele>261.0</ele><time>2026-05-02T18:42:29.999Z</time></trkpt><trkpt lat="49.0520381459643" lon="6.843003730430584"><ele>261.0</ele><time>2026-05-02T18:42:31Z</time></trkpt><trkpt lat="49.05209080534106" lon="6.843144083716407"><ele>260.2</ele><time>2026-05-02T18:42:32Z</time></trkpt><trkpt lat="49.05214941352554" lon="6.843289930429925"><ele>259.40000000000003</ele><time>2026-05-02T18:42:33Z</time></trkpt><trkpt lat="49.052207547649" lon="6.843438304835898"><ele>258.6</ele><time>2026-05-02T18:42:34Z</time></trkpt><trkpt lat="49.05226065615261" lon="6.843577996927188"><ele>257.8</ele><time>2026-05-02T18:42:35Z</time></trkpt><trkpt lat="49.05230972903892" lon="6.843707055109103"><ele>257.0</ele><time>2026-05-02T18:42:36Z</time></trkpt><trkpt lat="49.05235597685409" lon="6.843832304448128"><ele>256.83333333333337</ele><time>2026-05-02T18:42:37Z</time></trkpt><trkpt lat="49.052399871448145" lon="6.843949790680201"><ele>256.6666666666667</ele><time>2026-05-02T18:42:38Z</time></trkpt><trkpt lat="49.05244354563654" lon="6.844059572968208"><ele>256.5</ele><time>2026-05-02T18:42:39Z</time></trkpt><trkpt lat="49.052489972836554" lon="6.8441730650957915"><ele>256.3333333333333</ele><time>2026-05-02T18:42:40Z</time></trkpt><trkpt lat="49.05253515621845" lon="6.844282561546578"><ele>256.16666666666663</ele><time>2026-05-02T18:42:41Z</time></trkpt><trkpt lat="49.05257131454356" lon="6.844386190278075"><ele>256.0</ele><time>2026-05-02T18:42:42Z</time></trkpt><trkpt lat="49.05260630728486" lon="6.844483727911499"><ele>255.60000000000002</ele><time>2026-05-02T18:42:43Z</time></trkpt><trkpt lat="49.05263979493289" lon="6.844573880451939"><ele>255.20000000000002</ele><time>2026-05-02T18:42:44Z</time></trkpt><trkpt lat="49.05266912645847" lon="6.844659082852334"><ele>254.79999999999998</ele><time>2026-05-02T18:42:45Z</time></trkpt><trkpt lat="49.05260103666884" lon="6.844885107815299"><ele>254.39999999999998</ele><time>2026-05-02T18:42:48Z</time></trkpt><trkpt lat="49.05252731694754" lon="6.844954947946939"><ele>254.0</ele><time>2026-05-02T18:42:49Z</time></trkpt><trkpt lat="49.052436355976305" lon="6.845042887773325"><ele>253.39999999999998</ele><time>2026-05-02T18:42:50Z</time></trkpt><trkpt lat="49.05235401632583" lon="6.845134066139593"><ele>252.79999999999998</ele><time>2026-05-02T18:42:51Z</time></trkpt><trkpt lat="49.05226679523444" lon="6.845233310720429"><ele>252.20000000000002</ele><time>2026-05-02T18:42:52Z</time></trkpt><trkpt lat="49.05217743726213" lon="6.845339071413226"><ele>251.60000000000002</ele><time>2026-05-02T18:42:53Z</time></trkpt><trkpt lat="49.05208116781774" lon="6.845438785499941"><ele>251.0</ele><time>2026-05-02T18:42:54Z</time></trkpt><trkpt lat="49.05198913393166" lon="6.845539242090905"><ele>251.0</ele><time>2026-05-02T18:42:55Z</time></trkpt><trkpt lat="49.05189970147314" lon="6.845636859044171"><ele>251.00000000000003</ele><time>2026-05-02T18:42:56Z</time></trkpt><trkpt lat="49.051815547200334" lon="6.845728714730555"><ele>251.00000000000003</ele><time>2026-05-02T18:42:57Z</time></trkpt><trkpt lat="49.05173457013953" lon="6.845817102601683"><ele>251.0</ele><time>2026-05-02T18:42:58Z</time></trkpt><trkpt lat="49.05166213857126" lon="6.845918229096094"><ele>251.0</ele><time>2026-05-02T18:42:59Z</time></trkpt><trkpt lat="49.0515731775564" lon="6.845988511256971"><ele>252.0</ele><time>2026-05-02T18:43:00Z</time></trkpt><trkpt lat="49.05148521373835" lon="6.8460567590892385"><ele>253.00000000000003</ele><time>2026-05-02T18:43:01Z</time></trkpt><trkpt lat="49.05139431355757" lon="6.846103363948621"><ele>254.00000000000003</ele><time>2026-05-02T18:43:02Z</time></trkpt><trkpt lat="49.05129779168842" lon="6.8461472643323"><ele>255.0</ele><time>2026-05-02T18:43:03Z</time></trkpt><trkpt lat="49.05120151890577" lon="6.846217237042398"><ele>256.0</ele><time>2026-05-02T18:43:04Z</time></trkpt><trkpt lat="49.051100279682345" lon="6.846284664021017"><ele>256.0</ele><time>2026-05-02T18:43:05Z</time></trkpt><trkpt lat="49.05098588178344" lon="6.846341526707488"><ele>256.0</ele><time>2026-05-02T18:43:06Z</time></trkpt><trkpt lat="49.05087347401836" lon="6.846397648260653"><ele>256.0</ele><time>2026-05-02T18:43:07Z</time></trkpt><trkpt lat="49.05076010423032" lon="6.8464391379828236"><ele>256.0</ele><time>2026-05-02T18:43:08Z</time></trkpt><trkpt lat="49.05065339645271" lon="6.84647112680797"><ele>257.3333333333333</ele><time>2026-05-02T18:43:09Z</time></trkpt><trkpt lat="49.05056592939552" lon="6.8465155349412194"><ele>258.66666666666663</ele><time>2026-05-02T18:43:10Z</time></trkpt><trkpt lat="49.05049178436347" lon="6.846548791334386"><ele>260.0</ele><time>2026-05-02T18:43:11Z</time></trkpt><trkpt lat="49.050415778498824" lon="6.846588993192582"><ele>261.3333333333333</ele><time>2026-05-02T18:43:12Z</time></trkpt><trkpt lat="49.05035305266889" lon="6.846656014909435"><ele>262.6666666666667</ele><time>2026-05-02T18:43:13Z</time></trkpt><trkpt lat="49.05032521008725" lon="6.846748092972258"><ele>264.0</ele><time>2026-05-02T18:43:14Z</time></trkpt><trkpt lat="49.050336954456185" lon="6.846867498004478"><ele>264.5</ele><time>2026-05-02T18:43:15Z</time></trkpt><trkpt lat="49.050390325704754" lon="6.847014352046819"><ele>265.0</ele><time>2026-05-02T18:43:16Z</time></trkpt><trkpt lat="49.05045728472299" lon="6.847173731178295"><ele>265.5</ele><time>2026-05-02T18:43:17Z</time></trkpt><trkpt lat="49.050513020597954" lon="6.847367182595847"><ele>266.0</ele><time>2026-05-02T18:43:18Z</time></trkpt><trkpt lat="49.050576831161806" lon="6.847534073538302"><ele>266.5</ele><time>2026-05-02T18:43:19Z</time></trkpt><trkpt lat="49.05063620147665" lon="6.847714179405448"><ele>267.0</ele><time>2026-05-02T18:43:20Z</time></trkpt><trkpt lat="49.050697991587654" lon="6.847900344313"><ele>267.5</ele><time>2026-05-02T18:43:21Z</time></trkpt><trkpt lat="49.05075083117383" lon="6.8480649219364285"><ele>268.0</ele><time>2026-05-02T18:43:22Z</time></trkpt><trkpt lat="49.05080138570061" lon="6.848224907572419"><ele>267.0</ele><time>2026-05-02T18:43:23Z</time></trkpt><trkpt lat="49.05085128561996" lon="6.848384218099153"><ele>266.0</ele><time>2026-05-02T18:43:24Z</time></trkpt><trkpt lat="49.050900587343754" lon="6.848535013162685"><ele>265.0</ele><time>2026-05-02T18:43:25Z</time></trkpt><trkpt lat="49.05094593578292" lon="6.848677908009225"><ele>264.0</ele><time>2026-05-02T18:43:26Z</time></trkpt><trkpt lat="49.050997044395224" lon="6.848822385672243"><ele>263.0</ele><time>2026-05-02T18:43:27Z</time></trkpt><trkpt lat="49.051036655525" lon="6.848987099326081"><ele>263.0</ele><time>2026-05-02T18:43:28Z</time></trkpt><trkpt lat="49.051122900986655" lon="6.849134973780117"><ele>263.0</ele><time>2026-05-02T18:43:29Z</time></trkpt><trkpt lat="49.05120000627193" lon="6.849300582452969"><ele>263.0</ele><time>2026-05-02T18:43:30Z</time></trkpt><trkpt lat="49.05127217972358" lon="6.84947051967741"><ele>263.0</ele><time>2026-05-02T18:43:31Z</time></trkpt><trkpt lat="49.0513467667316" lon="6.849642295616855"><ele>263.25</ele><time>2026-05-02T18:43:32Z</time></trkpt><trkpt lat="49.05142251474336" lon="6.8498188343508515"><ele>263.5</ele><time>2026-05-02T18:43:33Z</time></trkpt><trkpt lat="49.051503135095004" lon="6.849993757878927"><ele>263.75</ele><time>2026-05-02T18:43:34Z</time></trkpt><trkpt lat="49.05158188736857" lon="6.850170751354327"><ele>264.0</ele><time>2026-05-02T18:43:35Z</time></trkpt><trkpt lat="49.05166103462268" lon="6.850346665055708"><ele>263.0</ele><time>2026-05-02T18:43:36Z</time></trkpt><trkpt lat="49.05173907860846" lon="6.850527062977215"><ele>262.0</ele><time>2026-05-02T18:43:37Z</time></trkpt><trkpt lat="49.05182118533929" lon="6.850708050366703"><ele>261.0</ele><time>2026-05-02T18:43:38Z</time></trkpt><trkpt lat="49.05189956768623" lon="6.850897351576432"><ele>260.0</ele><time>2026-05-02T18:43:39Z</time></trkpt><trkpt lat="49.05198187658234" lon="6.851086473969342"><ele>260.0</ele><time>2026-05-02T18:43:40Z</time></trkpt><trkpt lat="49.05205998565226" lon="6.851283362372"><ele>260.0</ele><time>2026-05-02T18:43:41Z</time></trkpt><trkpt lat="49.0521356494819" lon="6.851484999799739"><ele>260.0</ele><time>2026-05-02T18:43:42Z</time></trkpt><trkpt lat="49.05220934258695" lon="6.8516784782082985"><ele>259.33333333333337</ele><time>2026-05-02T18:43:43Z</time></trkpt><trkpt lat="49.052266803579116" lon="6.851887481049574"><ele>258.6666666666667</ele><time>2026-05-02T18:43:44Z</time></trkpt><trkpt lat="49.05235374738283" lon="6.8520764929727624"><ele>258.0</ele><time>2026-05-02T18:43:45Z</time></trkpt><trkpt lat="49.05242638270927" lon="6.852281053387568"><ele>258.0</ele><time>2026-05-02T18:43:46Z</time></trkpt><trkpt lat="49.05249876751763" lon="6.852488831905117"><ele>258.0</ele><time>2026-05-02T18:43:47Z</time></trkpt><trkpt lat="49.05257032014654" lon="6.852694892946985"><ele>258.0</ele><time>2026-05-02T18:43:48Z</time></trkpt><trkpt lat="49.05264054903139" lon="6.852908801679818"><ele>258.0</ele><time>2026-05-02T18:43:49Z</time></trkpt><trkpt lat="49.05270887952837" lon="6.853116905940955"><ele>258.0</ele><time>2026-05-02T18:43:50Z</time></trkpt><trkpt lat="49.05277605067559" lon="6.853324042634509"><ele>258.0</ele><time>2026-05-02T18:43:51Z</time></trkpt><trkpt lat="49.05284073867164" lon="6.853528077755405"><ele>257.25</ele><time>2026-05-02T18:43:52Z</time></trkpt><trkpt lat="49.05290604562834" lon="6.853734612208538"><ele>256.5</ele><time>2026-05-02T18:43:53Z</time></trkpt><trkpt lat="49.052972612264476" lon="6.853933154015521"><ele>255.75</ele><time>2026-05-02T18:43:54Z</time></trkpt><trkpt lat="49.053040129405666" lon="6.854131762109846"><ele>255.0</ele><time>2026-05-02T18:43:55Z</time></trkpt><trkpt lat="49.05310163674686" lon="6.854318690173762"><ele>254.5</ele><time>2026-05-02T18:43:56Z</time></trkpt><trkpt lat="49.053161021687856" lon="6.854507145310369"><ele>254.0</ele><time>2026-05-02T18:43:57Z</time></trkpt><trkpt lat="49.05322442142722" lon="6.854697525860942"><ele>253.5</ele><time>2026-05-02T18:43:58Z</time></trkpt><trkpt lat="49.05328557431774" lon="6.854887652323681"><ele>253.0</ele><time>2026-05-02T18:43:59Z</time></trkpt><trkpt lat="49.0533494208185" lon="6.855082653325192"><ele>254.25</ele><time>2026-05-02T18:44:00Z</time></trkpt><trkpt lat="49.05341550897542" lon="6.855281889469559"><ele>255.5</ele><time>2026-05-02T18:44:01Z</time></trkpt><trkpt lat="49.053480438502326" lon="6.855487930809886"><ele>256.75</ele><time>2026-05-02T18:44:02Z</time></trkpt><trkpt lat="49.053543939967156" lon="6.8556953006894314"><ele>258.0</ele><time>2026-05-02T18:44:03Z</time></trkpt><trkpt lat="49.0536077440576" lon="6.855898187516582"><ele>257.25</ele><time>2026-05-02T18:44:04Z</time></trkpt><trkpt lat="49.05367225331979" lon="6.856104408698251"><ele>256.5</ele><time>2026-05-02T18:44:05Z</time></trkpt><trkpt lat="49.05373425193639" lon="6.856306974147114"><ele>255.75</ele><time>2026-05-02T18:44:06Z</time></trkpt><trkpt lat="49.05379582441946" lon="6.856512966370385"><ele>255.0</ele><time>2026-05-02T18:44:07Z</time></trkpt><trkpt lat="49.05386036376486" lon="6.856722904431733"><ele>254.5</ele><time>2026-05-02T18:44:08Z</time></trkpt><trkpt lat="49.05392267265063" lon="6.856926032848519"><ele>254.0</ele><time>2026-05-02T18:44:09Z</time></trkpt><trkpt lat="49.05398719401276" lon="6.85712867167352"><ele>253.5</ele><time>2026-05-02T18:44:10Z</time></trkpt><trkpt lat="49.05404961488523" lon="6.857327359718711"><ele>253.0</ele><time>2026-05-02T18:44:11Z</time></trkpt><trkpt lat="49.05411124267488" lon="6.8575277660360445"><ele>254.33333333333331</ele><time>2026-05-02T18:44:12Z</time></trkpt><trkpt lat="49.054173706568314" lon="6.857732238845864"><ele>255.66666666666669</ele><time>2026-05-02T18:44:13Z</time></trkpt><trkpt lat="49.054232148425505" lon="6.85794709729649"><ele>257.0</ele><time>2026-05-02T18:44:14Z</time></trkpt><trkpt lat="49.05428573255533" lon="6.858169864009324"><ele>257.0</ele><time>2026-05-02T18:44:15Z</time></trkpt><trkpt lat="49.05434081806807" lon="6.858388904604081"><ele>257.0</ele><time>2026-05-02T18:44:16Z</time></trkpt><trkpt lat="49.054394464727025" lon="6.858592018997885"><ele>257.0</ele><time>2026-05-02T18:44:17Z</time></trkpt><trkpt lat="49.05444691826117" lon="6.85879220987521"><ele>257.0</ele><time>2026-05-02T18:44:18Z</time></trkpt><trkpt lat="49.054499529091835" lon="6.858997794930666"><ele>256.75</ele><time>2026-05-02T18:44:19Z</time></trkpt><trkpt lat="49.05455002314978" lon="6.859205880862296"><ele>256.5</ele><time>2026-05-02T18:44:20Z</time></trkpt><trkpt lat="49.05460377570745" lon="6.85941496653064"><ele>256.25</ele><time>2026-05-02T18:44:21Z</time></trkpt><trkpt lat="49.05465897205101" lon="6.8596247516203235"><ele>256.0</ele><time>2026-05-02T18:44:21.999Z</time></trkpt><trkpt lat="49.054716543906245" lon="6.859816337748854"><ele>255.25</ele><time>2026-05-02T18:44:22.999Z</time></trkpt><trkpt lat="49.0547796818741" lon="6.860009594215126"><ele>254.5</ele><time>2026-05-02T18:44:23.999Z</time></trkpt><trkpt lat="49.05483484669956" lon="6.860195160171388"><ele>253.75</ele><time>2026-05-02T18:44:24.999Z</time></trkpt><trkpt lat="49.05487091989359" lon="6.8603799357262645"><ele>253.0</ele><time>2026-05-02T18:44:25.999Z</time></trkpt><trkpt lat="49.0549024783823" lon="6.860562809149678"><ele>252.75</ele><time>2026-05-02T18:44:26.999Z</time></trkpt><trkpt lat="49.05494590747078" lon="6.860750373674173"><ele>252.5</ele><time>2026-05-02T18:44:27.999Z</time></trkpt><trkpt lat="49.05496809216005" lon="6.860937169728167"><ele>252.25</ele><time>2026-05-02T18:44:28.999Z</time></trkpt><trkpt lat="49.05499875804533" lon="6.861105909311157"><ele>252.0</ele><time>2026-05-02T18:44:29.999Z</time></trkpt><trkpt lat="49.055037261529996" lon="6.8612546993942045"><ele>252.8</ele><time>2026-05-02T18:44:30.999Z</time></trkpt><trkpt lat="49.05506692106753" lon="6.861399454632309"><ele>253.6</ele><time>2026-05-02T18:44:31.999Z</time></trkpt><trkpt lat="49.055092823461734" lon="6.861540070898323"><ele>254.40000000000003</ele><time>2026-05-02T18:44:32.999Z</time></trkpt><trkpt lat="49.05511617702894" lon="6.861678220930887"><ele>255.20000000000002</ele><time>2026-05-02T18:44:33.999Z</time></trkpt><trkpt lat="49.05513818147212" lon="6.8618071044728595"><ele>256.0</ele><time>2026-05-02T18:44:34.999Z</time></trkpt><trkpt lat="49.055160096863474" lon="6.861924897778983"><ele>257.1428571428571</ele><time>2026-05-02T18:44:35.999Z</time></trkpt><trkpt lat="49.05517903803529" lon="6.862034282946339"><ele>258.2857142857143</ele><time>2026-05-02T18:44:37Z</time></trkpt><trkpt lat="49.055197227815874" lon="6.862127925630587"><ele>259.42857142857144</ele><time>2026-05-02T18:44:38Z</time></trkpt><trkpt lat="49.05521313364235" lon="6.862252004829966"><ele>260.57142857142856</ele><time>2026-05-02T18:44:40Z</time></trkpt><trkpt lat="49.05523472770009" lon="6.86234340637945"><ele>261.7142857142857</ele><time>2026-05-02T18:44:42Z</time></trkpt><trkpt lat="49.05523510118758" lon="6.862446424353855"><ele>262.85714285714283</ele><time>2026-05-02T18:44:43Z</time></trkpt><trkpt lat="49.05525425586067" lon="6.862579670328691"><ele>264.0</ele><time>2026-05-02T18:44:44Z</time></trkpt><trkpt lat="49.05527214023047" lon="6.862714073333023"><ele>264.2</ele><time>2026-05-02T18:44:45Z</time></trkpt><trkpt lat="49.05530778076149" lon="6.862858166667401"><ele>264.4</ele><time>2026-05-02T18:44:46Z</time></trkpt><trkpt lat="49.055324515699844" lon="6.862994949687405"><ele>264.6</ele><time>2026-05-02T18:44:47Z</time></trkpt><trkpt lat="49.05532947646795" lon="6.863144025366865"><ele>264.8</ele><time>2026-05-02T18:44:48Z</time></trkpt><trkpt lat="49.05536119657291" lon="6.863288270395891"><ele>265.0</ele><time>2026-05-02T18:44:49Z</time></trkpt><trkpt lat="49.0553924337637" lon="6.863432161203715"><ele>264.0</ele><time>2026-05-02T18:44:50Z</time></trkpt><trkpt lat="49.05541853340482" lon="6.863568426753482"><ele>263.0</ele><time>2026-05-02T18:44:51Z</time></trkpt><trkpt lat="49.05544821252406" lon="6.863721445700447"><ele>262.0</ele><time>2026-05-02T18:44:52Z</time></trkpt><trkpt lat="49.05547801127592" lon="6.863873729901819"><ele>261.0</ele><time>2026-05-02T18:44:53Z</time></trkpt><trkpt lat="49.05550429775979" lon="6.864038497590591"><ele>260.0</ele><time>2026-05-02T18:44:54Z</time></trkpt><trkpt lat="49.05550996856312" lon="6.864221680638342"><ele>258.5</ele><time>2026-05-02T18:44:55Z</time></trkpt><trkpt lat="49.05553936991159" lon="6.864396229638215"><ele>257.0</ele><time>2026-05-02T18:44:56Z</time></trkpt><trkpt lat="49.055552105086754" lon="6.8645769056733545"><ele>255.5</ele><time>2026-05-02T18:44:57Z</time></trkpt><trkpt lat="49.055566928607" lon="6.86476055673894"><ele>254.0</ele><time>2026-05-02T18:44:58Z</time></trkpt><trkpt lat="49.05559339662852" lon="6.864935593947749"><ele>254.0</ele><time>2026-05-02T18:44:59Z</time></trkpt><trkpt lat="49.055617242470724" lon="6.865107142612088"><ele>254.0</ele><time>2026-05-02T18:45:00Z</time></trkpt><trkpt lat="49.05564380630947" lon="6.865279847176626"><ele>254.0</ele><time>2026-05-02T18:45:01Z</time></trkpt><trkpt lat="49.05567836281896" lon="6.865446577640829"><ele>254.0</ele><time>2026-05-02T18:45:02Z</time></trkpt><trkpt lat="49.055713718750354" lon="6.865603331027154"><ele>253.2</ele><time>2026-05-02T18:45:03Z</time></trkpt><trkpt lat="49.05574388429083" lon="6.8657620782075925"><ele>252.39999999999998</ele><time>2026-05-02T18:45:04Z</time></trkpt><trkpt lat="49.05577061915539" lon="6.865927603527281"><ele>251.6</ele><time>2026-05-02T18:45:05Z</time></trkpt><trkpt lat="49.055796024125435" lon="6.866088715212466"><ele>250.8</ele><time>2026-05-02T18:45:06Z</time></trkpt><trkpt lat="49.05579009485889" lon="6.866264520925586"><ele>250.0</ele><time>2026-05-02T18:45:07Z</time></trkpt><trkpt lat="49.05581476605474" lon="6.866445405564613"><ele>252.0</ele><time>2026-05-02T18:45:08Z</time></trkpt><trkpt lat="49.055817724322594" lon="6.866626389864314"><ele>254.0</ele><time>2026-05-02T18:45:09Z</time></trkpt><trkpt lat="49.05582907145744" lon="6.866808784156218"><ele>256.0</ele><time>2026-05-02T18:45:10Z</time></trkpt><trkpt lat="49.05582496522966" lon="6.866994850209453"><ele>258.0</ele><time>2026-05-02T18:45:11Z</time></trkpt><trkpt lat="49.055834010329676" lon="6.867185984970985"><ele>258.0</ele><time>2026-05-02T18:45:12Z</time></trkpt><trkpt lat="49.055853701483194" lon="6.867369684567005"><ele>258.0</ele><time>2026-05-02T18:45:13Z</time></trkpt><trkpt lat="49.055864843915145" lon="6.867555327453919"><ele>258.0</ele><time>2026-05-02T18:45:14Z</time></trkpt><trkpt lat="49.05587498922059" lon="6.867741307549961"><ele>258.0</ele><time>2026-05-02T18:45:15Z</time></trkpt><trkpt lat="49.05588785396726" lon="6.867923326103475"><ele>257.5</ele><time>2026-05-02T18:45:16Z</time></trkpt><trkpt lat="49.055902864074376" lon="6.868111006213489"><ele>257.0</ele><time>2026-05-02T18:45:17Z</time></trkpt><trkpt lat="49.05591251734065" lon="6.868289306336949"><ele>256.5</ele><time>2026-05-02T18:45:18Z</time></trkpt><trkpt lat="49.055932177639804" lon="6.868452173834441"><ele>256.0</ele><time>2026-05-02T18:45:19Z</time></trkpt><trkpt lat="49.055951291565165" lon="6.86862600518991"><ele>255.4</ele><time>2026-05-02T18:45:20Z</time></trkpt><trkpt lat="49.055966023053124" lon="6.868801080979202"><ele>254.8</ele><time>2026-05-02T18:45:21Z</time></trkpt><trkpt lat="49.05597145274533" lon="6.86896210965066"><ele>254.20000000000002</ele><time>2026-05-02T18:45:22Z</time></trkpt><trkpt lat="49.055932173913604" lon="6.86911536618831"><ele>253.60000000000002</ele><time>2026-05-02T18:45:23Z</time></trkpt><trkpt lat="49.05590409958179" lon="6.869279857487481"><ele>253.0</ele><time>2026-05-02T18:45:24Z</time></trkpt><trkpt lat="49.055882980676266" lon="6.869432957648157"><ele>252.8</ele><time>2026-05-02T18:45:25Z</time></trkpt><trkpt lat="49.05589153755155" lon="6.869580252660869"><ele>252.60000000000002</ele><time>2026-05-02T18:45:26Z</time></trkpt><trkpt lat="49.055902132615714" lon="6.86971277819519"><ele>252.39999999999998</ele><time>2026-05-02T18:45:27Z</time></trkpt><trkpt lat="49.05592632789301" lon="6.869840382436873"><ele>252.2</ele><time>2026-05-02T18:45:28Z</time></trkpt><trkpt lat="49.055955471587495" lon="6.8699788468267196"><ele>252.0</ele><time>2026-05-02T18:45:29Z</time></trkpt><trkpt lat="49.05598937489926" lon="6.870113719277835"><ele>251.8</ele><time>2026-05-02T18:45:30Z</time></trkpt><trkpt lat="49.056035608165054" lon="6.870233172413686"><ele>251.6</ele><time>2026-05-02T18:45:31Z</time></trkpt><trkpt lat="49.056126838402946" lon="6.870447118710014"><ele>251.40000000000003</ele><time>2026-05-02T18:45:33Z</time></trkpt><trkpt lat="49.05615744208382" lon="6.870587324170555"><ele>251.20000000000002</ele><time>2026-05-02T18:45:35Z</time></trkpt><trkpt lat="49.05607398372501" lon="6.870612352271358"><ele>251.0</ele><time>2026-05-02T18:45:37Z</time></trkpt><trkpt lat="49.05599567199753" lon="6.870601848721339"><ele>251.0</ele><time>2026-05-02T18:45:38Z</time></trkpt><trkpt lat="49.05589272081876" lon="6.870597472401604"><ele>251.00000000000003</ele><time>2026-05-02T18:45:39Z</time></trkpt><trkpt lat="49.05578994762092" lon="6.8705483275274775"><ele>251.00000000000003</ele><time>2026-05-02T18:45:40Z</time></trkpt><trkpt lat="49.05570321879176" lon="6.8705096320692025"><ele>251.0</ele><time>2026-05-02T18:45:41Z</time></trkpt><trkpt lat="49.055629075667156" lon="6.870420845475153"><ele>251.0</ele><time>2026-05-02T18:45:42Z</time></trkpt><trkpt lat="49.0555462949858" lon="6.870329962008142"><ele>251.25</ele><time>2026-05-02T18:45:43Z</time></trkpt><trkpt lat="49.055442124129655" lon="6.87022719785649"><ele>251.5</ele><time>2026-05-02T18:45:44Z</time></trkpt><trkpt lat="49.05533101562991" lon="6.870096198633917"><ele>251.75</ele><time>2026-05-02T18:45:45Z</time></trkpt><trkpt lat="49.055235657202296" lon="6.869974290565886"><ele>252.0</ele><time>2026-05-02T18:45:46Z</time></trkpt><trkpt lat="49.05514178664144" lon="6.869860417198843"><ele>251.75</ele><time>2026-05-02T18:45:47Z</time></trkpt><trkpt lat="49.05504455632529" lon="6.869749729955029"><ele>251.5</ele><time>2026-05-02T18:45:48Z</time></trkpt><trkpt lat="49.05495450545239" lon="6.869630513573988"><ele>251.25</ele><time>2026-05-02T18:45:49Z</time></trkpt><trkpt lat="49.05486794745953" lon="6.869512577460238"><ele>251.0</ele><time>2026-05-02T18:45:50Z</time></trkpt><trkpt lat="49.05478327727884" lon="6.86940325375395"><ele>251.0</ele><time>2026-05-02T18:45:51Z</time></trkpt><trkpt lat="49.0546990645985" lon="6.869294386356193"><ele>251.00000000000003</ele><time>2026-05-02T18:45:52Z</time></trkpt><trkpt lat="49.054613339742836" lon="6.869184077494031"><ele>251.00000000000003</ele><time>2026-05-02T18:45:53Z</time></trkpt><trkpt lat="49.054531174127725" lon="6.869078746524458"><ele>251.0</ele><time>2026-05-02T18:45:54Z</time></trkpt><trkpt lat="49.054448124205955" lon="6.868972212338245"><ele>251.0</ele><time>2026-05-02T18:45:55Z</time></trkpt><trkpt lat="49.05436801558485" lon="6.868861443614738"><ele>250.0</ele><time>2026-05-02T18:45:56Z</time></trkpt><trkpt lat="49.054283856771775" lon="6.868749119721292"><ele>249.0</ele><time>2026-05-02T18:45:57Z</time></trkpt><trkpt lat="49.054196253222074" lon="6.868636630413994"><ele>248.0</ele><time>2026-05-02T18:45:58Z</time></trkpt><trkpt lat="49.0541048217736" lon="6.868518684000309"><ele>247.0</ele><time>2026-05-02T18:45:59Z</time></trkpt><trkpt lat="49.05400746396313" lon="6.868393920026817"><ele>247.0</ele><time>2026-05-02T18:46:00Z</time></trkpt><trkpt lat="49.05391748070115" lon="6.868273503080431"><ele>247.0</ele><time>2026-05-02T18:46:01Z</time></trkpt><trkpt lat="49.05383417425431" lon="6.868158264180749"><ele>247.0</ele><time>2026-05-02T18:46:02Z</time></trkpt><trkpt lat="49.053754810170076" lon="6.868042992374364"><ele>247.0</ele><time>2026-05-02T18:46:03Z</time></trkpt><trkpt lat="49.053677081482675" lon="6.867934032188509"><ele>247.0</ele><time>2026-05-02T18:46:04Z</time></trkpt><trkpt lat="49.053592375109886" lon="6.867850511898654"><ele>247.0</ele><time>2026-05-02T18:46:05Z</time></trkpt><trkpt lat="49.05350010942162" lon="6.867788557330932"><ele>247.0</ele><time>2026-05-02T18:46:06Z</time></trkpt><trkpt lat="49.053389233612066" lon="6.867750806437666"><ele>247.0</ele><time>2026-05-02T18:46:07Z</time></trkpt><trkpt lat="49.05327556402911" lon="6.8677271108433295"><ele>247.0</ele><time>2026-05-02T18:46:08Z</time></trkpt><trkpt lat="49.05314674397714" lon="6.867676146998623"><ele>248.0</ele><time>2026-05-02T18:46:09Z</time></trkpt><trkpt lat="49.0530118654956" lon="6.867626572414536"><ele>249.0</ele><time>2026-05-02T18:46:10Z</time></trkpt><trkpt lat="49.05288117791213" lon="6.86757115119818"><ele>250.0</ele><time>2026-05-02T18:46:11Z</time></trkpt><trkpt lat="49.05275239596829" lon="6.867523129879806"><ele>251.0</ele><time>2026-05-02T18:46:11.999Z</time></trkpt><trkpt lat="49.0526288464721" lon="6.867473496980569"><ele>251.75</ele><time>2026-05-02T18:46:12.999Z</time></trkpt><trkpt lat="49.05252523011547" lon="6.867430628353691"><ele>252.5</ele><time>2026-05-02T18:46:13.999Z</time></trkpt><trkpt lat="49.05240211688014" lon="6.867391784161233"><ele>253.25</ele><time>2026-05-02T18:46:14.999Z</time></trkpt><trkpt lat="49.052285344640524" lon="6.86737360034586"><ele>254.0</ele><time>2026-05-02T18:46:15.999Z</time></trkpt><trkpt lat="49.05216971603896" lon="6.867372836994142"><ele>254.0</ele><time>2026-05-02T18:46:16.999Z</time></trkpt><trkpt lat="49.05205554475972" lon="6.867390032459577"><ele>254.0</ele><time>2026-05-02T18:46:17.999Z</time></trkpt><trkpt lat="49.051940976164936" lon="6.867425157538823"><ele>254.0</ele><time>2026-05-02T18:46:18.999Z</time></trkpt><trkpt lat="49.05183202160563" lon="6.867474004532597"><ele>254.0</ele><time>2026-05-02T18:46:19.999Z</time></trkpt><trkpt lat="49.05172519569213" lon="6.8675047222306755"><ele>254.66666666666669</ele><time>2026-05-02T18:46:20.999Z</time></trkpt><trkpt lat="49.05162168502859" lon="6.867540944281369"><ele>255.33333333333334</ele><time>2026-05-02T18:46:21.999Z</time></trkpt><trkpt lat="49.05153895289266" lon="6.86757080683579"><ele>256.0</ele><time>2026-05-02T18:46:22.999Z</time></trkpt><trkpt lat="49.051476154427306" lon="6.867593472375481"><ele>256.6666666666667</ele><time>2026-05-02T18:46:23.999Z</time></trkpt><trkpt lat="49.05137891913113" lon="6.867628567200055"><ele>257.3333333333333</ele><time>2026-05-02T18:46:25.999Z</time></trkpt><trkpt lat="49.051317640252" lon="6.867652013367692"><ele>258.0</ele><time>2026-05-02T18:46:27.999Z</time></trkpt><trkpt lat="49.05125078392543" lon="6.86767860254531"><ele>258.0</ele><time>2026-05-02T18:46:31.999Z</time></trkpt><trkpt lat="49.05115556397723" lon="6.867722200268077"><ele>258.0</ele><time>2026-05-02T18:46:34.999Z</time></trkpt><trkpt lat="49.051091887603086" lon="6.8677549991003914"><ele>258.0</ele><time>2026-05-02T18:46:37.999Z</time></trkpt><trkpt lat="49.05098507363406" lon="6.867805112247976"><ele>258.0</ele><time>2026-05-02T18:46:41.999Z</time></trkpt><trkpt lat="49.050926147139975" lon="6.867857937009588"><ele>258.0</ele><time>2026-05-02T18:46:43Z</time></trkpt><trkpt lat="49.05084447436294" lon="6.867880114804831"><ele>258.0</ele><time>2026-05-02T18:46:44Z</time></trkpt><trkpt lat="49.05075990684923" lon="6.867927561410154"><ele>256.6</ele><time>2026-05-02T18:46:45Z</time></trkpt><trkpt lat="49.05066194180649" lon="6.867973585747806"><ele>255.20000000000002</ele><time>2026-05-02T18:46:46Z</time></trkpt><trkpt lat="49.05056683813585" lon="6.868025614781805"><ele>253.8</ele><time>2026-05-02T18:46:47Z</time></trkpt><trkpt lat="49.05046640915035" lon="6.868065364089509"><ele>252.4</ele><time>2026-05-02T18:46:48Z</time></trkpt><trkpt lat="49.05036524657643" lon="6.868108930202614"><ele>251.0</ele><time>2026-05-02T18:46:49Z</time></trkpt><trkpt lat="49.0502637444071" lon="6.868162819238415"><ele>251.0</ele><time>2026-05-02T18:46:50Z</time></trkpt><trkpt lat="49.05016165080946" lon="6.868215353445375"><ele>251.00000000000003</ele><time>2026-05-02T18:46:51Z</time></trkpt><trkpt lat="49.05005372876218" lon="6.868258506074269"><ele>251.00000000000003</ele><time>2026-05-02T18:46:52Z</time></trkpt><trkpt lat="49.049953158712576" lon="6.868316425895809"><ele>251.0</ele><time>2026-05-02T18:46:53Z</time></trkpt><trkpt lat="49.04985620551786" lon="6.868363148499146"><ele>251.0</ele><time>2026-05-02T18:46:54Z</time></trkpt><trkpt lat="49.04976250023334" lon="6.868413828303742"><ele>248.60000000000002</ele><time>2026-05-02T18:46:55Z</time></trkpt><trkpt lat="49.049671946995055" lon="6.868465103543791"><ele>246.20000000000002</ele><time>2026-05-02T18:46:56Z</time></trkpt><trkpt lat="49.0495791385187" lon="6.8684716946205775"><ele>243.79999999999998</ele><time>2026-05-02T18:46:57Z</time></trkpt><trkpt lat="49.04948751392422" lon="6.868489677455425"><ele>241.39999999999998</ele><time>2026-05-02T18:46:58Z</time></trkpt><trkpt lat="49.04939451180609" lon="6.868495904205634"><ele>239.0</ele><time>2026-05-02T18:46:59Z</time></trkpt><trkpt lat="49.0493157836587" lon="6.868488283337244"><ele>239.00000000000003</ele><time>2026-05-02T18:47:00Z</time></trkpt><trkpt lat="49.049240204330005" lon="6.868474852201615"><ele>239.0</ele><time>2026-05-02T18:47:01Z</time></trkpt><trkpt lat="49.04916456833439" lon="6.86845936554298"><ele>239.0</ele><time>2026-05-02T18:47:02Z</time></trkpt><trkpt lat="49.04909820338103" lon="6.8684456588471"><ele>239.0</ele><time>2026-05-02T18:47:03Z</time></trkpt><trkpt lat="49.049033156214186" lon="6.868432224329721"><ele>239.00000000000003</ele><time>2026-05-02T18:47:04Z</time></trkpt><trkpt lat="49.04892841359815" lon="6.8684299917447404"><ele>239.0</ele><time>2026-05-02T18:47:06Z</time></trkpt><trkpt lat="49.04881813179614" lon="6.868407004621161"><ele>238.2</ele><time>2026-05-02T18:47:08Z</time></trkpt><trkpt lat="49.04870690558437" lon="6.868385153025037"><ele>237.39999999999998</ele><time>2026-05-02T18:47:10Z</time></trkpt><trkpt lat="49.0485999516869" lon="6.868328493567572"><ele>236.6</ele><time>2026-05-02T18:47:12Z</time></trkpt><trkpt lat="49.0485012233301" lon="6.868306654929901"><ele>235.8</ele><time>2026-05-02T18:47:14Z</time></trkpt><trkpt lat="49.04839666101535" lon="6.868311537754601"><ele>235.0</ele><time>2026-05-02T18:47:16Z</time></trkpt><trkpt lat="49.04828626589348" lon="6.86828864846752"><ele>237.4</ele><time>2026-05-02T18:47:18Z</time></trkpt><trkpt lat="49.04815984569522" lon="6.8683003659613"><ele>239.8</ele><time>2026-05-02T18:47:20Z</time></trkpt><trkpt lat="49.048085347158555" lon="6.86833334840665"><ele>242.2</ele><time>2026-05-02T18:47:21Z</time></trkpt><trkpt lat="49.048001719685665" lon="6.868371369912098"><ele>244.6</ele><time>2026-05-02T18:47:22Z</time></trkpt><trkpt lat="49.047913393354634" lon="6.868419479462024"><ele>247.0</ele><time>2026-05-02T18:47:23Z</time></trkpt><trkpt lat="49.047819074283304" lon="6.868472191653986"><ele>247.0</ele><time>2026-05-02T18:47:24Z</time></trkpt><trkpt lat="49.04774101973508" lon="6.8685205628823685"><ele>247.0</ele><time>2026-05-02T18:47:25Z</time></trkpt><trkpt lat="49.04765456322342" lon="6.868567618547782"><ele>247.0</ele><time>2026-05-02T18:47:26Z</time></trkpt><trkpt lat="49.0475646597295" lon="6.868619824947818"><ele>247.0</ele><time>2026-05-02T18:47:27Z</time></trkpt><trkpt lat="49.04747702505715" lon="6.868665160865966"><ele>247.0</ele><time>2026-05-02T18:47:28Z</time></trkpt><trkpt lat="49.04738267524832" lon="6.868678987764393"><ele>246.8</ele><time>2026-05-02T18:47:29Z</time></trkpt><trkpt lat="49.04729219945995" lon="6.86870352976175"><ele>246.6</ele><time>2026-05-02T18:47:30Z</time></trkpt><trkpt lat="49.04720194030065" lon="6.868715867628896"><ele>246.40000000000003</ele><time>2026-05-02T18:47:31Z</time></trkpt><trkpt lat="49.04710781738622" lon="6.868720756502746"><ele>246.20000000000002</ele><time>2026-05-02T18:47:32Z</time></trkpt><trkpt lat="49.04701423472782" lon="6.868710641118354"><ele>246.0</ele><time>2026-05-02T18:47:33Z</time></trkpt><trkpt lat="49.046917347311606" lon="6.86871016131325"><ele>246.0</ele><time>2026-05-02T18:47:34Z</time></trkpt><trkpt lat="49.04681979452567" lon="6.868632511789226"><ele>246.00000000000003</ele><time>2026-05-02T18:47:35Z</time></trkpt><trkpt lat="49.04672806084948" lon="6.868579909033308"><ele>246.00000000000003</ele><time>2026-05-02T18:47:36Z</time></trkpt><trkpt lat="49.04662739060913" lon="6.868537011388382"><ele>246.0</ele><time>2026-05-02T18:47:37Z</time></trkpt><trkpt lat="49.046511773022694" lon="6.868505907530485"><ele>246.0</ele><time>2026-05-02T18:47:38Z</time></trkpt><trkpt lat="49.046406204075424" lon="6.868522137915534"><ele>244.60000000000002</ele><time>2026-05-02T18:47:39Z</time></trkpt><trkpt lat="49.04629864436913" lon="6.868505184810473"><ele>243.20000000000002</ele><time>2026-05-02T18:47:40Z</time></trkpt><trkpt lat="49.046199511569725" lon="6.868529431757654"><ele>241.79999999999998</ele><time>2026-05-02T18:47:41Z</time></trkpt><trkpt lat="49.046104133429395" lon="6.86854951853763"><ele>240.39999999999998</ele><time>2026-05-02T18:47:42Z</time></trkpt><trkpt lat="49.04601261356046" lon="6.868559444170618"><ele>239.0</ele><time>2026-05-02T18:47:43Z</time></trkpt><trkpt lat="49.045921551932814" lon="6.868584508657496"><ele>239.0</ele><time>2026-05-02T18:47:44Z</time></trkpt><trkpt lat="49.045826579812065" lon="6.868612524949387"><ele>238.99999999999997</ele><time>2026-05-02T18:47:45Z</time></trkpt><trkpt lat="49.045725310261695" lon="6.868631303708615"><ele>238.99999999999997</ele><time>2026-05-02T18:47:46Z</time></trkpt><trkpt lat="49.045629759054826" lon="6.86868877444721"><ele>239.0</ele><time>2026-05-02T18:47:47Z</time></trkpt><trkpt lat="49.045538798829135" lon="6.868766269522925"><ele>239.0</ele><time>2026-05-02T18:47:48Z</time></trkpt><trkpt lat="49.0454488821605" lon="6.868853378282359"><ele>240.6</ele><time>2026-05-02T18:47:49Z</time></trkpt><trkpt lat="49.045351603969834" lon="6.868918863651206"><ele>242.2</ele><time>2026-05-02T18:47:50Z</time></trkpt><trkpt lat="49.0452665495441" lon="6.8690275353663655"><ele>243.79999999999998</ele><time>2026-05-02T18:47:51Z</time></trkpt><trkpt lat="49.04517662123885" lon="6.869135063533746"><ele>245.39999999999998</ele><time>2026-05-02T18:47:52Z</time></trkpt><trkpt lat="49.04509137523026" lon="6.869254132687418"><ele>247.0</ele><time>2026-05-02T18:47:53Z</time></trkpt><trkpt lat="49.04501138586715" lon="6.869385606470047"><ele>248.66666666666666</ele><time>2026-05-02T18:47:54Z</time></trkpt><trkpt lat="49.044937249047415" lon="6.869511942122071"><ele>250.33333333333331</ele><time>2026-05-02T18:47:55Z</time></trkpt><trkpt lat="49.044875661883516" lon="6.869618056491621"><ele>252.0</ele><time>2026-05-02T18:47:56Z</time></trkpt><trkpt lat="49.044831770464626" lon="6.869709172693116"><ele>253.66666666666669</ele><time>2026-05-02T18:47:57Z</time></trkpt><trkpt lat="49.04478768620004" lon="6.869794425115148"><ele>255.33333333333334</ele><time>2026-05-02T18:47:58Z</time></trkpt><trkpt lat="49.04474008117533" lon="6.869890306263453"><ele>257.0</ele><time>2026-05-02T18:47:59Z</time></trkpt><trkpt lat="49.044687821435105" lon="6.869991827967637"><ele>257.0</ele><time>2026-05-02T18:48:00Z</time></trkpt><trkpt lat="49.04464069557495" lon="6.870092791399332"><ele>257.0</ele><time>2026-05-02T18:48:01Z</time></trkpt><trkpt lat="49.04458153717414" lon="6.870203433679566"><ele>257.0</ele><time>2026-05-02T18:48:02Z</time></trkpt><trkpt lat="49.044507962430984" lon="6.870311344970083"><ele>257.0</ele><time>2026-05-02T18:48:03Z</time></trkpt><trkpt lat="49.04443330727958" lon="6.870421144143996"><ele>257.0</ele><time>2026-05-02T18:48:04Z</time></trkpt><trkpt lat="49.04434297624824" lon="6.870513880652019"><ele>257.4</ele><time>2026-05-02T18:48:05Z</time></trkpt><trkpt lat="49.04426849424932" lon="6.870590023402023"><ele>257.79999999999995</ele><time>2026-05-02T18:48:06Z</time></trkpt><trkpt lat="49.044186187997695" lon="6.870672231372717"><ele>258.2</ele><time>2026-05-02T18:48:07Z</time></trkpt><trkpt lat="49.04409670602539" lon="6.870759412613119"><ele>258.59999999999997</ele><time>2026-05-02T18:48:08Z</time></trkpt><trkpt lat="49.04400163170874" lon="6.8708628991224225"><ele>259.0</ele><time>2026-05-02T18:48:09Z</time></trkpt><trkpt lat="49.04391102647443" lon="6.870969208011536"><ele>260.5</ele><time>2026-05-02T18:48:10Z</time></trkpt><trkpt lat="49.04381588994204" lon="6.87108238420834"><ele>262.0</ele><time>2026-05-02T18:48:11Z</time></trkpt><trkpt lat="49.04373112515729" lon="6.871215188351775"><ele>263.5</ele><time>2026-05-02T18:48:12Z</time></trkpt><trkpt lat="49.04363756203752" lon="6.871341958382979"><ele>265.0</ele><time>2026-05-02T18:48:13Z</time></trkpt><trkpt lat="49.04354845893054" lon="6.871485896684864"><ele>265.0</ele><time>2026-05-02T18:48:14Z</time></trkpt><trkpt lat="49.043470023158896" lon="6.87162543636922"><ele>265.0</ele><time>2026-05-02T18:48:15Z</time></trkpt><trkpt lat="49.043375604589855" lon="6.871745674820351"><ele>265.0</ele><time>2026-05-02T18:48:16Z</time></trkpt><trkpt lat="49.04328828542557" lon="6.871837472463066"><ele>265.0</ele><time>2026-05-02T18:48:17Z</time></trkpt><trkpt lat="49.04321405699823" lon="6.871917668243581"><ele>265.0</ele><time>2026-05-02T18:48:18Z</time></trkpt><trkpt lat="49.043125263075076" lon="6.872001169341994"><ele>262.25</ele><time>2026-05-02T18:48:19Z</time></trkpt><trkpt lat="49.043019685134084" lon="6.872092207996511"><ele>259.5</ele><time>2026-05-02T18:48:20Z</time></trkpt><trkpt lat="49.042909138949504" lon="6.872188829523704"><ele>256.75</ele><time>2026-05-02T18:48:21Z</time></trkpt><trkpt lat="49.042784083968314" lon="6.872267351718369"><ele>254.0</ele><time>2026-05-02T18:48:21.999Z</time></trkpt><trkpt lat="49.042674309670204" lon="6.872340528214834"><ele>254.0</ele><time>2026-05-02T18:48:22.999Z</time></trkpt><trkpt lat="49.042581092124294" lon="6.872406388512296"><ele>254.0</ele><time>2026-05-02T18:48:23.999Z</time></trkpt><trkpt lat="49.04246897789783" lon="6.872490203613556"><ele>254.0</ele><time>2026-05-02T18:48:24.999Z</time></trkpt><trkpt lat="49.04235537997499" lon="6.872578331462949"><ele>254.0</ele><time>2026-05-02T18:48:25.999Z</time></trkpt><trkpt lat="49.04224388558846" lon="6.872685829275816"><ele>254.25</ele><time>2026-05-02T18:48:26.999Z</time></trkpt><trkpt lat="49.04213470275009" lon="6.872822515588497"><ele>254.5</ele><time>2026-05-02T18:48:27.999Z</time></trkpt><trkpt lat="49.04203052764761" lon="6.8729605077563"><ele>254.75</ele><time>2026-05-02T18:48:28.999Z</time></trkpt><trkpt lat="49.04192831631695" lon="6.873090866351634"><ele>255.0</ele><time>2026-05-02T18:48:29.999Z</time></trkpt><trkpt lat="49.04182968453376" lon="6.873226457277435"><ele>255.0</ele><time>2026-05-02T18:48:30.999Z</time></trkpt><trkpt lat="49.041745769391156" lon="6.873394267509434"><ele>255.0</ele><time>2026-05-02T18:48:31.999Z</time></trkpt><trkpt lat="49.04165436459762" lon="6.873555171579707"><ele>255.0</ele><time>2026-05-02T18:48:32.999Z</time></trkpt><trkpt lat="49.04155966415568" lon="6.873718703292272"><ele>255.0</ele><time>2026-05-02T18:48:33.999Z</time></trkpt><trkpt lat="49.04147983964523" lon="6.873872468171718"><ele>253.5</ele><time>2026-05-02T18:48:34.999Z</time></trkpt><trkpt lat="49.041403798964915" lon="6.874011096614033"><ele>252.0</ele><time>2026-05-02T18:48:35.999Z</time></trkpt><trkpt lat="49.04132807502654" lon="6.874151311772253"><ele>250.5</ele><time>2026-05-02T18:48:36.999Z</time></trkpt><trkpt lat="49.04126289224744" lon="6.8742843408586864"><ele>249.0</ele><time>2026-05-02T18:48:37.999Z</time></trkpt><trkpt lat="49.04119395692493" lon="6.874404261459862"><ele>249.0</ele><time>2026-05-02T18:48:38.999Z</time></trkpt><trkpt lat="49.04111808530884" lon="6.874504546979496"><ele>249.0</ele><time>2026-05-02T18:48:39.999Z</time></trkpt><trkpt lat="49.0410081544046" lon="6.874549848914347"><ele>249.0</ele><time>2026-05-02T18:48:40.999Z</time></trkpt><trkpt lat="49.04089384404997" lon="6.87462164514972"><ele>249.0</ele><time>2026-05-02T18:48:41.999Z</time></trkpt><trkpt lat="49.04077029895286" lon="6.8746954396396"><ele>247.75</ele><time>2026-05-02T18:48:42.999Z</time></trkpt><trkpt lat="49.040640155411864" lon="6.874780045918239"><ele>246.5</ele><time>2026-05-02T18:48:43.999Z</time></trkpt><trkpt lat="49.040512947017156" lon="6.874836093577432"><ele>245.25</ele><time>2026-05-02T18:48:44.999Z</time></trkpt><trkpt lat="49.040397627952494" lon="6.874913755263566"><ele>244.0</ele><time>2026-05-02T18:48:45.999Z</time></trkpt><trkpt lat="49.040290589211786" lon="6.87495688036956"><ele>244.0</ele><time>2026-05-02T18:48:46.999Z</time></trkpt><trkpt lat="49.040187462532785" lon="6.87495969693196"><ele>243.99999999999997</ele><time>2026-05-02T18:48:47.999Z</time></trkpt><trkpt lat="49.040096655142165" lon="6.874938320545428"><ele>243.99999999999997</ele><time>2026-05-02T18:48:49Z</time></trkpt><trkpt lat="49.040012859680736" lon="6.8748993736020365"><ele>244.0</ele><time>2026-05-02T18:48:50Z</time></trkpt><trkpt lat="49.03992021281914" lon="6.874831888998729"><ele>244.0</ele><time>2026-05-02T18:48:51Z</time></trkpt><trkpt lat="49.039845700090645" lon="6.874705527264747"><ele>244.79999999999998</ele><time>2026-05-02T18:48:52Z</time></trkpt><trkpt lat="49.0397544729289" lon="6.8746208933279265"><ele>245.59999999999997</ele><time>2026-05-02T18:48:53Z</time></trkpt><trkpt lat="49.03965921540236" lon="6.874529581541142"><ele>246.4</ele><time>2026-05-02T18:48:54Z</time></trkpt><trkpt lat="49.03957304465529" lon="6.8744224237160205"><ele>247.2</ele><time>2026-05-02T18:48:55Z</time></trkpt><trkpt lat="49.03949731085526" lon="6.874321580280543"><ele>248.0</ele><time>2026-05-02T18:48:56Z</time></trkpt><trkpt lat="49.039353497139295" lon="6.87418563349767"><ele>248.0</ele><time>2026-05-02T18:48:58Z</time></trkpt><trkpt lat="49.039246748580915" lon="6.874109482641638"><ele>248.0</ele><time>2026-05-02T18:49:00Z</time></trkpt><trkpt lat="49.0391775824628" lon="6.874029258274552"><ele>248.0</ele><time>2026-05-02T18:49:02Z</time></trkpt><trkpt lat="49.039181915131486" lon="6.873886437583764"><ele>248.0</ele><time>2026-05-02T18:49:03Z</time></trkpt><trkpt lat="49.03916855323636" lon="6.873744012452979"><ele>248.0</ele><time>2026-05-02T18:49:04Z</time></trkpt><trkpt lat="49.03914064479215" lon="6.873602633969834"><ele>248.0</ele><time>2026-05-02T18:49:05Z</time></trkpt><trkpt lat="49.039108079223816" lon="6.873467650734642"><ele>248.0</ele><time>2026-05-02T18:49:06Z</time></trkpt><trkpt lat="49.03907220829422" lon="6.873337585552698"><ele>248.0</ele><time>2026-05-02T18:49:07Z</time></trkpt><trkpt lat="49.03901225224566" lon="6.873209742511733"><ele>248.0</ele><time>2026-05-02T18:49:08Z</time></trkpt><trkpt lat="49.038937336761116" lon="6.873080456266116"><ele>248.0</ele><time>2026-05-02T18:49:09Z</time></trkpt><trkpt lat="49.03885427129622" lon="6.872947242717045"><ele>248.0</ele><time>2026-05-02T18:49:10Z</time></trkpt><trkpt lat="49.038756429416246" lon="6.8728128177262"><ele>248.0</ele><time>2026-05-02T18:49:11Z</time></trkpt><trkpt lat="49.03865756944597" lon="6.872651814530594"><ele>248.0</ele><time>2026-05-02T18:49:12Z</time></trkpt><trkpt lat="49.03856589632805" lon="6.8725110480077785"><ele>248.0</ele><time>2026-05-02T18:49:13Z</time></trkpt><trkpt lat="49.0384857393175" lon="6.872374722117182"><ele>248.0</ele><time>2026-05-02T18:49:14Z</time></trkpt><trkpt lat="49.03840464917928" lon="6.8722381086117466"><ele>248.0</ele><time>2026-05-02T18:49:15Z</time></trkpt><trkpt lat="49.03831787940121" lon="6.872097482580961"><ele>248.0</ele><time>2026-05-02T18:49:16Z</time></trkpt><trkpt lat="49.038243305701634" lon="6.871947612346883"><ele>248.0</ele><time>2026-05-02T18:49:17Z</time></trkpt><trkpt lat="49.03816034253715" lon="6.871837990821007"><ele>248.8</ele><time>2026-05-02T18:49:18Z</time></trkpt><trkpt lat="49.03808892729065" lon="6.87172880798521"><ele>249.60000000000002</ele><time>2026-05-02T18:49:19Z</time></trkpt><trkpt lat="49.038031860495536" lon="6.871591390801814"><ele>250.39999999999998</ele><time>2026-05-02T18:49:20Z</time></trkpt><trkpt lat="49.03796825059857" lon="6.871456133157103"><ele>251.2</ele><time>2026-05-02T18:49:21Z</time></trkpt><trkpt lat="49.037898701294644" lon="6.871327058739201"><ele>252.0</ele><time>2026-05-02T18:49:22Z</time></trkpt><trkpt lat="49.03784425428041" lon="6.871200877426773"><ele>252.0</ele><time>2026-05-02T18:49:23Z</time></trkpt><trkpt lat="49.03779420314991" lon="6.871084077250924"><ele>252.0</ele><time>2026-05-02T18:49:24Z</time></trkpt><trkpt lat="49.0377611512663" lon="6.870966480922195"><ele>252.0</ele><time>2026-05-02T18:49:25Z</time></trkpt><trkpt lat="49.03773253308222" lon="6.870878348517109"><ele>252.0</ele><time>2026-05-02T18:49:26Z</time></trkpt><trkpt lat="49.03772559260144" lon="6.870697606147455"><ele>252.0</ele><time>2026-05-02T18:49:28Z</time></trkpt><trkpt lat="49.037787831650775" lon="6.870616320206138"><ele>252.0</ele><time>2026-05-02T18:49:29Z</time></trkpt><trkpt lat="49.03785521073147" lon="6.870548277632311"><ele>251.8</ele><time>2026-05-02T18:49:30Z</time></trkpt><trkpt lat="49.03795645170482" lon="6.870447633156616"><ele>251.6</ele><time>2026-05-02T18:49:31Z</time></trkpt><trkpt lat="49.03804814226709" lon="6.870333969272695"><ele>251.40000000000003</ele><time>2026-05-02T18:49:32Z</time></trkpt><trkpt lat="49.03812663245019" lon="6.87026050605206"><ele>251.20000000000002</ele><time>2026-05-02T18:49:33Z</time></trkpt><trkpt lat="49.038186203637174" lon="6.870207464926789"><ele>251.0</ele><time>2026-05-02T18:49:34Z</time></trkpt><trkpt lat="49.03830451883605" lon="6.870078691781812"><ele>250.8</ele><time>2026-05-02T18:49:36Z</time></trkpt><trkpt lat="49.03831955406244" lon="6.869953913773415"><ele>250.60000000000002</ele><time>2026-05-02T18:49:37Z</time></trkpt><trkpt lat="49.038290359832054" lon="6.8698347081882"><ele>250.4</ele><time>2026-05-02T18:49:38Z</time></trkpt><trkpt lat="49.038250983791244" lon="6.8696982722161195"><ele>250.2</ele><time>2026-05-02T18:49:39Z</time></trkpt><trkpt lat="49.0381962862318" lon="6.869512923330498"><ele>250.0</ele><time>2026-05-02T18:49:40Z</time></trkpt><trkpt lat="49.03814751966498" lon="6.869344148815257"><ele>250.5</ele><time>2026-05-02T18:49:41Z</time></trkpt><trkpt lat="49.038107218570886" lon="6.869163535483909"><ele>251.0</ele><time>2026-05-02T18:49:42Z</time></trkpt><trkpt lat="49.0380590402307" lon="6.868961443679309"><ele>251.5</ele><time>2026-05-02T18:49:43Z</time></trkpt><trkpt lat="49.03801474040162" lon="6.868752305693694"><ele>252.0</ele><time>2026-05-02T18:49:44Z</time></trkpt><trkpt lat="49.03797253019741" lon="6.868550166813676"><ele>252.5</ele><time>2026-05-02T18:49:45Z</time></trkpt><trkpt lat="49.03792531645447" lon="6.868349614558495"><ele>253.0</ele><time>2026-05-02T18:49:46Z</time></trkpt><trkpt lat="49.037879204634095" lon="6.868146359169347"><ele>253.5</ele><time>2026-05-02T18:49:47Z</time></trkpt><trkpt lat="49.037834731808616" lon="6.8679384621897945"><ele>254.0</ele><time>2026-05-02T18:49:48Z</time></trkpt><trkpt lat="49.03778821341068" lon="6.867728454587914"><ele>254.66666666666669</ele><time>2026-05-02T18:49:49Z</time></trkpt><trkpt lat="49.037739876978264" lon="6.867510725606594"><ele>255.33333333333331</ele><time>2026-05-02T18:49:50Z</time></trkpt><trkpt lat="49.037689501829625" lon="6.867287972921638"><ele>256.0</ele><time>2026-05-02T18:49:51Z</time></trkpt><trkpt lat="49.037637699223566" lon="6.867063873696001"><ele>256.0</ele><time>2026-05-02T18:49:52Z</time></trkpt><trkpt lat="49.037586827835405" lon="6.866831615730196"><ele>256.0</ele><time>2026-05-02T18:49:53Z</time></trkpt><trkpt lat="49.03753333012743" lon="6.866591192494764"><ele>256.0</ele><time>2026-05-02T18:49:54Z</time></trkpt><trkpt lat="49.037482379747004" lon="6.866370294628919"><ele>257.0</ele><time>2026-05-02T18:49:55Z</time></trkpt><trkpt lat="49.03743404147471" lon="6.8661495554706935"><ele>258.0</ele><time>2026-05-02T18:49:56Z</time></trkpt><trkpt lat="49.03738746735352" lon="6.865947427595257"><ele>259.0</ele><time>2026-05-02T18:49:57Z</time></trkpt><trkpt lat="49.03734533952483" lon="6.865767935387258"><ele>260.0</ele><time>2026-05-02T18:49:58Z</time></trkpt><trkpt lat="49.03730228678146" lon="6.865598340059319"><ele>260.6</ele><time>2026-05-02T18:49:59Z</time></trkpt><trkpt lat="49.037267144610716" lon="6.865432888430565"><ele>261.2</ele><time>2026-05-02T18:50:00Z</time></trkpt><trkpt lat="49.03724742583081" lon="6.865288192342058"><ele>261.8</ele><time>2026-05-02T18:50:01Z</time></trkpt><trkpt lat="49.03720625202056" lon="6.865172789259514"><ele>262.4</ele><time>2026-05-02T18:50:02Z</time></trkpt><trkpt lat="49.03718526705974" lon="6.865070170889684"><ele>263.0</ele><time>2026-05-02T18:50:03Z</time></trkpt><trkpt lat="49.03716050494065" lon="6.864916592172356"><ele>263.75</ele><time>2026-05-02T18:50:05Z</time></trkpt><trkpt lat="49.03712545701136" lon="6.864832164938447"><ele>264.5</ele><time>2026-05-02T18:50:08Z</time></trkpt><trkpt lat="49.03699661393974" lon="6.864820333537849"><ele>265.25</ele><time>2026-05-02T18:50:10Z</time></trkpt><trkpt lat="49.0368675988641" lon="6.864813203774909"><ele>266.0</ele><time>2026-05-02T18:50:11Z</time></trkpt><trkpt lat="49.036726905849356" lon="6.8648163959064785"><ele>266.0</ele><time>2026-05-02T18:50:12Z</time></trkpt><trkpt lat="49.03655385913541" lon="6.864843140786925"><ele>266.0</ele><time>2026-05-02T18:50:13Z</time></trkpt><trkpt lat="49.036365447667215" lon="6.864850462337435"><ele>266.0</ele><time>2026-05-02T18:50:14Z</time></trkpt><trkpt lat="49.03619392131032" lon="6.864855542104416"><ele>266.0</ele><time>2026-05-02T18:50:15Z</time></trkpt><trkpt lat="49.0360481430336" lon="6.86484042920041"><ele>266.0</ele><time>2026-05-02T18:50:16Z</time></trkpt><trkpt lat="49.03591291880576" lon="6.864868515701374"><ele>266.0</ele><time>2026-05-02T18:50:17Z</time></trkpt><trkpt lat="49.03577571774902" lon="6.864872803284743"><ele>266.0</ele><time>2026-05-02T18:50:18Z</time></trkpt><trkpt lat="49.035631379866125" lon="6.864877086982237"><ele>265.0</ele><time>2026-05-02T18:50:19Z</time></trkpt><trkpt lat="49.03549117124734" lon="6.864858128927104"><ele>264.0</ele><time>2026-05-02T18:50:20Z</time></trkpt><trkpt lat="49.03536705495286" lon="6.864884022302102"><ele>263.0</ele><time>2026-05-02T18:50:21Z</time></trkpt><trkpt lat="49.035246591222126" lon="6.864881875627862"><ele>262.0</ele><time>2026-05-02T18:50:22Z</time></trkpt><trkpt lat="49.035132628780495" lon="6.864881266813554"><ele>262.0</ele><time>2026-05-02T18:50:22.999Z</time></trkpt><trkpt lat="49.035030285629475" lon="6.864882980551397"><ele>262.0</ele><time>2026-05-02T18:50:23.999Z</time></trkpt><trkpt lat="49.03493608487697" lon="6.864855467689442"><ele>262.0</ele><time>2026-05-02T18:50:24.999Z</time></trkpt><trkpt lat="49.03485622699804" lon="6.864886215602049"><ele>262.0</ele><time>2026-05-02T18:50:25.999Z</time></trkpt><trkpt lat="49.03477616711105" lon="6.86490143171093"><ele>262.0</ele><time>2026-05-02T18:50:26.999Z</time></trkpt><trkpt lat="49.03472589296893" lon="6.865028352645376"><ele>260.0</ele><time>2026-05-02T18:50:27.999Z</time></trkpt><trkpt lat="49.03466861197333" lon="6.865158233038724"><ele>258.0</ele><time>2026-05-02T18:50:28.999Z</time></trkpt><trkpt lat="49.03460193690036" lon="6.8652859263163855"><ele>256.0</ele><time>2026-05-02T18:50:29.999Z</time></trkpt><trkpt lat="49.03452888955916" lon="6.865434627758008"><ele>254.0</ele><time>2026-05-02T18:50:30.999Z</time></trkpt><trkpt lat="49.03445551918822" lon="6.865583987617059"><ele>254.0</ele><time>2026-05-02T18:50:31.999Z</time></trkpt><trkpt lat="49.034385875862974" lon="6.865723904154337"><ele>254.0</ele><time>2026-05-02T18:50:32.999Z</time></trkpt><trkpt lat="49.03431466017625" lon="6.865859517673211"><ele>254.0</ele><time>2026-05-02T18:50:33.999Z</time></trkpt><trkpt lat="49.03424344246328" lon="6.865983499591404"><ele>254.0</ele><time>2026-05-02T18:50:34.999Z</time></trkpt><trkpt lat="49.03416394060768" lon="6.866115973806487"><ele>252.25</ele><time>2026-05-02T18:50:35.999Z</time></trkpt><trkpt lat="49.03409783782104" lon="6.866260475546299"><ele>250.5</ele><time>2026-05-02T18:50:36.999Z</time></trkpt><trkpt lat="49.034014363552274" lon="6.8663890572699815"><ele>248.75</ele><time>2026-05-02T18:50:37.999Z</time></trkpt><trkpt lat="49.03393551711062" lon="6.866519079341423"><ele>247.0</ele><time>2026-05-02T18:50:38.999Z</time></trkpt><trkpt lat="49.03385678972683" lon="6.8666493106780795"><ele>247.0</ele><time>2026-05-02T18:50:39.999Z</time></trkpt><trkpt lat="49.03377688946187" lon="6.866775811113108"><ele>247.0</ele><time>2026-05-02T18:50:40.999Z</time></trkpt><trkpt lat="49.03369155088409" lon="6.866906213256813"><ele>247.0</ele><time>2026-05-02T18:50:41.999Z</time></trkpt><trkpt lat="49.033509934116275" lon="6.867200357988393"><ele>246.75</ele><time>2026-05-02T18:50:43.999Z</time></trkpt><trkpt lat="49.03341169395063" lon="6.867355912188575"><ele>246.5</ele><time>2026-05-02T18:50:44.999Z</time></trkpt><trkpt lat="49.03331372687611" lon="6.867513879513604"><ele>246.25</ele><time>2026-05-02T18:50:45.999Z</time></trkpt><trkpt lat="49.033209764291215" lon="6.86763983633884"><ele>246.0</ele><time>2026-05-02T18:50:46.999Z</time></trkpt><trkpt lat="49.03310902376235" lon="6.86777686548534"><ele>245.75</ele><time>2026-05-02T18:50:47.999Z</time></trkpt><trkpt lat="49.033005873118576" lon="6.86791188963831"><ele>245.5</ele><time>2026-05-02T18:50:48.999Z</time></trkpt><trkpt lat="49.03290519527116" lon="6.868042042788677"><ele>245.25</ele><time>2026-05-02T18:50:49.999Z</time></trkpt><trkpt lat="49.03280177797011" lon="6.8681754466775615"><ele>245.0</ele><time>2026-05-02T18:50:50.999Z</time></trkpt><trkpt lat="49.032705055153016" lon="6.868300215156304"><ele>245.5</ele><time>2026-05-02T18:50:51.999Z</time></trkpt><trkpt lat="49.032613116267136" lon="6.868447382393773"><ele>246.0</ele><time>2026-05-02T18:50:52.999Z</time></trkpt><trkpt lat="49.03251140097343" lon="6.868586264444412"><ele>246.5</ele><time>2026-05-02T18:50:53.999Z</time></trkpt><trkpt lat="49.032415768282675" lon="6.868710240289814"><ele>247.0</ele><time>2026-05-02T18:50:55Z</time></trkpt><trkpt lat="49.03232606352453" lon="6.868832882180442"><ele>247.0</ele><time>2026-05-02T18:50:56Z</time></trkpt><trkpt lat="49.0322345273903" lon="6.868958575360835"><ele>247.0</ele><time>2026-05-02T18:50:57Z</time></trkpt><trkpt lat="49.03216242841461" lon="6.8690935155232244"><ele>247.0</ele><time>2026-05-02T18:50:58Z</time></trkpt><trkpt lat="49.032102049702296" lon="6.8692395162435"><ele>247.0</ele><time>2026-05-02T18:50:59Z</time></trkpt><trkpt lat="49.03204126833201" lon="6.869388795784615"><ele>246.8</ele><time>2026-05-02T18:51:00Z</time></trkpt><trkpt lat="49.03196663856724" lon="6.869501771073613"><ele>246.6</ele><time>2026-05-02T18:51:01Z</time></trkpt><trkpt lat="49.03191880508287" lon="6.869636930486815"><ele>246.40000000000003</ele><time>2026-05-02T18:51:02Z</time></trkpt><trkpt lat="49.031854767122006" lon="6.869762685606883"><ele>246.20000000000002</ele><time>2026-05-02T18:51:03Z</time></trkpt><trkpt lat="49.031794229609886" lon="6.8699003740759625"><ele>246.0</ele><time>2026-05-02T18:51:04Z</time></trkpt><trkpt lat="49.031746941676346" lon="6.870066824656597"><ele>245.75</ele><time>2026-05-02T18:51:05Z</time></trkpt><trkpt lat="49.03169268467099" lon="6.870240351510466"><ele>245.5</ele><time>2026-05-02T18:51:06Z</time></trkpt><trkpt lat="49.0316401687293" lon="6.870414968062108"><ele>245.25</ele><time>2026-05-02T18:51:07Z</time></trkpt><trkpt lat="49.031582240207165" lon="6.870566384804581"><ele>245.0</ele><time>2026-05-02T18:51:08Z</time></trkpt><trkpt lat="49.031553562766625" lon="6.870711019320908"><ele>244.4</ele><time>2026-05-02T18:51:09Z</time></trkpt><trkpt lat="49.031501145519364" lon="6.8708098383076"><ele>243.8</ele><time>2026-05-02T18:51:10Z</time></trkpt><trkpt lat="49.03144045884989" lon="6.87095240223898"><ele>243.2</ele><time>2026-05-02T18:51:12Z</time></trkpt><trkpt lat="49.0313986414234" lon="6.871045446014447"><ele>242.6</ele><time>2026-05-02T18:51:14Z</time></trkpt><trkpt lat="49.03130821129142" lon="6.870928406233488"><ele>242.0</ele><time>2026-05-02T18:51:15Z</time></trkpt><trkpt lat="49.031228879753556" lon="6.870901421652865"><ele>242.0</ele><time>2026-05-02T18:51:16Z</time></trkpt><trkpt lat="49.03113579489481" lon="6.870826331712088"><ele>242.0</ele><time>2026-05-02T18:51:17Z</time></trkpt><trkpt lat="49.03102755087249" lon="6.870754631940778"><ele>242.0</ele><time>2026-05-02T18:51:18Z</time></trkpt><trkpt lat="49.030919830784555" lon="6.870699205922024"><ele>242.0</ele><time>2026-05-02T18:51:19Z</time></trkpt><trkpt lat="49.03081873137984" lon="6.87062835408492"><ele>242.0</ele><time>2026-05-02T18:51:20Z</time></trkpt><trkpt lat="49.030724420942875" lon="6.8705601961737255"><ele>241.2</ele><time>2026-05-02T18:51:21Z</time></trkpt><trkpt lat="49.030634409913354" lon="6.870499255269932"><ele>240.39999999999998</ele><time>2026-05-02T18:51:22Z</time></trkpt><trkpt lat="49.03054734604922" lon="6.870434400988106"><ele>239.60000000000002</ele><time>2026-05-02T18:51:23Z</time></trkpt><trkpt lat="49.030463790975496" lon="6.870376515427592"><ele>238.8</ele><time>2026-05-02T18:51:24Z</time></trkpt><trkpt lat="49.03038521510309" lon="6.870329423624318"><ele>238.0</ele><time>2026-05-02T18:51:25Z</time></trkpt><trkpt lat="49.03031354152328" lon="6.8702809992728415"><ele>238.0</ele><time>2026-05-02T18:51:26Z</time></trkpt><trkpt lat="49.030222905855894" lon="6.8702269138545935"><ele>238.0</ele><time>2026-05-02T18:51:28Z</time></trkpt><trkpt lat="49.03011881815171" lon="6.8703209045349"><ele>238.0</ele><time>2026-05-02T18:51:31Z</time></trkpt><trkpt lat="49.03007297155394" lon="6.870425001565368"><ele>238.0</ele><time>2026-05-02T18:51:32Z</time></trkpt><trkpt lat="49.030000885500655" lon="6.870534754270851"><ele>238.0</ele><time>2026-05-02T18:51:33Z</time></trkpt><trkpt lat="49.02994197092815" lon="6.87064966214787"><ele>237.5</ele><time>2026-05-02T18:51:34Z</time></trkpt><trkpt lat="49.02989031010904" lon="6.8707882303832895"><ele>237.0</ele><time>2026-05-02T18:51:35Z</time></trkpt><trkpt lat="49.029814102079825" lon="6.870934018983142"><ele>236.5</ele><time>2026-05-02T18:51:36Z</time></trkpt><trkpt lat="49.02973801199508" lon="6.871071624792823"><ele>236.0</ele><time>2026-05-02T18:51:37Z</time></trkpt><trkpt lat="49.0296686647261" lon="6.871218455507274"><ele>236.0</ele><time>2026-05-02T18:51:38Z</time></trkpt><trkpt lat="49.02959548797396" lon="6.87136616565324"><ele>236.0</ele><time>2026-05-02T18:51:39Z</time></trkpt><trkpt lat="49.029520391710605" lon="6.871514085813821"><ele>236.0</ele><time>2026-05-02T18:51:40Z</time></trkpt><trkpt lat="49.029447670600916" lon="6.871665830235176"><ele>236.0</ele><time>2026-05-02T18:51:41Z</time></trkpt><trkpt lat="49.02937491039727" lon="6.871819646070057"><ele>235.75</ele><time>2026-05-02T18:51:42Z</time></trkpt><trkpt lat="49.029299199114526" lon="6.871976107418982"><ele>235.5</ele><time>2026-05-02T18:51:43Z</time></trkpt><trkpt lat="49.02923560423877" lon="6.8721546002664065"><ele>235.25</ele><time>2026-05-02T18:51:44Z</time></trkpt><trkpt lat="49.029179716973154" lon="6.872329805674369"><ele>235.0</ele><time>2026-05-02T18:51:45Z</time></trkpt><trkpt lat="49.029130340843324" lon="6.8725004568650965"><ele>233.75</ele><time>2026-05-02T18:51:46Z</time></trkpt><trkpt lat="49.02908232575497" lon="6.872668415922137"><ele>232.5</ele><time>2026-05-02T18:51:47Z</time></trkpt><trkpt lat="49.02900566591216" lon="6.8728113354553235"><ele>231.25</ele><time>2026-05-02T18:51:48Z</time></trkpt><trkpt lat="49.02891788649632" lon="6.8729547972779255"><ele>230.0</ele><time>2026-05-02T18:51:49Z</time></trkpt><trkpt lat="49.02880765248142" lon="6.873063771968967"><ele>230.0</ele><time>2026-05-02T18:51:50Z</time></trkpt><trkpt lat="49.02868209669959" lon="6.873160081962375"><ele>230.0</ele><time>2026-05-02T18:51:51Z</time></trkpt><trkpt lat="49.028556104043986" lon="6.873265962541914"><ele>230.0</ele><time>2026-05-02T18:51:52Z</time></trkpt><trkpt lat="49.02845173909603" lon="6.873389933571949"><ele>230.0</ele><time>2026-05-02T18:51:53Z</time></trkpt><trkpt lat="49.02836445433063" lon="6.87353699457992"><ele>229.0</ele><time>2026-05-02T18:51:54Z</time></trkpt><trkpt lat="49.028298365053566" lon="6.873725839142403"><ele>228.0</ele><time>2026-05-02T18:51:55Z</time></trkpt><trkpt lat="49.02825054751641" lon="6.873946320507307"><ele>227.0</ele><time>2026-05-02T18:51:56Z</time></trkpt><trkpt lat="49.02820714114326" lon="6.874173099719144"><ele>226.0</ele><time>2026-05-02T18:51:57Z</time></trkpt><trkpt lat="49.02817420025898" lon="6.874408070251693"><ele>226.0</ele><time>2026-05-02T18:51:58Z</time></trkpt><trkpt lat="49.028150206754944" lon="6.874623031120131"><ele>226.0</ele><time>2026-05-02T18:51:59Z</time></trkpt><trkpt lat="49.02812901630802" lon="6.87482012581427"><ele>226.0</ele><time>2026-05-02T18:52:00Z</time></trkpt><trkpt lat="49.02806333655774" lon="6.8749817853404265"><ele>226.0</ele><time>2026-05-02T18:52:01Z</time></trkpt><trkpt lat="49.02798270462013" lon="6.8751313515252646"><ele>226.0</ele><time>2026-05-02T18:52:02Z</time></trkpt><trkpt lat="49.02788364946004" lon="6.875290132998707"><ele>226.0</ele><time>2026-05-02T18:52:03Z</time></trkpt><trkpt lat="49.0277932472298" lon="6.875463762738951"><ele>226.0</ele><time>2026-05-02T18:52:04Z</time></trkpt><trkpt lat="49.027728024682595" lon="6.8756410275562905"><ele>226.0</ele><time>2026-05-02T18:52:05Z</time></trkpt><trkpt lat="49.02763488723206" lon="6.87578360981399"><ele>226.0</ele><time>2026-05-02T18:52:06Z</time></trkpt><trkpt lat="49.02755965197423" lon="6.875917948583006"><ele>226.0</ele><time>2026-05-02T18:52:07Z</time></trkpt><trkpt lat="49.027491667010544" lon="6.876057289283559"><ele>226.0</ele><time>2026-05-02T18:52:08Z</time></trkpt><trkpt lat="49.027430916861604" lon="6.876237364124182"><ele>226.0</ele><time>2026-05-02T18:52:09Z</time></trkpt><trkpt lat="49.02736832558577" lon="6.8764089145756175"><ele>226.0</ele><time>2026-05-02T18:52:10Z</time></trkpt><trkpt lat="49.027318224272484" lon="6.876572235761427"><ele>226.0</ele><time>2026-05-02T18:52:11Z</time></trkpt><trkpt lat="49.02724733541606" lon="6.8767192967436985"><ele>226.0</ele><time>2026-05-02T18:52:12Z</time></trkpt><trkpt lat="49.02719210203716" lon="6.87687371458895"><ele>226.0</ele><time>2026-05-02T18:52:13Z</time></trkpt><trkpt lat="49.02713611598045" lon="6.877032240711623"><ele>225.75</ele><time>2026-05-02T18:52:14Z</time></trkpt><trkpt lat="49.02708080560566" lon="6.877188853635589"><ele>225.5</ele><time>2026-05-02T18:52:15Z</time></trkpt><trkpt lat="49.02702547985988" lon="6.87734233363707"><ele>225.25</ele><time>2026-05-02T18:52:16Z</time></trkpt><trkpt lat="49.02697203113538" lon="6.877488939003523"><ele>225.0</ele><time>2026-05-02T18:52:17Z</time></trkpt><trkpt lat="49.02692990812424" lon="6.877653515213505"><ele>225.5</ele><time>2026-05-02T18:52:18Z</time></trkpt><trkpt lat="49.02686122072317" lon="6.877819642525763"><ele>226.0</ele><time>2026-05-02T18:52:19Z</time></trkpt><trkpt lat="49.026800503456045" lon="6.878002396097775"><ele>226.5</ele><time>2026-05-02T18:52:20Z</time></trkpt><trkpt lat="49.02673834785984" lon="6.878186250317897"><ele>227.0</ele><time>2026-05-02T18:52:21Z</time></trkpt><trkpt lat="49.02666931945434" lon="6.878367672800202"><ele>226.5</ele><time>2026-05-02T18:52:22Z</time></trkpt><trkpt lat="49.02660708743909" lon="6.878546037283678"><ele>226.0</ele><time>2026-05-02T18:52:23Z</time></trkpt><trkpt lat="49.026550838423546" lon="6.878710052731434"><ele>225.5</ele><time>2026-05-02T18:52:24Z</time></trkpt><trkpt lat="49.026499155638675" lon="6.878870122730594"><ele>225.0</ele><time>2026-05-02T18:52:25Z</time></trkpt><trkpt lat="49.02644241931321" lon="6.87903414164406"><ele>225.0</ele><time>2026-05-02T18:52:26Z</time></trkpt><trkpt lat="49.026411515741515" lon="6.879199569172044"><ele>225.0</ele><time>2026-05-02T18:52:27Z</time></trkpt><trkpt lat="49.02638338825113" lon="6.879362507549279"><ele>225.0</ele><time>2026-05-02T18:52:28Z</time></trkpt><trkpt lat="49.02634562513428" lon="6.879530060412222"><ele>225.0</ele><time>2026-05-02T18:52:29Z</time></trkpt><trkpt lat="49.026301521858066" lon="6.879694200067683"><ele>225.0</ele><time>2026-05-02T18:52:30Z</time></trkpt><trkpt lat="49.02624381262041" lon="6.879847031037122"><ele>225.0</ele><time>2026-05-02T18:52:31Z</time></trkpt><trkpt lat="49.02616648612871" lon="6.879995344814143"><ele>225.0</ele><time>2026-05-02T18:52:32Z</time></trkpt><trkpt lat="49.026063618345795" lon="6.880112519517872"><ele>225.0</ele><time>2026-05-02T18:52:33Z</time></trkpt><trkpt lat="49.0259556114461" lon="6.880242656962832"><ele>225.0</ele><time>2026-05-02T18:52:34Z</time></trkpt><trkpt lat="49.02584710938673" lon="6.880396898716822"><ele>225.0</ele><time>2026-05-02T18:52:35Z</time></trkpt><trkpt lat="49.025731643296595" lon="6.880537724001149"><ele>225.0</ele><time>2026-05-02T18:52:36Z</time></trkpt><trkpt lat="49.025622818113376" lon="6.880677232636818"><ele>225.0</ele><time>2026-05-02T18:52:37Z</time></trkpt><trkpt lat="49.02552995378222" lon="6.880829679173989"><ele>224.8</ele><time>2026-05-02T18:52:38Z</time></trkpt><trkpt lat="49.02544437412433" lon="6.880980400688271"><ele>224.6</ele><time>2026-05-02T18:52:39Z</time></trkpt><trkpt lat="49.025366531099756" lon="6.881119239876284"><ele>224.39999999999998</ele><time>2026-05-02T18:52:39.999Z</time></trkpt><trkpt lat="49.02530229957379" lon="6.881232444212359"><ele>224.2</ele><time>2026-05-02T18:52:40.999Z</time></trkpt><trkpt lat="49.025247528700866" lon="6.881319600027446"><ele>224.0</ele><time>2026-05-02T18:52:41.999Z</time></trkpt><trkpt lat="49.025203244011436" lon="6.881399080854872"><ele>224.0</ele><time>2026-05-02T18:52:42.999Z</time></trkpt><trkpt lat="49.025140836371094" lon="6.8815101242464625"><ele>223.99999999999997</ele><time>2026-05-02T18:52:44.999Z</time></trkpt><trkpt lat="49.02509051630086" lon="6.881677278355782"><ele>223.99999999999997</ele><time>2026-05-02T18:53:15Z</time></trkpt><trkpt lat="49.0250649912408" lon="6.881766740480132"><ele>224.0</ele><time>2026-05-02T18:53:16Z</time></trkpt><trkpt lat="49.0250194095382" lon="6.8818803845048295"><ele>224.0</ele><time>2026-05-02T18:53:17Z</time></trkpt><trkpt lat="49.02495372294124" lon="6.881990426529893"><ele>224.0</ele><time>2026-05-02T18:53:18Z</time></trkpt><trkpt lat="49.02488997072766" lon="6.882101429390208"><ele>224.0</ele><time>2026-05-02T18:53:19Z</time></trkpt><trkpt lat="49.024818193179335" lon="6.88223077252141"><ele>224.0</ele><time>2026-05-02T18:53:20Z</time></trkpt><trkpt lat="49.024741191058325" lon="6.882380278281171"><ele>224.0</ele><time>2026-05-02T18:53:21Z</time></trkpt><trkpt lat="49.02465381301218" lon="6.882541113161539"><ele>224.25</ele><time>2026-05-02T18:53:22Z</time></trkpt><trkpt lat="49.02457164879167" lon="6.882698343013578"><ele>224.5</ele><time>2026-05-02T18:53:23Z</time></trkpt><trkpt lat="49.024488539987786" lon="6.882854339890089"><ele>224.75</ele><time>2026-05-02T18:53:24Z</time></trkpt><trkpt lat="49.02440297043512" lon="6.883017883690694"><ele>225.0</ele><time>2026-05-02T18:53:25Z</time></trkpt><trkpt lat="49.02431748468583" lon="6.883185434011759"><ele>225.0</ele><time>2026-05-02T18:53:26Z</time></trkpt><trkpt lat="49.02423023957245" lon="6.883345887034144"><ele>225.0</ele><time>2026-05-02T18:53:27Z</time></trkpt><trkpt lat="49.02414553421982" lon="6.88350599038786"><ele>225.0</ele><time>2026-05-02T18:53:28Z</time></trkpt><trkpt lat="49.02405811058457" lon="6.883659087116887"><ele>225.0</ele><time>2026-05-02T18:53:29Z</time></trkpt><trkpt lat="49.0239752443549" lon="6.883813033501417"><ele>225.0</ele><time>2026-05-02T18:53:30Z</time></trkpt><trkpt lat="49.02389572444689" lon="6.883968726901824"><ele>225.0</ele><time>2026-05-02T18:53:31Z</time></trkpt><trkpt lat="49.02381593356487" lon="6.884121054958168"><ele>225.0</ele><time>2026-05-02T18:53:32Z</time></trkpt><trkpt lat="49.023730551989686" lon="6.8842758832763815"><ele>225.0</ele><time>2026-05-02T18:53:33Z</time></trkpt><trkpt lat="49.02364504728782" lon="6.8844410619738685"><ele>225.5</ele><time>2026-05-02T18:53:34Z</time></trkpt><trkpt lat="49.0235651811512" lon="6.8846076096536235"><ele>226.0</ele><time>2026-05-02T18:53:35Z</time></trkpt><trkpt lat="49.02349896771954" lon="6.884791441228256"><ele>226.5</ele><time>2026-05-02T18:53:36Z</time></trkpt><trkpt lat="49.02344761174556" lon="6.884987644277275"><ele>227.0</ele><time>2026-05-02T18:53:37Z</time></trkpt><trkpt lat="49.02341422152811" lon="6.885192436445367"><ele>227.0</ele><time>2026-05-02T18:53:38Z</time></trkpt><trkpt lat="49.023367328380644" lon="6.885384246621339"><ele>227.0</ele><time>2026-05-02T18:53:39Z</time></trkpt><trkpt lat="49.023303596918694" lon="6.885559757113964"><ele>227.0</ele><time>2026-05-02T18:53:40Z</time></trkpt><trkpt lat="49.023213158819914" lon="6.885711588708157"><ele>227.0</ele><time>2026-05-02T18:53:41Z</time></trkpt><trkpt lat="49.023139402639835" lon="6.885886458245559"><ele>226.25</ele><time>2026-05-02T18:53:42Z</time></trkpt><trkpt lat="49.023050564256735" lon="6.886052534227714"><ele>225.5</ele><time>2026-05-02T18:53:43Z</time></trkpt><trkpt lat="49.02295496772516" lon="6.88621968248208"><ele>224.75</ele><time>2026-05-02T18:53:44Z</time></trkpt><trkpt lat="49.02286473538654" lon="6.8863817495544195"><ele>224.0</ele><time>2026-05-02T18:53:45Z</time></trkpt><trkpt lat="49.02277146586442" lon="6.886545197343004"><ele>224.0</ele><time>2026-05-02T18:53:46Z</time></trkpt><trkpt lat="49.02267303806689" lon="6.886697978213576"><ele>224.0</ele><time>2026-05-02T18:53:47Z</time></trkpt><trkpt lat="49.02256668587523" lon="6.886843323848323"><ele>224.0</ele><time>2026-05-02T18:53:48Z</time></trkpt><trkpt lat="49.022454054259" lon="6.886985469617659"><ele>224.0</ele><time>2026-05-02T18:53:49Z</time></trkpt><trkpt lat="49.02233951097451" lon="6.887126164890018"><ele>223.75</ele><time>2026-05-02T18:53:50Z</time></trkpt><trkpt lat="49.022222003530054" lon="6.8872597266254205"><ele>223.5</ele><time>2026-05-02T18:53:51Z</time></trkpt><trkpt lat="49.02210805023185" lon="6.887377588484636"><ele>223.25</ele><time>2026-05-02T18:53:52Z</time></trkpt><trkpt lat="49.021998990100286" lon="6.887487477228075"><ele>223.0</ele><time>2026-05-02T18:53:53Z</time></trkpt><trkpt lat="49.02188527460533" lon="6.887578807066082"><ele>223.5</ele><time>2026-05-02T18:53:54Z</time></trkpt><trkpt lat="49.0217583294627" lon="6.887628743768768"><ele>224.0</ele><time>2026-05-02T18:53:55Z</time></trkpt><trkpt lat="49.02163977803436" lon="6.887653648967259"><ele>224.5</ele><time>2026-05-02T18:53:56Z</time></trkpt><trkpt lat="49.0215238918631" lon="6.887639969956631"><ele>225.0</ele><time>2026-05-02T18:53:57Z</time></trkpt><trkpt lat="49.02141549361123" lon="6.887609219898584"><ele>225.0</ele><time>2026-05-02T18:53:58Z</time></trkpt><trkpt lat="49.021297883130806" lon="6.887537412177661"><ele>225.0</ele><time>2026-05-02T18:53:59Z</time></trkpt><trkpt lat="49.02120355989828" lon="6.887395126288639"><ele>225.0</ele><time>2026-05-02T18:54:00Z</time></trkpt><trkpt lat="49.02110968342378" lon="6.887243009113664"><ele>225.0</ele><time>2026-05-02T18:54:01Z</time></trkpt><trkpt lat="49.02101356569463" lon="6.887100775590935"><ele>225.0</ele><time>2026-05-02T18:54:02Z</time></trkpt><trkpt lat="49.0209280677786" lon="6.88697506317949"><ele>225.0</ele><time>2026-05-02T18:54:03Z</time></trkpt><trkpt lat="49.020824503775046" lon="6.886885604610499"><ele>225.0</ele><time>2026-05-02T18:54:04Z</time></trkpt><trkpt lat="49.0207004027267" lon="6.886831241722546"><ele>225.0</ele><time>2026-05-02T18:54:05Z</time></trkpt><trkpt lat="49.02056503070577" lon="6.886798376167316"><ele>224.0</ele><time>2026-05-02T18:54:06Z</time></trkpt><trkpt lat="49.020420463365355" lon="6.886783474869532"><ele>223.0</ele><time>2026-05-02T18:54:07Z</time></trkpt><trkpt lat="49.02026587561534" lon="6.886795417223993"><ele>222.0</ele><time>2026-05-02T18:54:08Z</time></trkpt><trkpt lat="49.02009912776153" lon="6.886824730911581"><ele>222.33333333333331</ele><time>2026-05-02T18:54:09Z</time></trkpt><trkpt lat="49.01991828759168" lon="6.886867892968516"><ele>222.66666666666666</ele><time>2026-05-02T18:54:10Z</time></trkpt><trkpt lat="49.019729981295455" lon="6.886917329757065"><ele>223.0</ele><time>2026-05-02T18:54:11Z</time></trkpt><trkpt lat="49.01953496826296" lon="6.8869699451951405"><ele>223.0</ele><time>2026-05-02T18:54:12Z</time></trkpt><trkpt lat="49.019336817254946" lon="6.887020100564349"><ele>223.0</ele><time>2026-05-02T18:54:13Z</time></trkpt><trkpt lat="49.019142100858105" lon="6.88707577596642"><ele>223.0</ele><time>2026-05-02T18:54:14Z</time></trkpt><trkpt lat="49.01895089009493" lon="6.88714557600355"><ele>223.66666666666666</ele><time>2026-05-02T18:54:15Z</time></trkpt><trkpt lat="49.018762782442764" lon="6.887245876433127"><ele>224.33333333333331</ele><time>2026-05-02T18:54:16Z</time></trkpt><trkpt lat="49.01857922039347" lon="6.887386619529911"><ele>225.0</ele><time>2026-05-02T18:54:17Z</time></trkpt><trkpt lat="49.018402022108155" lon="6.887556439412106"><ele>228.0</ele><time>2026-05-02T18:54:18Z</time></trkpt><trkpt lat="49.018231978978235" lon="6.887749853352857"><ele>231.0</ele><time>2026-05-02T18:54:19Z</time></trkpt><trkpt lat="49.018071855573986" lon="6.887959478043963"><ele>234.0</ele><time>2026-05-02T18:54:20Z</time></trkpt><trkpt lat="49.01791652629336" lon="6.8881759032974035"><ele>234.0</ele><time>2026-05-02T18:54:21Z</time></trkpt><trkpt lat="49.01776295390987" lon="6.888385201216173"><ele>234.0</ele><time>2026-05-02T18:54:22Z</time></trkpt><trkpt lat="49.017614064708894" lon="6.888585142573294"><ele>234.0</ele><time>2026-05-02T18:54:23Z</time></trkpt><trkpt lat="49.01746861890369" lon="6.888778915564572"><ele>236.33333333333331</ele><time>2026-05-02T18:54:24Z</time></trkpt><trkpt lat="49.017329977780825" lon="6.888956427884489"><ele>238.66666666666666</ele><time>2026-05-02T18:54:25Z</time></trkpt><trkpt lat="49.01717956821319" lon="6.889082728216396"><ele>241.0</ele><time>2026-05-02T18:54:26Z</time></trkpt><trkpt lat="49.01703934327656" lon="6.889244341661718"><ele>241.33333333333331</ele><time>2026-05-02T18:54:27Z</time></trkpt><trkpt lat="49.016885455901786" lon="6.889380133220622"><ele>241.66666666666669</ele><time>2026-05-02T18:54:28Z</time></trkpt><trkpt lat="49.01675358129371" lon="6.889514585565194"><ele>242.0</ele><time>2026-05-02T18:54:29Z</time></trkpt><trkpt lat="49.01664418580021" lon="6.889680785493889"><ele>241.0</ele><time>2026-05-02T18:54:30Z</time></trkpt><trkpt lat="49.0165620943158" lon="6.889888585485173"><ele>240.0</ele><time>2026-05-02T18:54:31Z</time></trkpt><trkpt lat="49.01651174984467" lon="6.890132105874136"><ele>239.0</ele><time>2026-05-02T18:54:32Z</time></trkpt><trkpt lat="49.016495872338474" lon="6.890399740885916"><ele>239.0</ele><time>2026-05-02T18:54:33Z</time></trkpt><trkpt lat="49.01651828353032" lon="6.89066828433238"><ele>239.0</ele><time>2026-05-02T18:54:33.999Z</time></trkpt><trkpt lat="49.01654684691938" lon="6.890924224050034"><ele>239.0</ele><time>2026-05-02T18:54:34.999Z</time></trkpt><trkpt lat="49.01654742048359" lon="6.891162162508492"><ele>238.66666666666669</ele><time>2026-05-02T18:54:35.999Z</time></trkpt><trkpt lat="49.016515450546876" lon="6.891390494001513"><ele>238.33333333333331</ele><time>2026-05-02T18:54:36.999Z</time></trkpt><trkpt lat="49.016431503839485" lon="6.8916027056929385"><ele>238.0</ele><time>2026-05-02T18:54:37.999Z</time></trkpt><trkpt lat="49.016322428647335" lon="6.891800120064157"><ele>237.33333333333331</ele><time>2026-05-02T18:54:38.999Z</time></trkpt><trkpt lat="49.01617971897452" lon="6.891980513446526"><ele>236.66666666666669</ele><time>2026-05-02T18:54:39.999Z</time></trkpt><trkpt lat="49.01602073816268" lon="6.892173655598714"><ele>236.0</ele><time>2026-05-02T18:54:40.999Z</time></trkpt><trkpt lat="49.01586327112153" lon="6.892378308594136"><ele>236.33333333333334</ele><time>2026-05-02T18:54:41.999Z</time></trkpt><trkpt lat="49.015694671916286" lon="6.892569220964086"><ele>236.66666666666669</ele><time>2026-05-02T18:54:42.999Z</time></trkpt><trkpt lat="49.01552664536309" lon="6.892761538310237"><ele>237.0</ele><time>2026-05-02T18:54:43.999Z</time></trkpt><trkpt lat="49.015355084801875" lon="6.892951028670115"><ele>237.0</ele><time>2026-05-02T18:54:44.999Z</time></trkpt><trkpt lat="49.0151795645392" lon="6.893131325594978"><ele>237.0</ele><time>2026-05-02T18:54:45.999Z</time></trkpt><trkpt lat="49.01500093763456" lon="6.893297669487637"><ele>237.0</ele><time>2026-05-02T18:54:46.999Z</time></trkpt><trkpt lat="49.014822619210804" lon="6.893451980631434"><ele>236.66666666666669</ele><time>2026-05-02T18:54:47.999Z</time></trkpt><trkpt lat="49.01464616220078" lon="6.893598227964398"><ele>236.33333333333334</ele><time>2026-05-02T18:54:48.999Z</time></trkpt><trkpt lat="49.01447661846807" lon="6.893741017565971"><ele>236.0</ele><time>2026-05-02T18:54:49.999Z</time></trkpt><trkpt lat="49.01430707577161" lon="6.893886759252174"><ele>234.66666666666669</ele><time>2026-05-02T18:54:50.999Z</time></trkpt><trkpt lat="49.01413553525709" lon="6.894031391772832"><ele>233.33333333333331</ele><time>2026-05-02T18:54:51.999Z</time></trkpt><trkpt lat="49.01396231934884" lon="6.894172564098008"><ele>232.0</ele><time>2026-05-02T18:54:52.999Z</time></trkpt><trkpt lat="49.01378857202015" lon="6.894313073592278"><ele>232.0</ele><time>2026-05-02T18:54:53.999Z</time></trkpt><trkpt lat="49.01362223863791" lon="6.894442887767894"><ele>232.0</ele><time>2026-05-02T18:54:54.999Z</time></trkpt><trkpt lat="49.01346552889419" lon="6.894560329499466"><ele>232.0</ele><time>2026-05-02T18:54:55.999Z</time></trkpt><trkpt lat="49.01331379834495" lon="6.894680114459235"><ele>232.0</ele><time>2026-05-02T18:54:56.999Z</time></trkpt><trkpt lat="49.013167001775514" lon="6.8947972586796915"><ele>232.0</ele><time>2026-05-02T18:54:57.999Z</time></trkpt><trkpt lat="49.01303097965435" lon="6.8949213134107294"><ele>232.0</ele><time>2026-05-02T18:54:58.999Z</time></trkpt><trkpt lat="49.012915324933154" lon="6.895080451636373"><ele>232.33333333333331</ele><time>2026-05-02T18:54:59.999Z</time></trkpt><trkpt lat="49.012820212363835" lon="6.895278619724709"><ele>232.66666666666669</ele><time>2026-05-02T18:55:00.999Z</time></trkpt><trkpt lat="49.01275556731" lon="6.895509888437399"><ele>233.0</ele><time>2026-05-02T18:55:01.999Z</time></trkpt><trkpt lat="49.0127389812758" lon="6.895769644620155"><ele>234.33333333333334</ele><time>2026-05-02T18:55:02.999Z</time></trkpt><trkpt lat="49.012735978765896" lon="6.896029986198197"><ele>235.66666666666669</ele><time>2026-05-02T18:55:03.999Z</time></trkpt><trkpt lat="49.01271460680707" lon="6.896281622125737"><ele>237.0</ele><time>2026-05-02T18:55:04.999Z</time></trkpt><trkpt lat="49.01267001146173" lon="6.89650235202516"><ele>237.0</ele><time>2026-05-02T18:55:05.999Z</time></trkpt><trkpt lat="49.01258964675354" lon="6.896697655372593"><ele>237.0</ele><time>2026-05-02T18:55:07Z</time></trkpt><trkpt lat="49.01246634392945" lon="6.896865103904272"><ele>237.0</ele><time>2026-05-02T18:55:08Z</time></trkpt><trkpt lat="49.0123153575072" lon="6.897033835440714"><ele>236.33333333333331</ele><time>2026-05-02T18:55:09Z</time></trkpt><trkpt lat="49.01216350403923" lon="6.8972185511773825"><ele>235.66666666666666</ele><time>2026-05-02T18:55:10Z</time></trkpt><trkpt lat="49.01200167044934" lon="6.897371369728466"><ele>235.0</ele><time>2026-05-02T18:55:11Z</time></trkpt><trkpt lat="49.01186102034842" lon="6.897546598771402"><ele>235.0</ele><time>2026-05-02T18:55:12Z</time></trkpt><trkpt lat="49.011751528643174" lon="6.897743711642463"><ele>235.0</ele><time>2026-05-02T18:55:13Z</time></trkpt><trkpt lat="49.0116677184459" lon="6.8979543571034485"><ele>235.0</ele><time>2026-05-02T18:55:14Z</time></trkpt><trkpt lat="49.011583867140466" lon="6.898152157725702"><ele>234.0</ele><time>2026-05-02T18:55:15Z</time></trkpt><trkpt lat="49.011473572624006" lon="6.898309325071168"><ele>233.0</ele><time>2026-05-02T18:55:16Z</time></trkpt><trkpt lat="49.011319828017285" lon="6.898393305386711"><ele>232.0</ele><time>2026-05-02T18:55:17Z</time></trkpt><trkpt lat="49.01097300847503" lon="6.898486549322071"><ele>231.66666666666666</ele><time>2026-05-02T18:55:19Z</time></trkpt><trkpt lat="49.01078459975588" lon="6.898542386371776"><ele>231.33333333333331</ele><time>2026-05-02T18:55:20Z</time></trkpt><trkpt lat="49.01059492681024" lon="6.898573919512321"><ele>231.0</ele><time>2026-05-02T18:55:21Z</time></trkpt><trkpt lat="49.0104153606983" lon="6.8986329059716"><ele>231.0</ele><time>2026-05-02T18:55:22Z</time></trkpt><trkpt lat="49.010240662098" lon="6.8987214103254235"><ele>231.0</ele><time>2026-05-02T18:55:23Z</time></trkpt><trkpt lat="49.01006821773997" lon="6.8988410862039915"><ele>231.0</ele><time>2026-05-02T18:55:24Z</time></trkpt><trkpt lat="49.00989918925715" lon="6.898981840124788"><ele>231.0</ele><time>2026-05-02T18:55:25Z</time></trkpt><trkpt lat="49.009729408159586" lon="6.899127688022906"><ele>231.0</ele><time>2026-05-02T18:55:26Z</time></trkpt><trkpt lat="49.00955738051816" lon="6.899264866356855"><ele>231.0</ele><time>2026-05-02T18:55:27Z</time></trkpt><trkpt lat="49.00939252266901" lon="6.899393763556403"><ele>231.0</ele><time>2026-05-02T18:55:28Z</time></trkpt><trkpt lat="49.009234633439625" lon="6.899519450199606"><ele>231.0</ele><time>2026-05-02T18:55:29Z</time></trkpt><trkpt lat="49.009077422882186" lon="6.899649383483232"><ele>231.0</ele><time>2026-05-02T18:55:30Z</time></trkpt><trkpt lat="49.00892695642503" lon="6.899792934626929"><ele>231.0</ele><time>2026-05-02T18:55:31Z</time></trkpt><trkpt lat="49.008789753062274" lon="6.899953813222149"><ele>231.0</ele><time>2026-05-02T18:55:32Z</time></trkpt><trkpt lat="49.00866512254853" lon="6.900119564451039"><ele>231.0</ele><time>2026-05-02T18:55:33Z</time></trkpt><trkpt lat="49.0085592371707" lon="6.900278329350498"><ele>231.0</ele><time>2026-05-02T18:55:34Z</time></trkpt><trkpt lat="49.00847182866336" lon="6.900422999996049"><ele>231.00000000000003</ele><time>2026-05-02T18:55:35Z</time></trkpt><trkpt lat="49.00841034258254" lon="6.900562775817991"><ele>231.00000000000003</ele><time>2026-05-02T18:55:36Z</time></trkpt><trkpt lat="49.00838327865871" lon="6.900697769034223"><ele>231.0</ele><time>2026-05-02T18:55:37Z</time></trkpt><trkpt lat="49.00838250488942" lon="6.900813228159342"><ele>231.0</ele><time>2026-05-02T18:55:38Z</time></trkpt><trkpt lat="49.008333823516836" lon="6.90096568903799"><ele>231.0</ele><time>2026-05-02T18:55:40Z</time></trkpt><trkpt lat="49.008186713576016" lon="6.90095337252032"><ele>231.0</ele><time>2026-05-02T18:55:42Z</time></trkpt><trkpt lat="49.00808595947365" lon="6.900971586664758"><ele>231.0</ele><time>2026-05-02T18:55:43Z</time></trkpt><trkpt lat="49.00799326841422" lon="6.9008982238305085"><ele>231.0</ele><time>2026-05-02T18:55:44Z</time></trkpt><trkpt lat="49.00791038157417" lon="6.90075997390535"><ele>231.0</ele><time>2026-05-02T18:55:45Z</time></trkpt><trkpt lat="49.007783126488924" lon="6.900623482565832"><ele>231.0</ele><time>2026-05-02T18:55:46Z</time></trkpt><trkpt lat="49.00765383119411" lon="6.900443096842849"><ele>231.0</ele><time>2026-05-02T18:55:47Z</time></trkpt><trkpt lat="49.007516243684904" lon="6.900249420398887"><ele>229.66666666666669</ele><time>2026-05-02T18:55:48Z</time></trkpt><trkpt lat="49.00737082237808" lon="6.90004837754191"><ele>228.33333333333334</ele><time>2026-05-02T18:55:49Z</time></trkpt><trkpt lat="49.00722368590407" lon="6.89985036874982"><ele>227.0</ele><time>2026-05-02T18:55:50Z</time></trkpt><trkpt lat="49.00707320712045" lon="6.899644416611581"><ele>227.0</ele><time>2026-05-02T18:55:51Z</time></trkpt><trkpt lat="49.00692234177618" lon="6.899430623825225"><ele>227.0</ele><time>2026-05-02T18:55:52Z</time></trkpt><trkpt lat="49.00677306144284" lon="6.899208852054221"><ele>227.0</ele><time>2026-05-02T18:55:53Z</time></trkpt><trkpt lat="49.00662540694375" lon="6.898978590043849"><ele>225.0</ele><time>2026-05-02T18:55:54Z</time></trkpt><trkpt lat="49.00647768865649" lon="6.898743753973308"><ele>223.0</ele><time>2026-05-02T18:55:55Z</time></trkpt><trkpt lat="49.00633056997253" lon="6.898511312094522"><ele>221.0</ele><time>2026-05-02T18:55:56Z</time></trkpt><trkpt lat="49.00619147817576" lon="6.898292012009508"><ele>220.66666666666669</ele><time>2026-05-02T18:55:57Z</time></trkpt><trkpt lat="49.00605163691251" lon="6.898074438817789"><ele>220.33333333333331</ele><time>2026-05-02T18:55:58Z</time></trkpt><trkpt lat="49.00590999778331" lon="6.897854602111033"><ele>220.0</ele><time>2026-05-02T18:55:59Z</time></trkpt><trkpt lat="49.00576934389647" lon="6.897631754297963"><ele>219.33333333333331</ele><time>2026-05-02T18:56:00Z</time></trkpt><trkpt lat="49.005629407470735" lon="6.8974105855996655"><ele>218.66666666666669</ele><time>2026-05-02T18:56:01Z</time></trkpt><trkpt lat="49.005490993144534" lon="6.89719239749829"><ele>218.0</ele><time>2026-05-02T18:56:02Z</time></trkpt><trkpt lat="49.0053514376663" lon="6.896976377676337"><ele>218.0</ele><time>2026-05-02T18:56:03Z</time></trkpt><trkpt lat="49.005212287327225" lon="6.896763509149234"><ele>218.0</ele><time>2026-05-02T18:56:04Z</time></trkpt><trkpt lat="49.00507610549748" lon="6.896541125685018"><ele>218.0</ele><time>2026-05-02T18:56:05Z</time></trkpt><trkpt lat="49.00494939588203" lon="6.896311849502513"><ele>217.33333333333334</ele><time>2026-05-02T18:56:06Z</time></trkpt><trkpt lat="49.0048341236922" lon="6.896070305985458"><ele>216.66666666666669</ele><time>2026-05-02T18:56:07Z</time></trkpt><trkpt lat="49.00472403123608" lon="6.895819287696665"><ele>216.0</ele><time>2026-05-02T18:56:08Z</time></trkpt><trkpt lat="49.004615370193406" lon="6.895565901053275"><ele>214.5</ele><time>2026-05-02T18:56:09Z</time></trkpt><trkpt lat="49.0043930394963" lon="6.895063999023423"><ele>213.0</ele><time>2026-05-02T18:56:11Z</time></trkpt><trkpt lat="49.00428584404121" lon="6.894814371683353"><ele>213.0</ele><time>2026-05-02T18:56:12Z</time></trkpt><trkpt lat="49.00417771612793" lon="6.894561246613217"><ele>213.0</ele><time>2026-05-02T18:56:13Z</time></trkpt><trkpt lat="49.00407525968437" lon="6.8943113182958715"><ele>213.0</ele><time>2026-05-02T18:56:14Z</time></trkpt><trkpt lat="49.00397793893857" lon="6.894056866762212"><ele>213.66666666666669</ele><time>2026-05-02T18:56:15Z</time></trkpt><trkpt lat="49.003887820773045" lon="6.893806584446287"><ele>214.33333333333334</ele><time>2026-05-02T18:56:16Z</time></trkpt><trkpt lat="49.00380547471266" lon="6.893574481172633"><ele>215.0</ele><time>2026-05-02T18:56:17Z</time></trkpt><trkpt lat="49.0037258438321" lon="6.893360726711112"><ele>215.0</ele><time>2026-05-02T18:56:18Z</time></trkpt><trkpt lat="49.00365237434018" lon="6.893162504910325"><ele>215.0</ele><time>2026-05-02T18:56:19Z</time></trkpt><trkpt lat="49.003585247734776" lon="6.89296987363638"><ele>215.0</ele><time>2026-05-02T18:56:20Z</time></trkpt><trkpt lat="49.00352216846928" lon="6.892777215765122"><ele>215.0</ele><time>2026-05-02T18:56:21Z</time></trkpt><trkpt lat="49.003469683584655" lon="6.892565564828222"><ele>216.0</ele><time>2026-05-02T18:56:22Z</time></trkpt><trkpt lat="49.003421825145914" lon="6.89234711681614"><ele>217.0</ele><time>2026-05-02T18:56:23Z</time></trkpt><trkpt lat="49.00337472875304" lon="6.892125557263597"><ele>218.0</ele><time>2026-05-02T18:56:24Z</time></trkpt><trkpt lat="49.003332104204446" lon="6.891912833682228"><ele>217.0</ele><time>2026-05-02T18:56:25Z</time></trkpt><trkpt lat="49.00329807358349" lon="6.8917141687028405"><ele>216.0</ele><time>2026-05-02T18:56:26Z</time></trkpt><trkpt lat="49.00325503221144" lon="6.891529300725452"><ele>215.0</ele><time>2026-05-02T18:56:27Z</time></trkpt><trkpt lat="49.00321981315555" lon="6.891353867487607"><ele>214.0</ele><time>2026-05-02T18:56:28Z</time></trkpt><trkpt lat="49.003182828216026" lon="6.891187610284525"><ele>214.0</ele><time>2026-05-02T18:56:29Z</time></trkpt><trkpt lat="49.00312983186978" lon="6.891043625369055"><ele>214.0</ele><time>2026-05-02T18:56:30Z</time></trkpt><trkpt lat="49.003046644383964" lon="6.890923980724948"><ele>214.0</ele><time>2026-05-02T18:56:31Z</time></trkpt><trkpt lat="49.00292358985631" lon="6.890802356938355"><ele>214.0</ele><time>2026-05-02T18:56:31.999Z</time></trkpt><trkpt lat="49.002785791974105" lon="6.890690408608861"><ele>214.25</ele><time>2026-05-02T18:56:32.999Z</time></trkpt><trkpt lat="49.00266272211498" lon="6.890579085761272"><ele>214.5</ele><time>2026-05-02T18:56:33.999Z</time></trkpt><trkpt lat="49.00255825594637" lon="6.890474034404874"><ele>214.75</ele><time>2026-05-02T18:56:34.999Z</time></trkpt><trkpt lat="49.00246216258715" lon="6.890368728200009"><ele>215.0</ele><time>2026-05-02T18:56:35.999Z</time></trkpt><trkpt lat="49.00237513955262" lon="6.890249460059246"><ele>215.0</ele><time>2026-05-02T18:56:36.999Z</time></trkpt><trkpt lat="49.00228958444527" lon="6.89010225616083"><ele>215.0</ele><time>2026-05-02T18:56:37.999Z</time></trkpt><trkpt lat="49.00221384418073" lon="6.889943795461489"><ele>215.0</ele><time>2026-05-02T18:56:38.999Z</time></trkpt><trkpt lat="49.002147820076935" lon="6.889789427454727"><ele>215.0</ele><time>2026-05-02T18:56:39.999Z</time></trkpt><trkpt lat="49.002079363331305" lon="6.889646243294963"><ele>215.4</ele><time>2026-05-02T18:56:40.999Z</time></trkpt><trkpt lat="49.00201216281098" lon="6.889507750706617"><ele>215.8</ele><time>2026-05-02T18:56:41.999Z</time></trkpt><trkpt lat="49.00194737114377" lon="6.889397052507751"><ele>216.2</ele><time>2026-05-02T18:56:42.999Z</time></trkpt><trkpt lat="49.00188291421096" lon="6.889296381321605"><ele>216.6</ele><time>2026-05-02T18:56:43.999Z</time></trkpt><trkpt lat="49.001777150531495" lon="6.889271496638426"><ele>217.0</ele><time>2026-05-02T18:56:44.999Z</time></trkpt><trkpt lat="49.00167028545152" lon="6.889272912712923"><ele>217.5</ele><time>2026-05-02T18:56:45.999Z</time></trkpt><trkpt lat="49.00156340683257" lon="6.889336783398519"><ele>218.0</ele><time>2026-05-02T18:56:46.999Z</time></trkpt><trkpt lat="49.00144173859446" lon="6.889405912184077"><ele>218.5</ele><time>2026-05-02T18:56:47.999Z</time></trkpt><trkpt lat="49.00129298884151" lon="6.889498154059632"><ele>219.0</ele><time>2026-05-02T18:56:48.999Z</time></trkpt><trkpt lat="49.00114060163059" lon="6.889646460901526"><ele>219.0</ele><time>2026-05-02T18:56:49.999Z</time></trkpt><trkpt lat="49.00098862794753" lon="6.889796856263054"><ele>219.0</ele><time>2026-05-02T18:56:50.999Z</time></trkpt><trkpt lat="49.00085267781661" lon="6.889919446961437"><ele>219.0</ele><time>2026-05-02T18:56:51.999Z</time></trkpt><trkpt lat="49.00072734909012" lon="6.8900113960099985"><ele>220.0</ele><time>2026-05-02T18:56:52.999Z</time></trkpt><trkpt lat="49.000601538477355" lon="6.8900542980869455"><ele>221.0</ele><time>2026-05-02T18:56:53.999Z</time></trkpt><trkpt lat="49.00046837302823" lon="6.890043522640476"><ele>222.0</ele><time>2026-05-02T18:56:54.999Z</time></trkpt><trkpt lat="49.0003119459253" lon="6.890072571734473"><ele>223.0</ele><time>2026-05-02T18:56:55.999Z</time></trkpt><trkpt lat="49.00015979843962" lon="6.890159858585063"><ele>223.0</ele><time>2026-05-02T18:56:56.999Z</time></trkpt><trkpt lat="49.0000047135498" lon="6.890251391545508"><ele>223.0</ele><time>2026-05-02T18:56:57.999Z</time></trkpt><trkpt lat="48.99985161646481" lon="6.8903191420707"><ele>223.0</ele><time>2026-05-02T18:56:58.999Z</time></trkpt><trkpt lat="48.99971361690197" lon="6.890387982736738"><ele>223.0</ele><time>2026-05-02T18:56:59.999Z</time></trkpt><trkpt lat="48.99959067697361" lon="6.890448406122708"><ele>223.0</ele><time>2026-05-02T18:57:00.999Z</time></trkpt><trkpt lat="48.99948018976216" lon="6.890496383530131"><ele>223.0</ele><time>2026-05-02T18:57:01.999Z</time></trkpt><trkpt lat="48.99936850296788" lon="6.890527727520939"><ele>223.0</ele><time>2026-05-02T18:57:02.999Z</time></trkpt><trkpt lat="48.9992585245323" lon="6.890547233425717"><ele>224.75</ele><time>2026-05-02T18:57:03.999Z</time></trkpt><trkpt lat="48.99913932074398" lon="6.89047026262559"><ele>226.5</ele><time>2026-05-02T18:57:04.999Z</time></trkpt><trkpt lat="48.999002094292614" lon="6.890376553308054"><ele>228.25</ele><time>2026-05-02T18:57:05.999Z</time></trkpt><trkpt lat="48.99886612158668" lon="6.890283801493839"><ele>230.0</ele><time>2026-05-02T18:57:06.999Z</time></trkpt><trkpt lat="48.99873700151778" lon="6.890167761176673"><ele>230.0</ele><time>2026-05-02T18:57:07.999Z</time></trkpt><trkpt lat="48.99860354526824" lon="6.890063321546483"><ele>230.0</ele><time>2026-05-02T18:57:08.999Z</time></trkpt><trkpt lat="48.99847911539722" lon="6.889955018211143"><ele>230.0</ele><time>2026-05-02T18:57:09.999Z</time></trkpt><trkpt lat="48.9982554180506" lon="6.889695170135863"><ele>231.0</ele><time>2026-05-02T18:57:11.999Z</time></trkpt><trkpt lat="48.99813712614664" lon="6.8895466236113645"><ele>232.0</ele><time>2026-05-02T18:57:13Z</time></trkpt><trkpt lat="48.99802692845794" lon="6.88937656764774"><ele>233.0</ele><time>2026-05-02T18:57:14Z</time></trkpt><trkpt lat="48.997918145136964" lon="6.889203024348905"><ele>233.0</ele><time>2026-05-02T18:57:15Z</time></trkpt><trkpt lat="48.99782090989947" lon="6.889038493338592"><ele>233.0</ele><time>2026-05-02T18:57:16Z</time></trkpt><trkpt lat="48.997724223889676" lon="6.8888844781976415"><ele>233.0</ele><time>2026-05-02T18:57:17Z</time></trkpt><trkpt lat="48.99763469933659" lon="6.8887394853637085"><ele>233.0</ele><time>2026-05-02T18:57:18Z</time></trkpt><trkpt lat="48.99755078210715" lon="6.888590144435595"><ele>232.4</ele><time>2026-05-02T18:57:19Z</time></trkpt><trkpt lat="48.9974829319242" lon="6.888439048600814"><ele>231.8</ele><time>2026-05-02T18:57:20Z</time></trkpt><trkpt lat="48.99742521495565" lon="6.888300252552757"><ele>231.2</ele><time>2026-05-02T18:57:21Z</time></trkpt><trkpt lat="48.99736417818622" lon="6.88818840742728"><ele>230.6</ele><time>2026-05-02T18:57:22Z</time></trkpt><trkpt lat="48.99730634746209" lon="6.888090460347156"><ele>230.0</ele><time>2026-05-02T18:57:23Z</time></trkpt><trkpt lat="48.997222800667274" lon="6.888028209982386"><ele>229.75</ele><time>2026-05-02T18:57:24Z</time></trkpt><trkpt lat="48.99712095694625" lon="6.8880012840683955"><ele>229.5</ele><time>2026-05-02T18:57:25Z</time></trkpt><trkpt lat="48.99700322599388" lon="6.887982618731619"><ele>229.25</ele><time>2026-05-02T18:57:26Z</time></trkpt><trkpt lat="48.996879444666625" lon="6.888009258901119"><ele>229.0</ele><time>2026-05-02T18:57:27Z</time></trkpt><trkpt lat="48.99676440676266" lon="6.888097377966082"><ele>229.0</ele><time>2026-05-02T18:57:28Z</time></trkpt><trkpt lat="48.99668454917127" lon="6.888246419159515"><ele>228.99999999999997</ele><time>2026-05-02T18:57:29Z</time></trkpt><trkpt lat="48.99658414888356" lon="6.888320749073202"><ele>228.99999999999997</ele><time>2026-05-02T18:57:30Z</time></trkpt><trkpt lat="48.99649287551619" lon="6.888384741828034"><ele>229.0</ele><time>2026-05-02T18:57:31Z</time></trkpt><trkpt lat="48.99640041210416" lon="6.888396617995595"><ele>229.0</ele><time>2026-05-02T18:57:32Z</time></trkpt><trkpt lat="48.99629896748507" lon="6.888375707165729"><ele>228.75</ele><time>2026-05-02T18:57:33Z</time></trkpt><trkpt lat="48.99618347860128" lon="6.8883639587879175"><ele>228.5</ele><time>2026-05-02T18:57:34Z</time></trkpt><trkpt lat="48.996066057236575" lon="6.888288349444921"><ele>228.25</ele><time>2026-05-02T18:57:35Z</time></trkpt><trkpt lat="48.99595082059669" lon="6.888215150691462"><ele>228.0</ele><time>2026-05-02T18:57:36Z</time></trkpt><trkpt lat="48.99584580667317" lon="6.888154958600821"><ele>227.8</ele><time>2026-05-02T18:57:37Z</time></trkpt><trkpt lat="48.9957545606828" lon="6.888105621056663"><ele>227.60000000000002</ele><time>2026-05-02T18:57:38Z</time></trkpt><trkpt lat="48.99566367338171" lon="6.888063253808112"><ele>227.39999999999998</ele><time>2026-05-02T18:57:40Z</time></trkpt><trkpt lat="48.99561451554729" lon="6.888197391473256"><ele>227.2</ele><time>2026-05-02T18:57:43Z</time></trkpt><trkpt lat="48.99554110543691" lon="6.888331486099596"><ele>227.0</ele><time>2026-05-02T18:59:16.999Z</time></trkpt><trkpt lat="48.99546171697676" lon="6.88842455428708"><ele>226.83333333333334</ele><time>2026-05-02T18:59:19Z</time></trkpt><trkpt lat="48.99538762983864" lon="6.888458023905442"><ele>226.66666666666669</ele><time>2026-05-02T18:59:20Z</time></trkpt><trkpt lat="48.995311613252106" lon="6.888498909379781"><ele>226.5</ele><time>2026-05-02T18:59:21Z</time></trkpt><trkpt lat="48.99522984083059" lon="6.888547332802093"><ele>226.33333333333331</ele><time>2026-05-02T18:59:22Z</time></trkpt><trkpt lat="48.99513718739268" lon="6.888576123013769"><ele>226.16666666666666</ele><time>2026-05-02T18:59:23Z</time></trkpt><trkpt lat="48.99504654411157" lon="6.888627817703014"><ele>226.0</ele><time>2026-05-02T18:59:24Z</time></trkpt><trkpt lat="48.99496367361274" lon="6.888695223029084"><ele>225.4</ele><time>2026-05-02T18:59:25Z</time></trkpt><trkpt lat="48.994887868844856" lon="6.888794746691971"><ele>224.8</ele><time>2026-05-02T18:59:26Z</time></trkpt><trkpt lat="48.99482906936082" lon="6.8889176890299355"><ele>224.20000000000002</ele><time>2026-05-02T18:59:27Z</time></trkpt><trkpt lat="48.99475250907978" lon="6.889000490430691"><ele>223.60000000000002</ele><time>2026-05-02T18:59:28Z</time></trkpt><trkpt lat="48.99469910530076" lon="6.88910684358307"><ele>223.0</ele><time>2026-05-02T18:59:29Z</time></trkpt><trkpt lat="48.994625889274744" lon="6.889186823719689"><ele>223.49999999999997</ele><time>2026-05-02T18:59:30Z</time></trkpt><trkpt lat="48.9945718549598" lon="6.8892634714765775"><ele>224.0</ele><time>2026-05-02T18:59:31Z</time></trkpt><trkpt lat="48.99452250165994" lon="6.889328814593939"><ele>224.5</ele><time>2026-05-02T18:59:32Z</time></trkpt><trkpt lat="48.994444185130234" lon="6.8894645734029725"><ele>225.0</ele><time>2026-05-02T18:59:34Z</time></trkpt><trkpt lat="48.99445049823383" lon="6.8895689577568175"><ele>225.49999999999997</ele><time>2026-05-02T18:59:35Z</time></trkpt><trkpt lat="48.994495545093606" lon="6.8896731289574324"><ele>226.0</ele><time>2026-05-02T18:59:36Z</time></trkpt><trkpt lat="48.994565310386406" lon="6.889745972472024"><ele>226.0</ele><time>2026-05-02T18:59:37Z</time></trkpt><trkpt lat="48.99463975719254" lon="6.889833791889349"><ele>226.00000000000003</ele><time>2026-05-02T18:59:38Z</time></trkpt><trkpt lat="48.994723839504" lon="6.889950248863781"><ele>226.00000000000003</ele><time>2026-05-02T18:59:39Z</time></trkpt><trkpt lat="48.99480021868323" lon="6.890066263236391"><ele>226.0</ele><time>2026-05-02T18:59:40Z</time></trkpt><trkpt lat="48.99487579291522" lon="6.890175339552484"><ele>226.0</ele><time>2026-05-02T18:59:41Z</time></trkpt><trkpt lat="48.994939205454514" lon="6.890305418464815"><ele>226.49999999999997</ele><time>2026-05-02T18:59:42Z</time></trkpt><trkpt lat="48.99501153585822" lon="6.890417059624484"><ele>227.0</ele><time>2026-05-02T18:59:43Z</time></trkpt><trkpt lat="48.995074596610806" lon="6.890511092865558"><ele>227.5</ele><time>2026-05-02T18:59:44Z</time></trkpt><trkpt lat="48.995137167900744" lon="6.890568924311483"><ele>228.0</ele><time>2026-05-02T18:59:45Z</time></trkpt><trkpt lat="48.99514282803414" lon="6.890728684435915"><ele>228.49999999999997</ele><time>2026-05-02T18:59:47Z</time></trkpt><trkpt lat="48.99511568967495" lon="6.890829948938861"><ele>229.0</ele><time>2026-05-02T18:59:48Z</time></trkpt><trkpt lat="48.99506914860011" lon="6.890910633625963"><ele>229.2</ele><time>2026-05-02T18:59:49Z</time></trkpt><trkpt lat="48.9950050492139" lon="6.890995457900917"><ele>229.39999999999998</ele><time>2026-05-02T18:59:50Z</time></trkpt><trkpt lat="48.99492743035542" lon="6.891099972042474"><ele>229.6</ele><time>2026-05-02T18:59:51Z</time></trkpt><trkpt lat="48.994843519714045" lon="6.89120615844834"><ele>229.8</ele><time>2026-05-02T18:59:52Z</time></trkpt><trkpt lat="48.99473789488025" lon="6.8913187831638485"><ele>230.0</ele><time>2026-05-02T18:59:53Z</time></trkpt><trkpt lat="48.99461444419997" lon="6.891403282090996"><ele>230.25</ele><time>2026-05-02T18:59:54Z</time></trkpt><trkpt lat="48.99450916352312" lon="6.89153582837134"><ele>230.5</ele><time>2026-05-02T18:59:55Z</time></trkpt><trkpt lat="48.99438987155655" lon="6.891640187032759"><ele>230.75</ele><time>2026-05-02T18:59:56Z</time></trkpt><trkpt lat="48.99428052898536" lon="6.891750889885037"><ele>231.0</ele><time>2026-05-02T18:59:57Z</time></trkpt><trkpt lat="48.994173396455416" lon="6.891858640734163"><ele>231.0</ele><time>2026-05-02T18:59:58Z</time></trkpt><trkpt lat="48.99405831612054" lon="6.891961950970189"><ele>231.0</ele><time>2026-05-02T18:59:59Z</time></trkpt><trkpt lat="48.99394640628603" lon="6.892080187788754"><ele>231.0</ele><time>2026-05-02T19:00:00Z</time></trkpt><trkpt lat="48.99383209514646" lon="6.892182725079025"><ele>231.0</ele><time>2026-05-02T19:00:01Z</time></trkpt><trkpt lat="48.993740485572246" lon="6.892296566004578"><ele>231.0</ele><time>2026-05-02T19:00:02Z</time></trkpt><trkpt lat="48.99365367815327" lon="6.892400892789105"><ele>231.00000000000003</ele><time>2026-05-02T19:00:03Z</time></trkpt><trkpt lat="48.99357405047332" lon="6.892505010456156"><ele>231.00000000000003</ele><time>2026-05-02T19:00:04Z</time></trkpt><trkpt lat="48.99349823202919" lon="6.892611430620807"><ele>231.0</ele><time>2026-05-02T19:00:05Z</time></trkpt><trkpt lat="48.99343150172492" lon="6.892700338511632"><ele>231.0</ele><time>2026-05-02T19:00:06Z</time></trkpt><trkpt lat="48.99336005538351" lon="6.892792008097979"><ele>230.66666666666666</ele><time>2026-05-02T19:00:07Z</time></trkpt><trkpt lat="48.993285505670414" lon="6.892883001205918"><ele>230.33333333333331</ele><time>2026-05-02T19:00:08Z</time></trkpt><trkpt lat="48.993220391616624" lon="6.892961770988839"><ele>230.0</ele><time>2026-05-02T19:00:09Z</time></trkpt><trkpt lat="48.99316301779651" lon="6.893028044413805"><ele>229.66666666666666</ele><time>2026-05-02T19:00:10Z</time></trkpt><trkpt lat="48.99309616022152" lon="6.893088267809635"><ele>229.33333333333331</ele><time>2026-05-02T19:00:12Z</time></trkpt><trkpt lat="48.99304230689433" lon="6.893185539376262"><ele>229.0</ele><time>2026-05-02T19:00:25Z</time></trkpt><trkpt lat="48.99296639441949" lon="6.893256930601957"><ele>229.0</ele><time>2026-05-02T19:00:26Z</time></trkpt><trkpt lat="48.992891323754264" lon="6.8933557304990165"><ele>228.99999999999997</ele><time>2026-05-02T19:00:27Z</time></trkpt><trkpt lat="48.99280740792853" lon="6.89346470687092"><ele>228.99999999999997</ele><time>2026-05-02T19:00:28Z</time></trkpt><trkpt lat="48.99273010548383" lon="6.893584856662925"><ele>229.0</ele><time>2026-05-02T19:00:29Z</time></trkpt><trkpt lat="48.992638959931725" lon="6.893662259520564"><ele>229.0</ele><time>2026-05-02T19:00:30Z</time></trkpt><trkpt lat="48.99255801057716" lon="6.893745182520679"><ele>229.6</ele><time>2026-05-02T19:00:31Z</time></trkpt><trkpt lat="48.99247776292581" lon="6.89382721257947"><ele>230.2</ele><time>2026-05-02T19:00:32Z</time></trkpt><trkpt lat="48.99240334673565" lon="6.8939284954950875"><ele>230.79999999999998</ele><time>2026-05-02T19:00:33Z</time></trkpt><trkpt lat="48.99231856582262" lon="6.89398088686482"><ele>231.39999999999998</ele><time>2026-05-02T19:00:34Z</time></trkpt><trkpt lat="48.9922486723868" lon="6.894046157626779"><ele>232.0</ele><time>2026-05-02T19:00:35Z</time></trkpt><trkpt lat="48.99217254209936" lon="6.89412397843685"><ele>232.0</ele><time>2026-05-02T19:00:36Z</time></trkpt><trkpt lat="48.99201740425586" lon="6.894018798411026"><ele>232.0</ele><time>2026-05-02T19:00:37Z</time></trkpt><trkpt lat="48.991915745120046" lon="6.894030030662067"><ele>232.0</ele><time>2026-05-02T19:00:38Z</time></trkpt><trkpt lat="48.99181589848077" lon="6.894061575054607"><ele>232.0</ele><time>2026-05-02T19:00:39Z</time></trkpt><trkpt lat="48.99171607206459" lon="6.894123010554074"><ele>231.8</ele><time>2026-05-02T19:00:40Z</time></trkpt><trkpt lat="48.991609208070464" lon="6.8941996207559795"><ele>231.6</ele><time>2026-05-02T19:00:41Z</time></trkpt><trkpt lat="48.99150243949725" lon="6.8942689934020756"><ele>231.40000000000003</ele><time>2026-05-02T19:00:42Z</time></trkpt><trkpt lat="48.991399800935184" lon="6.894327116434021"><ele>231.20000000000002</ele><time>2026-05-02T19:00:43Z</time></trkpt><trkpt lat="48.99130153702322" lon="6.894386358292681"><ele>231.0</ele><time>2026-05-02T19:00:44Z</time></trkpt><trkpt lat="48.991205666806586" lon="6.894443608292833"><ele>231.0</ele><time>2026-05-02T19:00:45Z</time></trkpt><trkpt lat="48.99110487235471" lon="6.894507284174616"><ele>231.00000000000003</ele><time>2026-05-02T19:00:46Z</time></trkpt><trkpt lat="48.99100369125601" lon="6.894571893531797"><ele>231.00000000000003</ele><time>2026-05-02T19:00:47Z</time></trkpt><trkpt lat="48.99089828859214" lon="6.894631781314549"><ele>231.0</ele><time>2026-05-02T19:00:48Z</time></trkpt><trkpt lat="48.990794372071626" lon="6.894690630207696"><ele>231.0</ele><time>2026-05-02T19:00:49Z</time></trkpt><trkpt lat="48.99069682586518" lon="6.894748952289617"><ele>231.20000000000002</ele><time>2026-05-02T19:00:50Z</time></trkpt><trkpt lat="48.990607186307955" lon="6.894801774788096"><ele>231.40000000000003</ele><time>2026-05-02T19:00:51Z</time></trkpt><trkpt lat="48.99052461085915" lon="6.894852042894653"><ele>231.6</ele><time>2026-05-02T19:00:51.999Z</time></trkpt><trkpt lat="48.99045307734865" lon="6.894896283682999"><ele>231.8</ele><time>2026-05-02T19:00:52.999Z</time></trkpt><trkpt lat="48.990344206605634" lon="6.8949669877175035"><ele>232.0</ele><time>2026-05-02T19:00:54.999Z</time></trkpt><trkpt lat="48.990248528358926" lon="6.895035641957729"><ele>232.0</ele><time>2026-05-02T19:00:56.999Z</time></trkpt><trkpt lat="48.990146414270086" lon="6.89513272518164"><ele>232.0</ele><time>2026-05-02T19:00:58.999Z</time></trkpt><trkpt lat="48.99008864113164" lon="6.895183437612613"><ele>232.0</ele><time>2026-05-02T19:00:59.999Z</time></trkpt><trkpt lat="48.99002290457358" lon="6.895229130334945"><ele>232.0</ele><time>2026-05-02T19:01:00.999Z</time></trkpt><trkpt lat="48.98996415000508" lon="6.895269078158461"><ele>232.0</ele><time>2026-05-02T19:01:01.999Z</time></trkpt><trkpt lat="48.98984678764615" lon="6.89534835111544"><ele>231.8</ele><time>2026-05-02T19:01:03.999Z</time></trkpt><trkpt lat="48.98974313975084" lon="6.895434863060296"><ele>231.6</ele><time>2026-05-02T19:01:05.999Z</time></trkpt><trkpt lat="48.98963019192052" lon="6.895498809696773"><ele>231.40000000000003</ele><time>2026-05-02T19:01:07.999Z</time></trkpt><trkpt lat="48.9895147377359" lon="6.8955693727413685"><ele>231.20000000000002</ele><time>2026-05-02T19:01:09.999Z</time></trkpt><trkpt lat="48.989446454892644" lon="6.895601088468754"><ele>231.0</ele><time>2026-05-02T19:01:10.999Z</time></trkpt><trkpt lat="48.98933083673089" lon="6.895667180797928"><ele>231.0</ele><time>2026-05-02T19:01:12.999Z</time></trkpt><trkpt lat="48.98926877468131" lon="6.895711230439897"><ele>231.0</ele><time>2026-05-02T19:01:13.999Z</time></trkpt><trkpt lat="48.989206435153065" lon="6.895754349208297"><ele>231.0</ele><time>2026-05-02T19:01:14.999Z</time></trkpt><trkpt lat="48.989145685895494" lon="6.895792408831299"><ele>231.0</ele><time>2026-05-02T19:01:15.999Z</time></trkpt><trkpt lat="48.98908758543827" lon="6.895830354862964"><ele>231.0</ele><time>2026-05-02T19:01:16.999Z</time></trkpt><trkpt lat="48.98898128459051" lon="6.895905318703371"><ele>231.0</ele><time>2026-05-02T19:01:18.999Z</time></trkpt><trkpt lat="48.98886653934168" lon="6.895977748399498"><ele>230.4</ele><time>2026-05-02T19:01:20.999Z</time></trkpt><trkpt lat="48.98874106201446" lon="6.896027127889861"><ele>229.8</ele><time>2026-05-02T19:01:22.999Z</time></trkpt><trkpt lat="48.988612545692604" lon="6.896048193386326"><ele>229.20000000000002</ele><time>2026-05-02T19:01:25Z</time></trkpt><trkpt lat="48.98854515825596" lon="6.896077909294416"><ele>228.60000000000002</ele><time>2026-05-02T19:01:26Z</time></trkpt><trkpt lat="48.988478371549604" lon="6.896121515199767"><ele>228.0</ele><time>2026-05-02T19:01:27Z</time></trkpt><trkpt lat="48.98841684141756" lon="6.89616514770025"><ele>227.8</ele><time>2026-05-02T19:01:28Z</time></trkpt><trkpt lat="48.988312698380376" lon="6.896232615855663"><ele>227.60000000000002</ele><time>2026-05-02T19:01:30Z</time></trkpt><trkpt lat="48.98823378823712" lon="6.896286194812163"><ele>227.39999999999998</ele><time>2026-05-02T19:01:32Z</time></trkpt><trkpt lat="48.988160513024944" lon="6.8963442947371085"><ele>227.2</ele><time>2026-05-02T19:01:34Z</time></trkpt><trkpt lat="48.988060008110416" lon="6.896408275476053"><ele>227.0</ele><time>2026-05-02T19:01:36Z</time></trkpt><trkpt lat="48.987974969251454" lon="6.896472309759808"><ele>227.00000000000003</ele><time>2026-05-02T19:01:38Z</time></trkpt><trkpt lat="48.98789546866051" lon="6.8965327290166325"><ele>227.0</ele><time>2026-05-02T19:01:40Z</time></trkpt><trkpt lat="48.98783265509041" lon="6.896588531415298"><ele>227.0</ele><time>2026-05-02T19:01:41Z</time></trkpt><trkpt lat="48.98776017614935" lon="6.896642830279617"><ele>227.0</ele><time>2026-05-02T19:01:42Z</time></trkpt><trkpt lat="48.987691766580625" lon="6.896705072363719"><ele>227.00000000000003</ele><time>2026-05-02T19:01:43Z</time></trkpt><trkpt lat="48.98763174899038" lon="6.896743661011777"><ele>227.0</ele><time>2026-05-02T19:01:44Z</time></trkpt><trkpt lat="48.98756085904822" lon="6.896796556856566"><ele>227.16666666666669</ele><time>2026-05-02T19:01:45Z</time></trkpt><trkpt lat="48.98749114163321" lon="6.896849701700927"><ele>227.33333333333334</ele><time>2026-05-02T19:01:46Z</time></trkpt><trkpt lat="48.987412787476366" lon="6.896909159561048"><ele>227.5</ele><time>2026-05-02T19:01:47Z</time></trkpt><trkpt lat="48.987350812665625" lon="6.896960407434543"><ele>227.66666666666669</ele><time>2026-05-02T19:01:48Z</time></trkpt><trkpt lat="48.987285806136185" lon="6.897019089655102"><ele>227.83333333333334</ele><time>2026-05-02T19:01:49Z</time></trkpt><trkpt lat="48.98721492576292" lon="6.897077760537762"><ele>228.0</ele><time>2026-05-02T19:01:50Z</time></trkpt><trkpt lat="48.98714662440087" lon="6.897130119346183"><ele>228.0</ele><time>2026-05-02T19:01:51Z</time></trkpt><trkpt lat="48.987080436739575" lon="6.897182312939635"><ele>228.0</ele><time>2026-05-02T19:01:52Z</time></trkpt><trkpt lat="48.98696013312528" lon="6.897264776508204"><ele>228.0</ele><time>2026-05-02T19:01:54Z</time></trkpt><trkpt lat="48.98684061572413" lon="6.897352560310052"><ele>228.0</ele><time>2026-05-02T19:01:56Z</time></trkpt><trkpt lat="48.98677222489241" lon="6.897405064097193"><ele>228.0</ele><time>2026-05-02T19:01:57Z</time></trkpt><trkpt lat="48.986699628391214" lon="6.8974622697652315"><ele>228.33333333333334</ele><time>2026-05-02T19:01:58Z</time></trkpt><trkpt lat="48.986634387332515" lon="6.897508680305552"><ele>228.66666666666669</ele><time>2026-05-02T19:01:59Z</time></trkpt><trkpt lat="48.986570093182095" lon="6.89754984196682"><ele>229.0</ele><time>2026-05-02T19:02:00Z</time></trkpt><trkpt lat="48.98649717656698" lon="6.8976024275968495"><ele>229.33333333333334</ele><time>2026-05-02T19:02:01Z</time></trkpt><trkpt lat="48.986419953795476" lon="6.89765190962973"><ele>229.66666666666669</ele><time>2026-05-02T19:02:02Z</time></trkpt><trkpt lat="48.986348407711276" lon="6.897697929141654"><ele>230.0</ele><time>2026-05-02T19:02:03Z</time></trkpt><trkpt lat="48.9862861068735" lon="6.897746092660648"><ele>229.99999999999997</ele><time>2026-05-02T19:02:04Z</time></trkpt><trkpt lat="48.986218243370374" lon="6.897792122386392"><ele>230.0</ele><time>2026-05-02T19:02:05Z</time></trkpt><trkpt lat="48.98615124230722" lon="6.89783331240636"><ele>229.99999999999997</ele><time>2026-05-02T19:02:06Z</time></trkpt><trkpt lat="48.98609095989432" lon="6.897874651394641"><ele>229.99999999999997</ele><time>2026-05-02T19:02:07Z</time></trkpt><trkpt lat="48.98602685477318" lon="6.897927263677538"><ele>230.0</ele><time>2026-05-02T19:02:08Z</time></trkpt><trkpt lat="48.985960603681434" lon="6.897985558299284"><ele>229.99999999999997</ele><time>2026-05-02T19:02:09Z</time></trkpt><trkpt lat="48.98590498209923" lon="6.89804150700084"><ele>229.99999999999997</ele><time>2026-05-02T19:02:10Z</time></trkpt><trkpt lat="48.985847969258245" lon="6.898101540045308"><ele>229.83333333333334</ele><time>2026-05-02T19:02:11Z</time></trkpt><trkpt lat="48.98575572182315" lon="6.8982086543777195"><ele>229.66666666666669</ele><time>2026-05-02T19:02:13Z</time></trkpt><trkpt lat="48.985705084420005" lon="6.898268790314879"><ele>229.5</ele><time>2026-05-02T19:02:14Z</time></trkpt><trkpt lat="48.985650761781976" lon="6.898330504715563"><ele>229.33333333333331</ele><time>2026-05-02T19:02:15Z</time></trkpt><trkpt lat="48.9855550311149" lon="6.898441165418394"><ele>229.16666666666666</ele><time>2026-05-02T19:02:17Z</time></trkpt><trkpt lat="48.98550132830722" lon="6.898495430639423"><ele>229.0</ele><time>2026-05-02T19:02:18Z</time></trkpt><trkpt lat="48.98543635426685" lon="6.898543360260332"><ele>228.99999999999997</ele><time>2026-05-02T19:02:19Z</time></trkpt><trkpt lat="48.985361526303684" lon="6.89858649888172"><ele>229.0</ele><time>2026-05-02T19:02:20Z</time></trkpt><trkpt lat="48.98528597885563" lon="6.898629553845762"><ele>229.0</ele><time>2026-05-02T19:02:21Z</time></trkpt><trkpt lat="48.98520867960008" lon="6.898688531871539"><ele>229.0</ele><time>2026-05-02T19:02:22Z</time></trkpt><trkpt lat="48.98513226752163" lon="6.89875150069668"><ele>228.99999999999997</ele><time>2026-05-02T19:02:23Z</time></trkpt><trkpt lat="48.98506187319143" lon="6.898815871448338"><ele>229.0</ele><time>2026-05-02T19:02:24Z</time></trkpt><trkpt lat="48.98499470770294" lon="6.898877012450431"><ele>229.16666666666666</ele><time>2026-05-02T19:02:25Z</time></trkpt><trkpt lat="48.98492322736658" lon="6.898931967746194"><ele>229.33333333333331</ele><time>2026-05-02T19:02:26Z</time></trkpt><trkpt lat="48.98484902051691" lon="6.89898378708812"><ele>229.5</ele><time>2026-05-02T19:02:27Z</time></trkpt><trkpt lat="48.984778893535704" lon="6.8990267195730235"><ele>229.66666666666669</ele><time>2026-05-02T19:02:28Z</time></trkpt><trkpt lat="48.98470949116269" lon="6.899061846283577"><ele>229.83333333333334</ele><time>2026-05-02T19:02:29Z</time></trkpt><trkpt lat="48.98463336294822" lon="6.899101797718906"><ele>230.0</ele><time>2026-05-02T19:02:30Z</time></trkpt><trkpt lat="48.98455221457571" lon="6.899134093599748"><ele>230.00000000000003</ele><time>2026-05-02T19:02:31Z</time></trkpt><trkpt lat="48.984464993545046" lon="6.899174028475731"><ele>230.0</ele><time>2026-05-02T19:02:32Z</time></trkpt><trkpt lat="48.98438807169934" lon="6.89921363214184"><ele>230.0</ele><time>2026-05-02T19:02:33Z</time></trkpt><trkpt lat="48.984313437900724" lon="6.899238864676233"><ele>230.0</ele><time>2026-05-02T19:02:34Z</time></trkpt><trkpt lat="48.98424183467037" lon="6.899263416660645"><ele>230.00000000000003</ele><time>2026-05-02T19:02:35Z</time></trkpt><trkpt lat="48.98416605801777" lon="6.899291372629058"><ele>230.0</ele><time>2026-05-02T19:02:36Z</time></trkpt><trkpt lat="48.98409492292304" lon="6.899312278869969"><ele>230.16666666666669</ele><time>2026-05-02T19:02:37Z</time></trkpt><trkpt lat="48.984024379971046" lon="6.899325159481044"><ele>230.33333333333334</ele><time>2026-05-02T19:02:38Z</time></trkpt><trkpt lat="48.98394991328976" lon="6.8993260314651055"><ele>230.5</ele><time>2026-05-02T19:02:39Z</time></trkpt><trkpt lat="48.98386982827386" lon="6.899342496448134"><ele>230.66666666666669</ele><time>2026-05-02T19:02:40Z</time></trkpt><trkpt lat="48.983782365620264" lon="6.899377419903215"><ele>230.83333333333334</ele><time>2026-05-02T19:02:41Z</time></trkpt><trkpt lat="48.98370498294022" lon="6.899405607858467"><ele>231.0</ele><time>2026-05-02T19:02:42Z</time></trkpt><trkpt lat="48.98362752355321" lon="6.899430894478721"><ele>231.0</ele><time>2026-05-02T19:02:43Z</time></trkpt><trkpt lat="48.98355407719424" lon="6.899449737440131"><ele>231.0</ele><time>2026-05-02T19:02:44Z</time></trkpt><trkpt lat="48.98348300174093" lon="6.899465999846984"><ele>231.0</ele><time>2026-05-02T19:02:45Z</time></trkpt><trkpt lat="48.98341450987407" lon="6.899487947196084"><ele>231.0</ele><time>2026-05-02T19:02:46Z</time></trkpt><trkpt lat="48.98332980502385" lon="6.899520845530421"><ele>231.0</ele><time>2026-05-02T19:02:47Z</time></trkpt><trkpt lat="48.98325165560845" lon="6.899554692992626"><ele>231.0</ele><time>2026-05-02T19:02:47.999Z</time></trkpt><trkpt lat="48.98317739412764" lon="6.899591235966626"><ele>230.66666666666666</ele><time>2026-05-02T19:02:48.999Z</time></trkpt><trkpt lat="48.98309861771594" lon="6.899614601852297"><ele>230.33333333333331</ele><time>2026-05-02T19:02:49.999Z</time></trkpt><trkpt lat="48.983017668523864" lon="6.89964145472066"><ele>230.0</ele><time>2026-05-02T19:02:50.999Z</time></trkpt><trkpt lat="48.98293559169448" lon="6.8996667423688365"><ele>229.66666666666666</ele><time>2026-05-02T19:02:51.999Z</time></trkpt><trkpt lat="48.98285027258786" lon="6.899691017961302"><ele>229.33333333333331</ele><time>2026-05-02T19:02:52.999Z</time></trkpt><trkpt lat="48.982770322795545" lon="6.899703186779949"><ele>229.0</ele><time>2026-05-02T19:02:53.999Z</time></trkpt><trkpt lat="48.98270039441316" lon="6.899715721730784"><ele>229.0</ele><time>2026-05-02T19:02:54.999Z</time></trkpt><trkpt lat="48.98263861680046" lon="6.899735267637734"><ele>228.99999999999997</ele><time>2026-05-02T19:02:55.999Z</time></trkpt><trkpt lat="48.982530066506115" lon="6.899789876178657"><ele>228.99999999999997</ele><time>2026-05-02T19:02:57.999Z</time></trkpt><trkpt lat="48.9824686621592" lon="6.899822278138114"><ele>229.0</ele><time>2026-05-02T19:02:58.999Z</time></trkpt><trkpt lat="48.98236620419625" lon="6.899856322487474"><ele>229.0</ele><time>2026-05-02T19:03:00.999Z</time></trkpt><trkpt lat="48.98225934554666" lon="6.899868737149141"><ele>228.6</ele><time>2026-05-02T19:03:02.999Z</time></trkpt><trkpt lat="48.982149724577354" lon="6.899914347669536"><ele>228.2</ele><time>2026-05-02T19:03:04.999Z</time></trkpt><trkpt lat="48.98206513215244" lon="6.899939678502504"><ele>227.79999999999998</ele><time>2026-05-02T19:03:06.999Z</time></trkpt><trkpt lat="48.981949958698884" lon="6.900001480614752"><ele>227.39999999999998</ele><time>2026-05-02T19:03:08.999Z</time></trkpt><trkpt lat="48.98184897109434" lon="6.900051239108513"><ele>227.0</ele><time>2026-05-02T19:03:10.999Z</time></trkpt><trkpt lat="48.98175090545516" lon="6.900118194193961"><ele>226.5</ele><time>2026-05-02T19:03:12.999Z</time></trkpt><trkpt lat="48.98167013576362" lon="6.900222156715838"><ele>226.0</ele><time>2026-05-02T19:03:14.999Z</time></trkpt><trkpt lat="48.98161904276436" lon="6.9003694770476"><ele>225.5</ele><time>2026-05-02T19:03:16.999Z</time></trkpt><trkpt lat="48.98160105052257" lon="6.900553800060599"><ele>225.0</ele><time>2026-05-02T19:03:18.999Z</time></trkpt><trkpt lat="48.98162976319547" lon="6.900729610086674"><ele>225.0</ele><time>2026-05-02T19:03:20.999Z</time></trkpt><trkpt lat="48.981661752538024" lon="6.9009042873365365"><ele>225.0</ele><time>2026-05-02T19:03:22.999Z</time></trkpt><trkpt lat="48.981675573445635" lon="6.901005124268411"><ele>225.0</ele><time>2026-05-02T19:03:23.999Z</time></trkpt><trkpt lat="48.98168954018591" lon="6.9011108979029965"><ele>225.0</ele><time>2026-05-02T19:03:24.999Z</time></trkpt><trkpt lat="48.98171716097574" lon="6.9012829103636335"><ele>225.0</ele><time>2026-05-02T19:03:26.999Z</time></trkpt><trkpt lat="48.9817655731922" lon="6.901460294300357"><ele>225.2</ele><time>2026-05-02T19:03:28.999Z</time></trkpt><trkpt lat="48.98178745155136" lon="6.901552140521858"><ele>225.4</ele><time>2026-05-02T19:03:29.999Z</time></trkpt><trkpt lat="48.981822333499544" lon="6.901724003905418"><ele>225.60000000000002</ele><time>2026-05-02T19:03:32Z</time></trkpt><trkpt lat="48.98185308614475" lon="6.901905901587921"><ele>225.8</ele><time>2026-05-02T19:03:34Z</time></trkpt><trkpt lat="48.981866901183885" lon="6.902068014307403"><ele>226.0</ele><time>2026-05-02T19:03:36Z</time></trkpt><trkpt lat="48.981877994410404" lon="6.902233194253485"><ele>225.4</ele><time>2026-05-02T19:03:38Z</time></trkpt><trkpt lat="48.981845843253396" lon="6.902343404521753"><ele>224.8</ele><time>2026-05-02T19:03:40Z</time></trkpt><trkpt lat="48.98175651346731" lon="6.902455062329203"><ele>224.20000000000002</ele><time>2026-05-02T19:03:42Z</time></trkpt><trkpt lat="48.98165233234617" lon="6.902537109539226"><ele>223.60000000000002</ele><time>2026-05-02T19:03:44Z</time></trkpt><trkpt lat="48.98155075557531" lon="6.902624681514607"><ele>223.0</ele><time>2026-05-02T19:03:46Z</time></trkpt><trkpt lat="48.981492371990775" lon="6.902679574222111"><ele>222.71428571428572</ele><time>2026-05-02T19:03:47Z</time></trkpt><trkpt lat="48.98143117850015" lon="6.902734872547269"><ele>222.42857142857142</ele><time>2026-05-02T19:03:48Z</time></trkpt><trkpt lat="48.98137600951629" lon="6.902788431765438"><ele>222.14285714285717</ele><time>2026-05-02T19:03:49Z</time></trkpt><trkpt lat="48.98132094567189" lon="6.902845538547905"><ele>221.85714285714286</ele><time>2026-05-02T19:03:50Z</time></trkpt><trkpt lat="48.981266523512886" lon="6.9029080575228665"><ele>221.57142857142858</ele><time>2026-05-02T19:03:51Z</time></trkpt><trkpt lat="48.98121381443229" lon="6.902968470188071"><ele>221.2857142857143</ele><time>2026-05-02T19:03:52Z</time></trkpt><trkpt lat="48.981161026736274" lon="6.903025618182701"><ele>221.0</ele><time>2026-05-02T19:03:53Z</time></trkpt><trkpt lat="48.981100953936995" lon="6.903077618053034"><ele>221.00000000000003</ele><time>2026-05-02T19:03:54Z</time></trkpt><trkpt lat="48.98103426705987" lon="6.903124443100864"><ele>221.0</ele><time>2026-05-02T19:03:55Z</time></trkpt><trkpt lat="48.98096827976117" lon="6.903169984154699"><ele>221.0</ele><time>2026-05-02T19:03:56Z</time></trkpt><trkpt lat="48.98090153079168" lon="6.903214105165189"><ele>221.0</ele><time>2026-05-02T19:03:57Z</time></trkpt><trkpt lat="48.980844387536976" lon="6.903266215521448"><ele>221.0</ele><time>2026-05-02T19:03:58Z</time></trkpt><trkpt lat="48.98078315681223" lon="6.903321753279314"><ele>221.00000000000003</ele><time>2026-05-02T19:03:59Z</time></trkpt><trkpt lat="48.98072190430263" lon="6.903394060985788"><ele>221.0</ele><time>2026-05-02T19:04:00Z</time></trkpt><trkpt lat="48.98065952902164" lon="6.9034641673234365"><ele>220.83333333333334</ele><time>2026-05-02T19:04:01Z</time></trkpt><trkpt lat="48.98059571108815" lon="6.9035339871546535"><ele>220.66666666666669</ele><time>2026-05-02T19:04:02Z</time></trkpt><trkpt lat="48.98053259922143" lon="6.903602584687343"><ele>220.5</ele><time>2026-05-02T19:04:03Z</time></trkpt><trkpt lat="48.980468079737726" lon="6.903673506221664"><ele>220.33333333333331</ele><time>2026-05-02T19:04:04Z</time></trkpt><trkpt lat="48.98040813683416" lon="6.903736854481852"><ele>220.16666666666666</ele><time>2026-05-02T19:04:05Z</time></trkpt><trkpt lat="48.980348979213275" lon="6.903789968659954"><ele>220.0</ele><time>2026-05-02T19:04:06Z</time></trkpt><trkpt lat="48.980280237345056" lon="6.903849738245315"><ele>220.0</ele><time>2026-05-02T19:04:07Z</time></trkpt><trkpt lat="48.98021100694945" lon="6.903914642852471"><ele>220.0</ele><time>2026-05-02T19:04:08Z</time></trkpt><trkpt lat="48.98013275897964" lon="6.9039773734873355"><ele>220.0</ele><time>2026-05-02T19:04:09Z</time></trkpt><trkpt lat="48.98004141131717" lon="6.904037204408342"><ele>220.0</ele><time>2026-05-02T19:04:10Z</time></trkpt><trkpt lat="48.979946405919506" lon="6.9040810353590825"><ele>220.0</ele><time>2026-05-02T19:04:11Z</time></trkpt><trkpt lat="48.97982131553621" lon="6.904091768629312"><ele>220.0</ele><time>2026-05-02T19:04:12Z</time></trkpt><trkpt lat="48.97969657978623" lon="6.904154565353276"><ele>220.0</ele><time>2026-05-02T19:04:13Z</time></trkpt><trkpt lat="48.979575088457615" lon="6.904197954479381"><ele>220.0</ele><time>2026-05-02T19:04:14Z</time></trkpt><trkpt lat="48.9794502319549" lon="6.904258066729342"><ele>220.0</ele><time>2026-05-02T19:04:15Z</time></trkpt><trkpt lat="48.979322236041476" lon="6.904318708792325"><ele>219.5</ele><time>2026-05-02T19:04:16Z</time></trkpt><trkpt lat="48.979187119090376" lon="6.904378613975948"><ele>219.0</ele><time>2026-05-02T19:04:17Z</time></trkpt><trkpt lat="48.9790480229828" lon="6.904443005500645"><ele>218.5</ele><time>2026-05-02T19:04:18Z</time></trkpt><trkpt lat="48.97890651773812" lon="6.904507079076528"><ele>218.0</ele><time>2026-05-02T19:04:19Z</time></trkpt><trkpt lat="48.97876348393791" lon="6.904562710106882"><ele>218.0</ele><time>2026-05-02T19:04:20Z</time></trkpt><trkpt lat="48.978628819662624" lon="6.9046126046445675"><ele>218.0</ele><time>2026-05-02T19:04:21Z</time></trkpt><trkpt lat="48.97849196695247" lon="6.904657944018995"><ele>218.0</ele><time>2026-05-02T19:04:22Z</time></trkpt><trkpt lat="48.978345180276854" lon="6.9046900481912905"><ele>218.0</ele><time>2026-05-02T19:04:23Z</time></trkpt><trkpt lat="48.97820016263375" lon="6.904714063031694"><ele>218.75</ele><time>2026-05-02T19:04:24Z</time></trkpt><trkpt lat="48.97805243287813" lon="6.904739862270856"><ele>219.5</ele><time>2026-05-02T19:04:25Z</time></trkpt><trkpt lat="48.97790396195154" lon="6.904759341864965"><ele>220.25</ele><time>2026-05-02T19:04:26Z</time></trkpt><trkpt lat="48.9777684220115" lon="6.904779632511104"><ele>221.0</ele><time>2026-05-02T19:04:27Z</time></trkpt><trkpt lat="48.977638088033494" lon="6.904786099883551"><ele>220.75</ele><time>2026-05-02T19:04:28Z</time></trkpt><trkpt lat="48.977510975080655" lon="6.904784478978686"><ele>220.5</ele><time>2026-05-02T19:04:29Z</time></trkpt><trkpt lat="48.97738707237277" lon="6.904780388978887"><ele>220.25</ele><time>2026-05-02T19:04:30Z</time></trkpt><trkpt lat="48.977267735657904" lon="6.904778124088278"><ele>220.0</ele><time>2026-05-02T19:04:31Z</time></trkpt><trkpt lat="48.97715593802838" lon="6.904786097430694"><ele>220.0</ele><time>2026-05-02T19:04:32Z</time></trkpt><trkpt lat="48.977050479505316" lon="6.904830729053969"><ele>220.0</ele><time>2026-05-02T19:04:33Z</time></trkpt><trkpt lat="48.97695985343504" lon="6.904921232788247"><ele>220.0</ele><time>2026-05-02T19:04:34Z</time></trkpt><trkpt lat="48.97686239285874" lon="6.905064694352569"><ele>220.0</ele><time>2026-05-02T19:04:35Z</time></trkpt><trkpt lat="48.97677581091307" lon="6.90522698504472"><ele>219.25</ele><time>2026-05-02T19:04:36Z</time></trkpt><trkpt lat="48.976696246115196" lon="6.9053865723284265"><ele>218.5</ele><time>2026-05-02T19:04:37Z</time></trkpt><trkpt lat="48.97663387347007" lon="6.905542873869615"><ele>217.75</ele><time>2026-05-02T19:04:38Z</time></trkpt><trkpt lat="48.9765815225663" lon="6.905698700732695"><ele>217.0</ele><time>2026-05-02T19:04:39Z</time></trkpt><trkpt lat="48.976544437465535" lon="6.90585744646774"><ele>217.5</ele><time>2026-05-02T19:04:40Z</time></trkpt><trkpt lat="48.97651614355853" lon="6.906032473280526"><ele>218.0</ele><time>2026-05-02T19:04:41Z</time></trkpt><trkpt lat="48.97648497059393" lon="6.9062128673510585"><ele>218.5</ele><time>2026-05-02T19:04:42Z</time></trkpt><trkpt lat="48.97647269706942" lon="6.906401247210695"><ele>219.0</ele><time>2026-05-02T19:04:43Z</time></trkpt><trkpt lat="48.97646176352028" lon="6.906590533096974"><ele>219.75</ele><time>2026-05-02T19:04:44Z</time></trkpt><trkpt lat="48.97644929455672" lon="6.90677797744415"><ele>220.5</ele><time>2026-05-02T19:04:45Z</time></trkpt><trkpt lat="48.97643098932169" lon="6.906966974806866"><ele>221.25</ele><time>2026-05-02T19:04:46Z</time></trkpt><trkpt lat="48.97641481081367" lon="6.90715483992959"><ele>222.0</ele><time>2026-05-02T19:04:47Z</time></trkpt><trkpt lat="48.97640163070938" lon="6.907323805598669"><ele>222.0</ele><time>2026-05-02T19:04:48Z</time></trkpt><trkpt lat="48.97639589619821" lon="6.9074743101604135"><ele>222.0</ele><time>2026-05-02T19:04:49Z</time></trkpt><trkpt lat="48.97639136441633" lon="6.9076290135814435"><ele>222.0</ele><time>2026-05-02T19:04:49.999Z</time></trkpt><trkpt lat="48.9763914267932" lon="6.9077811051983495"><ele>222.0</ele><time>2026-05-02T19:04:50.999Z</time></trkpt><trkpt lat="48.97639129296449" lon="6.90791089071088"><ele>222.0</ele><time>2026-05-02T19:04:51.999Z</time></trkpt><trkpt lat="48.97638249046729" lon="6.908011504796657"><ele>222.39999999999998</ele><time>2026-05-02T19:04:52.999Z</time></trkpt><trkpt lat="48.9763187823032" lon="6.908156173588108"><ele>222.79999999999998</ele><time>2026-05-02T19:04:54.999Z</time></trkpt><trkpt lat="48.976209019335506" lon="6.908109807375045"><ele>223.2</ele><time>2026-05-02T19:04:55.999Z</time></trkpt><trkpt lat="48.97612170059686" lon="6.908107788446829"><ele>223.6</ele><time>2026-05-02T19:04:56.999Z</time></trkpt><trkpt lat="48.976027667173874" lon="6.908096250264908"><ele>224.0</ele><time>2026-05-02T19:04:57.999Z</time></trkpt><trkpt lat="48.975924431757164" lon="6.9081167297361"><ele>224.0</ele><time>2026-05-02T19:04:58.999Z</time></trkpt><trkpt lat="48.97582063314144" lon="6.9081484762191545"><ele>223.99999999999997</ele><time>2026-05-02T19:04:59.999Z</time></trkpt><trkpt lat="48.97572114464563" lon="6.908168702830116"><ele>223.99999999999997</ele><time>2026-05-02T19:05:00.999Z</time></trkpt><trkpt lat="48.97561926980912" lon="6.908186776495878"><ele>224.0</ele><time>2026-05-02T19:05:01.999Z</time></trkpt><trkpt lat="48.975509890880566" lon="6.908205050196395"><ele>224.0</ele><time>2026-05-02T19:05:02.999Z</time></trkpt><trkpt lat="48.97538767361164" lon="6.9082277442437965"><ele>224.0</ele><time>2026-05-02T19:05:03.999Z</time></trkpt><trkpt lat="48.97526285974547" lon="6.908249540693794"><ele>224.0</ele><time>2026-05-02T19:05:04.999Z</time></trkpt><trkpt lat="48.97513369614543" lon="6.908274551519294"><ele>224.0</ele><time>2026-05-02T19:05:05.999Z</time></trkpt><trkpt lat="48.975002968081974" lon="6.908297840351222"><ele>224.0</ele><time>2026-05-02T19:05:06.999Z</time></trkpt><trkpt lat="48.97488057789658" lon="6.908320468673221"><ele>222.75</ele><time>2026-05-02T19:05:07.999Z</time></trkpt><trkpt lat="48.974756518993864" lon="6.90833190727458"><ele>221.5</ele><time>2026-05-02T19:05:08.999Z</time></trkpt><trkpt lat="48.97462607775936" lon="6.9083429505219875"><ele>220.25</ele><time>2026-05-02T19:05:09.999Z</time></trkpt><trkpt lat="48.97449398207748" lon="6.9083494445260785"><ele>219.0</ele><time>2026-05-02T19:05:10.999Z</time></trkpt><trkpt lat="48.97436138288189" lon="6.9083708540195845"><ele>219.0</ele><time>2026-05-02T19:05:11.999Z</time></trkpt><trkpt lat="48.97422719759687" lon="6.908391063669813"><ele>219.0</ele><time>2026-05-02T19:05:12.999Z</time></trkpt><trkpt lat="48.97409332703723" lon="6.908412836452249"><ele>219.0</ele><time>2026-05-02T19:05:13.999Z</time></trkpt><trkpt lat="48.973957958572036" lon="6.908438166418703"><ele>219.0</ele><time>2026-05-02T19:05:14.999Z</time></trkpt><trkpt lat="48.973822116558274" lon="6.908463798582206"><ele>217.75</ele><time>2026-05-02T19:05:15.999Z</time></trkpt><trkpt lat="48.973687082674196" lon="6.9084896198105"><ele>216.5</ele><time>2026-05-02T19:05:16.999Z</time></trkpt><trkpt lat="48.9735514389882" lon="6.908514376153072"><ele>215.25</ele><time>2026-05-02T19:05:17.999Z</time></trkpt><trkpt lat="48.97341794750944" lon="6.908544777807813"><ele>214.0</ele><time>2026-05-02T19:05:18.999Z</time></trkpt><trkpt lat="48.97328434012025" lon="6.908575386505876"><ele>213.5</ele><time>2026-05-02T19:05:19.999Z</time></trkpt><trkpt lat="48.97315016249058" lon="6.908607715392344"><ele>213.0</ele><time>2026-05-02T19:05:20.999Z</time></trkpt><trkpt lat="48.97301519210362" lon="6.9086388388172635"><ele>212.5</ele><time>2026-05-02T19:05:21.999Z</time></trkpt><trkpt lat="48.9728787609566" lon="6.908667016422396"><ele>212.0</ele><time>2026-05-02T19:05:22.999Z</time></trkpt><trkpt lat="48.97274602733271" lon="6.908694353148013"><ele>212.0</ele><time>2026-05-02T19:05:23.999Z</time></trkpt><trkpt lat="48.97261899938673" lon="6.908724233503474"><ele>212.0</ele><time>2026-05-02T19:05:24.999Z</time></trkpt><trkpt lat="48.97249224650375" lon="6.908749418044809"><ele>212.0</ele><time>2026-05-02T19:05:25.999Z</time></trkpt><trkpt lat="48.97236519377818" lon="6.908775816817726"><ele>212.0</ele><time>2026-05-02T19:05:26.999Z</time></trkpt><trkpt lat="48.97224127680015" lon="6.9087974250407544"><ele>212.6</ele><time>2026-05-02T19:05:27.999Z</time></trkpt><trkpt lat="48.97212864858837" lon="6.908816545333254"><ele>213.2</ele><time>2026-05-02T19:05:28.999Z</time></trkpt><trkpt lat="48.97202776998979" lon="6.908833186418275"><ele>213.8</ele><time>2026-05-02T19:05:29.999Z</time></trkpt><trkpt lat="48.971934759797335" lon="6.9088432647616305"><ele>214.4</ele><time>2026-05-02T19:05:30.999Z</time></trkpt><trkpt lat="48.97185361715498" lon="6.908843056749165"><ele>215.0</ele><time>2026-05-02T19:05:31.999Z</time></trkpt><trkpt lat="48.97178683509797" lon="6.9088377039393025"><ele>215.00000000000003</ele><time>2026-05-02T19:05:32.999Z</time></trkpt><trkpt lat="48.97169927600838" lon="6.908824254743012"><ele>215.0</ele><time>2026-05-02T19:05:34.999Z</time></trkpt><trkpt lat="48.971626898852115" lon="6.908893208792386"><ele>215.0</ele><time>2026-05-02T19:05:37Z</time></trkpt><trkpt lat="48.971609182374536" lon="6.909004195065738"><ele>215.0</ele><time>2026-05-02T19:05:38Z</time></trkpt><trkpt lat="48.9716029184048" lon="6.909151043898598"><ele>215.00000000000003</ele><time>2026-05-02T19:05:39Z</time></trkpt><trkpt lat="48.971610179384754" lon="6.909278452637397"><ele>215.0</ele><time>2026-05-02T19:05:40Z</time></trkpt><trkpt lat="48.971624595890496" lon="6.90941434372387"><ele>215.00000000000003</ele><time>2026-05-02T19:05:41Z</time></trkpt><trkpt lat="48.97161535163348" lon="6.909563048955745"><ele>215.0</ele><time>2026-05-02T19:05:42Z</time></trkpt><trkpt lat="48.97163919946971" lon="6.909697201499704"><ele>215.0</ele><time>2026-05-02T19:05:43Z</time></trkpt><trkpt lat="48.97162945215707" lon="6.9098263072959645"><ele>215.0</ele><time>2026-05-02T19:05:44Z</time></trkpt><trkpt lat="48.97164208501657" lon="6.909947332332396"><ele>215.00000000000003</ele><time>2026-05-02T19:05:45Z</time></trkpt><trkpt lat="48.97160496362762" lon="6.91005033941689"><ele>215.0</ele><time>2026-05-02T19:05:46Z</time></trkpt><trkpt lat="48.971521314823946" lon="6.910095358704206"><ele>215.0</ele><time>2026-05-02T19:05:47Z</time></trkpt><trkpt lat="48.97144390137222" lon="6.910173541873973"><ele>215.0</ele><time>2026-05-02T19:05:48Z</time></trkpt><trkpt lat="48.97135089215654" lon="6.9102807154758805"><ele>215.0</ele><time>2026-05-02T19:05:49Z</time></trkpt><trkpt lat="48.971282722043306" lon="6.9104181784040835"><ele>215.0</ele><time>2026-05-02T19:05:50Z</time></trkpt><trkpt lat="48.971224209591085" lon="6.910553789485625"><ele>215.0</ele><time>2026-05-02T19:05:51Z</time></trkpt><trkpt lat="48.97115283210152" lon="6.910670680372436"><ele>215.0</ele><time>2026-05-02T19:05:52Z</time></trkpt><trkpt lat="48.971091895659576" lon="6.910804706649593"><ele>215.0</ele><time>2026-05-02T19:05:53Z</time></trkpt><trkpt lat="48.97102897200937" lon="6.910949012925731"><ele>215.0</ele><time>2026-05-02T19:05:54Z</time></trkpt><trkpt lat="48.9709614084064" lon="6.911082233403592"><ele>215.0</ele><time>2026-05-02T19:05:55Z</time></trkpt><trkpt lat="48.97090770720123" lon="6.911213814904481"><ele>215.0</ele><time>2026-05-02T19:05:56Z</time></trkpt><trkpt lat="48.97085917256202" lon="6.911332437481478"><ele>215.2</ele><time>2026-05-02T19:05:57Z</time></trkpt><trkpt lat="48.97080683600615" lon="6.911431316551614"><ele>215.4</ele><time>2026-05-02T19:05:58Z</time></trkpt><trkpt lat="48.97075336371875" lon="6.911492662028195"><ele>215.60000000000002</ele><time>2026-05-02T19:05:59Z</time></trkpt><trkpt lat="48.970589934354244" lon="6.9113753278538"><ele>215.8</ele><time>2026-05-02T19:06:01Z</time></trkpt><trkpt lat="48.97050961631085" lon="6.911297394692203"><ele>216.0</ele><time>2026-05-02T19:06:02Z</time></trkpt><trkpt lat="48.97041241545781" lon="6.911285432303354"><ele>216.0</ele><time>2026-05-02T19:06:03Z</time></trkpt><trkpt lat="48.97032621353413" lon="6.911323769704411"><ele>216.0</ele><time>2026-05-02T19:06:04Z</time></trkpt><trkpt lat="48.970259477071714" lon="6.911377923392957"><ele>216.0</ele><time>2026-05-02T19:06:05Z</time></trkpt><trkpt lat="48.97018937659007" lon="6.911430898173334"><ele>216.0</ele><time>2026-05-02T19:06:06Z</time></trkpt><trkpt lat="48.97013498453749" lon="6.911555660037155"><ele>216.0</ele><time>2026-05-02T19:06:07Z</time></trkpt><trkpt lat="48.9700673518044" lon="6.911674124087797"><ele>216.0</ele><time>2026-05-02T19:06:08Z</time></trkpt><trkpt lat="48.969993414455196" lon="6.9118014528894935"><ele>217.0</ele><time>2026-05-02T19:06:09Z</time></trkpt><trkpt lat="48.9699165958229" lon="6.911937760816374"><ele>218.0</ele><time>2026-05-02T19:06:10Z</time></trkpt><trkpt lat="48.96983711913026" lon="6.912071647569912"><ele>219.0</ele><time>2026-05-02T19:06:11Z</time></trkpt><trkpt lat="48.969758408879805" lon="6.912200467117112"><ele>220.0</ele><time>2026-05-02T19:06:12Z</time></trkpt><trkpt lat="48.96968216252286" lon="6.9123267882376425"><ele>220.0</ele><time>2026-05-02T19:06:13Z</time></trkpt><trkpt lat="48.969608706775844" lon="6.9124502877187055"><ele>220.0</ele><time>2026-05-02T19:06:14Z</time></trkpt><trkpt lat="48.96953243449374" lon="6.912550277177928"><ele>220.0</ele><time>2026-05-02T19:06:15Z</time></trkpt><trkpt lat="48.96945568097798" lon="6.91260603088544"><ele>220.0</ele><time>2026-05-02T19:06:16Z</time></trkpt><trkpt lat="48.96939085566833" lon="6.912636813732074"><ele>220.0</ele><time>2026-05-02T19:06:17Z</time></trkpt><trkpt lat="48.96931044376609" lon="6.912494177873402"><ele>220.0</ele><time>2026-05-02T19:06:18Z</time></trkpt><trkpt lat="48.969221804219764" lon="6.912388861140061"><ele>220.0</ele><time>2026-05-02T19:06:19Z</time></trkpt><trkpt lat="48.96914591302279" lon="6.912236123995371"><ele>220.0</ele><time>2026-05-02T19:06:20Z</time></trkpt><trkpt lat="48.96906001671391" lon="6.912101444207985"><ele>220.0</ele><time>2026-05-02T19:06:21Z</time></trkpt><trkpt lat="48.968972358216924" lon="6.911975840045597"><ele>220.5</ele><time>2026-05-02T19:06:22Z</time></trkpt><trkpt lat="48.96887739689108" lon="6.91185585267627"><ele>221.0</ele><time>2026-05-02T19:06:23Z</time></trkpt><trkpt lat="48.96877645523082" lon="6.9117445765985375"><ele>221.5</ele><time>2026-05-02T19:06:24Z</time></trkpt><trkpt lat="48.968671912602964" lon="6.911650769159577"><ele>222.0</ele><time>2026-05-02T19:06:25Z</time></trkpt><trkpt lat="48.96857085160191" lon="6.911568322099368"><ele>222.0</ele><time>2026-05-02T19:06:26Z</time></trkpt><trkpt lat="48.96846495809741" lon="6.911508384094518"><ele>222.0</ele><time>2026-05-02T19:06:27Z</time></trkpt><trkpt lat="48.96835012273292" lon="6.911478369877576"><ele>222.0</ele><time>2026-05-02T19:06:28Z</time></trkpt><trkpt lat="48.96822789991695" lon="6.911494202141474"><ele>222.0</ele><time>2026-05-02T19:06:29Z</time></trkpt><trkpt lat="48.96810535679716" lon="6.911558606995928"><ele>222.75</ele><time>2026-05-02T19:06:30Z</time></trkpt><trkpt lat="48.967987081489646" lon="6.911667793081599"><ele>223.5</ele><time>2026-05-02T19:06:31Z</time></trkpt><trkpt lat="48.96786881224992" lon="6.911810926021177"><ele>224.25</ele><time>2026-05-02T19:06:32Z</time></trkpt><trkpt lat="48.96774614183647" lon="6.911928483788423"><ele>225.0</ele><time>2026-05-02T19:06:33Z</time></trkpt><trkpt lat="48.96763382509703" lon="6.912009163733202"><ele>225.0</ele><time>2026-05-02T19:06:34Z</time></trkpt><trkpt lat="48.967526136123205" lon="6.912055807160058"><ele>225.0</ele><time>2026-05-02T19:06:35Z</time></trkpt><trkpt lat="48.96741754526521" lon="6.912075542886681"><ele>225.0</ele><time>2026-05-02T19:06:36Z</time></trkpt><trkpt lat="48.967295352636874" lon="6.912087284490684"><ele>225.0</ele><time>2026-05-02T19:06:37Z</time></trkpt><trkpt lat="48.9671650590039" lon="6.912015107615581"><ele>225.0</ele><time>2026-05-02T19:06:38Z</time></trkpt><trkpt lat="48.9670315333621" lon="6.9119458072325815"><ele>225.0</ele><time>2026-05-02T19:06:39Z</time></trkpt><trkpt lat="48.96688631675356" lon="6.911884757681413"><ele>225.0</ele><time>2026-05-02T19:06:40Z</time></trkpt><trkpt lat="48.966743650105585" lon="6.911782771879085"><ele>225.0</ele><time>2026-05-02T19:06:41Z</time></trkpt><trkpt lat="48.96659833496478" lon="6.911681519888681"><ele>225.66666666666669</ele><time>2026-05-02T19:06:42Z</time></trkpt><trkpt lat="48.966452732538116" lon="6.911585030412272"><ele>226.33333333333334</ele><time>2026-05-02T19:06:43Z</time></trkpt><trkpt lat="48.96630999141572" lon="6.911491311903232"><ele>227.0</ele><time>2026-05-02T19:06:44Z</time></trkpt><trkpt lat="48.966174739173645" lon="6.911401692583296"><ele>227.0</ele><time>2026-05-02T19:06:45Z</time></trkpt><trkpt lat="48.96604864185654" lon="6.911323330870557"><ele>227.0</ele><time>2026-05-02T19:06:46Z</time></trkpt><trkpt lat="48.96592018777548" lon="6.911259526412533"><ele>227.0</ele><time>2026-05-02T19:06:47Z</time></trkpt><trkpt lat="48.96577555583277" lon="6.91121790879254"><ele>227.0</ele><time>2026-05-02T19:06:48Z</time></trkpt><trkpt lat="48.965623930925275" lon="6.911206285977465"><ele>227.0</ele><time>2026-05-02T19:06:48.999Z</time></trkpt><trkpt lat="48.96546623476437" lon="6.911221967785999"><ele>227.0</ele><time>2026-05-02T19:06:49.999Z</time></trkpt><trkpt lat="48.96530402796624" lon="6.911261983439709"><ele>227.0</ele><time>2026-05-02T19:06:50.999Z</time></trkpt><trkpt lat="48.96514090860013" lon="6.911279419684162"><ele>226.25</ele><time>2026-05-02T19:06:51.999Z</time></trkpt><trkpt lat="48.96498821167426" lon="6.911312952391931"><ele>225.5</ele><time>2026-05-02T19:06:52.999Z</time></trkpt><trkpt lat="48.96484200831439" lon="6.911345622330234"><ele>224.75</ele><time>2026-05-02T19:06:53.999Z</time></trkpt><trkpt lat="48.96470112096902" lon="6.9114039392718984"><ele>224.0</ele><time>2026-05-02T19:06:54.999Z</time></trkpt><trkpt lat="48.96455984442109" lon="6.911435519264238"><ele>224.0</ele><time>2026-05-02T19:06:55.999Z</time></trkpt><trkpt lat="48.96442112060203" lon="6.911470073777852"><ele>224.0</ele><time>2026-05-02T19:06:56.999Z</time></trkpt><trkpt lat="48.96428201279374" lon="6.911481607100722"><ele>224.0</ele><time>2026-05-02T19:06:57.999Z</time></trkpt><trkpt lat="48.964146089042785" lon="6.91152233615759"><ele>224.0</ele><time>2026-05-02T19:06:58.999Z</time></trkpt><trkpt lat="48.96400658243545" lon="6.911575213020253"><ele>223.75</ele><time>2026-05-02T19:06:59.999Z</time></trkpt><trkpt lat="48.963880472084" lon="6.911672303242279"><ele>223.5</ele><time>2026-05-02T19:07:00.999Z</time></trkpt><trkpt lat="48.963778216400854" lon="6.911786369915673"><ele>223.25</ele><time>2026-05-02T19:07:01.999Z</time></trkpt><trkpt lat="48.96369334138723" lon="6.911931959272203"><ele>223.0</ele><time>2026-05-02T19:07:02.999Z</time></trkpt><trkpt lat="48.96359017262386" lon="6.912079484722076"><ele>222.5</ele><time>2026-05-02T19:07:03.999Z</time></trkpt><trkpt lat="48.963503363015136" lon="6.912255112140813"><ele>222.0</ele><time>2026-05-02T19:07:04.999Z</time></trkpt><trkpt lat="48.963422000377314" lon="6.912434373129583"><ele>221.5</ele><time>2026-05-02T19:07:05.999Z</time></trkpt><trkpt lat="48.96334944631684" lon="6.912603870707805"><ele>221.0</ele><time>2026-05-02T19:07:06.999Z</time></trkpt><trkpt lat="48.963282361565234" lon="6.912782963630968"><ele>220.75</ele><time>2026-05-02T19:07:07.999Z</time></trkpt><trkpt lat="48.963227964543485" lon="6.912981135006691"><ele>220.5</ele><time>2026-05-02T19:07:08.999Z</time></trkpt><trkpt lat="48.96318209670265" lon="6.9131876479010925"><ele>220.25</ele><time>2026-05-02T19:07:09.999Z</time></trkpt><trkpt lat="48.96313898937024" lon="6.9133946811368086"><ele>220.0</ele><time>2026-05-02T19:07:10.999Z</time></trkpt><trkpt lat="48.96309194839618" lon="6.913585898338436"><ele>220.0</ele><time>2026-05-02T19:07:11.999Z</time></trkpt><trkpt lat="48.963037740306056" lon="6.913751443989026"><ele>220.0</ele><time>2026-05-02T19:07:12.999Z</time></trkpt><trkpt lat="48.96296123680625" lon="6.913898822763614"><ele>220.0</ele><time>2026-05-02T19:07:13.999Z</time></trkpt><trkpt lat="48.962858854277336" lon="6.914031072089354"><ele>220.0</ele><time>2026-05-02T19:07:14.999Z</time></trkpt><trkpt lat="48.96274114325774" lon="6.91415091037651"><ele>220.33333333333331</ele><time>2026-05-02T19:07:15.999Z</time></trkpt><trkpt lat="48.962619487151116" lon="6.9142743965648705"><ele>220.66666666666669</ele><time>2026-05-02T19:07:16.999Z</time></trkpt><trkpt lat="48.96249375877348" lon="6.914401707008813"><ele>221.0</ele><time>2026-05-02T19:07:17.999Z</time></trkpt><trkpt lat="48.962365179381216" lon="6.914532721470161"><ele>221.0</ele><time>2026-05-02T19:07:18.999Z</time></trkpt><trkpt lat="48.962236195520305" lon="6.914665426366998"><ele>221.0</ele><time>2026-05-02T19:07:19.999Z</time></trkpt><trkpt lat="48.96210712129376" lon="6.914798224027181"><ele>221.0</ele><time>2026-05-02T19:07:20.999Z</time></trkpt><trkpt lat="48.961981546555144" lon="6.91492742133623"><ele>221.0</ele><time>2026-05-02T19:07:21.999Z</time></trkpt><trkpt lat="48.96185980231424" lon="6.915052679487055"><ele>221.0</ele><time>2026-05-02T19:07:22.999Z</time></trkpt><trkpt lat="48.96173479530508" lon="6.9151823969716455"><ele>221.0</ele><time>2026-05-02T19:07:23.999Z</time></trkpt><trkpt lat="48.96160849761986" lon="6.9153184702745785"><ele>222.33333333333334</ele><time>2026-05-02T19:07:24.999Z</time></trkpt><trkpt lat="48.9614940573512" lon="6.915474621198786"><ele>223.66666666666669</ele><time>2026-05-02T19:07:25.999Z</time></trkpt><trkpt lat="48.961399975527094" lon="6.915660535474828"><ele>225.0</ele><time>2026-05-02T19:07:26.999Z</time></trkpt><trkpt lat="48.961327156432105" lon="6.915874813860662"><ele>225.5</ele><time>2026-05-02T19:07:27.999Z</time></trkpt><trkpt lat="48.96126985713016" lon="6.916085826631404"><ele>226.0</ele><time>2026-05-02T19:07:28.999Z</time></trkpt><trkpt lat="48.96122039144099" lon="6.916285148254287"><ele>226.5</ele><time>2026-05-02T19:07:29.999Z</time></trkpt><trkpt lat="48.96116734664426" lon="6.916457754967223"><ele>227.0</ele><time>2026-05-02T19:07:30.999Z</time></trkpt><trkpt lat="48.96109441086328" lon="6.916608393248148"><ele>228.0</ele><time>2026-05-02T19:07:31.999Z</time></trkpt><trkpt lat="48.96098513192474" lon="6.916751733753089"><ele>229.0</ele><time>2026-05-02T19:07:32.999Z</time></trkpt><trkpt lat="48.96085105008461" lon="6.916892488377216"><ele>230.0</ele><time>2026-05-02T19:07:33.999Z</time></trkpt><trkpt lat="48.96071444757036" lon="6.917036792234461"><ele>230.0</ele><time>2026-05-02T19:07:34.999Z</time></trkpt><trkpt lat="48.96057646417942" lon="6.917187528675894"><ele>230.0</ele><time>2026-05-02T19:07:35.999Z</time></trkpt><trkpt lat="48.96044250377807" lon="6.917341312974571"><ele>230.0</ele><time>2026-05-02T19:07:36.999Z</time></trkpt><trkpt lat="48.9603060676133" lon="6.917499371546006"><ele>231.0</ele><time>2026-05-02T19:07:37.999Z</time></trkpt><trkpt lat="48.96017154683126" lon="6.917661441557663"><ele>232.0</ele><time>2026-05-02T19:07:38.999Z</time></trkpt><trkpt lat="48.96003866466321" lon="6.917828694852887"><ele>233.0</ele><time>2026-05-02T19:07:39.999Z</time></trkpt><trkpt lat="48.959908361692506" lon="6.917994273504123"><ele>233.0</ele><time>2026-05-02T19:07:40.999Z</time></trkpt><trkpt lat="48.9597788404549" lon="6.918165453499314"><ele>233.0</ele><time>2026-05-02T19:07:41.999Z</time></trkpt><trkpt lat="48.95965148209582" lon="6.918342116507864"><ele>233.0</ele><time>2026-05-02T19:07:43Z</time></trkpt><trkpt lat="48.95952147397697" lon="6.918522454530502"><ele>233.0</ele><time>2026-05-02T19:07:44Z</time></trkpt><trkpt lat="48.95939013904728" lon="6.918702605619267"><ele>233.0</ele><time>2026-05-02T19:07:45Z</time></trkpt><trkpt lat="48.9592578105031" lon="6.918880541900613"><ele>233.0</ele><time>2026-05-02T19:07:46Z</time></trkpt><trkpt lat="48.95912758922693" lon="6.919055871321219"><ele>232.33333333333334</ele><time>2026-05-02T19:07:47Z</time></trkpt><trkpt lat="48.9590005172253" lon="6.9192296109351075"><ele>231.66666666666669</ele><time>2026-05-02T19:07:48Z</time></trkpt><trkpt lat="48.95887329154173" lon="6.9194035607972255"><ele>231.0</ele><time>2026-05-02T19:07:49Z</time></trkpt><trkpt lat="48.95874462104946" lon="6.919579485909274"><ele>230.0</ele><time>2026-05-02T19:07:50Z</time></trkpt><trkpt lat="48.9586169282142" lon="6.919754074593245"><ele>229.0</ele><time>2026-05-02T19:07:51Z</time></trkpt><trkpt lat="48.958489410863514" lon="6.919931886858634"><ele>228.0</ele><time>2026-05-02T19:07:52Z</time></trkpt><trkpt lat="48.95836057712057" lon="6.920109085517445"><ele>226.33333333333331</ele><time>2026-05-02T19:07:53Z</time></trkpt><trkpt lat="48.95823093655072" lon="6.920284896294979"><ele>224.66666666666666</ele><time>2026-05-02T19:07:54Z</time></trkpt><trkpt lat="48.95810248057474" lon="6.9204550597401076"><ele>223.0</ele><time>2026-05-02T19:07:55Z</time></trkpt><trkpt lat="48.957969392743" lon="6.920609041389826"><ele>223.0</ele><time>2026-05-02T19:07:56Z</time></trkpt><trkpt lat="48.95782775269836" lon="6.9207273226387525"><ele>223.0</ele><time>2026-05-02T19:07:57Z</time></trkpt><trkpt lat="48.95768052393308" lon="6.920842600955137"><ele>223.0</ele><time>2026-05-02T19:07:58Z</time></trkpt><trkpt lat="48.95753077369629" lon="6.920973536332451"><ele>222.0</ele><time>2026-05-02T19:07:59Z</time></trkpt><trkpt lat="48.957390239822836" lon="6.921102111189379"><ele>221.0</ele><time>2026-05-02T19:08:00Z</time></trkpt><trkpt lat="48.957245856867196" lon="6.92122822270971"><ele>220.0</ele><time>2026-05-02T19:08:01Z</time></trkpt><trkpt lat="48.957103169224794" lon="6.9213577520404925"><ele>220.0</ele><time>2026-05-02T19:08:02Z</time></trkpt><trkpt lat="48.95696305261343" lon="6.921485912528027"><ele>220.0</ele><time>2026-05-02T19:08:03Z</time></trkpt><trkpt lat="48.956822017750326" lon="6.921614972014232"><ele>220.0</ele><time>2026-05-02T19:08:04Z</time></trkpt><trkpt lat="48.95668270078337" lon="6.921742720777805"><ele>219.66666666666666</ele><time>2026-05-02T19:08:05Z</time></trkpt><trkpt lat="48.95654238421536" lon="6.921874538506123"><ele>219.33333333333331</ele><time>2026-05-02T19:08:06Z</time></trkpt><trkpt lat="48.95640767782402" lon="6.9220045286937495"><ele>219.0</ele><time>2026-05-02T19:08:07Z</time></trkpt><trkpt lat="48.956276338613314" lon="6.922140274331565"><ele>219.0</ele><time>2026-05-02T19:08:08Z</time></trkpt><trkpt lat="48.95615705161106" lon="6.922267010307918"><ele>219.0</ele><time>2026-05-02T19:08:09Z</time></trkpt><trkpt lat="48.956047808881124" lon="6.92239071010155"><ele>219.0</ele><time>2026-05-02T19:08:10Z</time></trkpt><trkpt lat="48.95594104870933" lon="6.922552526791151"><ele>219.0</ele><time>2026-05-02T19:08:11Z</time></trkpt><trkpt lat="48.95585267442044" lon="6.922776407357144"><ele>220.66666666666669</ele><time>2026-05-02T19:08:12Z</time></trkpt><trkpt lat="48.95576752527646" lon="6.923026037307723"><ele>222.33333333333334</ele><time>2026-05-02T19:08:13Z</time></trkpt><trkpt lat="48.955690251208985" lon="6.923271203470681"><ele>224.0</ele><time>2026-05-02T19:08:14Z</time></trkpt><trkpt lat="48.955613328166706" lon="6.923508825603733"><ele>224.66666666666669</ele><time>2026-05-02T19:08:15Z</time></trkpt><trkpt lat="48.95553415770948" lon="6.923736258834196"><ele>225.33333333333331</ele><time>2026-05-02T19:08:16Z</time></trkpt><trkpt lat="48.95544551331175" lon="6.923951067855293"><ele>226.0</ele><time>2026-05-02T19:08:17Z</time></trkpt><trkpt lat="48.95535070265811" lon="6.924155558358116"><ele>225.66666666666666</ele><time>2026-05-02T19:08:18Z</time></trkpt><trkpt lat="48.955242326908866" lon="6.924357117179279"><ele>225.33333333333331</ele><time>2026-05-02T19:08:19Z</time></trkpt><trkpt lat="48.95513010687504" lon="6.924546276206118"><ele>225.0</ele><time>2026-05-02T19:08:20Z</time></trkpt><trkpt lat="48.955008995180386" lon="6.924724569893274"><ele>226.0</ele><time>2026-05-02T19:08:21Z</time></trkpt><trkpt lat="48.9548865541107" lon="6.924894925586911"><ele>227.0</ele><time>2026-05-02T19:08:22Z</time></trkpt><trkpt lat="48.95476571362856" lon="6.925058513431412"><ele>228.0</ele><time>2026-05-02T19:08:23Z</time></trkpt><trkpt lat="48.954642914676256" lon="6.9252148965207665"><ele>228.25</ele><time>2026-05-02T19:08:24Z</time></trkpt><trkpt lat="48.95452473572007" lon="6.925370109379741"><ele>228.5</ele><time>2026-05-02T19:08:25Z</time></trkpt><trkpt lat="48.95442817434518" lon="6.92552663084009"><ele>228.75</ele><time>2026-05-02T19:08:26Z</time></trkpt><trkpt lat="48.95435752203833" lon="6.925724036841702"><ele>229.0</ele><time>2026-05-02T19:08:27Z</time></trkpt><trkpt lat="48.95432085450643" lon="6.925952404542444"><ele>229.0</ele><time>2026-05-02T19:08:28Z</time></trkpt><trkpt lat="48.954269360212926" lon="6.926166066270592"><ele>229.0</ele><time>2026-05-02T19:08:29Z</time></trkpt><trkpt lat="48.954198975840285" lon="6.926371962496551"><ele>229.0</ele><time>2026-05-02T19:08:30Z</time></trkpt><trkpt lat="48.95411485515377" lon="6.926570979420206"><ele>231.0</ele><time>2026-05-02T19:08:31Z</time></trkpt><trkpt lat="48.9540200991583" lon="6.9267664181759585"><ele>233.0</ele><time>2026-05-02T19:08:32Z</time></trkpt><trkpt lat="48.95391762886283" lon="6.926944896992188"><ele>235.0</ele><time>2026-05-02T19:08:33Z</time></trkpt><trkpt lat="48.95380965547475" lon="6.927119903552931"><ele>235.0</ele><time>2026-05-02T19:08:34Z</time></trkpt><trkpt lat="48.953691870427136" lon="6.927279061497114"><ele>235.0</ele><time>2026-05-02T19:08:35Z</time></trkpt><trkpt lat="48.953567196725565" lon="6.927427766169578"><ele>235.0</ele><time>2026-05-02T19:08:36Z</time></trkpt><trkpt lat="48.953438875448946" lon="6.927563579284808"><ele>237.0</ele><time>2026-05-02T19:08:37Z</time></trkpt><trkpt lat="48.95331496758216" lon="6.927697902825833"><ele>239.0</ele><time>2026-05-02T19:08:38Z</time></trkpt><trkpt lat="48.95319275101851" lon="6.927833260670493"><ele>241.0</ele><time>2026-05-02T19:08:39Z</time></trkpt><trkpt lat="48.95308641247445" lon="6.927951033083491"><ele>243.0</ele><time>2026-05-02T19:08:40Z</time></trkpt><trkpt lat="48.95298978151431" lon="6.928056502228791"><ele>243.0</ele><time>2026-05-02T19:08:41Z</time></trkpt><trkpt lat="48.952890157483495" lon="6.928165115315528"><ele>243.0</ele><time>2026-05-02T19:08:42Z</time></trkpt><trkpt lat="48.95278331947146" lon="6.928279542558562"><ele>243.0</ele><time>2026-05-02T19:08:43Z</time></trkpt><trkpt lat="48.95267694729032" lon="6.928408150843175"><ele>243.0</ele><time>2026-05-02T19:08:44Z</time></trkpt><trkpt lat="48.952561158558694" lon="6.928521706288659"><ele>244.25</ele><time>2026-05-02T19:08:45Z</time></trkpt><trkpt lat="48.95243940531842" lon="6.928622966757856"><ele>245.5</ele><time>2026-05-02T19:08:46Z</time></trkpt><trkpt lat="48.95231359997748" lon="6.928711851785355"><ele>246.75</ele><time>2026-05-02T19:08:47Z</time></trkpt><trkpt lat="48.95220537503992" lon="6.928837554793546"><ele>248.0</ele><time>2026-05-02T19:08:48Z</time></trkpt><trkpt lat="48.95208932021136" lon="6.928940990626621"><ele>248.0</ele><time>2026-05-02T19:08:49Z</time></trkpt><trkpt lat="48.95197327468243" lon="6.929039075050388"><ele>248.0</ele><time>2026-05-02T19:08:50Z</time></trkpt><trkpt lat="48.95186302641623" lon="6.929143542435433"><ele>248.0</ele><time>2026-05-02T19:08:51Z</time></trkpt><trkpt lat="48.95175018300729" lon="6.929238600494794"><ele>248.0</ele><time>2026-05-02T19:08:52Z</time></trkpt><trkpt lat="48.95164948447524" lon="6.9293493502378505"><ele>248.66666666666669</ele><time>2026-05-02T19:08:53Z</time></trkpt><trkpt lat="48.951559483658045" lon="6.929444840013782"><ele>249.33333333333334</ele><time>2026-05-02T19:08:54Z</time></trkpt><trkpt lat="48.95148412995309" lon="6.929531915347671"><ele>250.0</ele><time>2026-05-02T19:08:55Z</time></trkpt><trkpt lat="48.95141821513103" lon="6.929607044127608"><ele>250.66666666666669</ele><time>2026-05-02T19:08:56Z</time></trkpt><trkpt lat="48.951354125645544" lon="6.929667657950954"><ele>251.33333333333334</ele><time>2026-05-02T19:08:57Z</time></trkpt><trkpt lat="48.95129180240087" lon="6.929720244308661"><ele>252.0</ele><time>2026-05-02T19:08:58Z</time></trkpt><trkpt lat="48.95121695185192" lon="6.929772225126419"><ele>252.0</ele><time>2026-05-02T19:08:59Z</time></trkpt><trkpt lat="48.9511354817248" lon="6.929833439471444"><ele>252.0</ele><time>2026-05-02T19:09:00Z</time></trkpt><trkpt lat="48.951059480564275" lon="6.929881159095642"><ele>252.0</ele><time>2026-05-02T19:09:00.999Z</time></trkpt><trkpt lat="48.95099372762131" lon="6.929923487426121"><ele>252.0</ele><time>2026-05-02T19:09:01.999Z</time></trkpt><trkpt lat="48.95089541958144" lon="6.930000096298641"><ele>252.0</ele><time>2026-05-02T19:09:03.999Z</time></trkpt><trkpt lat="48.950791562135414" lon="6.9300226301022345"><ele>252.8</ele><time>2026-05-02T19:09:05.999Z</time></trkpt><trkpt lat="48.9506882587035" lon="6.929854885410582"><ele>253.6</ele><time>2026-05-02T19:09:07.999Z</time></trkpt><trkpt lat="48.95064386821797" lon="6.929730223369736"><ele>254.40000000000003</ele><time>2026-05-02T19:09:08.999Z</time></trkpt><trkpt lat="48.95059650604491" lon="6.929602302038118"><ele>255.20000000000002</ele><time>2026-05-02T19:09:09.999Z</time></trkpt><trkpt lat="48.9505630330182" lon="6.929473417453255"><ele>256.0</ele><time>2026-05-02T19:09:10.999Z</time></trkpt><trkpt lat="48.95052760981254" lon="6.929335805816141"><ele>255.60000000000002</ele><time>2026-05-02T19:09:11.999Z</time></trkpt><trkpt lat="48.95049251689662" lon="6.929194024351981"><ele>255.20000000000002</ele><time>2026-05-02T19:09:12.999Z</time></trkpt><trkpt lat="48.95045430891719" lon="6.929055985758893"><ele>254.79999999999998</ele><time>2026-05-02T19:09:13.999Z</time></trkpt><trkpt lat="48.95042254537769" lon="6.9289243634493225"><ele>254.39999999999998</ele><time>2026-05-02T19:09:14.999Z</time></trkpt><trkpt lat="48.950394531959766" lon="6.9287976453497215"><ele>254.0</ele><time>2026-05-02T19:09:15.999Z</time></trkpt><trkpt lat="48.95036318206828" lon="6.928678620799954"><ele>254.00000000000003</ele><time>2026-05-02T19:09:16.999Z</time></trkpt><trkpt lat="48.95030913962894" lon="6.928512922124496"><ele>254.0</ele><time>2026-05-02T19:09:18.999Z</time></trkpt><trkpt lat="48.95027919785337" lon="6.928414626414077"><ele>254.0</ele><time>2026-05-02T19:09:19.999Z</time></trkpt><trkpt lat="48.9502564732154" lon="6.9283060509042445"><ele>254.0</ele><time>2026-05-02T19:09:20.999Z</time></trkpt><trkpt lat="48.950236342575444" lon="6.928214451187783"><ele>254.00000000000003</ele><time>2026-05-02T19:09:21.999Z</time></trkpt><trkpt lat="48.95018534786749" lon="6.928113532466283"><ele>254.0</ele><time>2026-05-02T19:09:23.999Z</time></trkpt><trkpt lat="48.95009010810664" lon="6.928244783351254"><ele>254.0</ele><time>2026-05-02T19:09:25.999Z</time></trkpt><trkpt lat="48.95007601370299" lon="6.928360605608462"><ele>253.99999999999997</ele><time>2026-05-02T19:09:26.999Z</time></trkpt><trkpt lat="48.95006998776585" lon="6.92849653179577"><ele>253.99999999999997</ele><time>2026-05-02T19:09:27.999Z</time></trkpt><trkpt lat="48.95003521985573" lon="6.928606166838172"><ele>254.0</ele><time>2026-05-02T19:09:28.999Z</time></trkpt><trkpt lat="48.94998348422055" lon="6.928745851111599"><ele>254.0</ele><time>2026-05-02T19:09:30.999Z</time></trkpt><trkpt lat="48.949878997156866" lon="6.9287190993251535"><ele>254.0</ele><time>2026-05-02T19:09:32.999Z</time></trkpt><trkpt lat="48.949806322062074" lon="6.928660908596749"><ele>253.99999999999997</ele><time>2026-05-02T19:09:33.999Z</time></trkpt><trkpt lat="48.94972200844081" lon="6.928574884130378"><ele>253.99999999999997</ele><time>2026-05-02T19:09:34.999Z</time></trkpt><trkpt lat="48.94966300190497" lon="6.928465288284655"><ele>254.0</ele><time>2026-05-02T19:09:35.999Z</time></trkpt><trkpt lat="48.94959876956515" lon="6.928348000531247"><ele>254.0</ele><time>2026-05-02T19:09:36.999Z</time></trkpt><trkpt lat="48.949538778238455" lon="6.928234392243032"><ele>254.0</ele><time>2026-05-02T19:09:37.999Z</time></trkpt><trkpt lat="48.94948667872307" lon="6.928118958804556"><ele>253.99999999999997</ele><time>2026-05-02T19:09:38.999Z</time></trkpt><trkpt lat="48.94943500021247" lon="6.927997597158319"><ele>253.99999999999997</ele><time>2026-05-02T19:09:39.999Z</time></trkpt><trkpt lat="48.94937461655389" lon="6.927867588815074"><ele>254.0</ele><time>2026-05-02T19:09:40.999Z</time></trkpt><trkpt lat="48.949316427323986" lon="6.927726876596441"><ele>254.0</ele><time>2026-05-02T19:09:41.999Z</time></trkpt><trkpt lat="48.94926463375755" lon="6.927577577803783"><ele>253.6</ele><time>2026-05-02T19:09:42.999Z</time></trkpt><trkpt lat="48.949218930223914" lon="6.92743680256097"><ele>253.2</ele><time>2026-05-02T19:09:43.999Z</time></trkpt><trkpt lat="48.949169116071666" lon="6.927307046888011"><ele>252.79999999999998</ele><time>2026-05-02T19:09:44.999Z</time></trkpt><trkpt lat="48.9491085655109" lon="6.927171983035923"><ele>252.39999999999998</ele><time>2026-05-02T19:09:45.999Z</time></trkpt><trkpt lat="48.94903342584872" lon="6.9270357454118106"><ele>252.0</ele><time>2026-05-02T19:09:46.999Z</time></trkpt><trkpt lat="48.9489464279026" lon="6.9269126792245626"><ele>251.75</ele><time>2026-05-02T19:09:47.999Z</time></trkpt><trkpt lat="48.94885035611146" lon="6.926790753053198"><ele>251.5</ele><time>2026-05-02T19:09:49Z</time></trkpt><trkpt lat="48.948751819759345" lon="6.926676417273719"><ele>251.25</ele><time>2026-05-02T19:09:50Z</time></trkpt><trkpt lat="48.94864805237346" lon="6.926577667487111"><ele>251.0</ele><time>2026-05-02T19:09:51Z</time></trkpt><trkpt lat="48.948548822907156" lon="6.92647466348722"><ele>250.25</ele><time>2026-05-02T19:09:52Z</time></trkpt><trkpt lat="48.948440246888794" lon="6.926378513832022"><ele>249.5</ele><time>2026-05-02T19:09:53Z</time></trkpt><trkpt lat="48.94832560147994" lon="6.926281661404637"><ele>248.75</ele><time>2026-05-02T19:09:54Z</time></trkpt><trkpt lat="48.948211285702776" lon="6.926195436427626"><ele>248.0</ele><time>2026-05-02T19:09:55Z</time></trkpt><trkpt lat="48.948091703292846" lon="6.926114773404754"><ele>248.0</ele><time>2026-05-02T19:09:56Z</time></trkpt><trkpt lat="48.947968509267135" lon="6.926034099911831"><ele>248.0</ele><time>2026-05-02T19:09:57Z</time></trkpt><trkpt lat="48.94783975221468" lon="6.92595529505097"><ele>248.0</ele><time>2026-05-02T19:09:58Z</time></trkpt><trkpt lat="48.94770663384967" lon="6.92588425682301"><ele>248.0</ele><time>2026-05-02T19:09:59Z</time></trkpt><trkpt lat="48.94757053186252" lon="6.925818682531137"><ele>247.5</ele><time>2026-05-02T19:10:00Z</time></trkpt><trkpt lat="48.94743833495375" lon="6.925758662979812"><ele>247.0</ele><time>2026-05-02T19:10:01Z</time></trkpt><trkpt lat="48.94731709148583" lon="6.925717357074589"><ele>246.5</ele><time>2026-05-02T19:10:02Z</time></trkpt><trkpt lat="48.94720522368791" lon="6.925690068682082"><ele>246.0</ele><time>2026-05-02T19:10:03Z</time></trkpt><trkpt lat="48.94710114699837" lon="6.92567415491972"><ele>246.0</ele><time>2026-05-02T19:10:04Z</time></trkpt><trkpt lat="48.947002768763156" lon="6.9256723990083815"><ele>246.0</ele><time>2026-05-02T19:10:05Z</time></trkpt><trkpt lat="48.94691470982526" lon="6.925689745364382"><ele>246.0</ele><time>2026-05-02T19:10:06Z</time></trkpt><trkpt lat="48.946843256573295" lon="6.9257203492630515"><ele>246.0</ele><time>2026-05-02T19:10:07Z</time></trkpt><trkpt lat="48.94677800948115" lon="6.925757797891109"><ele>246.0</ele><time>2026-05-02T19:10:08Z</time></trkpt><trkpt lat="48.94670126981489" lon="6.925812986918968"><ele>246.0</ele><time>2026-05-02T19:10:09Z</time></trkpt><trkpt lat="48.94660525647537" lon="6.925875621947458"><ele>246.75</ele><time>2026-05-02T19:10:10Z</time></trkpt><trkpt lat="48.94649615421402" lon="6.925939480250481"><ele>247.5</ele><time>2026-05-02T19:10:11Z</time></trkpt><trkpt lat="48.94638996444622" lon="6.926020260510498"><ele>248.25</ele><time>2026-05-02T19:10:12Z</time></trkpt><trkpt lat="48.94628848230116" lon="6.926101994664768"><ele>249.0</ele><time>2026-05-02T19:10:13Z</time></trkpt><trkpt lat="48.94617614005533" lon="6.926195811182276"><ele>249.0</ele><time>2026-05-02T19:10:14Z</time></trkpt><trkpt lat="48.94606846342598" lon="6.926316753007369"><ele>249.0</ele><time>2026-05-02T19:10:15Z</time></trkpt><trkpt lat="48.945942672484115" lon="6.926419082830572"><ele>249.0</ele><time>2026-05-02T19:10:16Z</time></trkpt><trkpt lat="48.94582142734135" lon="6.92654505263889"><ele>249.0</ele><time>2026-05-02T19:10:17Z</time></trkpt><trkpt lat="48.945703077842055" lon="6.926656368213374"><ele>248.0</ele><time>2026-05-02T19:10:18Z</time></trkpt><trkpt lat="48.94559058905155" lon="6.926757138029313"><ele>247.0</ele><time>2026-05-02T19:10:19Z</time></trkpt><trkpt lat="48.945481885372374" lon="6.92688074938396"><ele>246.0</ele><time>2026-05-02T19:10:20Z</time></trkpt><trkpt lat="48.94536646010904" lon="6.927004985361393"><ele>245.0</ele><time>2026-05-02T19:10:21Z</time></trkpt><trkpt lat="48.945243131805455" lon="6.927133831540653"><ele>245.0</ele><time>2026-05-02T19:10:22Z</time></trkpt><trkpt lat="48.945120056971284" lon="6.927264169196423"><ele>245.0</ele><time>2026-05-02T19:10:23Z</time></trkpt><trkpt lat="48.94499758235712" lon="6.927392996597108"><ele>245.0</ele><time>2026-05-02T19:10:24Z</time></trkpt><trkpt lat="48.94488420536353" lon="6.9275114364455765"><ele>245.0</ele><time>2026-05-02T19:10:25Z</time></trkpt><trkpt lat="48.94478148887131" lon="6.927619248885061"><ele>245.25</ele><time>2026-05-02T19:10:26Z</time></trkpt><trkpt lat="48.94467792088723" lon="6.927727438448259"><ele>245.5</ele><time>2026-05-02T19:10:27Z</time></trkpt><trkpt lat="48.94456357610863" lon="6.927841070065045"><ele>245.75</ele><time>2026-05-02T19:10:28Z</time></trkpt><trkpt lat="48.94444781349899" lon="6.9279658106921405"><ele>246.0</ele><time>2026-05-02T19:10:29Z</time></trkpt><trkpt lat="48.944329606229594" lon="6.928094054491298"><ele>246.0</ele><time>2026-05-02T19:10:30Z</time></trkpt><trkpt lat="48.94420761813479" lon="6.9282251137662785"><ele>246.0</ele><time>2026-05-02T19:10:31Z</time></trkpt><trkpt lat="48.94407370356138" lon="6.928325965951521"><ele>246.0</ele><time>2026-05-02T19:10:32Z</time></trkpt><trkpt lat="48.94394873060935" lon="6.928444574167584"><ele>246.0</ele><time>2026-05-02T19:10:33Z</time></trkpt><trkpt lat="48.94383359513484" lon="6.928555938272827"><ele>245.0</ele><time>2026-05-02T19:10:34Z</time></trkpt><trkpt lat="48.943723362227566" lon="6.928659404592159"><ele>244.0</ele><time>2026-05-02T19:10:35Z</time></trkpt><trkpt lat="48.943605553769075" lon="6.9287512448546975"><ele>243.0</ele><time>2026-05-02T19:10:36Z</time></trkpt><trkpt lat="48.94347912781938" lon="6.92883291102773"><ele>242.0</ele><time>2026-05-02T19:10:37Z</time></trkpt><trkpt lat="48.943348584670254" lon="6.928917149025589"><ele>244.0</ele><time>2026-05-02T19:10:38Z</time></trkpt><trkpt lat="48.94320383646747" lon="6.9289274705523205"><ele>246.0</ele><time>2026-05-02T19:10:39Z</time></trkpt><trkpt lat="48.94306113992693" lon="6.928976203476743"><ele>248.0</ele><time>2026-05-02T19:10:40Z</time></trkpt><trkpt lat="48.94291601725255" lon="6.928986704465578"><ele>250.0</ele><time>2026-05-02T19:10:41Z</time></trkpt><trkpt lat="48.94277126114253" lon="6.928997184845599"><ele>250.0</ele><time>2026-05-02T19:10:42Z</time></trkpt><trkpt lat="48.94261604467261" lon="6.929014445672853"><ele>250.0</ele><time>2026-05-02T19:10:43Z</time></trkpt><trkpt lat="48.942465445248175" lon="6.929026156000697"><ele>250.0</ele><time>2026-05-02T19:10:44Z</time></trkpt><trkpt lat="48.94231321645523" lon="6.929039656841674"><ele>252.66666666666666</ele><time>2026-05-02T19:10:45Z</time></trkpt><trkpt lat="48.94214925623659" lon="6.929056386044929"><ele>255.33333333333331</ele><time>2026-05-02T19:10:46Z</time></trkpt><trkpt lat="48.94199329324918" lon="6.929075563698605"><ele>258.0</ele><time>2026-05-02T19:10:47Z</time></trkpt><trkpt lat="48.94183176863907" lon="6.929064587608616"><ele>258.0</ele><time>2026-05-02T19:10:48Z</time></trkpt><trkpt lat="48.941677590870675" lon="6.929077130974571"><ele>258.0</ele><time>2026-05-02T19:10:49Z</time></trkpt><trkpt lat="48.941523590583536" lon="6.929090972843691"><ele>258.0</ele><time>2026-05-02T19:10:50Z</time></trkpt><trkpt lat="48.94136961226826" lon="6.929131775242447"><ele>258.0</ele><time>2026-05-02T19:10:51Z</time></trkpt><trkpt lat="48.941211819593725" lon="6.929148836170077"><ele>258.0</ele><time>2026-05-02T19:10:52Z</time></trkpt><trkpt lat="48.941054092353106" lon="6.92916634918266"><ele>258.0</ele><time>2026-05-02T19:10:53Z</time></trkpt><trkpt lat="48.940893372241035" lon="6.929181660400124"><ele>258.0</ele><time>2026-05-02T19:10:54Z</time></trkpt><trkpt lat="48.94074477589824" lon="6.9291938793578005"><ele>258.0</ele><time>2026-05-02T19:10:55Z</time></trkpt><trkpt lat="48.940582055418716" lon="6.929203055256834"><ele>258.0</ele><time>2026-05-02T19:10:56Z</time></trkpt><trkpt lat="48.94041453632128" lon="6.929224555784334"><ele>258.0</ele><time>2026-05-02T19:10:57Z</time></trkpt><trkpt lat="48.940247596012405" lon="6.929243032754771"><ele>258.0</ele><time>2026-05-02T19:10:58Z</time></trkpt><trkpt lat="48.94007143538059" lon="6.9292442480846095"><ele>258.0</ele><time>2026-05-02T19:10:59Z</time></trkpt><trkpt lat="48.93989505320114" lon="6.929261515769661"><ele>259.0</ele><time>2026-05-02T19:11:00Z</time></trkpt><trkpt lat="48.939723071512354" lon="6.929279053657554"><ele>260.0</ele><time>2026-05-02T19:11:01Z</time></trkpt><trkpt lat="48.93955506854897" lon="6.9292977421883775"><ele>261.0</ele><time>2026-05-02T19:11:02Z</time></trkpt><trkpt lat="48.939383916190586" lon="6.929321300885857"><ele>261.0</ele><time>2026-05-02T19:11:03Z</time></trkpt><trkpt lat="48.93922085907414" lon="6.929347159392064"><ele>261.0</ele><time>2026-05-02T19:11:04Z</time></trkpt><trkpt lat="48.93906236689059" lon="6.929374700148333"><ele>261.0</ele><time>2026-05-02T19:11:05Z</time></trkpt><trkpt lat="48.93891117803755" lon="6.92940144129268"><ele>261.0</ele><time>2026-05-02T19:11:06Z</time></trkpt><trkpt lat="48.93875710075352" lon="6.929428734325526"><ele>261.0</ele><time>2026-05-02T19:11:07Z</time></trkpt><trkpt lat="48.93860124114763" lon="6.9294568752476025"><ele>261.0</ele><time>2026-05-02T19:11:08Z</time></trkpt><trkpt lat="48.938433399112974" lon="6.929487179659925"><ele>259.6666666666667</ele><time>2026-05-02T19:11:08.999Z</time></trkpt><trkpt lat="48.938277101299576" lon="6.929515399726821"><ele>258.33333333333337</ele><time>2026-05-02T19:11:09.999Z</time></trkpt><trkpt lat="48.938117708656065" lon="6.929544178490776"><ele>257.0</ele><time>2026-05-02T19:11:10.999Z</time></trkpt><trkpt lat="48.93795996226049" lon="6.929572660186363"><ele>257.0</ele><time>2026-05-02T19:11:11.999Z</time></trkpt><trkpt lat="48.937802648477295" lon="6.929601063571412"><ele>257.0</ele><time>2026-05-02T19:11:12.999Z</time></trkpt><trkpt lat="48.937644053599" lon="6.9296294498379725"><ele>257.0</ele><time>2026-05-02T19:11:13.999Z</time></trkpt><trkpt lat="48.93748302634569" lon="6.929655916230247"><ele>257.33333333333337</ele><time>2026-05-02T19:11:14.999Z</time></trkpt><trkpt lat="48.93732264249257" lon="6.929680513444259"><ele>257.6666666666667</ele><time>2026-05-02T19:11:15.999Z</time></trkpt><trkpt lat="48.937159952562084" lon="6.929701098682595"><ele>258.0</ele><time>2026-05-02T19:11:16.999Z</time></trkpt><trkpt lat="48.93699326484987" lon="6.929722189785453"><ele>258.0</ele><time>2026-05-02T19:11:17.999Z</time></trkpt><trkpt lat="48.93683346462523" lon="6.929743517195902"><ele>258.0</ele><time>2026-05-02T19:11:18.999Z</time></trkpt><trkpt lat="48.93667703312398" lon="6.929766828938015"><ele>258.0</ele><time>2026-05-02T19:11:19.999Z</time></trkpt><trkpt lat="48.9365138745735" lon="6.929793933890195"><ele>259.0</ele><time>2026-05-02T19:11:20.999Z</time></trkpt><trkpt lat="48.936353113146005" lon="6.929821749827849"><ele>260.0</ele><time>2026-05-02T19:11:21.999Z</time></trkpt><trkpt lat="48.936195286778165" lon="6.9298744266289285"><ele>261.0</ele><time>2026-05-02T19:11:22.999Z</time></trkpt><trkpt lat="48.93603046972436" lon="6.929896337665815"><ele>260.6666666666667</ele><time>2026-05-02T19:11:23.999Z</time></trkpt><trkpt lat="48.935868805121025" lon="6.929914611644689"><ele>260.33333333333337</ele><time>2026-05-02T19:11:24.999Z</time></trkpt><trkpt lat="48.935702748590025" lon="6.9299348059948205"><ele>260.0</ele><time>2026-05-02T19:11:25.999Z</time></trkpt><trkpt lat="48.93553333476931" lon="6.929961665506712"><ele>260.0</ele><time>2026-05-02T19:11:26.999Z</time></trkpt><trkpt lat="48.93536262255426" lon="6.929997053957454"><ele>260.0</ele><time>2026-05-02T19:11:27.999Z</time></trkpt><trkpt lat="48.93519806815924" lon="6.930015308982302"><ele>260.0</ele><time>2026-05-02T19:11:28.999Z</time></trkpt><trkpt lat="48.93503630877438" lon="6.930071349729627"><ele>257.6666666666667</ele><time>2026-05-02T19:11:29.999Z</time></trkpt><trkpt lat="48.93488541415685" lon="6.930186267013825"><ele>255.33333333333331</ele><time>2026-05-02T19:11:30.999Z</time></trkpt><trkpt lat="48.93472675751406" lon="6.930269243293413"><ele>253.0</ele><time>2026-05-02T19:11:31.999Z</time></trkpt><trkpt lat="48.934575554429735" lon="6.9303796063028695"><ele>253.0</ele><time>2026-05-02T19:11:32.999Z</time></trkpt><trkpt lat="48.93442706725364" lon="6.930483995979023"><ele>253.0</ele><time>2026-05-02T19:11:33.999Z</time></trkpt><trkpt lat="48.93429008500794" lon="6.930580378455843"><ele>253.0</ele><time>2026-05-02T19:11:34.999Z</time></trkpt><trkpt lat="48.9341557284388" lon="6.9306749134843235"><ele>251.0</ele><time>2026-05-02T19:11:35.999Z</time></trkpt><trkpt lat="48.9340144651335" lon="6.930775726510238"><ele>249.0</ele><time>2026-05-02T19:11:36.999Z</time></trkpt><trkpt lat="48.933870126943695" lon="6.930880588845072"><ele>247.0</ele><time>2026-05-02T19:11:37.999Z</time></trkpt><trkpt lat="48.93372527975005" lon="6.930987087286132"><ele>247.0</ele><time>2026-05-02T19:11:38.999Z</time></trkpt><trkpt lat="48.9335812122827" lon="6.931092592969625"><ele>247.0</ele><time>2026-05-02T19:11:39.999Z</time></trkpt><trkpt lat="48.93343614903016" lon="6.931196617197506"><ele>247.0</ele><time>2026-05-02T19:11:40.999Z</time></trkpt><trkpt lat="48.933288700125296" lon="6.931300150809235"><ele>246.0</ele><time>2026-05-02T19:11:41.999Z</time></trkpt><trkpt lat="48.9331394704499" lon="6.931401108549984"><ele>245.0</ele><time>2026-05-02T19:11:42.999Z</time></trkpt><trkpt lat="48.93299316635458" lon="6.931496456791259"><ele>244.0</ele><time>2026-05-02T19:11:43.999Z</time></trkpt><trkpt lat="48.932846175697726" lon="6.931583884106826"><ele>244.0</ele><time>2026-05-02T19:11:44.999Z</time></trkpt><trkpt lat="48.932700406066274" lon="6.9316677030101115"><ele>244.0</ele><time>2026-05-02T19:11:45.999Z</time></trkpt><trkpt lat="48.932554200355135" lon="6.931750552910716"><ele>244.0</ele><time>2026-05-02T19:11:46.999Z</time></trkpt><trkpt lat="48.93240775333974" lon="6.931833539582839"><ele>243.33333333333331</ele><time>2026-05-02T19:11:47.999Z</time></trkpt><trkpt lat="48.93225726227348" lon="6.931919760586958"><ele>242.66666666666669</ele><time>2026-05-02T19:11:48.999Z</time></trkpt><trkpt lat="48.932105436000825" lon="6.932006936968647"><ele>242.0</ele><time>2026-05-02T19:11:49.999Z</time></trkpt><trkpt lat="48.93195122674977" lon="6.932095481677188"><ele>242.0</ele><time>2026-05-02T19:11:50.999Z</time></trkpt><trkpt lat="48.93179260946396" lon="6.932186557379782"><ele>242.0</ele><time>2026-05-02T19:11:51.999Z</time></trkpt><trkpt lat="48.93163226859718" lon="6.9322786227309825"><ele>242.0</ele><time>2026-05-02T19:11:52.999Z</time></trkpt><trkpt lat="48.93147076168489" lon="6.932375320364226"><ele>242.33333333333334</ele><time>2026-05-02T19:11:53.999Z</time></trkpt><trkpt lat="48.93131197868271" lon="6.9324712092973595"><ele>242.66666666666669</ele><time>2026-05-02T19:11:55Z</time></trkpt><trkpt lat="48.931162555750895" lon="6.932561445691557"><ele>243.0</ele><time>2026-05-02T19:11:56Z</time></trkpt><trkpt lat="48.93101666347884" lon="6.9326495499226475"><ele>242.66666666666669</ele><time>2026-05-02T19:11:57Z</time></trkpt><trkpt lat="48.93086597922385" lon="6.932740547892876"><ele>242.33333333333334</ele><time>2026-05-02T19:11:58Z</time></trkpt><trkpt lat="48.930713373386496" lon="6.932832751053911"><ele>242.0</ele><time>2026-05-02T19:11:59Z</time></trkpt><trkpt lat="48.93055970228042" lon="6.932925593320171"><ele>242.0</ele><time>2026-05-02T19:12:00Z</time></trkpt><trkpt lat="48.930406831422026" lon="6.933017850219555"><ele>242.0</ele><time>2026-05-02T19:12:01Z</time></trkpt><trkpt lat="48.93025303647899" lon="6.93310914551554"><ele>242.0</ele><time>2026-05-02T19:12:02Z</time></trkpt><trkpt lat="48.93010200256854" lon="6.933198801822519"><ele>242.66666666666669</ele><time>2026-05-02T19:12:03Z</time></trkpt><trkpt lat="48.92994973528552" lon="6.933289190271014"><ele>243.33333333333331</ele><time>2026-05-02T19:12:04Z</time></trkpt><trkpt lat="48.92979825220924" lon="6.933379113206606"><ele>244.0</ele><time>2026-05-02T19:12:05Z</time></trkpt><trkpt lat="48.92964613463911" lon="6.933470311056826"><ele>244.0</ele><time>2026-05-02T19:12:06Z</time></trkpt><trkpt lat="48.92949045478248" lon="6.933564617860094"><ele>244.0</ele><time>2026-05-02T19:12:07Z</time></trkpt><trkpt lat="48.92933133375312" lon="6.933661009253766"><ele>244.0</ele><time>2026-05-02T19:12:08Z</time></trkpt><trkpt lat="48.92917142528861" lon="6.93375787768257"><ele>244.0</ele><time>2026-05-02T19:12:09Z</time></trkpt><trkpt lat="48.929011524649155" lon="6.933854741305883"><ele>244.0</ele><time>2026-05-02T19:12:10Z</time></trkpt><trkpt lat="48.92885086644935" lon="6.933952066106603"><ele>244.0</ele><time>2026-05-02T19:12:11Z</time></trkpt><trkpt lat="48.92869338983658" lon="6.934048605820273"><ele>243.5</ele><time>2026-05-02T19:12:12Z</time></trkpt><trkpt lat="48.92838115665515" lon="6.934239528357827"><ele>243.0</ele><time>2026-05-02T19:12:14Z</time></trkpt><trkpt lat="48.928228475169114" lon="6.934332888967992"><ele>243.0</ele><time>2026-05-02T19:12:15Z</time></trkpt><trkpt lat="48.92807645521082" lon="6.934425847469414"><ele>243.0</ele><time>2026-05-02T19:12:16Z</time></trkpt><trkpt lat="48.927926710857705" lon="6.934517412199551"><ele>243.0</ele><time>2026-05-02T19:12:17Z</time></trkpt><trkpt lat="48.92778611441255" lon="6.934602087040848"><ele>243.0</ele><time>2026-05-02T19:12:18Z</time></trkpt><trkpt lat="48.92765519075658" lon="6.934680069807634"><ele>243.0</ele><time>2026-05-02T19:12:19Z</time></trkpt><trkpt lat="48.92752977621464" lon="6.934754771161895"><ele>243.0</ele><time>2026-05-02T19:12:20Z</time></trkpt><trkpt lat="48.92740917450788" lon="6.934826381136593"><ele>243.0</ele><time>2026-05-02T19:12:21Z</time></trkpt><trkpt lat="48.9272848102873" lon="6.934900054063712"><ele>243.25</ele><time>2026-05-02T19:12:22Z</time></trkpt><trkpt lat="48.92715757197759" lon="6.9349754295757045"><ele>243.5</ele><time>2026-05-02T19:12:23Z</time></trkpt><trkpt lat="48.92703146215284" lon="6.935050136590038"><ele>243.75</ele><time>2026-05-02T19:12:24Z</time></trkpt><trkpt lat="48.92691217844197" lon="6.935120799847385"><ele>244.0</ele><time>2026-05-02T19:12:25Z</time></trkpt><trkpt lat="48.92680145195986" lon="6.935186393796343"><ele>243.79999999999998</ele><time>2026-05-02T19:12:26Z</time></trkpt><trkpt lat="48.9266947272575" lon="6.9352496171403395"><ele>243.59999999999997</ele><time>2026-05-02T19:12:27Z</time></trkpt><trkpt lat="48.92659205619382" lon="6.935310439114688"><ele>243.4</ele><time>2026-05-02T19:12:28Z</time></trkpt><trkpt lat="48.926494339090446" lon="6.93536832636883"><ele>243.2</ele><time>2026-05-02T19:12:29Z</time></trkpt><trkpt lat="48.926400744403644" lon="6.935423771391167"><ele>243.0</ele><time>2026-05-02T19:12:30Z</time></trkpt><trkpt lat="48.92631540329184" lon="6.93547455920196"><ele>243.0</ele><time>2026-05-02T19:12:31Z</time></trkpt><trkpt lat="48.926241215061395" lon="6.935518670740411"><ele>243.0</ele><time>2026-05-02T19:12:32Z</time></trkpt><trkpt lat="48.926173976126684" lon="6.935558650315242"><ele>243.0</ele><time>2026-05-02T19:12:33Z</time></trkpt><trkpt lat="48.926099415226396" lon="6.935602983436945"><ele>243.0</ele><time>2026-05-02T19:12:34Z</time></trkpt><trkpt lat="48.926014849489114" lon="6.935653265314652"><ele>243.0</ele><time>2026-05-02T19:12:35Z</time></trkpt><trkpt lat="48.925923361720116" lon="6.9357076629979"><ele>243.0</ele><time>2026-05-02T19:12:36Z</time></trkpt><trkpt lat="48.92583367451167" lon="6.935760989694381"><ele>242.83333333333334</ele><time>2026-05-02T19:12:37Z</time></trkpt><trkpt lat="48.92575658865254" lon="6.935807112040572"><ele>242.66666666666669</ele><time>2026-05-02T19:12:38Z</time></trkpt><trkpt lat="48.92568616714967" lon="6.935849137052567"><ele>242.5</ele><time>2026-05-02T19:12:39Z</time></trkpt><trkpt lat="48.92562245453626" lon="6.935887158459256"><ele>242.33333333333334</ele><time>2026-05-02T19:12:40Z</time></trkpt><trkpt lat="48.92556381409931" lon="6.935922152939255"><ele>242.16666666666669</ele><time>2026-05-02T19:12:41Z</time></trkpt><trkpt lat="48.92547293002457" lon="6.935976389272061"><ele>242.0</ele><time>2026-05-02T19:12:43Z</time></trkpt><trkpt lat="48.92539296638598" lon="6.936024108508981"><ele>241.25</ele><time>2026-05-02T19:12:45Z</time></trkpt><trkpt lat="48.92539588868698" lon="6.9363210011277765"><ele>240.5</ele><time>2026-05-02T19:12:46Z</time></trkpt><trkpt lat="48.92536502868841" lon="6.936472671868565"><ele>239.75</ele><time>2026-05-02T19:12:47Z</time></trkpt><trkpt lat="48.92533280459885" lon="6.936604828899578"><ele>239.0</ele><time>2026-05-02T19:12:48Z</time></trkpt><trkpt lat="48.925291746846554" lon="6.9367494299914245"><ele>238.75</ele><time>2026-05-02T19:12:49Z</time></trkpt><trkpt lat="48.92524860384404" lon="6.93689677819299"><ele>238.5</ele><time>2026-05-02T19:12:50Z</time></trkpt><trkpt lat="48.92520159974961" lon="6.937055689032681"><ele>238.25</ele><time>2026-05-02T19:12:51Z</time></trkpt><trkpt lat="48.925156711219564" lon="6.9372135293916255"><ele>238.0</ele><time>2026-05-02T19:12:52Z</time></trkpt><trkpt lat="48.925110523380475" lon="6.937375938467152"><ele>238.0</ele><time>2026-05-02T19:12:53Z</time></trkpt><trkpt lat="48.925063978072764" lon="6.937539604485662"><ele>238.0</ele><time>2026-05-02T19:12:54Z</time></trkpt><trkpt lat="48.925032554015324" lon="6.937713356609925"><ele>238.0</ele><time>2026-05-02T19:12:55Z</time></trkpt><trkpt lat="48.92498291773089" lon="6.937877564905131"><ele>238.0</ele><time>2026-05-02T19:12:56Z</time></trkpt><trkpt lat="48.92492457137501" lon="6.938029796584491"><ele>238.0</ele><time>2026-05-02T19:12:57Z</time></trkpt><trkpt lat="48.924892185984014" lon="6.938206261077622"><ele>238.0</ele><time>2026-05-02T19:12:58Z</time></trkpt><trkpt lat="48.92484049101473" lon="6.938372177650872"><ele>238.0</ele><time>2026-05-02T19:12:59Z</time></trkpt><trkpt lat="48.924779402468694" lon="6.938529462666326"><ele>238.0</ele><time>2026-05-02T19:13:00Z</time></trkpt><trkpt lat="48.92474687635277" lon="6.938701755871354"><ele>238.0</ele><time>2026-05-02T19:13:01Z</time></trkpt><trkpt lat="48.924693981751666" lon="6.93886098763879"><ele>238.0</ele><time>2026-05-02T19:13:02Z</time></trkpt><trkpt lat="48.92465029327569" lon="6.939029263733413"><ele>238.0</ele><time>2026-05-02T19:13:03Z</time></trkpt><trkpt lat="48.92458703150468" lon="6.939182901718923"><ele>238.0</ele><time>2026-05-02T19:13:04Z</time></trkpt><trkpt lat="48.92455005160445" lon="6.939350024105149"><ele>237.8</ele><time>2026-05-02T19:13:05Z</time></trkpt><trkpt lat="48.924494274315286" lon="6.939495667922"><ele>237.60000000000002</ele><time>2026-05-02T19:13:06Z</time></trkpt><trkpt lat="48.924448809926254" lon="6.939646501794611"><ele>237.39999999999998</ele><time>2026-05-02T19:13:07Z</time></trkpt><trkpt lat="48.92440394538328" lon="6.939795345613919"><ele>237.2</ele><time>2026-05-02T19:13:08Z</time></trkpt><trkpt lat="48.92436164863994" lon="6.939935671530434"><ele>237.0</ele><time>2026-05-02T19:13:09Z</time></trkpt><trkpt lat="48.924329325886404" lon="6.9400829637895916"><ele>237.0</ele><time>2026-05-02T19:13:10Z</time></trkpt><trkpt lat="48.92427519234696" lon="6.940222501338081"><ele>237.0</ele><time>2026-05-02T19:13:11Z</time></trkpt><trkpt lat="48.924247604598456" lon="6.940379797627849"><ele>237.0</ele><time>2026-05-02T19:13:12Z</time></trkpt><trkpt lat="48.92419613685678" lon="6.940506984350205"><ele>237.0</ele><time>2026-05-02T19:13:13Z</time></trkpt><trkpt lat="48.92417546746652" lon="6.940635790535082"><ele>237.0</ele><time>2026-05-02T19:13:14Z</time></trkpt><trkpt lat="48.92409155774325" lon="6.940725681319603"><ele>237.5</ele><time>2026-05-02T19:13:15Z</time></trkpt><trkpt lat="48.92400147641049" lon="6.940844359656025"><ele>238.0</ele><time>2026-05-02T19:13:15.999Z</time></trkpt><trkpt lat="48.923912611509834" lon="6.940983498887466"><ele>238.5</ele><time>2026-05-02T19:13:16.999Z</time></trkpt><trkpt lat="48.92383846921115" lon="6.941116517543164"><ele>239.0</ele><time>2026-05-02T19:13:17.999Z</time></trkpt><trkpt lat="48.92376926202781" lon="6.941235945472957"><ele>239.0</ele><time>2026-05-02T19:13:18.999Z</time></trkpt><trkpt lat="48.92369743555346" lon="6.941333241814431"><ele>238.99999999999997</ele><time>2026-05-02T19:13:19.999Z</time></trkpt><trkpt lat="48.923623459766794" lon="6.941442776369651"><ele>238.99999999999997</ele><time>2026-05-02T19:13:20.999Z</time></trkpt><trkpt lat="48.9235478344693" lon="6.9415548392615865"><ele>239.0</ele><time>2026-05-02T19:13:21.999Z</time></trkpt><trkpt lat="48.923468897861625" lon="6.9416710043959"><ele>239.0</ele><time>2026-05-02T19:13:22.999Z</time></trkpt><trkpt lat="48.92339123193073" lon="6.94178577001371"><ele>239.2</ele><time>2026-05-02T19:13:23.999Z</time></trkpt><trkpt lat="48.92331578349871" lon="6.941903589036489"><ele>239.39999999999998</ele><time>2026-05-02T19:13:24.999Z</time></trkpt><trkpt lat="48.9232421272196" lon="6.94200834864195"><ele>239.6</ele><time>2026-05-02T19:13:25.999Z</time></trkpt><trkpt lat="48.92316920153731" lon="6.942116650213423"><ele>239.8</ele><time>2026-05-02T19:13:26.999Z</time></trkpt><trkpt lat="48.92309139758533" lon="6.942226538393612"><ele>240.0</ele><time>2026-05-02T19:13:27.999Z</time></trkpt><trkpt lat="48.92301402837717" lon="6.942341964965404"><ele>240.0</ele><time>2026-05-02T19:13:28.999Z</time></trkpt><trkpt lat="48.922932911067534" lon="6.942462183912427"><ele>240.0</ele><time>2026-05-02T19:13:29.999Z</time></trkpt><trkpt lat="48.92283879430889" lon="6.942562490691638"><ele>240.0</ele><time>2026-05-02T19:13:30.999Z</time></trkpt><trkpt lat="48.92275585605114" lon="6.9426765392575955"><ele>240.0</ele><time>2026-05-02T19:13:31.999Z</time></trkpt><trkpt lat="48.92268190144634" lon="6.9428130439492906"><ele>239.75</ele><time>2026-05-02T19:13:32.999Z</time></trkpt><trkpt lat="48.922593122956435" lon="6.942935592042334"><ele>239.5</ele><time>2026-05-02T19:13:33.999Z</time></trkpt><trkpt lat="48.9225072966439" lon="6.943063493517339"><ele>239.25</ele><time>2026-05-02T19:13:34.999Z</time></trkpt><trkpt lat="48.92242434409008" lon="6.943194836469668"><ele>239.0</ele><time>2026-05-02T19:13:35.999Z</time></trkpt><trkpt lat="48.922334533177334" lon="6.9433195142252435"><ele>237.33333333333334</ele><time>2026-05-02T19:13:36.999Z</time></trkpt><trkpt lat="48.922253902123636" lon="6.943435805034009"><ele>235.66666666666669</ele><time>2026-05-02T19:13:37.999Z</time></trkpt><trkpt lat="48.92216270188208" lon="6.943535013016168"><ele>234.0</ele><time>2026-05-02T19:13:38.999Z</time></trkpt><trkpt lat="48.92200905909195" lon="6.943788945212414"><ele>234.0</ele><time>2026-05-02T19:13:40.999Z</time></trkpt><trkpt lat="48.921916022515745" lon="6.943891791353395"><ele>234.0</ele><time>2026-05-02T19:13:41.999Z</time></trkpt><trkpt lat="48.92183576434313" lon="6.9440088922388306"><ele>234.0</ele><time>2026-05-02T19:13:42.999Z</time></trkpt><trkpt lat="48.92175890388418" lon="6.944144334445119"><ele>234.0</ele><time>2026-05-02T19:13:43.999Z</time></trkpt><trkpt lat="48.92167800109307" lon="6.9442713149580015"><ele>234.0</ele><time>2026-05-02T19:13:44.999Z</time></trkpt><trkpt lat="48.9215923239506" lon="6.944398241818845"><ele>234.0</ele><time>2026-05-02T19:13:45.999Z</time></trkpt><trkpt lat="48.92150585020382" lon="6.944521027356177"><ele>234.0</ele><time>2026-05-02T19:13:46.999Z</time></trkpt><trkpt lat="48.92141138182793" lon="6.94462935034116"><ele>234.0</ele><time>2026-05-02T19:13:47.999Z</time></trkpt><trkpt lat="48.92134548229603" lon="6.944759256739151"><ele>234.0</ele><time>2026-05-02T19:13:48.999Z</time></trkpt><trkpt lat="48.921262207829855" lon="6.9448744483982745"><ele>234.0</ele><time>2026-05-02T19:13:49.999Z</time></trkpt><trkpt lat="48.921178207499025" lon="6.944998845524976"><ele>234.0</ele><time>2026-05-02T19:13:50.999Z</time></trkpt><trkpt lat="48.92109494884971" lon="6.945125152656862"><ele>234.0</ele><time>2026-05-02T19:13:51.999Z</time></trkpt><trkpt lat="48.9210152777893" lon="6.945236736710707"><ele>234.0</ele><time>2026-05-02T19:13:52.999Z</time></trkpt><trkpt lat="48.92093911426915" lon="6.9453520759118765"><ele>233.99999999999997</ele><time>2026-05-02T19:13:53.999Z</time></trkpt><trkpt lat="48.92084625739021" lon="6.945451340483919"><ele>233.99999999999997</ele><time>2026-05-02T19:13:54.999Z</time></trkpt><trkpt lat="48.920762356456045" lon="6.94557219498496"><ele>234.0</ele><time>2026-05-02T19:13:55.999Z</time></trkpt><trkpt lat="48.920684561571186" lon="6.945684254053008"><ele>234.0</ele><time>2026-05-02T19:13:56.999Z</time></trkpt><trkpt lat="48.92060889138085" lon="6.945792362015162"><ele>234.39999999999998</ele><time>2026-05-02T19:13:57.999Z</time></trkpt><trkpt lat="48.92052809752976" lon="6.945906107614907"><ele>234.79999999999998</ele><time>2026-05-02T19:13:58.999Z</time></trkpt><trkpt lat="48.920445458404465" lon="6.946016575074741"><ele>235.20000000000002</ele><time>2026-05-02T19:13:59.999Z</time></trkpt><trkpt lat="48.92036511600588" lon="6.946118279585343"><ele>235.60000000000002</ele><time>2026-05-02T19:14:01Z</time></trkpt><trkpt lat="48.920287903617066" lon="6.946210806499915"><ele>236.0</ele><time>2026-05-02T19:14:02Z</time></trkpt><trkpt lat="48.9202035678022" lon="6.946305584804656"><ele>236.0</ele><time>2026-05-02T19:14:03Z</time></trkpt><trkpt lat="48.920128298579165" lon="6.9464109070473254"><ele>236.00000000000003</ele><time>2026-05-02T19:14:04Z</time></trkpt><trkpt lat="48.920049770050476" lon="6.946499814571816"><ele>236.00000000000003</ele><time>2026-05-02T19:14:05Z</time></trkpt><trkpt lat="48.91997080477665" lon="6.946579200885487"><ele>236.0</ele><time>2026-05-02T19:14:06Z</time></trkpt><trkpt lat="48.91989612751291" lon="6.946664246431391"><ele>236.0</ele><time>2026-05-02T19:14:07Z</time></trkpt><trkpt lat="48.91982387202756" lon="6.946745722737047"><ele>234.83333333333334</ele><time>2026-05-02T19:14:08Z</time></trkpt><trkpt lat="48.9197390834574" lon="6.946807556750076"><ele>233.66666666666669</ele><time>2026-05-02T19:14:09Z</time></trkpt><trkpt lat="48.91966880577603" lon="6.9468844621449515"><ele>232.5</ele><time>2026-05-02T19:14:10Z</time></trkpt><trkpt lat="48.91960568167207" lon="6.946953539297742"><ele>231.33333333333331</ele><time>2026-05-02T19:14:11Z</time></trkpt><trkpt lat="48.91954813108566" lon="6.947016517312763"><ele>230.16666666666666</ele><time>2026-05-02T19:14:12Z</time></trkpt><trkpt lat="48.91946816941808" lon="6.947104020077145"><ele>229.0</ele><time>2026-05-02T19:14:14Z</time></trkpt><trkpt lat="48.919407105225204" lon="6.947140812801593"><ele>229.0</ele><time>2026-05-02T19:14:16Z</time></trkpt><trkpt lat="48.919338906404604" lon="6.947013796614872"><ele>228.99999999999997</ele><time>2026-05-02T19:14:18Z</time></trkpt><trkpt lat="48.91929570666525" lon="6.946887340490489"><ele>228.99999999999997</ele><time>2026-05-02T19:14:19Z</time></trkpt><trkpt lat="48.91924569919707" lon="6.946741466975921"><ele>229.0</ele><time>2026-05-02T19:14:20Z</time></trkpt><trkpt lat="48.91918894439769" lon="6.946590824168112"><ele>229.0</ele><time>2026-05-02T19:14:21Z</time></trkpt><trkpt lat="48.91910267193287" lon="6.946431895757714"><ele>228.79999999999998</ele><time>2026-05-02T19:14:22Z</time></trkpt><trkpt lat="48.919012905733624" lon="6.946276914357191"><ele>228.59999999999997</ele><time>2026-05-02T19:14:23Z</time></trkpt><trkpt lat="48.9189481430188" lon="6.946136213678515"><ele>228.4</ele><time>2026-05-02T19:14:24Z</time></trkpt><trkpt lat="48.91888780817552" lon="6.9460120559177785"><ele>228.2</ele><time>2026-05-02T19:14:25Z</time></trkpt><trkpt lat="48.91883016060224" lon="6.9458934464359"><ele>228.0</ele><time>2026-05-02T19:14:26Z</time></trkpt><trkpt lat="48.91876984984537" lon="6.945763747340112"><ele>228.0</ele><time>2026-05-02T19:14:27Z</time></trkpt><trkpt lat="48.918708429334075" lon="6.945649136309901"><ele>228.0</ele><time>2026-05-02T19:14:28Z</time></trkpt><trkpt lat="48.9186557535606" lon="6.945544870803588"><ele>228.0</ele><time>2026-05-02T19:14:29Z</time></trkpt><trkpt lat="48.918625777977965" lon="6.945433909636262"><ele>228.0</ele><time>2026-05-02T19:14:30Z</time></trkpt><trkpt lat="48.9185942339238" lon="6.945328274424889"><ele>228.0</ele><time>2026-05-02T19:14:31Z</time></trkpt><trkpt lat="48.91850224738328" lon="6.945227491099618"><ele>228.0</ele><time>2026-05-02T19:14:32Z</time></trkpt><trkpt lat="48.91841973628921" lon="6.945134992273447"><ele>228.0</ele><time>2026-05-02T19:14:33Z</time></trkpt><trkpt lat="48.91832920614794" lon="6.945054773345928"><ele>228.0</ele><time>2026-05-02T19:14:34Z</time></trkpt><trkpt lat="48.91825406077758" lon="6.944963624977258"><ele>228.0</ele><time>2026-05-02T19:14:35Z</time></trkpt><trkpt lat="48.91818477100905" lon="6.944878854304824"><ele>228.0</ele><time>2026-05-02T19:14:36Z</time></trkpt><trkpt lat="48.918111276833606" lon="6.944783872242778"><ele>228.0</ele><time>2026-05-02T19:14:37Z</time></trkpt><trkpt lat="48.91803084353141" lon="6.944685740463323"><ele>228.0</ele><time>2026-05-02T19:14:38Z</time></trkpt><trkpt lat="48.91794856621177" lon="6.944598505660765"><ele>228.0</ele><time>2026-05-02T19:14:39Z</time></trkpt><trkpt lat="48.917871919824925" lon="6.944500391835022"><ele>228.0</ele><time>2026-05-02T19:14:40Z</time></trkpt><trkpt lat="48.9178003973281" lon="6.944400083633752"><ele>228.0</ele><time>2026-05-02T19:14:41Z</time></trkpt><trkpt lat="48.91773458277183" lon="6.944308536407747"><ele>228.2</ele><time>2026-05-02T19:14:42Z</time></trkpt><trkpt lat="48.91767460376036" lon="6.9442019875278005"><ele>228.4</ele><time>2026-05-02T19:14:43Z</time></trkpt><trkpt lat="48.91762921940445" lon="6.944072155667906"><ele>228.59999999999997</ele><time>2026-05-02T19:14:44Z</time></trkpt><trkpt lat="48.91758766620088" lon="6.943934207598865"><ele>228.79999999999998</ele><time>2026-05-02T19:14:45Z</time></trkpt><trkpt lat="48.91754373365838" lon="6.943796418620923"><ele>229.0</ele><time>2026-05-02T19:14:46Z</time></trkpt><trkpt lat="48.91750630970798" lon="6.9436590265724885"><ele>228.0</ele><time>2026-05-02T19:14:47Z</time></trkpt><trkpt lat="48.917469566565366" lon="6.943530889765586"><ele>226.99999999999997</ele><time>2026-05-02T19:14:48Z</time></trkpt><trkpt lat="48.9174322344673" lon="6.943398099577619"><ele>225.99999999999997</ele><time>2026-05-02T19:14:49Z</time></trkpt><trkpt lat="48.91739183698492" lon="6.94327144055425"><ele>225.0</ele><time>2026-05-02T19:14:50Z</time></trkpt><trkpt lat="48.91734174901023" lon="6.943142319992247"><ele>224.0</ele><time>2026-05-02T19:14:51Z</time></trkpt><trkpt lat="48.91728011986297" lon="6.943013231114115"><ele>224.0</ele><time>2026-05-02T19:14:52Z</time></trkpt><trkpt lat="48.91722286847277" lon="6.942879936278957"><ele>223.99999999999997</ele><time>2026-05-02T19:14:53Z</time></trkpt><trkpt lat="48.91717738161023" lon="6.942746756625939"><ele>223.99999999999997</ele><time>2026-05-02T19:14:54Z</time></trkpt><trkpt lat="48.91714131292531" lon="6.942613498356644"><ele>224.0</ele><time>2026-05-02T19:14:55Z</time></trkpt><trkpt lat="48.91711337510765" lon="6.942475383299343"><ele>224.0</ele><time>2026-05-02T19:14:56Z</time></trkpt><trkpt lat="48.91709403455581" lon="6.942336590544133"><ele>223.50000000000003</ele><time>2026-05-02T19:14:57Z</time></trkpt><trkpt lat="48.917073234773596" lon="6.942193888707126"><ele>223.0</ele><time>2026-05-02T19:14:58Z</time></trkpt><trkpt lat="48.9170550206395" lon="6.942058016417712"><ele>222.5</ele><time>2026-05-02T19:14:59Z</time></trkpt><trkpt lat="48.91703457667049" lon="6.941942263283309"><ele>222.0</ele><time>2026-05-02T19:15:00Z</time></trkpt><trkpt lat="48.91700434247273" lon="6.941838580310828"><ele>221.50000000000003</ele><time>2026-05-02T19:15:01Z</time></trkpt><trkpt lat="48.916946830246665" lon="6.9417494567719356"><ele>221.0</ele><time>2026-05-02T19:15:02Z</time></trkpt><trkpt lat="48.9168743140623" lon="6.941703899326404"><ele>221.0</ele><time>2026-05-02T19:15:03Z</time></trkpt><trkpt lat="48.916807330204875" lon="6.941640272729835"><ele>221.00000000000003</ele><time>2026-05-02T19:15:04Z</time></trkpt><trkpt lat="48.91673429777635" lon="6.941578867348603"><ele>221.00000000000003</ele><time>2026-05-02T19:15:05Z</time></trkpt><trkpt lat="48.91661528330082" lon="6.941686655067102"><ele>221.0</ele><time>2026-05-02T19:15:06Z</time></trkpt><trkpt lat="48.91652277710402" lon="6.941759903977885"><ele>221.0</ele><time>2026-05-02T19:15:07Z</time></trkpt><trkpt lat="48.916417868165624" lon="6.9418299560761065"><ele>220.4</ele><time>2026-05-02T19:15:08Z</time></trkpt><trkpt lat="48.91632873037091" lon="6.941903263804924"><ele>219.8</ele><time>2026-05-02T19:15:09Z</time></trkpt><trkpt lat="48.91625064641547" lon="6.941959290279822"><ele>219.20000000000002</ele><time>2026-05-02T19:15:10Z</time></trkpt><trkpt lat="48.91617199161175" lon="6.942009313097437"><ele>218.60000000000002</ele><time>2026-05-02T19:15:11Z</time></trkpt><trkpt lat="48.916086027456295" lon="6.942052062129345"><ele>218.0</ele><time>2026-05-02T19:15:12Z</time></trkpt><trkpt lat="48.91598414904065" lon="6.941987825470122"><ele>218.2</ele><time>2026-05-02T19:15:13Z</time></trkpt><trkpt lat="48.91588159060473" lon="6.941912136590586"><ele>218.4</ele><time>2026-05-02T19:15:14Z</time></trkpt><trkpt lat="48.9157789092804" lon="6.941862501042924"><ele>218.59999999999997</ele><time>2026-05-02T19:15:15Z</time></trkpt><trkpt lat="48.91568718419793" lon="6.941805589127674"><ele>218.79999999999998</ele><time>2026-05-02T19:15:16Z</time></trkpt><trkpt lat="48.915603613066864" lon="6.941769052153304"><ele>219.0</ele><time>2026-05-02T19:15:17Z</time></trkpt><trkpt lat="48.91552884431947" lon="6.941731566716262"><ele>219.0</ele><time>2026-05-02T19:15:18Z</time></trkpt><trkpt lat="48.91543686803686" lon="6.941748077629833"><ele>218.99999999999997</ele><time>2026-05-02T19:15:19Z</time></trkpt><trkpt lat="48.915348962459944" lon="6.941869909010627"><ele>218.99999999999997</ele><time>2026-05-02T19:15:20Z</time></trkpt><trkpt lat="48.915307087847474" lon="6.942035498266717"><ele>219.0</ele><time>2026-05-02T19:15:21Z</time></trkpt><trkpt lat="48.915257946533096" lon="6.942187850728471"><ele>219.0</ele><time>2026-05-02T19:15:22Z</time></trkpt><trkpt lat="48.915251133969726" lon="6.942369870499609"><ele>219.0</ele><time>2026-05-02T19:15:22.999Z</time></trkpt><trkpt lat="48.91526555158826" lon="6.942546699328781"><ele>218.99999999999997</ele><time>2026-05-02T19:15:23.999Z</time></trkpt><trkpt lat="48.91525764890689" lon="6.942716137664553"><ele>218.99999999999997</ele><time>2026-05-02T19:15:24.999Z</time></trkpt><trkpt lat="48.91525200932101" lon="6.942876689300786"><ele>219.0</ele><time>2026-05-02T19:15:25.999Z</time></trkpt><trkpt lat="48.91523963860264" lon="6.943039763705495"><ele>219.0</ele><time>2026-05-02T19:15:26.999Z</time></trkpt><trkpt lat="48.91522021374864" lon="6.943201507607591"><ele>218.5</ele><time>2026-05-02T19:15:27.999Z</time></trkpt><trkpt lat="48.91519707334664" lon="6.943376072314606"><ele>218.0</ele><time>2026-05-02T19:15:28.999Z</time></trkpt><trkpt lat="48.91516644047563" lon="6.9435499255983935"><ele>217.5</ele><time>2026-05-02T19:15:29.999Z</time></trkpt><trkpt lat="48.91512440791389" lon="6.943710166565886"><ele>217.0</ele><time>2026-05-02T19:15:30.999Z</time></trkpt><trkpt lat="48.915098134844705" lon="6.943862974071033"><ele>217.8</ele><time>2026-05-02T19:15:31.999Z</time></trkpt><trkpt lat="48.915065472875334" lon="6.9439976178287175"><ele>218.6</ele><time>2026-05-02T19:15:32.999Z</time></trkpt><trkpt lat="48.91501193760729" lon="6.944120109569814"><ele>219.40000000000003</ele><time>2026-05-02T19:15:33.999Z</time></trkpt><trkpt lat="48.91493394532877" lon="6.944229555702054"><ele>220.20000000000002</ele><time>2026-05-02T19:15:34.999Z</time></trkpt><trkpt lat="48.91484971882882" lon="6.944356441466415"><ele>221.0</ele><time>2026-05-02T19:15:35.999Z</time></trkpt><trkpt lat="48.914761548918705" lon="6.9444842006081"><ele>221.20000000000002</ele><time>2026-05-02T19:15:36.999Z</time></trkpt><trkpt lat="48.91468343547993" lon="6.944599429425014"><ele>221.40000000000003</ele><time>2026-05-02T19:15:37.999Z</time></trkpt><trkpt lat="48.914628883399764" lon="6.94471670562234"><ele>221.6</ele><time>2026-05-02T19:15:38.999Z</time></trkpt><trkpt lat="48.914565678228996" lon="6.944807820494681"><ele>221.8</ele><time>2026-05-02T19:15:39.999Z</time></trkpt><trkpt lat="48.91446503373644" lon="6.9449253387646435"><ele>222.0</ele><time>2026-05-02T19:15:41.999Z</time></trkpt><trkpt lat="48.9144167569261" lon="6.9449886040112565"><ele>222.0</ele><time>2026-05-02T19:15:43.999Z</time></trkpt><trkpt lat="48.91429446089604" lon="6.944813061989188"><ele>222.0</ele><time>2026-05-02T19:15:44.999Z</time></trkpt><trkpt lat="48.91421209396942" lon="6.944714091550811"><ele>222.0</ele><time>2026-05-02T19:15:45.999Z</time></trkpt><trkpt lat="48.914130914268" lon="6.944603256423152"><ele>222.0</ele><time>2026-05-02T19:15:46.999Z</time></trkpt><trkpt lat="48.914060939796165" lon="6.944517025395772"><ele>222.5</ele><time>2026-05-02T19:15:47.999Z</time></trkpt><trkpt lat="48.9139912100693" lon="6.944421179670114"><ele>223.0</ele><time>2026-05-02T19:15:48.999Z</time></trkpt><trkpt lat="48.91392858605227" lon="6.944321611823785"><ele>223.5</ele><time>2026-05-02T19:15:49.999Z</time></trkpt><trkpt lat="48.91387864330896" lon="6.944223909984092"><ele>224.0</ele><time>2026-05-02T19:15:50.999Z</time></trkpt><trkpt lat="48.91383526844141" lon="6.9441349240774874"><ele>224.5</ele><time>2026-05-02T19:15:51.999Z</time></trkpt><trkpt lat="48.913734021576616" lon="6.944090885379678"><ele>225.0</ele><time>2026-05-02T19:15:53.999Z</time></trkpt><trkpt lat="48.9136272276612" lon="6.944199559665616"><ele>225.0</ele><time>2026-05-02T19:15:55.999Z</time></trkpt><trkpt lat="48.913553735094084" lon="6.944274566605593"><ele>225.0</ele><time>2026-05-02T19:15:56.999Z</time></trkpt><trkpt lat="48.913466624306814" lon="6.944352251370098"><ele>225.0</ele><time>2026-05-02T19:15:57.999Z</time></trkpt><trkpt lat="48.91338100303531" lon="6.944416175023149"><ele>225.0</ele><time>2026-05-02T19:15:58.999Z</time></trkpt><trkpt lat="48.91329257799891" lon="6.9444943656545135"><ele>225.0</ele><time>2026-05-02T19:15:59.999Z</time></trkpt><trkpt lat="48.91319922543129" lon="6.944572182795786"><ele>224.8</ele><time>2026-05-02T19:16:00.999Z</time></trkpt><trkpt lat="48.91311178328966" lon="6.944646737251175"><ele>224.6</ele><time>2026-05-02T19:16:01.999Z</time></trkpt><trkpt lat="48.91302731723268" lon="6.9447181068793356"><ele>224.39999999999998</ele><time>2026-05-02T19:16:02.999Z</time></trkpt><trkpt lat="48.91294541506117" lon="6.9447868027528825"><ele>224.2</ele><time>2026-05-02T19:16:03.999Z</time></trkpt><trkpt lat="48.912859448039605" lon="6.944829189451692"><ele>224.0</ele><time>2026-05-02T19:16:04.999Z</time></trkpt><trkpt lat="48.91278457230124" lon="6.944880223423467"><ele>224.0</ele><time>2026-05-02T19:16:05.999Z</time></trkpt><trkpt lat="48.91270666957043" lon="6.944912328068006"><ele>223.99999999999997</ele><time>2026-05-02T19:16:07Z</time></trkpt><trkpt lat="48.912628503439954" lon="6.94493920918253"><ele>223.99999999999997</ele><time>2026-05-02T19:16:08Z</time></trkpt><trkpt lat="48.912545888030486" lon="6.94488085326028"><ele>224.0</ele><time>2026-05-02T19:16:09Z</time></trkpt><trkpt lat="48.912461587434485" lon="6.9448151206495226"><ele>224.0</ele><time>2026-05-02T19:16:10Z</time></trkpt><trkpt lat="48.912363284411335" lon="6.9447581485157786"><ele>223.2</ele><time>2026-05-02T19:16:11Z</time></trkpt><trkpt lat="48.912275171580035" lon="6.944665149498474"><ele>222.39999999999998</ele><time>2026-05-02T19:16:12Z</time></trkpt><trkpt lat="48.9121793017692" lon="6.944578511602866"><ele>221.6</ele><time>2026-05-02T19:16:13Z</time></trkpt><trkpt lat="48.91207861044858" lon="6.944499787024576"><ele>220.8</ele><time>2026-05-02T19:16:14Z</time></trkpt><trkpt lat="48.91197827927917" lon="6.944426018461998"><ele>220.0</ele><time>2026-05-02T19:16:15Z</time></trkpt><trkpt lat="48.9118709325565" lon="6.944361570721495"><ele>220.0</ele><time>2026-05-02T19:16:16Z</time></trkpt><trkpt lat="48.911760023765424" lon="6.944313478944618"><ele>220.0</ele><time>2026-05-02T19:16:17Z</time></trkpt><trkpt lat="48.91164420796797" lon="6.9442893896445765"><ele>220.0</ele><time>2026-05-02T19:16:18Z</time></trkpt><trkpt lat="48.91152569597746" lon="6.944282205979058"><ele>220.0</ele><time>2026-05-02T19:16:19Z</time></trkpt><trkpt lat="48.91140397595318" lon="6.944279643984468"><ele>220.25</ele><time>2026-05-02T19:16:20Z</time></trkpt><trkpt lat="48.91128060936499" lon="6.944285922934158"><ele>220.5</ele><time>2026-05-02T19:16:21Z</time></trkpt><trkpt lat="48.911156474860285" lon="6.944263769856663"><ele>220.75</ele><time>2026-05-02T19:16:22Z</time></trkpt><trkpt lat="48.911033976865085" lon="6.944267680693591"><ele>221.0</ele><time>2026-05-02T19:16:23Z</time></trkpt><trkpt lat="48.91090912616983" lon="6.944271666644721"><ele>221.0</ele><time>2026-05-02T19:16:24Z</time></trkpt><trkpt lat="48.91078242683694" lon="6.944275711614671"><ele>221.0</ele><time>2026-05-02T19:16:25Z</time></trkpt><trkpt lat="48.91065456592923" lon="6.944279793667108"><ele>221.0</ele><time>2026-05-02T19:16:26Z</time></trkpt><trkpt lat="48.910529122496264" lon="6.944283798540953"><ele>221.0</ele><time>2026-05-02T19:16:27Z</time></trkpt><trkpt lat="48.910401544583614" lon="6.944287871558483"><ele>221.0</ele><time>2026-05-02T19:16:28Z</time></trkpt><trkpt lat="48.91027351522744" lon="6.944292524941563"><ele>221.0</ele><time>2026-05-02T19:16:29Z</time></trkpt><trkpt lat="48.9101437683451" lon="6.944298240666112"><ele>221.0</ele><time>2026-05-02T19:16:30Z</time></trkpt><trkpt lat="48.91001351204605" lon="6.944305029834914"><ele>221.0</ele><time>2026-05-02T19:16:31Z</time></trkpt><trkpt lat="48.90988470121581" lon="6.944334568910739"><ele>221.25</ele><time>2026-05-02T19:16:32Z</time></trkpt><trkpt lat="48.90975547579418" lon="6.944341846671004"><ele>221.5</ele><time>2026-05-02T19:16:33Z</time></trkpt><trkpt lat="48.90962625684436" lon="6.944322508857483"><ele>221.75</ele><time>2026-05-02T19:16:34Z</time></trkpt><trkpt lat="48.90949847873886" lon="6.944347593122185"><ele>222.0</ele><time>2026-05-02T19:16:35Z</time></trkpt><trkpt lat="48.90937023249327" lon="6.944345061747956"><ele>222.0</ele><time>2026-05-02T19:16:36Z</time></trkpt><trkpt lat="48.90924293238134" lon="6.944341533041237"><ele>222.0</ele><time>2026-05-02T19:16:37Z</time></trkpt><trkpt lat="48.909116852187125" lon="6.944342803659281"><ele>222.0</ele><time>2026-05-02T19:16:38Z</time></trkpt><trkpt lat="48.90900705843391" lon="6.944342976066304"><ele>222.0</ele><time>2026-05-02T19:16:39Z</time></trkpt><trkpt lat="48.90890602078348" lon="6.944339219416041"><ele>222.0</ele><time>2026-05-02T19:16:40Z</time></trkpt><trkpt lat="48.90881492633991" lon="6.944325520738564"><ele>222.0</ele><time>2026-05-02T19:16:41Z</time></trkpt><trkpt lat="48.908740526318624" lon="6.944325977503248"><ele>222.0</ele><time>2026-05-02T19:16:42Z</time></trkpt><trkpt lat="48.90867389660383" lon="6.944362116994156"><ele>222.0</ele><time>2026-05-02T19:16:43Z</time></trkpt><trkpt lat="48.908618744609605" lon="6.944489557994269"><ele>222.0</ele><time>2026-05-02T19:16:44Z</time></trkpt><trkpt lat="48.90854773368045" lon="6.944633235744174"><ele>222.0</ele><time>2026-05-02T19:16:45Z</time></trkpt><trkpt lat="48.90847658084713" lon="6.944772785198277"><ele>222.0</ele><time>2026-05-02T19:16:46Z</time></trkpt><trkpt lat="48.90841737353924" lon="6.944888906439045"><ele>222.0</ele><time>2026-05-02T19:16:47Z</time></trkpt><trkpt lat="48.90835807379568" lon="6.945005599440899"><ele>222.0</ele><time>2026-05-02T19:16:48Z</time></trkpt><trkpt lat="48.90829339342336" lon="6.945135000343246"><ele>222.0</ele><time>2026-05-02T19:16:49Z</time></trkpt><trkpt lat="48.908225771840975" lon="6.945270285606437"><ele>222.39999999999998</ele><time>2026-05-02T19:16:50Z</time></trkpt><trkpt lat="48.908167732257304" lon="6.945386400832853"><ele>222.79999999999998</ele><time>2026-05-02T19:16:51Z</time></trkpt><trkpt lat="48.9081154310602" lon="6.945491035727357"><ele>223.2</ele><time>2026-05-02T19:16:52Z</time></trkpt><trkpt lat="48.90806129711397" lon="6.945599337336141"><ele>223.6</ele><time>2026-05-02T19:16:53Z</time></trkpt><trkpt lat="48.908001752307" lon="6.945717765717475"><ele>224.0</ele><time>2026-05-02T19:16:54Z</time></trkpt><trkpt lat="48.90794004195589" lon="6.945840587885524"><ele>224.50000000000003</ele><time>2026-05-02T19:16:55Z</time></trkpt><trkpt lat="48.907883455600015" lon="6.945939832809374"><ele>225.0</ele><time>2026-05-02T19:16:56Z</time></trkpt><trkpt lat="48.90781731954161" lon="6.94602134096297"><ele>225.5</ele><time>2026-05-02T19:16:57Z</time></trkpt><trkpt lat="48.90774969375367" lon="6.946080489440124"><ele>226.0</ele><time>2026-05-02T19:16:58Z</time></trkpt><trkpt lat="48.90767311612338" lon="6.946140945802151"><ele>226.50000000000003</ele><time>2026-05-02T19:16:59Z</time></trkpt><trkpt lat="48.90757784964372" lon="6.9461222445446715"><ele>227.0</ele><time>2026-05-02T19:17:00Z</time></trkpt><trkpt lat="48.90748694102622" lon="6.946105817385204"><ele>227.2</ele><time>2026-05-02T19:17:01Z</time></trkpt><trkpt lat="48.907392985141655" lon="6.946091235567348"><ele>227.39999999999998</ele><time>2026-05-02T19:17:02Z</time></trkpt><trkpt lat="48.907286219073825" lon="6.946072722553262"><ele>227.60000000000002</ele><time>2026-05-02T19:17:03Z</time></trkpt><trkpt lat="48.90718621850746" lon="6.946055382649317"><ele>227.8</ele><time>2026-05-02T19:17:04Z</time></trkpt><trkpt lat="48.90708929778928" lon="6.946063118700121"><ele>228.0</ele><time>2026-05-02T19:17:05Z</time></trkpt><trkpt lat="48.90700212218215" lon="6.946036340507429"><ele>228.0</ele><time>2026-05-02T19:17:06Z</time></trkpt><trkpt lat="48.90691155697293" lon="6.946031301855748"><ele>228.0</ele><time>2026-05-02T19:17:07Z</time></trkpt><trkpt lat="48.90682014138755" lon="6.94601548125682"><ele>228.0</ele><time>2026-05-02T19:17:08Z</time></trkpt><trkpt lat="48.90673624766571" lon="6.9459991847586"><ele>228.0</ele><time>2026-05-02T19:17:09Z</time></trkpt><trkpt lat="48.90665108637039" lon="6.945973602424751"><ele>228.0</ele><time>2026-05-02T19:17:10Z</time></trkpt><trkpt lat="48.90656323932415" lon="6.945976397105461"><ele>228.0</ele><time>2026-05-02T19:17:11Z</time></trkpt><trkpt lat="48.90647683098046" lon="6.945987513573"><ele>228.2</ele><time>2026-05-02T19:17:12Z</time></trkpt><trkpt lat="48.906387650421095" lon="6.946030377726377"><ele>228.4</ele><time>2026-05-02T19:17:13Z</time></trkpt><trkpt lat="48.90630034949829" lon="6.946084914483475"><ele>228.59999999999997</ele><time>2026-05-02T19:17:14Z</time></trkpt><trkpt lat="48.90620876180426" lon="6.946151120741973"><ele>228.79999999999998</ele><time>2026-05-02T19:17:15Z</time></trkpt><trkpt lat="48.90612797222686" lon="6.94623010700171"><ele>229.0</ele><time>2026-05-02T19:17:16Z</time></trkpt><trkpt lat="48.906055943315366" lon="6.946316288245094"><ele>229.0</ele><time>2026-05-02T19:17:17Z</time></trkpt><trkpt lat="48.90598082914502" lon="6.946396103389943"><ele>228.99999999999997</ele><time>2026-05-02T19:17:18Z</time></trkpt><trkpt lat="48.90590033334516" lon="6.946472347653094"><ele>228.99999999999997</ele><time>2026-05-02T19:17:19Z</time></trkpt><trkpt lat="48.90581027772254" lon="6.946556768327779"><ele>229.0</ele><time>2026-05-02T19:17:20Z</time></trkpt><trkpt lat="48.905725638698584" lon="6.946648458138325"><ele>229.0</ele><time>2026-05-02T19:17:21Z</time></trkpt><trkpt lat="48.905647568228304" lon="6.946741051478155"><ele>229.2</ele><time>2026-05-02T19:17:22Z</time></trkpt><trkpt lat="48.90556776497469" lon="6.946820916533018"><ele>229.39999999999998</ele><time>2026-05-02T19:17:23Z</time></trkpt><trkpt lat="48.90548979622032" lon="6.946902075083287"><ele>229.6</ele><time>2026-05-02T19:17:24Z</time></trkpt><trkpt lat="48.90541734666449" lon="6.946987428174085"><ele>229.8</ele><time>2026-05-02T19:17:25Z</time></trkpt><trkpt lat="48.90534651651421" lon="6.94707809715551"><ele>230.0</ele><time>2026-05-02T19:17:26Z</time></trkpt><trkpt lat="48.90527833553422" lon="6.947176587925812"><ele>230.0</ele><time>2026-05-02T19:17:27Z</time></trkpt><trkpt lat="48.90521654104528" lon="6.947288334812163"><ele>230.0</ele><time>2026-05-02T19:17:28Z</time></trkpt><trkpt lat="48.905163740696075" lon="6.947419445313211"><ele>230.0</ele><time>2026-05-02T19:17:29Z</time></trkpt><trkpt lat="48.905092386159886" lon="6.947537962545967"><ele>230.0</ele><time>2026-05-02T19:17:30Z</time></trkpt><trkpt lat="48.90503672069263" lon="6.947656651022583"><ele>230.0</ele><time>2026-05-02T19:17:31Z</time></trkpt><trkpt lat="48.904983179104775" lon="6.9477684069572145"><ele>231.8</ele><time>2026-05-02T19:17:32Z</time></trkpt><trkpt lat="48.90492651311453" lon="6.947885631155223"><ele>233.6</ele><time>2026-05-02T19:17:32.999Z</time></trkpt><trkpt lat="48.90486576141541" lon="6.948008027954847"><ele>235.39999999999998</ele><time>2026-05-02T19:17:33.999Z</time></trkpt><trkpt lat="48.90480626473852" lon="6.948121287586934"><ele>237.2</ele><time>2026-05-02T19:17:34.999Z</time></trkpt><trkpt lat="48.90473552112471" lon="6.948243331853444"><ele>239.0</ele><time>2026-05-02T19:17:35.999Z</time></trkpt><trkpt lat="48.90466868492377" lon="6.948346968148733"><ele>240.2</ele><time>2026-05-02T19:17:36.999Z</time></trkpt><trkpt lat="48.90459545459389" lon="6.948447932179051"><ele>241.39999999999998</ele><time>2026-05-02T19:17:37.999Z</time></trkpt><trkpt lat="48.90451653144731" lon="6.948558655303448"><ele>242.6</ele><time>2026-05-02T19:17:38.999Z</time></trkpt><trkpt lat="48.90443653524382" lon="6.948646732628566"><ele>243.8</ele><time>2026-05-02T19:17:39.999Z</time></trkpt><trkpt lat="48.90435863509176" lon="6.948742079046911"><ele>245.0</ele><time>2026-05-02T19:17:40.999Z</time></trkpt><trkpt lat="48.90426973072246" lon="6.948815013316942"><ele>244.8</ele><time>2026-05-02T19:17:41.999Z</time></trkpt><trkpt lat="48.904202108537085" lon="6.948927476499143"><ele>244.6</ele><time>2026-05-02T19:17:42.999Z</time></trkpt><trkpt lat="48.904121762537244" lon="6.949023023912362"><ele>244.39999999999998</ele><time>2026-05-02T19:17:43.999Z</time></trkpt><trkpt lat="48.90403426568098" lon="6.949108620040553"><ele>244.2</ele><time>2026-05-02T19:17:44.999Z</time></trkpt><trkpt lat="48.903953555790565" lon="6.949215764906571"><ele>244.0</ele><time>2026-05-02T19:17:45.999Z</time></trkpt><trkpt lat="48.90387650051171" lon="6.949313266964847"><ele>244.6</ele><time>2026-05-02T19:17:46.999Z</time></trkpt><trkpt lat="48.90379523737042" lon="6.949393951759019"><ele>245.2</ele><time>2026-05-02T19:17:47.999Z</time></trkpt><trkpt lat="48.90371058365848" lon="6.949498001565637"><ele>245.79999999999998</ele><time>2026-05-02T19:17:48.999Z</time></trkpt><trkpt lat="48.9036332055413" lon="6.949592079388376"><ele>246.39999999999998</ele><time>2026-05-02T19:17:49.999Z</time></trkpt><trkpt lat="48.90355448950232" lon="6.949688810701773"><ele>247.0</ele><time>2026-05-02T19:17:50.999Z</time></trkpt><trkpt lat="48.90347176384541" lon="6.949782849065248"><ele>247.39999999999998</ele><time>2026-05-02T19:17:51.999Z</time></trkpt><trkpt lat="48.90339093651149" lon="6.94986954282373"><ele>247.79999999999998</ele><time>2026-05-02T19:17:52.999Z</time></trkpt><trkpt lat="48.90332059620435" lon="6.949961758204352"><ele>248.2</ele><time>2026-05-02T19:17:53.999Z</time></trkpt><trkpt lat="48.90324593314591" lon="6.950039178736493"><ele>248.6</ele><time>2026-05-02T19:17:54.999Z</time></trkpt><trkpt lat="48.90317258424244" lon="6.9501379226508035"><ele>249.0</ele><time>2026-05-02T19:17:55.999Z</time></trkpt><trkpt lat="48.9030855756374" lon="6.95020843472639"><ele>249.0</ele><time>2026-05-02T19:17:56.999Z</time></trkpt><trkpt lat="48.90301385864888" lon="6.950320643637563"><ele>248.99999999999997</ele><time>2026-05-02T19:17:57.999Z</time></trkpt><trkpt lat="48.902932576135974" lon="6.950410917259649"><ele>248.99999999999997</ele><time>2026-05-02T19:17:58.999Z</time></trkpt><trkpt lat="48.90284369888985" lon="6.950505589542485"><ele>249.0</ele><time>2026-05-02T19:17:59.999Z</time></trkpt><trkpt lat="48.902767732391276" lon="6.950603415937658"><ele>249.0</ele><time>2026-05-02T19:18:00.999Z</time></trkpt><trkpt lat="48.9026943471798" lon="6.950697342089929"><ele>249.0</ele><time>2026-05-02T19:18:01.999Z</time></trkpt><trkpt lat="48.90262002991212" lon="6.950770638612317"><ele>248.99999999999997</ele><time>2026-05-02T19:18:02.999Z</time></trkpt><trkpt lat="48.9025460274138" lon="6.950874911048568"><ele>248.99999999999997</ele><time>2026-05-02T19:18:03.999Z</time></trkpt><trkpt lat="48.90246417025631" lon="6.950955905563599"><ele>249.0</ele><time>2026-05-02T19:18:04.999Z</time></trkpt><trkpt lat="48.90238330439928" lon="6.951058385496235"><ele>249.0</ele><time>2026-05-02T19:18:05.999Z</time></trkpt><trkpt lat="48.90229959103919" lon="6.9511608752912055"><ele>249.2</ele><time>2026-05-02T19:18:06.999Z</time></trkpt><trkpt lat="48.902217531638534" lon="6.951253657424786"><ele>249.39999999999998</ele><time>2026-05-02T19:18:07.999Z</time></trkpt><trkpt lat="48.90214498046686" lon="6.951349533944826"><ele>249.6</ele><time>2026-05-02T19:18:08.999Z</time></trkpt><trkpt lat="48.90206159491274" lon="6.951438439630213"><ele>249.8</ele><time>2026-05-02T19:18:09.999Z</time></trkpt><trkpt lat="48.901995309112706" lon="6.95152461878827"><ele>250.0</ele><time>2026-05-02T19:18:10.999Z</time></trkpt><trkpt lat="48.901929256591366" lon="6.951597812800393"><ele>249.99999999999997</ele><time>2026-05-02T19:18:11.999Z</time></trkpt><trkpt lat="48.9018647743107" lon="6.95167140158033"><ele>250.0</ele><time>2026-05-02T19:18:13Z</time></trkpt><trkpt lat="48.9017884824657" lon="6.9517601994369835"><ele>250.0</ele><time>2026-05-02T19:18:14Z</time></trkpt><trkpt lat="48.90171806754607" lon="6.951826393692711"><ele>250.0</ele><time>2026-05-02T19:18:15Z</time></trkpt><trkpt lat="48.90166388015403" lon="6.951878971179652"><ele>249.99999999999997</ele><time>2026-05-02T19:18:16Z</time></trkpt><trkpt lat="48.90160310164806" lon="6.951925946336428"><ele>250.0</ele><time>2026-05-02T19:18:17Z</time></trkpt><trkpt lat="48.90151705177413" lon="6.951899616780943"><ele>249.8</ele><time>2026-05-02T19:18:18Z</time></trkpt><trkpt lat="48.90142299098849" lon="6.951909947260367"><ele>249.6</ele><time>2026-05-02T19:18:19Z</time></trkpt><trkpt lat="48.90131814242714" lon="6.95192130883963"><ele>249.39999999999998</ele><time>2026-05-02T19:18:20Z</time></trkpt><trkpt lat="48.901222618097" lon="6.9519292295360176"><ele>249.2</ele><time>2026-05-02T19:18:21Z</time></trkpt><trkpt lat="48.90111786207195" lon="6.951937915706473"><ele>249.0</ele><time>2026-05-02T19:18:22Z</time></trkpt><trkpt lat="48.90100677665357" lon="6.951947126696819"><ele>249.0</ele><time>2026-05-02T19:18:23Z</time></trkpt><trkpt lat="48.9009059149783" lon="6.951955489953753"><ele>248.99999999999997</ele><time>2026-05-02T19:18:24Z</time></trkpt><trkpt lat="48.90080818637671" lon="6.951963752236523"><ele>248.99999999999997</ele><time>2026-05-02T19:18:25Z</time></trkpt><trkpt lat="48.900718691716364" lon="6.95197166689775"><ele>249.0</ele><time>2026-05-02T19:18:26Z</time></trkpt><trkpt lat="48.90062950570851" lon="6.95197955426633"><ele>249.0</ele><time>2026-05-02T19:18:27Z</time></trkpt><trkpt lat="48.90053377965963" lon="6.951988020014643"><ele>249.0</ele><time>2026-05-02T19:18:28Z</time></trkpt><trkpt lat="48.90043880661094" lon="6.951996508991989"><ele>248.99999999999997</ele><time>2026-05-02T19:18:29Z</time></trkpt><trkpt lat="48.900339807575016" lon="6.952005525653244"><ele>248.99999999999997</ele><time>2026-05-02T19:18:30Z</time></trkpt><trkpt lat="48.900248406562554" lon="6.952013850294997"><ele>249.0</ele><time>2026-05-02T19:18:31Z</time></trkpt><trkpt lat="48.90014270991007" lon="6.9520234769605604"><ele>249.0</ele><time>2026-05-02T19:18:32Z</time></trkpt><trkpt lat="48.90003937182666" lon="6.952032888812632"><ele>249.39999999999998</ele><time>2026-05-02T19:18:33Z</time></trkpt><trkpt lat="48.8999414594094" lon="6.952041806503609"><ele>249.79999999999998</ele><time>2026-05-02T19:18:34Z</time></trkpt><trkpt lat="48.89985805096662" lon="6.952049403196105"><ele>250.20000000000002</ele><time>2026-05-02T19:18:35Z</time></trkpt><trkpt lat="48.89976946067207" lon="6.952057471847481"><ele>250.60000000000002</ele><time>2026-05-02T19:18:36Z</time></trkpt><trkpt lat="48.89967450309937" lon="6.952066120414818"><ele>251.0</ele><time>2026-05-02T19:18:37Z</time></trkpt><trkpt lat="48.899573801566824" lon="6.952075292135357"><ele>251.0</ele><time>2026-05-02T19:18:38Z</time></trkpt><trkpt lat="48.899471344894856" lon="6.952084623708974"><ele>251.00000000000003</ele><time>2026-05-02T19:18:39Z</time></trkpt><trkpt lat="48.89937623577167" lon="6.952093463002722"><ele>251.00000000000003</ele><time>2026-05-02T19:18:40Z</time></trkpt><trkpt lat="48.89927636509474" lon="6.952103376224672"><ele>251.0</ele><time>2026-05-02T19:18:41Z</time></trkpt><trkpt lat="48.89918192643866" lon="6.952112750259464"><ele>251.0</ele><time>2026-05-02T19:18:42Z</time></trkpt><trkpt lat="48.8990875153078" lon="6.952122121563624"><ele>251.4</ele><time>2026-05-02T19:18:43Z</time></trkpt><trkpt lat="48.898989714396464" lon="6.952131829337397"><ele>251.8</ele><time>2026-05-02T19:18:44Z</time></trkpt><trkpt lat="48.898893742495304" lon="6.952141355562409"><ele>252.20000000000002</ele><time>2026-05-02T19:18:45Z</time></trkpt><trkpt lat="48.89879283367033" lon="6.952151371829506"><ele>252.60000000000002</ele><time>2026-05-02T19:18:46Z</time></trkpt><trkpt lat="48.898690696964415" lon="6.952161509977293"><ele>253.0</ele><time>2026-05-02T19:18:47Z</time></trkpt><trkpt lat="48.898591938192034" lon="6.952171212262211"><ele>253.0</ele><time>2026-05-02T19:18:48Z</time></trkpt><trkpt lat="48.89849328836955" lon="6.952179770923214"><ele>253.0</ele><time>2026-05-02T19:18:49Z</time></trkpt><trkpt lat="48.89839792462511" lon="6.952188044491217"><ele>253.0</ele><time>2026-05-02T19:18:50Z</time></trkpt><trkpt lat="48.89829820896143" lon="6.952220011449203"><ele>253.0</ele><time>2026-05-02T19:18:51Z</time></trkpt><trkpt lat="48.89819774147065" lon="6.952226155472263"><ele>253.0</ele><time>2026-05-02T19:18:52Z</time></trkpt><trkpt lat="48.898095678063896" lon="6.952234091362291"><ele>253.8</ele><time>2026-05-02T19:18:53Z</time></trkpt><trkpt lat="48.89799893328701" lon="6.952237125914714"><ele>254.60000000000002</ele><time>2026-05-02T19:18:54Z</time></trkpt><trkpt lat="48.89790384112724" lon="6.952252192720314"><ele>255.39999999999998</ele><time>2026-05-02T19:18:55Z</time></trkpt><trkpt lat="48.8978002084694" lon="6.952248446330059"><ele>256.2</ele><time>2026-05-02T19:18:56Z</time></trkpt><trkpt lat="48.89770013930864" lon="6.952256331073663"><ele>257.0</ele><time>2026-05-02T19:18:57Z</time></trkpt><trkpt lat="48.89759813400513" lon="6.952272991623667"><ele>258.0</ele><time>2026-05-02T19:18:58Z</time></trkpt><trkpt lat="48.897498204167" lon="6.952230101327822"><ele>259.0</ele><time>2026-05-02T19:18:59Z</time></trkpt><trkpt lat="48.89739557957363" lon="6.952184165530012"><ele>260.0</ele><time>2026-05-02T19:19:00Z</time></trkpt><trkpt lat="48.897289193131506" lon="6.952143972822218"><ele>261.0</ele><time>2026-05-02T19:19:01Z</time></trkpt><trkpt lat="48.897194880821324" lon="6.952108341709825"><ele>262.0</ele><time>2026-05-02T19:19:02Z</time></trkpt><trkpt lat="48.89710488906701" lon="6.952079314637251"><ele>262.0</ele><time>2026-05-02T19:19:03Z</time></trkpt><trkpt lat="48.89701974367223" lon="6.952059475633659"><ele>262.0</ele><time>2026-05-02T19:19:04Z</time></trkpt><trkpt lat="48.896947957445015" lon="6.952013819254971"><ele>262.0</ele><time>2026-05-02T19:19:05Z</time></trkpt><trkpt lat="48.896863294691165" lon="6.951980674957683"><ele>262.0</ele><time>2026-05-02T19:19:06Z</time></trkpt><trkpt lat="48.896792312677526" lon="6.951952886491524"><ele>262.0</ele><time>2026-05-02T19:19:07Z</time></trkpt><trkpt lat="48.89671838515398" lon="6.951923944871077"><ele>262.0</ele><time>2026-05-02T19:19:08Z</time></trkpt><trkpt lat="48.89664398390753" lon="6.951894817828445"><ele>261.8</ele><time>2026-05-02T19:19:09Z</time></trkpt><trkpt lat="48.89654060055932" lon="6.95185434468314"><ele>261.6</ele><time>2026-05-02T19:19:11Z</time></trkpt><trkpt lat="48.89647097104951" lon="6.951827085691177"><ele>261.40000000000003</ele><time>2026-05-02T19:19:13Z</time></trkpt><trkpt lat="48.89637105974853" lon="6.951787971834771"><ele>261.2</ele><time>2026-05-02T19:21:14Z</time></trkpt><trkpt lat="48.8962531174619" lon="6.951741799067039"><ele>261.0</ele><time>2026-05-02T19:21:16Z</time></trkpt><trkpt lat="48.89612760177367" lon="6.951692661398114"><ele>261.0</ele><time>2026-05-02T19:21:18Z</time></trkpt><trkpt lat="48.89605371401961" lon="6.9516637353746935"><ele>261.0</ele><time>2026-05-02T19:21:19Z</time></trkpt><trkpt lat="48.895962262387926" lon="6.951627933319956"><ele>261.0</ele><time>2026-05-02T19:21:20Z</time></trkpt><trkpt lat="48.8958786999138" lon="6.951595219765487"><ele>261.0</ele><time>2026-05-02T19:21:21Z</time></trkpt><trkpt lat="48.89579489592533" lon="6.951562274072812"><ele>261.0</ele><time>2026-05-02T19:21:22Z</time></trkpt><trkpt lat="48.89570629088514" lon="6.951527330712779"><ele>261.0</ele><time>2026-05-02T19:21:23Z</time></trkpt><trkpt lat="48.89561880648066" lon="6.95149282931595"><ele>261.8</ele><time>2026-05-02T19:21:24Z</time></trkpt><trkpt lat="48.89552767577688" lon="6.951458050896381"><ele>262.6</ele><time>2026-05-02T19:21:25Z</time></trkpt><trkpt lat="48.89543873379784" lon="6.9514243203720145"><ele>263.4</ele><time>2026-05-02T19:21:26Z</time></trkpt><trkpt lat="48.89535407884883" lon="6.951392215633526"><ele>264.2</ele><time>2026-05-02T19:21:27Z</time></trkpt><trkpt lat="48.89526509693461" lon="6.951358469960633"><ele>265.0</ele><time>2026-05-02T19:21:28Z</time></trkpt><trkpt lat="48.89517058935282" lon="6.951320429623081"><ele>265.6</ele><time>2026-05-02T19:21:29Z</time></trkpt><trkpt lat="48.89508038390577" lon="6.9512837490360235"><ele>266.2</ele><time>2026-05-02T19:21:30Z</time></trkpt><trkpt lat="48.89498831145845" lon="6.951245743616683"><ele>266.8</ele><time>2026-05-02T19:21:31Z</time></trkpt><trkpt lat="48.89487896630937" lon="6.951197962924507"><ele>267.4</ele><time>2026-05-02T19:21:32Z</time></trkpt><trkpt lat="48.89479196077555" lon="6.9511599440068625"><ele>268.0</ele><time>2026-05-02T19:21:33Z</time></trkpt><trkpt lat="48.89471266018062" lon="6.951124795889171"><ele>268.0</ele><time>2026-05-02T19:21:34Z</time></trkpt><trkpt lat="48.894640088694864" lon="6.951092464494985"><ele>268.0</ele><time>2026-05-02T19:21:35Z</time></trkpt><trkpt lat="48.89456266226116" lon="6.95105797017124"><ele>268.0</ele><time>2026-05-02T19:21:36Z</time></trkpt><trkpt lat="48.894479938858424" lon="6.951021116001248"><ele>268.0</ele><time>2026-05-02T19:21:37Z</time></trkpt><trkpt lat="48.89439237039861" lon="6.9509821032849475"><ele>268.0</ele><time>2026-05-02T19:21:38Z</time></trkpt><trkpt lat="48.89430576077627" lon="6.950943517747255"><ele>268.0</ele><time>2026-05-02T19:21:39Z</time></trkpt><trkpt lat="48.89422870742272" lon="6.950909189635246"><ele>268.0</ele><time>2026-05-02T19:21:40Z</time></trkpt><trkpt lat="48.89415237246863" lon="6.95087518157613"><ele>268.0</ele><time>2026-05-02T19:21:41Z</time></trkpt><trkpt lat="48.8940685733871" lon="6.950837873135584"><ele>268.0</ele><time>2026-05-02T19:21:42Z</time></trkpt><trkpt lat="48.89398114322153" lon="6.950799009339844"><ele>268.0</ele><time>2026-05-02T19:21:43Z</time></trkpt><trkpt lat="48.89389470609139" lon="6.950761120976107"><ele>268.0</ele><time>2026-05-02T19:21:44Z</time></trkpt><trkpt lat="48.89381357801401" lon="6.950727421889422"><ele>268.0</ele><time>2026-05-02T19:21:45Z</time></trkpt><trkpt lat="48.89372420979892" lon="6.950692544903926"><ele>267.6</ele><time>2026-05-02T19:21:46Z</time></trkpt><trkpt lat="48.893634029261285" lon="6.950660552850796"><ele>267.20000000000005</ele><time>2026-05-02T19:21:47Z</time></trkpt><trkpt lat="48.89355024381018" lon="6.95063551175464"><ele>266.8</ele><time>2026-05-02T19:21:48Z</time></trkpt><trkpt lat="48.89346336715152" lon="6.9506073252082565"><ele>266.40000000000003</ele><time>2026-05-02T19:21:49Z</time></trkpt><trkpt lat="48.89337534052546" lon="6.950591761326602"><ele>266.0</ele><time>2026-05-02T19:21:50Z</time></trkpt><trkpt lat="48.89327942250032" lon="6.950591769802703"><ele>266.0</ele><time>2026-05-02T19:21:51Z</time></trkpt><trkpt lat="48.893181429630545" lon="6.9506065379730035"><ele>266.0</ele><time>2026-05-02T19:21:52Z</time></trkpt><trkpt lat="48.89308324943404" lon="6.950633739863289"><ele>266.0</ele><time>2026-05-02T19:21:53Z</time></trkpt><trkpt lat="48.89298201823896" lon="6.950686601878309"><ele>266.0</ele><time>2026-05-02T19:21:54Z</time></trkpt><trkpt lat="48.89287024994929" lon="6.950706712061355"><ele>266.0</ele><time>2026-05-02T19:21:55Z</time></trkpt><trkpt lat="48.892765430225836" lon="6.950744545533159"><ele>266.0</ele><time>2026-05-02T19:21:56Z</time></trkpt><trkpt lat="48.89267069983527" lon="6.950785344150857"><ele>266.0</ele><time>2026-05-02T19:21:57Z</time></trkpt><trkpt lat="48.89257853394262" lon="6.950821685288503"><ele>266.0</ele><time>2026-05-02T19:21:58Z</time></trkpt><trkpt lat="48.89247934867438" lon="6.950853999468158"><ele>266.0</ele><time>2026-05-02T19:21:59Z</time></trkpt><trkpt lat="48.892377813933294" lon="6.950886798137979"><ele>266.0</ele><time>2026-05-02T19:21:59.999Z</time></trkpt><trkpt lat="48.89228415931377" lon="6.950911683451414"><ele>264.40000000000003</ele><time>2026-05-02T19:22:00.999Z</time></trkpt><trkpt lat="48.89220169189236" lon="6.950940197220109"><ele>262.8</ele><time>2026-05-02T19:22:01.999Z</time></trkpt><trkpt lat="48.89212094266212" lon="6.950970739308874"><ele>261.20000000000005</ele><time>2026-05-02T19:22:02.999Z</time></trkpt><trkpt lat="48.89203206984455" lon="6.950993008885476"><ele>259.6</ele><time>2026-05-02T19:22:03.999Z</time></trkpt><trkpt lat="48.8919289549689" lon="6.951024075207938"><ele>258.0</ele><time>2026-05-02T19:22:04.999Z</time></trkpt><trkpt lat="48.89183671028846" lon="6.951031866333563"><ele>257.8</ele><time>2026-05-02T19:22:05.999Z</time></trkpt><trkpt lat="48.891738128480895" lon="6.951080080430332"><ele>257.6</ele><time>2026-05-02T19:22:06.999Z</time></trkpt><trkpt lat="48.89163808940986" lon="6.951080806875858"><ele>257.4</ele><time>2026-05-02T19:22:07.999Z</time></trkpt><trkpt lat="48.891555085931834" lon="6.9511011591314915"><ele>257.2</ele><time>2026-05-02T19:22:08.999Z</time></trkpt><trkpt lat="48.891471586699645" lon="6.951121632925955"><ele>257.0</ele><time>2026-05-02T19:22:09.999Z</time></trkpt><trkpt lat="48.891374878288055" lon="6.951145345602873"><ele>257.0</ele><time>2026-05-02T19:22:10.999Z</time></trkpt><trkpt lat="48.89126901887499" lon="6.951171302080706"><ele>257.0</ele><time>2026-05-02T19:22:11.999Z</time></trkpt><trkpt lat="48.89117116884481" lon="6.95119541281667"><ele>257.0</ele><time>2026-05-02T19:22:12.999Z</time></trkpt><trkpt lat="48.8910764741636" lon="6.951219833586436"><ele>257.0</ele><time>2026-05-02T19:22:13.999Z</time></trkpt><trkpt lat="48.89098277070156" lon="6.951243998731606"><ele>257.0</ele><time>2026-05-02T19:22:14.999Z</time></trkpt><trkpt lat="48.89089322206394" lon="6.951268928687684"><ele>257.0</ele><time>2026-05-02T19:22:15.999Z</time></trkpt><trkpt lat="48.89080100205169" lon="6.951294720711738"><ele>257.0</ele><time>2026-05-02T19:22:16.999Z</time></trkpt><trkpt lat="48.89071105562154" lon="6.95132203927476"><ele>257.0</ele><time>2026-05-02T19:22:17.999Z</time></trkpt><trkpt lat="48.890613852066444" lon="6.951351879558767"><ele>257.0</ele><time>2026-05-02T19:22:18.999Z</time></trkpt><trkpt lat="48.89051803367142" lon="6.951384585741233"><ele>257.0</ele><time>2026-05-02T19:22:20Z</time></trkpt><trkpt lat="48.89041820892864" lon="6.951419009161127"><ele>257.0</ele><time>2026-05-02T19:22:20.999Z</time></trkpt><trkpt lat="48.89032745395596" lon="6.9514768208527045"><ele>257.0</ele><time>2026-05-02T19:22:21.999Z</time></trkpt><trkpt lat="48.8902262808866" lon="6.951492261851796"><ele>257.0</ele><time>2026-05-02T19:22:22.999Z</time></trkpt><trkpt lat="48.890133026484065" lon="6.951532762215947"><ele>257.0</ele><time>2026-05-02T19:22:23.999Z</time></trkpt><trkpt lat="48.890043709440235" lon="6.951564854111464"><ele>257.0</ele><time>2026-05-02T19:22:25Z</time></trkpt><trkpt lat="48.8899442773921" lon="6.951596432444085"><ele>256.8</ele><time>2026-05-02T19:22:26Z</time></trkpt><trkpt lat="48.889847716481135" lon="6.951625239798827"><ele>256.6</ele><time>2026-05-02T19:22:27Z</time></trkpt><trkpt lat="48.88974955647192" lon="6.95165578143027"><ele>256.40000000000003</ele><time>2026-05-02T19:22:28Z</time></trkpt><trkpt lat="48.889657775725496" lon="6.951684183378587"><ele>256.2</ele><time>2026-05-02T19:22:29Z</time></trkpt><trkpt lat="48.88957126620068" lon="6.951715901745316"><ele>256.0</ele><time>2026-05-02T19:22:30Z</time></trkpt><trkpt lat="48.88948519436212" lon="6.951724153354024"><ele>255.66666666666666</ele><time>2026-05-02T19:22:31Z</time></trkpt><trkpt lat="48.88942443806282" lon="6.951759129344463"><ele>255.33333333333331</ele><time>2026-05-02T19:22:32Z</time></trkpt><trkpt lat="48.88933852460107" lon="6.9517497347609885"><ele>255.0</ele><time>2026-05-02T19:22:33Z</time></trkpt><trkpt lat="48.889248519774924" lon="6.95176405834747"><ele>254.66666666666669</ele><time>2026-05-02T19:22:34Z</time></trkpt><trkpt lat="48.88917084479121" lon="6.951773873700455"><ele>254.33333333333334</ele><time>2026-05-02T19:22:35Z</time></trkpt><trkpt lat="48.88908189573125" lon="6.951784847809089"><ele>254.0</ele><time>2026-05-02T19:22:36Z</time></trkpt><trkpt lat="48.888995801172406" lon="6.951793630919337"><ele>253.83333333333334</ele><time>2026-05-02T19:22:37Z</time></trkpt><trkpt lat="48.88892165785591" lon="6.951817312913262"><ele>253.66666666666669</ele><time>2026-05-02T19:22:38Z</time></trkpt><trkpt lat="48.88884292093435" lon="6.951785963792136"><ele>253.5</ele><time>2026-05-02T19:22:40Z</time></trkpt><trkpt lat="48.88877685280735" lon="6.951792751631999"><ele>253.33333333333331</ele><time>2026-05-02T19:23:03Z</time></trkpt><trkpt lat="48.88871469263862" lon="6.951853225316716"><ele>253.16666666666666</ele><time>2026-05-02T19:23:04Z</time></trkpt><trkpt lat="48.88865566328627" lon="6.951929075085124"><ele>253.0</ele><time>2026-05-02T19:23:05Z</time></trkpt><trkpt lat="48.88857207233417" lon="6.952011234463043"><ele>253.0</ele><time>2026-05-02T19:23:06Z</time></trkpt><trkpt lat="48.88849540372206" lon="6.952084381831627"><ele>253.0</ele><time>2026-05-02T19:23:07Z</time></trkpt><trkpt lat="48.88840365032345" lon="6.95216236544624"><ele>253.0</ele><time>2026-05-02T19:23:08Z</time></trkpt><trkpt lat="48.88829349724579" lon="6.9522528981513165"><ele>253.0</ele><time>2026-05-02T19:23:09Z</time></trkpt><trkpt lat="48.88816856741855" lon="6.952368302023521"><ele>253.33333333333331</ele><time>2026-05-02T19:23:10Z</time></trkpt><trkpt lat="48.88804556778965" lon="6.9524801072190066"><ele>253.66666666666669</ele><time>2026-05-02T19:23:11Z</time></trkpt><trkpt lat="48.88790164011348" lon="6.952596897944155"><ele>254.0</ele><time>2026-05-02T19:23:12Z</time></trkpt><trkpt lat="48.88775792354102" lon="6.952722113938725"><ele>254.33333333333334</ele><time>2026-05-02T19:23:13Z</time></trkpt><trkpt lat="48.8876101442912" lon="6.952849606674228"><ele>254.66666666666669</ele><time>2026-05-02T19:23:14Z</time></trkpt><trkpt lat="48.887464473702195" lon="6.952971644532117"><ele>255.0</ele><time>2026-05-02T19:23:15Z</time></trkpt><trkpt lat="48.88732112799523" lon="6.953102151132327"><ele>255.33333333333331</ele><time>2026-05-02T19:23:16Z</time></trkpt><trkpt lat="48.88717240071458" lon="6.953239118133286"><ele>255.66666666666666</ele><time>2026-05-02T19:23:17Z</time></trkpt><trkpt lat="48.88702436673732" lon="6.95337794390846"><ele>256.0</ele><time>2026-05-02T19:23:18Z</time></trkpt><trkpt lat="48.88687447977021" lon="6.9535213956152475"><ele>255.33333333333331</ele><time>2026-05-02T19:23:19Z</time></trkpt><trkpt lat="48.88672342079744" lon="6.953655263088816"><ele>254.66666666666669</ele><time>2026-05-02T19:23:20Z</time></trkpt><trkpt lat="48.88657678876612" lon="6.953788891588386"><ele>254.0</ele><time>2026-05-02T19:23:21Z</time></trkpt><trkpt lat="48.88642418010289" lon="6.953926651015746"><ele>254.0</ele><time>2026-05-02T19:23:22Z</time></trkpt><trkpt lat="48.88627053160969" lon="6.954070962758116"><ele>254.0</ele><time>2026-05-02T19:23:23Z</time></trkpt><trkpt lat="48.88611831171906" lon="6.9542120193755"><ele>254.0</ele><time>2026-05-02T19:23:24Z</time></trkpt><trkpt lat="48.8859645420406" lon="6.954357653437423"><ele>254.0</ele><time>2026-05-02T19:23:25Z</time></trkpt><trkpt lat="48.88581672027968" lon="6.954506938053306"><ele>254.0</ele><time>2026-05-02T19:23:26Z</time></trkpt><trkpt lat="48.88565761576937" lon="6.954631961955056"><ele>254.0</ele><time>2026-05-02T19:23:27Z</time></trkpt><trkpt lat="48.8855077730566" lon="6.954776990119742"><ele>254.0</ele><time>2026-05-02T19:23:28Z</time></trkpt><trkpt lat="48.885367268745526" lon="6.954941735142864"><ele>254.0</ele><time>2026-05-02T19:23:29Z</time></trkpt><trkpt lat="48.88522258225432" lon="6.955081650976605"><ele>254.0</ele><time>2026-05-02T19:23:30Z</time></trkpt><trkpt lat="48.8850702249148" lon="6.955227641134825"><ele>255.0</ele><time>2026-05-02T19:23:31Z</time></trkpt><trkpt lat="48.884919154480926" lon="6.955376563207733"><ele>256.0</ele><time>2026-05-02T19:23:32Z</time></trkpt><trkpt lat="48.88476813334192" lon="6.955527386475747"><ele>257.0</ele><time>2026-05-02T19:23:33Z</time></trkpt><trkpt lat="48.88461247116351" lon="6.955679695860125"><ele>257.0</ele><time>2026-05-02T19:23:34Z</time></trkpt><trkpt lat="48.88445727894014" lon="6.955834680846011"><ele>257.0</ele><time>2026-05-02T19:23:35Z</time></trkpt><trkpt lat="48.88430043469455" lon="6.955987343609683"><ele>257.0</ele><time>2026-05-02T19:23:36Z</time></trkpt><trkpt lat="48.88413631411538" lon="6.956121055094098"><ele>256.6666666666667</ele><time>2026-05-02T19:23:37Z</time></trkpt><trkpt lat="48.883979907368904" lon="6.95627299091168"><ele>256.3333333333333</ele><time>2026-05-02T19:23:38Z</time></trkpt><trkpt lat="48.88383143823699" lon="6.956417216037401"><ele>256.0</ele><time>2026-05-02T19:23:39Z</time></trkpt><trkpt lat="48.88368828704448" lon="6.956583497442367"><ele>256.3333333333333</ele><time>2026-05-02T19:23:40Z</time></trkpt><trkpt lat="48.88353795627514" lon="6.956726596868217"><ele>256.6666666666667</ele><time>2026-05-02T19:23:41Z</time></trkpt><trkpt lat="48.88338663887914" lon="6.956868872852961"><ele>257.0</ele><time>2026-05-02T19:23:42Z</time></trkpt><trkpt lat="48.88323382053515" lon="6.957012468139516"><ele>257.0</ele><time>2026-05-02T19:23:43Z</time></trkpt><trkpt lat="48.88307843023862" lon="6.957155410717147"><ele>257.0</ele><time>2026-05-02T19:23:44Z</time></trkpt><trkpt lat="48.882927527261465" lon="6.957304136296217"><ele>257.0</ele><time>2026-05-02T19:23:45Z</time></trkpt><trkpt lat="48.8827781081121" lon="6.957442394222214"><ele>256.33333333333337</ele><time>2026-05-02T19:23:46Z</time></trkpt><trkpt lat="48.882635318812014" lon="6.95758828016867"><ele>255.66666666666669</ele><time>2026-05-02T19:23:47Z</time></trkpt><trkpt lat="48.88249370904316" lon="6.95772183984864"><ele>255.0</ele><time>2026-05-02T19:23:48Z</time></trkpt><trkpt lat="48.882351332459685" lon="6.957856799908229"><ele>253.33333333333331</ele><time>2026-05-02T19:23:49Z</time></trkpt><trkpt lat="48.882215417670956" lon="6.957981941524699"><ele>251.66666666666666</ele><time>2026-05-02T19:23:50Z</time></trkpt><trkpt lat="48.88207976410116" lon="6.958103491222618"><ele>250.0</ele><time>2026-05-02T19:23:50.999Z</time></trkpt><trkpt lat="48.88194292409986" lon="6.958218571785251"><ele>250.0</ele><time>2026-05-02T19:23:51.999Z</time></trkpt><trkpt lat="48.88180132768781" lon="6.958326599100281"><ele>250.0</ele><time>2026-05-02T19:23:52.999Z</time></trkpt><trkpt lat="48.88165540232673" lon="6.9584230553688835"><ele>250.0</ele><time>2026-05-02T19:23:53.999Z</time></trkpt><trkpt lat="48.88150687501143" lon="6.958500900098536"><ele>247.0</ele><time>2026-05-02T19:23:54.999Z</time></trkpt><trkpt lat="48.88136106814584" lon="6.958571787269049"><ele>244.0</ele><time>2026-05-02T19:23:55.999Z</time></trkpt><trkpt lat="48.88121295507627" lon="6.9586380816585125"><ele>241.0</ele><time>2026-05-02T19:23:56.999Z</time></trkpt><trkpt lat="48.881051719121416" lon="6.958702356262767"><ele>239.33333333333331</ele><time>2026-05-02T19:23:57.999Z</time></trkpt><trkpt lat="48.88088604960844" lon="6.95876277558052"><ele>237.66666666666669</ele><time>2026-05-02T19:23:58.999Z</time></trkpt><trkpt lat="48.88071373441178" lon="6.958820530216684"><ele>236.0</ele><time>2026-05-02T19:23:59.999Z</time></trkpt><trkpt lat="48.88053564386688" lon="6.958886255442595"><ele>236.0</ele><time>2026-05-02T19:24:00.999Z</time></trkpt><trkpt lat="48.88034924562556" lon="6.958951571438378"><ele>236.0</ele><time>2026-05-02T19:24:01.999Z</time></trkpt><trkpt lat="48.88016880140488" lon="6.95901344248497"><ele>236.0</ele><time>2026-05-02T19:24:02.999Z</time></trkpt><trkpt lat="48.87999144934582" lon="6.959079372888791"><ele>235.66666666666669</ele><time>2026-05-02T19:24:03.999Z</time></trkpt><trkpt lat="48.87982537156668" lon="6.959133179258523"><ele>235.33333333333331</ele><time>2026-05-02T19:24:04.999Z</time></trkpt><trkpt lat="48.879653146304534" lon="6.959188212153972"><ele>235.0</ele><time>2026-05-02T19:24:05.999Z</time></trkpt><trkpt lat="48.87948934436887" lon="6.959246980796377"><ele>235.0</ele><time>2026-05-02T19:24:06.999Z</time></trkpt><trkpt lat="48.879322702245325" lon="6.95930133747949"><ele>235.0</ele><time>2026-05-02T19:24:07.999Z</time></trkpt><trkpt lat="48.8791610586825" lon="6.959351499481252"><ele>235.0</ele><time>2026-05-02T19:24:08.999Z</time></trkpt><trkpt lat="48.8789948851663" lon="6.95939504470951"><ele>235.0</ele><time>2026-05-02T19:24:09.999Z</time></trkpt><trkpt lat="48.8788268817891" lon="6.959457363570489"><ele>235.0</ele><time>2026-05-02T19:24:10.999Z</time></trkpt><trkpt lat="48.878661017518915" lon="6.959518764678716"><ele>235.0</ele><time>2026-05-02T19:24:11.999Z</time></trkpt><trkpt lat="48.878497698007536" lon="6.9595790378280284"><ele>233.0</ele><time>2026-05-02T19:24:12.999Z</time></trkpt><trkpt lat="48.878333279622844" lon="6.959639760765316"><ele>231.0</ele><time>2026-05-02T19:24:13.999Z</time></trkpt><trkpt lat="48.87816882792225" lon="6.9597084081850245"><ele>229.0</ele><time>2026-05-02T19:24:14.999Z</time></trkpt><trkpt lat="48.878007861123415" lon="6.959794501454097"><ele>229.0</ele><time>2026-05-02T19:24:15.999Z</time></trkpt><trkpt lat="48.8778621876515" lon="6.959893108084717"><ele>229.0</ele><time>2026-05-02T19:24:16.999Z</time></trkpt><trkpt lat="48.87772786818122" lon="6.9600064127724846"><ele>229.0</ele><time>2026-05-02T19:24:17.999Z</time></trkpt><trkpt lat="48.877599022161036" lon="6.960152129587355"><ele>226.66666666666666</ele><time>2026-05-02T19:24:18.999Z</time></trkpt><trkpt lat="48.8774668158813" lon="6.960314321117406"><ele>224.33333333333331</ele><time>2026-05-02T19:24:19.999Z</time></trkpt><trkpt lat="48.87733689844549" lon="6.960492193796856"><ele>222.0</ele><time>2026-05-02T19:24:20.999Z</time></trkpt><trkpt lat="48.877214387937535" lon="6.960675928089405"><ele>222.0</ele><time>2026-05-02T19:24:21.999Z</time></trkpt><trkpt lat="48.87710494916684" lon="6.960859452282547"><ele>222.0</ele><time>2026-05-02T19:24:22.999Z</time></trkpt><trkpt lat="48.87701223984449" lon="6.961055502676228"><ele>222.0</ele><time>2026-05-02T19:24:23.999Z</time></trkpt><trkpt lat="48.8769328252873" lon="6.961276879210219"><ele>223.66666666666669</ele><time>2026-05-02T19:24:24.999Z</time></trkpt><trkpt lat="48.87684663915519" lon="6.96149125841989"><ele>225.33333333333334</ele><time>2026-05-02T19:24:25.999Z</time></trkpt><trkpt lat="48.876776310769394" lon="6.961713136249448"><ele>227.0</ele><time>2026-05-02T19:24:26.999Z</time></trkpt><trkpt lat="48.876719609764905" lon="6.961944092149103"><ele>229.0</ele><time>2026-05-02T19:24:27.999Z</time></trkpt><trkpt lat="48.876702373068966" lon="6.962194871093782"><ele>231.0</ele><time>2026-05-02T19:24:28.999Z</time></trkpt><trkpt lat="48.876689564508084" lon="6.962444111784449"><ele>233.0</ele><time>2026-05-02T19:24:29.999Z</time></trkpt><trkpt lat="48.876678794415454" lon="6.962700155537485"><ele>234.33333333333334</ele><time>2026-05-02T19:24:31Z</time></trkpt><trkpt lat="48.8766480323981" lon="6.96296019478299"><ele>235.66666666666669</ele><time>2026-05-02T19:24:32Z</time></trkpt><trkpt lat="48.87664893263723" lon="6.9632240484983425"><ele>237.0</ele><time>2026-05-02T19:24:33Z</time></trkpt><trkpt lat="48.87663407968039" lon="6.9634906095885"><ele>238.0</ele><time>2026-05-02T19:24:34Z</time></trkpt><trkpt lat="48.876620468423354" lon="6.963761264822535"><ele>239.0</ele><time>2026-05-02T19:24:35Z</time></trkpt><trkpt lat="48.87659272736226" lon="6.964033652918318"><ele>240.0</ele><time>2026-05-02T19:24:36Z</time></trkpt><trkpt lat="48.876579635947884" lon="6.964303883933654"><ele>240.66666666666669</ele><time>2026-05-02T19:24:37Z</time></trkpt><trkpt lat="48.87656544898188" lon="6.964581388257754"><ele>241.33333333333334</ele><time>2026-05-02T19:24:38Z</time></trkpt><trkpt lat="48.876550302580675" lon="6.964854434671907"><ele>242.0</ele><time>2026-05-02T19:24:39Z</time></trkpt><trkpt lat="48.87653611579662" lon="6.96513488651579"><ele>242.66666666666669</ele><time>2026-05-02T19:24:40Z</time></trkpt><trkpt lat="48.87652155302707" lon="6.965416385406773"><ele>243.33333333333331</ele><time>2026-05-02T19:24:41Z</time></trkpt><trkpt lat="48.876505723692375" lon="6.965703402154238"><ele>244.0</ele><time>2026-05-02T19:24:42Z</time></trkpt><trkpt lat="48.87650550969525" lon="6.965999664942668"><ele>244.66666666666666</ele><time>2026-05-02T19:24:43Z</time></trkpt><trkpt lat="48.87649016103727" lon="6.96629182478508"><ele>245.33333333333331</ele><time>2026-05-02T19:24:44Z</time></trkpt><trkpt lat="48.87645846390282" lon="6.966586542282179"><ele>246.0</ele><time>2026-05-02T19:24:45Z</time></trkpt><trkpt lat="48.87645913898471" lon="6.966888352204024"><ele>246.33333333333331</ele><time>2026-05-02T19:24:46Z</time></trkpt><trkpt lat="48.87644078756139" lon="6.967192162679462"><ele>246.66666666666666</ele><time>2026-05-02T19:24:47Z</time></trkpt><trkpt lat="48.876425357431536" lon="6.9674958091348325"><ele>247.0</ele><time>2026-05-02T19:24:48Z</time></trkpt><trkpt lat="48.87639426598478" lon="6.9677843681847484"><ele>247.0</ele><time>2026-05-02T19:24:49Z</time></trkpt><trkpt lat="48.87639480805413" lon="6.968050026500936"><ele>247.0</ele><time>2026-05-02T19:24:50Z</time></trkpt><trkpt lat="48.87637945129475" lon="6.9683019114379245"><ele>247.0</ele><time>2026-05-02T19:24:51Z</time></trkpt><trkpt lat="48.87635966313968" lon="6.968559539918034"><ele>247.0</ele><time>2026-05-02T19:24:52Z</time></trkpt><trkpt lat="48.8763101665591" lon="6.968798348373422"><ele>247.0</ele><time>2026-05-02T19:24:53Z</time></trkpt><trkpt lat="48.87625951151787" lon="6.96902345019793"><ele>247.0</ele><time>2026-05-02T19:24:54Z</time></trkpt><trkpt lat="48.876192510905696" lon="6.969246660606072"><ele>246.66666666666666</ele><time>2026-05-02T19:24:55Z</time></trkpt><trkpt lat="48.87609659031326" lon="6.96945728832904"><ele>246.33333333333331</ele><time>2026-05-02T19:24:56Z</time></trkpt><trkpt lat="48.87598410061397" lon="6.96965854612314"><ele>246.0</ele><time>2026-05-02T19:24:57Z</time></trkpt><trkpt lat="48.87586681164631" lon="6.969862263844301"><ele>247.33333333333331</ele><time>2026-05-02T19:24:58Z</time></trkpt><trkpt lat="48.87575246010415" lon="6.970074748474635"><ele>248.66666666666666</ele><time>2026-05-02T19:24:59Z</time></trkpt><trkpt lat="48.87563135862017" lon="6.970273178802202"><ele>250.0</ele><time>2026-05-02T19:25:00Z</time></trkpt><trkpt lat="48.875509598560825" lon="6.970476855078301"><ele>250.0</ele><time>2026-05-02T19:25:01Z</time></trkpt><trkpt lat="48.87539204209498" lon="6.970680221482779"><ele>250.0</ele><time>2026-05-02T19:25:02Z</time></trkpt><trkpt lat="48.875271307414366" lon="6.970883771681492"><ele>250.0</ele><time>2026-05-02T19:25:03Z</time></trkpt><trkpt lat="48.875151008528626" lon="6.971081438390567"><ele>252.0</ele><time>2026-05-02T19:25:04Z</time></trkpt><trkpt lat="48.875031879142064" lon="6.971278507510158"><ele>254.0</ele><time>2026-05-02T19:25:05Z</time></trkpt><trkpt lat="48.874910423371894" lon="6.971477441491281"><ele>256.0</ele><time>2026-05-02T19:25:06Z</time></trkpt><trkpt lat="48.8747919560933" lon="6.971675965528962"><ele>255.33333333333331</ele><time>2026-05-02T19:25:07Z</time></trkpt><trkpt lat="48.8746602268721" lon="6.971864741818421"><ele>254.66666666666669</ele><time>2026-05-02T19:25:08Z</time></trkpt><trkpt lat="48.87455290911422" lon="6.972086324444675"><ele>254.0</ele><time>2026-05-02T19:25:09Z</time></trkpt><trkpt lat="48.874439660529745" lon="6.972313371246528"><ele>253.33333333333334</ele><time>2026-05-02T19:25:10Z</time></trkpt><trkpt lat="48.87433717683118" lon="6.972560334165115"><ele>252.66666666666669</ele><time>2026-05-02T19:25:11Z</time></trkpt><trkpt lat="48.87424332733488" lon="6.972831265041369"><ele>252.0</ele><time>2026-05-02T19:25:12Z</time></trkpt><trkpt lat="48.874152710433684" lon="6.9731058078206765"><ele>253.0</ele><time>2026-05-02T19:25:13Z</time></trkpt><trkpt lat="48.87404458651963" lon="6.9733661085934475"><ele>254.0</ele><time>2026-05-02T19:25:14Z</time></trkpt><trkpt lat="48.873955319062205" lon="6.973629702720598"><ele>255.0</ele><time>2026-05-02T19:25:15Z</time></trkpt><trkpt lat="48.87386506241948" lon="6.973896217702287"><ele>255.0</ele><time>2026-05-02T19:25:16Z</time></trkpt><trkpt lat="48.873789285450016" lon="6.974169029183538"><ele>255.0</ele><time>2026-05-02T19:25:17Z</time></trkpt><trkpt lat="48.87368509308938" lon="6.974410358559386"><ele>255.0</ele><time>2026-05-02T19:25:18Z</time></trkpt><trkpt lat="48.87359671676197" lon="6.974662625388559"><ele>255.66666666666669</ele><time>2026-05-02T19:25:19Z</time></trkpt><trkpt lat="48.873524264855725" lon="6.974927840837619"><ele>256.33333333333337</ele><time>2026-05-02T19:25:20Z</time></trkpt><trkpt lat="48.87342277803165" lon="6.975172208960442"><ele>257.0</ele><time>2026-05-02T19:25:21Z</time></trkpt><trkpt lat="48.87333494779761" lon="6.975421691205781"><ele>257.33333333333337</ele><time>2026-05-02T19:25:22Z</time></trkpt><trkpt lat="48.873245926414" lon="6.975674557283525"><ele>257.6666666666667</ele><time>2026-05-02T19:25:23Z</time></trkpt><trkpt lat="48.87315703684982" lon="6.975928165588737"><ele>258.0</ele><time>2026-05-02T19:25:24Z</time></trkpt><trkpt lat="48.873070724729416" lon="6.97618090183563"><ele>258.0</ele><time>2026-05-02T19:25:25Z</time></trkpt><trkpt lat="48.87298278970345" lon="6.976438671666399"><ele>258.0</ele><time>2026-05-02T19:25:26Z</time></trkpt><trkpt lat="48.87289484772485" lon="6.976696730837649"><ele>258.0</ele><time>2026-05-02T19:25:27Z</time></trkpt><trkpt lat="48.87280583708366" lon="6.976954116064225"><ele>258.0</ele><time>2026-05-02T19:25:28Z</time></trkpt><trkpt lat="48.87271610438345" lon="6.977213240777291"><ele>258.0</ele><time>2026-05-02T19:25:29Z</time></trkpt><trkpt lat="48.87263180075681" lon="6.977456687843319"><ele>258.0</ele><time>2026-05-02T19:25:30Z</time></trkpt><trkpt lat="48.872550916403426" lon="6.977695615671325"><ele>256.6666666666667</ele><time>2026-05-02T19:25:31Z</time></trkpt><trkpt lat="48.872474815208854" lon="6.97792157751865"><ele>255.33333333333334</ele><time>2026-05-02T19:25:32Z</time></trkpt><trkpt lat="48.87240190535159" lon="6.978138063581032"><ele>254.0</ele><time>2026-05-02T19:25:33Z</time></trkpt><trkpt lat="48.87234450747916" lon="6.978353784134288"><ele>253.0</ele><time>2026-05-02T19:25:34Z</time></trkpt><trkpt lat="48.87227297132898" lon="6.97855553639374"><ele>252.0</ele><time>2026-05-02T19:25:35Z</time></trkpt><trkpt lat="48.87220627221014" lon="6.978749189669975"><ele>251.0</ele><time>2026-05-02T19:25:36Z</time></trkpt><trkpt lat="48.87214046707902" lon="6.9789420384019705"><ele>250.0</ele><time>2026-05-02T19:25:37Z</time></trkpt><trkpt lat="48.87207342936751" lon="6.979138582653545"><ele>250.0</ele><time>2026-05-02T19:25:38Z</time></trkpt><trkpt lat="48.872004977409446" lon="6.979345744200974"><ele>250.0</ele><time>2026-05-02T19:25:39Z</time></trkpt><trkpt lat="48.87193175525135" lon="6.979554651965313"><ele>250.0</ele><time>2026-05-02T19:25:40Z</time></trkpt><trkpt lat="48.87185509350696" lon="6.979757107044021"><ele>250.0</ele><time>2026-05-02T19:25:41Z</time></trkpt><trkpt lat="48.87177671194746" lon="6.979963548598795"><ele>250.0</ele><time>2026-05-02T19:25:42Z</time></trkpt><trkpt lat="48.87169177698651" lon="6.980163369557566"><ele>250.0</ele><time>2026-05-02T19:25:43Z</time></trkpt><trkpt lat="48.87150003080012" lon="6.980516147093287"><ele>251.33333333333331</ele><time>2026-05-02T19:25:45Z</time></trkpt><trkpt lat="48.87139504721219" lon="6.980679112684744"><ele>252.66666666666669</ele><time>2026-05-02T19:25:46Z</time></trkpt><trkpt lat="48.87128268779456" lon="6.9808439948141485"><ele>254.0</ele><time>2026-05-02T19:25:47Z</time></trkpt><trkpt lat="48.87116387681041" lon="6.9810104280598955"><ele>257.0</ele><time>2026-05-02T19:25:48Z</time></trkpt><trkpt lat="48.871044949367466" lon="6.9811731936467405"><ele>260.0</ele><time>2026-05-02T19:25:49Z</time></trkpt><trkpt lat="48.87091770901523" lon="6.981307693623347"><ele>263.0</ele><time>2026-05-02T19:25:50Z</time></trkpt><trkpt lat="48.87081590659052" lon="6.9814728663707335"><ele>264.0</ele><time>2026-05-02T19:25:51Z</time></trkpt><trkpt lat="48.87069842053808" lon="6.981622728424077"><ele>265.0</ele><time>2026-05-02T19:25:52Z</time></trkpt><trkpt lat="48.870585860665564" lon="6.981769818628892"><ele>266.0</ele><time>2026-05-02T19:25:53Z</time></trkpt><trkpt lat="48.8704707526777" lon="6.981920311443283"><ele>265.75</ele><time>2026-05-02T19:25:54Z</time></trkpt><trkpt lat="48.87035283601636" lon="6.982072689840165"><ele>265.5</ele><time>2026-05-02T19:25:55Z</time></trkpt><trkpt lat="48.870245978197225" lon="6.98220847746346"><ele>265.25</ele><time>2026-05-02T19:25:56Z</time></trkpt><trkpt lat="48.87014234743078" lon="6.982339648088242"><ele>265.0</ele><time>2026-05-02T19:25:57Z</time></trkpt><trkpt lat="48.87004178819399" lon="6.982474081923588"><ele>265.25</ele><time>2026-05-02T19:25:58Z</time></trkpt><trkpt lat="48.869939259853496" lon="6.9826114627361795"><ele>265.5</ele><time>2026-05-02T19:25:59Z</time></trkpt><trkpt lat="48.869828247219914" lon="6.982725578177504"><ele>265.75</ele><time>2026-05-02T19:26:00Z</time></trkpt><trkpt lat="48.8697312397685" lon="6.982851883085867"><ele>266.0</ele><time>2026-05-02T19:26:00.999Z</time></trkpt><trkpt lat="48.86964151707256" lon="6.982984598735166"><ele>266.0</ele><time>2026-05-02T19:26:01.999Z</time></trkpt><trkpt lat="48.869556221639336" lon="6.983107271673387"><ele>266.0</ele><time>2026-05-02T19:26:02.999Z</time></trkpt><trkpt lat="48.86947188039414" lon="6.983219880154668"><ele>266.0</ele><time>2026-05-02T19:26:03.999Z</time></trkpt><trkpt lat="48.869390628566585" lon="6.983327625394179"><ele>266.0</ele><time>2026-05-02T19:26:04.999Z</time></trkpt><trkpt lat="48.86931647678243" lon="6.983417953255307"><ele>266.0</ele><time>2026-05-02T19:26:05.999Z</time></trkpt><trkpt lat="48.86925046869367" lon="6.983503744759712"><ele>265.0</ele><time>2026-05-02T19:26:06.999Z</time></trkpt><trkpt lat="48.86918752079053" lon="6.983584723813514"><ele>264.0</ele><time>2026-05-02T19:26:07.999Z</time></trkpt><trkpt lat="48.86910462258379" lon="6.983672063915638"><ele>263.0</ele><time>2026-05-02T19:26:09.999Z</time></trkpt><trkpt lat="48.86903914696588" lon="6.983673993127013"><ele>262.0</ele><time>2026-05-02T19:26:12.999Z</time></trkpt><trkpt lat="48.86890439877354" lon="6.98353894931419"><ele>261.0</ele><time>2026-05-02T19:26:14.999Z</time></trkpt><trkpt lat="48.868787663388794" lon="6.983463102698422"><ele>261.0</ele><time>2026-05-02T19:26:16.999Z</time></trkpt><trkpt lat="48.868717639177476" lon="6.983409392922404"><ele>261.0</ele><time>2026-05-02T19:26:17.999Z</time></trkpt><trkpt lat="48.868643543863804" lon="6.983350345216831"><ele>261.0</ele><time>2026-05-02T19:26:18.999Z</time></trkpt><trkpt lat="48.868572213325486" lon="6.983311783594671"><ele>261.0</ele><time>2026-05-02T19:26:19.999Z</time></trkpt><trkpt lat="48.868499061751166" lon="6.983261589560941"><ele>261.0</ele><time>2026-05-02T19:26:20.999Z</time></trkpt><trkpt lat="48.86842489392689" lon="6.983210893504378"><ele>261.0</ele><time>2026-05-02T19:26:21.999Z</time></trkpt><trkpt lat="48.8683547497222" lon="6.983159364033293"><ele>261.1666666666667</ele><time>2026-05-02T19:26:22.999Z</time></trkpt><trkpt lat="48.868275981627136" lon="6.983101782651712"><ele>261.3333333333333</ele><time>2026-05-02T19:26:23.999Z</time></trkpt><trkpt lat="48.86819688580783" lon="6.983047484450268"><ele>261.5</ele><time>2026-05-02T19:26:24.999Z</time></trkpt><trkpt lat="48.868112397318654" lon="6.982996003347237"><ele>261.66666666666663</ele><time>2026-05-02T19:26:25.999Z</time></trkpt><trkpt lat="48.86802918762309" lon="6.982942994378615"><ele>261.8333333333333</ele><time>2026-05-02T19:26:26.999Z</time></trkpt><trkpt lat="48.86794951441778" lon="6.982879982107438"><ele>262.0</ele><time>2026-05-02T19:26:27.999Z</time></trkpt><trkpt lat="48.86786504527833" lon="6.982826959854057"><ele>262.0</ele><time>2026-05-02T19:26:28.999Z</time></trkpt><trkpt lat="48.86778639775196" lon="6.982776743821768"><ele>262.0</ele><time>2026-05-02T19:26:29.999Z</time></trkpt><trkpt lat="48.86771436416096" lon="6.9827236433356745"><ele>262.0</ele><time>2026-05-02T19:26:30.999Z</time></trkpt><trkpt lat="48.86763904185628" lon="6.982671687296479"><ele>262.0</ele><time>2026-05-02T19:26:31.999Z</time></trkpt><trkpt lat="48.86755876683015" lon="6.982615149709791"><ele>262.0</ele><time>2026-05-02T19:26:32.999Z</time></trkpt><trkpt lat="48.867473202704815" lon="6.982558757649534"><ele>262.0</ele><time>2026-05-02T19:26:33.999Z</time></trkpt><trkpt lat="48.867387381013835" lon="6.982498896712748"><ele>262.2</ele><time>2026-05-02T19:26:34.999Z</time></trkpt><trkpt lat="48.86730359226174" lon="6.982435052046436"><ele>262.4</ele><time>2026-05-02T19:26:35.999Z</time></trkpt><trkpt lat="48.86720848956439" lon="6.982384276542763"><ele>262.6</ele><time>2026-05-02T19:26:37Z</time></trkpt><trkpt lat="48.86712038112676" lon="6.982316854140326"><ele>262.8</ele><time>2026-05-02T19:26:38Z</time></trkpt><trkpt lat="48.86703449353759" lon="6.982250815328918"><ele>263.0</ele><time>2026-05-02T19:26:39Z</time></trkpt><trkpt lat="48.86694565539891" lon="6.982188577213821"><ele>263.0</ele><time>2026-05-02T19:26:40Z</time></trkpt><trkpt lat="48.866857990993545" lon="6.9821255501041914"><ele>263.0</ele><time>2026-05-02T19:26:41Z</time></trkpt><trkpt lat="48.86676505893797" lon="6.982061641516462"><ele>263.0</ele><time>2026-05-02T19:26:42Z</time></trkpt><trkpt lat="48.866672364394795" lon="6.982010155586015"><ele>263.0</ele><time>2026-05-02T19:26:43Z</time></trkpt><trkpt lat="48.86657739785649" lon="6.981946862686084"><ele>263.0</ele><time>2026-05-02T19:26:44Z</time></trkpt><trkpt lat="48.866484019623655" lon="6.981886856462388"><ele>262.6</ele><time>2026-05-02T19:26:45Z</time></trkpt><trkpt lat="48.86639503334302" lon="6.981823211542604"><ele>262.20000000000005</ele><time>2026-05-02T19:26:46Z</time></trkpt><trkpt lat="48.86629853302047" lon="6.9817617007777235"><ele>261.8</ele><time>2026-05-02T19:26:47Z</time></trkpt><trkpt lat="48.86620544487014" lon="6.981695388383008"><ele>261.40000000000003</ele><time>2026-05-02T19:26:48Z</time></trkpt><trkpt lat="48.86611187305222" lon="6.981623731422483"><ele>261.0</ele><time>2026-05-02T19:26:49Z</time></trkpt><trkpt lat="48.866015346547684" lon="6.981553798695022"><ele>262.40000000000003</ele><time>2026-05-02T19:26:50Z</time></trkpt><trkpt lat="48.86592693962907" lon="6.981488073711497"><ele>263.8</ele><time>2026-05-02T19:26:51Z</time></trkpt><trkpt lat="48.86584593845802" lon="6.981430454423442"><ele>265.20000000000005</ele><time>2026-05-02T19:26:52Z</time></trkpt><trkpt lat="48.86575766391071" lon="6.981373606990163"><ele>266.6</ele><time>2026-05-02T19:26:53Z</time></trkpt><trkpt lat="48.86566146718082" lon="6.981304906848201"><ele>268.0</ele><time>2026-05-02T19:26:54Z</time></trkpt><trkpt lat="48.86556871898901" lon="6.981235657467202"><ele>268.0</ele><time>2026-05-02T19:26:55Z</time></trkpt><trkpt lat="48.865469731700735" lon="6.9811769476141725"><ele>268.0</ele><time>2026-05-02T19:26:56Z</time></trkpt><trkpt lat="48.86538073886076" lon="6.98112585169887"><ele>268.0</ele><time>2026-05-02T19:26:57Z</time></trkpt><trkpt lat="48.86529876760395" lon="6.981057081284645"><ele>268.0</ele><time>2026-05-02T19:26:58Z</time></trkpt><trkpt lat="48.86521341222543" lon="6.980998791245748"><ele>268.0</ele><time>2026-05-02T19:26:59Z</time></trkpt><trkpt lat="48.86512639653597" lon="6.9809429239640135"><ele>267.2</ele><time>2026-05-02T19:27:00Z</time></trkpt><trkpt lat="48.86503811995669" lon="6.9808881769216065"><ele>266.4</ele><time>2026-05-02T19:27:01Z</time></trkpt><trkpt lat="48.8649459628392" lon="6.98082685783278"><ele>265.59999999999997</ele><time>2026-05-02T19:27:02Z</time></trkpt><trkpt lat="48.86485245558665" lon="6.980760725192731"><ele>264.8</ele><time>2026-05-02T19:27:03Z</time></trkpt><trkpt lat="48.864764820432605" lon="6.9806908861494925"><ele>264.0</ele><time>2026-05-02T19:27:04Z</time></trkpt><trkpt lat="48.86467565921098" lon="6.980626440661922"><ele>264.0</ele><time>2026-05-02T19:27:05Z</time></trkpt><trkpt lat="48.864582993363896" lon="6.98056877589546"><ele>264.0</ele><time>2026-05-02T19:27:06Z</time></trkpt><trkpt lat="48.86449563050937" lon="6.980511052893045"><ele>264.0</ele><time>2026-05-02T19:27:07Z</time></trkpt><trkpt lat="48.864394426294204" lon="6.980448514229171"><ele>264.0</ele><time>2026-05-02T19:27:08Z</time></trkpt><trkpt lat="48.86430326644492" lon="6.980382652288412"><ele>264.0</ele><time>2026-05-02T19:27:09Z</time></trkpt><trkpt lat="48.864207337222865" lon="6.98031287646899"><ele>266.4</ele><time>2026-05-02T19:27:10Z</time></trkpt><trkpt lat="48.8641156904954" lon="6.9802509096593965"><ele>268.79999999999995</ele><time>2026-05-02T19:27:11Z</time></trkpt><trkpt lat="48.86401781994677" lon="6.9801985166585325"><ele>271.20000000000005</ele><time>2026-05-02T19:27:12Z</time></trkpt><trkpt lat="48.86393157251945" lon="6.980127970428478"><ele>273.6</ele><time>2026-05-02T19:27:13Z</time></trkpt><trkpt lat="48.86384030800955" lon="6.980080561070648"><ele>276.0</ele><time>2026-05-02T19:27:14Z</time></trkpt><trkpt lat="48.863775269164755" lon="6.9800207759803845"><ele>275.40000000000003</ele><time>2026-05-02T19:27:15Z</time></trkpt><trkpt lat="48.863688453538344" lon="6.97996304707404"><ele>274.8</ele><time>2026-05-02T19:27:16Z</time></trkpt><trkpt lat="48.86359903683246" lon="6.97990595033401"><ele>274.20000000000005</ele><time>2026-05-02T19:27:17Z</time></trkpt><trkpt lat="48.86350611531306" lon="6.979850180239689"><ele>273.6</ele><time>2026-05-02T19:27:18Z</time></trkpt><trkpt lat="48.863417842495785" lon="6.979791618692844"><ele>273.0</ele><time>2026-05-02T19:27:19Z</time></trkpt><trkpt lat="48.86333740215819" lon="6.979735772497978"><ele>273.0</ele><time>2026-05-02T19:27:20Z</time></trkpt><trkpt lat="48.86326710004094" lon="6.9796848910962614"><ele>273.0</ele><time>2026-05-02T19:27:21Z</time></trkpt><trkpt lat="48.863204803763274" lon="6.979637864303841"><ele>273.0</ele><time>2026-05-02T19:27:22Z</time></trkpt><trkpt lat="48.863139472524544" lon="6.979588724439421"><ele>273.0</ele><time>2026-05-02T19:27:23Z</time></trkpt><trkpt lat="48.86308046552005" lon="6.979549129265168"><ele>273.0</ele><time>2026-05-02T19:27:24Z</time></trkpt><trkpt lat="48.86299795676509" lon="6.979481418590895"><ele>273.0</ele><time>2026-05-02T19:27:26Z</time></trkpt><trkpt lat="48.86292019689967" lon="6.979426060127057"><ele>273.0</ele><time>2026-05-02T19:27:28Z</time></trkpt><trkpt lat="48.86284215935493" lon="6.979378509325968"><ele>273.0</ele><time>2026-05-02T19:27:30Z</time></trkpt><trkpt lat="48.862773708927406" lon="6.979320291516485"><ele>273.0</ele><time>2026-05-02T19:27:32Z</time></trkpt><trkpt lat="48.86270631581103" lon="6.979280156287921"><ele>273.0</ele><time>2026-05-02T19:27:34Z</time></trkpt><trkpt lat="48.8626369322234" lon="6.97925672461044"><ele>273.0</ele><time>2026-05-02T19:27:36Z</time></trkpt><trkpt lat="48.86256294802636" lon="6.979218247959741"><ele>273.0</ele><time>2026-05-02T19:27:38Z</time></trkpt><trkpt lat="48.86248978179485" lon="6.979157982536096"><ele>271.6666666666667</ele><time>2026-05-02T19:27:40Z</time></trkpt><trkpt lat="48.86242356281525" lon="6.97910506350737"><ele>270.3333333333333</ele><time>2026-05-02T19:28:51Z</time></trkpt><trkpt lat="48.86235507334872" lon="6.979055356206357"><ele>269.0</ele><time>2026-05-02T19:28:53Z</time></trkpt><trkpt lat="48.86228223498235" lon="6.9789946718321625"><ele>267.66666666666663</ele><time>2026-05-02T19:28:56Z</time></trkpt><trkpt lat="48.86221154149637" lon="6.978936455204476"><ele>266.3333333333333</ele><time>2026-05-02T19:28:58Z</time></trkpt><trkpt lat="48.86211934465907" lon="6.978873806041962"><ele>265.0</ele><time>2026-05-02T19:29:00Z</time></trkpt><trkpt lat="48.862048202120356" lon="6.978804936478103"><ele>264.99999999999994</ele><time>2026-05-02T19:29:03Z</time></trkpt><trkpt lat="48.86199242731532" lon="6.9787528033499955"><ele>265.0</ele><time>2026-05-02T19:29:05Z</time></trkpt><trkpt lat="48.861926705164976" lon="6.978722772101063"><ele>265.0</ele><time>2026-05-02T19:29:07Z</time></trkpt><trkpt lat="48.86184635383144" lon="6.978681493269256"><ele>265.0</ele><time>2026-05-02T19:29:10Z</time></trkpt><trkpt lat="48.861773571706415" lon="6.978638376926732"><ele>265.0</ele><time>2026-05-02T19:29:12Z</time></trkpt><trkpt lat="48.861701812397904" lon="6.978595955614733"><ele>264.99999999999994</ele><time>2026-05-02T19:29:14Z</time></trkpt><trkpt lat="48.861635491333" lon="6.978562816300405"><ele>265.0</ele><time>2026-05-02T19:29:16Z</time></trkpt><trkpt lat="48.86155153460506" lon="6.9784985311754415"><ele>264.8333333333333</ele><time>2026-05-02T19:29:19Z</time></trkpt><trkpt lat="48.8614871235605" lon="6.9784623960068535"><ele>264.66666666666663</ele><time>2026-05-02T19:29:21Z</time></trkpt><trkpt lat="48.861429665731904" lon="6.978409389121316"><ele>264.5</ele><time>2026-05-02T19:29:23Z</time></trkpt><trkpt lat="48.86135794825179" lon="6.978325924354662"><ele>264.3333333333333</ele><time>2026-05-02T19:29:25Z</time></trkpt><trkpt lat="48.86128652723916" lon="6.978293063293564"><ele>264.1666666666667</ele><time>2026-05-02T19:29:27Z</time></trkpt><trkpt lat="48.86122293079177" lon="6.9782354471516355"><ele>264.0</ele><time>2026-05-02T19:29:29Z</time></trkpt><trkpt lat="48.86114833787524" lon="6.978188936860785"><ele>263.3333333333333</ele><time>2026-05-02T19:29:31Z</time></trkpt><trkpt lat="48.86107296952351" lon="6.978138675602903"><ele>262.6666666666667</ele><time>2026-05-02T19:29:33Z</time></trkpt><trkpt lat="48.86098863506403" lon="6.978081541079735"><ele>262.0</ele><time>2026-05-02T19:29:35Z</time></trkpt><trkpt lat="48.86090584897018" lon="6.978026109937522"><ele>261.33333333333337</ele><time>2026-05-02T19:29:37Z</time></trkpt><trkpt lat="48.86081777864747" lon="6.977961696262055"><ele>260.6666666666667</ele><time>2026-05-02T19:29:39Z</time></trkpt><trkpt lat="48.860742639682044" lon="6.977913875484159"><ele>260.0</ele><time>2026-05-02T19:29:40Z</time></trkpt><trkpt lat="48.86066436531621" lon="6.977868111334785"><ele>260.00000000000006</ele><time>2026-05-02T19:29:41Z</time></trkpt><trkpt lat="48.86060140498867" lon="6.977816137783233"><ele>260.0</ele><time>2026-05-02T19:29:42Z</time></trkpt><trkpt lat="48.86053909100491" lon="6.977772015218139"><ele>260.0</ele><time>2026-05-02T19:29:43Z</time></trkpt><trkpt lat="48.86046873203856" lon="6.977726457607356"><ele>260.0</ele><time>2026-05-02T19:29:44Z</time></trkpt><trkpt lat="48.86040052602183" lon="6.977680440960573"><ele>260.0</ele><time>2026-05-02T19:29:45Z</time></trkpt><trkpt lat="48.860344036769035" lon="6.977631813298868"><ele>260.00000000000006</ele><time>2026-05-02T19:29:46Z</time></trkpt><trkpt lat="48.86027919020086" lon="6.97758274624983"><ele>260.0</ele><time>2026-05-02T19:29:47Z</time></trkpt><trkpt lat="48.86021434300693" lon="6.977544270853655"><ele>259.6666666666667</ele><time>2026-05-02T19:29:48Z</time></trkpt><trkpt lat="48.86015069560565" lon="6.977501149529224"><ele>259.33333333333337</ele><time>2026-05-02T19:29:49Z</time></trkpt><trkpt lat="48.86007336081291" lon="6.977463554886288"><ele>259.0</ele><time>2026-05-02T19:29:50Z</time></trkpt><trkpt lat="48.86001594202684" lon="6.977417859430293"><ele>258.6666666666667</ele><time>2026-05-02T19:29:51Z</time></trkpt><trkpt lat="48.85994664286062" lon="6.977370355853389"><ele>258.3333333333333</ele><time>2026-05-02T19:29:52Z</time></trkpt><trkpt lat="48.859876353887785" lon="6.97731959640266"><ele>258.0</ele><time>2026-05-02T19:29:53Z</time></trkpt><trkpt lat="48.85980480194587" lon="6.977263594517818"><ele>258.0</ele><time>2026-05-02T19:29:54Z</time></trkpt><trkpt lat="48.85974371656022" lon="6.977206427266463"><ele>258.0</ele><time>2026-05-02T19:29:55Z</time></trkpt><trkpt lat="48.85966573305028" lon="6.977162236423818"><ele>258.0</ele><time>2026-05-02T19:29:56Z</time></trkpt><trkpt lat="48.85959644021146" lon="6.977111959837428"><ele>258.0</ele><time>2026-05-02T19:29:57Z</time></trkpt><trkpt lat="48.859516101867044" lon="6.977063327746434"><ele>258.0</ele><time>2026-05-02T19:29:58Z</time></trkpt><trkpt lat="48.85944267632316" lon="6.977009844270487"><ele>258.0</ele><time>2026-05-02T19:29:59Z</time></trkpt><trkpt lat="48.859362249639396" lon="6.976952329674072"><ele>258.0</ele><time>2026-05-02T19:30:00Z</time></trkpt><trkpt lat="48.859289216035435" lon="6.976903192360638"><ele>258.0</ele><time>2026-05-02T19:30:01Z</time></trkpt><trkpt lat="48.85920981258132" lon="6.976848669864141"><ele>258.0</ele><time>2026-05-02T19:30:02Z</time></trkpt><trkpt lat="48.85912470772209" lon="6.976797092551783"><ele>258.0</ele><time>2026-05-02T19:30:03Z</time></trkpt><trkpt lat="48.85903919624772" lon="6.9767405278115335"><ele>258.0</ele><time>2026-05-02T19:30:04Z</time></trkpt><trkpt lat="48.858965201782226" lon="6.97668862268884"><ele>258.0</ele><time>2026-05-02T19:30:04.999Z</time></trkpt><trkpt lat="48.85888578675849" lon="6.976638601232312"><ele>259.0</ele><time>2026-05-02T19:30:05.999Z</time></trkpt><trkpt lat="48.85880261436122" lon="6.976581917184477"><ele>260.0</ele><time>2026-05-02T19:30:06.999Z</time></trkpt><trkpt lat="48.858715905076764" lon="6.976520987406028"><ele>261.0</ele><time>2026-05-02T19:30:07.999Z</time></trkpt><trkpt lat="48.858635426430716" lon="6.976459424051245"><ele>262.0</ele><time>2026-05-02T19:30:08.999Z</time></trkpt><trkpt lat="48.85855301393496" lon="6.9764025320196215"><ele>263.0</ele><time>2026-05-02T19:30:09.999Z</time></trkpt><trkpt lat="48.85847348172362" lon="6.976340251112761"><ele>263.8</ele><time>2026-05-02T19:30:10.999Z</time></trkpt><trkpt lat="48.858391559886755" lon="6.976288239417125"><ele>264.6</ele><time>2026-05-02T19:30:11.999Z</time></trkpt><trkpt lat="48.8583087728715" lon="6.976226869498397"><ele>265.4</ele><time>2026-05-02T19:30:12.999Z</time></trkpt><trkpt lat="48.858218086190234" lon="6.97617216921807"><ele>266.2</ele><time>2026-05-02T19:30:13.999Z</time></trkpt><trkpt lat="48.858127092752675" lon="6.976106802039948"><ele>267.0</ele><time>2026-05-02T19:30:14.999Z</time></trkpt><trkpt lat="48.858042038567824" lon="6.976049758779563"><ele>267.0</ele><time>2026-05-02T19:30:15.999Z</time></trkpt><trkpt lat="48.857962221559404" lon="6.97599353479652"><ele>267.0</ele><time>2026-05-02T19:30:16.999Z</time></trkpt><trkpt lat="48.85787827541701" lon="6.975934938138911"><ele>267.0</ele><time>2026-05-02T19:30:17.999Z</time></trkpt><trkpt lat="48.85778577404299" lon="6.975869620387952"><ele>267.0</ele><time>2026-05-02T19:30:18.999Z</time></trkpt><trkpt lat="48.8576928901818" lon="6.975799472719327"><ele>267.0</ele><time>2026-05-02T19:30:19.999Z</time></trkpt><trkpt lat="48.85759966387475" lon="6.975730468049423"><ele>266.4</ele><time>2026-05-02T19:30:20.999Z</time></trkpt><trkpt lat="48.85750448874111" lon="6.975667733899005"><ele>265.79999999999995</ele><time>2026-05-02T19:30:21.999Z</time></trkpt><trkpt lat="48.857414652143305" lon="6.975606801929769"><ele>265.2</ele><time>2026-05-02T19:30:22.999Z</time></trkpt><trkpt lat="48.85733080989228" lon="6.975544992257757"><ele>264.59999999999997</ele><time>2026-05-02T19:30:23.999Z</time></trkpt><trkpt lat="48.85724499613726" lon="6.975486367979804"><ele>264.0</ele><time>2026-05-02T19:30:24.999Z</time></trkpt><trkpt lat="48.8571555890708" lon="6.975422170347554"><ele>264.0</ele><time>2026-05-02T19:30:25.999Z</time></trkpt><trkpt lat="48.857064447216736" lon="6.97536312092617"><ele>264.0</ele><time>2026-05-02T19:30:26.999Z</time></trkpt><trkpt lat="48.85696442654744" lon="6.975299880764992"><ele>264.0</ele><time>2026-05-02T19:30:27.999Z</time></trkpt><trkpt lat="48.85687874098141" lon="6.975238044357578"><ele>264.0</ele><time>2026-05-02T19:30:28.999Z</time></trkpt><trkpt lat="48.85678824882825" lon="6.975172231561401"><ele>264.0</ele><time>2026-05-02T19:30:29.999Z</time></trkpt><trkpt lat="48.85660255151236" lon="6.975045771642634"><ele>263.2</ele><time>2026-05-02T19:30:31.999Z</time></trkpt><trkpt lat="48.85650524075389" lon="6.974980148564106"><ele>262.4</ele><time>2026-05-02T19:30:32.999Z</time></trkpt><trkpt lat="48.85640604279968" lon="6.974915896961062"><ele>261.6</ele><time>2026-05-02T19:30:33.999Z</time></trkpt><trkpt lat="48.85631475487799" lon="6.974849774342534"><ele>260.8</ele><time>2026-05-02T19:30:34.999Z</time></trkpt><trkpt lat="48.85622342746906" lon="6.974784257799397"><ele>260.0</ele><time>2026-05-02T19:30:35.999Z</time></trkpt><trkpt lat="48.85613017716864" lon="6.974715978522487"><ele>260.0</ele><time>2026-05-02T19:30:36.999Z</time></trkpt><trkpt lat="48.856037334385825" lon="6.974655653852478"><ele>260.0</ele><time>2026-05-02T19:30:37.999Z</time></trkpt><trkpt lat="48.855946748609156" lon="6.974595743336397"><ele>260.0</ele><time>2026-05-02T19:30:38.999Z</time></trkpt><trkpt lat="48.85586250633083" lon="6.97452569749607"><ele>260.0</ele><time>2026-05-02T19:30:39.999Z</time></trkpt><trkpt lat="48.855771523691125" lon="6.974464615046968"><ele>260.0</ele><time>2026-05-02T19:30:40.999Z</time></trkpt><trkpt lat="48.85568209253821" lon="6.974404729372953"><ele>260.2</ele><time>2026-05-02T19:30:41.999Z</time></trkpt><trkpt lat="48.85559143955946" lon="6.974343200056306"><ele>260.4</ele><time>2026-05-02T19:30:42.999Z</time></trkpt><trkpt lat="48.855496569211425" lon="6.974276412527242"><ele>260.6</ele><time>2026-05-02T19:30:43.999Z</time></trkpt><trkpt lat="48.855414790649306" lon="6.974219340374586"><ele>260.8</ele><time>2026-05-02T19:30:44.999Z</time></trkpt><trkpt lat="48.85533937902732" lon="6.9741620094915096"><ele>261.0</ele><time>2026-05-02T19:30:45.999Z</time></trkpt><trkpt lat="48.85525290609099" lon="6.974106933967991"><ele>260.8</ele><time>2026-05-02T19:30:46.999Z</time></trkpt><trkpt lat="48.85516139866466" lon="6.974039777985588"><ele>260.6</ele><time>2026-05-02T19:30:47.999Z</time></trkpt><trkpt lat="48.85508043015491" lon="6.973979123462886"><ele>260.4</ele><time>2026-05-02T19:30:49Z</time></trkpt><trkpt lat="48.854990614045114" lon="6.973913900882373"><ele>260.2</ele><time>2026-05-02T19:30:50Z</time></trkpt><trkpt lat="48.854908409965006" lon="6.973852086871669"><ele>260.0</ele><time>2026-05-02T19:30:51Z</time></trkpt><trkpt lat="48.85481302698672" lon="6.973793555298207"><ele>260.0</ele><time>2026-05-02T19:30:52Z</time></trkpt><trkpt lat="48.85472138650085" lon="6.973737287661478"><ele>260.0</ele><time>2026-05-02T19:30:53Z</time></trkpt><trkpt lat="48.854627691229055" lon="6.973674731092859"><ele>260.0</ele><time>2026-05-02T19:30:54Z</time></trkpt><trkpt lat="48.85454173652766" lon="6.973610719640907"><ele>260.0</ele><time>2026-05-02T19:30:55Z</time></trkpt><trkpt lat="48.85445518200384" lon="6.973549003264259"><ele>260.0</ele><time>2026-05-02T19:30:56Z</time></trkpt><trkpt lat="48.85436693379145" lon="6.973489464478924"><ele>260.4</ele><time>2026-05-02T19:30:57Z</time></trkpt><trkpt lat="48.85427848118008" lon="6.973436700422338"><ele>260.8</ele><time>2026-05-02T19:30:58Z</time></trkpt><trkpt lat="48.85418829608516" lon="6.9733813421873885"><ele>261.2</ele><time>2026-05-02T19:30:59Z</time></trkpt><trkpt lat="48.85410569285295" lon="6.973338351398419"><ele>261.6</ele><time>2026-05-02T19:31:00Z</time></trkpt><trkpt lat="48.85401737793405" lon="6.973291529390519"><ele>262.0</ele><time>2026-05-02T19:31:01Z</time></trkpt><trkpt lat="48.85393007565409" lon="6.973234226082276"><ele>261.3333333333333</ele><time>2026-05-02T19:31:02Z</time></trkpt><trkpt lat="48.853845686764544" lon="6.973187588407424"><ele>260.66666666666663</ele><time>2026-05-02T19:31:03Z</time></trkpt><trkpt lat="48.8537766157302" lon="6.973144831217149"><ele>260.0</ele><time>2026-05-02T19:31:04Z</time></trkpt><trkpt lat="48.85370509541849" lon="6.973101056053026"><ele>259.3333333333333</ele><time>2026-05-02T19:31:05Z</time></trkpt><trkpt lat="48.85364123945304" lon="6.973053964380626"><ele>258.6666666666667</ele><time>2026-05-02T19:31:06Z</time></trkpt><trkpt lat="48.85356830005778" lon="6.973002678056134"><ele>258.0</ele><time>2026-05-02T19:31:08Z</time></trkpt><trkpt lat="48.85352231468533" lon="6.972933462963727"><ele>258.0</ele><time>2026-05-02T19:31:12Z</time></trkpt><trkpt lat="48.8535151113217" lon="6.97275316725664"><ele>258.0</ele><time>2026-05-02T19:32:20.999Z</time></trkpt><trkpt lat="48.85354444912355" lon="6.9726611215924565"><ele>258.0</ele><time>2026-05-02T19:32:21.999Z</time></trkpt><trkpt lat="48.85356949993525" lon="6.97255866907753"><ele>258.0</ele><time>2026-05-02T19:32:22.999Z</time></trkpt><trkpt lat="48.85359221657078" lon="6.972452086733864"><ele>258.0</ele><time>2026-05-02T19:32:23.999Z</time></trkpt><trkpt lat="48.85361270263286" lon="6.972352877299215"><ele>258.0</ele><time>2026-05-02T19:32:24.999Z</time></trkpt><trkpt lat="48.85363527789988" lon="6.972251364139875"><ele>258.0</ele><time>2026-05-02T19:32:25.999Z</time></trkpt><trkpt lat="48.85368153014402" lon="6.972101320410044"><ele>258.0</ele><time>2026-05-02T19:32:27.999Z</time></trkpt><trkpt lat="48.85354234613149" lon="6.972006312533405"><ele>258.0</ele><time>2026-05-02T19:32:30.999Z</time></trkpt><trkpt lat="48.8534616171346" lon="6.971956081956397"><ele>258.0</ele><time>2026-05-02T19:32:32.999Z</time></trkpt><trkpt lat="48.85335832856743" lon="6.9718993920393855"><ele>258.0</ele><time>2026-05-02T19:32:34.999Z</time></trkpt><trkpt lat="48.85327377686915" lon="6.971863776082738"><ele>258.0</ele><time>2026-05-02T19:32:35.999Z</time></trkpt><trkpt lat="48.85318972301981" lon="6.971825801793019"><ele>258.0</ele><time>2026-05-02T19:32:36.999Z</time></trkpt><trkpt lat="48.85311711208606" lon="6.971785261801716"><ele>258.0</ele><time>2026-05-02T19:32:37.999Z</time></trkpt><trkpt lat="48.85305488632401" lon="6.9717569543490345"><ele>258.0</ele><time>2026-05-02T19:32:38.999Z</time></trkpt><trkpt lat="48.852961369757196" lon="6.97168998911557"><ele>258.0</ele><time>2026-05-02T19:32:40.999Z</time></trkpt><trkpt lat="48.852909570539914" lon="6.971622380973272"><ele>258.1666666666667</ele><time>2026-05-02T19:32:43.999Z</time></trkpt><trkpt lat="48.85282125202446" lon="6.971536942753947"><ele>258.3333333333333</ele><time>2026-05-02T19:43:00.999Z</time></trkpt><trkpt lat="48.85277193256808" lon="6.971477117928476"><ele>258.5</ele><time>2026-05-02T19:43:01.999Z</time></trkpt><trkpt lat="48.85268423757641" lon="6.9713578938725815"><ele>258.66666666666663</ele><time>2026-05-02T19:43:03.999Z</time></trkpt><trkpt lat="48.852626495558226" lon="6.971292446152818"><ele>258.8333333333333</ele><time>2026-05-02T19:43:04.999Z</time></trkpt><trkpt lat="48.852571007569864" lon="6.97123029621224"><ele>259.0</ele><time>2026-05-02T19:43:05.999Z</time></trkpt><trkpt lat="48.852479886894244" lon="6.971105034378984"><ele>260.16666666666663</ele><time>2026-05-02T19:43:07.999Z</time></trkpt><trkpt lat="48.852417778221685" lon="6.971030985158896"><ele>261.3333333333333</ele><time>2026-05-02T19:43:08.999Z</time></trkpt><trkpt lat="48.85234789642604" lon="6.970940088017975"><ele>262.5</ele><time>2026-05-02T19:43:09.999Z</time></trkpt><trkpt lat="48.852281531971954" lon="6.970858572380993"><ele>263.6666666666667</ele><time>2026-05-02T19:43:10.999Z</time></trkpt><trkpt lat="48.85221748592636" lon="6.970787325957689"><ele>264.83333333333337</ele><time>2026-05-02T19:43:11.999Z</time></trkpt><trkpt lat="48.85215909320223" lon="6.970705823417321"><ele>266.0</ele><time>2026-05-02T19:43:12.999Z</time></trkpt><trkpt lat="48.852090041893916" lon="6.97062610560105"><ele>266.0</ele><time>2026-05-02T19:43:13.999Z</time></trkpt><trkpt lat="48.85202616528091" lon="6.970541602193191"><ele>266.0</ele><time>2026-05-02T19:43:14.999Z</time></trkpt><trkpt lat="48.851961042194354" lon="6.970444923499478"><ele>266.0</ele><time>2026-05-02T19:43:15.999Z</time></trkpt><trkpt lat="48.85188752454486" lon="6.970356850291438"><ele>266.0</ele><time>2026-05-02T19:43:16.999Z</time></trkpt><trkpt lat="48.85181126612208" lon="6.9702815872526065"><ele>266.0</ele><time>2026-05-02T19:43:17.999Z</time></trkpt><trkpt lat="48.85173490410692" lon="6.970183509937723"><ele>266.0</ele><time>2026-05-02T19:43:18.999Z</time></trkpt><trkpt lat="48.85165424043785" lon="6.970080175388501"><ele>266.0</ele><time>2026-05-02T19:43:19.999Z</time></trkpt><trkpt lat="48.85157640975376" lon="6.969983783658059"><ele>266.0</ele><time>2026-05-02T19:43:20.999Z</time></trkpt><trkpt lat="48.851495423701856" lon="6.969890894280514"><ele>266.0</ele><time>2026-05-02T19:43:21.999Z</time></trkpt><trkpt lat="48.851423621493595" lon="6.969804787655097"><ele>266.0</ele><time>2026-05-02T19:43:22.999Z</time></trkpt><trkpt lat="48.85135167895478" lon="6.9697061234858735"><ele>266.0</ele><time>2026-05-02T19:43:23.999Z</time></trkpt><trkpt lat="48.85127498236692" lon="6.969614011139662"><ele>266.0</ele><time>2026-05-02T19:43:25Z</time></trkpt><trkpt lat="48.85119466698108" lon="6.969512341301172"><ele>266.0</ele><time>2026-05-02T19:43:26Z</time></trkpt><trkpt lat="48.85111340795917" lon="6.96941576285664"><ele>266.0</ele><time>2026-05-02T19:43:27Z</time></trkpt><trkpt lat="48.85103324010459" lon="6.969316690997145"><ele>266.0</ele><time>2026-05-02T19:43:28Z</time></trkpt><trkpt lat="48.85095785046706" lon="6.969222993895731"><ele>266.2</ele><time>2026-05-02T19:43:29Z</time></trkpt><trkpt lat="48.85088223289993" lon="6.969122271903849"><ele>266.40000000000003</ele><time>2026-05-02T19:43:30Z</time></trkpt><trkpt lat="48.85080245754413" lon="6.969030455448882"><ele>266.6</ele><time>2026-05-02T19:43:31Z</time></trkpt><trkpt lat="48.85072234115534" lon="6.968937535924255"><ele>266.8</ele><time>2026-05-02T19:43:32Z</time></trkpt><trkpt lat="48.850640191651976" lon="6.968838148039502"><ele>267.0</ele><time>2026-05-02T19:43:33Z</time></trkpt><trkpt lat="48.85055766493411" lon="6.968735295187604"><ele>267.0</ele><time>2026-05-02T19:43:34Z</time></trkpt><trkpt lat="48.8504832991306" lon="6.968638733808135"><ele>267.0</ele><time>2026-05-02T19:43:35Z</time></trkpt><trkpt lat="48.8504029554338" lon="6.968546231062842"><ele>267.0</ele><time>2026-05-02T19:43:36Z</time></trkpt><trkpt lat="48.85032198578566" lon="6.968442259869535"><ele>267.0</ele><time>2026-05-02T19:43:37Z</time></trkpt><trkpt lat="48.85024073637496" lon="6.968345175250872"><ele>267.0</ele><time>2026-05-02T19:43:38Z</time></trkpt><trkpt lat="48.85016360040989" lon="6.968258796979278"><ele>267.8</ele><time>2026-05-02T19:43:39Z</time></trkpt><trkpt lat="48.85008784323813" lon="6.968157024245568"><ele>268.6</ele><time>2026-05-02T19:43:40Z</time></trkpt><trkpt lat="48.85000244635865" lon="6.968052738278126"><ele>269.40000000000003</ele><time>2026-05-02T19:43:41Z</time></trkpt><trkpt lat="48.84992033635892" lon="6.9679542838207755"><ele>270.2</ele><time>2026-05-02T19:43:42Z</time></trkpt><trkpt lat="48.84983657252623" lon="6.967850442816965"><ele>271.0</ele><time>2026-05-02T19:43:43Z</time></trkpt><trkpt lat="48.849754857597006" lon="6.967744862515137"><ele>271.0</ele><time>2026-05-02T19:43:44Z</time></trkpt><trkpt lat="48.84967074291763" lon="6.9676372497430705"><ele>271.0</ele><time>2026-05-02T19:43:45Z</time></trkpt><trkpt lat="48.84958997551737" lon="6.967536781456148"><ele>271.0</ele><time>2026-05-02T19:43:46Z</time></trkpt><trkpt lat="48.84950952163561" lon="6.967439956646069"><ele>271.0</ele><time>2026-05-02T19:43:47Z</time></trkpt><trkpt lat="48.84943356614186" lon="6.967344896640461"><ele>271.0</ele><time>2026-05-02T19:43:48Z</time></trkpt><trkpt lat="48.84934833570801" lon="6.967243887641488"><ele>271.8</ele><time>2026-05-02T19:43:49Z</time></trkpt><trkpt lat="48.84926923785288" lon="6.967139558167711"><ele>272.6</ele><time>2026-05-02T19:43:50Z</time></trkpt><trkpt lat="48.84918697336196" lon="6.967036454102642"><ele>273.4</ele><time>2026-05-02T19:43:51Z</time></trkpt><trkpt lat="48.849102455769554" lon="6.96692762121147"><ele>274.2</ele><time>2026-05-02T19:43:52Z</time></trkpt><trkpt lat="48.84901918026042" lon="6.96681675519218"><ele>275.0</ele><time>2026-05-02T19:43:53Z</time></trkpt><trkpt lat="48.84893853260978" lon="6.9667132149354165"><ele>274.2</ele><time>2026-05-02T19:43:54Z</time></trkpt><trkpt lat="48.8488586429533" lon="6.966622134892697"><ele>273.4</ele><time>2026-05-02T19:43:55Z</time></trkpt><trkpt lat="48.84877439929987" lon="6.966518853578671"><ele>272.6</ele><time>2026-05-02T19:43:56Z</time></trkpt><trkpt lat="48.84869052709221" lon="6.966408024021838"><ele>271.8</ele><time>2026-05-02T19:43:57Z</time></trkpt><trkpt lat="48.84860368680346" lon="6.966301380757762"><ele>271.0</ele><time>2026-05-02T19:43:58Z</time></trkpt><trkpt lat="48.848515847311425" lon="6.9661971538916285"><ele>271.8</ele><time>2026-05-02T19:43:59Z</time></trkpt><trkpt lat="48.84843169369823" lon="6.9660899589622165"><ele>272.6</ele><time>2026-05-02T19:44:00Z</time></trkpt><trkpt lat="48.848346016592615" lon="6.965984300588566"><ele>273.4</ele><time>2026-05-02T19:44:01Z</time></trkpt><trkpt lat="48.84826094551182" lon="6.965877801307533"><ele>274.2</ele><time>2026-05-02T19:44:02Z</time></trkpt><trkpt lat="48.84817849541871" lon="6.965779230476326"><ele>275.0</ele><time>2026-05-02T19:44:03Z</time></trkpt><trkpt lat="48.84809245818118" lon="6.965675189708656"><ele>275.0</ele><time>2026-05-02T19:44:04Z</time></trkpt><trkpt lat="48.8480082574009" lon="6.965574588105375"><ele>275.0</ele><time>2026-05-02T19:44:05Z</time></trkpt><trkpt lat="48.847925644098744" lon="6.9654694419146335"><ele>275.0</ele><time>2026-05-02T19:44:06Z</time></trkpt><trkpt lat="48.84785068409856" lon="6.965369824418839"><ele>275.0</ele><time>2026-05-02T19:44:07Z</time></trkpt><trkpt lat="48.847779957680395" lon="6.965277316416442"><ele>275.0</ele><time>2026-05-02T19:44:08Z</time></trkpt><trkpt lat="48.847704263263914" lon="6.965189108355178"><ele>275.2</ele><time>2026-05-02T19:44:09Z</time></trkpt><trkpt lat="48.84762488942126" lon="6.965094232762666"><ele>275.4</ele><time>2026-05-02T19:44:10Z</time></trkpt><trkpt lat="48.847546919482006" lon="6.964993554812902"><ele>275.6</ele><time>2026-05-02T19:44:11Z</time></trkpt><trkpt lat="48.84746769313508" lon="6.964894790688666"><ele>275.8</ele><time>2026-05-02T19:44:12Z</time></trkpt><trkpt lat="48.84739023632208" lon="6.9647958821891285"><ele>276.0</ele><time>2026-05-02T19:44:13Z</time></trkpt><trkpt lat="48.84731456357211" lon="6.9646967506940385"><ele>276.0</ele><time>2026-05-02T19:44:14Z</time></trkpt><trkpt lat="48.847238007859914" lon="6.964604221034776"><ele>276.0</ele><time>2026-05-02T19:44:15Z</time></trkpt><trkpt lat="48.84715951218716" lon="6.964506884391206"><ele>276.0</ele><time>2026-05-02T19:44:16Z</time></trkpt><trkpt lat="48.84708191046806" lon="6.964406943398398"><ele>276.0</ele><time>2026-05-02T19:44:17Z</time></trkpt><trkpt lat="48.84699785315789" lon="6.964301209443779"><ele>276.0</ele><time>2026-05-02T19:44:18Z</time></trkpt><trkpt lat="48.84691501725132" lon="6.964197265273264"><ele>275.8</ele><time>2026-05-02T19:44:19Z</time></trkpt><trkpt lat="48.846834778844745" lon="6.964097219064602"><ele>275.6</ele><time>2026-05-02T19:44:20Z</time></trkpt><trkpt lat="48.846750429595424" lon="6.963994825465249"><ele>275.4</ele><time>2026-05-02T19:44:21Z</time></trkpt><trkpt lat="48.846668984578365" lon="6.963894942320578"><ele>275.2</ele><time>2026-05-02T19:44:22Z</time></trkpt><trkpt lat="48.8465875326856" lon="6.963790670834467"><ele>275.0</ele><time>2026-05-02T19:44:23Z</time></trkpt><trkpt lat="48.84651089480799" lon="6.96369084745679"><ele>275.0</ele><time>2026-05-02T19:44:24Z</time></trkpt><trkpt lat="48.846430616667654" lon="6.963589860822357"><ele>275.0</ele><time>2026-05-02T19:44:25Z</time></trkpt><trkpt lat="48.84634887913686" lon="6.963493838317484"><ele>275.0</ele><time>2026-05-02T19:44:26Z</time></trkpt><trkpt lat="48.846267161963446" lon="6.9633963505043175"><ele>275.0</ele><time>2026-05-02T19:44:27Z</time></trkpt><trkpt lat="48.84618650715845" lon="6.963295753330501"><ele>275.0</ele><time>2026-05-02T19:44:28Z</time></trkpt><trkpt lat="48.84611441720096" lon="6.963199478202498"><ele>274.2</ele><time>2026-05-02T19:44:29Z</time></trkpt><trkpt lat="48.84605003634184" lon="6.963118303264052"><ele>273.4</ele><time>2026-05-02T19:44:30Z</time></trkpt><trkpt lat="48.845994524777915" lon="6.963051719212464"><ele>272.6</ele><time>2026-05-02T19:44:31Z</time></trkpt><trkpt lat="48.84590990267684" lon="6.962999104109825"><ele>271.8</ele><time>2026-05-02T19:44:33Z</time></trkpt><trkpt lat="48.84583131599542" lon="6.963092212643147"><ele>271.0</ele><time>2026-05-02T19:44:35Z</time></trkpt><trkpt lat="48.8457543054772" lon="6.963248960525565"><ele>271.0</ele><time>2026-05-02T19:44:37Z</time></trkpt><trkpt lat="48.845702852406916" lon="6.963349587277256"><ele>271.0</ele><time>2026-05-02T19:44:38Z</time></trkpt><trkpt lat="48.84566123461611" lon="6.963431876066075"><ele>271.0</ele><time>2026-05-02T19:44:39Z</time></trkpt><trkpt lat="48.845598795095206" lon="6.963534025500266"><ele>271.0</ele><time>2026-05-02T19:44:40Z</time></trkpt><trkpt lat="48.84554213151042" lon="6.963641259299048"><ele>271.0</ele><time>2026-05-02T19:44:41Z</time></trkpt><trkpt lat="48.845489607261264" lon="6.963749128875201"><ele>271.0</ele><time>2026-05-02T19:44:42Z</time></trkpt><trkpt lat="48.84543582005538" lon="6.963849491754105"><ele>272.40000000000003</ele><time>2026-05-02T19:44:43Z</time></trkpt><trkpt lat="48.84537950331307" lon="6.96394686155432"><ele>273.8</ele><time>2026-05-02T19:44:44Z</time></trkpt><trkpt lat="48.8453210454788" lon="6.964050744446812"><ele>275.20000000000005</ele><time>2026-05-02T19:44:45Z</time></trkpt><trkpt lat="48.84526426199702" lon="6.964167856730344"><ele>276.6</ele><time>2026-05-02T19:44:45.999Z</time></trkpt><trkpt lat="48.84520560139492" lon="6.9642723968232865"><ele>278.0</ele><time>2026-05-02T19:44:46.999Z</time></trkpt><trkpt lat="48.84514426831132" lon="6.964376444885414"><ele>278.4</ele><time>2026-05-02T19:44:47.999Z</time></trkpt><trkpt lat="48.84509161072529" lon="6.964476899740287"><ele>278.8</ele><time>2026-05-02T19:44:48.999Z</time></trkpt><trkpt lat="48.845032852670954" lon="6.964587759358989"><ele>279.2</ele><time>2026-05-02T19:44:49.999Z</time></trkpt><trkpt lat="48.84497551978642" lon="6.964695682374546"><ele>279.6</ele><time>2026-05-02T19:44:50.999Z</time></trkpt><trkpt lat="48.844914930956946" lon="6.964807085261653"><ele>280.0</ele><time>2026-05-02T19:44:51.999Z</time></trkpt><trkpt lat="48.84485211832228" lon="6.964919853932866"><ele>279.6</ele><time>2026-05-02T19:44:52.999Z</time></trkpt><trkpt lat="48.84479053207536" lon="6.965039417819805"><ele>279.2</ele><time>2026-05-02T19:44:53.999Z</time></trkpt><trkpt lat="48.84472318578689" lon="6.96516501233855"><ele>278.8</ele><time>2026-05-02T19:44:54.999Z</time></trkpt><trkpt lat="48.84465913413361" lon="6.965284904872884"><ele>278.4</ele><time>2026-05-02T19:44:55.999Z</time></trkpt><trkpt lat="48.84459200576546" lon="6.965408676362047"><ele>278.0</ele><time>2026-05-02T19:44:56.999Z</time></trkpt><trkpt lat="48.84453416711659" lon="6.965516163341829"><ele>278.0</ele><time>2026-05-02T19:44:57.999Z</time></trkpt><trkpt lat="48.84447477825186" lon="6.965620286699485"><ele>278.0</ele><time>2026-05-02T19:44:58.999Z</time></trkpt><trkpt lat="48.844413262745356" lon="6.965735660709165"><ele>278.0</ele><time>2026-05-02T19:44:59.999Z</time></trkpt><trkpt lat="48.84435385126072" lon="6.965854191366406"><ele>278.0</ele><time>2026-05-02T19:45:00.999Z</time></trkpt><trkpt lat="48.844286023521775" lon="6.965975369320048"><ele>278.0</ele><time>2026-05-02T19:45:01.999Z</time></trkpt><trkpt lat="48.844222935270565" lon="6.966091479093"><ele>277.6</ele><time>2026-05-02T19:45:02.999Z</time></trkpt><trkpt lat="48.84415879324641" lon="6.966213626487007"><ele>277.20000000000005</ele><time>2026-05-02T19:45:03.999Z</time></trkpt><trkpt lat="48.844092314746916" lon="6.966338389490545"><ele>276.8</ele><time>2026-05-02T19:45:04.999Z</time></trkpt><trkpt lat="48.84402211163234" lon="6.966459531783089"><ele>276.40000000000003</ele><time>2026-05-02T19:45:05.999Z</time></trkpt><trkpt lat="48.843959062952536" lon="6.9665831517095285"><ele>276.0</ele><time>2026-05-02T19:45:06.999Z</time></trkpt><trkpt lat="48.84389081707709" lon="6.966708536149046"><ele>275.2</ele><time>2026-05-02T19:45:07.999Z</time></trkpt><trkpt lat="48.84382404391762" lon="6.9668241573854965"><ele>274.40000000000003</ele><time>2026-05-02T19:45:08.999Z</time></trkpt><trkpt lat="48.84376027035175" lon="6.966950951763325"><ele>273.6</ele><time>2026-05-02T19:45:09.999Z</time></trkpt><trkpt lat="48.84369659965428" lon="6.9670763875221455"><ele>272.8</ele><time>2026-05-02T19:45:10.999Z</time></trkpt><trkpt lat="48.84362965913438" lon="6.96719736289399"><ele>272.0</ele><time>2026-05-02T19:45:11.999Z</time></trkpt><trkpt lat="48.843564160410274" lon="6.967313056870849"><ele>272.0</ele><time>2026-05-02T19:45:12.999Z</time></trkpt><trkpt lat="48.84350167597848" lon="6.967434329524075"><ele>272.0</ele><time>2026-05-02T19:45:13.999Z</time></trkpt><trkpt lat="48.843436008794484" lon="6.967566891368855"><ele>272.0</ele><time>2026-05-02T19:45:14.999Z</time></trkpt><trkpt lat="48.84336917098391" lon="6.967682343783607"><ele>272.0</ele><time>2026-05-02T19:45:15.999Z</time></trkpt><trkpt lat="48.843300598501735" lon="6.967803811156701"><ele>272.0</ele><time>2026-05-02T19:45:16.999Z</time></trkpt><trkpt lat="48.84323377318973" lon="6.967924321008552"><ele>271.2</ele><time>2026-05-02T19:45:17.999Z</time></trkpt><trkpt lat="48.84316786537535" lon="6.968040773880399"><ele>270.4</ele><time>2026-05-02T19:45:18.999Z</time></trkpt><trkpt lat="48.84309919306622" lon="6.968164474681826"><ele>269.6</ele><time>2026-05-02T19:45:19.999Z</time></trkpt><trkpt lat="48.84303041071411" lon="6.96828829989149"><ele>268.8</ele><time>2026-05-02T19:45:20.999Z</time></trkpt><trkpt lat="48.842966266295626" lon="6.968410558316897"><ele>268.0</ele><time>2026-05-02T19:45:21.999Z</time></trkpt><trkpt lat="48.842904749162145" lon="6.96852789484067"><ele>267.2</ele><time>2026-05-02T19:45:22.999Z</time></trkpt><trkpt lat="48.842836452881755" lon="6.9686519586634335"><ele>266.4</ele><time>2026-05-02T19:45:23.999Z</time></trkpt><trkpt lat="48.842773737788136" lon="6.968771635798897"><ele>265.59999999999997</ele><time>2026-05-02T19:45:24.999Z</time></trkpt><trkpt lat="48.842711920486344" lon="6.968889646620198"><ele>264.8</ele><time>2026-05-02T19:45:25.999Z</time></trkpt><trkpt lat="48.84265503296626" lon="6.968995952920017"><ele>264.0</ele><time>2026-05-02T19:45:26.999Z</time></trkpt><trkpt lat="48.84258913625666" lon="6.969113723641647"><ele>263.2</ele><time>2026-05-02T19:45:27.999Z</time></trkpt><trkpt lat="48.84252511463634" lon="6.969239222838113"><ele>262.4</ele><time>2026-05-02T19:45:28.999Z</time></trkpt><trkpt lat="48.84245821210274" lon="6.969361693483337"><ele>261.6</ele><time>2026-05-02T19:45:29.999Z</time></trkpt><trkpt lat="48.842395060291004" lon="6.969477125590793"><ele>260.8</ele><time>2026-05-02T19:45:31Z</time></trkpt><trkpt lat="48.84232893260984" lon="6.969603306415552"><ele>260.0</ele><time>2026-05-02T19:45:32Z</time></trkpt><trkpt lat="48.84226308193676" lon="6.969729793894435"><ele>260.0</ele><time>2026-05-02T19:45:33Z</time></trkpt><trkpt lat="48.84219707984823" lon="6.969850396154862"><ele>260.0</ele><time>2026-05-02T19:45:34Z</time></trkpt><trkpt lat="48.842128423939265" lon="6.96998116784842"><ele>260.0</ele><time>2026-05-02T19:45:35Z</time></trkpt><trkpt lat="48.84206019866216" lon="6.970109108780848"><ele>260.0</ele><time>2026-05-02T19:45:36Z</time></trkpt><trkpt lat="48.84198920155912" lon="6.97023482070133"><ele>260.0</ele><time>2026-05-02T19:45:37Z</time></trkpt><trkpt lat="48.84191905402497" lon="6.970360816364136"><ele>259.6</ele><time>2026-05-02T19:45:38Z</time></trkpt><trkpt lat="48.84185444919807" lon="6.97048744691721"><ele>259.2</ele><time>2026-05-02T19:45:39Z</time></trkpt><trkpt lat="48.84179098655607" lon="6.970611210661679"><ele>258.8</ele><time>2026-05-02T19:45:40Z</time></trkpt><trkpt lat="48.84172827132407" lon="6.970731444723461"><ele>258.4</ele><time>2026-05-02T19:45:41Z</time></trkpt><trkpt lat="48.84166068599433" lon="6.970847573446731"><ele>258.0</ele><time>2026-05-02T19:45:42Z</time></trkpt><trkpt lat="48.84159756757185" lon="6.970964888138143"><ele>257.4</ele><time>2026-05-02T19:45:43Z</time></trkpt><trkpt lat="48.84153238262676" lon="6.971082491275422"><ele>256.8</ele><time>2026-05-02T19:45:44Z</time></trkpt><trkpt lat="48.84146895116961" lon="6.9711959598625"><ele>256.2</ele><time>2026-05-02T19:45:45Z</time></trkpt><trkpt lat="48.84141391958911" lon="6.971301517114801"><ele>255.6</ele><time>2026-05-02T19:45:46Z</time></trkpt><trkpt lat="48.84135992221686" lon="6.971402855928719"><ele>255.0</ele><time>2026-05-02T19:45:47Z</time></trkpt><trkpt lat="48.841297816735576" lon="6.971513153097585"><ele>255.0</ele><time>2026-05-02T19:45:48Z</time></trkpt><trkpt lat="48.841232568747415" lon="6.971634782406511"><ele>255.0</ele><time>2026-05-02T19:45:49Z</time></trkpt><trkpt lat="48.84116634262428" lon="6.971758815954465"><ele>255.0</ele><time>2026-05-02T19:45:50Z</time></trkpt><trkpt lat="48.84109999238048" lon="6.971881786009755"><ele>255.0</ele><time>2026-05-02T19:45:51Z</time></trkpt><trkpt lat="48.841031728581235" lon="6.972003100915334"><ele>255.0</ele><time>2026-05-02T19:45:52Z</time></trkpt><trkpt lat="48.84096130608103" lon="6.972133337465374"><ele>255.0</ele><time>2026-05-02T19:45:53Z</time></trkpt><trkpt lat="48.840899561060965" lon="6.972249773808529"><ele>255.0</ele><time>2026-05-02T19:45:54Z</time></trkpt><trkpt lat="48.8408391891539" lon="6.97236592339842"><ele>255.0</ele><time>2026-05-02T19:45:55Z</time></trkpt><trkpt lat="48.840772453532644" lon="6.972490957714546"><ele>255.0</ele><time>2026-05-02T19:45:56Z</time></trkpt><trkpt lat="48.84070554315433" lon="6.972613222423586"><ele>255.0</ele><time>2026-05-02T19:45:57Z</time></trkpt><trkpt lat="48.84063741156909" lon="6.9727434058079965"><ele>254.8</ele><time>2026-05-02T19:45:58Z</time></trkpt><trkpt lat="48.840570573788504" lon="6.972865469757233"><ele>254.6</ele><time>2026-05-02T19:45:59Z</time></trkpt><trkpt lat="48.840507200440925" lon="6.972986862650366"><ele>254.39999999999998</ele><time>2026-05-02T19:46:00Z</time></trkpt><trkpt lat="48.84044543048228" lon="6.97310580227837"><ele>254.2</ele><time>2026-05-02T19:46:01Z</time></trkpt><trkpt lat="48.84038013787092" lon="6.973233585815568"><ele>254.0</ele><time>2026-05-02T19:46:02Z</time></trkpt><trkpt lat="48.84031293733698" lon="6.9733622288838575"><ele>254.6</ele><time>2026-05-02T19:46:03Z</time></trkpt><trkpt lat="48.84024607081903" lon="6.973488608363753"><ele>255.2</ele><time>2026-05-02T19:46:04Z</time></trkpt><trkpt lat="48.84017841906694" lon="6.973616718312405"><ele>255.79999999999998</ele><time>2026-05-02T19:46:05Z</time></trkpt><trkpt lat="48.84011198097632" lon="6.973741719299454"><ele>256.4</ele><time>2026-05-02T19:46:06Z</time></trkpt><trkpt lat="48.84004652077599" lon="6.97387014513373"><ele>257.0</ele><time>2026-05-02T19:46:07Z</time></trkpt><trkpt lat="48.83998116432565" lon="6.973993253805464"><ele>257.4</ele><time>2026-05-02T19:46:08Z</time></trkpt><trkpt lat="48.839916212224004" lon="6.974112632784065"><ele>257.79999999999995</ele><time>2026-05-02T19:46:09Z</time></trkpt><trkpt lat="48.83985318039767" lon="6.974233946339162"><ele>258.2</ele><time>2026-05-02T19:46:10Z</time></trkpt><trkpt lat="48.839789397882996" lon="6.974359658902091"><ele>258.59999999999997</ele><time>2026-05-02T19:46:11Z</time></trkpt><trkpt lat="48.83972038965222" lon="6.974493422722819"><ele>259.0</ele><time>2026-05-02T19:46:12Z</time></trkpt><trkpt lat="48.839653757723035" lon="6.974617897513969"><ele>259.25</ele><time>2026-05-02T19:46:13Z</time></trkpt><trkpt lat="48.839517843546034" lon="6.974865037439372"><ele>259.5</ele><time>2026-05-02T19:46:15Z</time></trkpt><trkpt lat="48.83945272811614" lon="6.974992151331212"><ele>259.75</ele><time>2026-05-02T19:46:16Z</time></trkpt><trkpt lat="48.83938260902015" lon="6.975120783374814"><ele>260.0</ele><time>2026-05-02T19:46:17Z</time></trkpt><trkpt lat="48.83930946853662" lon="6.9752467079780995"><ele>259.6</ele><time>2026-05-02T19:46:18Z</time></trkpt><trkpt lat="48.83924028209332" lon="6.975373733015463"><ele>259.2</ele><time>2026-05-02T19:46:19Z</time></trkpt><trkpt lat="48.8391723237534" lon="6.975504954415072"><ele>258.8</ele><time>2026-05-02T19:46:20Z</time></trkpt><trkpt lat="48.83910279072662" lon="6.9756286848213795"><ele>258.4</ele><time>2026-05-02T19:46:21Z</time></trkpt><trkpt lat="48.83903508793715" lon="6.975756984697318"><ele>258.0</ele><time>2026-05-02T19:46:22Z</time></trkpt><trkpt lat="48.83896652942405" lon="6.975881501837531"><ele>257.8</ele><time>2026-05-02T19:46:23Z</time></trkpt><trkpt lat="48.83889707482746" lon="6.976011744273768"><ele>257.6</ele><time>2026-05-02T19:46:24Z</time></trkpt><trkpt lat="48.838829070929016" lon="6.976141379047436"><ele>257.4</ele><time>2026-05-02T19:46:25Z</time></trkpt><trkpt lat="48.83876182040642" lon="6.976265349093133"><ele>257.2</ele><time>2026-05-02T19:46:26Z</time></trkpt><trkpt lat="48.83869460020601" lon="6.97639056815613"><ele>257.0</ele><time>2026-05-02T19:46:27Z</time></trkpt><trkpt lat="48.83862661352937" lon="6.976523992574783"><ele>257.0</ele><time>2026-05-02T19:46:28Z</time></trkpt><trkpt lat="48.83855928235896" lon="6.976653228654009"><ele>257.0</ele><time>2026-05-02T19:46:29Z</time></trkpt><trkpt lat="48.83848750167376" lon="6.976784518867518"><ele>257.0</ele><time>2026-05-02T19:46:30Z</time></trkpt><trkpt lat="48.838415858521415" lon="6.976913817330985"><ele>257.0</ele><time>2026-05-02T19:46:31Z</time></trkpt><trkpt lat="48.83834352535173" lon="6.9770476621689586"><ele>257.0</ele><time>2026-05-02T19:46:32Z</time></trkpt><trkpt lat="48.83827464906578" lon="6.977188843341474"><ele>256.2</ele><time>2026-05-02T19:46:33Z</time></trkpt><trkpt lat="48.83820472875311" lon="6.97732560214158"><ele>255.39999999999998</ele><time>2026-05-02T19:46:34Z</time></trkpt><trkpt lat="48.83813313231827" lon="6.977453292268769"><ele>254.60000000000002</ele><time>2026-05-02T19:46:35Z</time></trkpt><trkpt lat="48.83806477413558" lon="6.977575461791895"><ele>253.8</ele><time>2026-05-02T19:46:36Z</time></trkpt><trkpt lat="48.83799885383355" lon="6.977701213743526"><ele>253.0</ele><time>2026-05-02T19:46:37Z</time></trkpt><trkpt lat="48.837934813884644" lon="6.977834151129035"><ele>252.99999999999997</ele><time>2026-05-02T19:46:38Z</time></trkpt><trkpt lat="48.83786980177694" lon="6.977959194168304"><ele>253.0</ele><time>2026-05-02T19:46:39Z</time></trkpt><trkpt lat="48.837806270764396" lon="6.978072664654959"><ele>253.0</ele><time>2026-05-02T19:46:40Z</time></trkpt><trkpt lat="48.8377543113357" lon="6.978170178849118"><ele>253.0</ele><time>2026-05-02T19:46:41Z</time></trkpt><trkpt lat="48.83770431188452" lon="6.978270858994785"><ele>252.99999999999997</ele><time>2026-05-02T19:46:41.999Z</time></trkpt><trkpt lat="48.83765402092427" lon="6.978358766120214"><ele>253.0</ele><time>2026-05-02T19:46:42.999Z</time></trkpt><trkpt lat="48.837600950011506" lon="6.978447782128349"><ele>253.99999999999997</ele><time>2026-05-02T19:46:43.999Z</time></trkpt><trkpt lat="48.83755186453756" lon="6.978531604864721"><ele>255.0</ele><time>2026-05-02T19:46:44.999Z</time></trkpt><trkpt lat="48.83749698850972" lon="6.978619514280892"><ele>256.0</ele><time>2026-05-02T19:46:45.999Z</time></trkpt><trkpt lat="48.837444727001355" lon="6.978704861650512"><ele>257.0</ele><time>2026-05-02T19:46:46.999Z</time></trkpt><trkpt lat="48.83739350764016" lon="6.978774228015042"><ele>258.0</ele><time>2026-05-02T19:46:47.999Z</time></trkpt><trkpt lat="48.837321879021694" lon="6.978850962318199"><ele>259.0</ele><time>2026-05-02T19:46:49.999Z</time></trkpt><trkpt lat="48.837238061274405" lon="6.978783135812089"><ele>259.0</ele><time>2026-05-02T19:47:21.999Z</time></trkpt><trkpt lat="48.837188181814355" lon="6.978708371404347"><ele>259.0</ele><time>2026-05-02T19:47:22.999Z</time></trkpt><trkpt lat="48.83713599453057" lon="6.978626828703875"><ele>259.0</ele><time>2026-05-02T19:47:23.999Z</time></trkpt><trkpt lat="48.837070275528625" lon="6.978535271145154"><ele>259.0</ele><time>2026-05-02T19:47:24.999Z</time></trkpt><trkpt lat="48.83700230097204" lon="6.97845033073953"><ele>259.0</ele><time>2026-05-02T19:47:25.999Z</time></trkpt><trkpt lat="48.83692915696265" lon="6.978357096845462"><ele>259.0</ele><time>2026-05-02T19:47:26.999Z</time></trkpt><trkpt lat="48.83684269581965" lon="6.978237342354731"><ele>258.8</ele><time>2026-05-02T19:47:27.999Z</time></trkpt><trkpt lat="48.83675589808108" lon="6.978109622679699"><ele>258.59999999999997</ele><time>2026-05-02T19:47:28.999Z</time></trkpt><trkpt lat="48.836670162899736" lon="6.9780020466153765"><ele>258.4</ele><time>2026-05-02T19:47:29.999Z</time></trkpt><trkpt lat="48.83658452669592" lon="6.977900672192901"><ele>258.2</ele><time>2026-05-02T19:47:30.999Z</time></trkpt><trkpt lat="48.83650729334156" lon="6.97779478678711"><ele>258.0</ele><time>2026-05-02T19:47:31.999Z</time></trkpt><trkpt lat="48.83642961513834" lon="6.977691394181117"><ele>258.0</ele><time>2026-05-02T19:47:32.999Z</time></trkpt><trkpt lat="48.83635090468108" lon="6.97758653892086"><ele>258.0</ele><time>2026-05-02T19:47:33.999Z</time></trkpt><trkpt lat="48.836266545639916" lon="6.977476510188847"><ele>258.0</ele><time>2026-05-02T19:47:34.999Z</time></trkpt><trkpt lat="48.83618068886155" lon="6.9773653318475475"><ele>258.0</ele><time>2026-05-02T19:47:35.999Z</time></trkpt><trkpt lat="48.83609376531654" lon="6.977264566226989"><ele>258.0</ele><time>2026-05-02T19:47:37Z</time></trkpt><trkpt lat="48.83601680819055" lon="6.977148391812606"><ele>257.6</ele><time>2026-05-02T19:47:38Z</time></trkpt><trkpt lat="48.83593230572" lon="6.977042379008628"><ele>257.20000000000005</ele><time>2026-05-02T19:47:39Z</time></trkpt><trkpt lat="48.83584775509455" lon="6.97693158440948"><ele>256.8</ele><time>2026-05-02T19:47:40Z</time></trkpt><trkpt lat="48.835760370704214" lon="6.976824931714452"><ele>256.40000000000003</ele><time>2026-05-02T19:47:41Z</time></trkpt><trkpt lat="48.83567431205331" lon="6.976712144976229"><ele>256.0</ele><time>2026-05-02T19:47:42Z</time></trkpt><trkpt lat="48.835594374980055" lon="6.976602476289584"><ele>256.0</ele><time>2026-05-02T19:47:43Z</time></trkpt><trkpt lat="48.8355063608406" lon="6.976481222797296"><ele>256.0</ele><time>2026-05-02T19:47:44Z</time></trkpt><trkpt lat="48.83541351280023" lon="6.976368500904611"><ele>256.0</ele><time>2026-05-02T19:47:45Z</time></trkpt><trkpt lat="48.83532588083973" lon="6.976250230724476"><ele>256.0</ele><time>2026-05-02T19:47:46Z</time></trkpt><trkpt lat="48.835232671487326" lon="6.976130040755659"><ele>256.0</ele><time>2026-05-02T19:47:47Z</time></trkpt><trkpt lat="48.835146443262104" lon="6.976014736528172"><ele>256.0</ele><time>2026-05-02T19:47:48Z</time></trkpt><trkpt lat="48.83506385928212" lon="6.975899379136287"><ele>256.0</ele><time>2026-05-02T19:47:49Z</time></trkpt><trkpt lat="48.834976932849955" lon="6.975783683033311"><ele>256.0</ele><time>2026-05-02T19:47:50Z</time></trkpt><trkpt lat="48.83488841238302" lon="6.9756664854491754"><ele>256.75</ele><time>2026-05-02T19:47:51Z</time></trkpt><trkpt lat="48.83479620276937" lon="6.975547092270643"><ele>257.5</ele><time>2026-05-02T19:47:52Z</time></trkpt><trkpt lat="48.834705237111564" lon="6.975429308631039"><ele>258.25</ele><time>2026-05-02T19:47:53Z</time></trkpt><trkpt lat="48.834619477842615" lon="6.975310719067043"><ele>259.0</ele><time>2026-05-02T19:47:54Z</time></trkpt><trkpt lat="48.83453660850381" lon="6.975194436552161"><ele>259.0</ele><time>2026-05-02T19:47:55Z</time></trkpt><trkpt lat="48.834446287534846" lon="6.975072773576919"><ele>259.0</ele><time>2026-05-02T19:47:56Z</time></trkpt><trkpt lat="48.834362510504384" lon="6.97496016666912"><ele>259.0</ele><time>2026-05-02T19:47:57Z</time></trkpt><trkpt lat="48.83427546847701" lon="6.974843711867331"><ele>259.0</ele><time>2026-05-02T19:47:58Z</time></trkpt><trkpt lat="48.83418764883628" lon="6.974735018993722"><ele>260.59999999999997</ele><time>2026-05-02T19:47:59Z</time></trkpt><trkpt lat="48.834113036904206" lon="6.974626021694246"><ele>262.2</ele><time>2026-05-02T19:48:00Z</time></trkpt><trkpt lat="48.83403463896181" lon="6.974522963429446"><ele>263.79999999999995</ele><time>2026-05-02T19:48:01Z</time></trkpt><trkpt lat="48.83395683494649" lon="6.974419689495504"><ele>265.4</ele><time>2026-05-02T19:48:02Z</time></trkpt><trkpt lat="48.83387487473716" lon="6.974310074640912"><ele>267.0</ele><time>2026-05-02T19:48:03Z</time></trkpt><trkpt lat="48.83378824325511" lon="6.974191250515212"><ele>267.0</ele><time>2026-05-02T19:48:04Z</time></trkpt><trkpt lat="48.833702011475914" lon="6.974076080894704"><ele>267.0</ele><time>2026-05-02T19:48:05Z</time></trkpt><trkpt lat="48.833620025954666" lon="6.973971603547535"><ele>267.0</ele><time>2026-05-02T19:48:06Z</time></trkpt><trkpt lat="48.83353519355985" lon="6.9738690563349035"><ele>267.0</ele><time>2026-05-02T19:48:07Z</time></trkpt><trkpt lat="48.833460482112706" lon="6.97376397020539"><ele>267.0</ele><time>2026-05-02T19:48:08Z</time></trkpt><trkpt lat="48.83338227770333" lon="6.973656058105452"><ele>267.0</ele><time>2026-05-02T19:48:09Z</time></trkpt><trkpt lat="48.833296092277315" lon="6.973538027424506"><ele>267.0</ele><time>2026-05-02T19:48:10Z</time></trkpt><trkpt lat="48.83320075580484" lon="6.973413688981093"><ele>267.0</ele><time>2026-05-02T19:48:11Z</time></trkpt><trkpt lat="48.83311226701839" lon="6.973292114282876"><ele>267.0</ele><time>2026-05-02T19:48:12Z</time></trkpt><trkpt lat="48.833031571323545" lon="6.973182958200271"><ele>267.0</ele><time>2026-05-02T19:48:13Z</time></trkpt><trkpt lat="48.83296135091452" lon="6.97308286515178"><ele>267.0</ele><time>2026-05-02T19:48:14Z</time></trkpt><trkpt lat="48.8328842728048" lon="6.9729859826051115"><ele>267.0</ele><time>2026-05-02T19:48:15Z</time></trkpt><trkpt lat="48.83280020944381" lon="6.9728899821344665"><ele>267.0</ele><time>2026-05-02T19:48:16Z</time></trkpt><trkpt lat="48.83271561280041" lon="6.972783577412265"><ele>267.0</ele><time>2026-05-02T19:48:17Z</time></trkpt><trkpt lat="48.832632614271084" lon="6.972671175409588"><ele>267.75</ele><time>2026-05-02T19:48:18Z</time></trkpt><trkpt lat="48.83255123975796" lon="6.972558372776777"><ele>268.5</ele><time>2026-05-02T19:48:19Z</time></trkpt><trkpt lat="48.83246956051998" lon="6.972444013045072"><ele>269.25</ele><time>2026-05-02T19:48:20Z</time></trkpt><trkpt lat="48.832373905139434" lon="6.972340707014193"><ele>270.0</ele><time>2026-05-02T19:48:21Z</time></trkpt><trkpt lat="48.83229542294827" lon="6.972214546768096"><ele>270.0</ele><time>2026-05-02T19:48:22Z</time></trkpt><trkpt lat="48.832216223801794" lon="6.97210725097372"><ele>270.0</ele><time>2026-05-02T19:48:23Z</time></trkpt><trkpt lat="48.83212475146836" lon="6.972008893316069"><ele>270.0</ele><time>2026-05-02T19:48:24Z</time></trkpt><trkpt lat="48.83204097599595" lon="6.971906175430981"><ele>270.0</ele><time>2026-05-02T19:48:25Z</time></trkpt><trkpt lat="48.83196370767538" lon="6.971776379665013"><ele>270.0</ele><time>2026-05-02T19:48:26Z</time></trkpt><trkpt lat="48.831876275398734" lon="6.971661970736934"><ele>270.5</ele><time>2026-05-02T19:48:27Z</time></trkpt><trkpt lat="48.83179148295254" lon="6.971547847859633"><ele>271.0</ele><time>2026-05-02T19:48:28Z</time></trkpt><trkpt lat="48.83170858916161" lon="6.971437183251793"><ele>271.5</ele><time>2026-05-02T19:48:29Z</time></trkpt><trkpt lat="48.83162125012079" lon="6.971316183858485"><ele>272.0</ele><time>2026-05-02T19:48:30Z</time></trkpt><trkpt lat="48.83153631558664" lon="6.971196735415341"><ele>272.0</ele><time>2026-05-02T19:48:31Z</time></trkpt><trkpt lat="48.83144708874363" lon="6.971088917367947"><ele>272.0</ele><time>2026-05-02T19:48:32Z</time></trkpt><trkpt lat="48.831371022559786" lon="6.970998028661908"><ele>272.0</ele><time>2026-05-02T19:48:33Z</time></trkpt><trkpt lat="48.831296913511615" lon="6.970895527359546"><ele>272.0</ele><time>2026-05-02T19:48:34Z</time></trkpt><trkpt lat="48.83121309988275" lon="6.9708057117766185"><ele>272.0</ele><time>2026-05-02T19:48:35Z</time></trkpt><trkpt lat="48.83113672744984" lon="6.970698397308629"><ele>272.2</ele><time>2026-05-02T19:48:36Z</time></trkpt><trkpt lat="48.8310618349476" lon="6.970591778223208"><ele>272.4</ele><time>2026-05-02T19:48:37Z</time></trkpt><trkpt lat="48.8310014716418" lon="6.970483715248391"><ele>272.6</ele><time>2026-05-02T19:48:38Z</time></trkpt><trkpt lat="48.830917465069895" lon="6.970392266104903"><ele>272.8</ele><time>2026-05-02T19:48:39Z</time></trkpt><trkpt lat="48.83084162740791" lon="6.970288706980593"><ele>273.0</ele><time>2026-05-02T19:48:40Z</time></trkpt><trkpt lat="48.83077261105542" lon="6.970162493115363"><ele>273.0</ele><time>2026-05-02T19:48:41Z</time></trkpt><trkpt lat="48.83069986937736" lon="6.970056282451234"><ele>273.0</ele><time>2026-05-02T19:48:42Z</time></trkpt><trkpt lat="48.830630858820435" lon="6.969955906478252"><ele>273.0</ele><time>2026-05-02T19:48:43Z</time></trkpt><trkpt lat="48.83056774732877" lon="6.9698657548478264"><ele>273.0</ele><time>2026-05-02T19:48:44Z</time></trkpt><trkpt lat="48.830509013562526" lon="6.969782671029584"><ele>273.0</ele><time>2026-05-02T19:48:45Z</time></trkpt><trkpt lat="48.83043647752822" lon="6.969684523850222"><ele>273.0</ele><time>2026-05-02T19:48:46Z</time></trkpt><trkpt lat="48.83036417974286" lon="6.969591657014185"><ele>273.0</ele><time>2026-05-02T19:48:47Z</time></trkpt><trkpt lat="48.830276762532" lon="6.969508890055013"><ele>273.0</ele><time>2026-05-02T19:48:48Z</time></trkpt><trkpt lat="48.830207079524584" lon="6.96941259651502"><ele>273.0</ele><time>2026-05-02T19:48:49Z</time></trkpt><trkpt lat="48.830126451579666" lon="6.969314048033813"><ele>273.0</ele><time>2026-05-02T19:48:50Z</time></trkpt><trkpt lat="48.83004438560456" lon="6.969214508245169"><ele>273.2</ele><time>2026-05-02T19:48:51Z</time></trkpt><trkpt lat="48.82997223057182" lon="6.969114087186818"><ele>273.4</ele><time>2026-05-02T19:48:52Z</time></trkpt><trkpt lat="48.82989673212878" lon="6.969014302564417"><ele>273.59999999999997</ele><time>2026-05-02T19:48:53Z</time></trkpt><trkpt lat="48.82981936641182" lon="6.968913126743298"><ele>273.8</ele><time>2026-05-02T19:48:54Z</time></trkpt><trkpt lat="48.82975575393392" lon="6.968784179814913"><ele>274.0</ele><time>2026-05-02T19:48:55Z</time></trkpt><trkpt lat="48.82968138198538" lon="6.968671121176004"><ele>274.0</ele><time>2026-05-02T19:48:56Z</time></trkpt><trkpt lat="48.829611925360766" lon="6.968566191213691"><ele>274.0</ele><time>2026-05-02T19:48:57Z</time></trkpt><trkpt lat="48.82953435066547" lon="6.968451819668396"><ele>274.0</ele><time>2026-05-02T19:48:57.999Z</time></trkpt><trkpt lat="48.8294553769871" lon="6.968341808636205"><ele>274.0</ele><time>2026-05-02T19:48:58.999Z</time></trkpt><trkpt lat="48.82936553116203" lon="6.968221133159345"><ele>274.0</ele><time>2026-05-02T19:48:59.999Z</time></trkpt><trkpt lat="48.82928153038833" lon="6.968109644215133"><ele>275.4</ele><time>2026-05-02T19:49:00.999Z</time></trkpt><trkpt lat="48.82920017619768" lon="6.968007164661621"><ele>276.79999999999995</ele><time>2026-05-02T19:49:01.999Z</time></trkpt><trkpt lat="48.82911991976921" lon="6.967906687430251"><ele>278.20000000000005</ele><time>2026-05-02T19:49:02.999Z</time></trkpt><trkpt lat="48.829034392449806" lon="6.967805872916549"><ele>279.6</ele><time>2026-05-02T19:49:03.999Z</time></trkpt><trkpt lat="48.82894697362241" lon="6.967709866491704"><ele>281.0</ele><time>2026-05-02T19:49:04.999Z</time></trkpt><trkpt lat="48.82886440630498" lon="6.967604622546279"><ele>281.0</ele><time>2026-05-02T19:49:05.999Z</time></trkpt><trkpt lat="48.82878517536069" lon="6.9675016220754005"><ele>281.0</ele><time>2026-05-02T19:49:06.999Z</time></trkpt><trkpt lat="48.82869849108619" lon="6.967402384897754"><ele>281.0</ele><time>2026-05-02T19:49:07.999Z</time></trkpt><trkpt lat="48.828625249225496" lon="6.9673029865937695"><ele>281.0</ele><time>2026-05-02T19:49:08.999Z</time></trkpt><trkpt lat="48.828549624376954" lon="6.967197942090456"><ele>281.0</ele><time>2026-05-02T19:49:09.999Z</time></trkpt><trkpt lat="48.82847264441381" lon="6.967092622073798"><ele>281.0</ele><time>2026-05-02T19:49:10.999Z</time></trkpt><trkpt lat="48.82839525627489" lon="6.9669910339099"><ele>281.0</ele><time>2026-05-02T19:49:11.999Z</time></trkpt><trkpt lat="48.82831585080873" lon="6.966887296228265"><ele>281.0</ele><time>2026-05-02T19:49:12.999Z</time></trkpt><trkpt lat="48.82822901297621" lon="6.9667751687575965"><ele>281.0</ele><time>2026-05-02T19:49:13.999Z</time></trkpt><trkpt lat="48.82814024299542" lon="6.966662195472378"><ele>281.0</ele><time>2026-05-02T19:49:14.999Z</time></trkpt><trkpt lat="48.828050204699004" lon="6.966545880640064"><ele>280.40000000000003</ele><time>2026-05-02T19:49:15.999Z</time></trkpt><trkpt lat="48.82796321766548" lon="6.966430107035821"><ele>279.8</ele><time>2026-05-02T19:49:16.999Z</time></trkpt><trkpt lat="48.82787733338533" lon="6.966316642974423"><ele>279.20000000000005</ele><time>2026-05-02T19:49:17.999Z</time></trkpt><trkpt lat="48.82779738461192" lon="6.966208193293659"><ele>278.6</ele><time>2026-05-02T19:49:18.999Z</time></trkpt><trkpt lat="48.82772053374983" lon="6.966091506247138"><ele>278.0</ele><time>2026-05-02T19:49:19.999Z</time></trkpt><trkpt lat="48.827636230320216" lon="6.965985145647484"><ele>278.0</ele><time>2026-05-02T19:49:20.999Z</time></trkpt><trkpt lat="48.82755459346677" lon="6.965880888414572"><ele>278.0</ele><time>2026-05-02T19:49:21.999Z</time></trkpt><trkpt lat="48.82747284592375" lon="6.965765722802375"><ele>278.0</ele><time>2026-05-02T19:49:22.999Z</time></trkpt><trkpt lat="48.827380281186905" lon="6.9656463977228285"><ele>278.0</ele><time>2026-05-02T19:49:23.999Z</time></trkpt><trkpt lat="48.827284173593185" lon="6.965516423446347"><ele>277.25</ele><time>2026-05-02T19:49:24.999Z</time></trkpt><trkpt lat="48.827194435024" lon="6.965396632491792"><ele>276.5</ele><time>2026-05-02T19:49:25.999Z</time></trkpt><trkpt lat="48.827113636034426" lon="6.965282766962337"><ele>275.75</ele><time>2026-05-02T19:49:26.999Z</time></trkpt><trkpt lat="48.82702422500569" lon="6.9651686711621545"><ele>275.0</ele><time>2026-05-02T19:49:27.999Z</time></trkpt><trkpt lat="48.826939527094" lon="6.965059014400971"><ele>274.5</ele><time>2026-05-02T19:49:28.999Z</time></trkpt><trkpt lat="48.8268507630704" lon="6.964938155214089"><ele>274.0</ele><time>2026-05-02T19:49:29.999Z</time></trkpt><trkpt lat="48.82675696781761" lon="6.9648144150306655"><ele>273.5</ele><time>2026-05-02T19:49:30.999Z</time></trkpt><trkpt lat="48.826662707802555" lon="6.964691388981146"><ele>273.0</ele><time>2026-05-02T19:49:31.999Z</time></trkpt><trkpt lat="48.826576595628765" lon="6.964578081574771"><ele>272.75</ele><time>2026-05-02T19:49:32.999Z</time></trkpt><trkpt lat="48.82648622884709" lon="6.964460239758497"><ele>272.5</ele><time>2026-05-02T19:49:33.999Z</time></trkpt><trkpt lat="48.82640154441618" lon="6.964344459357685"><ele>272.25</ele><time>2026-05-02T19:49:34.999Z</time></trkpt><trkpt lat="48.826315044129714" lon="6.964227451824608"><ele>272.0</ele><time>2026-05-02T19:49:35.999Z</time></trkpt><trkpt lat="48.82622499343031" lon="6.964108788719281"><ele>272.0</ele><time>2026-05-02T19:49:36.999Z</time></trkpt><trkpt lat="48.82613321251561" lon="6.963992520499129"><ele>272.0</ele><time>2026-05-02T19:49:37.999Z</time></trkpt><trkpt lat="48.8260392645709" lon="6.963870366599853"><ele>272.0</ele><time>2026-05-02T19:49:38.999Z</time></trkpt><trkpt lat="48.82594800734808" lon="6.963749851075316"><ele>272.0</ele><time>2026-05-02T19:49:39.999Z</time></trkpt><trkpt lat="48.8258643983111" lon="6.963635629167494"><ele>272.2</ele><time>2026-05-02T19:49:40.999Z</time></trkpt><trkpt lat="48.82578081507503" lon="6.9635250291694355"><ele>272.4</ele><time>2026-05-02T19:49:42Z</time></trkpt><trkpt lat="48.82569610434494" lon="6.963414739210727"><ele>272.6</ele><time>2026-05-02T19:49:43Z</time></trkpt><trkpt lat="48.825613971981994" lon="6.963306909635066"><ele>272.8</ele><time>2026-05-02T19:49:44Z</time></trkpt><trkpt lat="48.82553197055694" lon="6.963199080133774"><ele>273.0</ele><time>2026-05-02T19:49:45Z</time></trkpt><trkpt lat="48.82545023344128" lon="6.963092807405748"><ele>273.0</ele><time>2026-05-02T19:49:46Z</time></trkpt><trkpt lat="48.82536660965534" lon="6.9629818547486995"><ele>273.0</ele><time>2026-05-02T19:49:47Z</time></trkpt><trkpt lat="48.82527734720395" lon="6.962863782619538"><ele>273.0</ele><time>2026-05-02T19:49:48Z</time></trkpt><trkpt lat="48.82519117816556" lon="6.962742741599996"><ele>273.0</ele><time>2026-05-02T19:49:49Z</time></trkpt><trkpt lat="48.82510409230391" lon="6.962624931461852"><ele>272.0</ele><time>2026-05-02T19:49:50Z</time></trkpt><trkpt lat="48.82501108390023" lon="6.962503622128686"><ele>271.0</ele><time>2026-05-02T19:49:51Z</time></trkpt><trkpt lat="48.82492045392413" lon="6.962383869686909"><ele>270.0</ele><time>2026-05-02T19:49:52Z</time></trkpt><trkpt lat="48.824829224472175" lon="6.962267785932027"><ele>269.0</ele><time>2026-05-02T19:49:53Z</time></trkpt><trkpt lat="48.824742062503745" lon="6.962156300948509"><ele>269.0</ele><time>2026-05-02T19:49:54Z</time></trkpt><trkpt lat="48.82465452457713" lon="6.962037956772345"><ele>269.0</ele><time>2026-05-02T19:49:55Z</time></trkpt><trkpt lat="48.82456782730603" lon="6.961921510262343"><ele>269.0</ele><time>2026-05-02T19:49:56Z</time></trkpt><trkpt lat="48.824469986856556" lon="6.961798332548588"><ele>269.0</ele><time>2026-05-02T19:49:57Z</time></trkpt><trkpt lat="48.82437802608277" lon="6.961677458802767"><ele>268.5</ele><time>2026-05-02T19:49:58Z</time></trkpt><trkpt lat="48.82429028544997" lon="6.961560666360758"><ele>268.0</ele><time>2026-05-02T19:49:59Z</time></trkpt><trkpt lat="48.8242070100968" lon="6.961446576511325"><ele>267.5</ele><time>2026-05-02T19:50:00Z</time></trkpt><trkpt lat="48.82411784252513" lon="6.961332351225828"><ele>267.0</ele><time>2026-05-02T19:50:01Z</time></trkpt><trkpt lat="48.824024371934506" lon="6.961213907319328"><ele>267.0</ele><time>2026-05-02T19:50:02Z</time></trkpt><trkpt lat="48.82394413828151" lon="6.961103280386249"><ele>267.0</ele><time>2026-05-02T19:50:03Z</time></trkpt><trkpt lat="48.823867105497904" lon="6.960990257557154"><ele>267.0</ele><time>2026-05-02T19:50:04Z</time></trkpt><trkpt lat="48.823773392609866" lon="6.960883098711852"><ele>267.0</ele><time>2026-05-02T19:50:05Z</time></trkpt><trkpt lat="48.82369091965251" lon="6.960765655939646"><ele>267.0</ele><time>2026-05-02T19:50:06Z</time></trkpt><trkpt lat="48.8236086235462" lon="6.960649443088063"><ele>266.4</ele><time>2026-05-02T19:50:07Z</time></trkpt><trkpt lat="48.82352730481968" lon="6.960538602456238"><ele>265.79999999999995</ele><time>2026-05-02T19:50:08Z</time></trkpt><trkpt lat="48.82344614450072" lon="6.9604319320621055"><ele>265.2</ele><time>2026-05-02T19:50:09Z</time></trkpt><trkpt lat="48.82336007647187" lon="6.960321913733943"><ele>264.59999999999997</ele><time>2026-05-02T19:50:10Z</time></trkpt><trkpt lat="48.82327882443413" lon="6.960208071065416"><ele>264.0</ele><time>2026-05-02T19:50:11Z</time></trkpt><trkpt lat="48.82320226962166" lon="6.960095326306005"><ele>263.59999999999997</ele><time>2026-05-02T19:50:12Z</time></trkpt><trkpt lat="48.82312138175441" lon="6.9599909865363125"><ele>263.2</ele><time>2026-05-02T19:50:13Z</time></trkpt><trkpt lat="48.82304062600742" lon="6.959892936050291"><ele>262.79999999999995</ele><time>2026-05-02T19:50:14Z</time></trkpt><trkpt lat="48.822961616599954" lon="6.95976185435082"><ele>262.4</ele><time>2026-05-02T19:50:15Z</time></trkpt><trkpt lat="48.82287234378463" lon="6.959662188730712"><ele>262.0</ele><time>2026-05-02T19:50:16Z</time></trkpt><trkpt lat="48.822788603383685" lon="6.959554808642982"><ele>262.0</ele><time>2026-05-02T19:50:17Z</time></trkpt><trkpt lat="48.8227071104409" lon="6.959446313813171"><ele>262.0</ele><time>2026-05-02T19:50:18Z</time></trkpt><trkpt lat="48.82262786096083" lon="6.959341645641579"><ele>262.0</ele><time>2026-05-02T19:50:19Z</time></trkpt><trkpt lat="48.82255627941309" lon="6.959239998864011"><ele>262.0</ele><time>2026-05-02T19:50:20Z</time></trkpt><trkpt lat="48.82247852046855" lon="6.959139481683125"><ele>262.0</ele><time>2026-05-02T19:50:21Z</time></trkpt><trkpt lat="48.8224020997335" lon="6.959040539283725"><ele>262.0</ele><time>2026-05-02T19:50:22Z</time></trkpt><trkpt lat="48.82232679147241" lon="6.95894335257356"><ele>262.0</ele><time>2026-05-02T19:50:23Z</time></trkpt><trkpt lat="48.82224997705207" lon="6.958841408465323"><ele>262.0</ele><time>2026-05-02T19:50:24Z</time></trkpt><trkpt lat="48.82217557406745" lon="6.958737469255197"><ele>262.0</ele><time>2026-05-02T19:50:25Z</time></trkpt><trkpt lat="48.82209966171333" lon="6.958639063274663"><ele>262.0</ele><time>2026-05-02T19:50:26Z</time></trkpt><trkpt lat="48.822024405853334" lon="6.958536521002425"><ele>262.0</ele><time>2026-05-02T19:50:27Z</time></trkpt><trkpt lat="48.82194229159782" lon="6.958433847215606"><ele>262.0</ele><time>2026-05-02T19:50:28Z</time></trkpt><trkpt lat="48.82186396945532" lon="6.958334131436351"><ele>262.0</ele><time>2026-05-02T19:50:29Z</time></trkpt><trkpt lat="48.821790981000056" lon="6.958232005000208"><ele>262.0</ele><time>2026-05-02T19:50:30Z</time></trkpt><trkpt lat="48.82172034788138" lon="6.958132704572451"><ele>262.0</ele><time>2026-05-02T19:50:31Z</time></trkpt><trkpt lat="48.82165143464105" lon="6.958041004571778"><ele>261.0</ele><time>2026-05-02T19:50:32Z</time></trkpt><trkpt lat="48.82157422004203" lon="6.957941187533626"><ele>260.0</ele><time>2026-05-02T19:50:33Z</time></trkpt><trkpt lat="48.82150232742852" lon="6.957825739748441"><ele>259.0</ele><time>2026-05-02T19:50:34Z</time></trkpt><trkpt lat="48.82143050579229" lon="6.9577176526949005"><ele>258.0</ele><time>2026-05-02T19:50:35Z</time></trkpt><trkpt lat="48.821350844087" lon="6.957598966933011"><ele>257.0</ele><time>2026-05-02T19:50:36Z</time></trkpt><trkpt lat="48.82125887595812" lon="6.957481841895629"><ele>256.6</ele><time>2026-05-02T19:50:37Z</time></trkpt><trkpt lat="48.82116901052607" lon="6.957377435001963"><ele>256.2</ele><time>2026-05-02T19:50:38Z</time></trkpt><trkpt lat="48.821084181912354" lon="6.957262693936752"><ele>255.8</ele><time>2026-05-02T19:50:39Z</time></trkpt><trkpt lat="48.82100113869402" lon="6.9571526467937135"><ele>255.4</ele><time>2026-05-02T19:50:40Z</time></trkpt><trkpt lat="48.82092003034942" lon="6.957041584542854"><ele>255.0</ele><time>2026-05-02T19:50:41Z</time></trkpt><trkpt lat="48.82084158151905" lon="6.956942958628072"><ele>256.2</ele><time>2026-05-02T19:50:42Z</time></trkpt><trkpt lat="48.82075950146098" lon="6.956843606768349"><ele>257.4</ele><time>2026-05-02T19:50:43Z</time></trkpt><trkpt lat="48.82067971252981" lon="6.956727683759118"><ele>258.6</ele><time>2026-05-02T19:50:44Z</time></trkpt><trkpt lat="48.82060340656203" lon="6.956607768412945"><ele>259.8</ele><time>2026-05-02T19:50:45Z</time></trkpt><trkpt lat="48.82052609937436" lon="6.956514404026133"><ele>261.0</ele><time>2026-05-02T19:50:46Z</time></trkpt><trkpt lat="48.820447413551946" lon="6.9564184008185626"><ele>261.0</ele><time>2026-05-02T19:50:47Z</time></trkpt><trkpt lat="48.82036562562392" lon="6.956303298642829"><ele>261.0</ele><time>2026-05-02T19:50:48Z</time></trkpt><trkpt lat="48.8202785101911" lon="6.956194672042155"><ele>261.0</ele><time>2026-05-02T19:50:49Z</time></trkpt><trkpt lat="48.82020038168498" lon="6.9560884674701615"><ele>261.0</ele><time>2026-05-02T19:50:50Z</time></trkpt><trkpt lat="48.82012238393825" lon="6.955981409202148"><ele>261.0</ele><time>2026-05-02T19:50:51Z</time></trkpt><trkpt lat="48.8200433946832" lon="6.955876974897721"><ele>261.8</ele><time>2026-05-02T19:50:52Z</time></trkpt><trkpt lat="48.81996353463107" lon="6.955775208133375"><ele>262.6</ele><time>2026-05-02T19:50:53Z</time></trkpt><trkpt lat="48.81988643374684" lon="6.955672986550052"><ele>263.4</ele><time>2026-05-02T19:50:54Z</time></trkpt><trkpt lat="48.819804927917886" lon="6.955568655191109"><ele>264.2</ele><time>2026-05-02T19:50:55Z</time></trkpt><trkpt lat="48.8197246624347" lon="6.955468010287053"><ele>265.0</ele><time>2026-05-02T19:50:56Z</time></trkpt><trkpt lat="48.81964897752962" lon="6.955365452934097"><ele>265.0</ele><time>2026-05-02T19:50:57Z</time></trkpt><trkpt lat="48.81956611866667" lon="6.955260540563445"><ele>265.0</ele><time>2026-05-02T19:50:58Z</time></trkpt><trkpt lat="48.81948525775924" lon="6.955160210916029"><ele>265.0</ele><time>2026-05-02T19:50:59Z</time></trkpt><trkpt lat="48.81940169682416" lon="6.955052737525161"><ele>265.0</ele><time>2026-05-02T19:51:00Z</time></trkpt><trkpt lat="48.81931802114244" lon="6.954943659344264"><ele>265.0</ele><time>2026-05-02T19:51:01Z</time></trkpt><trkpt lat="48.819234119936795" lon="6.954835291830026"><ele>265.0</ele><time>2026-05-02T19:51:02Z</time></trkpt><trkpt lat="48.819146482150614" lon="6.954724887437369"><ele>265.0</ele><time>2026-05-02T19:51:03Z</time></trkpt><trkpt lat="48.81906001202011" lon="6.954613298961984"><ele>265.0</ele><time>2026-05-02T19:51:04Z</time></trkpt><trkpt lat="48.81897238344649" lon="6.954504168081259"><ele>265.0</ele><time>2026-05-02T19:51:05Z</time></trkpt><trkpt lat="48.81888520316403" lon="6.954395231809631"><ele>265.0</ele><time>2026-05-02T19:51:06Z</time></trkpt><trkpt lat="48.81880075280289" lon="6.954287706324597"><ele>265.0</ele><time>2026-05-02T19:51:07Z</time></trkpt><trkpt lat="48.818713231930424" lon="6.954175684909311"><ele>265.0</ele><time>2026-05-02T19:51:08Z</time></trkpt><trkpt lat="48.81862966087601" lon="6.954069217842865"><ele>265.0</ele><time>2026-05-02T19:51:09Z</time></trkpt><trkpt lat="48.81853878181933" lon="6.953964401803131"><ele>265.0</ele><time>2026-05-02T19:51:10Z</time></trkpt><trkpt lat="48.81845313002027" lon="6.953853378774305"><ele>264.8</ele><time>2026-05-02T19:51:11Z</time></trkpt><trkpt lat="48.81836011564332" lon="6.9537351536433025"><ele>264.6</ele><time>2026-05-02T19:51:12Z</time></trkpt><trkpt lat="48.81827534143066" lon="6.953635260653443"><ele>264.4</ele><time>2026-05-02T19:51:13Z</time></trkpt><trkpt lat="48.81819681301229" lon="6.95354173396514"><ele>264.2</ele><time>2026-05-02T19:51:14Z</time></trkpt><trkpt lat="48.81810838698294" lon="6.953429242147686"><ele>264.0</ele><time>2026-05-02T19:51:15Z</time></trkpt><trkpt lat="48.818014827622136" lon="6.953314004965349"><ele>263.5</ele><time>2026-05-02T19:51:16Z</time></trkpt><trkpt lat="48.81792353255326" lon="6.953204744092361"><ele>263.0</ele><time>2026-05-02T19:51:17Z</time></trkpt><trkpt lat="48.817838792414705" lon="6.9530976746502615"><ele>262.5</ele><time>2026-05-02T19:51:18Z</time></trkpt><trkpt lat="48.81775226708664" lon="6.952985027209293"><ele>262.0</ele><time>2026-05-02T19:51:19Z</time></trkpt><trkpt lat="48.81766481523778" lon="6.9528765085578605"><ele>261.8</ele><time>2026-05-02T19:51:20Z</time></trkpt><trkpt lat="48.81757818132547" lon="6.952770569148076"><ele>261.6</ele><time>2026-05-02T19:51:21Z</time></trkpt><trkpt lat="48.81749265664909" lon="6.952661364719085"><ele>261.40000000000003</ele><time>2026-05-02T19:51:22Z</time></trkpt><trkpt lat="48.817406503995805" lon="6.952552751200202"><ele>261.2</ele><time>2026-05-02T19:51:22.999Z</time></trkpt><trkpt lat="48.817322698512555" lon="6.952439351532226"><ele>261.0</ele><time>2026-05-02T19:51:23.999Z</time></trkpt><trkpt lat="48.81723611212981" lon="6.952330753822981"><ele>261.0</ele><time>2026-05-02T19:51:24.999Z</time></trkpt><trkpt lat="48.81714659339636" lon="6.952224737394389"><ele>261.0</ele><time>2026-05-02T19:51:25.999Z</time></trkpt><trkpt lat="48.817060001638936" lon="6.9521216631322"><ele>261.0</ele><time>2026-05-02T19:51:26.999Z</time></trkpt><trkpt lat="48.816973285036575" lon="6.9520136641034025"><ele>261.0</ele><time>2026-05-02T19:51:27.999Z</time></trkpt><trkpt lat="48.81688897802688" lon="6.951911913744591"><ele>261.0</ele><time>2026-05-02T19:51:28.999Z</time></trkpt><trkpt lat="48.81679433136892" lon="6.9517894616815115"><ele>260.40000000000003</ele><time>2026-05-02T19:51:29.999Z</time></trkpt><trkpt lat="48.81671860412423" lon="6.9516952180416265"><ele>259.8</ele><time>2026-05-02T19:51:30.999Z</time></trkpt><trkpt lat="48.81663614582054" lon="6.951601514464778"><ele>259.20000000000005</ele><time>2026-05-02T19:51:31.999Z</time></trkpt><trkpt lat="48.816567662009774" lon="6.951519280738754"><ele>258.6</ele><time>2026-05-02T19:51:32.999Z</time></trkpt><trkpt lat="48.81648951593864" lon="6.951417642809874"><ele>258.0</ele><time>2026-05-02T19:51:33.999Z</time></trkpt><trkpt lat="48.81640920646399" lon="6.951312187329646"><ele>258.0</ele><time>2026-05-02T19:51:34.999Z</time></trkpt><trkpt lat="48.81632964454685" lon="6.951213446752725"><ele>258.0</ele><time>2026-05-02T19:51:35.999Z</time></trkpt><trkpt lat="48.8162630176477" lon="6.951134688626376"><ele>258.0</ele><time>2026-05-02T19:51:36.999Z</time></trkpt><trkpt lat="48.81618475064677" lon="6.951041183635271"><ele>258.0</ele><time>2026-05-02T19:51:37.999Z</time></trkpt><trkpt lat="48.816106815962456" lon="6.95093830764538"><ele>258.0</ele><time>2026-05-02T19:51:38.999Z</time></trkpt><trkpt lat="48.81602819440986" lon="6.950841611026016"><ele>258.6</ele><time>2026-05-02T19:51:39.999Z</time></trkpt><trkpt lat="48.815950518029474" lon="6.950743047327701"><ele>259.20000000000005</ele><time>2026-05-02T19:51:40.999Z</time></trkpt><trkpt lat="48.81586700834134" lon="6.950638877025457"><ele>259.8</ele><time>2026-05-02T19:51:41.999Z</time></trkpt><trkpt lat="48.815786046088036" lon="6.950544794116927"><ele>260.40000000000003</ele><time>2026-05-02T19:51:42.999Z</time></trkpt><trkpt lat="48.81570665934376" lon="6.950448728350816"><ele>261.0</ele><time>2026-05-02T19:51:43.999Z</time></trkpt><trkpt lat="48.81563228880223" lon="6.950346822762483"><ele>261.0</ele><time>2026-05-02T19:51:44.999Z</time></trkpt><trkpt lat="48.8155554270946" lon="6.950241103283292"><ele>261.0</ele><time>2026-05-02T19:51:45.999Z</time></trkpt><trkpt lat="48.81547709521944" lon="6.9501407814199485"><ele>261.0</ele><time>2026-05-02T19:51:46.999Z</time></trkpt><trkpt lat="48.81539620508852" lon="6.950041273819345"><ele>261.0</ele><time>2026-05-02T19:51:48Z</time></trkpt><trkpt lat="48.815312919343036" lon="6.94993987636915"><ele>261.0</ele><time>2026-05-02T19:51:49Z</time></trkpt><trkpt lat="48.81522676022745" lon="6.94983750370437"><ele>261.6</ele><time>2026-05-02T19:51:50Z</time></trkpt><trkpt lat="48.815142799535835" lon="6.949732426199323"><ele>262.20000000000005</ele><time>2026-05-02T19:51:51Z</time></trkpt><trkpt lat="48.815063504073684" lon="6.949628855711304"><ele>262.79999999999995</ele><time>2026-05-02T19:51:52Z</time></trkpt><trkpt lat="48.81497580976969" lon="6.949527681550722"><ele>263.4</ele><time>2026-05-02T19:51:53Z</time></trkpt><trkpt lat="48.81489290055511" lon="6.949421543485892"><ele>264.0</ele><time>2026-05-02T19:51:54Z</time></trkpt><trkpt lat="48.81481009629508" lon="6.949320881912416"><ele>264.0</ele><time>2026-05-02T19:51:55Z</time></trkpt><trkpt lat="48.81472587113989" lon="6.949219616868536"><ele>264.0</ele><time>2026-05-02T19:51:56Z</time></trkpt><trkpt lat="48.81464586462879" lon="6.949118878734624"><ele>264.0</ele><time>2026-05-02T19:51:57Z</time></trkpt><trkpt lat="48.81456953991281" lon="6.949024831399466"><ele>264.0</ele><time>2026-05-02T19:51:58Z</time></trkpt><trkpt lat="48.81449343932132" lon="6.948928921517418"><ele>264.0</ele><time>2026-05-02T19:51:59Z</time></trkpt><trkpt lat="48.81441543581321" lon="6.948836897434154"><ele>264.25</ele><time>2026-05-02T19:52:00Z</time></trkpt><trkpt lat="48.81432840029362" lon="6.948725547652984"><ele>264.5</ele><time>2026-05-02T19:52:01Z</time></trkpt><trkpt lat="48.8142365964136" lon="6.948614057787139"><ele>264.75</ele><time>2026-05-02T19:52:02Z</time></trkpt><trkpt lat="48.81413953992697" lon="6.948497137885317"><ele>265.0</ele><time>2026-05-02T19:52:03Z</time></trkpt><trkpt lat="48.81404351497642" lon="6.948377172061573"><ele>261.75</ele><time>2026-05-02T19:52:04Z</time></trkpt><trkpt lat="48.81394968062415" lon="6.948262597758773"><ele>258.5</ele><time>2026-05-02T19:52:05Z</time></trkpt><trkpt lat="48.81386289271458" lon="6.948151191041433"><ele>255.25</ele><time>2026-05-02T19:52:06Z</time></trkpt><trkpt lat="48.81377327869814" lon="6.948040041463028"><ele>252.0</ele><time>2026-05-02T19:52:07Z</time></trkpt><trkpt lat="48.81368291795119" lon="6.947929990745234"><ele>252.0</ele><time>2026-05-02T19:52:08Z</time></trkpt><trkpt lat="48.813589780860184" lon="6.947819661214225"><ele>252.0</ele><time>2026-05-02T19:52:09Z</time></trkpt><trkpt lat="48.81350262437506" lon="6.94770549829865"><ele>252.0</ele><time>2026-05-02T19:52:10Z</time></trkpt><trkpt lat="48.81341377688192" lon="6.94759210915971"><ele>252.0</ele><time>2026-05-02T19:52:11Z</time></trkpt><trkpt lat="48.813321122169576" lon="6.947479162453069"><ele>251.75</ele><time>2026-05-02T19:52:12Z</time></trkpt><trkpt lat="48.81322829992588" lon="6.9473650387250245"><ele>251.5</ele><time>2026-05-02T19:52:13Z</time></trkpt><trkpt lat="48.8131356662705" lon="6.94725727755228"><ele>251.25</ele><time>2026-05-02T19:52:14Z</time></trkpt><trkpt lat="48.8130483892115" lon="6.947144709745679"><ele>251.0</ele><time>2026-05-02T19:52:15Z</time></trkpt><trkpt lat="48.812967652959856" lon="6.94703897182709"><ele>251.0</ele><time>2026-05-02T19:52:16Z</time></trkpt><trkpt lat="48.812884953976514" lon="6.9469321612261545"><ele>251.00000000000003</ele><time>2026-05-02T19:52:17Z</time></trkpt><trkpt lat="48.812793775611304" lon="6.9468332978439085"><ele>251.00000000000003</ele><time>2026-05-02T19:52:18Z</time></trkpt><trkpt lat="48.812713049347046" lon="6.94673531242404"><ele>251.0</ele><time>2026-05-02T19:52:19Z</time></trkpt><trkpt lat="48.81263203885779" lon="6.946625970672448"><ele>251.0</ele><time>2026-05-02T19:52:20Z</time></trkpt><trkpt lat="48.812546206668145" lon="6.946516199383379"><ele>251.4</ele><time>2026-05-02T19:52:21Z</time></trkpt><trkpt lat="48.81246102863975" lon="6.946413023346805"><ele>251.8</ele><time>2026-05-02T19:52:22Z</time></trkpt><trkpt lat="48.81237905263789" lon="6.9463140344423"><ele>252.20000000000002</ele><time>2026-05-02T19:52:23Z</time></trkpt><trkpt lat="48.81229774531663" lon="6.946219810244779"><ele>252.60000000000002</ele><time>2026-05-02T19:52:24Z</time></trkpt><trkpt lat="48.812220362408326" lon="6.946119248129909"><ele>253.0</ele><time>2026-05-02T19:52:25Z</time></trkpt><trkpt lat="48.81214370179228" lon="6.946022719759313"><ele>253.0</ele><time>2026-05-02T19:52:26Z</time></trkpt><trkpt lat="48.812066624096396" lon="6.945926712967403"><ele>253.0</ele><time>2026-05-02T19:52:27Z</time></trkpt><trkpt lat="48.81198235579554" lon="6.945824393486027"><ele>253.0</ele><time>2026-05-02T19:52:28Z</time></trkpt><trkpt lat="48.81190527391286" lon="6.945722404476175"><ele>253.0</ele><time>2026-05-02T19:52:29Z</time></trkpt><trkpt lat="48.81182280804788" lon="6.945622525241598"><ele>253.0</ele><time>2026-05-02T19:52:30Z</time></trkpt><trkpt lat="48.81174594407111" lon="6.945528090162396"><ele>253.2</ele><time>2026-05-02T19:52:31Z</time></trkpt><trkpt lat="48.81165781400871" lon="6.945425298160732"><ele>253.4</ele><time>2026-05-02T19:52:32Z</time></trkpt><trkpt lat="48.81158120424114" lon="6.9453294961786884"><ele>253.59999999999997</ele><time>2026-05-02T19:52:33Z</time></trkpt><trkpt lat="48.81149749145565" lon="6.945231562385003"><ele>253.79999999999998</ele><time>2026-05-02T19:52:34Z</time></trkpt><trkpt lat="48.81141725562012" lon="6.945126756812311"><ele>254.0</ele><time>2026-05-02T19:52:35Z</time></trkpt><trkpt lat="48.811330992579144" lon="6.945021246485641"><ele>254.0</ele><time>2026-05-02T19:52:36Z</time></trkpt><trkpt lat="48.81125194479775" lon="6.944910317879682"><ele>253.99999999999997</ele><time>2026-05-02T19:52:37Z</time></trkpt><trkpt lat="48.81116194795801" lon="6.944811307243736"><ele>253.99999999999997</ele><time>2026-05-02T19:52:38Z</time></trkpt><trkpt lat="48.8110775846025" lon="6.944701416444961"><ele>254.0</ele><time>2026-05-02T19:52:39Z</time></trkpt><trkpt lat="48.8109956817478" lon="6.944595229984291"><ele>254.0</ele><time>2026-05-02T19:52:40Z</time></trkpt><trkpt lat="48.81091168812524" lon="6.9444926216831755"><ele>255.0</ele><time>2026-05-02T19:52:41Z</time></trkpt><trkpt lat="48.81082687231721" lon="6.944384141049632"><ele>256.0</ele><time>2026-05-02T19:52:42Z</time></trkpt><trkpt lat="48.810745716346055" lon="6.944270832712397"><ele>257.0</ele><time>2026-05-02T19:52:43Z</time></trkpt><trkpt lat="48.810650537147374" lon="6.944171789363394"><ele>258.0</ele><time>2026-05-02T19:52:44Z</time></trkpt><trkpt lat="48.81055982554965" lon="6.94406410742889"><ele>258.0</ele><time>2026-05-02T19:52:45Z</time></trkpt><trkpt lat="48.81047858825275" lon="6.943947643610928"><ele>258.0</ele><time>2026-05-02T19:52:46Z</time></trkpt><trkpt lat="48.81038956656152" lon="6.943842335311495"><ele>258.0</ele><time>2026-05-02T19:52:47Z</time></trkpt><trkpt lat="48.810307835860925" lon="6.943737357302508"><ele>258.0</ele><time>2026-05-02T19:52:48Z</time></trkpt><trkpt lat="48.81022087826798" lon="6.943638088339424"><ele>258.0</ele><time>2026-05-02T19:52:49Z</time></trkpt><trkpt lat="48.81014209634757" lon="6.943539892892951"><ele>258.6</ele><time>2026-05-02T19:52:50Z</time></trkpt><trkpt lat="48.81006258676658" lon="6.94344445311891"><ele>259.20000000000005</ele><time>2026-05-02T19:52:51Z</time></trkpt><trkpt lat="48.80998614306273" lon="6.943351700501385"><ele>259.8</ele><time>2026-05-02T19:52:52Z</time></trkpt><trkpt lat="48.80992059514125" lon="6.943254637355884"><ele>260.40000000000003</ele><time>2026-05-02T19:52:53Z</time></trkpt><trkpt lat="48.80983375132285" lon="6.94316548760906"><ele>261.0</ele><time>2026-05-02T19:52:54Z</time></trkpt><trkpt lat="48.809763849103916" lon="6.943082744404252"><ele>261.0</ele><time>2026-05-02T19:52:55Z</time></trkpt><trkpt lat="48.809695527254156" lon="6.942992354445324"><ele>261.0</ele><time>2026-05-02T19:52:56Z</time></trkpt><trkpt lat="48.809618293428706" lon="6.942890061843279"><ele>261.0</ele><time>2026-05-02T19:52:57Z</time></trkpt><trkpt lat="48.80954073336619" lon="6.942793919685587"><ele>261.0</ele><time>2026-05-02T19:52:58Z</time></trkpt><trkpt lat="48.809464367546845" lon="6.9427002593733365"><ele>261.0</ele><time>2026-05-02T19:52:59Z</time></trkpt><trkpt lat="48.80939157932457" lon="6.942608316712332"><ele>261.2</ele><time>2026-05-02T19:53:00Z</time></trkpt><trkpt lat="48.80932789070025" lon="6.9425353221872905"><ele>261.40000000000003</ele><time>2026-05-02T19:53:01Z</time></trkpt><trkpt lat="48.809265739168836" lon="6.942464197328587"><ele>261.6</ele><time>2026-05-02T19:53:02Z</time></trkpt><trkpt lat="48.809209190783406" lon="6.942391846516115"><ele>261.8</ele><time>2026-05-02T19:53:03Z</time></trkpt><trkpt lat="48.8091084826382" lon="6.942266470115756"><ele>262.0</ele><time>2026-05-02T19:53:05Z</time></trkpt><trkpt lat="48.80901895398071" lon="6.94215048630666"><ele>262.6</ele><time>2026-05-02T19:53:07Z</time></trkpt><trkpt lat="48.80894916269251" lon="6.942066647487452"><ele>263.2</ele><time>2026-05-02T19:53:09Z</time></trkpt><trkpt lat="48.8088914105121" lon="6.9419763650712865"><ele>263.8</ele><time>2026-05-02T19:53:12Z</time></trkpt><trkpt lat="48.808799358025865" lon="6.941864866916159"><ele>264.4</ele><time>2026-05-02T19:53:14Z</time></trkpt><trkpt lat="48.80873134286142" lon="6.941802220415086"><ele>265.0</ele><time>2026-05-02T19:53:15Z</time></trkpt><trkpt lat="48.808665208300376" lon="6.941732119793082"><ele>265.6</ele><time>2026-05-02T19:53:16Z</time></trkpt><trkpt lat="48.808604999751104" lon="6.941651119847282"><ele>266.2</ele><time>2026-05-02T19:53:17Z</time></trkpt><trkpt lat="48.80853662327916" lon="6.941555446508973"><ele>266.8</ele><time>2026-05-02T19:53:18Z</time></trkpt><trkpt lat="48.80846046373655" lon="6.941452898404567"><ele>267.4</ele><time>2026-05-02T19:53:19Z</time></trkpt><trkpt lat="48.8083831117218" lon="6.941356824539439"><ele>268.0</ele><time>2026-05-02T19:53:20Z</time></trkpt><trkpt lat="48.808307398769244" lon="6.941261465102909"><ele>268.6</ele><time>2026-05-02T19:53:21Z</time></trkpt><trkpt lat="48.808233356247676" lon="6.941160486367806"><ele>269.20000000000005</ele><time>2026-05-02T19:53:21.999Z</time></trkpt><trkpt lat="48.808154997206444" lon="6.9410597992035274"><ele>269.8</ele><time>2026-05-02T19:53:22.999Z</time></trkpt><trkpt lat="48.808077896424834" lon="6.940961159467452"><ele>270.40000000000003</ele><time>2026-05-02T19:53:23.999Z</time></trkpt><trkpt lat="48.80799949857679" lon="6.9408645922143535"><ele>271.0</ele><time>2026-05-02T19:53:24.999Z</time></trkpt><trkpt lat="48.807924911586554" lon="6.940765783471794"><ele>271.40000000000003</ele><time>2026-05-02T19:53:25.999Z</time></trkpt><trkpt lat="48.807852564304405" lon="6.940669754533133"><ele>271.8</ele><time>2026-05-02T19:53:26.999Z</time></trkpt><trkpt lat="48.80777522214429" lon="6.940568856333858"><ele>272.20000000000005</ele><time>2026-05-02T19:53:27.999Z</time></trkpt><trkpt lat="48.807698672116274" lon="6.9404693211845565"><ele>272.6</ele><time>2026-05-02T19:53:28.999Z</time></trkpt><trkpt lat="48.80761981405396" lon="6.940365753029759"><ele>273.0</ele><time>2026-05-02T19:53:29.999Z</time></trkpt><trkpt lat="48.80753991164267" lon="6.940261955621013"><ele>273.6</ele><time>2026-05-02T19:53:30.999Z</time></trkpt><trkpt lat="48.80746233592272" lon="6.940160957941131"><ele>274.20000000000005</ele><time>2026-05-02T19:53:31.999Z</time></trkpt><trkpt lat="48.807378937361264" lon="6.940052543104309"><ele>274.8</ele><time>2026-05-02T19:53:32.999Z</time></trkpt><trkpt lat="48.807294242118154" lon="6.939942755939767"><ele>275.40000000000003</ele><time>2026-05-02T19:53:33.999Z</time></trkpt><trkpt lat="48.80720791716049" lon="6.9398339306023376"><ele>276.0</ele><time>2026-05-02T19:53:34.999Z</time></trkpt><trkpt lat="48.8071268698113" lon="6.939733393383607"><ele>276.2</ele><time>2026-05-02T19:53:35.999Z</time></trkpt><trkpt lat="48.80704890919337" lon="6.939628769326543"><ele>276.40000000000003</ele><time>2026-05-02T19:53:36.999Z</time></trkpt><trkpt lat="48.80697048867985" lon="6.939526279944623"><ele>276.6</ele><time>2026-05-02T19:53:37.999Z</time></trkpt><trkpt lat="48.80688565679903" lon="6.939419311260788"><ele>276.8</ele><time>2026-05-02T19:53:38.999Z</time></trkpt><trkpt lat="48.80679735149077" lon="6.939305043554924"><ele>277.0</ele><time>2026-05-02T19:53:39.999Z</time></trkpt><trkpt lat="48.80671189071791" lon="6.939195862631664"><ele>277.6</ele><time>2026-05-02T19:53:40.999Z</time></trkpt><trkpt lat="48.80663992359223" lon="6.939103769809601"><ele>278.2</ele><time>2026-05-02T19:53:41.999Z</time></trkpt><trkpt lat="48.806573941880295" lon="6.939020218961565"><ele>278.8</ele><time>2026-05-02T19:53:42.999Z</time></trkpt><trkpt lat="48.80652181558379" lon="6.9389438880995495"><ele>279.4</ele><time>2026-05-02T19:53:43.999Z</time></trkpt><trkpt lat="48.80645093473638" lon="6.938851712816352"><ele>280.0</ele><time>2026-05-02T19:53:44.999Z</time></trkpt><trkpt lat="48.80637065677111" lon="6.938746822341653"><ele>280.0</ele><time>2026-05-02T19:53:45.999Z</time></trkpt><trkpt lat="48.80629470948577" lon="6.938645870469955"><ele>280.0</ele><time>2026-05-02T19:53:46.999Z</time></trkpt><trkpt lat="48.80621555539781" lon="6.938546840803599"><ele>280.0</ele><time>2026-05-02T19:53:47.999Z</time></trkpt><trkpt lat="48.80613091100203" lon="6.938439468030528"><ele>280.0</ele><time>2026-05-02T19:53:48.999Z</time></trkpt><trkpt lat="48.8060651804068" lon="6.938329286046801"><ele>280.0</ele><time>2026-05-02T19:53:49.999Z</time></trkpt><trkpt lat="48.80599226603749" lon="6.938232079653117"><ele>279.0</ele><time>2026-05-02T19:53:50.999Z</time></trkpt><trkpt lat="48.80591828201745" lon="6.938134398233968"><ele>278.0</ele><time>2026-05-02T19:53:51.999Z</time></trkpt><trkpt lat="48.805848558628306" lon="6.9380377577735"><ele>277.0</ele><time>2026-05-02T19:53:52.999Z</time></trkpt><trkpt lat="48.80578255967962" lon="6.937936566384094"><ele>276.0</ele><time>2026-05-02T19:53:54Z</time></trkpt><trkpt lat="48.80571204650742" lon="6.937828050167145"><ele>275.0</ele><time>2026-05-02T19:53:55Z</time></trkpt><trkpt lat="48.8056464624826" lon="6.937710320967287"><ele>275.0</ele><time>2026-05-02T19:53:56Z</time></trkpt><trkpt lat="48.80557833343909" lon="6.937595315683825"><ele>275.0</ele><time>2026-05-02T19:53:57Z</time></trkpt><trkpt lat="48.80550868348526" lon="6.937484358804818"><ele>275.0</ele><time>2026-05-02T19:53:58Z</time></trkpt><trkpt lat="48.805435176777465" lon="6.937376288602185"><ele>275.0</ele><time>2026-05-02T19:53:59Z</time></trkpt><trkpt lat="48.80536797846727" lon="6.937275388399439"><ele>275.0</ele><time>2026-05-02T19:54:00Z</time></trkpt><trkpt lat="48.80529508491605" lon="6.937176581700237"><ele>275.0</ele><time>2026-05-02T19:54:01Z</time></trkpt><trkpt lat="48.8052293311543" lon="6.937067266347397"><ele>275.0</ele><time>2026-05-02T19:54:02Z</time></trkpt><trkpt lat="48.805163811120735" lon="6.936959514828582"><ele>275.0</ele><time>2026-05-02T19:54:03Z</time></trkpt><trkpt lat="48.80509738882821" lon="6.936849656177891"><ele>275.0</ele><time>2026-05-02T19:54:04Z</time></trkpt><trkpt lat="48.80503494013743" lon="6.936742601399837"><ele>275.0</ele><time>2026-05-02T19:54:05Z</time></trkpt><trkpt lat="48.80496885225448" lon="6.936642027542511"><ele>274.8</ele><time>2026-05-02T19:54:06Z</time></trkpt><trkpt lat="48.80489575504018" lon="6.9365224086271615"><ele>274.6</ele><time>2026-05-02T19:54:07Z</time></trkpt><trkpt lat="48.804828076339454" lon="6.936440287238916"><ele>274.4</ele><time>2026-05-02T19:54:08Z</time></trkpt><trkpt lat="48.804750894036125" lon="6.936339424660649"><ele>274.2</ele><time>2026-05-02T19:54:09Z</time></trkpt><trkpt lat="48.80466928594689" lon="6.936248143784444"><ele>274.0</ele><time>2026-05-02T19:54:10Z</time></trkpt><trkpt lat="48.80459929578163" lon="6.936150258928802"><ele>274.0</ele><time>2026-05-02T19:54:11Z</time></trkpt><trkpt lat="48.80452868356197" lon="6.936059193031344"><ele>274.0</ele><time>2026-05-02T19:54:12Z</time></trkpt><trkpt lat="48.80445311935072" lon="6.935963342919319"><ele>274.0</ele><time>2026-05-02T19:54:13Z</time></trkpt><trkpt lat="48.80437990958632" lon="6.935863435644886"><ele>274.0</ele><time>2026-05-02T19:54:14Z</time></trkpt><trkpt lat="48.80431037602876" lon="6.935765702561056"><ele>274.0</ele><time>2026-05-02T19:54:15Z</time></trkpt><trkpt lat="48.804236447402" lon="6.935677105900962"><ele>274.0</ele><time>2026-05-02T19:54:16Z</time></trkpt><trkpt lat="48.804158361150556" lon="6.935578692735359"><ele>274.0</ele><time>2026-05-02T19:54:17Z</time></trkpt><trkpt lat="48.804089898706735" lon="6.9354804597362625"><ele>274.0</ele><time>2026-05-02T19:54:18Z</time></trkpt><trkpt lat="48.80402859160505" lon="6.935397473843644"><ele>274.0</ele><time>2026-05-02T19:54:19Z</time></trkpt><trkpt lat="48.803968866423354" lon="6.935321662131588"><ele>274.0</ele><time>2026-05-02T19:54:20Z</time></trkpt><trkpt lat="48.80388901143668" lon="6.935228930441729"><ele>274.0</ele><time>2026-05-02T19:54:21Z</time></trkpt><trkpt lat="48.80381730777584" lon="6.935124958739536"><ele>274.0</ele><time>2026-05-02T19:54:22Z</time></trkpt><trkpt lat="48.80374085847868" lon="6.935024381293712"><ele>274.0</ele><time>2026-05-02T19:54:23Z</time></trkpt><trkpt lat="48.80366334512247" lon="6.934918545318094"><ele>274.0</ele><time>2026-05-02T19:54:24Z</time></trkpt><trkpt lat="48.80358838315469" lon="6.934818175994697"><ele>274.0</ele><time>2026-05-02T19:54:25Z</time></trkpt><trkpt lat="48.80350831161419" lon="6.934719618282031"><ele>273.66666666666663</ele><time>2026-05-02T19:54:26Z</time></trkpt><trkpt lat="48.803432853878796" lon="6.9346298040399255"><ele>273.3333333333333</ele><time>2026-05-02T19:54:27Z</time></trkpt><trkpt lat="48.8033645407805" lon="6.934546200296148"><ele>273.0</ele><time>2026-05-02T19:54:28Z</time></trkpt><trkpt lat="48.803287259172876" lon="6.934490773681953"><ele>272.6666666666667</ele><time>2026-05-02T19:54:29Z</time></trkpt><trkpt lat="48.803213149915784" lon="6.934441262677044"><ele>272.33333333333337</ele><time>2026-05-02T19:54:30Z</time></trkpt><trkpt lat="48.80312420600171" lon="6.9344014291513"><ele>272.0</ele><time>2026-05-02T19:54:31Z</time></trkpt><trkpt lat="48.803025457638945" lon="6.934390117751543"><ele>272.0</ele><time>2026-05-02T19:54:32Z</time></trkpt><trkpt lat="48.8029233307896" lon="6.934409567701169"><ele>272.0</ele><time>2026-05-02T19:54:33Z</time></trkpt><trkpt lat="48.802826420954176" lon="6.93440836640869"><ele>272.0</ele><time>2026-05-02T19:54:34Z</time></trkpt><trkpt lat="48.80273685986501" lon="6.9344251958021"><ele>272.0</ele><time>2026-05-02T19:54:35Z</time></trkpt><trkpt lat="48.8026353030033" lon="6.934444418583413"><ele>272.0</ele><time>2026-05-02T19:54:36Z</time></trkpt><trkpt lat="48.802528867744016" lon="6.934465551156244"><ele>271.6</ele><time>2026-05-02T19:54:37Z</time></trkpt><trkpt lat="48.80242544068999" lon="6.9344860864762055"><ele>271.2</ele><time>2026-05-02T19:54:38Z</time></trkpt><trkpt lat="48.80232926215041" lon="6.934529310311265"><ele>270.8</ele><time>2026-05-02T19:54:39Z</time></trkpt><trkpt lat="48.8022312429548" lon="6.93454719746263"><ele>270.4</ele><time>2026-05-02T19:54:40Z</time></trkpt><trkpt lat="48.80213032014829" lon="6.934568721255815"><ele>270.0</ele><time>2026-05-02T19:54:41Z</time></trkpt><trkpt lat="48.802028346399865" lon="6.934583168022582"><ele>270.0</ele><time>2026-05-02T19:54:42Z</time></trkpt><trkpt lat="48.80193118562285" lon="6.9346078371912165"><ele>270.0</ele><time>2026-05-02T19:54:43Z</time></trkpt><trkpt lat="48.801834049288985" lon="6.9346192317247715"><ele>270.0</ele><time>2026-05-02T19:54:44Z</time></trkpt><trkpt lat="48.80173837982981" lon="6.934635201230659"><ele>270.0</ele><time>2026-05-02T19:54:45Z</time></trkpt><trkpt lat="48.801645789283185" lon="6.934651080382311"><ele>270.0</ele><time>2026-05-02T19:54:46Z</time></trkpt><trkpt lat="48.8015497548496" lon="6.934671640142637"><ele>269.8</ele><time>2026-05-02T19:54:47Z</time></trkpt><trkpt lat="48.80144961199025" lon="6.934685961243211"><ele>269.6</ele><time>2026-05-02T19:54:48Z</time></trkpt><trkpt lat="48.80135448785165" lon="6.9347051951706415"><ele>269.4</ele><time>2026-05-02T19:54:49Z</time></trkpt><trkpt lat="48.8012626832614" lon="6.934726053211724"><ele>269.2</ele><time>2026-05-02T19:54:50Z</time></trkpt><trkpt lat="48.8011648607989" lon="6.934741950468866"><ele>269.0</ele><time>2026-05-02T19:54:51Z</time></trkpt><trkpt lat="48.80106471561915" lon="6.934762904382147"><ele>268.59999999999997</ele><time>2026-05-02T19:54:52Z</time></trkpt><trkpt lat="48.80096752673444" lon="6.934781043765697"><ele>268.2</ele><time>2026-05-02T19:54:53Z</time></trkpt><trkpt lat="48.80086810275485" lon="6.934798797702144"><ele>267.79999999999995</ele><time>2026-05-02T19:54:54Z</time></trkpt><trkpt lat="48.80076624543143" lon="6.934813883478173"><ele>267.4</ele><time>2026-05-02T19:54:55Z</time></trkpt><trkpt lat="48.80066361957778" lon="6.934833727096912"><ele>267.0</ele><time>2026-05-02T19:54:56Z</time></trkpt><trkpt lat="48.800571301673095" lon="6.9348529554746206"><ele>267.0</ele><time>2026-05-02T19:54:57Z</time></trkpt><trkpt lat="48.8004759985209" lon="6.9348740534733375"><ele>267.0</ele><time>2026-05-02T19:54:58Z</time></trkpt><trkpt lat="48.80036644678476" lon="6.934895586495774"><ele>267.0</ele><time>2026-05-02T19:54:59Z</time></trkpt><trkpt lat="48.800257711053696" lon="6.934915585603685"><ele>267.0</ele><time>2026-05-02T19:55:00Z</time></trkpt><trkpt lat="48.800156814999475" lon="6.934936008708485"><ele>267.0</ele><time>2026-05-02T19:55:01Z</time></trkpt><trkpt lat="48.800050674054624" lon="6.934953514077744"><ele>266.6</ele><time>2026-05-02T19:55:02Z</time></trkpt><trkpt lat="48.79994674244113" lon="6.934971878115426"><ele>266.2</ele><time>2026-05-02T19:55:03Z</time></trkpt><trkpt lat="48.79984203504994" lon="6.934993989217912"><ele>265.8</ele><time>2026-05-02T19:55:04Z</time></trkpt><trkpt lat="48.79973422639358" lon="6.935017579006021"><ele>265.4</ele><time>2026-05-02T19:55:05Z</time></trkpt><trkpt lat="48.79962780228917" lon="6.935031321491578"><ele>265.0</ele><time>2026-05-02T19:55:06Z</time></trkpt><trkpt lat="48.79952810998553" lon="6.935049266660827"><ele>265.2</ele><time>2026-05-02T19:55:07Z</time></trkpt><trkpt lat="48.79942294913866" lon="6.9350735109713"><ele>265.4</ele><time>2026-05-02T19:55:08Z</time></trkpt><trkpt lat="48.7993177209048" lon="6.935092035131838"><ele>265.6</ele><time>2026-05-02T19:55:09Z</time></trkpt><trkpt lat="48.79921317984285" lon="6.93511228682277"><ele>265.8</ele><time>2026-05-02T19:55:10Z</time></trkpt><trkpt lat="48.799107792039244" lon="6.9351355305816025"><ele>266.0</ele><time>2026-05-02T19:55:11Z</time></trkpt><trkpt lat="48.79899979187493" lon="6.935156672420774"><ele>265.2</ele><time>2026-05-02T19:55:12Z</time></trkpt><trkpt lat="48.798889999486725" lon="6.935174145438059"><ele>264.40000000000003</ele><time>2026-05-02T19:55:13Z</time></trkpt><trkpt lat="48.798782870527866" lon="6.935198767999656"><ele>263.6</ele><time>2026-05-02T19:55:14Z</time></trkpt><trkpt lat="48.798679077297244" lon="6.935213651150038"><ele>262.8</ele><time>2026-05-02T19:55:15Z</time></trkpt><trkpt lat="48.79857609554761" lon="6.935234259392831"><ele>262.0</ele><time>2026-05-02T19:55:16Z</time></trkpt><trkpt lat="48.79847354239192" lon="6.935247501563282"><ele>261.2</ele><time>2026-05-02T19:55:16.999Z</time></trkpt><trkpt lat="48.798378377913224" lon="6.935261354085136"><ele>260.4</ele><time>2026-05-02T19:55:17.999Z</time></trkpt><trkpt lat="48.79828564463797" lon="6.935277922440711"><ele>259.6</ele><time>2026-05-02T19:55:18.999Z</time></trkpt><trkpt lat="48.798193067116294" lon="6.935296191112838"><ele>258.8</ele><time>2026-05-02T19:55:19.999Z</time></trkpt><trkpt lat="48.79809738027141" lon="6.935311336660471"><ele>258.0</ele><time>2026-05-02T19:55:20.999Z</time></trkpt><trkpt lat="48.798007864411105" lon="6.93533200636232"><ele>258.0</ele><time>2026-05-02T19:55:21.999Z</time></trkpt><trkpt lat="48.797923915413676" lon="6.935355142148781"><ele>258.0</ele><time>2026-05-02T19:55:22.999Z</time></trkpt><trkpt lat="48.79783032088981" lon="6.935371043556238"><ele>258.0</ele><time>2026-05-02T19:55:23.999Z</time></trkpt><trkpt lat="48.79774216334778" lon="6.935386978148698"><ele>258.0</ele><time>2026-05-02T19:55:24.999Z</time></trkpt><trkpt lat="48.79764632457488" lon="6.9354028842666935"><ele>258.0</ele><time>2026-05-02T19:55:25.999Z</time></trkpt><trkpt lat="48.79755223653897" lon="6.935421641841959"><ele>257.8</ele><time>2026-05-02T19:55:26.999Z</time></trkpt><trkpt lat="48.797459099664586" lon="6.935438788073133"><ele>257.6</ele><time>2026-05-02T19:55:27.999Z</time></trkpt><trkpt lat="48.79736452686215" lon="6.935457426666652"><ele>257.4</ele><time>2026-05-02T19:55:28.999Z</time></trkpt><trkpt lat="48.79726846255796" lon="6.93547991402482"><ele>257.2</ele><time>2026-05-02T19:55:29.999Z</time></trkpt><trkpt lat="48.797175805509355" lon="6.93549152755144"><ele>257.0</ele><time>2026-05-02T19:55:30.999Z</time></trkpt><trkpt lat="48.7970880080235" lon="6.935508932365166"><ele>257.0</ele><time>2026-05-02T19:55:31.999Z</time></trkpt><trkpt lat="48.796999654271175" lon="6.935527990610813"><ele>257.0</ele><time>2026-05-02T19:55:32.999Z</time></trkpt><trkpt lat="48.796906310894755" lon="6.935546308879457"><ele>257.0</ele><time>2026-05-02T19:55:33.999Z</time></trkpt><trkpt lat="48.79681225790449" lon="6.935562868835219"><ele>257.0</ele><time>2026-05-02T19:55:34.999Z</time></trkpt><trkpt lat="48.79671435612368" lon="6.9355880031255905"><ele>257.0</ele><time>2026-05-02T19:55:35.999Z</time></trkpt><trkpt lat="48.796619313237095" lon="6.935605896851537"><ele>256.4</ele><time>2026-05-02T19:55:36.999Z</time></trkpt><trkpt lat="48.79652772110953" lon="6.935617016134738"><ele>255.79999999999998</ele><time>2026-05-02T19:55:37.999Z</time></trkpt><trkpt lat="48.79643447830617" lon="6.935632425882771"><ele>255.2</ele><time>2026-05-02T19:55:38.999Z</time></trkpt><trkpt lat="48.796337640737704" lon="6.935648765150713"><ele>254.6</ele><time>2026-05-02T19:55:39.999Z</time></trkpt><trkpt lat="48.79623008452979" lon="6.935666433364665"><ele>254.0</ele><time>2026-05-02T19:55:40.999Z</time></trkpt><trkpt lat="48.79612492035389" lon="6.935683880689834"><ele>254.0</ele><time>2026-05-02T19:55:41.999Z</time></trkpt><trkpt lat="48.79601805300131" lon="6.935704374273864"><ele>253.99999999999997</ele><time>2026-05-02T19:55:42.999Z</time></trkpt><trkpt lat="48.795919304316186" lon="6.935728711785008"><ele>253.99999999999997</ele><time>2026-05-02T19:55:43.999Z</time></trkpt><trkpt lat="48.795812504867015" lon="6.935743999440414"><ele>254.0</ele><time>2026-05-02T19:55:44.999Z</time></trkpt><trkpt lat="48.795705249515066" lon="6.935769234595295"><ele>254.0</ele><time>2026-05-02T19:55:45.999Z</time></trkpt><trkpt lat="48.79559261129778" lon="6.935789358984995"><ele>253.79999999999998</ele><time>2026-05-02T19:55:46.999Z</time></trkpt><trkpt lat="48.79549188625264" lon="6.935800530791746"><ele>253.59999999999997</ele><time>2026-05-02T19:55:47.999Z</time></trkpt><trkpt lat="48.79539058373934" lon="6.9358195186811935"><ele>253.4</ele><time>2026-05-02T19:55:48.999Z</time></trkpt><trkpt lat="48.79529238966661" lon="6.935846035876423"><ele>253.2</ele><time>2026-05-02T19:55:49.999Z</time></trkpt><trkpt lat="48.795187507496806" lon="6.93586427113206"><ele>253.0</ele><time>2026-05-02T19:55:50.999Z</time></trkpt><trkpt lat="48.795084884758964" lon="6.93588733536839"><ele>254.4</ele><time>2026-05-02T19:55:51.999Z</time></trkpt><trkpt lat="48.79497982837206" lon="6.935900925543857"><ele>255.8</ele><time>2026-05-02T19:55:52.999Z</time></trkpt><trkpt lat="48.79487150499434" lon="6.935915821179031"><ele>257.2</ele><time>2026-05-02T19:55:53.999Z</time></trkpt><trkpt lat="48.794770459154115" lon="6.935931799720423"><ele>258.6</ele><time>2026-05-02T19:55:54.999Z</time></trkpt><trkpt lat="48.794667209355495" lon="6.935959024116736"><ele>260.0</ele><time>2026-05-02T19:55:55.999Z</time></trkpt><trkpt lat="48.794567927627966" lon="6.93598443804786"><ele>260.0</ele><time>2026-05-02T19:55:56.999Z</time></trkpt><trkpt lat="48.79446894883117" lon="6.93600201662296"><ele>260.0</ele><time>2026-05-02T19:55:57.999Z</time></trkpt><trkpt lat="48.794372241734585" lon="6.936017346990054"><ele>260.0</ele><time>2026-05-02T19:55:58.999Z</time></trkpt><trkpt lat="48.794274189776544" lon="6.936031644595715"><ele>260.0</ele><time>2026-05-02T19:56:00Z</time></trkpt><trkpt lat="48.794177250093824" lon="6.936057829820857"><ele>260.0</ele><time>2026-05-02T19:56:01Z</time></trkpt><trkpt lat="48.79407912390856" lon="6.9360748213869"><ele>260.4</ele><time>2026-05-02T19:56:02Z</time></trkpt><trkpt lat="48.79397963026347" lon="6.936097066179111"><ele>260.8</ele><time>2026-05-02T19:56:03Z</time></trkpt><trkpt lat="48.793871847500704" lon="6.936115763584171"><ele>261.2</ele><time>2026-05-02T19:56:04Z</time></trkpt><trkpt lat="48.79377079527484" lon="6.936135904442492"><ele>261.6</ele><time>2026-05-02T19:56:05Z</time></trkpt><trkpt lat="48.793664263791534" lon="6.93614983379947"><ele>262.0</ele><time>2026-05-02T19:56:06Z</time></trkpt><trkpt lat="48.79355639919065" lon="6.936173008116763"><ele>262.8</ele><time>2026-05-02T19:56:07Z</time></trkpt><trkpt lat="48.79345052544994" lon="6.936193996749536"><ele>263.6</ele><time>2026-05-02T19:56:08Z</time></trkpt><trkpt lat="48.79334906248311" lon="6.9362216886594625"><ele>264.40000000000003</ele><time>2026-05-02T19:56:09Z</time></trkpt><trkpt lat="48.793248553979794" lon="6.936237570860125"><ele>265.2</ele><time>2026-05-02T19:56:10Z</time></trkpt><trkpt lat="48.793148599943144" lon="6.936254712652816"><ele>266.0</ele><time>2026-05-02T19:56:11Z</time></trkpt><trkpt lat="48.793041343067294" lon="6.93626992944983"><ele>266.0</ele><time>2026-05-02T19:56:12Z</time></trkpt><trkpt lat="48.79293984500856" lon="6.936283916609218"><ele>266.0</ele><time>2026-05-02T19:56:13Z</time></trkpt><trkpt lat="48.79284625204524" lon="6.936305691533561"><ele>266.0</ele><time>2026-05-02T19:56:14Z</time></trkpt><trkpt lat="48.79275353764326" lon="6.936318163778481"><ele>266.0</ele><time>2026-05-02T19:56:15Z</time></trkpt><trkpt lat="48.79265968805764" lon="6.936324069675529"><ele>266.0</ele><time>2026-05-02T19:56:16Z</time></trkpt><trkpt lat="48.79257396727599" lon="6.9363266887718265"><ele>265.6</ele><time>2026-05-02T19:56:17Z</time></trkpt><trkpt lat="48.792486440582074" lon="6.9363416315348845"><ele>265.20000000000005</ele><time>2026-05-02T19:56:18Z</time></trkpt><trkpt lat="48.792411780032914" lon="6.936504946678675"><ele>264.79999999999995</ele><time>2026-05-02T19:56:19Z</time></trkpt><trkpt lat="48.79232351701921" lon="6.936551391383545"><ele>264.4</ele><time>2026-05-02T19:56:20Z</time></trkpt><trkpt lat="48.792253719891605" lon="6.936636073909696"><ele>264.0</ele><time>2026-05-02T19:56:21Z</time></trkpt><trkpt lat="48.79217417858689" lon="6.936699320922353"><ele>264.59999999999997</ele><time>2026-05-02T19:56:22Z</time></trkpt><trkpt lat="48.79209791301477" lon="6.9367647269064285"><ele>265.2</ele><time>2026-05-02T19:56:23Z</time></trkpt><trkpt lat="48.792017250985545" lon="6.936821757164079"><ele>265.79999999999995</ele><time>2026-05-02T19:56:24Z</time></trkpt><trkpt lat="48.79192051430269" lon="6.936837936161407"><ele>266.4</ele><time>2026-05-02T19:56:25Z</time></trkpt><trkpt lat="48.79182876596193" lon="6.9368900979030625"><ele>267.0</ele><time>2026-05-02T19:56:26Z</time></trkpt><trkpt lat="48.79173974222425" lon="6.936915274510833"><ele>267.2</ele><time>2026-05-02T19:56:27Z</time></trkpt><trkpt lat="48.791649324162435" lon="6.9369367113827485"><ele>267.4</ele><time>2026-05-02T19:56:28Z</time></trkpt><trkpt lat="48.7915623729213" lon="6.936964465062709"><ele>267.6</ele><time>2026-05-02T19:56:29Z</time></trkpt><trkpt lat="48.79147972647391" lon="6.936997614044257"><ele>267.8</ele><time>2026-05-02T19:56:30Z</time></trkpt><trkpt lat="48.79137899457804" lon="6.9370320839833175"><ele>268.0</ele><time>2026-05-02T19:56:31Z</time></trkpt><trkpt lat="48.79129090955095" lon="6.937119098884616"><ele>268.0</ele><time>2026-05-02T19:56:32Z</time></trkpt><trkpt lat="48.79121451077796" lon="6.937226026048744"><ele>268.0</ele><time>2026-05-02T19:56:33Z</time></trkpt><trkpt lat="48.79112871245285" lon="6.937347204585616"><ele>268.0</ele><time>2026-05-02T19:56:34Z</time></trkpt><trkpt lat="48.79105022502732" lon="6.937460312567851"><ele>268.0</ele><time>2026-05-02T19:56:35Z</time></trkpt><trkpt lat="48.79097419604925" lon="6.937570071345139"><ele>268.0</ele><time>2026-05-02T19:56:36Z</time></trkpt><trkpt lat="48.790900781134425" lon="6.937676056382745"><ele>269.0</ele><time>2026-05-02T19:56:37Z</time></trkpt><trkpt lat="48.790822864678624" lon="6.937789958853046"><ele>270.0</ele><time>2026-05-02T19:56:38Z</time></trkpt><trkpt lat="48.79074451245925" lon="6.937904802882849"><ele>271.0</ele><time>2026-05-02T19:56:39Z</time></trkpt><trkpt lat="48.79067954336861" lon="6.9380337687085625"><ele>272.0</ele><time>2026-05-02T19:56:40Z</time></trkpt><trkpt lat="48.79060057438697" lon="6.938140524189709"><ele>273.0</ele><time>2026-05-02T19:56:41Z</time></trkpt><trkpt lat="48.790527012409065" lon="6.938252769399596"><ele>273.0</ele><time>2026-05-02T19:56:42Z</time></trkpt><trkpt lat="48.790456793503694" lon="6.938356598907662"><ele>273.0</ele><time>2026-05-02T19:56:43Z</time></trkpt><trkpt lat="48.79037411588502" lon="6.938465574012049"><ele>273.0</ele><time>2026-05-02T19:56:44Z</time></trkpt><trkpt lat="48.790305093144504" lon="6.938579151132907"><ele>273.0</ele><time>2026-05-02T19:56:45Z</time></trkpt><trkpt lat="48.790228465237725" lon="6.938693230299127"><ele>273.0</ele><time>2026-05-02T19:56:46Z</time></trkpt><trkpt lat="48.79015571906661" lon="6.9388120387309025"><ele>273.6</ele><time>2026-05-02T19:56:47Z</time></trkpt><trkpt lat="48.79008927793712" lon="6.93892278419013"><ele>274.20000000000005</ele><time>2026-05-02T19:56:48Z</time></trkpt><trkpt lat="48.79001800768799" lon="6.939044575590581"><ele>274.8</ele><time>2026-05-02T19:56:49Z</time></trkpt><trkpt lat="48.78995048796537" lon="6.93915961303385"><ele>275.40000000000003</ele><time>2026-05-02T19:56:50Z</time></trkpt><trkpt lat="48.78987961827762" lon="6.939276726063096"><ele>276.0</ele><time>2026-05-02T19:56:51Z</time></trkpt><trkpt lat="48.78981424343976" lon="6.93939105098052"><ele>276.6666666666667</ele><time>2026-05-02T19:56:52Z</time></trkpt><trkpt lat="48.78974583509001" lon="6.939502226611335"><ele>277.3333333333333</ele><time>2026-05-02T19:56:53Z</time></trkpt><trkpt lat="48.789684607815346" lon="6.939607376275765"><ele>278.0</ele><time>2026-05-02T19:56:54Z</time></trkpt><trkpt lat="48.78962587262124" lon="6.939700208572008"><ele>278.66666666666663</ele><time>2026-05-02T19:56:55Z</time></trkpt><trkpt lat="48.78958430452909" lon="6.939774991167593"><ele>279.3333333333333</ele><time>2026-05-02T19:56:56Z</time></trkpt><trkpt lat="48.78951052327249" lon="6.939866715370642"><ele>280.0</ele><time>2026-05-02T19:56:58Z</time></trkpt><trkpt lat="48.78942980495567" lon="6.939887131150482"><ele>280.0</ele><time>2026-05-02T19:57:00Z</time></trkpt><trkpt lat="48.789345773032906" lon="6.93987085392011"><ele>280.0</ele><time>2026-05-02T19:57:02Z</time></trkpt><trkpt lat="48.78928448676313" lon="6.939733677325047"><ele>280.0</ele><time>2026-05-02T19:57:04Z</time></trkpt><trkpt lat="48.789247752301506" lon="6.939647973797226"><ele>280.0</ele><time>2026-05-02T19:57:05Z</time></trkpt><trkpt lat="48.78920071220407" lon="6.939550694017653"><ele>280.0</ele><time>2026-05-02T19:57:06Z</time></trkpt><trkpt lat="48.789149525381326" lon="6.939469020709846"><ele>280.0</ele><time>2026-05-02T19:57:07Z</time></trkpt><trkpt lat="48.78910412726111" lon="6.939375268847065"><ele>280.16666666666663</ele><time>2026-05-02T19:57:08Z</time></trkpt><trkpt lat="48.78905927862264" lon="6.939293208576864"><ele>280.3333333333333</ele><time>2026-05-02T19:57:09Z</time></trkpt><trkpt lat="48.78900572628031" lon="6.93921546568734"><ele>280.5</ele><time>2026-05-02T19:57:10Z</time></trkpt><trkpt lat="48.788942145140155" lon="6.939123183728036"><ele>280.6666666666667</ele><time>2026-05-02T19:57:11Z</time></trkpt><trkpt lat="48.788881889865905" lon="6.939028667184258"><ele>280.83333333333337</ele><time>2026-05-02T19:57:12Z</time></trkpt><trkpt lat="48.788820093678716" lon="6.938935000716466"><ele>281.0</ele><time>2026-05-02T19:57:13Z</time></trkpt><trkpt lat="48.788759510119135" lon="6.9388280505464515"><ele>281.0</ele><time>2026-05-02T19:57:14Z</time></trkpt><trkpt lat="48.78870465603544" lon="6.938724607905922"><ele>281.0</ele><time>2026-05-02T19:57:15Z</time></trkpt><trkpt lat="48.788651052225596" lon="6.938610085680181"><ele>281.0</ele><time>2026-05-02T19:57:16Z</time></trkpt><trkpt lat="48.78860055757792" lon="6.938496315879363"><ele>281.0</ele><time>2026-05-02T19:57:17Z</time></trkpt><trkpt lat="48.78854991898993" lon="6.938388998986703"><ele>281.0</ele><time>2026-05-02T19:57:18Z</time></trkpt><trkpt lat="48.78849515099767" lon="6.938277262853429"><ele>281.0</ele><time>2026-05-02T19:57:19Z</time></trkpt><trkpt lat="48.78844188448049" lon="6.9381648579125414"><ele>281.0</ele><time>2026-05-02T19:57:20Z</time></trkpt><trkpt lat="48.78838707438973" lon="6.938059566514106"><ele>281.0</ele><time>2026-05-02T19:57:21Z</time></trkpt><trkpt lat="48.78833664966394" lon="6.937939741625814"><ele>281.0</ele><time>2026-05-02T19:57:22Z</time></trkpt><trkpt lat="48.78828898766984" lon="6.937818245130735"><ele>281.0</ele><time>2026-05-02T19:57:23Z</time></trkpt><trkpt lat="48.78823386996871" lon="6.937724921537228"><ele>281.0</ele><time>2026-05-02T19:57:24Z</time></trkpt><trkpt lat="48.788183343330815" lon="6.937625428879209"><ele>281.0</ele><time>2026-05-02T19:57:24.999Z</time></trkpt><trkpt lat="48.78814458514031" lon="6.93752853288359"><ele>280.33333333333337</ele><time>2026-05-02T19:57:25.999Z</time></trkpt><trkpt lat="48.7881035382103" lon="6.9374421650888305"><ele>279.6666666666667</ele><time>2026-05-02T19:57:26.999Z</time></trkpt><trkpt lat="48.7880825085239" lon="6.9373394119545875"><ele>279.0</ele><time>2026-05-02T19:57:27.999Z</time></trkpt><trkpt lat="48.78805986281131" lon="6.937236588787547"><ele>278.3333333333333</ele><time>2026-05-02T19:57:28.999Z</time></trkpt><trkpt lat="48.78804351080775" lon="6.937131883571465"><ele>277.66666666666663</ele><time>2026-05-02T19:57:29.999Z</time></trkpt><trkpt lat="48.78789707246051" lon="6.937080116086625"><ele>277.0</ele><time>2026-05-02T19:57:30.999Z</time></trkpt><trkpt lat="48.78781665870493" lon="6.937018648147159"><ele>277.0</ele><time>2026-05-02T19:57:31.999Z</time></trkpt><trkpt lat="48.78773128521407" lon="6.936959858174376"><ele>277.0</ele><time>2026-05-02T19:57:32.999Z</time></trkpt><trkpt lat="48.787653344911746" lon="6.936904880154857"><ele>277.0</ele><time>2026-05-02T19:57:33.999Z</time></trkpt><trkpt lat="48.7875742789302" lon="6.936848907209837"><ele>277.0</ele><time>2026-05-02T19:57:34.999Z</time></trkpt><trkpt lat="48.7875064046277" lon="6.93677145154592"><ele>277.0</ele><time>2026-05-02T19:57:35.999Z</time></trkpt><trkpt lat="48.78742171361916" lon="6.936737174016846"><ele>277.0</ele><time>2026-05-02T19:57:36.999Z</time></trkpt><trkpt lat="48.78734863553465" lon="6.936679626939107"><ele>276.3333333333333</ele><time>2026-05-02T19:57:37.999Z</time></trkpt><trkpt lat="48.787273476325694" lon="6.936625148141002"><ele>275.66666666666663</ele><time>2026-05-02T19:57:38.999Z</time></trkpt><trkpt lat="48.78719941691108" lon="6.936572393560391"><ele>275.0</ele><time>2026-05-02T19:57:39.999Z</time></trkpt><trkpt lat="48.787127104034255" lon="6.9365140416033775"><ele>274.3333333333333</ele><time>2026-05-02T19:57:40.999Z</time></trkpt><trkpt lat="48.78704962136145" lon="6.936459883307927"><ele>273.6666666666667</ele><time>2026-05-02T19:57:41.999Z</time></trkpt><trkpt lat="48.78698042322828" lon="6.936383657389566"><ele>273.0</ele><time>2026-05-02T19:57:42.999Z</time></trkpt><trkpt lat="48.78690478664529" lon="6.93632719894587"><ele>274.8333333333333</ele><time>2026-05-02T19:57:43.999Z</time></trkpt><trkpt lat="48.7868251112291" lon="6.936295535587973"><ele>276.6666666666667</ele><time>2026-05-02T19:57:44.999Z</time></trkpt><trkpt lat="48.78675827773352" lon="6.936222696723762"><ele>278.5</ele><time>2026-05-02T19:57:45.999Z</time></trkpt><trkpt lat="48.786687995197155" lon="6.936172784178009"><ele>280.33333333333337</ele><time>2026-05-02T19:57:46.999Z</time></trkpt><trkpt lat="48.786618669743746" lon="6.936122042558171"><ele>282.1666666666667</ele><time>2026-05-02T19:57:47.999Z</time></trkpt><trkpt lat="48.786542307541744" lon="6.9360911468768505"><ele>284.0</ele><time>2026-05-02T19:57:48.999Z</time></trkpt><trkpt lat="48.786469649719216" lon="6.936030758658038"><ele>284.0</ele><time>2026-05-02T19:57:49.999Z</time></trkpt><trkpt lat="48.786391108092964" lon="6.935969746766596"><ele>284.0</ele><time>2026-05-02T19:57:50.999Z</time></trkpt><trkpt lat="48.78632698340076" lon="6.935886850072554"><ele>284.0</ele><time>2026-05-02T19:57:51.999Z</time></trkpt><trkpt lat="48.786255331594354" lon="6.935826388812471"><ele>284.0</ele><time>2026-05-02T19:57:52.999Z</time></trkpt><trkpt lat="48.786176537251066" lon="6.935759060548059"><ele>284.0</ele><time>2026-05-02T19:57:53.999Z</time></trkpt><trkpt lat="48.786087807149215" lon="6.935711835902295"><ele>284.0</ele><time>2026-05-02T19:57:54.999Z</time></trkpt><trkpt lat="48.78600586292521" lon="6.935634086904392"><ele>283.4</ele><time>2026-05-02T19:57:55.999Z</time></trkpt><trkpt lat="48.785923700651814" lon="6.935541452167979"><ele>282.79999999999995</ele><time>2026-05-02T19:57:56.999Z</time></trkpt><trkpt lat="48.785834518066906" lon="6.935481540349126"><ele>282.20000000000005</ele><time>2026-05-02T19:57:57.999Z</time></trkpt><trkpt lat="48.785747392781744" lon="6.935417589438415"><ele>281.6</ele><time>2026-05-02T19:57:58.999Z</time></trkpt><trkpt lat="48.78566164525199" lon="6.935346290648716"><ele>281.0</ele><time>2026-05-02T19:57:59.999Z</time></trkpt><trkpt lat="48.78557246615606" lon="6.93529059617268"><ele>281.0</ele><time>2026-05-02T19:58:00.999Z</time></trkpt><trkpt lat="48.78547511126702" lon="6.935232171471577"><ele>281.0</ele><time>2026-05-02T19:58:01.999Z</time></trkpt><trkpt lat="48.78538479745485" lon="6.93517938861147"><ele>281.0</ele><time>2026-05-02T19:58:02.999Z</time></trkpt><trkpt lat="48.78529985367069" lon="6.935104625088744"><ele>281.0</ele><time>2026-05-02T19:58:03.999Z</time></trkpt><trkpt lat="48.785219711321936" lon="6.935056090398253"><ele>281.0</ele><time>2026-05-02T19:58:04.999Z</time></trkpt><trkpt lat="48.785129434754836" lon="6.935028497189466"><ele>279.33333333333337</ele><time>2026-05-02T19:58:06Z</time></trkpt><trkpt lat="48.785049639601056" lon="6.934954266285646"><ele>277.6666666666667</ele><time>2026-05-02T19:58:07Z</time></trkpt><trkpt lat="48.78495658542851" lon="6.9348990780953725"><ele>276.0</ele><time>2026-05-02T19:58:08Z</time></trkpt><trkpt lat="48.78486383877785" lon="6.934873591936646"><ele>274.3333333333333</ele><time>2026-05-02T19:58:09Z</time></trkpt><trkpt lat="48.78479146523769" lon="6.934823828020919"><ele>272.66666666666663</ele><time>2026-05-02T19:58:10Z</time></trkpt><trkpt lat="48.78471649504015" lon="6.9347932876727105"><ele>271.0</ele><time>2026-05-02T19:58:11Z</time></trkpt><trkpt lat="48.784651751780395" lon="6.934765456680719"><ele>271.0</ele><time>2026-05-02T19:58:12Z</time></trkpt><trkpt lat="48.78458322021639" lon="6.934739178905842"><ele>271.0</ele><time>2026-05-02T19:58:13Z</time></trkpt><trkpt lat="48.7845212215142" lon="6.9347041120454715"><ele>271.0</ele><time>2026-05-02T19:58:14Z</time></trkpt><trkpt lat="48.78446495312375" lon="6.934638668405664"><ele>271.0</ele><time>2026-05-02T19:58:16Z</time></trkpt><trkpt lat="48.7845124785373" lon="6.934417288269116"><ele>271.0</ele><time>2026-05-02T19:58:38Z</time></trkpt><trkpt lat="48.78456522018067" lon="6.934349696310007"><ele>271.0</ele><time>2026-05-02T19:58:39Z</time></trkpt><trkpt lat="48.784619671278485" lon="6.934251332876315"><ele>270.2</ele><time>2026-05-02T19:58:40Z</time></trkpt><trkpt lat="48.78466950181306" lon="6.934133699336056"><ele>269.40000000000003</ele><time>2026-05-02T19:58:41Z</time></trkpt><trkpt lat="48.78470306018667" lon="6.93401564135919"><ele>268.6</ele><time>2026-05-02T19:58:42Z</time></trkpt><trkpt lat="48.78474187351967" lon="6.933883844813478"><ele>267.8</ele><time>2026-05-02T19:58:43Z</time></trkpt><trkpt lat="48.78477722831084" lon="6.933738532410205"><ele>267.0</ele><time>2026-05-02T19:58:44Z</time></trkpt><trkpt lat="48.78480353339926" lon="6.933572979471499"><ele>267.0</ele><time>2026-05-02T19:58:45Z</time></trkpt><trkpt lat="48.78482354172072" lon="6.933385837298843"><ele>267.0</ele><time>2026-05-02T19:58:46Z</time></trkpt><trkpt lat="48.784830445456286" lon="6.933216228059003"><ele>267.0</ele><time>2026-05-02T19:58:47Z</time></trkpt><trkpt lat="48.784833950656584" lon="6.933055408501039"><ele>267.0</ele><time>2026-05-02T19:58:48Z</time></trkpt><trkpt lat="48.78483816133581" lon="6.932883341754048"><ele>267.0</ele><time>2026-05-02T19:58:49Z</time></trkpt><trkpt lat="48.784843445068255" lon="6.932725324985378"><ele>267.0</ele><time>2026-05-02T19:58:50Z</time></trkpt><trkpt lat="48.78484834546313" lon="6.932573164639807"><ele>267.0</ele><time>2026-05-02T19:58:51Z</time></trkpt><trkpt lat="48.78485093278043" lon="6.932432029057517"><ele>267.0</ele><time>2026-05-02T19:58:52Z</time></trkpt><trkpt lat="48.784853950996684" lon="6.9323052785559875"><ele>267.0</ele><time>2026-05-02T19:58:53Z</time></trkpt><trkpt lat="48.78485446533101" lon="6.932201454442597"><ele>266.8</ele><time>2026-05-02T19:58:54Z</time></trkpt><trkpt lat="48.784860793912344" lon="6.9320866069729785"><ele>266.6</ele><time>2026-05-02T19:58:56Z</time></trkpt><trkpt lat="48.78470710215939" lon="6.932029509658712"><ele>266.40000000000003</ele><time>2026-05-02T19:58:58Z</time></trkpt><trkpt lat="48.78457955748393" lon="6.932052532249123"><ele>266.2</ele><time>2026-05-02T19:59:00Z</time></trkpt><trkpt lat="48.784496044096585" lon="6.9320526743107616"><ele>266.0</ele><time>2026-05-02T19:59:01Z</time></trkpt><trkpt lat="48.78442439592691" lon="6.9320506603081435"><ele>266.0</ele><time>2026-05-02T19:59:02Z</time></trkpt><trkpt lat="48.78435762903404" lon="6.932051041634169"><ele>266.0</ele><time>2026-05-02T19:59:03Z</time></trkpt><trkpt lat="48.784287906490654" lon="6.9320523880141405"><ele>266.0</ele><time>2026-05-02T19:59:04Z</time></trkpt><trkpt lat="48.78421565332075" lon="6.932053783263375"><ele>266.0</ele><time>2026-05-02T19:59:05Z</time></trkpt><trkpt lat="48.78409432683673" lon="6.932056126151383"><ele>266.0</ele><time>2026-05-02T19:59:07Z</time></trkpt><trkpt lat="48.78399216488604" lon="6.9320580989539495"><ele>266.0</ele><time>2026-05-02T19:59:09Z</time></trkpt><trkpt lat="48.783919105435636" lon="6.932059509776227"><ele>265.6666666666667</ele><time>2026-05-02T19:59:11Z</time></trkpt><trkpt lat="48.78385506242432" lon="6.932060746482881"><ele>265.33333333333337</ele><time>2026-05-02T19:59:15Z</time></trkpt><trkpt lat="48.783779692943135" lon="6.932062202007004"><ele>265.0</ele><time>2026-05-02T19:59:54.999Z</time></trkpt><trkpt lat="48.78369284715235" lon="6.932063879164622"><ele>264.6666666666667</ele><time>2026-05-02T19:59:57.999Z</time></trkpt><trkpt lat="48.78361296481144" lon="6.932064330874796"><ele>264.3333333333333</ele><time>2026-05-02T19:59:59.999Z</time></trkpt><trkpt lat="48.78352404392335" lon="6.932069634947835"><ele>264.0</ele><time>2026-05-02T20:00:01.999Z</time></trkpt><trkpt lat="48.783443049257315" lon="6.932089887459298"><ele>263.59999999999997</ele><time>2026-05-02T20:00:03.999Z</time></trkpt><trkpt lat="48.78336504016169" lon="6.932130298240579"><ele>263.2</ele><time>2026-05-02T20:00:05.999Z</time></trkpt><trkpt lat="48.78327493649276" lon="6.93215362525884"><ele>262.79999999999995</ele><time>2026-05-02T20:00:07.999Z</time></trkpt><trkpt lat="48.78317600925752" lon="6.932152119613339"><ele>262.4</ele><time>2026-05-02T20:00:09.999Z</time></trkpt><trkpt lat="48.783074399494076" lon="6.932142487899296"><ele>262.0</ele><time>2026-05-02T20:00:12Z</time></trkpt><trkpt lat="48.78297091202755" lon="6.932136353570098"><ele>262.0</ele><time>2026-05-02T20:00:14Z</time></trkpt><trkpt lat="48.78286631660268" lon="6.932124543458579"><ele>262.0</ele><time>2026-05-02T20:00:16Z</time></trkpt><trkpt lat="48.78276836738404" lon="6.932111618671058"><ele>262.0</ele><time>2026-05-02T20:00:18Z</time></trkpt><trkpt lat="48.78266601876442" lon="6.932106225104807"><ele>262.0</ele><time>2026-05-02T20:00:20Z</time></trkpt><trkpt lat="48.78256791596297" lon="6.932131948291704"><ele>262.0</ele><time>2026-05-02T20:00:22Z</time></trkpt><trkpt lat="48.78247021674274" lon="6.932176633580587"><ele>262.0</ele><time>2026-05-02T20:00:24Z</time></trkpt><trkpt lat="48.7823754369628" lon="6.932238335237799"><ele>262.0</ele><time>2026-05-02T20:00:26Z</time></trkpt><trkpt lat="48.78228306488517" lon="6.932290377248316"><ele>262.0</ele><time>2026-05-02T20:00:28Z</time></trkpt><trkpt lat="48.7821784282556" lon="6.932346896458621"><ele>262.0</ele><time>2026-05-02T20:00:30Z</time></trkpt><trkpt lat="48.78206896510558" lon="6.93239229962467"><ele>262.0</ele><time>2026-05-02T20:00:32Z</time></trkpt><trkpt lat="48.78196405709039" lon="6.932436090166765"><ele>262.0</ele><time>2026-05-02T20:00:34Z</time></trkpt><trkpt lat="48.7818694526076" lon="6.932474745205194"><ele>262.0</ele><time>2026-05-02T20:00:36Z</time></trkpt><trkpt lat="48.781769653593834" lon="6.932516058782021"><ele>262.0</ele><time>2026-05-02T20:00:38Z</time></trkpt><trkpt lat="48.78166701647472" lon="6.932560453325499"><ele>262.0</ele><time>2026-05-02T20:00:40Z</time></trkpt><trkpt lat="48.78156513418334" lon="6.932594992532029"><ele>262.0</ele><time>2026-05-02T20:00:42Z</time></trkpt><trkpt lat="48.781454739609416" lon="6.932609489037767"><ele>262.6</ele><time>2026-05-02T20:00:44Z</time></trkpt><trkpt lat="48.781350676850614" lon="6.932603723853504"><ele>263.2</ele><time>2026-05-02T20:00:46Z</time></trkpt><trkpt lat="48.78125237267843" lon="6.932592837263924"><ele>263.8</ele><time>2026-05-02T20:00:48Z</time></trkpt><trkpt lat="48.78115815115525" lon="6.932584252380169"><ele>264.4</ele><time>2026-05-02T20:00:50Z</time></trkpt><trkpt lat="48.78105291036195" lon="6.932574758583583"><ele>265.0</ele><time>2026-05-02T20:00:52Z</time></trkpt><trkpt lat="48.7809626077578" lon="6.9325732459013985"><ele>265.0</ele><time>2026-05-02T20:00:54Z</time></trkpt><trkpt lat="48.780862688441516" lon="6.932560727178979"><ele>265.0</ele><time>2026-05-02T20:00:56Z</time></trkpt><trkpt lat="48.78077555741141" lon="6.932559017118165"><ele>265.0</ele><time>2026-05-02T20:00:58Z</time></trkpt><trkpt lat="48.78067770065949" lon="6.93254520037454"><ele>265.0</ele><time>2026-05-02T20:01:00Z</time></trkpt><trkpt lat="48.78056934002404" lon="6.932538769368209"><ele>265.0</ele><time>2026-05-02T20:01:02Z</time></trkpt><trkpt lat="48.7804763840304" lon="6.932533475061793"><ele>265.0</ele><time>2026-05-02T20:01:04Z</time></trkpt><trkpt lat="48.780368436744524" lon="6.93252353372816"><ele>265.0</ele><time>2026-05-02T20:01:06Z</time></trkpt><trkpt lat="48.78026061154906" lon="6.932517258924946"><ele>265.0</ele><time>2026-05-02T20:01:08Z</time></trkpt><trkpt lat="48.78015484558086" lon="6.932505965689524"><ele>265.0</ele><time>2026-05-02T20:01:10Z</time></trkpt><trkpt lat="48.780055451705785" lon="6.9324946241065515"><ele>265.0</ele><time>2026-05-02T20:01:12Z</time></trkpt><trkpt lat="48.77995050270397" lon="6.932490394944466"><ele>265.2</ele><time>2026-05-02T20:01:14Z</time></trkpt><trkpt lat="48.77985213301538" lon="6.932479391985159"><ele>265.4</ele><time>2026-05-02T20:01:16Z</time></trkpt><trkpt lat="48.77974372476796" lon="6.9324728628363355"><ele>265.6</ele><time>2026-05-02T20:01:18Z</time></trkpt><trkpt lat="48.779630767873655" lon="6.932463970721295"><ele>265.8</ele><time>2026-05-02T20:01:20Z</time></trkpt><trkpt lat="48.77952226577831" lon="6.93245104408929"><ele>266.0</ele><time>2026-05-02T20:01:22Z</time></trkpt><trkpt lat="48.77942199202087" lon="6.932447166012528"><ele>266.0</ele><time>2026-05-02T20:01:24Z</time></trkpt><trkpt lat="48.77930234368675" lon="6.932437474012866"><ele>266.0</ele><time>2026-05-02T20:01:26Z</time></trkpt><trkpt lat="48.77919669617914" lon="6.932426417415494"><ele>266.0</ele><time>2026-05-02T20:01:28Z</time></trkpt><trkpt lat="48.779087225972916" lon="6.932419080254578"><ele>266.0</ele><time>2026-05-02T20:01:30Z</time></trkpt><trkpt lat="48.77897896720128" lon="6.93240951611719"><ele>266.0</ele><time>2026-05-02T20:01:32Z</time></trkpt><trkpt lat="48.77886502976296" lon="6.93240532083569"><ele>266.0</ele><time>2026-05-02T20:01:34Z</time></trkpt><trkpt lat="48.778745838550435" lon="6.932389879887778"><ele>266.0</ele><time>2026-05-02T20:01:35.999Z</time></trkpt><trkpt lat="48.77864378427194" lon="6.932381910361321"><ele>266.0</ele><time>2026-05-02T20:01:37.999Z</time></trkpt><trkpt lat="48.77853736125801" lon="6.932376162588262"><ele>266.0</ele><time>2026-05-02T20:01:39.999Z</time></trkpt><trkpt lat="48.778424455281844" lon="6.932376648611561"><ele>266.0</ele><time>2026-05-02T20:01:41.999Z</time></trkpt><trkpt lat="48.7783200138615" lon="6.932360740917893"><ele>265.2</ele><time>2026-05-02T20:01:43.999Z</time></trkpt><trkpt lat="48.778215763242216" lon="6.932353740226948"><ele>264.40000000000003</ele><time>2026-05-02T20:01:45.999Z</time></trkpt><trkpt lat="48.77810586619669" lon="6.932342182703766"><ele>263.6</ele><time>2026-05-02T20:01:47.999Z</time></trkpt><trkpt lat="48.77799845890515" lon="6.9323339622061555"><ele>262.8</ele><time>2026-05-02T20:01:49.999Z</time></trkpt><trkpt lat="48.77788371575292" lon="6.932324514822404"><ele>262.0</ele><time>2026-05-02T20:01:51.999Z</time></trkpt><trkpt lat="48.77778181997472" lon="6.932314778529014"><ele>262.2</ele><time>2026-05-02T20:01:53.999Z</time></trkpt><trkpt lat="48.777677662504935" lon="6.9323069993461335"><ele>262.4</ele><time>2026-05-02T20:01:55.999Z</time></trkpt><trkpt lat="48.7775777024934" lon="6.932296075032602"><ele>262.6</ele><time>2026-05-02T20:01:57.999Z</time></trkpt><trkpt lat="48.77746085031238" lon="6.932292921857149"><ele>262.8</ele><time>2026-05-02T20:01:59.999Z</time></trkpt><trkpt lat="48.777365127626844" lon="6.932280855729573"><ele>263.0</ele><time>2026-05-02T20:02:01.999Z</time></trkpt><trkpt lat="48.777257179188815" lon="6.93227103640045"><ele>263.0</ele><time>2026-05-02T20:02:03.999Z</time></trkpt><trkpt lat="48.777144166755036" lon="6.932264017050517"><ele>263.0</ele><time>2026-05-02T20:02:05.999Z</time></trkpt><trkpt lat="48.77703953432915" lon="6.9322567360983545"><ele>263.0</ele><time>2026-05-02T20:02:07.999Z</time></trkpt><trkpt lat="48.77694213800516" lon="6.9322529165391344"><ele>263.0</ele><time>2026-05-02T20:02:09.999Z</time></trkpt><trkpt lat="48.77683875899807" lon="6.932251173806017"><ele>263.0</ele><time>2026-05-02T20:02:11.999Z</time></trkpt><trkpt lat="48.776727333560224" lon="6.932242988804134"><ele>263.2</ele><time>2026-05-02T20:02:13.999Z</time></trkpt><trkpt lat="48.776622999165234" lon="6.932232680629111"><ele>263.4</ele><time>2026-05-02T20:02:15.999Z</time></trkpt><trkpt lat="48.776517411134506" lon="6.9322244194388025"><ele>263.59999999999997</ele><time>2026-05-02T20:02:18Z</time></trkpt><trkpt lat="48.77641322774933" lon="6.932214354938719"><ele>263.8</ele><time>2026-05-02T20:02:20Z</time></trkpt><trkpt lat="48.77631242979805" lon="6.932203229137842"><ele>264.0</ele><time>2026-05-02T20:02:22Z</time></trkpt><trkpt lat="48.77620373938" lon="6.932192784638053"><ele>264.0</ele><time>2026-05-02T20:02:24Z</time></trkpt><trkpt lat="48.77610754677901" lon="6.932187835153289"><ele>264.0</ele><time>2026-05-02T20:02:26Z</time></trkpt><trkpt lat="48.775993306086654" lon="6.9321756624520665"><ele>264.0</ele><time>2026-05-02T20:02:28Z</time></trkpt><trkpt lat="48.77589247844665" lon="6.932168069057282"><ele>264.0</ele><time>2026-05-02T20:02:30Z</time></trkpt><trkpt lat="48.77579650809291" lon="6.932162149029572"><ele>264.0</ele><time>2026-05-02T20:02:32Z</time></trkpt><trkpt lat="48.77569379990738" lon="6.932158929236468"><ele>264.0</ele><time>2026-05-02T20:02:34Z</time></trkpt><trkpt lat="48.775582403602485" lon="6.932148112645795"><ele>264.0</ele><time>2026-05-02T20:02:36Z</time></trkpt><trkpt lat="48.775477497648154" lon="6.932141921845029"><ele>264.0</ele><time>2026-05-02T20:02:38Z</time></trkpt><trkpt lat="48.77536795515771" lon="6.932133347294956"><ele>264.0</ele><time>2026-05-02T20:02:40Z</time></trkpt><trkpt lat="48.775269076608105" lon="6.932125936839481"><ele>264.0</ele><time>2026-05-02T20:02:42Z</time></trkpt><trkpt lat="48.77517213436872" lon="6.932109470536824"><ele>264.0</ele><time>2026-05-02T20:02:44Z</time></trkpt><trkpt lat="48.77506331357153" lon="6.932097138989393"><ele>264.0</ele><time>2026-05-02T20:02:46Z</time></trkpt><trkpt lat="48.77495378377027" lon="6.93209655404535"><ele>264.0</ele><time>2026-05-02T20:02:48Z</time></trkpt><trkpt lat="48.77489126136488" lon="6.932083633368145"><ele>264.0</ele><time>2026-05-02T20:02:49Z</time></trkpt><trkpt lat="48.77477994012159" lon="6.932076045855437"><ele>264.0</ele><time>2026-05-02T20:02:51Z</time></trkpt><trkpt lat="48.774659489303815" lon="6.932068474938828"><ele>264.0</ele><time>2026-05-02T20:02:53Z</time></trkpt><trkpt lat="48.77454860768114" lon="6.932057062424363"><ele>264.0</ele><time>2026-05-02T20:02:55Z</time></trkpt><trkpt lat="48.774435651671936" lon="6.93205291159114"><ele>264.0</ele><time>2026-05-02T20:02:57Z</time></trkpt><trkpt lat="48.7743197994039" lon="6.932047250543978"><ele>264.0</ele><time>2026-05-02T20:02:59Z</time></trkpt><trkpt lat="48.77420436182592" lon="6.932051466693653"><ele>264.75</ele><time>2026-05-02T20:03:01Z</time></trkpt><trkpt lat="48.77408798029197" lon="6.93203989695942"><ele>265.5</ele><time>2026-05-02T20:03:03Z</time></trkpt><trkpt lat="48.77396622895769" lon="6.93203797520615"><ele>266.25</ele><time>2026-05-02T20:03:05Z</time></trkpt><trkpt lat="48.77384433982643" lon="6.93203700081064"><ele>267.0</ele><time>2026-05-02T20:03:07Z</time></trkpt><trkpt lat="48.7737196901261" lon="6.932037552589354"><ele>267.0</ele><time>2026-05-02T20:03:09Z</time></trkpt><trkpt lat="48.77365453792359" lon="6.932038583116959"><ele>267.0</ele><time>2026-05-02T20:03:10Z</time></trkpt><trkpt lat="48.773586371249415" lon="6.932030275835749"><ele>267.0</ele><time>2026-05-02T20:03:11Z</time></trkpt><trkpt lat="48.77345956295529" lon="6.9320292117181594"><ele>267.0</ele><time>2026-05-02T20:03:13Z</time></trkpt><trkpt lat="48.7733940777339" lon="6.932025640590892"><ele>267.0</ele><time>2026-05-02T20:03:14Z</time></trkpt><trkpt lat="48.77332461572723" lon="6.9320306010731985"><ele>267.0</ele><time>2026-05-02T20:03:15Z</time></trkpt><trkpt lat="48.773254432153884" lon="6.932029321013026"><ele>267.0</ele><time>2026-05-02T20:03:16Z</time></trkpt><trkpt lat="48.773124204651616" lon="6.932041077575645"><ele>267.0</ele><time>2026-05-02T20:03:18Z</time></trkpt><trkpt lat="48.773060746029174" lon="6.932039777330921"><ele>267.0</ele><time>2026-05-02T20:03:19Z</time></trkpt><trkpt lat="48.77298993371982" lon="6.932056100915308"><ele>267.0</ele><time>2026-05-02T20:03:20Z</time></trkpt><trkpt lat="48.772924237265336" lon="6.932068018938387"><ele>267.0</ele><time>2026-05-02T20:03:21Z</time></trkpt><trkpt lat="48.77281131522682" lon="6.932090768016817"><ele>267.0</ele><time>2026-05-02T20:03:23Z</time></trkpt><trkpt lat="48.77268426891997" lon="6.932125876912759"><ele>267.0</ele><time>2026-05-02T20:03:25Z</time></trkpt><trkpt lat="48.77260272261357" lon="6.932143658110937"><ele>267.0</ele><time>2026-05-02T20:03:26Z</time></trkpt><trkpt lat="48.77253715898756" lon="6.932155101130909"><ele>267.0</ele><time>2026-05-02T20:03:27Z</time></trkpt><trkpt lat="48.772466804542844" lon="6.932169816603549"><ele>267.0</ele><time>2026-05-02T20:03:28Z</time></trkpt><trkpt lat="48.77240197771915" lon="6.932185448590487"><ele>267.0</ele><time>2026-05-02T20:03:29Z</time></trkpt><trkpt lat="48.772276271685136" lon="6.932226209052733"><ele>267.0</ele><time>2026-05-02T20:03:31Z</time></trkpt><trkpt lat="48.77220627194508" lon="6.932243650903169"><ele>267.0</ele><time>2026-05-02T20:03:32Z</time></trkpt><trkpt lat="48.77213715710347" lon="6.93224539862538"><ele>267.0</ele><time>2026-05-02T20:03:33Z</time></trkpt><trkpt lat="48.77200864148472" lon="6.932290218645403"><ele>267.0</ele><time>2026-05-02T20:03:35Z</time></trkpt><trkpt lat="48.77189098748197" lon="6.932321810335153"><ele>267.0</ele><time>2026-05-02T20:03:37Z</time></trkpt><trkpt lat="48.77177779098156" lon="6.9323641815944015"><ele>267.0</ele><time>2026-05-02T20:03:39Z</time></trkpt><trkpt lat="48.77171604380549" lon="6.932386905779139"><ele>266.75</ele><time>2026-05-02T20:03:40Z</time></trkpt><trkpt lat="48.771607567167294" lon="6.932426899576873"><ele>266.5</ele><time>2026-05-02T20:03:42Z</time></trkpt><trkpt lat="48.77148557393652" lon="6.932451098429348"><ele>266.25</ele><time>2026-05-02T20:03:43.999Z</time></trkpt><trkpt lat="48.77136960557715" lon="6.932483444563429"><ele>266.0</ele><time>2026-05-02T20:03:45.999Z</time></trkpt><trkpt lat="48.77124527868508" lon="6.932531774489073"><ele>265.2</ele><time>2026-05-02T20:03:47.999Z</time></trkpt><trkpt lat="48.77113897457309" lon="6.932568483455499"><ele>264.40000000000003</ele><time>2026-05-02T20:03:49.999Z</time></trkpt><trkpt lat="48.77103350414651" lon="6.932605411885999"><ele>263.6</ele><time>2026-05-02T20:03:51.999Z</time></trkpt><trkpt lat="48.77091269792335" lon="6.932649151677584"><ele>262.8</ele><time>2026-05-02T20:03:53.999Z</time></trkpt><trkpt lat="48.77084797203485" lon="6.932669352783759"><ele>262.0</ele><time>2026-05-02T20:03:54.999Z</time></trkpt><trkpt lat="48.77078129684442" lon="6.932690806979895"><ele>261.2</ele><time>2026-05-02T20:03:55.999Z</time></trkpt><trkpt lat="48.77071482971355" lon="6.93271427145679"><ele>260.4</ele><time>2026-05-02T20:03:56.999Z</time></trkpt><trkpt lat="48.77059541949069" lon="6.932755290524093"><ele>259.6</ele><time>2026-05-02T20:03:58.999Z</time></trkpt><trkpt lat="48.77048594504327" lon="6.932789283688853"><ele>258.8</ele><time>2026-05-02T20:04:00.999Z</time></trkpt><trkpt lat="48.77036450856522" lon="6.932826293259801"><ele>258.0</ele><time>2026-05-02T20:04:02.999Z</time></trkpt><trkpt lat="48.77025906237299" lon="6.932861118060406"><ele>258.0</ele><time>2026-05-02T20:04:04.999Z</time></trkpt><trkpt lat="48.77019651627886" lon="6.932883862395271"><ele>258.0</ele><time>2026-05-02T20:04:05.999Z</time></trkpt><trkpt lat="48.77007845922543" lon="6.932928880402749"><ele>258.0</ele><time>2026-05-02T20:04:07.999Z</time></trkpt><trkpt lat="48.76995468970929" lon="6.932967494830659"><ele>258.0</ele><time>2026-05-02T20:04:09.999Z</time></trkpt><trkpt lat="48.769892061639005" lon="6.9329850665831225"><ele>258.0</ele><time>2026-05-02T20:04:10.999Z</time></trkpt><trkpt lat="48.7698284407624" lon="6.933005030340557"><ele>258.0</ele><time>2026-05-02T20:04:11.999Z</time></trkpt><trkpt lat="48.769715172650955" lon="6.9330516227870564"><ele>258.6</ele><time>2026-05-02T20:04:13.999Z</time></trkpt><trkpt lat="48.76960826186842" lon="6.933106386424117"><ele>259.20000000000005</ele><time>2026-05-02T20:04:15.999Z</time></trkpt><trkpt lat="48.76948495557243" lon="6.933147097138239"><ele>259.8</ele><time>2026-05-02T20:04:17.999Z</time></trkpt><trkpt lat="48.76941256841217" lon="6.933175337959373"><ele>260.40000000000003</ele><time>2026-05-02T20:04:18.999Z</time></trkpt><trkpt lat="48.76930501222506" lon="6.933203931788247"><ele>261.0</ele><time>2026-05-02T20:04:20.999Z</time></trkpt><trkpt lat="48.769243637506214" lon="6.933227839539599"><ele>261.2</ele><time>2026-05-02T20:04:21.999Z</time></trkpt><trkpt lat="48.769122340475406" lon="6.9332613204968645"><ele>261.40000000000003</ele><time>2026-05-02T20:04:24Z</time></trkpt><trkpt lat="48.76905864481091" lon="6.933284084202645"><ele>261.6</ele><time>2026-05-02T20:04:25Z</time></trkpt><trkpt lat="48.768933023437846" lon="6.933325624120333"><ele>261.8</ele><time>2026-05-02T20:04:27Z</time></trkpt><trkpt lat="48.76880765822581" lon="6.933378564343393"><ele>262.0</ele><time>2026-05-02T20:04:29Z</time></trkpt><trkpt lat="48.76868138155779" lon="6.933418973214837"><ele>262.16666666666663</ele><time>2026-05-02T20:04:31Z</time></trkpt><trkpt lat="48.76861615551619" lon="6.9334398691943315"><ele>262.3333333333333</ele><time>2026-05-02T20:04:32Z</time></trkpt><trkpt lat="48.768553158153765" lon="6.933457536021634"><ele>262.5</ele><time>2026-05-02T20:04:33Z</time></trkpt><trkpt lat="48.76844180912969" lon="6.9335029623168385"><ele>262.6666666666667</ele><time>2026-05-02T20:04:35Z</time></trkpt><trkpt lat="48.76832621108788" lon="6.933540132820286"><ele>262.83333333333337</ele><time>2026-05-02T20:04:37Z</time></trkpt><trkpt lat="48.76826110425185" lon="6.933561313437249"><ele>263.0</ele><time>2026-05-02T20:04:38Z</time></trkpt><trkpt lat="48.768148561987495" lon="6.933597217989235"><ele>263.6666666666667</ele><time>2026-05-02T20:04:40Z</time></trkpt><trkpt lat="48.76808177931591" lon="6.933622634268242"><ele>264.33333333333337</ele><time>2026-05-02T20:04:41Z</time></trkpt><trkpt lat="48.768014354000094" lon="6.9336447773416365"><ele>265.0</ele><time>2026-05-02T20:04:42Z</time></trkpt><trkpt lat="48.767946104220584" lon="6.933666899818659"><ele>265.6666666666667</ele><time>2026-05-02T20:04:43Z</time></trkpt><trkpt lat="48.76788235416953" lon="6.933689169102286"><ele>266.3333333333333</ele><time>2026-05-02T20:04:44Z</time></trkpt><trkpt lat="48.76782059937709" lon="6.933709573396099"><ele>267.0</ele><time>2026-05-02T20:04:45Z</time></trkpt><trkpt lat="48.76770267724926" lon="6.933748900479924"><ele>266.4</ele><time>2026-05-02T20:04:47Z</time></trkpt><trkpt lat="48.767585184935044" lon="6.933789903366697"><ele>265.79999999999995</ele><time>2026-05-02T20:04:49Z</time></trkpt><trkpt lat="48.767463577321834" lon="6.933829834213427"><ele>265.2</ele><time>2026-05-02T20:04:51Z</time></trkpt><trkpt lat="48.76739853665068" lon="6.933852964759248"><ele>264.59999999999997</ele><time>2026-05-02T20:04:52Z</time></trkpt><trkpt lat="48.767279633992" lon="6.933892718354065"><ele>264.0</ele><time>2026-05-02T20:04:54Z</time></trkpt><trkpt lat="48.76716156724912" lon="6.933945156883525"><ele>264.0</ele><time>2026-05-02T20:04:56Z</time></trkpt><trkpt lat="48.76709621945635" lon="6.933968449781087"><ele>264.0</ele><time>2026-05-02T20:04:57Z</time></trkpt><trkpt lat="48.76703444160251" lon="6.933989078347687"><ele>264.0</ele><time>2026-05-02T20:04:58Z</time></trkpt><trkpt lat="48.76697124125236" lon="6.934007930588627"><ele>264.0</ele><time>2026-05-02T20:04:59Z</time></trkpt><trkpt lat="48.76685519310886" lon="6.934051871141"><ele>264.0</ele><time>2026-05-02T20:05:01Z</time></trkpt><trkpt lat="48.76679186393656" lon="6.934073709700127"><ele>264.0</ele><time>2026-05-02T20:05:02Z</time></trkpt><trkpt lat="48.76673007114176" lon="6.934095636211765"><ele>264.0</ele><time>2026-05-02T20:05:03Z</time></trkpt><trkpt lat="48.76661262867204" lon="6.9341309167632685"><ele>263.5</ele><time>2026-05-02T20:05:05Z</time></trkpt><trkpt lat="48.76650803077086" lon="6.934169390783724"><ele>263.0</ele><time>2026-05-02T20:05:07Z</time></trkpt><trkpt lat="48.766395051131276" lon="6.934202213501838"><ele>262.5</ele><time>2026-05-02T20:05:09Z</time></trkpt><trkpt lat="48.766283477703155" lon="6.934237765029072"><ele>262.0</ele><time>2026-05-02T20:05:11Z</time></trkpt><trkpt lat="48.766167181319105" lon="6.934275426808312"><ele>270.0</ele><time>2026-05-02T20:05:13Z</time></trkpt><trkpt lat="48.7660547271834" lon="6.934314508730384"><ele>270.0</ele><time>2026-05-02T20:05:15Z</time></trkpt><trkpt lat="48.76595255859675" lon="6.934351183501838"><ele>267.0</ele><time>2026-05-02T20:05:17Z</time></trkpt><trkpt lat="48.76586034917409" lon="6.934368259719347"><ele>267.0</ele><time>2026-05-02T20:05:19Z</time></trkpt><trkpt lat="48.76579818813247" lon="6.934386941192651"><ele>267.0</ele><time>2026-05-02T20:05:21Z</time></trkpt></trkseg><trkseg><trkpt lat="48.81572441079849" lon="7.005938292564797"><ele>236.0</ele><time>2026-05-03T05:35:15.999Z</time></trkpt><trkpt lat="48.81581395724954" lon="7.006025796308593"><ele>236.00000000000003</ele><time>2026-05-03T05:35:18.999Z</time></trkpt><trkpt lat="48.815905354502846" lon="7.00609897190744"><ele>236.00000000000003</ele><time>2026-05-03T05:35:19.999Z</time></trkpt><trkpt lat="48.81600269060954" lon="7.0061447483671335"><ele>236.0</ele><time>2026-05-03T05:35:20.999Z</time></trkpt><trkpt lat="48.81611532203352" lon="7.006191692066977"><ele>236.0</ele><time>2026-05-03T05:35:21.999Z</time></trkpt><trkpt lat="48.81620402137915" lon="7.00623836044979"><ele>236.00000000000003</ele><time>2026-05-03T05:35:22.999Z</time></trkpt><trkpt lat="48.81628818732932" lon="7.006300298912447"><ele>236.0</ele><time>2026-05-03T05:35:23.999Z</time></trkpt><trkpt lat="48.81636550237481" lon="7.006380960480497"><ele>236.0</ele><time>2026-05-03T05:35:24.999Z</time></trkpt><trkpt lat="48.816421003616455" lon="7.00646305827014"><ele>236.0</ele><time>2026-05-03T05:35:25.999Z</time></trkpt><trkpt lat="48.81645085622016" lon="7.006549107874032"><ele>236.00000000000003</ele><time>2026-05-03T05:35:26.999Z</time></trkpt><trkpt lat="48.8164891622558" lon="7.006722697636714"><ele>236.0</ele><time>2026-05-03T05:35:28.999Z</time></trkpt><trkpt lat="48.81654400681387" lon="7.006776876878064"><ele>236.00000000000003</ele><time>2026-05-03T05:35:29.999Z</time></trkpt><trkpt lat="48.816610062962994" lon="7.006777773973066"><ele>236.0</ele><time>2026-05-03T05:35:30.999Z</time></trkpt><trkpt lat="48.816679396468366" lon="7.006748351969995"><ele>236.0</ele><time>2026-05-03T05:35:31.999Z</time></trkpt><trkpt lat="48.816751715268914" lon="7.006719136428492"><ele>236.0</ele><time>2026-05-03T05:35:32.999Z</time></trkpt><trkpt lat="48.81683326627792" lon="7.006702396930004"><ele>236.00000000000003</ele><time>2026-05-03T05:35:33.999Z</time></trkpt><trkpt lat="48.81691988936449" lon="7.006738266222857"><ele>236.0</ele><time>2026-05-03T05:35:34.999Z</time></trkpt><trkpt lat="48.81700041885211" lon="7.006798261329203"><ele>236.00000000000003</ele><time>2026-05-03T05:35:35.999Z</time></trkpt><trkpt lat="48.817071849502234" lon="7.00686454556493"><ele>236.0</ele><time>2026-05-03T05:35:36.999Z</time></trkpt><trkpt lat="48.81714069362256" lon="7.006933112356594"><ele>236.0</ele><time>2026-05-03T05:35:37.999Z</time></trkpt><trkpt lat="48.81720244921194" lon="7.00700583786988"><ele>236.0</ele><time>2026-05-03T05:35:38.999Z</time></trkpt><trkpt lat="48.81725694627357" lon="7.0070863332363125"><ele>236.00000000000003</ele><time>2026-05-03T05:35:39.999Z</time></trkpt><trkpt lat="48.81731310953704" lon="7.007171490450452"><ele>236.0</ele><time>2026-05-03T05:35:40.999Z</time></trkpt><trkpt lat="48.81736751477732" lon="7.00725015941662"><ele>236.0</ele><time>2026-05-03T05:35:41.999Z</time></trkpt><trkpt lat="48.817424331628956" lon="7.0073310667875175"><ele>236.00000000000003</ele><time>2026-05-03T05:35:42.999Z</time></trkpt><trkpt lat="48.8174881234163" lon="7.007418789175951"><ele>236.00000000000003</ele><time>2026-05-03T05:35:43.999Z</time></trkpt><trkpt lat="48.817562354966675" lon="7.007510254362447"><ele>236.0</ele><time>2026-05-03T05:35:44.999Z</time></trkpt><trkpt lat="48.817633821006645" lon="7.007607619940651"><ele>236.0</ele><time>2026-05-03T05:35:45.999Z</time></trkpt><trkpt lat="48.817708235951365" lon="7.007715277496676"><ele>235.5</ele><time>2026-05-03T05:35:46.999Z</time></trkpt><trkpt lat="48.81778888036605" lon="7.0078304667373015"><ele>235.0</ele><time>2026-05-03T05:35:47.999Z</time></trkpt><trkpt lat="48.817876388038854" lon="7.007949221849032"><ele>234.5</ele><time>2026-05-03T05:35:48.999Z</time></trkpt><trkpt lat="48.81796832214554" lon="7.0080685719864855"><ele>234.0</ele><time>2026-05-03T05:35:49.999Z</time></trkpt><trkpt lat="48.81806512566978" lon="7.008192456086626"><ele>234.0</ele><time>2026-05-03T05:35:50.999Z</time></trkpt><trkpt lat="48.81815895158615" lon="7.008322837690748"><ele>234.0</ele><time>2026-05-03T05:35:51.999Z</time></trkpt><trkpt lat="48.81825277024147" lon="7.008458433454119"><ele>234.0</ele><time>2026-05-03T05:35:52.999Z</time></trkpt><trkpt lat="48.81834952175105" lon="7.008591772799965"><ele>234.0</ele><time>2026-05-03T05:35:53.999Z</time></trkpt><trkpt lat="48.81844923334368" lon="7.008723431172274"><ele>234.25</ele><time>2026-05-03T05:35:54.999Z</time></trkpt><trkpt lat="48.818547104925095" lon="7.008852198478707"><ele>234.5</ele><time>2026-05-03T05:35:55.999Z</time></trkpt><trkpt lat="48.81864203135345" lon="7.008976350377012"><ele>234.75</ele><time>2026-05-03T05:35:56.999Z</time></trkpt><trkpt lat="48.81873634134634" lon="7.0090959235787995"><ele>235.0</ele><time>2026-05-03T05:35:57.999Z</time></trkpt><trkpt lat="48.81882757081352" lon="7.009212002433794"><ele>235.0</ele><time>2026-05-03T05:35:58.999Z</time></trkpt><trkpt lat="48.81892141303455" lon="7.009319625149022"><ele>235.0</ele><time>2026-05-03T05:35:59.999Z</time></trkpt><trkpt lat="48.81902613478068" lon="7.009420176898383"><ele>235.0</ele><time>2026-05-03T05:36:00.999Z</time></trkpt><trkpt lat="48.819133964886454" lon="7.0095184338831675"><ele>235.0</ele><time>2026-05-03T05:36:01.999Z</time></trkpt><trkpt lat="48.81924338614428" lon="7.009609960411203"><ele>234.5</ele><time>2026-05-03T05:36:02.999Z</time></trkpt><trkpt lat="48.81935258717248" lon="7.009698902016531"><ele>234.0</ele><time>2026-05-03T05:36:03.999Z</time></trkpt><trkpt lat="48.81946221965414" lon="7.009786177678931"><ele>233.5</ele><time>2026-05-03T05:36:04.999Z</time></trkpt><trkpt lat="48.81957559833134" lon="7.009871150934614"><ele>233.0</ele><time>2026-05-03T05:36:06Z</time></trkpt><trkpt lat="48.81969027784888" lon="7.00995611504002"><ele>233.25</ele><time>2026-05-03T05:36:07Z</time></trkpt><trkpt lat="48.81980843693049" lon="7.01004530081293"><ele>233.5</ele><time>2026-05-03T05:36:08Z</time></trkpt><trkpt lat="48.81993042139246" lon="7.010143817834664"><ele>233.75</ele><time>2026-05-03T05:36:09Z</time></trkpt><trkpt lat="48.82005565750581" lon="7.01024623854163"><ele>234.0</ele><time>2026-05-03T05:36:10Z</time></trkpt><trkpt lat="48.820181844798945" lon="7.010353098501941"><ele>234.25</ele><time>2026-05-03T05:36:11Z</time></trkpt><trkpt lat="48.82030085592636" lon="7.010470204720847"><ele>234.5</ele><time>2026-05-03T05:36:12Z</time></trkpt><trkpt lat="48.82041399920904" lon="7.010600781845613"><ele>234.75</ele><time>2026-05-03T05:36:13Z</time></trkpt><trkpt lat="48.82051946495509" lon="7.0107479383333215"><ele>235.0</ele><time>2026-05-03T05:36:14Z</time></trkpt><trkpt lat="48.82061633424761" lon="7.010909766321795"><ele>235.0</ele><time>2026-05-03T05:36:15Z</time></trkpt><trkpt lat="48.820708230238765" lon="7.011083597495099"><ele>235.0</ele><time>2026-05-03T05:36:16Z</time></trkpt><trkpt lat="48.82079664465933" lon="7.011266134647414"><ele>235.0</ele><time>2026-05-03T05:36:17Z</time></trkpt><trkpt lat="48.82088420893238" lon="7.011455250963294"><ele>235.0</ele><time>2026-05-03T05:36:18Z</time></trkpt><trkpt lat="48.820973485138325" lon="7.011641966206508"><ele>234.66666666666666</ele><time>2026-05-03T05:36:19Z</time></trkpt><trkpt lat="48.821060942652416" lon="7.011829679379575"><ele>234.33333333333331</ele><time>2026-05-03T05:36:20Z</time></trkpt><trkpt lat="48.821143268715524" lon="7.012018247796973"><ele>234.0</ele><time>2026-05-03T05:36:21Z</time></trkpt><trkpt lat="48.82123007403519" lon="7.012211862901522"><ele>234.0</ele><time>2026-05-03T05:36:22Z</time></trkpt><trkpt lat="48.82132387173618" lon="7.01241606826701"><ele>234.0</ele><time>2026-05-03T05:36:23Z</time></trkpt><trkpt lat="48.82142554585371" lon="7.012632635457822"><ele>234.0</ele><time>2026-05-03T05:36:24Z</time></trkpt><trkpt lat="48.821531536048795" lon="7.012856097746952"><ele>234.33333333333331</ele><time>2026-05-03T05:36:25Z</time></trkpt><trkpt lat="48.82164183433739" lon="7.0130866181782965"><ele>234.66666666666666</ele><time>2026-05-03T05:36:26Z</time></trkpt><trkpt lat="48.821756004914256" lon="7.013318637762301"><ele>235.0</ele><time>2026-05-03T05:36:27Z</time></trkpt><trkpt lat="48.82187941327388" lon="7.013545697070995"><ele>235.0</ele><time>2026-05-03T05:36:28Z</time></trkpt><trkpt lat="48.82200747297472" lon="7.013758530412539"><ele>235.0</ele><time>2026-05-03T05:36:29Z</time></trkpt><trkpt lat="48.82214060597924" lon="7.013977517500538"><ele>235.0</ele><time>2026-05-03T05:36:30Z</time></trkpt><trkpt lat="48.82227929099183" lon="7.014185143397054"><ele>234.66666666666666</ele><time>2026-05-03T05:36:31Z</time></trkpt><trkpt lat="48.82242088940218" lon="7.014388618947765"><ele>234.33333333333331</ele><time>2026-05-03T05:36:32Z</time></trkpt><trkpt lat="48.82257025414972" lon="7.014580031181081"><ele>234.0</ele><time>2026-05-03T05:36:33Z</time></trkpt><trkpt lat="48.82272970948177" lon="7.014748288480028"><ele>234.0</ele><time>2026-05-03T05:36:34Z</time></trkpt><trkpt lat="48.82290215065823" lon="7.014892828263507"><ele>234.0</ele><time>2026-05-03T05:36:35Z</time></trkpt><trkpt lat="48.82307931382516" lon="7.0150212696428635"><ele>234.0</ele><time>2026-05-03T05:36:36Z</time></trkpt><trkpt lat="48.82326289044546" lon="7.015136112480871"><ele>233.66666666666669</ele><time>2026-05-03T05:36:37Z</time></trkpt><trkpt lat="48.823450111599996" lon="7.015240939962701"><ele>233.33333333333334</ele><time>2026-05-03T05:36:38Z</time></trkpt><trkpt lat="48.82363498589838" lon="7.015350879864384"><ele>233.0</ele><time>2026-05-03T05:36:39Z</time></trkpt><trkpt lat="48.823814351728124" lon="7.015463223435296"><ele>234.33333333333334</ele><time>2026-05-03T05:36:40Z</time></trkpt><trkpt lat="48.82399217302134" lon="7.01557519194587"><ele>235.66666666666669</ele><time>2026-05-03T05:36:41Z</time></trkpt><trkpt lat="48.82417130495261" lon="7.015683188612635"><ele>237.0</ele><time>2026-05-03T05:36:42Z</time></trkpt><trkpt lat="48.82434442282213" lon="7.0157831288456745"><ele>237.0</ele><time>2026-05-03T05:36:43Z</time></trkpt><trkpt lat="48.824524444816525" lon="7.0158880705857785"><ele>237.0</ele><time>2026-05-03T05:36:44Z</time></trkpt><trkpt lat="48.82470757077846" lon="7.016001960220477"><ele>237.0</ele><time>2026-05-03T05:36:45Z</time></trkpt><trkpt lat="48.82488220376938" lon="7.016111443653459"><ele>237.0</ele><time>2026-05-03T05:36:46Z</time></trkpt><trkpt lat="48.825059718782164" lon="7.016218092604254"><ele>237.0</ele><time>2026-05-03T05:36:47Z</time></trkpt><trkpt lat="48.8252431327026" lon="7.016327388818727"><ele>237.0</ele><time>2026-05-03T05:36:48Z</time></trkpt><trkpt lat="48.82542107146385" lon="7.016435726747926"><ele>236.66666666666669</ele><time>2026-05-03T05:36:49Z</time></trkpt><trkpt lat="48.82559988996372" lon="7.016544175182186"><ele>236.33333333333334</ele><time>2026-05-03T05:36:50Z</time></trkpt><trkpt lat="48.82578275887411" lon="7.0166516728040245"><ele>236.0</ele><time>2026-05-03T05:36:51Z</time></trkpt><trkpt lat="48.82596518661779" lon="7.016761971664342"><ele>237.0</ele><time>2026-05-03T05:36:52Z</time></trkpt><trkpt lat="48.826145917601714" lon="7.016874766601642"><ele>238.0</ele><time>2026-05-03T05:36:53Z</time></trkpt><trkpt lat="48.826327926727174" lon="7.01698687598562"><ele>239.0</ele><time>2026-05-03T05:36:54Z</time></trkpt><trkpt lat="48.826509287234714" lon="7.017095026936243"><ele>239.0</ele><time>2026-05-03T05:36:55Z</time></trkpt><trkpt lat="48.826688653121344" lon="7.017203072223705"><ele>239.0</ele><time>2026-05-03T05:36:56Z</time></trkpt><trkpt lat="48.82686325051824" lon="7.017307819811466"><ele>239.0</ele><time>2026-05-03T05:36:57Z</time></trkpt><trkpt lat="48.82703182542166" lon="7.017411961706603"><ele>239.33333333333334</ele><time>2026-05-03T05:36:58Z</time></trkpt><trkpt lat="48.82720305062639" lon="7.017518408848103"><ele>239.66666666666669</ele><time>2026-05-03T05:36:59Z</time></trkpt><trkpt lat="48.82737258109552" lon="7.017622181832518"><ele>240.0</ele><time>2026-05-03T05:37:00Z</time></trkpt><trkpt lat="48.82754306567125" lon="7.017721964032421"><ele>241.66666666666669</ele><time>2026-05-03T05:37:01Z</time></trkpt><trkpt lat="48.82771294790261" lon="7.01782186565539"><ele>243.33333333333334</ele><time>2026-05-03T05:37:02Z</time></trkpt><trkpt lat="48.82788157227448" lon="7.017918114407603"><ele>245.0</ele><time>2026-05-03T05:37:03Z</time></trkpt><trkpt lat="48.82805221663643" lon="7.018007174495502"><ele>245.0</ele><time>2026-05-03T05:37:04Z</time></trkpt><trkpt lat="48.8282249524784" lon="7.018081180353227"><ele>245.0</ele><time>2026-05-03T05:37:05Z</time></trkpt><trkpt lat="48.82840334792782" lon="7.018135285695453"><ele>245.0</ele><time>2026-05-03T05:37:06Z</time></trkpt><trkpt lat="48.82858450519458" lon="7.018172526815325"><ele>246.33333333333334</ele><time>2026-05-03T05:37:07Z</time></trkpt><trkpt lat="48.82876810071682" lon="7.018209169361378"><ele>247.66666666666669</ele><time>2026-05-03T05:37:08Z</time></trkpt><trkpt lat="48.82894859952067" lon="7.018255258164229"><ele>249.0</ele><time>2026-05-03T05:37:09Z</time></trkpt><trkpt lat="48.8291300349207" lon="7.018304763057113"><ele>249.66666666666669</ele><time>2026-05-03T05:37:10Z</time></trkpt><trkpt lat="48.82931077532306" lon="7.018363268613621"><ele>250.33333333333334</ele><time>2026-05-03T05:37:11Z</time></trkpt><trkpt lat="48.82948853249844" lon="7.0184391331224285"><ele>251.0</ele><time>2026-05-03T05:37:12Z</time></trkpt><trkpt lat="48.82966395525756" lon="7.018540579065665"><ele>251.0</ele><time>2026-05-03T05:37:13Z</time></trkpt><trkpt lat="48.82983018831302" lon="7.018666911157656"><ele>251.0</ele><time>2026-05-03T05:37:14Z</time></trkpt><trkpt lat="48.82999003399249" lon="7.018815889731638"><ele>251.0</ele><time>2026-05-03T05:37:15Z</time></trkpt><trkpt lat="48.83014670956113" lon="7.018975828388301"><ele>251.33333333333334</ele><time>2026-05-03T05:37:16Z</time></trkpt><trkpt lat="48.83029518068803" lon="7.019148230099836"><ele>251.66666666666669</ele><time>2026-05-03T05:37:17Z</time></trkpt><trkpt lat="48.830433769458224" lon="7.019325984656782"><ele>252.0</ele><time>2026-05-03T05:37:18Z</time></trkpt><trkpt lat="48.8305572911335" lon="7.019487651990448"><ele>252.0</ele><time>2026-05-03T05:37:19Z</time></trkpt><trkpt lat="48.830677317959626" lon="7.019637984087151"><ele>252.0</ele><time>2026-05-03T05:37:20Z</time></trkpt><trkpt lat="48.830787793602404" lon="7.019772644902626"><ele>252.0</ele><time>2026-05-03T05:37:21Z</time></trkpt><trkpt lat="48.830891565084805" lon="7.019898685545871"><ele>252.0</ele><time>2026-05-03T05:37:22Z</time></trkpt><trkpt lat="48.830994534011644" lon="7.020018770722639"><ele>252.5</ele><time>2026-05-03T05:37:23Z</time></trkpt><trkpt lat="48.83109777553237" lon="7.020136864989891"><ele>253.0</ele><time>2026-05-03T05:37:24Z</time></trkpt><trkpt lat="48.83120463937389" lon="7.020251955308699"><ele>253.5</ele><time>2026-05-03T05:37:25Z</time></trkpt><trkpt lat="48.83131074338257" lon="7.020365611333815"><ele>254.0</ele><time>2026-05-03T05:37:26Z</time></trkpt><trkpt lat="48.8314183472106" lon="7.02047895795758"><ele>254.0</ele><time>2026-05-03T05:37:27Z</time></trkpt><trkpt lat="48.83152820349148" lon="7.0205918757682335"><ele>254.0</ele><time>2026-05-03T05:37:28Z</time></trkpt><trkpt lat="48.83164241803052" lon="7.020697708278021"><ele>254.0</ele><time>2026-05-03T05:37:29Z</time></trkpt><trkpt lat="48.831762450302804" lon="7.020795059156258"><ele>254.0</ele><time>2026-05-03T05:37:29.999Z</time></trkpt><trkpt lat="48.83188560122312" lon="7.02088508669475"><ele>254.5</ele><time>2026-05-03T05:37:30.999Z</time></trkpt><trkpt lat="48.832012468129555" lon="7.0209735507690505"><ele>255.0</ele><time>2026-05-03T05:37:31.999Z</time></trkpt><trkpt lat="48.832140971906185" lon="7.021061285245167"><ele>255.5</ele><time>2026-05-03T05:37:32.999Z</time></trkpt><trkpt lat="48.83226906483043" lon="7.021150580402681"><ele>256.0</ele><time>2026-05-03T05:37:33.999Z</time></trkpt><trkpt lat="48.83252416692676" lon="7.021313221948447"><ele>255.5</ele><time>2026-05-03T05:37:35.999Z</time></trkpt><trkpt lat="48.83265208082075" lon="7.021387285617043"><ele>255.0</ele><time>2026-05-03T05:37:36.999Z</time></trkpt><trkpt lat="48.832782046680634" lon="7.021460275324212"><ele>254.5</ele><time>2026-05-03T05:37:37.999Z</time></trkpt><trkpt lat="48.83291428791692" lon="7.021532139724596"><ele>254.0</ele><time>2026-05-03T05:37:38.999Z</time></trkpt><trkpt lat="48.83304657964076" lon="7.0216052387184815"><ele>253.5</ele><time>2026-05-03T05:37:39.999Z</time></trkpt><trkpt lat="48.83318046854667" lon="7.021681207134236"><ele>253.0</ele><time>2026-05-03T05:37:40.999Z</time></trkpt><trkpt lat="48.83331278554802" lon="7.02176406491684"><ele>252.5</ele><time>2026-05-03T05:37:41.999Z</time></trkpt><trkpt lat="48.8334456876696" lon="7.021856525088843"><ele>252.0</ele><time>2026-05-03T05:37:42.999Z</time></trkpt><trkpt lat="48.83357735831997" lon="7.021960981928301"><ele>251.25</ele><time>2026-05-03T05:37:43.999Z</time></trkpt><trkpt lat="48.83370342360284" lon="7.022067565411574"><ele>250.5</ele><time>2026-05-03T05:37:44.999Z</time></trkpt><trkpt lat="48.83382287733652" lon="7.022167207567885"><ele>249.75</ele><time>2026-05-03T05:37:45.999Z</time></trkpt><trkpt lat="48.83394600634077" lon="7.022258419264655"><ele>249.0</ele><time>2026-05-03T05:37:46.999Z</time></trkpt><trkpt lat="48.83407616757323" lon="7.022345261867916"><ele>249.0</ele><time>2026-05-03T05:37:47.999Z</time></trkpt><trkpt lat="48.83420791407869" lon="7.022425286806953"><ele>249.0</ele><time>2026-05-03T05:37:48.999Z</time></trkpt><trkpt lat="48.83434375831184" lon="7.0225006199400335"><ele>249.0</ele><time>2026-05-03T05:37:49.999Z</time></trkpt><trkpt lat="48.83447777611798" lon="7.0225714767653145"><ele>249.0</ele><time>2026-05-03T05:37:50.999Z</time></trkpt><trkpt lat="48.834608861716454" lon="7.022638007775699"><ele>247.25</ele><time>2026-05-03T05:37:51.999Z</time></trkpt><trkpt lat="48.834737188364635" lon="7.022698671690992"><ele>245.5</ele><time>2026-05-03T05:37:52.999Z</time></trkpt><trkpt lat="48.83486545768826" lon="7.022748464057264"><ele>243.75</ele><time>2026-05-03T05:37:53.999Z</time></trkpt><trkpt lat="48.83499508670899" lon="7.0227849022293105"><ele>242.0</ele><time>2026-05-03T05:37:54.999Z</time></trkpt><trkpt lat="48.835122834588816" lon="7.022813253867023"><ele>241.6</ele><time>2026-05-03T05:37:55.999Z</time></trkpt><trkpt lat="48.83523908708571" lon="7.022833101944393"><ele>241.2</ele><time>2026-05-03T05:37:56.999Z</time></trkpt><trkpt lat="48.83534540064167" lon="7.022840920087015"><ele>240.8</ele><time>2026-05-03T05:37:57.999Z</time></trkpt><trkpt lat="48.83543474126607" lon="7.022845326804122"><ele>240.4</ele><time>2026-05-03T05:37:58.999Z</time></trkpt><trkpt lat="48.83550576737931" lon="7.022849698753012"><ele>240.0</ele><time>2026-05-03T05:37:59.999Z</time></trkpt><trkpt lat="48.83560223941159" lon="7.022855637162142"><ele>240.0</ele><time>2026-05-03T05:38:01.999Z</time></trkpt><trkpt lat="48.83561848178488" lon="7.022673686820732"><ele>240.0</ele><time>2026-05-03T05:38:02.999Z</time></trkpt><trkpt lat="48.835624425567154" lon="7.022471236505041"><ele>240.0</ele><time>2026-05-03T05:38:04.999Z</time></trkpt><trkpt lat="48.8356187046653" lon="7.022345842215714"><ele>240.0</ele><time>2026-05-03T05:38:05.999Z</time></trkpt><trkpt lat="48.83561437851084" lon="7.0222089330322115"><ele>240.0</ele><time>2026-05-03T05:38:06.999Z</time></trkpt><trkpt lat="48.83559566610354" lon="7.022072599477109"><ele>240.33333333333334</ele><time>2026-05-03T05:38:07.999Z</time></trkpt><trkpt lat="48.83560810281628" lon="7.0219516017288575"><ele>240.66666666666669</ele><time>2026-05-03T05:38:08.999Z</time></trkpt><trkpt lat="48.83560555681016" lon="7.02183483429342"><ele>241.0</ele><time>2026-05-03T05:38:09.999Z</time></trkpt><trkpt lat="48.83560298739927" lon="7.021716993812819"><ele>241.33333333333334</ele><time>2026-05-03T05:38:10.999Z</time></trkpt><trkpt lat="48.83560033199189" lon="7.021595209279957"><ele>241.66666666666669</ele><time>2026-05-03T05:38:12Z</time></trkpt><trkpt lat="48.83559807811401" lon="7.02148545056032"><ele>242.0</ele><time>2026-05-03T05:38:13Z</time></trkpt><trkpt lat="48.83559595882243" lon="7.02136362148688"><ele>242.0</ele><time>2026-05-03T05:38:14Z</time></trkpt><trkpt lat="48.83559427447478" lon="7.021266795341187"><ele>242.0</ele><time>2026-05-03T05:38:15Z</time></trkpt><trkpt lat="48.83557714753101" lon="7.021132543637411"><ele>242.0</ele><time>2026-05-03T05:38:17Z</time></trkpt><trkpt lat="48.83571578184174" lon="7.021092118482371"><ele>242.0</ele><time>2026-05-03T05:38:20Z</time></trkpt><trkpt lat="48.83585928018815" lon="7.021101880147601"><ele>242.0</ele><time>2026-05-03T05:38:22Z</time></trkpt><trkpt lat="48.83599896100283" lon="7.021112769759509"><ele>243.0</ele><time>2026-05-03T05:38:23Z</time></trkpt><trkpt lat="48.83614418118609" lon="7.021122664894628"><ele>244.0</ele><time>2026-05-03T05:38:24Z</time></trkpt><trkpt lat="48.83626580280664" lon="7.021127295453976"><ele>245.0</ele><time>2026-05-03T05:38:25Z</time></trkpt><trkpt lat="48.83638610001522" lon="7.021127140696566"><ele>246.0</ele><time>2026-05-03T05:38:26Z</time></trkpt><trkpt lat="48.836487721520704" lon="7.02112656878667"><ele>246.0</ele><time>2026-05-03T05:38:27Z</time></trkpt><trkpt lat="48.83657002013079" lon="7.021126582864168"><ele>246.0</ele><time>2026-05-03T05:38:28Z</time></trkpt><trkpt lat="48.836662831441885" lon="7.021131529825576"><ele>246.0</ele><time>2026-05-03T05:38:29Z</time></trkpt><trkpt lat="48.83675173891731" lon="7.021132325588832"><ele>246.0</ele><time>2026-05-03T05:38:30Z</time></trkpt><trkpt lat="48.83683347464534" lon="7.021129718884826"><ele>246.0</ele><time>2026-05-03T05:38:31Z</time></trkpt><trkpt lat="48.83692232394904" lon="7.021128289055127"><ele>246.0</ele><time>2026-05-03T05:38:32Z</time></trkpt><trkpt lat="48.83699918619673" lon="7.021125632901438"><ele>246.66666666666666</ele><time>2026-05-03T05:38:33Z</time></trkpt><trkpt lat="48.83707099535373" lon="7.021125334075452"><ele>247.33333333333331</ele><time>2026-05-03T05:38:34Z</time></trkpt><trkpt lat="48.83714848068114" lon="7.021122303725844"><ele>248.0</ele><time>2026-05-03T05:38:35Z</time></trkpt><trkpt lat="48.8372203720488" lon="7.021119184897889"><ele>248.66666666666666</ele><time>2026-05-03T05:38:36Z</time></trkpt><trkpt lat="48.83729988401685" lon="7.021115218303935"><ele>249.33333333333331</ele><time>2026-05-03T05:38:37Z</time></trkpt><trkpt lat="48.83738278157622" lon="7.021111312350869"><ele>250.0</ele><time>2026-05-03T05:38:38Z</time></trkpt><trkpt lat="48.83745622667568" lon="7.0210968193796885"><ele>249.99999999999997</ele><time>2026-05-03T05:38:39Z</time></trkpt><trkpt lat="48.83753208372283" lon="7.021071249111046"><ele>250.0</ele><time>2026-05-03T05:38:40Z</time></trkpt><trkpt lat="48.837616066644436" lon="7.021039675725832"><ele>250.0</ele><time>2026-05-03T05:38:41Z</time></trkpt><trkpt lat="48.837687991995764" lon="7.021012595714187"><ele>250.0</ele><time>2026-05-03T05:38:42Z</time></trkpt><trkpt lat="48.837761229163924" lon="7.020978760467972"><ele>249.99999999999997</ele><time>2026-05-03T05:38:43Z</time></trkpt><trkpt lat="48.83783159593258" lon="7.020945706209612"><ele>250.0</ele><time>2026-05-03T05:38:44Z</time></trkpt><trkpt lat="48.83790557311644" lon="7.0209130100808785"><ele>250.28571428571428</ele><time>2026-05-03T05:38:45Z</time></trkpt><trkpt lat="48.83798202349828" lon="7.020879639437491"><ele>250.57142857142858</ele><time>2026-05-03T05:38:46Z</time></trkpt><trkpt lat="48.8380577246847" lon="7.020854704580111"><ele>250.85714285714286</ele><time>2026-05-03T05:38:47Z</time></trkpt><trkpt lat="48.838125322692804" lon="7.020833705006672"><ele>251.14285714285714</ele><time>2026-05-03T05:38:48Z</time></trkpt><trkpt lat="48.83819385025446" lon="7.020809693344132"><ele>251.42857142857144</ele><time>2026-05-03T05:38:49Z</time></trkpt><trkpt lat="48.83826215197524" lon="7.020783666945094"><ele>251.71428571428572</ele><time>2026-05-03T05:38:50Z</time></trkpt><trkpt lat="48.83833033666447" lon="7.020755163013319"><ele>252.0</ele><time>2026-05-03T05:38:51Z</time></trkpt><trkpt lat="48.83840627569109" lon="7.020733784588192"><ele>252.33333333333334</ele><time>2026-05-03T05:38:52Z</time></trkpt><trkpt lat="48.83848112254061" lon="7.020712241381912"><ele>252.66666666666669</ele><time>2026-05-03T05:38:53Z</time></trkpt><trkpt lat="48.8385505433119" lon="7.020686246294927"><ele>253.0</ele><time>2026-05-03T05:38:54Z</time></trkpt><trkpt lat="48.83862969255476" lon="7.0206579219053165"><ele>253.33333333333334</ele><time>2026-05-03T05:38:55Z</time></trkpt><trkpt lat="48.83870466842497" lon="7.0206388598498295"><ele>253.66666666666669</ele><time>2026-05-03T05:38:56Z</time></trkpt><trkpt lat="48.838775650033476" lon="7.020624428764433"><ele>254.0</ele><time>2026-05-03T05:38:57Z</time></trkpt><trkpt lat="48.83885021024718" lon="7.020608283737535"><ele>254.0</ele><time>2026-05-03T05:38:58Z</time></trkpt><trkpt lat="48.83892660631201" lon="7.020588539616838"><ele>254.0</ele><time>2026-05-03T05:38:59Z</time></trkpt><trkpt lat="48.83899352398534" lon="7.020569107235848"><ele>254.0</ele><time>2026-05-03T05:39:00Z</time></trkpt><trkpt lat="48.839060260785324" lon="7.0205510893047185"><ele>254.0</ele><time>2026-05-03T05:39:01Z</time></trkpt><trkpt lat="48.8391305208645" lon="7.020535844371362"><ele>254.0</ele><time>2026-05-03T05:39:02Z</time></trkpt><trkpt lat="48.83920531971301" lon="7.020514658192059"><ele>254.0</ele><time>2026-05-03T05:39:03Z</time></trkpt><trkpt lat="48.8392702671359" lon="7.0204887522560515"><ele>254.0</ele><time>2026-05-03T05:39:04Z</time></trkpt><trkpt lat="48.83938279109751" lon="7.020430376546366"><ele>253.57142857142858</ele><time>2026-05-03T05:39:06Z</time></trkpt><trkpt lat="48.83945011982398" lon="7.020387442742336"><ele>253.1428571428571</ele><time>2026-05-03T05:39:07Z</time></trkpt><trkpt lat="48.83951131527496" lon="7.020355758954462"><ele>252.7142857142857</ele><time>2026-05-03T05:39:08Z</time></trkpt><trkpt lat="48.83957823597471" lon="7.020320584961151"><ele>252.28571428571428</ele><time>2026-05-03T05:39:09Z</time></trkpt><trkpt lat="48.83964379982348" lon="7.0202859238848765"><ele>251.85714285714283</ele><time>2026-05-03T05:39:10Z</time></trkpt><trkpt lat="48.83970531765968" lon="7.02025477952031"><ele>251.4285714285714</ele><time>2026-05-03T05:39:11Z</time></trkpt><trkpt lat="48.83976964577288" lon="7.020226132191576"><ele>250.99999999999997</ele><time>2026-05-03T05:39:12Z</time></trkpt><trkpt lat="48.83988536241509" lon="7.020154923400895"><ele>251.0</ele><time>2026-05-03T05:39:14Z</time></trkpt><trkpt lat="48.839947500825964" lon="7.020113658616449"><ele>251.00000000000003</ele><time>2026-05-03T05:39:15Z</time></trkpt><trkpt lat="48.84001207704172" lon="7.0200803034852015"><ele>251.00000000000003</ele><time>2026-05-03T05:39:16Z</time></trkpt><trkpt lat="48.84012025340119" lon="7.020024876868717"><ele>251.0</ele><time>2026-05-03T05:39:18Z</time></trkpt><trkpt lat="48.8402188085031" lon="7.019967563796882"><ele>251.0</ele><time>2026-05-03T05:39:20Z</time></trkpt><trkpt lat="48.84033011101094" lon="7.019889175249907"><ele>250.4</ele><time>2026-05-03T05:39:22Z</time></trkpt><trkpt lat="48.84044018087686" lon="7.019823639255933"><ele>249.8</ele><time>2026-05-03T05:39:24Z</time></trkpt><trkpt lat="48.84053681105143" lon="7.019756865199617"><ele>249.20000000000002</ele><time>2026-05-03T05:39:26Z</time></trkpt><trkpt lat="48.840632465607996" lon="7.019691988928739"><ele>248.60000000000002</ele><time>2026-05-03T05:39:28Z</time></trkpt><trkpt lat="48.84072721279662" lon="7.019620841143839"><ele>248.0</ele><time>2026-05-03T05:39:29.999Z</time></trkpt><trkpt lat="48.840816787970255" lon="7.01953515646833"><ele>248.0</ele><time>2026-05-03T05:39:31.999Z</time></trkpt><trkpt lat="48.8409206068924" lon="7.01943652760166"><ele>248.0</ele><time>2026-05-03T05:39:33.999Z</time></trkpt><trkpt lat="48.841025053978655" lon="7.019339740152614"><ele>248.0</ele><time>2026-05-03T05:39:35.999Z</time></trkpt><trkpt lat="48.841115469624754" lon="7.019237939058457"><ele>248.0</ele><time>2026-05-03T05:39:37.999Z</time></trkpt><trkpt lat="48.841211770479354" lon="7.019126812553416"><ele>248.5</ele><time>2026-05-03T05:39:39.999Z</time></trkpt><trkpt lat="48.84129077149365" lon="7.0190127870738666"><ele>249.0</ele><time>2026-05-03T05:39:41.999Z</time></trkpt><trkpt lat="48.841375350963126" lon="7.018917086926868"><ele>249.5</ele><time>2026-05-03T05:39:43.999Z</time></trkpt><trkpt lat="48.84148776409775" lon="7.01883869829443"><ele>250.0</ele><time>2026-05-03T05:39:45.999Z</time></trkpt><trkpt lat="48.84159482108756" lon="7.018767288287054"><ele>250.0</ele><time>2026-05-03T05:39:47.999Z</time></trkpt><trkpt lat="48.84170373699631" lon="7.0186867301483025"><ele>250.0</ele><time>2026-05-03T05:39:49.999Z</time></trkpt><trkpt lat="48.84181342379448" lon="7.018615746249985"><ele>250.0</ele><time>2026-05-03T05:39:51.999Z</time></trkpt><trkpt lat="48.84192910639822" lon="7.018552819283139"><ele>250.0</ele><time>2026-05-03T05:39:53.999Z</time></trkpt><trkpt lat="48.84198884748291" lon="7.018514150825331"><ele>250.0</ele><time>2026-05-03T05:39:54.999Z</time></trkpt><trkpt lat="48.84210933257839" lon="7.0184561131798"><ele>250.14285714285714</ele><time>2026-05-03T05:39:56.999Z</time></trkpt><trkpt lat="48.842171929731066" lon="7.018423655435369"><ele>250.28571428571428</ele><time>2026-05-03T05:39:57.999Z</time></trkpt><trkpt lat="48.84224063984703" lon="7.018391283131206"><ele>250.42857142857142</ele><time>2026-05-03T05:39:58.999Z</time></trkpt><trkpt lat="48.84230493500352" lon="7.018359302211633"><ele>250.57142857142856</ele><time>2026-05-03T05:39:59.999Z</time></trkpt><trkpt lat="48.84236378186172" lon="7.018320817638069"><ele>250.71428571428572</ele><time>2026-05-03T05:40:00.999Z</time></trkpt><trkpt lat="48.84242454746799" lon="7.018280599531861"><ele>250.85714285714283</ele><time>2026-05-03T05:40:01.999Z</time></trkpt><trkpt lat="48.84248500064183" lon="7.018241133712527"><ele>250.99999999999997</ele><time>2026-05-03T05:40:02.999Z</time></trkpt><trkpt lat="48.84259968408278" lon="7.018175904349995"><ele>251.00000000000003</ele><time>2026-05-03T05:40:04.999Z</time></trkpt><trkpt lat="48.84271378119288" lon="7.018112911121049"><ele>251.0</ele><time>2026-05-03T05:40:06.999Z</time></trkpt><trkpt lat="48.84277672589074" lon="7.018082785822809"><ele>251.0</ele><time>2026-05-03T05:40:07.999Z</time></trkpt><trkpt lat="48.8428444411713" lon="7.0180595252696945"><ele>251.0</ele><time>2026-05-03T05:40:08.999Z</time></trkpt><trkpt lat="48.84290536358225" lon="7.018029255340802"><ele>251.00000000000003</ele><time>2026-05-03T05:40:09.999Z</time></trkpt><trkpt lat="48.842966846867306" lon="7.017994028698432"><ele>251.0</ele><time>2026-05-03T05:40:10.999Z</time></trkpt><trkpt lat="48.843029422473464" lon="7.017959979372903"><ele>251.0</ele><time>2026-05-03T05:40:11.999Z</time></trkpt><trkpt lat="48.84313705736731" lon="7.01790612141867"><ele>251.00000000000003</ele><time>2026-05-03T05:40:13.999Z</time></trkpt><trkpt lat="48.84324802537187" lon="7.017838342081356"><ele>251.00000000000003</ele><time>2026-05-03T05:40:15.999Z</time></trkpt><trkpt lat="48.84336084172573" lon="7.017766169101444"><ele>251.0</ele><time>2026-05-03T05:40:18Z</time></trkpt><trkpt lat="48.84342895312203" lon="7.017731702655297"><ele>251.0</ele><time>2026-05-03T05:40:19Z</time></trkpt><trkpt lat="48.84349310350101" lon="7.017700304484866"><ele>250.8</ele><time>2026-05-03T05:40:20Z</time></trkpt><trkpt lat="48.84361125227515" lon="7.0176400531972"><ele>250.60000000000002</ele><time>2026-05-03T05:40:22Z</time></trkpt><trkpt lat="48.843727622685876" lon="7.017579055777001"><ele>250.4</ele><time>2026-05-03T05:40:24Z</time></trkpt><trkpt lat="48.84383747650082" lon="7.017501691610102"><ele>250.2</ele><time>2026-05-03T05:40:26Z</time></trkpt><trkpt lat="48.84389642154909" lon="7.017459320536907"><ele>250.0</ele><time>2026-05-03T05:40:27Z</time></trkpt><trkpt lat="48.84395727038793" lon="7.017421761537608"><ele>250.0</ele><time>2026-05-03T05:40:28Z</time></trkpt><trkpt lat="48.84407161535769" lon="7.017354309024671"><ele>250.0</ele><time>2026-05-03T05:40:30Z</time></trkpt><trkpt lat="48.844193387229694" lon="7.017311057923413"><ele>250.0</ele><time>2026-05-03T05:40:32Z</time></trkpt><trkpt lat="48.84425796370877" lon="7.017308287081245"><ele>250.0</ele><time>2026-05-03T05:40:33Z</time></trkpt><trkpt lat="48.844376331392006" lon="7.0172874647209005"><ele>250.0</ele><time>2026-05-03T05:40:35Z</time></trkpt><trkpt lat="48.844463224057684" lon="7.0172356612426325"><ele>249.33333333333331</ele><time>2026-05-03T05:40:37Z</time></trkpt><trkpt lat="48.844515528797196" lon="7.017143880319622"><ele>248.66666666666666</ele><time>2026-05-03T05:40:39Z</time></trkpt><trkpt lat="48.84452710153704" lon="7.0169923281056885"><ele>248.0</ele><time>2026-05-03T05:40:41Z</time></trkpt><trkpt lat="48.84452089244237" lon="7.016860006886606"><ele>247.33333333333331</ele><time>2026-05-03T05:40:42Z</time></trkpt><trkpt lat="48.8445166284443" lon="7.016728689178286"><ele>246.66666666666666</ele><time>2026-05-03T05:40:43Z</time></trkpt><trkpt lat="48.84451467576304" lon="7.016602809972686"><ele>246.0</ele><time>2026-05-03T05:40:44Z</time></trkpt><trkpt lat="48.84451183226078" lon="7.016461280554899"><ele>246.0</ele><time>2026-05-03T05:40:45Z</time></trkpt><trkpt lat="48.84450749295521" lon="7.016308806967572"><ele>246.00000000000003</ele><time>2026-05-03T05:40:46Z</time></trkpt><trkpt lat="48.844506711687664" lon="7.016163811019557"><ele>246.00000000000003</ele><time>2026-05-03T05:40:47Z</time></trkpt><trkpt lat="48.84450469924395" lon="7.0160224112833305"><ele>246.0</ele><time>2026-05-03T05:40:48Z</time></trkpt><trkpt lat="48.844504417875335" lon="7.015874890928333"><ele>246.0</ele><time>2026-05-03T05:40:49Z</time></trkpt><trkpt lat="48.84450332188375" lon="7.015743961076508"><ele>246.0</ele><time>2026-05-03T05:40:50Z</time></trkpt><trkpt lat="48.844494420757364" lon="7.015631211117294"><ele>246.0</ele><time>2026-05-03T05:40:51Z</time></trkpt><trkpt lat="48.8445146202862" lon="7.015517038560828"><ele>246.0</ele><time>2026-05-03T05:40:52Z</time></trkpt><trkpt lat="48.8445072960968" lon="7.015415963718019"><ele>246.0</ele><time>2026-05-03T05:40:53Z</time></trkpt><trkpt lat="48.84450440873207" lon="7.015284648655348"><ele>246.0</ele><time>2026-05-03T05:40:55Z</time></trkpt><trkpt lat="48.84456478637354" lon="7.0151723905294805"><ele>246.0</ele><time>2026-05-03T05:40:58Z</time></trkpt><trkpt lat="48.844739001123365" lon="7.01522738678183"><ele>246.00000000000003</ele><time>2026-05-03T05:41:00Z</time></trkpt><trkpt lat="48.844816434129676" lon="7.015233122713236"><ele>246.0</ele><time>2026-05-03T05:41:01Z</time></trkpt><trkpt lat="48.84488627037691" lon="7.015228011448603"><ele>246.00000000000003</ele><time>2026-05-03T05:41:02Z</time></trkpt><trkpt lat="48.84496515910618" lon="7.015226089409833"><ele>246.00000000000003</ele><time>2026-05-03T05:41:03Z</time></trkpt><trkpt lat="48.8450401224349" lon="7.015227481772073"><ele>246.0</ele><time>2026-05-03T05:41:04Z</time></trkpt><trkpt lat="48.84511412887799" lon="7.015224846446077"><ele>246.00000000000003</ele><time>2026-05-03T05:41:05Z</time></trkpt><trkpt lat="48.84518265289233" lon="7.015222057643533"><ele>246.00000000000003</ele><time>2026-05-03T05:41:06Z</time></trkpt><trkpt lat="48.845248775372326" lon="7.0152183314818215"><ele>245.0</ele><time>2026-05-03T05:41:07Z</time></trkpt><trkpt lat="48.84531509904446" lon="7.01521578081023"><ele>244.00000000000003</ele><time>2026-05-03T05:41:08Z</time></trkpt><trkpt lat="48.84537882606039" lon="7.015209191192861"><ele>243.00000000000003</ele><time>2026-05-03T05:41:09Z</time></trkpt><trkpt lat="48.84548520974409" lon="7.01521929653112"><ele>242.0</ele><time>2026-05-03T05:41:11Z</time></trkpt><trkpt lat="48.845558242243676" lon="7.015331950912294"><ele>241.0</ele><time>2026-05-03T05:41:13Z</time></trkpt><trkpt lat="48.84557668983379" lon="7.015509989806406"><ele>240.99999999999997</ele><time>2026-05-03T05:41:15Z</time></trkpt><trkpt lat="48.84557015619266" lon="7.015609270147324"><ele>241.0</ele><time>2026-05-03T05:41:16Z</time></trkpt><trkpt lat="48.845567376885" lon="7.015709564236013"><ele>241.0</ele><time>2026-05-03T05:41:17Z</time></trkpt><trkpt lat="48.845579986285244" lon="7.015896580041782"><ele>241.0</ele><time>2026-05-03T05:41:19Z</time></trkpt><trkpt lat="48.84559006696854" lon="7.015993598325304"><ele>240.99999999999997</ele><time>2026-05-03T05:41:20Z</time></trkpt><trkpt lat="48.84560582106743" lon="7.016090047415841"><ele>241.0</ele><time>2026-05-03T05:41:21Z</time></trkpt><trkpt lat="48.84565180541698" lon="7.01624313435712"><ele>241.20000000000002</ele><time>2026-05-03T05:41:23Z</time></trkpt><trkpt lat="48.845727290555644" lon="7.016333788275591"><ele>241.40000000000003</ele><time>2026-05-03T05:41:25Z</time></trkpt><trkpt lat="48.845799823564974" lon="7.0163406197078375"><ele>241.6</ele><time>2026-05-03T05:41:28Z</time></trkpt><trkpt lat="48.845838508583874" lon="7.016522510890177"><ele>241.8</ele><time>2026-05-03T05:41:31Z</time></trkpt><trkpt lat="48.84581627105737" lon="7.016670684825619"><ele>242.0</ele><time>2026-05-03T05:41:32Z</time></trkpt><trkpt lat="48.84581845714783" lon="7.016790008283246"><ele>242.0</ele><time>2026-05-03T05:41:33Z</time></trkpt><trkpt lat="48.845828920360326" lon="7.016917860453562"><ele>242.0</ele><time>2026-05-03T05:41:34Z</time></trkpt><trkpt lat="48.845830896863625" lon="7.017068478745832"><ele>242.0</ele><time>2026-05-03T05:41:35Z</time></trkpt><trkpt lat="48.84583769377851" lon="7.017226813824613"><ele>242.0</ele><time>2026-05-03T05:41:36Z</time></trkpt><trkpt lat="48.84585188475197" lon="7.01737066524381"><ele>242.0</ele><time>2026-05-03T05:41:37Z</time></trkpt><trkpt lat="48.845876197265376" lon="7.017521511101419"><ele>242.0</ele><time>2026-05-03T05:41:38Z</time></trkpt><trkpt lat="48.8459030184076" lon="7.017681244381508"><ele>242.0</ele><time>2026-05-03T05:41:39Z</time></trkpt><trkpt lat="48.84593201048626" lon="7.017853218071912"><ele>242.0</ele><time>2026-05-03T05:41:40Z</time></trkpt><trkpt lat="48.84595689433217" lon="7.018027313036543"><ele>242.0</ele><time>2026-05-03T05:41:41Z</time></trkpt><trkpt lat="48.84598223039617" lon="7.018186808175183"><ele>241.0</ele><time>2026-05-03T05:41:41.999Z</time></trkpt><trkpt lat="48.846006496138585" lon="7.018353652515092"><ele>240.0</ele><time>2026-05-03T05:41:42.999Z</time></trkpt><trkpt lat="48.846032663770444" lon="7.018522991025914"><ele>239.0</ele><time>2026-05-03T05:41:43.999Z</time></trkpt><trkpt lat="48.84606079088293" lon="7.018696266137654"><ele>238.0</ele><time>2026-05-03T05:41:44.999Z</time></trkpt><trkpt lat="48.84609329271194" lon="7.018871590036652"><ele>238.0</ele><time>2026-05-03T05:41:45.999Z</time></trkpt><trkpt lat="48.84611726498252" lon="7.019044980531436"><ele>238.0</ele><time>2026-05-03T05:41:46.999Z</time></trkpt><trkpt lat="48.846143931727774" lon="7.01920427650893"><ele>238.0</ele><time>2026-05-03T05:41:47.999Z</time></trkpt><trkpt lat="48.84615889924279" lon="7.019357394880683"><ele>238.0</ele><time>2026-05-03T05:41:48.999Z</time></trkpt><trkpt lat="48.846179235392704" lon="7.019482836372055"><ele>238.0</ele><time>2026-05-03T05:41:49.999Z</time></trkpt><trkpt lat="48.846193858320035" lon="7.019584521943165"><ele>238.0</ele><time>2026-05-03T05:41:50.999Z</time></trkpt><trkpt lat="48.84621237164447" lon="7.019716974186794"><ele>238.0</ele><time>2026-05-03T05:41:52.999Z</time></trkpt><trkpt lat="48.84627626798182" lon="7.019815508421851"><ele>238.0</ele><time>2026-05-03T05:41:54.999Z</time></trkpt><trkpt lat="48.84640806729158" lon="7.019791057534776"><ele>238.0</ele><time>2026-05-03T05:41:56.999Z</time></trkpt><trkpt lat="48.84648100336282" lon="7.019769303798374"><ele>238.0</ele><time>2026-05-03T05:41:57.999Z</time></trkpt><trkpt lat="48.84656320783191" lon="7.019729587458683"><ele>238.0</ele><time>2026-05-03T05:41:58.999Z</time></trkpt><trkpt lat="48.84665259559257" lon="7.019684679403847"><ele>238.0</ele><time>2026-05-03T05:41:59.999Z</time></trkpt><trkpt lat="48.8467337504119" lon="7.019614837697994"><ele>238.0</ele><time>2026-05-03T05:42:00.999Z</time></trkpt><trkpt lat="48.84682074290875" lon="7.01951858648294"><ele>238.0</ele><time>2026-05-03T05:42:01.999Z</time></trkpt><trkpt lat="48.84690903542566" lon="7.019427848168703"><ele>238.0</ele><time>2026-05-03T05:42:02.999Z</time></trkpt><trkpt lat="48.847006804884394" lon="7.019335072402375"><ele>237.4</ele><time>2026-05-03T05:42:03.999Z</time></trkpt><trkpt lat="48.847110502557456" lon="7.019242584080224"><ele>236.8</ele><time>2026-05-03T05:42:04.999Z</time></trkpt><trkpt lat="48.847209758046326" lon="7.019157393528035"><ele>236.2</ele><time>2026-05-03T05:42:05.999Z</time></trkpt><trkpt lat="48.84730494202408" lon="7.019089062795933"><ele>235.6</ele><time>2026-05-03T05:42:06.999Z</time></trkpt><trkpt lat="48.84740052291875" lon="7.019043882756648"><ele>235.0</ele><time>2026-05-03T05:42:07.999Z</time></trkpt><trkpt lat="48.84751083484069" lon="7.019028815332324"><ele>235.0</ele><time>2026-05-03T05:42:08.999Z</time></trkpt><trkpt lat="48.84762875529703" lon="7.019034493853638"><ele>235.0</ele><time>2026-05-03T05:42:09.999Z</time></trkpt><trkpt lat="48.847751458698" lon="7.01904291752683"><ele>235.0</ele><time>2026-05-03T05:42:10.999Z</time></trkpt><trkpt lat="48.84787696910948" lon="7.0190443036009835"><ele>235.0</ele><time>2026-05-03T05:42:11.999Z</time></trkpt><trkpt lat="48.848006143222925" lon="7.0190421553039535"><ele>235.0</ele><time>2026-05-03T05:42:12.999Z</time></trkpt><trkpt lat="48.848134051614785" lon="7.019041743394172"><ele>235.0</ele><time>2026-05-03T05:42:13.999Z</time></trkpt><trkpt lat="48.84825994464058" lon="7.019040908563175"><ele>235.0</ele><time>2026-05-03T05:42:14.999Z</time></trkpt><trkpt lat="48.84838444391778" lon="7.019035356980624"><ele>235.0</ele><time>2026-05-03T05:42:15.999Z</time></trkpt><trkpt lat="48.848510391533146" lon="7.019032852831462"><ele>234.75</ele><time>2026-05-03T05:42:16.999Z</time></trkpt><trkpt lat="48.848633265960785" lon="7.019033817370585"><ele>234.5</ele><time>2026-05-03T05:42:17.999Z</time></trkpt><trkpt lat="48.848760806889764" lon="7.019042337012744"><ele>234.25</ele><time>2026-05-03T05:42:18.999Z</time></trkpt><trkpt lat="48.84889091739041" lon="7.019067912115872"><ele>234.0</ele><time>2026-05-03T05:42:19.999Z</time></trkpt><trkpt lat="48.84901775109957" lon="7.019101467856782"><ele>234.0</ele><time>2026-05-03T05:42:20.999Z</time></trkpt><trkpt lat="48.84914441740643" lon="7.019139966847737"><ele>234.0</ele><time>2026-05-03T05:42:21.999Z</time></trkpt><trkpt lat="48.84927209842846" lon="7.019185172123302"><ele>234.0</ele><time>2026-05-03T05:42:22.999Z</time></trkpt><trkpt lat="48.84939776692508" lon="7.019237845437521"><ele>234.0</ele><time>2026-05-03T05:42:24Z</time></trkpt><trkpt lat="48.849509686156644" lon="7.0193034043038995"><ele>234.5</ele><time>2026-05-03T05:42:25Z</time></trkpt><trkpt lat="48.84961543493503" lon="7.019381756015476"><ele>235.0</ele><time>2026-05-03T05:42:26Z</time></trkpt><trkpt lat="48.84971580854511" lon="7.019483328766063"><ele>235.5</ele><time>2026-05-03T05:42:27Z</time></trkpt><trkpt lat="48.849816831353486" lon="7.019605233816015"><ele>236.0</ele><time>2026-05-03T05:42:28Z</time></trkpt><trkpt lat="48.849913930038674" lon="7.019745841425171"><ele>236.0</ele><time>2026-05-03T05:42:29Z</time></trkpt><trkpt lat="48.84999973784534" lon="7.019906263171186"><ele>236.0</ele><time>2026-05-03T05:42:30Z</time></trkpt><trkpt lat="48.85007672350832" lon="7.0200815575806725"><ele>236.0</ele><time>2026-05-03T05:42:31Z</time></trkpt><trkpt lat="48.850146570022495" lon="7.020264325885858"><ele>236.0</ele><time>2026-05-03T05:42:32Z</time></trkpt><trkpt lat="48.85020227507084" lon="7.020461060206205"><ele>238.5</ele><time>2026-05-03T05:42:33Z</time></trkpt><trkpt lat="48.85024173393924" lon="7.020668472742128"><ele>241.0</ele><time>2026-05-03T05:42:34Z</time></trkpt><trkpt lat="48.85026912319442" lon="7.020881544962367"><ele>243.5</ele><time>2026-05-03T05:42:35Z</time></trkpt><trkpt lat="48.85028827822251" lon="7.021098065648554"><ele>246.0</ele><time>2026-05-03T05:42:36Z</time></trkpt><trkpt lat="48.85029509873543" lon="7.021319971602695"><ele>246.66666666666669</ele><time>2026-05-03T05:42:37Z</time></trkpt><trkpt lat="48.85029123507996" lon="7.0215464388866025"><ele>247.33333333333334</ele><time>2026-05-03T05:42:38Z</time></trkpt><trkpt lat="48.85029050249087" lon="7.021780911920726"><ele>248.0</ele><time>2026-05-03T05:42:39Z</time></trkpt><trkpt lat="48.85029683114359" lon="7.022016780252658"><ele>248.66666666666669</ele><time>2026-05-03T05:42:40Z</time></trkpt><trkpt lat="48.850304833189206" lon="7.022251280748194"><ele>249.33333333333331</ele><time>2026-05-03T05:42:41Z</time></trkpt><trkpt lat="48.85031345100997" lon="7.022487579507341"><ele>250.0</ele><time>2026-05-03T05:42:42Z</time></trkpt><trkpt lat="48.850328370783885" lon="7.0227230213305205"><ele>250.66666666666666</ele><time>2026-05-03T05:42:43Z</time></trkpt><trkpt lat="48.85035700879164" lon="7.022953287462927"><ele>251.33333333333331</ele><time>2026-05-03T05:42:44Z</time></trkpt><trkpt lat="48.85040040062519" lon="7.023179724265101"><ele>252.0</ele><time>2026-05-03T05:42:45Z</time></trkpt><trkpt lat="48.85046084424165" lon="7.0233956225302965"><ele>252.66666666666669</ele><time>2026-05-03T05:42:46Z</time></trkpt><trkpt lat="48.850541308566044" lon="7.0236006068054175"><ele>253.33333333333334</ele><time>2026-05-03T05:42:47Z</time></trkpt><trkpt lat="48.850622919706616" lon="7.023797930621714"><ele>254.0</ele><time>2026-05-03T05:42:48Z</time></trkpt><trkpt lat="48.850705607634865" lon="7.023989352760901"><ele>253.79999999999998</ele><time>2026-05-03T05:42:49Z</time></trkpt><trkpt lat="48.850782003634706" lon="7.024157132342581"><ele>253.59999999999997</ele><time>2026-05-03T05:42:50Z</time></trkpt><trkpt lat="48.850849083644206" lon="7.024302146733544"><ele>253.4</ele><time>2026-05-03T05:42:51Z</time></trkpt><trkpt lat="48.850902240716245" lon="7.024425871654997"><ele>253.2</ele><time>2026-05-03T05:42:52Z</time></trkpt><trkpt lat="48.85094443467148" lon="7.024526468247557"><ele>253.0</ele><time>2026-05-03T05:42:53Z</time></trkpt><trkpt lat="48.850984595132495" lon="7.02460956991823"><ele>255.0</ele><time>2026-05-03T05:42:54Z</time></trkpt><trkpt lat="48.851032476051394" lon="7.024700567502683"><ele>257.0</ele><time>2026-05-03T05:42:56Z</time></trkpt><trkpt lat="48.851103228779046" lon="7.024788212045733"><ele>259.0</ele><time>2026-05-03T05:42:58Z</time></trkpt><trkpt lat="48.8513669794839" lon="7.024631124480536"><ele>259.0</ele><time>2026-05-03T05:42:59Z</time></trkpt><trkpt lat="48.851457442032405" lon="7.024631970668099"><ele>259.0</ele><time>2026-05-03T05:43:00Z</time></trkpt><trkpt lat="48.851536720521565" lon="7.0246164690322495"><ele>259.0</ele><time>2026-05-03T05:43:01Z</time></trkpt><trkpt lat="48.851616167312415" lon="7.024588751252525"><ele>259.0</ele><time>2026-05-03T05:43:02Z</time></trkpt><trkpt lat="48.8517049593435" lon="7.0245400638541735"><ele>259.0</ele><time>2026-05-03T05:43:03Z</time></trkpt><trkpt lat="48.85179564221437" lon="7.024473291402174"><ele>259.0</ele><time>2026-05-03T05:43:04Z</time></trkpt><trkpt lat="48.851884644586235" lon="7.024393722873874"><ele>260.2</ele><time>2026-05-03T05:43:05Z</time></trkpt><trkpt lat="48.85197062719027" lon="7.024312889261396"><ele>261.4</ele><time>2026-05-03T05:43:06Z</time></trkpt><trkpt lat="48.852053538994724" lon="7.024228287108057"><ele>262.6</ele><time>2026-05-03T05:43:07Z</time></trkpt><trkpt lat="48.852138712491964" lon="7.024132927437297"><ele>263.8</ele><time>2026-05-03T05:43:08Z</time></trkpt><trkpt lat="48.85223774183585" lon="7.024038324906213"><ele>265.0</ele><time>2026-05-03T05:43:09Z</time></trkpt><trkpt lat="48.852348086829984" lon="7.023962579836378"><ele>265.25</ele><time>2026-05-03T05:43:10Z</time></trkpt><trkpt lat="48.852462880673606" lon="7.023893951160747"><ele>265.5</ele><time>2026-05-03T05:43:11Z</time></trkpt><trkpt lat="48.85257619750296" lon="7.023827317786704"><ele>265.75</ele><time>2026-05-03T05:43:12Z</time></trkpt><trkpt lat="48.85268722834409" lon="7.023768705096202"><ele>266.0</ele><time>2026-05-03T05:43:13Z</time></trkpt><trkpt lat="48.85279677297999" lon="7.023713924386833"><ele>267.25</ele><time>2026-05-03T05:43:14Z</time></trkpt><trkpt lat="48.85290078567856" lon="7.023648212580545"><ele>268.5</ele><time>2026-05-03T05:43:15Z</time></trkpt><trkpt lat="48.85301272568938" lon="7.023579577289075"><ele>269.75</ele><time>2026-05-03T05:43:16Z</time></trkpt><trkpt lat="48.853113973906616" lon="7.023494481383811"><ele>271.0</ele><time>2026-05-03T05:43:17Z</time></trkpt><trkpt lat="48.85330135697636" lon="7.023294573914091"><ele>271.0</ele><time>2026-05-03T05:43:19Z</time></trkpt><trkpt lat="48.85340368127198" lon="7.023192131245268"><ele>271.0</ele><time>2026-05-03T05:43:20Z</time></trkpt><trkpt lat="48.853510705899815" lon="7.02310798186838"><ele>271.0</ele><time>2026-05-03T05:43:21Z</time></trkpt><trkpt lat="48.85361922571961" lon="7.02306218855498"><ele>271.0</ele><time>2026-05-03T05:43:22Z</time></trkpt><trkpt lat="48.853731991436014" lon="7.023043817840157"><ele>271.25</ele><time>2026-05-03T05:43:23Z</time></trkpt><trkpt lat="48.853859700108806" lon="7.023026909312131"><ele>271.5</ele><time>2026-05-03T05:43:24Z</time></trkpt><trkpt lat="48.853983817259525" lon="7.023005484268134"><ele>271.75</ele><time>2026-05-03T05:43:25Z</time></trkpt><trkpt lat="48.85410433383351" lon="7.022982271333581"><ele>272.0</ele><time>2026-05-03T05:43:26Z</time></trkpt><trkpt lat="48.854224594493985" lon="7.022955650228848"><ele>272.0</ele><time>2026-05-03T05:43:27Z</time></trkpt><trkpt lat="48.85434116588605" lon="7.02292660963386"><ele>272.0</ele><time>2026-05-03T05:43:28Z</time></trkpt><trkpt lat="48.85445455269797" lon="7.022900998407604"><ele>272.0</ele><time>2026-05-03T05:43:29Z</time></trkpt><trkpt lat="48.85456631912631" lon="7.0228806737596265"><ele>272.0</ele><time>2026-05-03T05:43:30Z</time></trkpt><trkpt lat="48.85467390501398" lon="7.022872384023811"><ele>272.0</ele><time>2026-05-03T05:43:31Z</time></trkpt><trkpt lat="48.85477561154253" lon="7.022877264989721"><ele>272.0</ele><time>2026-05-03T05:43:32Z</time></trkpt><trkpt lat="48.85486769253134" lon="7.022874939197918"><ele>272.0</ele><time>2026-05-03T05:43:33Z</time></trkpt><trkpt lat="48.8549655685507" lon="7.022846223216113"><ele>272.0</ele><time>2026-05-03T05:43:34Z</time></trkpt><trkpt lat="48.855056936824944" lon="7.022784489707637"><ele>272.0</ele><time>2026-05-03T05:43:35Z</time></trkpt><trkpt lat="48.855148627714726" lon="7.0227034398303445"><ele>271.8</ele><time>2026-05-03T05:43:36Z</time></trkpt><trkpt lat="48.85524857819861" lon="7.022619351889337"><ele>271.6</ele><time>2026-05-03T05:43:37Z</time></trkpt><trkpt lat="48.85534986116976" lon="7.0225497176755844"><ele>271.40000000000003</ele><time>2026-05-03T05:43:38Z</time></trkpt><trkpt lat="48.85545165550238" lon="7.022484728465131"><ele>271.2</ele><time>2026-05-03T05:43:39Z</time></trkpt><trkpt lat="48.8555511702195" lon="7.022414753509379"><ele>271.0</ele><time>2026-05-03T05:43:40Z</time></trkpt><trkpt lat="48.85564941292975" lon="7.022351127101696"><ele>270.40000000000003</ele><time>2026-05-03T05:43:41Z</time></trkpt><trkpt lat="48.855751503936744" lon="7.022284316400007"><ele>269.8</ele><time>2026-05-03T05:43:42Z</time></trkpt><trkpt lat="48.85585716953648" lon="7.022212088040222"><ele>269.20000000000005</ele><time>2026-05-03T05:43:43Z</time></trkpt><trkpt lat="48.85595615345081" lon="7.022148975143636"><ele>268.6</ele><time>2026-05-03T05:43:44Z</time></trkpt><trkpt lat="48.85604673697497" lon="7.022082513108362"><ele>268.0</ele><time>2026-05-03T05:43:45Z</time></trkpt><trkpt lat="48.85613366726306" lon="7.022020495577036"><ele>267.66666666666663</ele><time>2026-05-03T05:43:46Z</time></trkpt><trkpt lat="48.85622665701959" lon="7.0219510656819075"><ele>267.3333333333333</ele><time>2026-05-03T05:43:47Z</time></trkpt><trkpt lat="48.85631694634242" lon="7.0218885271241565"><ele>267.0</ele><time>2026-05-03T05:43:48Z</time></trkpt><trkpt lat="48.85638921712766" lon="7.021834883957352"><ele>266.6666666666667</ele><time>2026-05-03T05:43:49Z</time></trkpt><trkpt lat="48.85644881414116" lon="7.021788992134341"><ele>266.33333333333337</ele><time>2026-05-03T05:43:50Z</time></trkpt><trkpt lat="48.856531924117085" lon="7.021781725906232"><ele>266.0</ele><time>2026-05-03T05:43:52Z</time></trkpt><trkpt lat="48.85659088524862" lon="7.021945768946817"><ele>266.0</ele><time>2026-05-03T05:43:54Z</time></trkpt><trkpt lat="48.856633218493" lon="7.022089429840819"><ele>266.0</ele><time>2026-05-03T05:43:54.999Z</time></trkpt><trkpt lat="48.85666935530313" lon="7.022223704186391"><ele>266.0</ele><time>2026-05-03T05:43:55.999Z</time></trkpt><trkpt lat="48.85670843570041" lon="7.0223759173362925"><ele>266.0</ele><time>2026-05-03T05:43:56.999Z</time></trkpt><trkpt lat="48.85674846750491" lon="7.0225293403794105"><ele>266.0</ele><time>2026-05-03T05:43:57.999Z</time></trkpt><trkpt lat="48.856793025255634" lon="7.022672459720632"><ele>266.8</ele><time>2026-05-03T05:43:58.999Z</time></trkpt><trkpt lat="48.856830550096745" lon="7.022790723861805"><ele>267.6</ele><time>2026-05-03T05:43:59.999Z</time></trkpt><trkpt lat="48.85686970184324" lon="7.022917723465524"><ele>268.4</ele><time>2026-05-03T05:44:00.999Z</time></trkpt><trkpt lat="48.856908323144815" lon="7.023045824001478"><ele>269.2</ele><time>2026-05-03T05:44:01.999Z</time></trkpt><trkpt lat="48.85694456609427" lon="7.023169987326088"><ele>270.0</ele><time>2026-05-03T05:44:02.999Z</time></trkpt><trkpt lat="48.8569833639408" lon="7.02329299381576"><ele>270.6</ele><time>2026-05-03T05:44:03.999Z</time></trkpt><trkpt lat="48.85702377080138" lon="7.023418970225154"><ele>271.2</ele><time>2026-05-03T05:44:04.999Z</time></trkpt><trkpt lat="48.85706331618127" lon="7.023539042851805"><ele>271.8</ele><time>2026-05-03T05:44:05.999Z</time></trkpt><trkpt lat="48.857100621171305" lon="7.023664842655084"><ele>272.4</ele><time>2026-05-03T05:44:06.999Z</time></trkpt><trkpt lat="48.857140003553674" lon="7.02379706531355"><ele>273.0</ele><time>2026-05-03T05:44:07.999Z</time></trkpt><trkpt lat="48.85717927318021" lon="7.023930698553244"><ele>273.0</ele><time>2026-05-03T05:44:08.999Z</time></trkpt><trkpt lat="48.857217826014654" lon="7.024066275196379"><ele>273.0</ele><time>2026-05-03T05:44:09.999Z</time></trkpt><trkpt lat="48.85725673051001" lon="7.024197990405615"><ele>273.0</ele><time>2026-05-03T05:44:10.999Z</time></trkpt><trkpt lat="48.857294585706924" lon="7.024316837174337"><ele>273.0</ele><time>2026-05-03T05:44:11.999Z</time></trkpt><trkpt lat="48.85732331269021" lon="7.024418557388387"><ele>273.0</ele><time>2026-05-03T05:44:12.999Z</time></trkpt><trkpt lat="48.85736230486348" lon="7.024533356042078"><ele>273.0</ele><time>2026-05-03T05:44:13.999Z</time></trkpt><trkpt lat="48.85740158344386" lon="7.024652710403776"><ele>273.3333333333333</ele><time>2026-05-03T05:44:14.999Z</time></trkpt><trkpt lat="48.857440981383185" lon="7.024767340089604"><ele>273.6666666666667</ele><time>2026-05-03T05:44:15.999Z</time></trkpt><trkpt lat="48.85747335284176" lon="7.024870276128592"><ele>274.0</ele><time>2026-05-03T05:44:16.999Z</time></trkpt><trkpt lat="48.85750376807908" lon="7.0249575068395345"><ele>274.33333333333337</ele><time>2026-05-03T05:44:17.999Z</time></trkpt><trkpt lat="48.857540974782935" lon="7.0250519834658185"><ele>274.6666666666667</ele><time>2026-05-03T05:44:18.999Z</time></trkpt><trkpt lat="48.857598084922934" lon="7.025135444963912"><ele>275.0</ele><time>2026-05-03T05:44:19.999Z</time></trkpt><trkpt lat="48.85766967564714" lon="7.025193705533993"><ele>275.0</ele><time>2026-05-03T05:44:20.999Z</time></trkpt><trkpt lat="48.857743146369714" lon="7.025251500787042"><ele>275.0</ele><time>2026-05-03T05:44:21.999Z</time></trkpt><trkpt lat="48.857817226622196" lon="7.02531592350088"><ele>275.0</ele><time>2026-05-03T05:44:22.999Z</time></trkpt><trkpt lat="48.85789016316494" lon="7.02537039639321"><ele>275.0</ele><time>2026-05-03T05:44:23.999Z</time></trkpt><trkpt lat="48.85795285325713" lon="7.025426525087563"><ele>275.0</ele><time>2026-05-03T05:44:24.999Z</time></trkpt><trkpt lat="48.85800748059208" lon="7.025491370774916"><ele>275.0</ele><time>2026-05-03T05:44:25.999Z</time></trkpt><trkpt lat="48.85806745339575" lon="7.025560473126106"><ele>275.0</ele><time>2026-05-03T05:44:26.999Z</time></trkpt><trkpt lat="48.858136374417306" lon="7.025626990170129"><ele>275.0</ele><time>2026-05-03T05:44:27.999Z</time></trkpt><trkpt lat="48.85820646105192" lon="7.025700441131965"><ele>275.0</ele><time>2026-05-03T05:44:28.999Z</time></trkpt><trkpt lat="48.85826489875587" lon="7.025761920525438"><ele>275.0</ele><time>2026-05-03T05:44:30Z</time></trkpt><trkpt lat="48.85832692783109" lon="7.02582628448436"><ele>275.0</ele><time>2026-05-03T05:44:31Z</time></trkpt><trkpt lat="48.85838521683863" lon="7.025885754346223"><ele>275.0</ele><time>2026-05-03T05:44:32Z</time></trkpt><trkpt lat="48.858456769502375" lon="7.0259394965172035"><ele>275.1666666666667</ele><time>2026-05-03T05:44:33Z</time></trkpt><trkpt lat="48.858528355915745" lon="7.025972852413834"><ele>275.33333333333337</ele><time>2026-05-03T05:44:34Z</time></trkpt><trkpt lat="48.85860274242964" lon="7.026011583955275"><ele>275.5</ele><time>2026-05-03T05:44:35Z</time></trkpt><trkpt lat="48.85867607705227" lon="7.026043305835162"><ele>275.6666666666667</ele><time>2026-05-03T05:44:36Z</time></trkpt><trkpt lat="48.8587446701659" lon="7.026074677089564"><ele>275.8333333333333</ele><time>2026-05-03T05:44:37Z</time></trkpt><trkpt lat="48.85881620740406" lon="7.026115083322038"><ele>276.0</ele><time>2026-05-03T05:44:38Z</time></trkpt><trkpt lat="48.85888421038001" lon="7.026158244151356"><ele>276.0</ele><time>2026-05-03T05:44:39Z</time></trkpt><trkpt lat="48.85895222414888" lon="7.026187930005221"><ele>276.0</ele><time>2026-05-03T05:44:40Z</time></trkpt><trkpt lat="48.85901544653573" lon="7.026214289612443"><ele>276.0</ele><time>2026-05-03T05:44:41Z</time></trkpt><trkpt lat="48.85907751772961" lon="7.026244126702007"><ele>276.0</ele><time>2026-05-03T05:44:42Z</time></trkpt><trkpt lat="48.859142469348946" lon="7.026270440261891"><ele>276.0</ele><time>2026-05-03T05:44:43Z</time></trkpt><trkpt lat="48.85921638101218" lon="7.026297753332573"><ele>276.0</ele><time>2026-05-03T05:44:44Z</time></trkpt><trkpt lat="48.85928455356655" lon="7.02633228453831"><ele>276.0</ele><time>2026-05-03T05:44:45Z</time></trkpt><trkpt lat="48.85934838645762" lon="7.026371397508343"><ele>276.0</ele><time>2026-05-03T05:44:46Z</time></trkpt><trkpt lat="48.85940981425478" lon="7.026409206505365"><ele>276.0</ele><time>2026-05-03T05:44:47Z</time></trkpt><trkpt lat="48.859470985839565" lon="7.0264444455148505"><ele>276.0</ele><time>2026-05-03T05:44:48Z</time></trkpt><trkpt lat="48.859573884987924" lon="7.026512469910051"><ele>276.0</ele><time>2026-05-03T05:44:50Z</time></trkpt><trkpt lat="48.85962776590053" lon="7.026563843711674"><ele>276.0</ele><time>2026-05-03T05:44:52Z</time></trkpt><trkpt lat="48.85969818139847" lon="7.026549091039104"><ele>276.0</ele><time>2026-05-03T05:44:54Z</time></trkpt><trkpt lat="48.859821754076954" lon="7.026741240713791"><ele>276.0</ele><time>2026-05-03T05:44:55Z</time></trkpt><trkpt lat="48.85988963643085" lon="7.026686313761997"><ele>276.0</ele><time>2026-05-03T05:44:56Z</time></trkpt><trkpt lat="48.859972884857626" lon="7.026618953383128"><ele>276.0</ele><time>2026-05-03T05:44:57Z</time></trkpt><trkpt lat="48.86005970052884" lon="7.026548706549193"><ele>276.0</ele><time>2026-05-03T05:44:58Z</time></trkpt><trkpt lat="48.86013526337075" lon="7.026487564961736"><ele>276.0</ele><time>2026-05-03T05:44:59Z</time></trkpt><trkpt lat="48.86020095932625" lon="7.02643651691767"><ele>276.0</ele><time>2026-05-03T05:45:00Z</time></trkpt><trkpt lat="48.860271960357764" lon="7.026383462532407"><ele>275.1666666666667</ele><time>2026-05-03T05:45:01Z</time></trkpt><trkpt lat="48.86035310109133" lon="7.0263246130632355"><ele>274.3333333333333</ele><time>2026-05-03T05:45:02Z</time></trkpt><trkpt lat="48.8604393594341" lon="7.026265987329519"><ele>273.5</ele><time>2026-05-03T05:45:03Z</time></trkpt><trkpt lat="48.86052180354154" lon="7.026214375800464"><ele>272.66666666666663</ele><time>2026-05-03T05:45:04Z</time></trkpt><trkpt lat="48.86060519204259" lon="7.02616461034436"><ele>271.8333333333333</ele><time>2026-05-03T05:45:05Z</time></trkpt><trkpt lat="48.860685020217105" lon="7.026120688509383"><ele>271.0</ele><time>2026-05-03T05:45:06Z</time></trkpt><trkpt lat="48.86077984321284" lon="7.026075376233338"><ele>271.0</ele><time>2026-05-03T05:45:07Z</time></trkpt><trkpt lat="48.86087056532414" lon="7.026034589407695"><ele>271.0</ele><time>2026-05-03T05:45:08Z</time></trkpt><trkpt lat="48.86096465117586" lon="7.02599475923438"><ele>271.0</ele><time>2026-05-03T05:45:09Z</time></trkpt><trkpt lat="48.861062215073744" lon="7.025960675540618"><ele>271.0</ele><time>2026-05-03T05:45:10Z</time></trkpt><trkpt lat="48.861154887133424" lon="7.025934005309886"><ele>271.0</ele><time>2026-05-03T05:45:11Z</time></trkpt><trkpt lat="48.86125047522347" lon="7.025908356795193"><ele>270.0</ele><time>2026-05-03T05:45:12Z</time></trkpt><trkpt lat="48.8613374899313" lon="7.025889447044756"><ele>269.0</ele><time>2026-05-03T05:45:13Z</time></trkpt><trkpt lat="48.86142388941503" lon="7.025876956091387"><ele>268.0</ele><time>2026-05-03T05:45:14Z</time></trkpt><trkpt lat="48.86151786965082" lon="7.025864820691097"><ele>267.0</ele><time>2026-05-03T05:45:15Z</time></trkpt><trkpt lat="48.86160862828263" lon="7.025852969707501"><ele>266.0</ele><time>2026-05-03T05:45:16Z</time></trkpt><trkpt lat="48.861709320482085" lon="7.025845374042521"><ele>267.0</ele><time>2026-05-03T05:45:17Z</time></trkpt><trkpt lat="48.86181310562814" lon="7.025841710781226"><ele>268.0</ele><time>2026-05-03T05:45:18Z</time></trkpt><trkpt lat="48.86191444504536" lon="7.0258424005865425"><ele>269.0</ele><time>2026-05-03T05:45:19Z</time></trkpt><trkpt lat="48.86201468643256" lon="7.025848760621476"><ele>270.0</ele><time>2026-05-03T05:45:20Z</time></trkpt><trkpt lat="48.862107738037764" lon="7.025856933574387"><ele>271.0</ele><time>2026-05-03T05:45:21Z</time></trkpt><trkpt lat="48.86220763623791" lon="7.025871939753747"><ele>271.0</ele><time>2026-05-03T05:45:22Z</time></trkpt><trkpt lat="48.86230057346824" lon="7.025889826014036"><ele>271.0</ele><time>2026-05-03T05:45:23Z</time></trkpt><trkpt lat="48.8623913684264" lon="7.02591101633682"><ele>271.0</ele><time>2026-05-03T05:45:24Z</time></trkpt><trkpt lat="48.862487663151526" lon="7.02593762484296"><ele>271.0</ele><time>2026-05-03T05:45:25Z</time></trkpt><trkpt lat="48.86258753183769" lon="7.02596731274642"><ele>271.0</ele><time>2026-05-03T05:45:26Z</time></trkpt><trkpt lat="48.86268280960615" lon="7.025998849569966"><ele>270.6</ele><time>2026-05-03T05:45:27Z</time></trkpt><trkpt lat="48.86277468209033" lon="7.026035935766196"><ele>270.20000000000005</ele><time>2026-05-03T05:45:28Z</time></trkpt><trkpt lat="48.86287027056016" lon="7.026079060275945"><ele>269.79999999999995</ele><time>2026-05-03T05:45:29Z</time></trkpt><trkpt lat="48.86296834756297" lon="7.026129125139115"><ele>269.4</ele><time>2026-05-03T05:45:30Z</time></trkpt><trkpt lat="48.863074534239935" lon="7.026187458985455"><ele>269.0</ele><time>2026-05-03T05:45:31Z</time></trkpt><trkpt lat="48.86318004090978" lon="7.026248844825076"><ele>269.0</ele><time>2026-05-03T05:45:32Z</time></trkpt><trkpt lat="48.86328630316545" lon="7.026312140104821"><ele>269.0</ele><time>2026-05-03T05:45:33Z</time></trkpt><trkpt lat="48.86338923829218" lon="7.026373962234234"><ele>269.0</ele><time>2026-05-03T05:45:34Z</time></trkpt><trkpt lat="48.86348931436722" lon="7.026435105303047"><ele>269.0</ele><time>2026-05-03T05:45:35Z</time></trkpt><trkpt lat="48.863592026984804" lon="7.026497857011297"><ele>269.0</ele><time>2026-05-03T05:45:36Z</time></trkpt><trkpt lat="48.86368793042614" lon="7.026556448658923"><ele>268.8</ele><time>2026-05-03T05:45:37Z</time></trkpt><trkpt lat="48.86378959862334" lon="7.026618562273202"><ele>268.59999999999997</ele><time>2026-05-03T05:45:38Z</time></trkpt><trkpt lat="48.86389183601801" lon="7.026681023658676"><ele>268.4</ele><time>2026-05-03T05:45:39Z</time></trkpt><trkpt lat="48.86399531720752" lon="7.026744270981484"><ele>268.2</ele><time>2026-05-03T05:45:40Z</time></trkpt><trkpt lat="48.86409554374688" lon="7.026805539649764"><ele>268.0</ele><time>2026-05-03T05:45:41Z</time></trkpt><trkpt lat="48.86419104631919" lon="7.026863920557287"><ele>268.0</ele><time>2026-05-03T05:45:42Z</time></trkpt><trkpt lat="48.86429199634518" lon="7.026925631534977"><ele>268.0</ele><time>2026-05-03T05:45:43Z</time></trkpt><trkpt lat="48.864394457318824" lon="7.026988266092383"><ele>268.0</ele><time>2026-05-03T05:45:44Z</time></trkpt><trkpt lat="48.864496149571075" lon="7.027050430773482"><ele>268.0</ele><time>2026-05-03T05:45:45Z</time></trkpt><trkpt lat="48.86459433367643" lon="7.027110924462839"><ele>268.0</ele><time>2026-05-03T05:45:46Z</time></trkpt><trkpt lat="48.86469017650353" lon="7.027170957869362"><ele>268.0</ele><time>2026-05-03T05:45:47Z</time></trkpt><trkpt lat="48.864785500374786" lon="7.027232706971757"><ele>268.0</ele><time>2026-05-03T05:45:48Z</time></trkpt><trkpt lat="48.86487240894854" lon="7.027289304386104"><ele>268.0</ele><time>2026-05-03T05:45:49Z</time></trkpt><trkpt lat="48.86496873617105" lon="7.027355377763231"><ele>268.0</ele><time>2026-05-03T05:45:50Z</time></trkpt><trkpt lat="48.86505890690031" lon="7.02742076422692"><ele>268.0</ele><time>2026-05-03T05:45:51Z</time></trkpt><trkpt lat="48.86514655851423" lon="7.0274905322687475"><ele>268.0</ele><time>2026-05-03T05:45:52Z</time></trkpt><trkpt lat="48.86523193283239" lon="7.027561712471639"><ele>268.0</ele><time>2026-05-03T05:45:53Z</time></trkpt><trkpt lat="48.865314516261435" lon="7.027633899040469"><ele>268.0</ele><time>2026-05-03T05:45:54Z</time></trkpt><trkpt lat="48.86540625372913" lon="7.027723544828932"><ele>268.0</ele><time>2026-05-03T05:45:55Z</time></trkpt><trkpt lat="48.86550107737886" lon="7.0278234260582115"><ele>268.0</ele><time>2026-05-03T05:45:56Z</time></trkpt><trkpt lat="48.86559527527976" lon="7.0279280285991845"><ele>268.0</ele><time>2026-05-03T05:45:57Z</time></trkpt><trkpt lat="48.86568450434545" lon="7.028034611372844"><ele>268.0</ele><time>2026-05-03T05:45:58Z</time></trkpt><trkpt lat="48.86576612756067" lon="7.028138529480345"><ele>268.0</ele><time>2026-05-03T05:45:59Z</time></trkpt><trkpt lat="48.865840597273824" lon="7.028236076152258"><ele>268.0</ele><time>2026-05-03T05:46:00Z</time></trkpt><trkpt lat="48.86590868465844" lon="7.028328125791604"><ele>268.0</ele><time>2026-05-03T05:46:01Z</time></trkpt><trkpt lat="48.86596281254931" lon="7.028406232606223"><ele>268.25</ele><time>2026-05-03T05:46:02Z</time></trkpt><trkpt lat="48.866036067195296" lon="7.028516738867276"><ele>268.5</ele><time>2026-05-03T05:46:04Z</time></trkpt><trkpt lat="48.86611854483328" lon="7.028607607241587"><ele>268.75</ele><time>2026-05-03T05:46:06Z</time></trkpt><trkpt lat="48.866173512771084" lon="7.028661928557295"><ele>269.0</ele><time>2026-05-03T05:46:07Z</time></trkpt><trkpt lat="48.86647551214403" lon="7.028347336094253"><ele>269.0</ele><time>2026-05-03T05:46:07.999Z</time></trkpt><trkpt lat="48.866552024755855" lon="7.0283109887485695"><ele>269.0</ele><time>2026-05-03T05:46:08.999Z</time></trkpt><trkpt lat="48.86661679044855" lon="7.028259475175694"><ele>269.0</ele><time>2026-05-03T05:46:09.999Z</time></trkpt><trkpt lat="48.86667338958286" lon="7.028213629651808"><ele>269.0</ele><time>2026-05-03T05:46:10.999Z</time></trkpt><trkpt lat="48.866785251692924" lon="7.028185229495056"><ele>269.0</ele><time>2026-05-03T05:46:12.999Z</time></trkpt><trkpt lat="48.86683913488213" lon="7.02827326430853"><ele>269.0</ele><time>2026-05-03T05:46:14.999Z</time></trkpt><trkpt lat="48.866911705255184" lon="7.028299342347677"><ele>268.0</ele><time>2026-05-03T05:46:18.999Z</time></trkpt><trkpt lat="48.86697635777196" lon="7.028245000931341"><ele>267.0</ele><time>2026-05-03T05:46:19.999Z</time></trkpt><trkpt lat="48.86704862178679" lon="7.028164751343284"><ele>266.0</ele><time>2026-05-03T05:46:20.999Z</time></trkpt><trkpt lat="48.867141057489675" lon="7.02811377353895"><ele>265.0</ele><time>2026-05-03T05:46:21.999Z</time></trkpt><trkpt lat="48.867233561143" lon="7.028069478805663"><ele>264.0</ele><time>2026-05-03T05:46:22.999Z</time></trkpt><trkpt lat="48.867338189535644" lon="7.028022198258419"><ele>264.0</ele><time>2026-05-03T05:46:23.999Z</time></trkpt><trkpt lat="48.86746355919382" lon="7.027971659413709"><ele>264.0</ele><time>2026-05-03T05:46:24.999Z</time></trkpt><trkpt lat="48.86762072876569" lon="7.027927549096761"><ele>264.0</ele><time>2026-05-03T05:46:25.999Z</time></trkpt><trkpt lat="48.86777936454329" lon="7.02790114937685"><ele>264.0</ele><time>2026-05-03T05:46:26.999Z</time></trkpt><trkpt lat="48.867923884209645" lon="7.027881806614832"><ele>262.75</ele><time>2026-05-03T05:46:27.999Z</time></trkpt><trkpt lat="48.86805917513018" lon="7.027852198688475"><ele>261.5</ele><time>2026-05-03T05:46:28.999Z</time></trkpt><trkpt lat="48.86819134872481" lon="7.027814620549493"><ele>260.25</ele><time>2026-05-03T05:46:29.999Z</time></trkpt><trkpt lat="48.86831616195305" lon="7.027782442812671"><ele>259.0</ele><time>2026-05-03T05:46:30.999Z</time></trkpt><trkpt lat="48.86844042793624" lon="7.027744592071224"><ele>257.0</ele><time>2026-05-03T05:46:31.999Z</time></trkpt><trkpt lat="48.86856414029564" lon="7.027726041634936"><ele>255.0</ele><time>2026-05-03T05:46:32.999Z</time></trkpt><trkpt lat="48.86869255620188" lon="7.027728077537188"><ele>253.0</ele><time>2026-05-03T05:46:33.999Z</time></trkpt><trkpt lat="48.86882331910715" lon="7.027755866450267"><ele>251.0</ele><time>2026-05-03T05:46:34.999Z</time></trkpt><trkpt lat="48.86895877642304" lon="7.027769750344811"><ele>251.0</ele><time>2026-05-03T05:46:36Z</time></trkpt><trkpt lat="48.86909151711235" lon="7.027831964616032"><ele>251.0</ele><time>2026-05-03T05:46:37Z</time></trkpt><trkpt lat="48.86922508121047" lon="7.027859101973084"><ele>251.0</ele><time>2026-05-03T05:46:38Z</time></trkpt><trkpt lat="48.86935588238186" lon="7.027874941718918"><ele>251.0</ele><time>2026-05-03T05:46:39Z</time></trkpt><trkpt lat="48.86948858748481" lon="7.027859468759048"><ele>250.0</ele><time>2026-05-03T05:46:40Z</time></trkpt><trkpt lat="48.86962497490002" lon="7.027822440704322"><ele>249.0</ele><time>2026-05-03T05:46:41Z</time></trkpt><trkpt lat="48.86976259419465" lon="7.027763154491048"><ele>248.0</ele><time>2026-05-03T05:46:42Z</time></trkpt><trkpt lat="48.86989938081785" lon="7.0276842178641"><ele>247.0</ele><time>2026-05-03T05:46:43Z</time></trkpt><trkpt lat="48.87003385426599" lon="7.027612574759035"><ele>246.75</ele><time>2026-05-03T05:46:44Z</time></trkpt><trkpt lat="48.87015712556097" lon="7.027540360748472"><ele>246.5</ele><time>2026-05-03T05:46:45Z</time></trkpt><trkpt lat="48.87027382491123" lon="7.027468069882335"><ele>246.25</ele><time>2026-05-03T05:46:46Z</time></trkpt><trkpt lat="48.87039248414715" lon="7.027379938354665"><ele>246.0</ele><time>2026-05-03T05:46:47Z</time></trkpt><trkpt lat="48.870501617721075" lon="7.027305414563938"><ele>245.75</ele><time>2026-05-03T05:46:48Z</time></trkpt><trkpt lat="48.87061797246565" lon="7.027214294203934"><ele>245.5</ele><time>2026-05-03T05:46:49Z</time></trkpt><trkpt lat="48.870734026239184" lon="7.027103707874985"><ele>245.25</ele><time>2026-05-03T05:46:50Z</time></trkpt><trkpt lat="48.87085609034396" lon="7.02698844573806"><ele>245.0</ele><time>2026-05-03T05:46:51Z</time></trkpt><trkpt lat="48.87096983229893" lon="7.02684826538056"><ele>244.5</ele><time>2026-05-03T05:46:52Z</time></trkpt><trkpt lat="48.87107517539966" lon="7.026683845029017"><ele>244.0</ele><time>2026-05-03T05:46:53Z</time></trkpt><trkpt lat="48.87117275191903" lon="7.02651858096632"><ele>243.5</ele><time>2026-05-03T05:46:54Z</time></trkpt><trkpt lat="48.87126598392547" lon="7.026356679619387"><ele>243.0</ele><time>2026-05-03T05:46:55Z</time></trkpt><trkpt lat="48.87135355354833" lon="7.026203086177392"><ele>243.0</ele><time>2026-05-03T05:46:56Z</time></trkpt><trkpt lat="48.87143556354921" lon="7.026059244076107"><ele>243.0</ele><time>2026-05-03T05:46:57Z</time></trkpt><trkpt lat="48.871514931697526" lon="7.025920035641932"><ele>243.0</ele><time>2026-05-03T05:46:58Z</time></trkpt><trkpt lat="48.87159457076982" lon="7.025786253141001"><ele>243.0</ele><time>2026-05-03T05:46:59Z</time></trkpt><trkpt lat="48.871677865886376" lon="7.025652259220638"><ele>243.0</ele><time>2026-05-03T05:47:00Z</time></trkpt><trkpt lat="48.87176648178148" lon="7.025538288070514"><ele>243.0</ele><time>2026-05-03T05:47:01Z</time></trkpt><trkpt lat="48.87185928541021" lon="7.025452110357153"><ele>243.0</ele><time>2026-05-03T05:47:02Z</time></trkpt><trkpt lat="48.871955819511534" lon="7.025370040086769"><ele>243.0</ele><time>2026-05-03T05:47:03Z</time></trkpt><trkpt lat="48.8720449097994" lon="7.025255049015833"><ele>243.0</ele><time>2026-05-03T05:47:04Z</time></trkpt><trkpt lat="48.87214646854399" lon="7.025159587666498"><ele>243.0</ele><time>2026-05-03T05:47:05Z</time></trkpt><trkpt lat="48.87224801574972" lon="7.025051002221233"><ele>243.0</ele><time>2026-05-03T05:47:06Z</time></trkpt><trkpt lat="48.8723500034751" lon="7.024929238219244"><ele>243.0</ele><time>2026-05-03T05:47:07Z</time></trkpt><trkpt lat="48.87245546931563" lon="7.024808658662096"><ele>243.5</ele><time>2026-05-03T05:47:08Z</time></trkpt><trkpt lat="48.87256170602839" lon="7.024675763175762"><ele>244.0</ele><time>2026-05-03T05:47:09Z</time></trkpt><trkpt lat="48.872669541099924" lon="7.024536767110502"><ele>244.5</ele><time>2026-05-03T05:47:10Z</time></trkpt><trkpt lat="48.8727852056516" lon="7.02441078953515"><ele>245.0</ele><time>2026-05-03T05:47:11Z</time></trkpt><trkpt lat="48.872895803687115" lon="7.02428108224613"><ele>246.75</ele><time>2026-05-03T05:47:12Z</time></trkpt><trkpt lat="48.873012565135554" lon="7.024183367654464"><ele>248.5</ele><time>2026-05-03T05:47:13Z</time></trkpt><trkpt lat="48.87311729971443" lon="7.024068949743967"><ele>250.25</ele><time>2026-05-03T05:47:14Z</time></trkpt><trkpt lat="48.87321694471242" lon="7.023944498967093"><ele>252.0</ele><time>2026-05-03T05:47:15Z</time></trkpt><trkpt lat="48.873328573074794" lon="7.023842758500967"><ele>252.5</ele><time>2026-05-03T05:47:16Z</time></trkpt><trkpt lat="48.8734369262894" lon="7.023726959706588"><ele>253.0</ele><time>2026-05-03T05:47:17Z</time></trkpt><trkpt lat="48.873534666930965" lon="7.023622502762425"><ele>253.5</ele><time>2026-05-03T05:47:18Z</time></trkpt><trkpt lat="48.873620089130945" lon="7.023531210693928"><ele>254.0</ele><time>2026-05-03T05:47:19Z</time></trkpt><trkpt lat="48.87370453092472" lon="7.023443086676608"><ele>254.25</ele><time>2026-05-03T05:47:20Z</time></trkpt><trkpt lat="48.87379766071819" lon="7.0233539719550215"><ele>254.5</ele><time>2026-05-03T05:47:21Z</time></trkpt><trkpt lat="48.87389961037393" lon="7.023260496314632"><ele>254.75</ele><time>2026-05-03T05:47:22Z</time></trkpt><trkpt lat="48.87400245631674" lon="7.023172983709792"><ele>255.0</ele><time>2026-05-03T05:47:23Z</time></trkpt><trkpt lat="48.87410187410939" lon="7.023061798704156"><ele>256.5</ele><time>2026-05-03T05:47:24Z</time></trkpt><trkpt lat="48.87421199963424" lon="7.022975462087774"><ele>258.0</ele><time>2026-05-03T05:47:25Z</time></trkpt><trkpt lat="48.87432300240787" lon="7.022883158030851"><ele>259.5</ele><time>2026-05-03T05:47:26Z</time></trkpt><trkpt lat="48.874436693238735" lon="7.022793394261135"><ele>261.0</ele><time>2026-05-03T05:47:27Z</time></trkpt><trkpt lat="48.87455743326038" lon="7.022724322899487"><ele>262.0</ele><time>2026-05-03T05:47:28Z</time></trkpt><trkpt lat="48.87466761326111" lon="7.022616522280428"><ele>263.0</ele><time>2026-05-03T05:47:29Z</time></trkpt><trkpt lat="48.87479704618581" lon="7.022557633393595"><ele>264.0</ele><time>2026-05-03T05:47:30Z</time></trkpt><trkpt lat="48.874924087093355" lon="7.022492824058816"><ele>265.0</ele><time>2026-05-03T05:47:31Z</time></trkpt><trkpt lat="48.87505429622268" lon="7.022435122673058"><ele>267.0</ele><time>2026-05-03T05:47:32Z</time></trkpt><trkpt lat="48.87518533432423" lon="7.022360364602802"><ele>269.0</ele><time>2026-05-03T05:47:33Z</time></trkpt><trkpt lat="48.87531477925992" lon="7.022313616589672"><ele>271.0</ele><time>2026-05-03T05:47:34Z</time></trkpt><trkpt lat="48.87545452549675" lon="7.022257330033536"><ele>273.0</ele><time>2026-05-03T05:47:35Z</time></trkpt><trkpt lat="48.87559078994026" lon="7.022189246084786"><ele>273.0</ele><time>2026-05-03T05:47:36Z</time></trkpt><trkpt lat="48.875730118910376" lon="7.022126427197929"><ele>273.0</ele><time>2026-05-03T05:47:37Z</time></trkpt><trkpt lat="48.87586901051731" lon="7.022062918547534"><ele>273.0</ele><time>2026-05-03T05:47:38Z</time></trkpt><trkpt lat="48.87601099598344" lon="7.022003150823315"><ele>273.0</ele><time>2026-05-03T05:47:39Z</time></trkpt><trkpt lat="48.8761512454336" lon="7.021936048788723"><ele>271.75</ele><time>2026-05-03T05:47:40Z</time></trkpt><trkpt lat="48.87628826209002" lon="7.021885314902356"><ele>270.5</ele><time>2026-05-03T05:47:41Z</time></trkpt><trkpt lat="48.87642356561797" lon="7.021821253554179"><ele>269.25</ele><time>2026-05-03T05:47:42Z</time></trkpt><trkpt lat="48.876558415435156" lon="7.02175954283447"><ele>268.0</ele><time>2026-05-03T05:47:43Z</time></trkpt><trkpt lat="48.876692263283495" lon="7.021692768524302"><ele>267.75</ele><time>2026-05-03T05:47:44Z</time></trkpt><trkpt lat="48.87682076029297" lon="7.021605750186187"><ele>267.5</ele><time>2026-05-03T05:47:45Z</time></trkpt><trkpt lat="48.876945572765166" lon="7.021501324933937"><ele>267.25</ele><time>2026-05-03T05:47:46Z</time></trkpt><trkpt lat="48.877065139663266" lon="7.021390087103964"><ele>267.0</ele><time>2026-05-03T05:47:47Z</time></trkpt><trkpt lat="48.87719133683008" lon="7.021288078244012"><ele>267.0</ele><time>2026-05-03T05:47:48Z</time></trkpt><trkpt lat="48.877313946636555" lon="7.021164559282006"><ele>267.0</ele><time>2026-05-03T05:47:49Z</time></trkpt><trkpt lat="48.877434382728914" lon="7.021035893987993"><ele>267.0</ele><time>2026-05-03T05:47:50Z</time></trkpt><trkpt lat="48.8775517765902" lon="7.0209091639988"><ele>267.0</ele><time>2026-05-03T05:47:51Z</time></trkpt><trkpt lat="48.87765090882453" lon="7.020775732862973"><ele>266.75</ele><time>2026-05-03T05:47:52Z</time></trkpt><trkpt lat="48.87775523398433" lon="7.020670865949972"><ele>266.5</ele><time>2026-05-03T05:47:53Z</time></trkpt><trkpt lat="48.877863199876636" lon="7.0205956877775995"><ele>266.25</ele><time>2026-05-03T05:47:54Z</time></trkpt><trkpt lat="48.877959430691774" lon="7.020509926482032"><ele>266.0</ele><time>2026-05-03T05:47:55Z</time></trkpt><trkpt lat="48.87805977827016" lon="7.020422714255078"><ele>266.0</ele><time>2026-05-03T05:47:55.999Z</time></trkpt><trkpt lat="48.87816155380318" lon="7.020318223857682"><ele>266.0</ele><time>2026-05-03T05:47:56.999Z</time></trkpt><trkpt lat="48.878274051213715" lon="7.020220415630011"><ele>266.0</ele><time>2026-05-03T05:47:57.999Z</time></trkpt><trkpt lat="48.87838959975794" lon="7.020125296927016"><ele>266.0</ele><time>2026-05-03T05:47:58.999Z</time></trkpt><trkpt lat="48.87849600287096" lon="7.020036065872879"><ele>265.25</ele><time>2026-05-03T05:47:59.999Z</time></trkpt><trkpt lat="48.87859699213988" lon="7.019956144421116"><ele>264.5</ele><time>2026-05-03T05:48:00.999Z</time></trkpt><trkpt lat="48.87869434304286" lon="7.019874585404876"><ele>263.75</ele><time>2026-05-03T05:48:01.999Z</time></trkpt><trkpt lat="48.878796557466636" lon="7.019790756834386"><ele>263.0</ele><time>2026-05-03T05:48:02.999Z</time></trkpt><trkpt lat="48.87890078559185" lon="7.019705359902601"><ele>263.0</ele><time>2026-05-03T05:48:03.999Z</time></trkpt><trkpt lat="48.879010464238306" lon="7.019615056769038"><ele>263.0</ele><time>2026-05-03T05:48:04.999Z</time></trkpt><trkpt lat="48.87912662194101" lon="7.019519449923026"><ele>263.0</ele><time>2026-05-03T05:48:05.999Z</time></trkpt><trkpt lat="48.879246584728726" lon="7.019420328848486"><ele>263.0</ele><time>2026-05-03T05:48:06.999Z</time></trkpt><trkpt lat="48.87937714682007" lon="7.019354490282788"><ele>262.0</ele><time>2026-05-03T05:48:07.999Z</time></trkpt><trkpt lat="48.87949468612114" lon="7.019297400018112"><ele>261.0</ele><time>2026-05-03T05:48:08.999Z</time></trkpt><trkpt lat="48.879616385747084" lon="7.019251758172833"><ele>260.0</ele><time>2026-05-03T05:48:09.999Z</time></trkpt><trkpt lat="48.87973904173439" lon="7.019226724908153"><ele>259.0</ele><time>2026-05-03T05:48:10.999Z</time></trkpt><trkpt lat="48.87986860486169" lon="7.019224425941252"><ele>259.0</ele><time>2026-05-03T05:48:11.999Z</time></trkpt><trkpt lat="48.87999678890959" lon="7.019243095190868"><ele>259.0</ele><time>2026-05-03T05:48:12.999Z</time></trkpt><trkpt lat="48.88012630141121" lon="7.019275636726002"><ele>259.0</ele><time>2026-05-03T05:48:13.999Z</time></trkpt><trkpt lat="48.88025753706951" lon="7.019301991530046"><ele>259.0</ele><time>2026-05-03T05:48:14.999Z</time></trkpt><trkpt lat="48.880391006347374" lon="7.019357161281947"><ele>261.25</ele><time>2026-05-03T05:48:15.999Z</time></trkpt><trkpt lat="48.88052533475263" lon="7.019393273418004"><ele>263.5</ele><time>2026-05-03T05:48:16.999Z</time></trkpt><trkpt lat="48.88065259911793" lon="7.019445205126736"><ele>265.75</ele><time>2026-05-03T05:48:17.999Z</time></trkpt><trkpt lat="48.8807804818244" lon="7.0195032849227035"><ele>268.0</ele><time>2026-05-03T05:48:18.999Z</time></trkpt><trkpt lat="48.880916711380195" lon="7.019553845776997"><ele>268.5</ele><time>2026-05-03T05:48:19.999Z</time></trkpt><trkpt lat="48.88105036518347" lon="7.0196287447264805"><ele>269.0</ele><time>2026-05-03T05:48:20.999Z</time></trkpt><trkpt lat="48.88118088026976" lon="7.019654947376494"><ele>269.5</ele><time>2026-05-03T05:48:21.999Z</time></trkpt><trkpt lat="48.881308129149964" lon="7.0197020082881885"><ele>270.0</ele><time>2026-05-03T05:48:22.999Z</time></trkpt><trkpt lat="48.881432511660066" lon="7.0197530145930545"><ele>270.0</ele><time>2026-05-03T05:48:23.999Z</time></trkpt><trkpt lat="48.881544265488316" lon="7.019799161851259"><ele>270.0</ele><time>2026-05-03T05:48:24.999Z</time></trkpt><trkpt lat="48.88165124599608" lon="7.019831715510234"><ele>270.0</ele><time>2026-05-03T05:48:25.999Z</time></trkpt><trkpt lat="48.88176067952334" lon="7.019870768561104"><ele>270.0</ele><time>2026-05-03T05:48:26.999Z</time></trkpt><trkpt lat="48.88188800379283" lon="7.019804146014259"><ele>269.5</ele><time>2026-05-03T05:48:27.999Z</time></trkpt><trkpt lat="48.88201519347925" lon="7.019777283598849"><ele>269.0</ele><time>2026-05-03T05:48:28.999Z</time></trkpt><trkpt lat="48.88214540387062" lon="7.019733701688552"><ele>268.5</ele><time>2026-05-03T05:48:29.999Z</time></trkpt><trkpt lat="48.8822785761569" lon="7.0196591969798146"><ele>268.0</ele><time>2026-05-03T05:48:30.999Z</time></trkpt><trkpt lat="48.88241348284533" lon="7.019633605366263"><ele>268.0</ele><time>2026-05-03T05:48:31.999Z</time></trkpt><trkpt lat="48.88253287453587" lon="7.019589883620839"><ele>268.0</ele><time>2026-05-03T05:48:32.999Z</time></trkpt><trkpt lat="48.88264203572088" lon="7.019525690626171"><ele>268.0</ele><time>2026-05-03T05:48:33.999Z</time></trkpt><trkpt lat="48.88274678129248" lon="7.019519491802438"><ele>268.0</ele><time>2026-05-03T05:48:34.999Z</time></trkpt><trkpt lat="48.88284501500134" lon="7.019496422871393"><ele>268.0</ele><time>2026-05-03T05:48:35.999Z</time></trkpt><trkpt lat="48.88293961875691" lon="7.019487106567173"><ele>267.8</ele><time>2026-05-03T05:48:36.999Z</time></trkpt><trkpt lat="48.88302633705363" lon="7.0195053004780705"><ele>267.6</ele><time>2026-05-03T05:48:37.999Z</time></trkpt><trkpt lat="48.88310938627621" lon="7.01956668557653"><ele>267.4</ele><time>2026-05-03T05:48:38.999Z</time></trkpt><trkpt lat="48.88321517315799" lon="7.019625647039408"><ele>267.2</ele><time>2026-05-03T05:48:39.999Z</time></trkpt><trkpt lat="48.883310117104365" lon="7.019671519354708"><ele>267.0</ele><time>2026-05-03T05:48:40.999Z</time></trkpt><trkpt lat="48.88339324831593" lon="7.019721075887813"><ele>267.2</ele><time>2026-05-03T05:48:42Z</time></trkpt><trkpt lat="48.88346974517868" lon="7.019764166404321"><ele>267.4</ele><time>2026-05-03T05:48:43Z</time></trkpt><trkpt lat="48.88355346650643" lon="7.019823107648891"><ele>267.6</ele><time>2026-05-03T05:48:44Z</time></trkpt><trkpt lat="48.883641655881675" lon="7.019810264137733"><ele>267.8</ele><time>2026-05-03T05:48:45Z</time></trkpt><trkpt lat="48.88373153827298" lon="7.019805650136884"><ele>268.0</ele><time>2026-05-03T05:48:46Z</time></trkpt><trkpt lat="48.88382914928424" lon="7.01976240015568"><ele>268.0</ele><time>2026-05-03T05:48:47Z</time></trkpt><trkpt lat="48.88393356348381" lon="7.019700855064563"><ele>268.0</ele><time>2026-05-03T05:48:48Z</time></trkpt><trkpt lat="48.884032460681205" lon="7.019637406336756"><ele>268.0</ele><time>2026-05-03T05:48:49Z</time></trkpt><trkpt lat="48.88413378767625" lon="7.019620595355683"><ele>268.0</ele><time>2026-05-03T05:48:50Z</time></trkpt><trkpt lat="48.88424075089964" lon="7.019614772729566"><ele>268.0</ele><time>2026-05-03T05:48:51Z</time></trkpt><trkpt lat="48.88435666586319" lon="7.019632552612964"><ele>267.75</ele><time>2026-05-03T05:48:52Z</time></trkpt><trkpt lat="48.884465570673555" lon="7.019657133061927"><ele>267.5</ele><time>2026-05-03T05:48:53Z</time></trkpt><trkpt lat="48.88457428880789" lon="7.019667651931076"><ele>267.25</ele><time>2026-05-03T05:48:54Z</time></trkpt><trkpt lat="48.88469325281189" lon="7.019687598172167"><ele>267.0</ele><time>2026-05-03T05:48:55Z</time></trkpt><trkpt lat="48.884812505334615" lon="7.019685181908193"><ele>267.0</ele><time>2026-05-03T05:48:56Z</time></trkpt><trkpt lat="48.88493643015839" lon="7.019690292207108"><ele>267.0</ele><time>2026-05-03T05:48:57Z</time></trkpt><trkpt lat="48.885059949581894" lon="7.019697656886313"><ele>267.0</ele><time>2026-05-03T05:48:58Z</time></trkpt><trkpt lat="48.88518200526259" lon="7.019711370871497"><ele>267.0</ele><time>2026-05-03T05:48:59Z</time></trkpt><trkpt lat="48.88529978880699" lon="7.019730513792187"><ele>268.25</ele><time>2026-05-03T05:49:00Z</time></trkpt><trkpt lat="48.88541403909791" lon="7.019754320621695"><ele>269.5</ele><time>2026-05-03T05:49:01Z</time></trkpt><trkpt lat="48.885527728828" lon="7.019786170807383"><ele>270.75</ele><time>2026-05-03T05:49:02Z</time></trkpt><trkpt lat="48.885631939434795" lon="7.019843329277831"><ele>272.0</ele><time>2026-05-03T05:49:03Z</time></trkpt><trkpt lat="48.88574641722732" lon="7.019865335006089"><ele>272.0</ele><time>2026-05-03T05:49:04Z</time></trkpt><trkpt lat="48.88587343955233" lon="7.019861885849882"><ele>272.0</ele><time>2026-05-03T05:49:05Z</time></trkpt><trkpt lat="48.8859885452253" lon="7.0198953346083455"><ele>272.0</ele><time>2026-05-03T05:49:06Z</time></trkpt><trkpt lat="48.88611463749988" lon="7.019846429460161"><ele>272.0</ele><time>2026-05-03T05:49:07Z</time></trkpt><trkpt lat="48.886246068667845" lon="7.019836454992733"><ele>273.5</ele><time>2026-05-03T05:49:08Z</time></trkpt><trkpt lat="48.88637196857067" lon="7.01978407147338"><ele>275.0</ele><time>2026-05-03T05:49:09Z</time></trkpt><trkpt lat="48.88649420243093" lon="7.019737219211447"><ele>276.5</ele><time>2026-05-03T05:49:10Z</time></trkpt><trkpt lat="48.88661335438627" lon="7.0196830160043655"><ele>278.0</ele><time>2026-05-03T05:49:11Z</time></trkpt><trkpt lat="48.8867300292488" lon="7.019632684269301"><ele>278.4</ele><time>2026-05-03T05:49:12Z</time></trkpt><trkpt lat="48.8868461054734" lon="7.01958855312702"><ele>278.8</ele><time>2026-05-03T05:49:13Z</time></trkpt><trkpt lat="48.88695908998084" lon="7.019540795834544"><ele>279.2</ele><time>2026-05-03T05:49:14Z</time></trkpt><trkpt lat="48.88706274321774" lon="7.019519899912048"><ele>279.6</ele><time>2026-05-03T05:49:15Z</time></trkpt><trkpt lat="48.88715931271287" lon="7.019483115885675"><ele>280.0</ele><time>2026-05-03T05:49:16Z</time></trkpt><trkpt lat="48.88724038701186" lon="7.019454851159319"><ele>280.0</ele><time>2026-05-03T05:49:17Z</time></trkpt><trkpt lat="48.887310231753844" lon="7.019432392841266"><ele>280.0</ele><time>2026-05-03T05:49:18Z</time></trkpt><trkpt lat="48.88740054815467" lon="7.019404611519863"><ele>280.0</ele><time>2026-05-03T05:49:19Z</time></trkpt><trkpt lat="48.88750197061023" lon="7.019373414928211"><ele>280.0</ele><time>2026-05-03T05:49:20Z</time></trkpt><trkpt lat="48.88760335391805" lon="7.019252488202153"><ele>280.0</ele><time>2026-05-03T05:49:21Z</time></trkpt><trkpt lat="48.88771510751604" lon="7.019194432800692"><ele>280.0</ele><time>2026-05-03T05:49:22Z</time></trkpt><trkpt lat="48.88784221902771" lon="7.019130077937309"><ele>280.0</ele><time>2026-05-03T05:49:23Z</time></trkpt><trkpt lat="48.887956966369785" lon="7.0190714195812385"><ele>280.0</ele><time>2026-05-03T05:49:24Z</time></trkpt><trkpt lat="48.88806439346516" lon="7.019015734368956"><ele>280.0</ele><time>2026-05-03T05:49:25Z</time></trkpt><trkpt lat="48.88818107786768" lon="7.018967606182437"><ele>280.0</ele><time>2026-05-03T05:49:26Z</time></trkpt><trkpt lat="48.88829334932444" lon="7.01891094704528"><ele>280.0</ele><time>2026-05-03T05:49:27Z</time></trkpt><trkpt lat="48.888397975480224" lon="7.018857738955479"><ele>280.0</ele><time>2026-05-03T05:49:28Z</time></trkpt><trkpt lat="48.88849914053258" lon="7.018809527944773"><ele>280.0</ele><time>2026-05-03T05:49:29Z</time></trkpt><trkpt lat="48.88859801279248" lon="7.018756197420673"><ele>280.0</ele><time>2026-05-03T05:49:30Z</time></trkpt><trkpt lat="48.888705274524284" lon="7.018706314613506"><ele>279.4</ele><time>2026-05-03T05:49:31Z</time></trkpt><trkpt lat="48.8888089945735" lon="7.018692173116945"><ele>278.8</ele><time>2026-05-03T05:49:32Z</time></trkpt><trkpt lat="48.88890931701269" lon="7.0186644379557785"><ele>278.2</ele><time>2026-05-03T05:49:33Z</time></trkpt><trkpt lat="48.88901374583219" lon="7.018721347251235"><ele>277.6</ele><time>2026-05-03T05:49:34Z</time></trkpt><trkpt lat="48.88912406172924" lon="7.018760107074541"><ele>277.0</ele><time>2026-05-03T05:49:35Z</time></trkpt><trkpt lat="48.889227073894546" lon="7.018836840651051"><ele>276.2</ele><time>2026-05-03T05:49:36Z</time></trkpt><trkpt lat="48.88932831969188" lon="7.018911145687144"><ele>275.4</ele><time>2026-05-03T05:49:37Z</time></trkpt><trkpt lat="48.88942611067656" lon="7.018971077614245"><ele>274.6</ele><time>2026-05-03T05:49:38Z</time></trkpt><trkpt lat="48.88951276272972" lon="7.0190246800599025"><ele>273.8</ele><time>2026-05-03T05:49:39Z</time></trkpt><trkpt lat="48.88959333655382" lon="7.019078967418628"><ele>273.0</ele><time>2026-05-03T05:49:40Z</time></trkpt><trkpt lat="48.88966532176004" lon="7.019139260609796"><ele>273.0</ele><time>2026-05-03T05:49:41Z</time></trkpt><trkpt lat="48.88974215980765" lon="7.0191297971529725"><ele>273.0</ele><time>2026-05-03T05:49:42Z</time></trkpt><trkpt lat="48.88981155805411" lon="7.019070051457376"><ele>273.0</ele><time>2026-05-03T05:49:43Z</time></trkpt><trkpt lat="48.889872708746346" lon="7.018966222616862"><ele>273.0</ele><time>2026-05-03T05:49:44Z</time></trkpt><trkpt lat="48.88992555276426" lon="7.018817698192345"><ele>273.0</ele><time>2026-05-03T05:49:45Z</time></trkpt><trkpt lat="48.88996770682742" lon="7.018637171375599"><ele>273.0</ele><time>2026-05-03T05:49:46Z</time></trkpt><trkpt lat="48.890020800762656" lon="7.01844768301321"><ele>273.0</ele><time>2026-05-03T05:49:47Z</time></trkpt><trkpt lat="48.8900899402102" lon="7.018284902614799"><ele>273.0</ele><time>2026-05-03T05:49:48Z</time></trkpt><trkpt lat="48.89014030206551" lon="7.0180818704042505"><ele>273.0</ele><time>2026-05-03T05:49:49Z</time></trkpt><trkpt lat="48.890198227316674" lon="7.01789110529068"><ele>271.5</ele><time>2026-05-03T05:49:50Z</time></trkpt><trkpt lat="48.89027215733597" lon="7.017700240663816"><ele>270.0</ele><time>2026-05-03T05:49:51Z</time></trkpt><trkpt lat="48.8903252522952" lon="7.017494645067495"><ele>268.5</ele><time>2026-05-03T05:49:52Z</time></trkpt><trkpt lat="48.890383605973874" lon="7.0172995184991125"><ele>267.0</ele><time>2026-05-03T05:49:53Z</time></trkpt><trkpt lat="48.8904503805173" lon="7.017115249105523"><ele>266.5</ele><time>2026-05-03T05:49:54Z</time></trkpt><trkpt lat="48.89050352459704" lon="7.016925263885918"><ele>266.0</ele><time>2026-05-03T05:49:55Z</time></trkpt><trkpt lat="48.89056043905369" lon="7.016736468174617"><ele>265.5</ele><time>2026-05-03T05:49:56Z</time></trkpt><trkpt lat="48.89061750247584" lon="7.016544243239418"><ele>265.0</ele><time>2026-05-03T05:49:57Z</time></trkpt><trkpt lat="48.890687434425566" lon="7.016358034161975"><ele>264.5</ele><time>2026-05-03T05:49:58Z</time></trkpt><trkpt lat="48.89073100115477" lon="7.016159562294863"><ele>264.0</ele><time>2026-05-03T05:49:59Z</time></trkpt><trkpt lat="48.89079185337319" lon="7.0159655465236765"><ele>263.5</ele><time>2026-05-03T05:50:00Z</time></trkpt><trkpt lat="48.89086444973052" lon="7.0157855987794635"><ele>263.0</ele><time>2026-05-03T05:50:01Z</time></trkpt><trkpt lat="48.890923840141014" lon="7.015593541001635"><ele>262.25</ele><time>2026-05-03T05:50:02Z</time></trkpt><trkpt lat="48.89098444064989" lon="7.015397570059046"><ele>261.5</ele><time>2026-05-03T05:50:03Z</time></trkpt><trkpt lat="48.89104481358465" lon="7.015202430242423"><ele>260.75</ele><time>2026-05-03T05:50:04Z</time></trkpt><trkpt lat="48.89110584140361" lon="7.015006411556165"><ele>260.0</ele><time>2026-05-03T05:50:05Z</time></trkpt><trkpt lat="48.89116625636846" lon="7.014812361372227"><ele>259.75</ele><time>2026-05-03T05:50:06Z</time></trkpt><trkpt lat="48.8912265009416" lon="7.0146188584976565"><ele>259.5</ele><time>2026-05-03T05:50:07Z</time></trkpt><trkpt lat="48.891288306736165" lon="7.014420340854241"><ele>259.25</ele><time>2026-05-03T05:50:08Z</time></trkpt><trkpt lat="48.89134911279458" lon="7.014225840250973"><ele>259.0</ele><time>2026-05-03T05:50:09Z</time></trkpt><trkpt lat="48.89141106360329" lon="7.0140283843060045"><ele>259.0</ele><time>2026-05-03T05:50:10Z</time></trkpt><trkpt lat="48.89147381151979" lon="7.013828387995199"><ele>259.0</ele><time>2026-05-03T05:50:10.999Z</time></trkpt><trkpt lat="48.891533325841266" lon="7.013638697847212"><ele>259.0</ele><time>2026-05-03T05:50:11.999Z</time></trkpt><trkpt lat="48.891592711639476" lon="7.013450269724347"><ele>259.0</ele><time>2026-05-03T05:50:12.999Z</time></trkpt><trkpt lat="48.891655558783796" lon="7.013252024683516"><ele>258.5</ele><time>2026-05-03T05:50:13.999Z</time></trkpt><trkpt lat="48.891716185660826" lon="7.013060783484848"><ele>258.0</ele><time>2026-05-03T05:50:14.999Z</time></trkpt><trkpt lat="48.891777715411706" lon="7.012866694082499"><ele>257.5</ele><time>2026-05-03T05:50:15.999Z</time></trkpt><trkpt lat="48.89184419988542" lon="7.012659044397276"><ele>257.0</ele><time>2026-05-03T05:50:16.999Z</time></trkpt><trkpt lat="48.89191216239522" lon="7.0124480900470605"><ele>256.33333333333337</ele><time>2026-05-03T05:50:17.999Z</time></trkpt><trkpt lat="48.891978394823646" lon="7.012242506144159"><ele>255.66666666666669</ele><time>2026-05-03T05:50:18.999Z</time></trkpt><trkpt lat="48.89204567440672" lon="7.012033671276257"><ele>255.0</ele><time>2026-05-03T05:50:19.999Z</time></trkpt><trkpt lat="48.892110824984066" lon="7.011831445302346"><ele>255.5</ele><time>2026-05-03T05:50:20.999Z</time></trkpt><trkpt lat="48.892171458855756" lon="7.011643238972565"><ele>256.0</ele><time>2026-05-03T05:50:21.999Z</time></trkpt><trkpt lat="48.89223243149623" lon="7.011453981320147"><ele>256.5</ele><time>2026-05-03T05:50:22.999Z</time></trkpt><trkpt lat="48.89229549669949" lon="7.011250775621131"><ele>257.0</ele><time>2026-05-03T05:50:23.999Z</time></trkpt><trkpt lat="48.892357836068314" lon="7.011047037699524"><ele>257.0</ele><time>2026-05-03T05:50:24.999Z</time></trkpt><trkpt lat="48.892418736128064" lon="7.0108418272815145"><ele>257.0</ele><time>2026-05-03T05:50:25.999Z</time></trkpt><trkpt lat="48.892477307460695" lon="7.010639343517716"><ele>257.0</ele><time>2026-05-03T05:50:26.999Z</time></trkpt><trkpt lat="48.8925326723393" lon="7.010447943930313"><ele>257.0</ele><time>2026-05-03T05:50:27.999Z</time></trkpt><trkpt lat="48.89258828927056" lon="7.010255675522964"><ele>257.0</ele><time>2026-05-03T05:50:28.999Z</time></trkpt><trkpt lat="48.89264064663765" lon="7.010075025867345"><ele>257.0</ele><time>2026-05-03T05:50:29.999Z</time></trkpt><trkpt lat="48.89269686696327" lon="7.009894941430325"><ele>257.0</ele><time>2026-05-03T05:50:30.999Z</time></trkpt><trkpt lat="48.892748650327796" lon="7.00972980760003"><ele>257.0</ele><time>2026-05-03T05:50:31.999Z</time></trkpt><trkpt lat="48.89279830328046" lon="7.009586008766128"><ele>256.6</ele><time>2026-05-03T05:50:32.999Z</time></trkpt><trkpt lat="48.89284487851355" lon="7.00946703714724"><ele>256.2</ele><time>2026-05-03T05:50:33.999Z</time></trkpt><trkpt lat="48.89289593370568" lon="7.009368718207385"><ele>255.8</ele><time>2026-05-03T05:50:34.999Z</time></trkpt><trkpt lat="48.892962766200526" lon="7.009288324415478"><ele>255.4</ele><time>2026-05-03T05:50:35.999Z</time></trkpt><trkpt lat="48.89305045469302" lon="7.009221452284068"><ele>255.0</ele><time>2026-05-03T05:50:36.999Z</time></trkpt><trkpt lat="48.89315576977207" lon="7.009150757893329"><ele>255.0</ele><time>2026-05-03T05:50:37.999Z</time></trkpt><trkpt lat="48.893267547211856" lon="7.0091004971554325"><ele>255.0</ele><time>2026-05-03T05:50:38.999Z</time></trkpt><trkpt lat="48.893378453749904" lon="7.009036059165113"><ele>255.0</ele><time>2026-05-03T05:50:39.999Z</time></trkpt><trkpt lat="48.89351690570179" lon="7.0089674734871314"><ele>255.0</ele><time>2026-05-03T05:50:40.999Z</time></trkpt><trkpt lat="48.89366002580144" lon="7.008884711803048"><ele>254.66666666666669</ele><time>2026-05-03T05:50:41.999Z</time></trkpt><trkpt lat="48.89381793459203" lon="7.008799958538934"><ele>254.33333333333334</ele><time>2026-05-03T05:50:42.999Z</time></trkpt><trkpt lat="48.89395926200238" lon="7.008718464506927"><ele>254.0</ele><time>2026-05-03T05:50:43.999Z</time></trkpt><trkpt lat="48.8941116966667" lon="7.008637203087702"><ele>254.0</ele><time>2026-05-03T05:50:44.999Z</time></trkpt><trkpt lat="48.89426394882912" lon="7.00855117957622"><ele>254.0</ele><time>2026-05-03T05:50:45.999Z</time></trkpt><trkpt lat="48.89442884894439" lon="7.008468793826744"><ele>254.0</ele><time>2026-05-03T05:50:46.999Z</time></trkpt><trkpt lat="48.894586318369065" lon="7.00838384806291"><ele>254.66666666666669</ele><time>2026-05-03T05:50:48Z</time></trkpt><trkpt lat="48.8947356139668" lon="7.00830425321663"><ele>255.33333333333331</ele><time>2026-05-03T05:50:49Z</time></trkpt><trkpt lat="48.89488460777559" lon="7.008226146114183"><ele>256.0</ele><time>2026-05-03T05:50:50Z</time></trkpt><trkpt lat="48.8950357952873" lon="7.008144048333436"><ele>254.33333333333331</ele><time>2026-05-03T05:50:51Z</time></trkpt><trkpt lat="48.895188932551015" lon="7.008057883150666"><ele>252.66666666666669</ele><time>2026-05-03T05:50:52Z</time></trkpt><trkpt lat="48.895352446978315" lon="7.007993428501087"><ele>251.0</ele><time>2026-05-03T05:50:53Z</time></trkpt><trkpt lat="48.89551129258003" lon="7.007908171531132"><ele>251.0</ele><time>2026-05-03T05:50:54Z</time></trkpt><trkpt lat="48.89566648001866" lon="7.0078248780010695"><ele>251.0</ele><time>2026-05-03T05:50:55Z</time></trkpt><trkpt lat="48.895824422356284" lon="7.00774010569455"><ele>251.0</ele><time>2026-05-03T05:50:56Z</time></trkpt><trkpt lat="48.89598544977854" lon="7.007653677744741"><ele>251.0</ele><time>2026-05-03T05:50:57Z</time></trkpt><trkpt lat="48.89614550927622" lon="7.00756732580061"><ele>251.0</ele><time>2026-05-03T05:50:58Z</time></trkpt><trkpt lat="48.89630356819467" lon="7.007481718692866"><ele>251.0</ele><time>2026-05-03T05:50:59Z</time></trkpt><trkpt lat="48.89646029967446" lon="7.007396043283725"><ele>251.0</ele><time>2026-05-03T05:51:00Z</time></trkpt><trkpt lat="48.89661366512622" lon="7.007311488475208"><ele>251.0</ele><time>2026-05-03T05:51:01Z</time></trkpt><trkpt lat="48.896769358888825" lon="7.007225661361572"><ele>251.0</ele><time>2026-05-03T05:51:02Z</time></trkpt><trkpt lat="48.89692719978881" lon="7.007137499989358"><ele>251.66666666666669</ele><time>2026-05-03T05:51:03Z</time></trkpt><trkpt lat="48.89708543728647" lon="7.007049117214488"><ele>252.33333333333331</ele><time>2026-05-03T05:51:04Z</time></trkpt><trkpt lat="48.89724117180544" lon="7.006962132245138"><ele>253.0</ele><time>2026-05-03T05:51:05Z</time></trkpt><trkpt lat="48.89739386166972" lon="7.006876850160953"><ele>253.0</ele><time>2026-05-03T05:51:06Z</time></trkpt><trkpt lat="48.89754312895927" lon="7.0067934775723195"><ele>253.0</ele><time>2026-05-03T05:51:07Z</time></trkpt><trkpt lat="48.89769122631235" lon="7.006710268959343"><ele>253.0</ele><time>2026-05-03T05:51:08Z</time></trkpt><trkpt lat="48.897841305404775" lon="7.00662499773052"><ele>251.33333333333331</ele><time>2026-05-03T05:51:09Z</time></trkpt><trkpt lat="48.8979932977993" lon="7.006538639495991"><ele>249.66666666666669</ele><time>2026-05-03T05:51:10Z</time></trkpt><trkpt lat="48.89813626511499" lon="7.006457409018573"><ele>248.0</ele><time>2026-05-03T05:51:11Z</time></trkpt><trkpt lat="48.89829068741393" lon="7.0063696702271105"><ele>246.0</ele><time>2026-05-03T05:51:12Z</time></trkpt><trkpt lat="48.89844131400271" lon="7.006256811942996"><ele>244.0</ele><time>2026-05-03T05:51:13Z</time></trkpt><trkpt lat="48.89858974122946" lon="7.006173064409384"><ele>242.0</ele><time>2026-05-03T05:51:14Z</time></trkpt><trkpt lat="48.89873311571317" lon="7.006092135777274"><ele>242.0</ele><time>2026-05-03T05:51:15Z</time></trkpt><trkpt lat="48.89887204052865" lon="7.006015822959378"><ele>242.0</ele><time>2026-05-03T05:51:16Z</time></trkpt><trkpt lat="48.89900864480424" lon="7.005940791295144"><ele>242.0</ele><time>2026-05-03T05:51:17Z</time></trkpt><trkpt lat="48.899138852026645" lon="7.005867595064837"><ele>242.0</ele><time>2026-05-03T05:51:18Z</time></trkpt><trkpt lat="48.899266359356" lon="7.005798511935945"><ele>243.0</ele><time>2026-05-03T05:51:19Z</time></trkpt><trkpt lat="48.899391059477985" lon="7.005733559171467"><ele>244.0</ele><time>2026-05-03T05:51:20Z</time></trkpt><trkpt lat="48.89950883228693" lon="7.005672026705012"><ele>245.0</ele><time>2026-05-03T05:51:21Z</time></trkpt><trkpt lat="48.89962205133116" lon="7.0056098978511"><ele>246.0</ele><time>2026-05-03T05:51:22Z</time></trkpt><trkpt lat="48.899734419349585" lon="7.005545580656097"><ele>246.0</ele><time>2026-05-03T05:51:23Z</time></trkpt><trkpt lat="48.89985089289409" lon="7.005478856636815"><ele>246.0</ele><time>2026-05-03T05:51:24Z</time></trkpt><trkpt lat="48.89997446238711" lon="7.005408603877796"><ele>246.0</ele><time>2026-05-03T05:51:25Z</time></trkpt><trkpt lat="48.90010400013425" lon="7.0053468795481235"><ele>246.0</ele><time>2026-05-03T05:51:26Z</time></trkpt><trkpt lat="48.90022952563654" lon="7.0052750661645815"><ele>244.25</ele><time>2026-05-03T05:51:27Z</time></trkpt><trkpt lat="48.90035102007681" lon="7.005207735227204"><ele>242.5</ele><time>2026-05-03T05:51:28Z</time></trkpt><trkpt lat="48.900468123549444" lon="7.005146451105767"><ele>240.75</ele><time>2026-05-03T05:51:29Z</time></trkpt><trkpt lat="48.90058236510924" lon="7.005078206248622"><ele>239.0</ele><time>2026-05-03T05:51:30Z</time></trkpt><trkpt lat="48.900691459625726" lon="7.005009146243167"><ele>239.25</ele><time>2026-05-03T05:51:31Z</time></trkpt><trkpt lat="48.90081005125118" lon="7.004944657119623"><ele>239.5</ele><time>2026-05-03T05:51:32Z</time></trkpt><trkpt lat="48.900925662713995" lon="7.004891833724981"><ele>239.75</ele><time>2026-05-03T05:51:33Z</time></trkpt><trkpt lat="48.90103252882504" lon="7.0048290384835905"><ele>240.0</ele><time>2026-05-03T05:51:34Z</time></trkpt><trkpt lat="48.901149528845814" lon="7.004770947698629"><ele>235.25</ele><time>2026-05-03T05:51:35Z</time></trkpt><trkpt lat="48.90126124693969" lon="7.0047155428525025"><ele>230.5</ele><time>2026-05-03T05:51:36Z</time></trkpt><trkpt lat="48.901369011167944" lon="7.0046526417045625"><ele>225.75</ele><time>2026-05-03T05:51:37Z</time></trkpt><trkpt lat="48.90148384410608" lon="7.004588707365533"><ele>221.0</ele><time>2026-05-03T05:51:38Z</time></trkpt><trkpt lat="48.901585459697834" lon="7.00453473901417"><ele>221.0</ele><time>2026-05-03T05:51:39Z</time></trkpt><trkpt lat="48.90169044380144" lon="7.004480783491624"><ele>221.0</ele><time>2026-05-03T05:51:40Z</time></trkpt><trkpt lat="48.90179420151077" lon="7.004427525065274"><ele>221.0</ele><time>2026-05-03T05:51:41Z</time></trkpt><trkpt lat="48.90190137362783" lon="7.004366519989655"><ele>221.0</ele><time>2026-05-03T05:51:42Z</time></trkpt><trkpt lat="48.90201030026619" lon="7.004302970722867"><ele>221.0</ele><time>2026-05-03T05:51:43Z</time></trkpt><trkpt lat="48.90212242211452" lon="7.004243396518361"><ele>221.0</ele><time>2026-05-03T05:51:44Z</time></trkpt><trkpt lat="48.90223318372751" lon="7.004182503114599"><ele>221.0</ele><time>2026-05-03T05:51:45Z</time></trkpt><trkpt lat="48.90233966258425" lon="7.004120095122953"><ele>221.0</ele><time>2026-05-03T05:51:46Z</time></trkpt><trkpt lat="48.902435649900134" lon="7.00406193613651"><ele>221.00000000000003</ele><time>2026-05-03T05:51:47Z</time></trkpt><trkpt lat="48.902518658694646" lon="7.00400564888993"><ele>221.0</ele><time>2026-05-03T05:51:48Z</time></trkpt><trkpt lat="48.90258912106272" lon="7.003954921364166"><ele>221.0</ele><time>2026-05-03T05:51:49Z</time></trkpt><trkpt lat="48.90265003595459" lon="7.003909000686629"><ele>221.0</ele><time>2026-05-03T05:51:50Z</time></trkpt><trkpt lat="48.902707382509504" lon="7.003859793388199"><ele>221.00000000000003</ele><time>2026-05-03T05:51:51Z</time></trkpt><trkpt lat="48.90276220656836" lon="7.003810786516965"><ele>221.0</ele><time>2026-05-03T05:51:52Z</time></trkpt><trkpt lat="48.90284118683659" lon="7.003742057258254"><ele>222.60000000000002</ele><time>2026-05-03T05:51:54Z</time></trkpt><trkpt lat="48.9029110010795" lon="7.003706551480811"><ele>224.20000000000002</ele><time>2026-05-03T05:51:56Z</time></trkpt><trkpt lat="48.902988295987164" lon="7.00365230119259"><ele>225.79999999999998</ele><time>2026-05-03T05:51:58Z</time></trkpt><trkpt lat="48.903051453576914" lon="7.0036312859335546"><ele>227.39999999999998</ele><time>2026-05-03T05:52:01Z</time></trkpt><trkpt lat="48.9031611018083" lon="7.003587945717484"><ele>229.0</ele><time>2026-05-03T05:52:43.999Z</time></trkpt><trkpt lat="48.90326566229357" lon="7.003506296668166"><ele>228.99999999999997</ele><time>2026-05-03T05:52:45.999Z</time></trkpt><trkpt lat="48.90332345520069" lon="7.003421632464761"><ele>229.0</ele><time>2026-05-03T05:52:46.999Z</time></trkpt><trkpt lat="48.90338891567101" lon="7.003329288424931"><ele>229.0</ele><time>2026-05-03T05:52:47.999Z</time></trkpt><trkpt lat="48.903447757260906" lon="7.003235501761678"><ele>229.0</ele><time>2026-05-03T05:52:48.999Z</time></trkpt><trkpt lat="48.903505822014516" lon="7.003137316524656"><ele>228.99999999999997</ele><time>2026-05-03T05:52:49.999Z</time></trkpt><trkpt lat="48.903562948421424" lon="7.003035814817637"><ele>229.0</ele><time>2026-05-03T05:52:50.999Z</time></trkpt><trkpt lat="48.90363538820594" lon="7.002918064951847"><ele>231.25</ele><time>2026-05-03T05:52:51.999Z</time></trkpt><trkpt lat="48.90372099180326" lon="7.002781963276935"><ele>233.5</ele><time>2026-05-03T05:52:52.999Z</time></trkpt><trkpt lat="48.90381253094719" lon="7.002638798487812"><ele>235.75</ele><time>2026-05-03T05:52:54Z</time></trkpt><trkpt lat="48.90390313946767" lon="7.002482493041449"><ele>238.0</ele><time>2026-05-03T05:52:55Z</time></trkpt><trkpt lat="48.90400441626558" lon="7.002325051506513"><ele>238.0</ele><time>2026-05-03T05:52:56Z</time></trkpt><trkpt lat="48.90410447542373" lon="7.0021554744733745"><ele>238.0</ele><time>2026-05-03T05:52:57Z</time></trkpt><trkpt lat="48.90421259043081" lon="7.001988736729913"><ele>238.0</ele><time>2026-05-03T05:52:58Z</time></trkpt><trkpt lat="48.90431561989684" lon="7.001812927419646"><ele>238.5</ele><time>2026-05-03T05:52:59Z</time></trkpt><trkpt lat="48.90441897032233" lon="7.001643865471338"><ele>239.0</ele><time>2026-05-03T05:53:00Z</time></trkpt><trkpt lat="48.904516577744275" lon="7.001485238884119"><ele>239.5</ele><time>2026-05-03T05:53:01Z</time></trkpt><trkpt lat="48.90461269067857" lon="7.001325029584132"><ele>240.0</ele><time>2026-05-03T05:53:02Z</time></trkpt><trkpt lat="48.9047107265024" lon="7.001161462976988"><ele>240.0</ele><time>2026-05-03T05:53:03Z</time></trkpt><trkpt lat="48.904814713085635" lon="7.000994323179038"><ele>240.0</ele><time>2026-05-03T05:53:04Z</time></trkpt><trkpt lat="48.90491556111701" lon="7.000823194287795"><ele>240.0</ele><time>2026-05-03T05:53:05Z</time></trkpt><trkpt lat="48.9050087676739" lon="7.0006651037168295"><ele>240.0</ele><time>2026-05-03T05:53:06Z</time></trkpt><trkpt lat="48.905096114620875" lon="7.0005129482605835"><ele>237.0</ele><time>2026-05-03T05:53:07Z</time></trkpt><trkpt lat="48.905193080911175" lon="7.000365881406352"><ele>234.0</ele><time>2026-05-03T05:53:08Z</time></trkpt><trkpt lat="48.9052880728159" lon="7.000206481124138"><ele>231.0</ele><time>2026-05-03T05:53:09Z</time></trkpt><trkpt lat="48.90538483322813" lon="7.000047800551287"><ele>228.0</ele><time>2026-05-03T05:53:10Z</time></trkpt><trkpt lat="48.90548027132398" lon="6.999886964373925"><ele>228.0</ele><time>2026-05-03T05:53:11Z</time></trkpt><trkpt lat="48.90557827086196" lon="6.999728815600183"><ele>228.0</ele><time>2026-05-03T05:53:12Z</time></trkpt><trkpt lat="48.90567503897529" lon="6.999567469956291"><ele>228.0</ele><time>2026-05-03T05:53:13Z</time></trkpt><trkpt lat="48.90576894527185" lon="6.99940027773193"><ele>228.0</ele><time>2026-05-03T05:53:14Z</time></trkpt><trkpt lat="48.905868227350595" lon="6.999233529458224"><ele>227.75</ele><time>2026-05-03T05:53:15Z</time></trkpt><trkpt lat="48.905968691745066" lon="6.999070839691407"><ele>227.5</ele><time>2026-05-03T05:53:16Z</time></trkpt><trkpt lat="48.90606597003649" lon="6.998915204383603"><ele>227.25</ele><time>2026-05-03T05:53:17Z</time></trkpt><trkpt lat="48.906158988303574" lon="6.998754832078989"><ele>227.0</ele><time>2026-05-03T05:53:18Z</time></trkpt><trkpt lat="48.906251825517636" lon="6.998593725315314"><ele>227.0</ele><time>2026-05-03T05:53:19Z</time></trkpt><trkpt lat="48.90634932626282" lon="6.9984402903140355"><ele>227.0</ele><time>2026-05-03T05:53:20Z</time></trkpt><trkpt lat="48.90644713029325" lon="6.998286920308848"><ele>227.0</ele><time>2026-05-03T05:53:21Z</time></trkpt><trkpt lat="48.90653728548251" lon="6.998137344843224"><ele>227.0</ele><time>2026-05-03T05:53:22Z</time></trkpt><trkpt lat="48.90661851090427" lon="6.997998794997256"><ele>227.39999999999998</ele><time>2026-05-03T05:53:23Z</time></trkpt><trkpt lat="48.90669481332776" lon="6.997868964451242"><ele>227.79999999999998</ele><time>2026-05-03T05:53:24Z</time></trkpt><trkpt lat="48.906764766531964" lon="6.997747819475762"><ele>228.2</ele><time>2026-05-03T05:53:25Z</time></trkpt><trkpt lat="48.90683315856962" lon="6.997630042132536"><ele>228.6</ele><time>2026-05-03T05:53:26Z</time></trkpt><trkpt lat="48.906904754162724" lon="6.997515429770726"><ele>229.0</ele><time>2026-05-03T05:53:27Z</time></trkpt><trkpt lat="48.90698096714116" lon="6.997407249767902"><ele>228.2</ele><time>2026-05-03T05:53:28Z</time></trkpt><trkpt lat="48.90706137853453" lon="6.997298367645551"><ele>227.39999999999998</ele><time>2026-05-03T05:53:29Z</time></trkpt><trkpt lat="48.90714124559701" lon="6.99718305997243"><ele>226.6</ele><time>2026-05-03T05:53:30Z</time></trkpt><trkpt lat="48.907207918798676" lon="6.997075274068289"><ele>225.8</ele><time>2026-05-03T05:53:31Z</time></trkpt><trkpt lat="48.90727205928236" lon="6.9969681747100445"><ele>225.0</ele><time>2026-05-03T05:53:32Z</time></trkpt><trkpt lat="48.9073294587401" lon="6.996859906501529"><ele>225.0</ele><time>2026-05-03T05:53:33Z</time></trkpt><trkpt lat="48.907382840511204" lon="6.996761832230078"><ele>225.0</ele><time>2026-05-03T05:53:34Z</time></trkpt><trkpt lat="48.90743838234947" lon="6.996689238671264"><ele>225.0</ele><time>2026-05-03T05:53:35Z</time></trkpt><trkpt lat="48.90756039538088" lon="6.996642930253873"><ele>225.0</ele><time>2026-05-03T05:53:37Z</time></trkpt><trkpt lat="48.90762929488102" lon="6.996651391896608"><ele>225.0</ele><time>2026-05-03T05:53:38Z</time></trkpt><trkpt lat="48.90771671360956" lon="6.9966697041359565"><ele>225.0</ele><time>2026-05-03T05:53:39Z</time></trkpt><trkpt lat="48.907824133533246" lon="6.996686245169566"><ele>224.8</ele><time>2026-05-03T05:53:40Z</time></trkpt><trkpt lat="48.90792517221406" lon="6.9966962583026655"><ele>224.6</ele><time>2026-05-03T05:53:41Z</time></trkpt><trkpt lat="48.90802236783103" lon="6.99670326147955"><ele>224.39999999999998</ele><time>2026-05-03T05:53:42Z</time></trkpt><trkpt lat="48.90811973327223" lon="6.996709038442321"><ele>224.2</ele><time>2026-05-03T05:53:43Z</time></trkpt><trkpt lat="48.908211974590586" lon="6.996717255017219"><ele>224.0</ele><time>2026-05-03T05:53:44Z</time></trkpt><trkpt lat="48.90829888758359" lon="6.996722942508078"><ele>224.00000000000003</ele><time>2026-05-03T05:53:45Z</time></trkpt><trkpt lat="48.90838469245075" lon="6.996735118330468"><ele>224.0</ele><time>2026-05-03T05:53:46Z</time></trkpt><trkpt lat="48.908470574369666" lon="6.996745728603225"><ele>224.0</ele><time>2026-05-03T05:53:47Z</time></trkpt><trkpt lat="48.90856053519065" lon="6.996756146501092"><ele>224.0</ele><time>2026-05-03T05:53:48Z</time></trkpt><trkpt lat="48.90865284987139" lon="6.996764246291366"><ele>224.00000000000003</ele><time>2026-05-03T05:53:49Z</time></trkpt><trkpt lat="48.90874295459132" lon="6.996771495260616"><ele>224.0</ele><time>2026-05-03T05:53:50Z</time></trkpt><trkpt lat="48.908831567976875" lon="6.996781287353817"><ele>226.00000000000003</ele><time>2026-05-03T05:53:51Z</time></trkpt><trkpt lat="48.90892066139676" lon="6.996797658629792"><ele>228.0</ele><time>2026-05-03T05:53:52Z</time></trkpt><trkpt lat="48.90900119262942" lon="6.996814148904033"><ele>230.0</ele><time>2026-05-03T05:53:53Z</time></trkpt><trkpt lat="48.90910920354714" lon="6.996838997647159"><ele>232.0</ele><time>2026-05-03T05:53:55Z</time></trkpt><trkpt lat="48.90916947574511" lon="6.996870839784843"><ele>234.00000000000003</ele><time>2026-05-03T05:53:57Z</time></trkpt><trkpt lat="48.90924880187098" lon="6.996798139536866"><ele>236.0</ele><time>2026-05-03T05:54:07Z</time></trkpt><trkpt lat="48.90928833844921" lon="6.99664689312084"><ele>238.8</ele><time>2026-05-03T05:54:09Z</time></trkpt><trkpt lat="48.909423665223095" lon="6.996600760509429"><ele>241.60000000000002</ele><time>2026-05-03T05:54:11Z</time></trkpt><trkpt lat="48.90950900072705" lon="6.996603172466962"><ele>244.4</ele><time>2026-05-03T05:54:12Z</time></trkpt><trkpt lat="48.90959846737884" lon="6.996609405292247"><ele>247.2</ele><time>2026-05-03T05:54:13Z</time></trkpt><trkpt lat="48.90969670859205" lon="6.996615581231739"><ele>250.0</ele><time>2026-05-03T05:54:14Z</time></trkpt><trkpt lat="48.90981916083913" lon="6.99663086292669"><ele>250.0</ele><time>2026-05-03T05:54:15Z</time></trkpt><trkpt lat="48.90996333547421" lon="6.99664647802601"><ele>250.0</ele><time>2026-05-03T05:54:16Z</time></trkpt><trkpt lat="48.9101287382233" lon="6.996655883827923"><ele>250.0</ele><time>2026-05-03T05:54:17Z</time></trkpt><trkpt lat="48.91031882782397" lon="6.996662629357019"><ele>249.66666666666666</ele><time>2026-05-03T05:54:18Z</time></trkpt><trkpt lat="48.91051266393288" lon="6.996674477390062"><ele>249.33333333333331</ele><time>2026-05-03T05:54:19Z</time></trkpt><trkpt lat="48.91069148215476" lon="6.996687211219437"><ele>249.0</ele><time>2026-05-03T05:54:20Z</time></trkpt><trkpt lat="48.91084954460939" lon="6.996698103143793"><ele>250.0</ele><time>2026-05-03T05:54:21Z</time></trkpt><trkpt lat="48.911011267898786" lon="6.9967114099966485"><ele>251.0</ele><time>2026-05-03T05:54:22Z</time></trkpt><trkpt lat="48.91117154975439" lon="6.9967217273929645"><ele>252.0</ele><time>2026-05-03T05:54:23Z</time></trkpt><trkpt lat="48.91132668809683" lon="6.996726935325167"><ele>252.0</ele><time>2026-05-03T05:54:24Z</time></trkpt><trkpt lat="48.91147853089035" lon="6.996732063526342"><ele>252.0</ele><time>2026-05-03T05:54:25Z</time></trkpt><trkpt lat="48.911630442481524" lon="6.996741400708547"><ele>252.0</ele><time>2026-05-03T05:54:26Z</time></trkpt><trkpt lat="48.9117725348695" lon="6.996744709174474"><ele>252.0</ele><time>2026-05-03T05:54:27Z</time></trkpt><trkpt lat="48.911904364751656" lon="6.996747473030809"><ele>252.25</ele><time>2026-05-03T05:54:28Z</time></trkpt><trkpt lat="48.91202867924482" lon="6.996754124095691"><ele>252.5</ele><time>2026-05-03T05:54:29Z</time></trkpt><trkpt lat="48.912153090370175" lon="6.99677381203325"><ele>252.75</ele><time>2026-05-03T05:54:30Z</time></trkpt><trkpt lat="48.91227158954235" lon="6.996781548486626"><ele>253.0</ele><time>2026-05-03T05:54:31Z</time></trkpt><trkpt lat="48.91237815130023" lon="6.996787296086561"><ele>253.0</ele><time>2026-05-03T05:54:32Z</time></trkpt><trkpt lat="48.91247727071166" lon="6.99678409457901"><ele>253.0</ele><time>2026-05-03T05:54:33Z</time></trkpt><trkpt lat="48.91255836782644" lon="6.996738179468243"><ele>253.0</ele><time>2026-05-03T05:54:34Z</time></trkpt><trkpt lat="48.91264715622237" lon="6.996660470540606"><ele>253.0</ele><time>2026-05-03T05:54:35Z</time></trkpt><trkpt lat="48.91266906994486" lon="6.996456231438429"><ele>253.0</ele><time>2026-05-03T05:54:35.999Z</time></trkpt><trkpt lat="48.91268005933167" lon="6.996263008762984"><ele>252.66666666666666</ele><time>2026-05-03T05:54:36.999Z</time></trkpt><trkpt lat="48.91270191663021" lon="6.996043067523402"><ele>252.33333333333331</ele><time>2026-05-03T05:54:37.999Z</time></trkpt><trkpt lat="48.91270455409206" lon="6.9958011104759175"><ele>252.0</ele><time>2026-05-03T05:54:38.999Z</time></trkpt><trkpt lat="48.9127369397338" lon="6.995574591568312"><ele>251.33333333333331</ele><time>2026-05-03T05:54:39.999Z</time></trkpt><trkpt lat="48.91275077038209" lon="6.99533539316732"><ele>250.66666666666666</ele><time>2026-05-03T05:54:40.999Z</time></trkpt><trkpt lat="48.91276833923168" lon="6.995086204652058"><ele>250.0</ele><time>2026-05-03T05:54:41.999Z</time></trkpt><trkpt lat="48.91278847521186" lon="6.994855795063303"><ele>249.0</ele><time>2026-05-03T05:54:42.999Z</time></trkpt><trkpt lat="48.912808871614224" lon="6.994640999173758"><ele>248.0</ele><time>2026-05-03T05:54:43.999Z</time></trkpt><trkpt lat="48.91283356074057" lon="6.994437909656779"><ele>247.0</ele><time>2026-05-03T05:54:44.999Z</time></trkpt><trkpt lat="48.912866816727686" lon="6.994237735080915"><ele>246.0</ele><time>2026-05-03T05:54:45.999Z</time></trkpt><trkpt lat="48.91292526988525" lon="6.9940393137801005"><ele>245.75</ele><time>2026-05-03T05:54:46.999Z</time></trkpt><trkpt lat="48.91296443746258" lon="6.9938398780277815"><ele>245.5</ele><time>2026-05-03T05:54:47.999Z</time></trkpt><trkpt lat="48.91305102791167" lon="6.993682283226578"><ele>245.25</ele><time>2026-05-03T05:54:48.999Z</time></trkpt><trkpt lat="48.91314077903341" lon="6.993529361074144"><ele>245.0</ele><time>2026-05-03T05:54:49.999Z</time></trkpt><trkpt lat="48.91324098101175" lon="6.993387827736316"><ele>244.75</ele><time>2026-05-03T05:54:50.999Z</time></trkpt><trkpt lat="48.91335069330911" lon="6.9932682603629726"><ele>244.5</ele><time>2026-05-03T05:54:51.999Z</time></trkpt><trkpt lat="48.91347775100415" lon="6.993167674387048"><ele>244.25</ele><time>2026-05-03T05:54:52.999Z</time></trkpt><trkpt lat="48.91361244050921" lon="6.993081313045843"><ele>244.0</ele><time>2026-05-03T05:54:53.999Z</time></trkpt><trkpt lat="48.91375448859515" lon="6.992996455318491"><ele>243.0</ele><time>2026-05-03T05:54:54.999Z</time></trkpt><trkpt lat="48.913902506985664" lon="6.99291851402609"><ele>242.0</ele><time>2026-05-03T05:54:55.999Z</time></trkpt><trkpt lat="48.9140508165186" lon="6.992825001943778"><ele>241.0</ele><time>2026-05-03T05:54:56.999Z</time></trkpt><trkpt lat="48.9141990058417" lon="6.992758366533484"><ele>241.5</ele><time>2026-05-03T05:54:57.999Z</time></trkpt><trkpt lat="48.9143446513262" lon="6.992690256112831"><ele>242.0</ele><time>2026-05-03T05:54:58.999Z</time></trkpt><trkpt lat="48.914485831326274" lon="6.992620368760382"><ele>242.5</ele><time>2026-05-03T05:55:00Z</time></trkpt><trkpt lat="48.91462758680649" lon="6.992556354763426"><ele>243.0</ele><time>2026-05-03T05:55:01Z</time></trkpt><trkpt lat="48.9147636829664" lon="6.9924928825525"><ele>243.0</ele><time>2026-05-03T05:55:02Z</time></trkpt><trkpt lat="48.914900588701656" lon="6.992438605698054"><ele>243.0</ele><time>2026-05-03T05:55:03Z</time></trkpt><trkpt lat="48.91503931814274" lon="6.992382295265381"><ele>243.0</ele><time>2026-05-03T05:55:04Z</time></trkpt><trkpt lat="48.91517457778155" lon="6.992314137985995"><ele>243.0</ele><time>2026-05-03T05:55:05Z</time></trkpt><trkpt lat="48.91531088143112" lon="6.992253893404043"><ele>245.0</ele><time>2026-05-03T05:55:06Z</time></trkpt><trkpt lat="48.91543625055225" lon="6.992197472695455"><ele>247.0</ele><time>2026-05-03T05:55:07Z</time></trkpt><trkpt lat="48.91554028095855" lon="6.992142011040742"><ele>249.0</ele><time>2026-05-03T05:55:08Z</time></trkpt><trkpt lat="48.91561955398579" lon="6.9920740733312385"><ele>251.0</ele><time>2026-05-03T05:55:09Z</time></trkpt><trkpt lat="48.91568855244575" lon="6.991957948259572"><ele>253.0</ele><time>2026-05-03T05:55:10Z</time></trkpt><trkpt lat="48.915728649764304" lon="6.991783444463871"><ele>253.33333333333331</ele><time>2026-05-03T05:55:11Z</time></trkpt><trkpt lat="48.9157546611992" lon="6.991562831518358"><ele>253.66666666666669</ele><time>2026-05-03T05:55:12Z</time></trkpt><trkpt lat="48.915797777017396" lon="6.991307142591858"><ele>254.0</ele><time>2026-05-03T05:55:13Z</time></trkpt><trkpt lat="48.91583813906196" lon="6.991016335797453"><ele>253.33333333333334</ele><time>2026-05-03T05:55:14Z</time></trkpt><trkpt lat="48.91588196976144" lon="6.990700537480529"><ele>252.66666666666669</ele><time>2026-05-03T05:55:15Z</time></trkpt><trkpt lat="48.915925207422525" lon="6.990389011977279"><ele>252.0</ele><time>2026-05-03T05:55:16Z</time></trkpt><trkpt lat="48.915963112681695" lon="6.990115906202254"><ele>254.66666666666669</ele><time>2026-05-03T05:55:17Z</time></trkpt><trkpt lat="48.915985678433124" lon="6.989864013212974"><ele>257.33333333333337</ele><time>2026-05-03T05:55:18Z</time></trkpt><trkpt lat="48.91602638354731" lon="6.989616682193616"><ele>260.0</ele><time>2026-05-03T05:55:19Z</time></trkpt><trkpt lat="48.91608771587635" lon="6.989378236617591"><ele>261.0</ele><time>2026-05-03T05:55:20Z</time></trkpt><trkpt lat="48.91616133846977" lon="6.9891483115012"><ele>262.0</ele><time>2026-05-03T05:55:21Z</time></trkpt><trkpt lat="48.916238684072866" lon="6.9889246967622105"><ele>263.0</ele><time>2026-05-03T05:55:22Z</time></trkpt><trkpt lat="48.91631313727198" lon="6.988703446203829"><ele>263.0</ele><time>2026-05-03T05:55:23Z</time></trkpt><trkpt lat="48.916386555756404" lon="6.988480231278145"><ele>263.0</ele><time>2026-05-03T05:55:24Z</time></trkpt><trkpt lat="48.91645536496424" lon="6.988248838899241"><ele>263.0</ele><time>2026-05-03T05:55:25Z</time></trkpt><trkpt lat="48.91652884782165" lon="6.988026041324361"><ele>263.0</ele><time>2026-05-03T05:55:26Z</time></trkpt><trkpt lat="48.9166049559514" lon="6.987806503744876"><ele>263.0</ele><time>2026-05-03T05:55:27Z</time></trkpt><trkpt lat="48.91667053722492" lon="6.987581142495884"><ele>263.0</ele><time>2026-05-03T05:55:28Z</time></trkpt><trkpt lat="48.91671775255908" lon="6.9873467480051055"><ele>263.6666666666667</ele><time>2026-05-03T05:55:29Z</time></trkpt><trkpt lat="48.91674719311013" lon="6.987099322330321"><ele>264.3333333333333</ele><time>2026-05-03T05:55:30Z</time></trkpt><trkpt lat="48.91674913070584" lon="6.986843403378768"><ele>265.0</ele><time>2026-05-03T05:55:31Z</time></trkpt><trkpt lat="48.9167805351176" lon="6.9865947570355775"><ele>265.3333333333333</ele><time>2026-05-03T05:55:32Z</time></trkpt><trkpt lat="48.91679773932306" lon="6.986342882407197"><ele>265.6666666666667</ele><time>2026-05-03T05:55:33Z</time></trkpt><trkpt lat="48.91681336374284" lon="6.986112835004119"><ele>266.0</ele><time>2026-05-03T05:55:34Z</time></trkpt><trkpt lat="48.91682787713679" lon="6.985899146037944"><ele>266.25</ele><time>2026-05-03T05:55:35Z</time></trkpt><trkpt lat="48.91684173453185" lon="6.985695114986107"><ele>266.5</ele><time>2026-05-03T05:55:36Z</time></trkpt><trkpt lat="48.91683906306238" lon="6.985485404355624"><ele>266.75</ele><time>2026-05-03T05:55:37Z</time></trkpt><trkpt lat="48.91685454377107" lon="6.985271133924917"><ele>267.0</ele><time>2026-05-03T05:55:38Z</time></trkpt><trkpt lat="48.916882417513335" lon="6.985060415177891"><ele>267.0</ele><time>2026-05-03T05:55:39Z</time></trkpt><trkpt lat="48.91687846198727" lon="6.984858480331883"><ele>267.0</ele><time>2026-05-03T05:55:40Z</time></trkpt><trkpt lat="48.916894418781574" lon="6.984675774843343"><ele>267.0</ele><time>2026-05-03T05:55:41Z</time></trkpt><trkpt lat="48.91691189569753" lon="6.984509808981373"><ele>267.0</ele><time>2026-05-03T05:55:42Z</time></trkpt><trkpt lat="48.916948442980534" lon="6.984362423799234"><ele>267.0</ele><time>2026-05-03T05:55:43Z</time></trkpt><trkpt lat="48.91702214227147" lon="6.984217875059017"><ele>267.0</ele><time>2026-05-03T05:55:44Z</time></trkpt><trkpt lat="48.91727006622652" lon="6.984022254042802"><ele>267.0</ele><time>2026-05-03T05:55:46Z</time></trkpt><trkpt lat="48.91741130073642" lon="6.983927602426591"><ele>266.6666666666667</ele><time>2026-05-03T05:55:47Z</time></trkpt><trkpt lat="48.917556257718005" lon="6.983826765341765"><ele>266.33333333333337</ele><time>2026-05-03T05:55:48Z</time></trkpt><trkpt lat="48.917695084410354" lon="6.983718596771056"><ele>266.0</ele><time>2026-05-03T05:55:49Z</time></trkpt><trkpt lat="48.91783333884753" lon="6.983616196326076"><ele>264.6666666666667</ele><time>2026-05-03T05:55:50Z</time></trkpt><trkpt lat="48.91797503827435" lon="6.983512589860314"><ele>263.3333333333333</ele><time>2026-05-03T05:55:51Z</time></trkpt><trkpt lat="48.918121389585366" lon="6.983419412274305"><ele>262.0</ele><time>2026-05-03T05:55:52Z</time></trkpt><trkpt lat="48.91827335576606" lon="6.983346360197611"><ele>260.66666666666663</ele><time>2026-05-03T05:55:53Z</time></trkpt><trkpt lat="48.918428391185294" lon="6.983290608123806"><ele>259.3333333333333</ele><time>2026-05-03T05:55:54Z</time></trkpt><trkpt lat="48.9185878167556" lon="6.983250004200181"><ele>258.0</ele><time>2026-05-03T05:55:55Z</time></trkpt><trkpt lat="48.91874626439112" lon="6.983201245485683"><ele>258.0</ele><time>2026-05-03T05:55:56Z</time></trkpt><trkpt lat="48.918907888977444" lon="6.98315269657866"><ele>258.0</ele><time>2026-05-03T05:55:57Z</time></trkpt><trkpt lat="48.91906589966996" lon="6.98310002651113"><ele>258.0</ele><time>2026-05-03T05:55:58Z</time></trkpt><trkpt lat="48.91922341681886" lon="6.983040959576857"><ele>256.6666666666667</ele><time>2026-05-03T05:55:59Z</time></trkpt><trkpt lat="48.91937450360172" lon="6.9829492543612295"><ele>255.33333333333334</ele><time>2026-05-03T05:56:00Z</time></trkpt><trkpt lat="48.91952326819291" lon="6.982854244844627"><ele>254.0</ele><time>2026-05-03T05:56:01Z</time></trkpt><trkpt lat="48.919667980827846" lon="6.9827414597862525"><ele>254.0</ele><time>2026-05-03T05:56:02Z</time></trkpt><trkpt lat="48.91980632948809" lon="6.982631582382731"><ele>254.0</ele><time>2026-05-03T05:56:03Z</time></trkpt><trkpt lat="48.91993704397332" lon="6.982529321705072"><ele>254.0</ele><time>2026-05-03T05:56:04Z</time></trkpt><trkpt lat="48.92005205436074" lon="6.9824437464622084"><ele>254.0</ele><time>2026-05-03T05:56:05Z</time></trkpt><trkpt lat="48.92015193831006" lon="6.98237205724988"><ele>252.6</ele><time>2026-05-03T05:56:06Z</time></trkpt><trkpt lat="48.92023827977131" lon="6.982319339595497"><ele>251.2</ele><time>2026-05-03T05:56:07Z</time></trkpt><trkpt lat="48.92032810359705" lon="6.9822501704894755"><ele>249.79999999999998</ele><time>2026-05-03T05:56:09Z</time></trkpt><trkpt lat="48.92039838831893" lon="6.9821984070586645"><ele>248.39999999999998</ele><time>2026-05-03T05:56:12Z</time></trkpt><trkpt lat="48.92035142596503" lon="6.981937743752593"><ele>247.0</ele><time>2026-05-03T05:56:13Z</time></trkpt><trkpt lat="48.92035262705029" lon="6.981789939903051"><ele>246.2</ele><time>2026-05-03T05:56:14Z</time></trkpt><trkpt lat="48.92036747224094" lon="6.981623193222738"><ele>245.39999999999998</ele><time>2026-05-03T05:56:15Z</time></trkpt><trkpt lat="48.92037178615129" lon="6.981470909300433"><ele>244.60000000000002</ele><time>2026-05-03T05:56:16Z</time></trkpt><trkpt lat="48.92038216636389" lon="6.981333025117327"><ele>243.8</ele><time>2026-05-03T05:56:17Z</time></trkpt><trkpt lat="48.920391108524534" lon="6.981199529684698"><ele>243.0</ele><time>2026-05-03T05:56:18Z</time></trkpt><trkpt lat="48.92040119994831" lon="6.98106027681834"><ele>243.0</ele><time>2026-05-03T05:56:19Z</time></trkpt><trkpt lat="48.92040926474363" lon="6.980909819770631"><ele>243.0</ele><time>2026-05-03T05:56:20Z</time></trkpt><trkpt lat="48.92041654741188" lon="6.980751577834698"><ele>243.0</ele><time>2026-05-03T05:56:21Z</time></trkpt><trkpt lat="48.92042989224569" lon="6.980590250032868"><ele>243.0</ele><time>2026-05-03T05:56:22Z</time></trkpt><trkpt lat="48.92043868302921" lon="6.980424569342531"><ele>243.0</ele><time>2026-05-03T05:56:23Z</time></trkpt><trkpt lat="48.92044827170196" lon="6.98026920684956"><ele>242.60000000000002</ele><time>2026-05-03T05:56:24Z</time></trkpt><trkpt lat="48.920462021092426" lon="6.980113761922046"><ele>242.20000000000002</ele><time>2026-05-03T05:56:25Z</time></trkpt><trkpt lat="48.920467329361834" lon="6.9799605530958715"><ele>241.8</ele><time>2026-05-03T05:56:26Z</time></trkpt><trkpt lat="48.92048012622277" lon="6.979805144437941"><ele>241.4</ele><time>2026-05-03T05:56:27Z</time></trkpt><trkpt lat="48.920491532331404" lon="6.97964656064072"><ele>241.0</ele><time>2026-05-03T05:56:28Z</time></trkpt><trkpt lat="48.92050479685646" lon="6.97949057962988"><ele>240.8</ele><time>2026-05-03T05:56:29Z</time></trkpt><trkpt lat="48.920515569557736" lon="6.979337297338816"><ele>240.60000000000002</ele><time>2026-05-03T05:56:30Z</time></trkpt><trkpt lat="48.92052576103547" lon="6.979187770465998"><ele>240.4</ele><time>2026-05-03T05:56:31Z</time></trkpt><trkpt lat="48.920531861719155" lon="6.979038149697899"><ele>240.2</ele><time>2026-05-03T05:56:32Z</time></trkpt><trkpt lat="48.92053569208601" lon="6.978878715126714"><ele>240.0</ele><time>2026-05-03T05:56:33Z</time></trkpt><trkpt lat="48.92053114174431" lon="6.978718829164497"><ele>240.4</ele><time>2026-05-03T05:56:34Z</time></trkpt><trkpt lat="48.920527336043236" lon="6.9785625663809006"><ele>240.8</ele><time>2026-05-03T05:56:35Z</time></trkpt><trkpt lat="48.92051974434235" lon="6.978403312809056"><ele>241.2</ele><time>2026-05-03T05:56:36Z</time></trkpt><trkpt lat="48.92052992622919" lon="6.978246166815303"><ele>241.6</ele><time>2026-05-03T05:56:36.999Z</time></trkpt><trkpt lat="48.92052461745379" lon="6.978086850947082"><ele>242.0</ele><time>2026-05-03T05:56:37.999Z</time></trkpt><trkpt lat="48.92051992000405" lon="6.977945880940905"><ele>242.00000000000003</ele><time>2026-05-03T05:56:38.999Z</time></trkpt><trkpt lat="48.92050457230833" lon="6.977820999566265"><ele>242.0</ele><time>2026-05-03T05:56:39.999Z</time></trkpt><trkpt lat="48.92049597344046" lon="6.977692244666486"><ele>242.0</ele><time>2026-05-03T05:56:40.999Z</time></trkpt><trkpt lat="48.92049643942746" lon="6.977568748948174"><ele>242.0</ele><time>2026-05-03T05:56:41.999Z</time></trkpt><trkpt lat="48.92047761767613" lon="6.977464401652462"><ele>242.00000000000003</ele><time>2026-05-03T05:56:42.999Z</time></trkpt><trkpt lat="48.920470587853515" lon="6.977363725276129"><ele>242.0</ele><time>2026-05-03T05:56:43.999Z</time></trkpt><trkpt lat="48.92047215421207" lon="6.977257337552416"><ele>242.00000000000003</ele><time>2026-05-03T05:56:44.999Z</time></trkpt><trkpt lat="48.92045951870122" lon="6.977087003515673"><ele>242.0</ele><time>2026-05-03T05:56:46.999Z</time></trkpt><trkpt lat="48.92054749861325" lon="6.9769751352310525"><ele>242.0</ele><time>2026-05-03T05:56:48.999Z</time></trkpt><trkpt lat="48.92061385246902" lon="6.976936418007304"><ele>242.0</ele><time>2026-05-03T05:56:49.999Z</time></trkpt><trkpt lat="48.92069398320576" lon="6.976903837981048"><ele>242.00000000000003</ele><time>2026-05-03T05:56:50.999Z</time></trkpt><trkpt lat="48.920750434524386" lon="6.976851043136731"><ele>242.0</ele><time>2026-05-03T05:56:51.999Z</time></trkpt><trkpt lat="48.920797041898176" lon="6.976698974602658"><ele>242.0</ele><time>2026-05-03T05:56:53.999Z</time></trkpt><trkpt lat="48.920765849164866" lon="6.976601692501754"><ele>242.0</ele><time>2026-05-03T05:56:54.999Z</time></trkpt><trkpt lat="48.920735436401486" lon="6.976481807571083"><ele>242.0</ele><time>2026-05-03T05:56:55.999Z</time></trkpt><trkpt lat="48.92069719998159" lon="6.976324815018891"><ele>242.0</ele><time>2026-05-03T05:56:56.999Z</time></trkpt><trkpt lat="48.92065977751047" lon="6.976162701196629"><ele>242.0</ele><time>2026-05-03T05:56:57.999Z</time></trkpt><trkpt lat="48.92062737120271" lon="6.97599464741239"><ele>241.8</ele><time>2026-05-03T05:56:58.999Z</time></trkpt><trkpt lat="48.920592215019624" lon="6.975835882675565"><ele>241.6</ele><time>2026-05-03T05:56:59.999Z</time></trkpt><trkpt lat="48.920561679082816" lon="6.975693812561615"><ele>241.40000000000003</ele><time>2026-05-03T05:57:00.999Z</time></trkpt><trkpt lat="48.92053838466958" lon="6.975568180358214"><ele>241.20000000000002</ele><time>2026-05-03T05:57:01.999Z</time></trkpt><trkpt lat="48.920510767057465" lon="6.9754384740386515"><ele>241.0</ele><time>2026-05-03T05:57:02.999Z</time></trkpt><trkpt lat="48.92048149090246" lon="6.975298429441215"><ele>240.99999999999997</ele><time>2026-05-03T05:57:03.999Z</time></trkpt><trkpt lat="48.9204535762088" lon="6.975164026383284"><ele>241.0</ele><time>2026-05-03T05:57:04.999Z</time></trkpt><trkpt lat="48.920429520377986" lon="6.97503969950005"><ele>241.0</ele><time>2026-05-03T05:57:06Z</time></trkpt><trkpt lat="48.920417268860724" lon="6.974909253834322"><ele>241.0</ele><time>2026-05-03T05:57:07Z</time></trkpt><trkpt lat="48.920377746186595" lon="6.9748034703742805"><ele>240.99999999999997</ele><time>2026-05-03T05:57:08Z</time></trkpt><trkpt lat="48.92035444450547" lon="6.9746920493641555"><ele>241.0</ele><time>2026-05-03T05:57:09Z</time></trkpt><trkpt lat="48.92033988294846" lon="6.974594766058931"><ele>240.8</ele><time>2026-05-03T05:57:10Z</time></trkpt><trkpt lat="48.92036626166772" lon="6.974486021440137"><ele>240.60000000000002</ele><time>2026-05-03T05:57:12Z</time></trkpt><trkpt lat="48.92047893040311" lon="6.974413712863512"><ele>240.4</ele><time>2026-05-03T05:57:14Z</time></trkpt><trkpt lat="48.92056434117014" lon="6.974388307961581"><ele>240.2</ele><time>2026-05-03T05:57:15Z</time></trkpt><trkpt lat="48.920656662937084" lon="6.974362971491198"><ele>240.0</ele><time>2026-05-03T05:57:16Z</time></trkpt><trkpt lat="48.920743524473366" lon="6.974311724966125"><ele>240.0</ele><time>2026-05-03T05:57:17Z</time></trkpt><trkpt lat="48.92082417064376" lon="6.9742163900733"><ele>240.0</ele><time>2026-05-03T05:57:18Z</time></trkpt><trkpt lat="48.92093381961353" lon="6.974192587986137"><ele>240.0</ele><time>2026-05-03T05:57:19Z</time></trkpt><trkpt lat="48.921043996208624" lon="6.974176691746357"><ele>240.0</ele><time>2026-05-03T05:57:20Z</time></trkpt><trkpt lat="48.921169766517494" lon="6.974162730685764"><ele>239.5</ele><time>2026-05-03T05:57:21Z</time></trkpt><trkpt lat="48.92128478754634" lon="6.974137402621841"><ele>239.0</ele><time>2026-05-03T05:57:22Z</time></trkpt><trkpt lat="48.92139948310675" lon="6.974111279677869"><ele>238.5</ele><time>2026-05-03T05:57:23Z</time></trkpt><trkpt lat="48.92150919538269" lon="6.974091869483563"><ele>238.0</ele><time>2026-05-03T05:57:24Z</time></trkpt><trkpt lat="48.92161726829817" lon="6.9740662604462385"><ele>238.0</ele><time>2026-05-03T05:57:25Z</time></trkpt><trkpt lat="48.92172494056597" lon="6.974039928616222"><ele>238.0</ele><time>2026-05-03T05:57:26Z</time></trkpt><trkpt lat="48.92183404655952" lon="6.974019684919495"><ele>238.0</ele><time>2026-05-03T05:57:27Z</time></trkpt><trkpt lat="48.92194079224259" lon="6.974005596943527"><ele>238.0</ele><time>2026-05-03T05:57:28Z</time></trkpt><trkpt lat="48.92204822359822" lon="6.973990907900731"><ele>238.0</ele><time>2026-05-03T05:57:29Z</time></trkpt><trkpt lat="48.922154758531484" lon="6.973968346674615"><ele>236.8</ele><time>2026-05-03T05:57:30Z</time></trkpt><trkpt lat="48.92225744728709" lon="6.973944415881408"><ele>235.60000000000002</ele><time>2026-05-03T05:57:31Z</time></trkpt><trkpt lat="48.92235723225896" lon="6.973921669871776"><ele>234.39999999999998</ele><time>2026-05-03T05:57:32Z</time></trkpt><trkpt lat="48.92245413669918" lon="6.973904890753835"><ele>233.2</ele><time>2026-05-03T05:57:33Z</time></trkpt><trkpt lat="48.92254746917994" lon="6.973892124028505"><ele>232.0</ele><time>2026-05-03T05:57:34Z</time></trkpt><trkpt lat="48.92264305697736" lon="6.973873048395956"><ele>230.8</ele><time>2026-05-03T05:57:35Z</time></trkpt><trkpt lat="48.922736871157404" lon="6.973852986620257"><ele>229.6</ele><time>2026-05-03T05:57:36Z</time></trkpt><trkpt lat="48.92283187961716" lon="6.973833338255727"><ele>228.40000000000003</ele><time>2026-05-03T05:57:37Z</time></trkpt><trkpt lat="48.92293293568381" lon="6.97381876338871"><ele>227.20000000000002</ele><time>2026-05-03T05:57:38Z</time></trkpt><trkpt lat="48.92304070171537" lon="6.97379635335157"><ele>226.0</ele><time>2026-05-03T05:57:39Z</time></trkpt><trkpt lat="48.92315147177301" lon="6.973770870065552"><ele>226.0</ele><time>2026-05-03T05:57:40Z</time></trkpt><trkpt lat="48.92326089986301" lon="6.973746994650859"><ele>226.00000000000003</ele><time>2026-05-03T05:57:41Z</time></trkpt><trkpt lat="48.92335930523278" lon="6.973728659838446"><ele>226.00000000000003</ele><time>2026-05-03T05:57:42Z</time></trkpt><trkpt lat="48.92345517853925" lon="6.973709860827818"><ele>226.0</ele><time>2026-05-03T05:57:43Z</time></trkpt><trkpt lat="48.923554123314844" lon="6.973691993321383"><ele>226.0</ele><time>2026-05-03T05:57:44Z</time></trkpt><trkpt lat="48.92365933994023" lon="6.973669512492642"><ele>225.20000000000002</ele><time>2026-05-03T05:57:45Z</time></trkpt><trkpt lat="48.92376805041046" lon="6.973641824706204"><ele>224.40000000000003</ele><time>2026-05-03T05:57:46Z</time></trkpt><trkpt lat="48.923877355120446" lon="6.973612547880024"><ele>223.6</ele><time>2026-05-03T05:57:47Z</time></trkpt><trkpt lat="48.92399033296249" lon="6.973588120993582"><ele>222.8</ele><time>2026-05-03T05:57:48Z</time></trkpt><trkpt lat="48.924103270015365" lon="6.973562992613711"><ele>222.0</ele><time>2026-05-03T05:57:49Z</time></trkpt><trkpt lat="48.92421720497301" lon="6.973536997622386"><ele>221.66666666666669</ele><time>2026-05-03T05:57:50Z</time></trkpt><trkpt lat="48.92444533851657" lon="6.9734891717829175"><ele>221.33333333333334</ele><time>2026-05-03T05:57:52Z</time></trkpt><trkpt lat="48.92455911111176" lon="6.9734704682555675"><ele>221.0</ele><time>2026-05-03T05:57:53Z</time></trkpt><trkpt lat="48.92467311650386" lon="6.973455684686649"><ele>221.0</ele><time>2026-05-03T05:57:54Z</time></trkpt><trkpt lat="48.92478991461058" lon="6.973440976156157"><ele>221.0</ele><time>2026-05-03T05:57:55Z</time></trkpt><trkpt lat="48.9249029938091" lon="6.973428914701227"><ele>221.0</ele><time>2026-05-03T05:57:56Z</time></trkpt><trkpt lat="48.92501713183303" lon="6.973414752113156"><ele>221.0</ele><time>2026-05-03T05:57:57Z</time></trkpt><trkpt lat="48.92512867910961" lon="6.97340261204907"><ele>220.25</ele><time>2026-05-03T05:57:58Z</time></trkpt><trkpt lat="48.92524154414767" lon="6.973389752619747"><ele>219.5</ele><time>2026-05-03T05:57:59Z</time></trkpt><trkpt lat="48.925356881285275" lon="6.97338042012473"><ele>218.75</ele><time>2026-05-03T05:58:00Z</time></trkpt><trkpt lat="48.925468778267124" lon="6.973374663664255"><ele>218.0</ele><time>2026-05-03T05:58:01Z</time></trkpt><trkpt lat="48.925577653147144" lon="6.973371545211251"><ele>218.0</ele><time>2026-05-03T05:58:02Z</time></trkpt><trkpt lat="48.925691989829545" lon="6.97336654342044"><ele>218.0</ele><time>2026-05-03T05:58:03Z</time></trkpt><trkpt lat="48.92580752702024" lon="6.973357640371375"><ele>218.0</ele><time>2026-05-03T05:58:04Z</time></trkpt><trkpt lat="48.92592265791515" lon="6.973349326654369"><ele>218.0</ele><time>2026-05-03T05:58:05Z</time></trkpt><trkpt lat="48.926034857436754" lon="6.97334616455899"><ele>218.0</ele><time>2026-05-03T05:58:06Z</time></trkpt><trkpt lat="48.92614350804726" lon="6.9733388930271865"><ele>218.0</ele><time>2026-05-03T05:58:07Z</time></trkpt><trkpt lat="48.926244066762294" lon="6.973322814181809"><ele>218.0</ele><time>2026-05-03T05:58:08Z</time></trkpt><trkpt lat="48.9263432805067" lon="6.973288155657441"><ele>218.0</ele><time>2026-05-03T05:58:09Z</time></trkpt><trkpt lat="48.9264453670597" lon="6.97322172847553"><ele>218.0</ele><time>2026-05-03T05:58:10Z</time></trkpt><trkpt lat="48.92654815736467" lon="6.973134006610466"><ele>218.0</ele><time>2026-05-03T05:58:11Z</time></trkpt><trkpt lat="48.92665194132762" lon="6.973043152447167"><ele>218.0</ele><time>2026-05-03T05:58:12Z</time></trkpt><trkpt lat="48.92675863127615" lon="6.97295767774723"><ele>218.0</ele><time>2026-05-03T05:58:13Z</time></trkpt><trkpt lat="48.92686277608099" lon="6.972877229663026"><ele>218.0</ele><time>2026-05-03T05:58:14Z</time></trkpt><trkpt lat="48.926962352772016" lon="6.972800806333874"><ele>218.2</ele><time>2026-05-03T05:58:15Z</time></trkpt><trkpt lat="48.927060270464" lon="6.972725250658701"><ele>218.4</ele><time>2026-05-03T05:58:16Z</time></trkpt><trkpt lat="48.92715908512029" lon="6.972651968147303"><ele>218.59999999999997</ele><time>2026-05-03T05:58:17Z</time></trkpt><trkpt lat="48.92725628207092" lon="6.9725744522196615"><ele>218.79999999999998</ele><time>2026-05-03T05:58:18Z</time></trkpt><trkpt lat="48.92734661600331" lon="6.972497184646938"><ele>219.0</ele><time>2026-05-03T05:58:19Z</time></trkpt><trkpt lat="48.927431452315936" lon="6.972435228343065"><ele>218.6</ele><time>2026-05-03T05:58:20Z</time></trkpt><trkpt lat="48.92749793233172" lon="6.972381103722323"><ele>218.2</ele><time>2026-05-03T05:58:21Z</time></trkpt><trkpt lat="48.92759264736665" lon="6.972332090984718"><ele>217.79999999999998</ele><time>2026-05-03T05:58:22.999Z</time></trkpt><trkpt lat="48.927703534412046" lon="6.9724631812320075"><ele>217.39999999999998</ele><time>2026-05-03T05:58:24.999Z</time></trkpt><trkpt lat="48.9277542039887" lon="6.972561885323927"><ele>217.0</ele><time>2026-05-03T05:58:25.999Z</time></trkpt><trkpt lat="48.927820345582504" lon="6.972621101056794"><ele>217.0</ele><time>2026-05-03T05:58:26.999Z</time></trkpt><trkpt lat="48.92788022786955" lon="6.972668872529743"><ele>217.0</ele><time>2026-05-03T05:58:28.999Z</time></trkpt><trkpt lat="48.92799984280329" lon="6.972430293082684"><ele>217.0</ele><time>2026-05-03T05:58:29.999Z</time></trkpt><trkpt lat="48.928053976142586" lon="6.972288097185533"><ele>217.0</ele><time>2026-05-03T05:58:30.999Z</time></trkpt><trkpt lat="48.928109954054" lon="6.972116780412511"><ele>217.0</ele><time>2026-05-03T05:58:31.999Z</time></trkpt><trkpt lat="48.92818076313478" lon="6.971941061479893"><ele>217.0</ele><time>2026-05-03T05:58:32.999Z</time></trkpt><trkpt lat="48.92826214949927" lon="6.97174911743662"><ele>217.0</ele><time>2026-05-03T05:58:33.999Z</time></trkpt><trkpt lat="48.928345131435144" lon="6.971538671859595"><ele>217.0</ele><time>2026-05-03T05:58:34.999Z</time></trkpt><trkpt lat="48.92843630030876" lon="6.9713127014215654"><ele>216.33333333333331</ele><time>2026-05-03T05:58:35.999Z</time></trkpt><trkpt lat="48.92853033438777" lon="6.9710707923329505"><ele>215.66666666666669</ele><time>2026-05-03T05:58:36.999Z</time></trkpt><trkpt lat="48.92863301042983" lon="6.9708091207152085"><ele>215.0</ele><time>2026-05-03T05:58:37.999Z</time></trkpt><trkpt lat="48.928739099932834" lon="6.970545902151824"><ele>217.0</ele><time>2026-05-03T05:58:38.999Z</time></trkpt><trkpt lat="48.92884911167806" lon="6.970273264950685"><ele>219.0</ele><time>2026-05-03T05:58:39.999Z</time></trkpt><trkpt lat="48.92895394864838" lon="6.969995814288796"><ele>221.0</ele><time>2026-05-03T05:58:40.999Z</time></trkpt><trkpt lat="48.92905115585768" lon="6.969712860426605"><ele>223.33333333333334</ele><time>2026-05-03T05:58:41.999Z</time></trkpt><trkpt lat="48.92916505960027" lon="6.969448760170171"><ele>225.66666666666669</ele><time>2026-05-03T05:58:42.999Z</time></trkpt><trkpt lat="48.929271617075386" lon="6.969182737253215"><ele>228.0</ele><time>2026-05-03T05:58:43.999Z</time></trkpt><trkpt lat="48.92937633097549" lon="6.968915645539547"><ele>231.66666666666669</ele><time>2026-05-03T05:58:44.999Z</time></trkpt><trkpt lat="48.929478647071974" lon="6.968650744070662"><ele>235.33333333333334</ele><time>2026-05-03T05:58:45.999Z</time></trkpt><trkpt lat="48.92958297879538" lon="6.968390686804052"><ele>239.0</ele><time>2026-05-03T05:58:46.999Z</time></trkpt><trkpt lat="48.92968930417293" lon="6.968134509314471"><ele>239.0</ele><time>2026-05-03T05:58:47.999Z</time></trkpt><trkpt lat="48.929797485154914" lon="6.967877720804077"><ele>239.0</ele><time>2026-05-03T05:58:48.999Z</time></trkpt><trkpt lat="48.929908771620546" lon="6.967626984205475"><ele>239.0</ele><time>2026-05-03T05:58:49.999Z</time></trkpt><trkpt lat="48.93003375130175" lon="6.9673924471729975"><ele>238.66666666666669</ele><time>2026-05-03T05:58:50.999Z</time></trkpt><trkpt lat="48.93016764314703" lon="6.967168897347567"><ele>238.33333333333331</ele><time>2026-05-03T05:58:51.999Z</time></trkpt><trkpt lat="48.93030828956548" lon="6.966955944905622"><ele>238.0</ele><time>2026-05-03T05:58:52.999Z</time></trkpt><trkpt lat="48.930450116856726" lon="6.9667441855177366"><ele>237.66666666666666</ele><time>2026-05-03T05:58:53.999Z</time></trkpt><trkpt lat="48.930587991085716" lon="6.966529993833796"><ele>237.33333333333331</ele><time>2026-05-03T05:58:54.999Z</time></trkpt><trkpt lat="48.93073195964969" lon="6.966317595679359"><ele>237.0</ele><time>2026-05-03T05:58:55.999Z</time></trkpt><trkpt lat="48.93087268241986" lon="6.966097012431745"><ele>236.0</ele><time>2026-05-03T05:58:56.999Z</time></trkpt><trkpt lat="48.931013464200326" lon="6.965876581970022"><ele>235.0</ele><time>2026-05-03T05:58:57.999Z</time></trkpt><trkpt lat="48.93115645071003" lon="6.965658366208873"><ele>234.0</ele><time>2026-05-03T05:58:58.999Z</time></trkpt><trkpt lat="48.93130112515362" lon="6.965437567973451"><ele>233.66666666666669</ele><time>2026-05-03T05:58:59.999Z</time></trkpt><trkpt lat="48.931447433986065" lon="6.96521743400915"><ele>233.33333333333334</ele><time>2026-05-03T05:59:00.999Z</time></trkpt><trkpt lat="48.93159424597987" lon="6.964992269260177"><ele>233.0</ele><time>2026-05-03T05:59:01.999Z</time></trkpt><trkpt lat="48.93174082128977" lon="6.964769241833306"><ele>232.66666666666669</ele><time>2026-05-03T05:59:02.999Z</time></trkpt><trkpt lat="48.93189187209996" lon="6.964548865466953"><ele>232.33333333333331</ele><time>2026-05-03T05:59:03.999Z</time></trkpt><trkpt lat="48.932049154246805" lon="6.9643408650778476"><ele>232.0</ele><time>2026-05-03T05:59:04.999Z</time></trkpt><trkpt lat="48.93221725024303" lon="6.964146873782387"><ele>232.66666666666666</ele><time>2026-05-03T05:59:05.999Z</time></trkpt><trkpt lat="48.932393304849974" lon="6.963974786734"><ele>233.33333333333331</ele><time>2026-05-03T05:59:06.999Z</time></trkpt><trkpt lat="48.932572296114" lon="6.963807771591588"><ele>234.0</ele><time>2026-05-03T05:59:07.999Z</time></trkpt><trkpt lat="48.93274807565553" lon="6.963634972716647"><ele>234.0</ele><time>2026-05-03T05:59:08.999Z</time></trkpt><trkpt lat="48.932919784013336" lon="6.963459208527302"><ele>234.0</ele><time>2026-05-03T05:59:09.999Z</time></trkpt><trkpt lat="48.93308989023981" lon="6.963283058967254"><ele>234.0</ele><time>2026-05-03T05:59:10.999Z</time></trkpt><trkpt lat="48.93325793130643" lon="6.963101944152606"><ele>233.33333333333331</ele><time>2026-05-03T05:59:12Z</time></trkpt><trkpt lat="48.93342100639871" lon="6.962902818687014"><ele>232.66666666666666</ele><time>2026-05-03T05:59:13Z</time></trkpt><trkpt lat="48.9335779030276" lon="6.96268625287288"><ele>232.0</ele><time>2026-05-03T05:59:14Z</time></trkpt><trkpt lat="48.93372934870016" lon="6.962455856390963"><ele>233.33333333333331</ele><time>2026-05-03T05:59:15Z</time></trkpt><trkpt lat="48.93387914300357" lon="6.962220149466301"><ele>234.66666666666669</ele><time>2026-05-03T05:59:16Z</time></trkpt><trkpt lat="48.93403793254252" lon="6.961979722540405"><ele>236.0</ele><time>2026-05-03T05:59:17Z</time></trkpt><trkpt lat="48.93419182902949" lon="6.96174444067552"><ele>235.66666666666669</ele><time>2026-05-03T05:59:18Z</time></trkpt><trkpt lat="48.93434633025798" lon="6.96150345373719"><ele>235.33333333333331</ele><time>2026-05-03T05:59:19Z</time></trkpt><trkpt lat="48.93450803688144" lon="6.961264012387757"><ele>235.0</ele><time>2026-05-03T05:59:20Z</time></trkpt><trkpt lat="48.934671203949605" lon="6.961022116251803"><ele>236.5</ele><time>2026-05-03T05:59:21Z</time></trkpt><trkpt lat="48.93483152939235" lon="6.960778387833604"><ele>238.0</ele><time>2026-05-03T05:59:22Z</time></trkpt><trkpt lat="48.93499106784105" lon="6.960535611904337"><ele>237.0</ele><time>2026-05-03T05:59:23Z</time></trkpt><trkpt lat="48.9351476837941" lon="6.960300315841192"><ele>236.0</ele><time>2026-05-03T05:59:24Z</time></trkpt><trkpt lat="48.935294510701" lon="6.960082052527206"><ele>235.0</ele><time>2026-05-03T05:59:25Z</time></trkpt><trkpt lat="48.93543233411274" lon="6.959874589678442"><ele>235.0</ele><time>2026-05-03T05:59:26Z</time></trkpt><trkpt lat="48.93556466894588" lon="6.959676138957352"><ele>235.0</ele><time>2026-05-03T05:59:27Z</time></trkpt><trkpt lat="48.935694510817484" lon="6.959481890480146"><ele>235.0</ele><time>2026-05-03T05:59:28Z</time></trkpt><trkpt lat="48.93582299414921" lon="6.959288620135167"><ele>236.33333333333331</ele><time>2026-05-03T05:59:29Z</time></trkpt><trkpt lat="48.935949807918" lon="6.959092938062219"><ele>237.66666666666669</ele><time>2026-05-03T05:59:30Z</time></trkpt><trkpt lat="48.93607500677163" lon="6.958901700592251"><ele>239.0</ele><time>2026-05-03T05:59:31Z</time></trkpt><trkpt lat="48.93619815703226" lon="6.958720597798037"><ele>239.0</ele><time>2026-05-03T05:59:32Z</time></trkpt><trkpt lat="48.936319184669756" lon="6.958554616536389"><ele>239.0</ele><time>2026-05-03T05:59:33Z</time></trkpt><trkpt lat="48.93645122525469" lon="6.9584058841022145"><ele>239.0</ele><time>2026-05-03T05:59:34Z</time></trkpt><trkpt lat="48.9365986318646" lon="6.958292573082284"><ele>241.33333333333334</ele><time>2026-05-03T05:59:35Z</time></trkpt><trkpt lat="48.93675837677581" lon="6.958219911112424"><ele>243.66666666666669</ele><time>2026-05-03T05:59:36Z</time></trkpt><trkpt lat="48.93692893959469" lon="6.958194803596192"><ele>246.0</ele><time>2026-05-03T05:59:37Z</time></trkpt><trkpt lat="48.9371079190851" lon="6.958216812583738"><ele>246.0</ele><time>2026-05-03T05:59:38Z</time></trkpt><trkpt lat="48.937287773781996" lon="6.958265326098035"><ele>246.0</ele><time>2026-05-03T05:59:39Z</time></trkpt><trkpt lat="48.937449544502066" lon="6.958325867194194"><ele>246.0</ele><time>2026-05-03T05:59:40Z</time></trkpt><trkpt lat="48.937585946206546" lon="6.9583773416353365"><ele>246.75</ele><time>2026-05-03T05:59:41Z</time></trkpt><trkpt lat="48.93772828098271" lon="6.958412436848187"><ele>247.5</ele><time>2026-05-03T05:59:42Z</time></trkpt><trkpt lat="48.93786522228011" lon="6.958450058398814"><ele>248.25</ele><time>2026-05-03T05:59:43Z</time></trkpt><trkpt lat="48.938000902136245" lon="6.958488488389837"><ele>249.0</ele><time>2026-05-03T05:59:44Z</time></trkpt><trkpt lat="48.93813553497751" lon="6.958528278723417"><ele>249.0</ele><time>2026-05-03T05:59:45Z</time></trkpt><trkpt lat="48.9382706831529" lon="6.9585671861818135"><ele>249.0</ele><time>2026-05-03T05:59:46Z</time></trkpt><trkpt lat="48.9384063532009" lon="6.958605610366951"><ele>249.0</ele><time>2026-05-03T05:59:47Z</time></trkpt><trkpt lat="48.9385412040374" lon="6.958645997494937"><ele>249.0</ele><time>2026-05-03T05:59:48Z</time></trkpt><trkpt lat="48.93866926076961" lon="6.958674628515293"><ele>248.75</ele><time>2026-05-03T05:59:49Z</time></trkpt><trkpt lat="48.93878571978366" lon="6.958680339830277"><ele>248.5</ele><time>2026-05-03T05:59:50Z</time></trkpt><trkpt lat="48.93889533839297" lon="6.958658144590383"><ele>248.25</ele><time>2026-05-03T05:59:51Z</time></trkpt><trkpt lat="48.939000489141" lon="6.958612099460846"><ele>248.0</ele><time>2026-05-03T05:59:52Z</time></trkpt><trkpt lat="48.93910827982896" lon="6.958539221077699"><ele>248.0</ele><time>2026-05-03T05:59:53Z</time></trkpt><trkpt lat="48.93921122120001" lon="6.9584458476346684"><ele>248.0</ele><time>2026-05-03T05:59:54Z</time></trkpt><trkpt lat="48.93931311978498" lon="6.95833407990984"><ele>248.0</ele><time>2026-05-03T05:59:55Z</time></trkpt><trkpt lat="48.93941179632223" lon="6.958212192275832"><ele>248.0</ele><time>2026-05-03T05:59:56Z</time></trkpt><trkpt lat="48.93950330394883" lon="6.958078994564123"><ele>248.25</ele><time>2026-05-03T05:59:57Z</time></trkpt><trkpt lat="48.939592436804375" lon="6.957940735342385"><ele>248.5</ele><time>2026-05-03T05:59:58Z</time></trkpt><trkpt lat="48.93968244333706" lon="6.95780695092895"><ele>248.75</ele><time>2026-05-03T05:59:59Z</time></trkpt><trkpt lat="48.93977701206282" lon="6.957677978606596"><ele>249.0</ele><time>2026-05-03T06:00:00Z</time></trkpt><trkpt lat="48.93986421724176" lon="6.957554236429048"><ele>249.5</ele><time>2026-05-03T06:00:01Z</time></trkpt><trkpt lat="48.93995503479435" lon="6.957433900453151"><ele>250.0</ele><time>2026-05-03T06:00:02Z</time></trkpt><trkpt lat="48.94003578137316" lon="6.9573092024174334"><ele>250.5</ele><time>2026-05-03T06:00:03Z</time></trkpt><trkpt lat="48.94011828129579" lon="6.957182618346788"><ele>251.0</ele><time>2026-05-03T06:00:04Z</time></trkpt><trkpt lat="48.94020249256213" lon="6.957059840121875"><ele>251.0</ele><time>2026-05-03T06:00:05Z</time></trkpt><trkpt lat="48.9402858438663" lon="6.9569372317300795"><ele>251.0</ele><time>2026-05-03T06:00:06Z</time></trkpt><trkpt lat="48.94036998624386" lon="6.956819497786489"><ele>251.0</ele><time>2026-05-03T06:00:07Z</time></trkpt><trkpt lat="48.940450720663414" lon="6.9566918118031325"><ele>251.0</ele><time>2026-05-03T06:00:08Z</time></trkpt><trkpt lat="48.94052867530227" lon="6.956581972165659"><ele>251.33333333333334</ele><time>2026-05-03T06:00:09Z</time></trkpt><trkpt lat="48.940595783166366" lon="6.956485447710871"><ele>251.66666666666669</ele><time>2026-05-03T06:00:10Z</time></trkpt><trkpt lat="48.94065852304987" lon="6.956400215074617"><ele>252.0</ele><time>2026-05-03T06:00:11Z</time></trkpt><trkpt lat="48.9407078595491" lon="6.956326085342589"><ele>252.33333333333331</ele><time>2026-05-03T06:00:12Z</time></trkpt><trkpt lat="48.94075424502248" lon="6.9562502887603195"><ele>252.66666666666666</ele><time>2026-05-03T06:00:13Z</time></trkpt><trkpt lat="48.940797329497606" lon="6.9561688890585645"><ele>253.0</ele><time>2026-05-03T06:00:14Z</time></trkpt><trkpt lat="48.940836583278106" lon="6.956070062427586"><ele>253.0</ele><time>2026-05-03T06:00:15Z</time></trkpt><trkpt lat="48.94087379038136" lon="6.955967936416213"><ele>253.0</ele><time>2026-05-03T06:00:16Z</time></trkpt><trkpt lat="48.94091743401755" lon="6.95588710801887"><ele>253.0</ele><time>2026-05-03T06:00:17Z</time></trkpt><trkpt lat="48.94100436331959" lon="6.955839635173086"><ele>253.0</ele><time>2026-05-03T06:00:18Z</time></trkpt><trkpt lat="48.94112351063262" lon="6.955774259739479"><ele>253.0</ele><time>2026-05-03T06:00:19Z</time></trkpt><trkpt lat="48.941258577880525" lon="6.955706969655515"><ele>251.5</ele><time>2026-05-03T06:00:20Z</time></trkpt><trkpt lat="48.94137536259496" lon="6.955628748364651"><ele>250.0</ele><time>2026-05-03T06:00:21Z</time></trkpt><trkpt lat="48.94149011477271" lon="6.955539580444335"><ele>248.5</ele><time>2026-05-03T06:00:22Z</time></trkpt><trkpt lat="48.94159852058429" lon="6.955470427105012"><ele>247.0</ele><time>2026-05-03T06:00:23Z</time></trkpt><trkpt lat="48.9417103285984" lon="6.9553896851736345"><ele>246.5</ele><time>2026-05-03T06:00:24Z</time></trkpt><trkpt lat="48.9418168940451" lon="6.955311248173517"><ele>246.0</ele><time>2026-05-03T06:00:25Z</time></trkpt><trkpt lat="48.94192032329282" lon="6.955227420250248"><ele>245.5</ele><time>2026-05-03T06:00:26Z</time></trkpt><trkpt lat="48.942022220557995" lon="6.955128967504414"><ele>245.0</ele><time>2026-05-03T06:00:27Z</time></trkpt><trkpt lat="48.94210695833873" lon="6.955019673367045"><ele>244.2</ele><time>2026-05-03T06:00:28Z</time></trkpt><trkpt lat="48.94219171285985" lon="6.954904102937311"><ele>243.4</ele><time>2026-05-03T06:00:29Z</time></trkpt><trkpt lat="48.942262294386055" lon="6.9547789494691585"><ele>242.60000000000002</ele><time>2026-05-03T06:00:30Z</time></trkpt><trkpt lat="48.942321115774085" lon="6.9546472585935115"><ele>241.8</ele><time>2026-05-03T06:00:31Z</time></trkpt><trkpt lat="48.94237209118846" lon="6.95451217081382"><ele>241.0</ele><time>2026-05-03T06:00:32Z</time></trkpt><trkpt lat="48.942433015648525" lon="6.954393065244113"><ele>241.0</ele><time>2026-05-03T06:00:32.999Z</time></trkpt><trkpt lat="48.9425142126225" lon="6.9543065690250305"><ele>241.0</ele><time>2026-05-03T06:00:33.999Z</time></trkpt><trkpt lat="48.94262148558039" lon="6.954244561629501"><ele>241.0</ele><time>2026-05-03T06:00:34.999Z</time></trkpt><trkpt lat="48.942743768974566" lon="6.954187898514627"><ele>241.0</ele><time>2026-05-03T06:00:35.999Z</time></trkpt><trkpt lat="48.942856067183314" lon="6.954100393818353"><ele>239.75</ele><time>2026-05-03T06:00:36.999Z</time></trkpt><trkpt lat="48.94296676293227" lon="6.9539782349590515"><ele>238.5</ele><time>2026-05-03T06:00:37.999Z</time></trkpt><trkpt lat="48.94307384150946" lon="6.953830070762661"><ele>237.25</ele><time>2026-05-03T06:00:38.999Z</time></trkpt><trkpt lat="48.94317823298339" lon="6.953664403082489"><ele>236.0</ele><time>2026-05-03T06:00:39.999Z</time></trkpt><trkpt lat="48.94327998339876" lon="6.953489455527408"><ele>236.0</ele><time>2026-05-03T06:00:40.999Z</time></trkpt><trkpt lat="48.94339034195665" lon="6.953311792469951"><ele>236.0</ele><time>2026-05-03T06:00:41.999Z</time></trkpt><trkpt lat="48.943490908222955" lon="6.953113955122715"><ele>236.0</ele><time>2026-05-03T06:00:42.999Z</time></trkpt><trkpt lat="48.94358205602021" lon="6.952901804947855"><ele>236.0</ele><time>2026-05-03T06:00:43.999Z</time></trkpt><trkpt lat="48.94366399393372" lon="6.952671361183768"><ele>236.0</ele><time>2026-05-03T06:00:44.999Z</time></trkpt><trkpt lat="48.94373436107336" lon="6.952422988687743"><ele>236.0</ele><time>2026-05-03T06:00:45.999Z</time></trkpt><trkpt lat="48.943790304868635" lon="6.952159479989936"><ele>235.66666666666669</ele><time>2026-05-03T06:00:46.999Z</time></trkpt><trkpt lat="48.943837883703225" lon="6.951890117397071"><ele>235.33333333333331</ele><time>2026-05-03T06:00:47.999Z</time></trkpt><trkpt lat="48.94388961129863" lon="6.951620672726314"><ele>235.0</ele><time>2026-05-03T06:00:48.999Z</time></trkpt><trkpt lat="48.943948068834096" lon="6.951352083959409"><ele>234.33333333333331</ele><time>2026-05-03T06:00:49.999Z</time></trkpt><trkpt lat="48.94400808927208" lon="6.951096181980732"><ele>233.66666666666669</ele><time>2026-05-03T06:00:50.999Z</time></trkpt><trkpt lat="48.94407378897093" lon="6.950847024090429"><ele>233.0</ele><time>2026-05-03T06:00:51.999Z</time></trkpt><trkpt lat="48.944155179434674" lon="6.9506053580729885"><ele>232.0</ele><time>2026-05-03T06:00:52.999Z</time></trkpt><trkpt lat="48.94424715401363" lon="6.950368037505889"><ele>231.0</ele><time>2026-05-03T06:00:53.999Z</time></trkpt><trkpt lat="48.94434625960876" lon="6.950126417896669"><ele>230.0</ele><time>2026-05-03T06:00:54.999Z</time></trkpt><trkpt lat="48.94444846383783" lon="6.949887967754448"><ele>230.0</ele><time>2026-05-03T06:00:55.999Z</time></trkpt><trkpt lat="48.94455040086674" lon="6.949646605589402"><ele>230.0</ele><time>2026-05-03T06:00:56.999Z</time></trkpt><trkpt lat="48.944650375573765" lon="6.949403729288064"><ele>230.0</ele><time>2026-05-03T06:00:57.999Z</time></trkpt><trkpt lat="48.94474898438412" lon="6.949160639086872"><ele>230.0</ele><time>2026-05-03T06:00:58.999Z</time></trkpt><trkpt lat="48.94484403204609" lon="6.948915965900437"><ele>230.0</ele><time>2026-05-03T06:00:59.999Z</time></trkpt><trkpt lat="48.94494235606443" lon="6.948667797811481"><ele>230.0</ele><time>2026-05-03T06:01:00.999Z</time></trkpt><trkpt lat="48.945047207363324" lon="6.948411675726952"><ele>229.33333333333334</ele><time>2026-05-03T06:01:01.999Z</time></trkpt><trkpt lat="48.94515999488625" lon="6.94814360065987"><ele>228.66666666666669</ele><time>2026-05-03T06:01:02.999Z</time></trkpt><trkpt lat="48.94527242583708" lon="6.947870610285807"><ele>228.0</ele><time>2026-05-03T06:01:03.999Z</time></trkpt><trkpt lat="48.94538507978757" lon="6.947593262654373"><ele>227.66666666666669</ele><time>2026-05-03T06:01:04.999Z</time></trkpt><trkpt lat="48.945496381469695" lon="6.947319136323481"><ele>227.33333333333334</ele><time>2026-05-03T06:01:05.999Z</time></trkpt><trkpt lat="48.94560952279496" lon="6.947039719694741"><ele>227.0</ele><time>2026-05-03T06:01:06.999Z</time></trkpt><trkpt lat="48.94572151353102" lon="6.94676094883079"><ele>227.0</ele><time>2026-05-03T06:01:07.999Z</time></trkpt><trkpt lat="48.94583219530143" lon="6.946484977460064"><ele>227.0</ele><time>2026-05-03T06:01:08.999Z</time></trkpt><trkpt lat="48.945940318271646" lon="6.9462149095983365"><ele>227.0</ele><time>2026-05-03T06:01:09.999Z</time></trkpt><trkpt lat="48.94604804941449" lon="6.945948385944872"><ele>227.0</ele><time>2026-05-03T06:01:10.999Z</time></trkpt><trkpt lat="48.9461562219278" lon="6.94568526102731"><ele>227.0</ele><time>2026-05-03T06:01:11.999Z</time></trkpt><trkpt lat="48.946261872901964" lon="6.945423784849421"><ele>227.0</ele><time>2026-05-03T06:01:12.999Z</time></trkpt><trkpt lat="48.94636547956644" lon="6.945162880800059"><ele>227.0</ele><time>2026-05-03T06:01:13.999Z</time></trkpt><trkpt lat="48.946471500624014" lon="6.94490172499939"><ele>227.0</ele><time>2026-05-03T06:01:14.999Z</time></trkpt><trkpt lat="48.94657967743699" lon="6.94464217285297"><ele>227.0</ele><time>2026-05-03T06:01:15.999Z</time></trkpt><trkpt lat="48.94668701339596" lon="6.94437819383113"><ele>226.33333333333334</ele><time>2026-05-03T06:01:16.999Z</time></trkpt><trkpt lat="48.94679350487221" lon="6.944113210127545"><ele>225.66666666666669</ele><time>2026-05-03T06:01:18Z</time></trkpt><trkpt lat="48.946900952737614" lon="6.943849919357318"><ele>225.0</ele><time>2026-05-03T06:01:19Z</time></trkpt><trkpt lat="48.94700860108733" lon="6.943588333446125"><ele>224.66666666666669</ele><time>2026-05-03T06:01:20Z</time></trkpt><trkpt lat="48.947115560782024" lon="6.9433261992620485"><ele>224.33333333333334</ele><time>2026-05-03T06:01:21Z</time></trkpt><trkpt lat="48.947221984342335" lon="6.943066210332038"><ele>224.0</ele><time>2026-05-03T06:01:22Z</time></trkpt><trkpt lat="48.94732819441405" lon="6.942808784491785"><ele>224.0</ele><time>2026-05-03T06:01:23Z</time></trkpt><trkpt lat="48.94743238111287" lon="6.942551501356981"><ele>224.0</ele><time>2026-05-03T06:01:24Z</time></trkpt><trkpt lat="48.947532688199736" lon="6.942287251205863"><ele>224.0</ele><time>2026-05-03T06:01:25Z</time></trkpt><trkpt lat="48.94761668464263" lon="6.942013717607165"><ele>224.66666666666669</ele><time>2026-05-03T06:01:26Z</time></trkpt><trkpt lat="48.94767794720074" lon="6.9417175265382305"><ele>225.33333333333331</ele><time>2026-05-03T06:01:27Z</time></trkpt><trkpt lat="48.94771690311871" lon="6.941410160512039"><ele>226.0</ele><time>2026-05-03T06:01:28Z</time></trkpt><trkpt lat="48.94773973415482" lon="6.941097540945989"><ele>226.33333333333331</ele><time>2026-05-03T06:01:29Z</time></trkpt><trkpt lat="48.94775616388092" lon="6.940782820411387"><ele>226.66666666666669</ele><time>2026-05-03T06:01:30Z</time></trkpt><trkpt lat="48.947771922442534" lon="6.9404708156946775"><ele>227.0</ele><time>2026-05-03T06:01:31Z</time></trkpt><trkpt lat="48.947804124325586" lon="6.940160505453439"><ele>228.0</ele><time>2026-05-03T06:01:32Z</time></trkpt><trkpt lat="48.94780539993631" lon="6.93984859455781"><ele>229.0</ele><time>2026-05-03T06:01:33Z</time></trkpt><trkpt lat="48.94782460736225" lon="6.9395408510855"><ele>230.0</ele><time>2026-05-03T06:01:34Z</time></trkpt><trkpt lat="48.94784001771217" lon="6.939235699920263"><ele>230.66666666666669</ele><time>2026-05-03T06:01:35Z</time></trkpt><trkpt lat="48.94785476832913" lon="6.93894155299959"><ele>231.33333333333331</ele><time>2026-05-03T06:01:36Z</time></trkpt><trkpt lat="48.947868352000945" lon="6.938677934778027"><ele>232.0</ele><time>2026-05-03T06:01:37Z</time></trkpt><trkpt lat="48.947880499167766" lon="6.938436548583064"><ele>232.0</ele><time>2026-05-03T06:01:38Z</time></trkpt><trkpt lat="48.94789319422238" lon="6.9382124579294855"><ele>232.0</ele><time>2026-05-03T06:01:39Z</time></trkpt><trkpt lat="48.947904850645735" lon="6.937998500461414"><ele>232.0</ele><time>2026-05-03T06:01:40Z</time></trkpt><trkpt lat="48.94792342376507" lon="6.93779848401311"><ele>232.0</ele><time>2026-05-03T06:01:41Z</time></trkpt><trkpt lat="48.947949616837036" lon="6.937597613808607"><ele>232.5</ele><time>2026-05-03T06:01:42Z</time></trkpt><trkpt lat="48.947976817015764" lon="6.93739219332872"><ele>233.0</ele><time>2026-05-03T06:01:43Z</time></trkpt><trkpt lat="48.94800567574327" lon="6.93718035824033"><ele>233.5</ele><time>2026-05-03T06:01:44Z</time></trkpt><trkpt lat="48.948036475155014" lon="6.936965443459321"><ele>234.0</ele><time>2026-05-03T06:01:45Z</time></trkpt><trkpt lat="48.94807064813808" lon="6.936750095396569"><ele>234.5</ele><time>2026-05-03T06:01:46Z</time></trkpt><trkpt lat="48.94810644479613" lon="6.936540469039301"><ele>235.0</ele><time>2026-05-03T06:01:47Z</time></trkpt><trkpt lat="48.94814222029788" lon="6.9363367106214"><ele>235.5</ele><time>2026-05-03T06:01:48Z</time></trkpt><trkpt lat="48.94817743033723" lon="6.936134868605418"><ele>236.0</ele><time>2026-05-03T06:01:49Z</time></trkpt><trkpt lat="48.94821015982465" lon="6.935939662936259"><ele>235.75</ele><time>2026-05-03T06:01:50Z</time></trkpt><trkpt lat="48.948238460738835" lon="6.9357409134480745"><ele>235.5</ele><time>2026-05-03T06:01:51Z</time></trkpt><trkpt lat="48.948269022751596" lon="6.935539555451345"><ele>235.25</ele><time>2026-05-03T06:01:52Z</time></trkpt><trkpt lat="48.948300195392164" lon="6.9353389451305345"><ele>235.0</ele><time>2026-05-03T06:01:53Z</time></trkpt><trkpt lat="48.948330603162034" lon="6.935142169773059"><ele>235.25</ele><time>2026-05-03T06:01:54Z</time></trkpt><trkpt lat="48.948359781573814" lon="6.934944650088532"><ele>235.5</ele><time>2026-05-03T06:01:55Z</time></trkpt><trkpt lat="48.948390233344654" lon="6.934750939534876"><ele>235.75</ele><time>2026-05-03T06:01:56Z</time></trkpt><trkpt lat="48.948420838129216" lon="6.934558992860157"><ele>236.0</ele><time>2026-05-03T06:01:57Z</time></trkpt><trkpt lat="48.948452066713095" lon="6.934365051094146"><ele>236.5</ele><time>2026-05-03T06:01:58Z</time></trkpt><trkpt lat="48.948480860061004" lon="6.934179481735024"><ele>237.0</ele><time>2026-05-03T06:01:59Z</time></trkpt><trkpt lat="48.948509409834315" lon="6.933993045610495"><ele>237.5</ele><time>2026-05-03T06:02:00Z</time></trkpt><trkpt lat="48.94853437531925" lon="6.933819195574595"><ele>238.0</ele><time>2026-05-03T06:02:01Z</time></trkpt><trkpt lat="48.94855987414549" lon="6.933666109144452"><ele>238.75</ele><time>2026-05-03T06:02:02Z</time></trkpt><trkpt lat="48.948609989056486" lon="6.933355282310607"><ele>239.5</ele><time>2026-05-03T06:02:04Z</time></trkpt><trkpt lat="48.94863255085926" lon="6.9331857595795725"><ele>240.25</ele><time>2026-05-03T06:02:05Z</time></trkpt><trkpt lat="48.94866369741006" lon="6.933008493152272"><ele>241.0</ele><time>2026-05-03T06:02:06Z</time></trkpt><trkpt lat="48.94870783862882" lon="6.932822488002294"><ele>241.0</ele><time>2026-05-03T06:02:07Z</time></trkpt><trkpt lat="48.948766328491764" lon="6.932643940853157"><ele>241.0</ele><time>2026-05-03T06:02:08Z</time></trkpt><trkpt lat="48.948830390806215" lon="6.932474296380141"><ele>241.0</ele><time>2026-05-03T06:02:09Z</time></trkpt><trkpt lat="48.948895819192416" lon="6.932307457190828"><ele>241.0</ele><time>2026-05-03T06:02:10Z</time></trkpt><trkpt lat="48.948964996239894" lon="6.932144946589478"><ele>241.75</ele><time>2026-05-03T06:02:11Z</time></trkpt><trkpt lat="48.94903006521855" lon="6.931979611394457"><ele>242.5</ele><time>2026-05-03T06:02:12Z</time></trkpt><trkpt lat="48.94910364919281" lon="6.931820887277241"><ele>243.25</ele><time>2026-05-03T06:02:13Z</time></trkpt><trkpt lat="48.949171826292016" lon="6.931666575774895"><ele>244.0</ele><time>2026-05-03T06:02:14Z</time></trkpt><trkpt lat="48.94923964472752" lon="6.931512494939574"><ele>245.75</ele><time>2026-05-03T06:02:15Z</time></trkpt><trkpt lat="48.94930636168883" lon="6.931357786204881"><ele>247.5</ele><time>2026-05-03T06:02:16Z</time></trkpt><trkpt lat="48.94937086940421" lon="6.931202573061551"><ele>249.25</ele><time>2026-05-03T06:02:17Z</time></trkpt><trkpt lat="48.949437252148776" lon="6.9310514379062385"><ele>251.0</ele><time>2026-05-03T06:02:18Z</time></trkpt><trkpt lat="48.94950174873278" lon="6.930904941756246"><ele>251.50000000000003</ele><time>2026-05-03T06:02:19Z</time></trkpt><trkpt lat="48.94956348377069" lon="6.930771158723942"><ele>252.0</ele><time>2026-05-03T06:02:20Z</time></trkpt><trkpt lat="48.949616361646704" lon="6.930656557403435"><ele>252.5</ele><time>2026-05-03T06:02:21Z</time></trkpt><trkpt lat="48.949661603482674" lon="6.930553067663614"><ele>253.0</ele><time>2026-05-03T06:02:22Z</time></trkpt><trkpt lat="48.94970488841982" lon="6.9304480028322715"><ele>253.50000000000003</ele><time>2026-05-03T06:02:23Z</time></trkpt><trkpt lat="48.94974782584929" lon="6.930334087913361"><ele>254.0</ele><time>2026-05-03T06:02:24Z</time></trkpt><trkpt lat="48.949783501821294" lon="6.930209380032424"><ele>254.0</ele><time>2026-05-03T06:02:25Z</time></trkpt><trkpt lat="48.94980844062225" lon="6.930074419478593"><ele>253.99999999999997</ele><time>2026-05-03T06:02:26Z</time></trkpt><trkpt lat="48.94982920661412" lon="6.929938908689367"><ele>253.99999999999997</ele><time>2026-05-03T06:02:27Z</time></trkpt><trkpt lat="48.94985481856663" lon="6.929800517158"><ele>254.0</ele><time>2026-05-03T06:02:28Z</time></trkpt><trkpt lat="48.94988082396271" lon="6.929654956553357"><ele>254.0</ele><time>2026-05-03T06:02:29Z</time></trkpt><trkpt lat="48.949906770135456" lon="6.929504850974244"><ele>254.2</ele><time>2026-05-03T06:02:30Z</time></trkpt><trkpt lat="48.949934425892955" lon="6.9293513582346415"><ele>254.39999999999998</ele><time>2026-05-03T06:02:31Z</time></trkpt><trkpt lat="48.94996137382903" lon="6.9291973293159685"><ele>254.6</ele><time>2026-05-03T06:02:32Z</time></trkpt><trkpt lat="48.949985216726404" lon="6.929052282831624"><ele>254.8</ele><time>2026-05-03T06:02:33Z</time></trkpt><trkpt lat="48.950003040102835" lon="6.928927585519075"><ele>255.0</ele><time>2026-05-03T06:02:34Z</time></trkpt><trkpt lat="48.95001771378139" lon="6.92882349021307"><ele>254.8</ele><time>2026-05-03T06:02:35Z</time></trkpt><trkpt lat="48.950087345804796" lon="6.9286941116510885"><ele>254.6</ele><time>2026-05-03T06:02:37Z</time></trkpt><trkpt lat="48.95019277669179" lon="6.928675540186942"><ele>254.39999999999998</ele><time>2026-05-03T06:02:39Z</time></trkpt><trkpt lat="48.95026483673467" lon="6.928664699856715"><ele>254.2</ele><time>2026-05-03T06:02:41Z</time></trkpt><trkpt lat="48.95033295490259" lon="6.928708284402315"><ele>254.0</ele><time>2026-05-03T06:02:43Z</time></trkpt><trkpt lat="48.95035971476502" lon="6.928890300221781"><ele>254.0</ele><time>2026-05-03T06:02:45Z</time></trkpt><trkpt lat="48.95038219227877" lon="6.928990616678575"><ele>254.0</ele><time>2026-05-03T06:02:46Z</time></trkpt><trkpt lat="48.95041202159372" lon="6.929087840024664"><ele>254.0</ele><time>2026-05-03T06:02:47Z</time></trkpt><trkpt lat="48.95044340264978" lon="6.9291820053077"><ele>254.0</ele><time>2026-05-03T06:02:48Z</time></trkpt><trkpt lat="48.950470174549736" lon="6.929278082154843"><ele>254.0</ele><time>2026-05-03T06:02:49Z</time></trkpt><trkpt lat="48.95049565113451" lon="6.929375981442692"><ele>254.0</ele><time>2026-05-03T06:02:50Z</time></trkpt><trkpt lat="48.95052322462072" lon="6.9294776068831165"><ele>254.0</ele><time>2026-05-03T06:02:51Z</time></trkpt><trkpt lat="48.950555137766756" lon="6.929582517802732"><ele>254.33333333333334</ele><time>2026-05-03T06:02:51.999Z</time></trkpt><trkpt lat="48.95058972390335" lon="6.929686725734491"><ele>254.66666666666669</ele><time>2026-05-03T06:02:52.999Z</time></trkpt><trkpt lat="48.9506216486535" lon="6.929790654391513"><ele>255.0</ele><time>2026-05-03T06:02:53.999Z</time></trkpt><trkpt lat="48.95066358065682" lon="6.929896700253629"><ele>255.33333333333331</ele><time>2026-05-03T06:02:54.999Z</time></trkpt><trkpt lat="48.95071314564948" lon="6.929989726077507"><ele>255.66666666666666</ele><time>2026-05-03T06:02:55.999Z</time></trkpt><trkpt lat="48.95075822995224" lon="6.930059041314538"><ele>256.0</ele><time>2026-05-03T06:02:56.999Z</time></trkpt><trkpt lat="48.950822732624495" lon="6.930172200496826"><ele>255.0</ele><time>2026-05-03T06:02:58.999Z</time></trkpt><trkpt lat="48.95095762022245" lon="6.930029925177899"><ele>254.0</ele><time>2026-05-03T06:02:59.999Z</time></trkpt><trkpt lat="48.951033009528686" lon="6.929958438902848"><ele>253.0</ele><time>2026-05-03T06:03:00.999Z</time></trkpt><trkpt lat="48.95111507524793" lon="6.929892789341405"><ele>252.0</ele><time>2026-05-03T06:03:01.999Z</time></trkpt><trkpt lat="48.95121798758924" lon="6.929823697510749"><ele>252.0</ele><time>2026-05-03T06:03:02.999Z</time></trkpt><trkpt lat="48.95132216691432" lon="6.929749646424643"><ele>252.0</ele><time>2026-05-03T06:03:03.999Z</time></trkpt><trkpt lat="48.95142137394311" lon="6.929662487621688"><ele>252.0</ele><time>2026-05-03T06:03:04.999Z</time></trkpt><trkpt lat="48.951528371995536" lon="6.929544370649778"><ele>252.0</ele><time>2026-05-03T06:03:05.999Z</time></trkpt><trkpt lat="48.95164691926625" lon="6.929405791203115"><ele>251.5</ele><time>2026-05-03T06:03:06.999Z</time></trkpt><trkpt lat="48.9517644284792" lon="6.929277706864553"><ele>251.0</ele><time>2026-05-03T06:03:07.999Z</time></trkpt><trkpt lat="48.95187860405152" lon="6.929170388547561"><ele>250.5</ele><time>2026-05-03T06:03:08.999Z</time></trkpt><trkpt lat="48.95199922781845" lon="6.929066458128904"><ele>250.0</ele><time>2026-05-03T06:03:09.999Z</time></trkpt><trkpt lat="48.9521217924729" lon="6.9289593591829"><ele>249.33333333333331</ele><time>2026-05-03T06:03:10.999Z</time></trkpt><trkpt lat="48.952250374109504" lon="6.928845477538621"><ele>248.66666666666669</ele><time>2026-05-03T06:03:11.999Z</time></trkpt><trkpt lat="48.95238854282438" lon="6.92872751590195"><ele>248.0</ele><time>2026-05-03T06:03:12.999Z</time></trkpt><trkpt lat="48.952528280008174" lon="6.928606248557309"><ele>247.33333333333334</ele><time>2026-05-03T06:03:13.999Z</time></trkpt><trkpt lat="48.952666015334124" lon="6.928479872237964"><ele>246.66666666666669</ele><time>2026-05-03T06:03:14.999Z</time></trkpt><trkpt lat="48.95279682076514" lon="6.928349710392971"><ele>246.0</ele><time>2026-05-03T06:03:15.999Z</time></trkpt><trkpt lat="48.95292677647184" lon="6.928211819121659"><ele>245.0</ele><time>2026-05-03T06:03:16.999Z</time></trkpt><trkpt lat="48.953049166576335" lon="6.928076003470962"><ele>244.0</ele><time>2026-05-03T06:03:17.999Z</time></trkpt><trkpt lat="48.953170112214735" lon="6.927938672458673"><ele>243.0</ele><time>2026-05-03T06:03:18.999Z</time></trkpt><trkpt lat="48.95329328064378" lon="6.927803356796193"><ele>241.0</ele><time>2026-05-03T06:03:19.999Z</time></trkpt><trkpt lat="48.953423904566435" lon="6.9276664798003"><ele>239.0</ele><time>2026-05-03T06:03:20.999Z</time></trkpt><trkpt lat="48.95356038375376" lon="6.927521636129941"><ele>237.0</ele><time>2026-05-03T06:03:21.999Z</time></trkpt><trkpt lat="48.95369678448883" lon="6.927364167035661"><ele>236.33333333333331</ele><time>2026-05-03T06:03:22.999Z</time></trkpt><trkpt lat="48.95383128497537" lon="6.927186071063069"><ele>235.66666666666666</ele><time>2026-05-03T06:03:24Z</time></trkpt><trkpt lat="48.95396010852576" lon="6.926981184215031"><ele>235.0</ele><time>2026-05-03T06:03:25Z</time></trkpt><trkpt lat="48.95407713519588" lon="6.926758080767078"><ele>235.33333333333331</ele><time>2026-05-03T06:03:26Z</time></trkpt><trkpt lat="48.95417490029994" lon="6.926537303054259"><ele>235.66666666666669</ele><time>2026-05-03T06:03:27Z</time></trkpt><trkpt lat="48.95426061915918" lon="6.926311625800354"><ele>236.0</ele><time>2026-05-03T06:03:28Z</time></trkpt><trkpt lat="48.95432776446261" lon="6.926082779347841"><ele>233.66666666666669</ele><time>2026-05-03T06:03:29Z</time></trkpt><trkpt lat="48.954372719272484" lon="6.9258511588822005"><ele>231.33333333333331</ele><time>2026-05-03T06:03:30Z</time></trkpt><trkpt lat="48.954425494585756" lon="6.925628902441249"><ele>229.0</ele><time>2026-05-03T06:03:31Z</time></trkpt><trkpt lat="48.95451550343856" lon="6.925439439299207"><ele>229.0</ele><time>2026-05-03T06:03:32Z</time></trkpt><trkpt lat="48.954640560604126" lon="6.925273431671918"><ele>229.0</ele><time>2026-05-03T06:03:33Z</time></trkpt><trkpt lat="48.95477791058349" lon="6.925113436166695"><ele>229.0</ele><time>2026-05-03T06:03:34Z</time></trkpt><trkpt lat="48.95491343815242" lon="6.924943031271461"><ele>227.66666666666666</ele><time>2026-05-03T06:03:35Z</time></trkpt><trkpt lat="48.95504589856991" lon="6.924759606181737"><ele>226.33333333333331</ele><time>2026-05-03T06:03:36Z</time></trkpt><trkpt lat="48.9551785468585" lon="6.92456561226905"><ele>225.0</ele><time>2026-05-03T06:03:37Z</time></trkpt><trkpt lat="48.95530218036153" lon="6.924357495771577"><ele>225.33333333333331</ele><time>2026-05-03T06:03:38Z</time></trkpt><trkpt lat="48.95541567385936" lon="6.924129568692515"><ele>225.66666666666666</ele><time>2026-05-03T06:03:39Z</time></trkpt><trkpt lat="48.955515481443406" lon="6.923901017445561"><ele>226.0</ele><time>2026-05-03T06:03:40Z</time></trkpt><trkpt lat="48.95559665546673" lon="6.923674930276476"><ele>226.0</ele><time>2026-05-03T06:03:41Z</time></trkpt><trkpt lat="48.955667383903545" lon="6.923444960789692"><ele>226.0</ele><time>2026-05-03T06:03:42Z</time></trkpt><trkpt lat="48.955738361293065" lon="6.923218291383657"><ele>226.0</ele><time>2026-05-03T06:03:43Z</time></trkpt><trkpt lat="48.95581017631568" lon="6.92300272991739"><ele>224.25</ele><time>2026-05-03T06:03:44Z</time></trkpt><trkpt lat="48.95588048080736" lon="6.922793466790554"><ele>222.5</ele><time>2026-05-03T06:03:45Z</time></trkpt><trkpt lat="48.95595349839547" lon="6.922601051377169"><ele>220.75</ele><time>2026-05-03T06:03:46Z</time></trkpt><trkpt lat="48.9560499125955" lon="6.922429260276237"><ele>219.0</ele><time>2026-05-03T06:03:47Z</time></trkpt><trkpt lat="48.956182515000464" lon="6.922287159822226"><ele>219.0</ele><time>2026-05-03T06:03:48Z</time></trkpt><trkpt lat="48.956329979626965" lon="6.922146000110898"><ele>219.0</ele><time>2026-05-03T06:03:49Z</time></trkpt><trkpt lat="48.95647746216171" lon="6.922008258381342"><ele>219.0</ele><time>2026-05-03T06:03:50Z</time></trkpt><trkpt lat="48.956629011385" lon="6.921864573634247"><ele>219.33333333333331</ele><time>2026-05-03T06:03:51Z</time></trkpt><trkpt lat="48.95678263824412" lon="6.921723783694993"><ele>219.66666666666666</ele><time>2026-05-03T06:03:52Z</time></trkpt><trkpt lat="48.956940474065846" lon="6.921580425735984"><ele>220.0</ele><time>2026-05-03T06:03:53Z</time></trkpt><trkpt lat="48.95710274166581" lon="6.921431081780763"><ele>220.0</ele><time>2026-05-03T06:03:54Z</time></trkpt><trkpt lat="48.957260445075036" lon="6.921289580980436"><ele>220.0</ele><time>2026-05-03T06:03:55Z</time></trkpt><trkpt lat="48.95742477563376" lon="6.921143161380564"><ele>220.0</ele><time>2026-05-03T06:03:56Z</time></trkpt><trkpt lat="48.95759317407205" lon="6.9209989016930376"><ele>221.0</ele><time>2026-05-03T06:03:57Z</time></trkpt><trkpt lat="48.957759447045916" lon="6.920856432514255"><ele>222.0</ele><time>2026-05-03T06:03:58Z</time></trkpt><trkpt lat="48.957923576190744" lon="6.920717280763949"><ele>223.0</ele><time>2026-05-03T06:03:59Z</time></trkpt><trkpt lat="48.958081194662704" lon="6.92057175599563"><ele>223.0</ele><time>2026-05-03T06:04:00Z</time></trkpt><trkpt lat="48.958224809965714" lon="6.920397999324772"><ele>223.0</ele><time>2026-05-03T06:04:01Z</time></trkpt><trkpt lat="48.95836181511854" lon="6.9202031565931925"><ele>223.0</ele><time>2026-05-03T06:04:02Z</time></trkpt><trkpt lat="48.95850137356047" lon="6.920004180058591"><ele>224.66666666666666</ele><time>2026-05-03T06:04:03Z</time></trkpt><trkpt lat="48.95863959336788" lon="6.9198078213186776"><ele>226.33333333333331</ele><time>2026-05-03T06:04:04Z</time></trkpt><trkpt lat="48.95877850126678" lon="6.919615158121032"><ele>228.0</ele><time>2026-05-03T06:04:05Z</time></trkpt><trkpt lat="48.95891802104495" lon="6.919425221121854"><ele>228.0</ele><time>2026-05-03T06:04:06Z</time></trkpt><trkpt lat="48.95905402930048" lon="6.919239548138672"><ele>228.0</ele><time>2026-05-03T06:04:07Z</time></trkpt><trkpt lat="48.95919160000629" lon="6.919048980297061"><ele>228.0</ele><time>2026-05-03T06:04:08Z</time></trkpt><trkpt lat="48.95932989800863" lon="6.918860455921884"><ele>229.66666666666669</ele><time>2026-05-03T06:04:09Z</time></trkpt><trkpt lat="48.95947165154513" lon="6.918670775757263"><ele>231.33333333333334</ele><time>2026-05-03T06:04:10Z</time></trkpt><trkpt lat="48.95961670298252" lon="6.918475438184755"><ele>233.0</ele><time>2026-05-03T06:04:11Z</time></trkpt><trkpt lat="48.95976248693096" lon="6.918276079892713"><ele>233.0</ele><time>2026-05-03T06:04:12Z</time></trkpt><trkpt lat="48.959907534493894" lon="6.9180770204991555"><ele>233.0</ele><time>2026-05-03T06:04:13Z</time></trkpt><trkpt lat="48.960057836742465" lon="6.91788094900227"><ele>233.0</ele><time>2026-05-03T06:04:14Z</time></trkpt><trkpt lat="48.96020870137515" lon="6.917696110614168"><ele>232.0</ele><time>2026-05-03T06:04:15Z</time></trkpt><trkpt lat="48.960353535327826" lon="6.917519969581411"><ele>231.0</ele><time>2026-05-03T06:04:16Z</time></trkpt><trkpt lat="48.96049361292282" lon="6.917354228069166"><ele>230.0</ele><time>2026-05-03T06:04:17Z</time></trkpt><trkpt lat="48.960631545505" lon="6.917194369491846"><ele>230.0</ele><time>2026-05-03T06:04:18Z</time></trkpt><trkpt lat="48.96076949844902" lon="6.917043890471278"><ele>230.0</ele><time>2026-05-03T06:04:19Z</time></trkpt><trkpt lat="48.96090314927063" lon="6.916902842837456"><ele>230.0</ele><time>2026-05-03T06:04:20Z</time></trkpt><trkpt lat="48.96103104593319" lon="6.916761186051345"><ele>229.0</ele><time>2026-05-03T06:04:21Z</time></trkpt><trkpt lat="48.961144213618944" lon="6.916607337504128"><ele>228.0</ele><time>2026-05-03T06:04:22Z</time></trkpt><trkpt lat="48.96123339856924" lon="6.916413994714712"><ele>227.0</ele><time>2026-05-03T06:04:23Z</time></trkpt><trkpt lat="48.96129409658327" lon="6.916178763354354"><ele>227.0</ele><time>2026-05-03T06:04:24Z</time></trkpt><trkpt lat="48.96134146599146" lon="6.915931973692826"><ele>227.0</ele><time>2026-05-03T06:04:25Z</time></trkpt><trkpt lat="48.96141014400825" lon="6.915699473317441"><ele>227.0</ele><time>2026-05-03T06:04:26Z</time></trkpt><trkpt lat="48.96150769234913" lon="6.91550405391939"><ele>226.33333333333334</ele><time>2026-05-03T06:04:27Z</time></trkpt><trkpt lat="48.961632285288104" lon="6.915333620660729"><ele>225.66666666666669</ele><time>2026-05-03T06:04:28Z</time></trkpt><trkpt lat="48.961774472645224" lon="6.915185354011291"><ele>225.0</ele><time>2026-05-03T06:04:29Z</time></trkpt><trkpt lat="48.96192189962325" lon="6.9150487480140015"><ele>223.66666666666669</ele><time>2026-05-03T06:04:30Z</time></trkpt><trkpt lat="48.96206987244462" lon="6.914907143190231"><ele>222.33333333333334</ele><time>2026-05-03T06:04:31Z</time></trkpt><trkpt lat="48.962216770863414" lon="6.9147575767102465"><ele>221.0</ele><time>2026-05-03T06:04:32Z</time></trkpt><trkpt lat="48.962355377673966" lon="6.914617028801975"><ele>221.0</ele><time>2026-05-03T06:04:33Z</time></trkpt><trkpt lat="48.962485355370546" lon="6.914477697443969"><ele>221.0</ele><time>2026-05-03T06:04:34Z</time></trkpt><trkpt lat="48.96260649501748" lon="6.91434170896298"><ele>221.0</ele><time>2026-05-03T06:04:35Z</time></trkpt><trkpt lat="48.96272515991745" lon="6.914215993311054"><ele>220.75</ele><time>2026-05-03T06:04:36Z</time></trkpt><trkpt lat="48.96284200265886" lon="6.914102216322854"><ele>220.5</ele><time>2026-05-03T06:04:37Z</time></trkpt><trkpt lat="48.962952294979196" lon="6.913990070628488"><ele>220.25</ele><time>2026-05-03T06:04:38Z</time></trkpt><trkpt lat="48.963045038704536" lon="6.913850270529627"><ele>220.0</ele><time>2026-05-03T06:04:39Z</time></trkpt><trkpt lat="48.9631163566113" lon="6.913668076758463"><ele>220.0</ele><time>2026-05-03T06:04:40Z</time></trkpt><trkpt lat="48.96317253731951" lon="6.913440794122354"><ele>220.0</ele><time>2026-05-03T06:04:41Z</time></trkpt><trkpt lat="48.96321806179585" lon="6.913186771796606"><ele>220.0</ele><time>2026-05-03T06:04:42Z</time></trkpt><trkpt lat="48.96327081586797" lon="6.912939641873558"><ele>219.66666666666666</ele><time>2026-05-03T06:04:43Z</time></trkpt><trkpt lat="48.9633457261597" lon="6.912704404822272"><ele>219.33333333333331</ele><time>2026-05-03T06:04:44Z</time></trkpt><trkpt lat="48.96343766659563" lon="6.9124842275264555"><ele>219.0</ele><time>2026-05-03T06:04:45Z</time></trkpt><trkpt lat="48.96352959803526" lon="6.912291728114198"><ele>219.5</ele><time>2026-05-03T06:04:46Z</time></trkpt><trkpt lat="48.963618770444924" lon="6.912113179671692"><ele>220.0</ele><time>2026-05-03T06:04:46.999Z</time></trkpt><trkpt lat="48.96370926160412" lon="6.911946816707609"><ele>220.5</ele><time>2026-05-03T06:04:47.999Z</time></trkpt><trkpt lat="48.96380926585264" lon="6.911797987462201"><ele>221.0</ele><time>2026-05-03T06:04:48.999Z</time></trkpt><trkpt lat="48.963923579249446" lon="6.911685157101014"><ele>221.66666666666669</ele><time>2026-05-03T06:04:49.999Z</time></trkpt><trkpt lat="48.96405774813608" lon="6.911606823822771"><ele>222.33333333333331</ele><time>2026-05-03T06:04:50.999Z</time></trkpt><trkpt lat="48.96421373198852" lon="6.911552770461467"><ele>223.0</ele><time>2026-05-03T06:04:51.999Z</time></trkpt><trkpt lat="48.964382532028274" lon="6.911519762218532"><ele>223.33333333333331</ele><time>2026-05-03T06:04:52.999Z</time></trkpt><trkpt lat="48.96455171536526" lon="6.911482808615312"><ele>223.66666666666669</ele><time>2026-05-03T06:04:53.999Z</time></trkpt><trkpt lat="48.964718139241974" lon="6.911440769729494"><ele>224.0</ele><time>2026-05-03T06:04:54.999Z</time></trkpt><trkpt lat="48.96489077636761" lon="6.91140074577565"><ele>225.0</ele><time>2026-05-03T06:04:55.999Z</time></trkpt><trkpt lat="48.96506216010131" lon="6.911368020909127"><ele>226.0</ele><time>2026-05-03T06:04:56.999Z</time></trkpt><trkpt lat="48.96522730519448" lon="6.911336719098624"><ele>227.0</ele><time>2026-05-03T06:04:57.999Z</time></trkpt><trkpt lat="48.96538900926026" lon="6.911302847215907"><ele>227.0</ele><time>2026-05-03T06:04:58.999Z</time></trkpt><trkpt lat="48.9655484294805" lon="6.911271657280422"><ele>227.0</ele><time>2026-05-03T06:04:59.999Z</time></trkpt><trkpt lat="48.965705806002006" lon="6.911262523529011"><ele>227.0</ele><time>2026-05-03T06:05:00.999Z</time></trkpt><trkpt lat="48.96586450935281" lon="6.911284405346931"><ele>227.0</ele><time>2026-05-03T06:05:01.999Z</time></trkpt><trkpt lat="48.96602349774335" lon="6.911351531388864"><ele>227.0</ele><time>2026-05-03T06:05:02.999Z</time></trkpt><trkpt lat="48.966186184485785" lon="6.9114426801775135"><ele>227.0</ele><time>2026-05-03T06:05:03.999Z</time></trkpt><trkpt lat="48.966354462265336" lon="6.911556048911646"><ele>227.0</ele><time>2026-05-03T06:05:04.999Z</time></trkpt><trkpt lat="48.96652242324082" lon="6.911671058300863"><ele>227.0</ele><time>2026-05-03T06:05:05.999Z</time></trkpt><trkpt lat="48.966684255987786" lon="6.911784220814158"><ele>227.0</ele><time>2026-05-03T06:05:06.999Z</time></trkpt><trkpt lat="48.96683473034409" lon="6.911887465176386"><ele>226.5</ele><time>2026-05-03T06:05:07.999Z</time></trkpt><trkpt lat="48.966978460443684" lon="6.911978893886435"><ele>226.0</ele><time>2026-05-03T06:05:08.999Z</time></trkpt><trkpt lat="48.967119404744594" lon="6.912062066532551"><ele>225.5</ele><time>2026-05-03T06:05:09.999Z</time></trkpt><trkpt lat="48.96725495747474" lon="6.912121415804537"><ele>225.0</ele><time>2026-05-03T06:05:10.999Z</time></trkpt><trkpt lat="48.96738668665065" lon="6.9121501461574075"><ele>225.0</ele><time>2026-05-03T06:05:11.999Z</time></trkpt><trkpt lat="48.96751144842933" lon="6.912142950178769"><ele>225.0</ele><time>2026-05-03T06:05:12.999Z</time></trkpt><trkpt lat="48.96762780705436" lon="6.912103588405763"><ele>225.0</ele><time>2026-05-03T06:05:13.999Z</time></trkpt><trkpt lat="48.96772902126941" lon="6.912036309251555"><ele>225.0</ele><time>2026-05-03T06:05:14.999Z</time></trkpt><trkpt lat="48.967821792876116" lon="6.911948897115423"><ele>225.0</ele><time>2026-05-03T06:05:15.999Z</time></trkpt><trkpt lat="48.967908957378256" lon="6.9118489420314875"><ele>225.0</ele><time>2026-05-03T06:05:16.999Z</time></trkpt><trkpt lat="48.96799314971284" lon="6.911750668286667"><ele>225.0</ele><time>2026-05-03T06:05:17.999Z</time></trkpt><trkpt lat="48.96807808811011" lon="6.9116557856293435"><ele>225.0</ele><time>2026-05-03T06:05:18.999Z</time></trkpt><trkpt lat="48.968171166511034" lon="6.911578240168428"><ele>225.0</ele><time>2026-05-03T06:05:19.999Z</time></trkpt><trkpt lat="48.968272154879855" lon="6.911530932893668"><ele>224.75</ele><time>2026-05-03T06:05:20.999Z</time></trkpt><trkpt lat="48.968379521602074" lon="6.911523588408045"><ele>224.5</ele><time>2026-05-03T06:05:21.999Z</time></trkpt><trkpt lat="48.96849427902816" lon="6.911560465299442"><ele>224.25</ele><time>2026-05-03T06:05:22.999Z</time></trkpt><trkpt lat="48.96860794676372" lon="6.911636804832721"><ele>224.0</ele><time>2026-05-03T06:05:23.999Z</time></trkpt><trkpt lat="48.968709573485725" lon="6.911741029809758"><ele>224.0</ele><time>2026-05-03T06:05:24.999Z</time></trkpt><trkpt lat="48.96880970816941" lon="6.911853799458118"><ele>224.0</ele><time>2026-05-03T06:05:25.999Z</time></trkpt><trkpt lat="48.96890994406088" lon="6.911972449969566"><ele>224.0</ele><time>2026-05-03T06:05:26.999Z</time></trkpt><trkpt lat="48.96900878018139" lon="6.912104695873114"><ele>224.0</ele><time>2026-05-03T06:05:27.999Z</time></trkpt><trkpt lat="48.969098461188466" lon="6.912239948671807"><ele>224.0</ele><time>2026-05-03T06:05:28.999Z</time></trkpt><trkpt lat="48.96917686004654" lon="6.912369332905595"><ele>223.99999999999997</ele><time>2026-05-03T06:05:30Z</time></trkpt><trkpt lat="48.9692487537426" lon="6.9124965027282705"><ele>223.99999999999997</ele><time>2026-05-03T06:05:31Z</time></trkpt><trkpt lat="48.96931605816077" lon="6.912598527216018"><ele>224.0</ele><time>2026-05-03T06:05:32Z</time></trkpt><trkpt lat="48.96938248805041" lon="6.912670252255156"><ele>224.0</ele><time>2026-05-03T06:05:33Z</time></trkpt><trkpt lat="48.96942897680933" lon="6.91273626079595"><ele>223.5</ele><time>2026-05-03T06:05:34Z</time></trkpt><trkpt lat="48.96954892536957" lon="6.912619468557561"><ele>223.0</ele><time>2026-05-03T06:05:35Z</time></trkpt><trkpt lat="48.969627083530284" lon="6.912502624586147"><ele>222.5</ele><time>2026-05-03T06:05:36Z</time></trkpt><trkpt lat="48.96970270384177" lon="6.912357768938363"><ele>222.0</ele><time>2026-05-03T06:05:37Z</time></trkpt><trkpt lat="48.96978378292155" lon="6.912208080278313"><ele>221.5</ele><time>2026-05-03T06:05:38Z</time></trkpt><trkpt lat="48.96986788437872" lon="6.912069250941252"><ele>221.0</ele><time>2026-05-03T06:05:39Z</time></trkpt><trkpt lat="48.96994789777328" lon="6.911934636589651"><ele>220.5</ele><time>2026-05-03T06:05:40Z</time></trkpt><trkpt lat="48.9700215234404" lon="6.9118002145394835"><ele>220.0</ele><time>2026-05-03T06:05:41Z</time></trkpt><trkpt lat="48.970103656443314" lon="6.911667218402132"><ele>219.2</ele><time>2026-05-03T06:05:42Z</time></trkpt><trkpt lat="48.97017629602619" lon="6.911539916231735"><ele>218.4</ele><time>2026-05-03T06:05:43Z</time></trkpt><trkpt lat="48.97026016596698" lon="6.911431664727271"><ele>217.60000000000002</ele><time>2026-05-03T06:05:44Z</time></trkpt><trkpt lat="48.970357444167874" lon="6.911357903474632"><ele>216.8</ele><time>2026-05-03T06:05:45Z</time></trkpt><trkpt lat="48.97045562819263" lon="6.911327568042103"><ele>216.0</ele><time>2026-05-03T06:05:46Z</time></trkpt><trkpt lat="48.97055468728784" lon="6.911352561113095"><ele>216.0</ele><time>2026-05-03T06:05:47Z</time></trkpt><trkpt lat="48.97064360600728" lon="6.911433686081404"><ele>216.00000000000003</ele><time>2026-05-03T06:05:48Z</time></trkpt><trkpt lat="48.97072206135639" lon="6.911510756209004"><ele>216.00000000000003</ele><time>2026-05-03T06:05:49Z</time></trkpt><trkpt lat="48.97076874109889" lon="6.9115868445712305"><ele>216.0</ele><time>2026-05-03T06:05:50Z</time></trkpt><trkpt lat="48.97086880452261" lon="6.911409813752171"><ele>216.0</ele><time>2026-05-03T06:05:51Z</time></trkpt><trkpt lat="48.97092355148527" lon="6.911272486313713"><ele>215.75</ele><time>2026-05-03T06:05:52Z</time></trkpt><trkpt lat="48.970984712993754" lon="6.911114065963207"><ele>215.5</ele><time>2026-05-03T06:05:53Z</time></trkpt><trkpt lat="48.971053205307726" lon="6.910962611481011"><ele>215.25</ele><time>2026-05-03T06:05:54Z</time></trkpt><trkpt lat="48.97112201662589" lon="6.910802646944448"><ele>215.0</ele><time>2026-05-03T06:05:55Z</time></trkpt><trkpt lat="48.97119054127672" lon="6.910641165783689"><ele>215.0</ele><time>2026-05-03T06:05:56Z</time></trkpt><trkpt lat="48.971266240671554" lon="6.9104874120855575"><ele>215.0</ele><time>2026-05-03T06:05:57Z</time></trkpt><trkpt lat="48.97133741324413" lon="6.910355242346275"><ele>215.0</ele><time>2026-05-03T06:05:58Z</time></trkpt><trkpt lat="48.97140051287426" lon="6.910246518899996"><ele>215.0</ele><time>2026-05-03T06:05:59Z</time></trkpt><trkpt lat="48.97148492222484" lon="6.910168317222534"><ele>215.0</ele><time>2026-05-03T06:06:00Z</time></trkpt><trkpt lat="48.971575879026275" lon="6.910109327216149"><ele>215.6</ele><time>2026-05-03T06:06:01Z</time></trkpt><trkpt lat="48.97164499614093" lon="6.9100359527946456"><ele>216.2</ele><time>2026-05-03T06:06:02Z</time></trkpt><trkpt lat="48.97167536505089" lon="6.909932601371027"><ele>216.8</ele><time>2026-05-03T06:06:03Z</time></trkpt><trkpt lat="48.97166852066924" lon="6.909796436541107"><ele>217.4</ele><time>2026-05-03T06:06:04Z</time></trkpt><trkpt lat="48.97164866558546" lon="6.9096426458325775"><ele>218.0</ele><time>2026-05-03T06:06:05Z</time></trkpt><trkpt lat="48.97163775463662" lon="6.90947951587884"><ele>218.0</ele><time>2026-05-03T06:06:06Z</time></trkpt><trkpt lat="48.97163622791389" lon="6.909328875278373"><ele>218.0</ele><time>2026-05-03T06:06:07Z</time></trkpt><trkpt lat="48.97163291635505" lon="6.909198387062471"><ele>218.0</ele><time>2026-05-03T06:06:08Z</time></trkpt><trkpt lat="48.97163217146399" lon="6.909074432841903"><ele>218.0</ele><time>2026-05-03T06:06:09Z</time></trkpt><trkpt lat="48.97164365508824" lon="6.90896934694194"><ele>218.0</ele><time>2026-05-03T06:06:10Z</time></trkpt><trkpt lat="48.9717826281478" lon="6.908874683737247"><ele>217.4</ele><time>2026-05-03T06:06:12Z</time></trkpt><trkpt lat="48.971889984319176" lon="6.90889676174531"><ele>216.8</ele><time>2026-05-03T06:06:13Z</time></trkpt><trkpt lat="48.97199810855846" lon="6.90890258783905"><ele>216.2</ele><time>2026-05-03T06:06:14Z</time></trkpt><trkpt lat="48.97211111678809" lon="6.908888556685258"><ele>215.6</ele><time>2026-05-03T06:06:15Z</time></trkpt><trkpt lat="48.97222733724791" lon="6.908867330954092"><ele>215.0</ele><time>2026-05-03T06:06:16Z</time></trkpt><trkpt lat="48.97235442442126" lon="6.908837809932997"><ele>215.0</ele><time>2026-05-03T06:06:17Z</time></trkpt><trkpt lat="48.97248158796455" lon="6.908806440846599"><ele>215.0</ele><time>2026-05-03T06:06:18Z</time></trkpt><trkpt lat="48.97261713531638" lon="6.908784794087855"><ele>215.0</ele><time>2026-05-03T06:06:19Z</time></trkpt><trkpt lat="48.97276412506968" lon="6.90875572972954"><ele>215.0</ele><time>2026-05-03T06:06:20Z</time></trkpt><trkpt lat="48.972913070450815" lon="6.908721633469507"><ele>214.75</ele><time>2026-05-03T06:06:21Z</time></trkpt><trkpt lat="48.973050971308204" lon="6.9086873320220175"><ele>214.5</ele><time>2026-05-03T06:06:22Z</time></trkpt><trkpt lat="48.973192338161695" lon="6.908653681451965"><ele>214.25</ele><time>2026-05-03T06:06:23Z</time></trkpt><trkpt lat="48.97333780348495" lon="6.9086233615085435"><ele>214.0</ele><time>2026-05-03T06:06:24Z</time></trkpt><trkpt lat="48.9734897871609" lon="6.908591210305342"><ele>214.0</ele><time>2026-05-03T06:06:25Z</time></trkpt><trkpt lat="48.97364510133598" lon="6.908557192672517"><ele>214.0</ele><time>2026-05-03T06:06:26Z</time></trkpt><trkpt lat="48.973785742102436" lon="6.9085302796303525"><ele>214.0</ele><time>2026-05-03T06:06:27Z</time></trkpt><trkpt lat="48.97391968427345" lon="6.908507494980357"><ele>214.0</ele><time>2026-05-03T06:06:28Z</time></trkpt><trkpt lat="48.974057472769196" lon="6.908483837061396"><ele>215.25</ele><time>2026-05-03T06:06:29Z</time></trkpt><trkpt lat="48.974198395099485" lon="6.908461894367774"><ele>216.5</ele><time>2026-05-03T06:06:30Z</time></trkpt><trkpt lat="48.97434190728184" lon="6.9084400340382555"><ele>217.75</ele><time>2026-05-03T06:06:31Z</time></trkpt><trkpt lat="48.97448526698907" lon="6.908419089553914"><ele>219.0</ele><time>2026-05-03T06:06:32Z</time></trkpt><trkpt lat="48.97463338460188" lon="6.908397204896538"><ele>219.0</ele><time>2026-05-03T06:06:33Z</time></trkpt><trkpt lat="48.974783944867994" lon="6.908382316607314"><ele>219.0</ele><time>2026-05-03T06:06:34Z</time></trkpt><trkpt lat="48.974932445123684" lon="6.90836869891675"><ele>219.0</ele><time>2026-05-03T06:06:35Z</time></trkpt><trkpt lat="48.97508094646668" lon="6.908350537347541"><ele>219.0</ele><time>2026-05-03T06:06:36Z</time></trkpt><trkpt lat="48.97523110950814" lon="6.908321483083466"><ele>220.25</ele><time>2026-05-03T06:06:37Z</time></trkpt><trkpt lat="48.97537999267834" lon="6.908287727947781"><ele>221.5</ele><time>2026-05-03T06:06:38Z</time></trkpt><trkpt lat="48.975526372250464" lon="6.908259461582002"><ele>222.75</ele><time>2026-05-03T06:06:39Z</time></trkpt><trkpt lat="48.975667236932836" lon="6.908231027534522"><ele>224.0</ele><time>2026-05-03T06:06:40Z</time></trkpt><trkpt lat="48.975790806259745" lon="6.908205917923006"><ele>224.0</ele><time>2026-05-03T06:06:41Z</time></trkpt><trkpt lat="48.97590644621995" lon="6.90818871344973"><ele>223.99999999999997</ele><time>2026-05-03T06:06:42Z</time></trkpt><trkpt lat="48.976016662364586" lon="6.908172285346688"><ele>223.99999999999997</ele><time>2026-05-03T06:06:43Z</time></trkpt><trkpt lat="48.97611844635564" lon="6.908162480631307"><ele>224.0</ele><time>2026-05-03T06:06:44Z</time></trkpt><trkpt lat="48.976206449740936" lon="6.908171500603559"><ele>224.0</ele><time>2026-05-03T06:06:45Z</time></trkpt><trkpt lat="48.97627717906692" lon="6.908188243237221"><ele>224.0</ele><time>2026-05-03T06:06:46Z</time></trkpt><trkpt lat="48.9763426555272" lon="6.908234663746831"><ele>223.99999999999997</ele><time>2026-05-03T06:06:48Z</time></trkpt><trkpt lat="48.97639926016811" lon="6.908031170883954"><ele>223.99999999999997</ele><time>2026-05-03T06:06:49Z</time></trkpt><trkpt lat="48.976411326425804" lon="6.9079321803193805"><ele>224.0</ele><time>2026-05-03T06:06:50Z</time></trkpt><trkpt lat="48.97641109608295" lon="6.907795363771861"><ele>224.0</ele><time>2026-05-03T06:06:51Z</time></trkpt><trkpt lat="48.97642283408616" lon="6.907629133157849"><ele>223.5</ele><time>2026-05-03T06:06:52Z</time></trkpt><trkpt lat="48.97642701342797" lon="6.907458583871625"><ele>223.0</ele><time>2026-05-03T06:06:53Z</time></trkpt><trkpt lat="48.97643191805053" lon="6.907288872857941"><ele>222.5</ele><time>2026-05-03T06:06:54Z</time></trkpt><trkpt lat="48.97644434555763" lon="6.907107085225541"><ele>222.0</ele><time>2026-05-03T06:06:55Z</time></trkpt><trkpt lat="48.97646075320898" lon="6.906911489850734"><ele>221.25</ele><time>2026-05-03T06:06:56Z</time></trkpt><trkpt lat="48.976478261996284" lon="6.906702767618235"><ele>220.5</ele><time>2026-05-03T06:06:57Z</time></trkpt><trkpt lat="48.97648826107338" lon="6.90650732110053"><ele>219.75</ele><time>2026-05-03T06:06:58Z</time></trkpt><trkpt lat="48.9765036804853" lon="6.90633169316313"><ele>219.0</ele><time>2026-05-03T06:06:59Z</time></trkpt><trkpt lat="48.97651557535436" lon="6.9061602238195885"><ele>219.0</ele><time>2026-05-03T06:06:59.999Z</time></trkpt><trkpt lat="48.97653992062486" lon="6.9059897525058345"><ele>219.0</ele><time>2026-05-03T06:07:00.999Z</time></trkpt><trkpt lat="48.976578027939645" lon="6.905811299926579"><ele>219.0</ele><time>2026-05-03T06:07:01.999Z</time></trkpt><trkpt lat="48.97663410306135" lon="6.905631715151488"><ele>219.0</ele><time>2026-05-03T06:07:02.999Z</time></trkpt><trkpt lat="48.976702041319065" lon="6.905448261636485"><ele>219.25</ele><time>2026-05-03T06:07:03.999Z</time></trkpt><trkpt lat="48.97678494973024" lon="6.905274765939019"><ele>219.5</ele><time>2026-05-03T06:07:04.999Z</time></trkpt><trkpt lat="48.97687038696015" lon="6.905131629642642"><ele>219.75</ele><time>2026-05-03T06:07:05.999Z</time></trkpt><trkpt lat="48.97695476721487" lon="6.905011735702729"><ele>220.0</ele><time>2026-05-03T06:07:06.999Z</time></trkpt><trkpt lat="48.977039578087364" lon="6.904914014760954"><ele>220.0</ele><time>2026-05-03T06:07:07.999Z</time></trkpt><trkpt lat="48.977136002796684" lon="6.904841929545466"><ele>220.0</ele><time>2026-05-03T06:07:08.999Z</time></trkpt><trkpt lat="48.977246139832204" lon="6.904801069600073"><ele>220.0</ele><time>2026-05-03T06:07:09.999Z</time></trkpt><trkpt lat="48.97737328663658" lon="6.904802874614976"><ele>220.0</ele><time>2026-05-03T06:07:10.999Z</time></trkpt><trkpt lat="48.97750904634824" lon="6.904823910512226"><ele>220.33333333333331</ele><time>2026-05-03T06:07:11.999Z</time></trkpt><trkpt lat="48.97765685799595" lon="6.9048342489816585"><ele>220.66666666666669</ele><time>2026-05-03T06:07:12.999Z</time></trkpt><trkpt lat="48.97781619614096" lon="6.904827649766421"><ele>221.0</ele><time>2026-05-03T06:07:13.999Z</time></trkpt><trkpt lat="48.977980208171864" lon="6.9048104468242215"><ele>221.0</ele><time>2026-05-03T06:07:14.999Z</time></trkpt><trkpt lat="48.978128022916664" lon="6.90478633690705"><ele>221.0</ele><time>2026-05-03T06:07:15.999Z</time></trkpt><trkpt lat="48.97827819149049" lon="6.904757485616933"><ele>221.0</ele><time>2026-05-03T06:07:16.999Z</time></trkpt><trkpt lat="48.978433178969105" lon="6.904719715013235"><ele>220.0</ele><time>2026-05-03T06:07:17.999Z</time></trkpt><trkpt lat="48.97859252312921" lon="6.9046719557557985"><ele>219.0</ele><time>2026-05-03T06:07:18.999Z</time></trkpt><trkpt lat="48.97875175883495" lon="6.904618421209772"><ele>218.0</ele><time>2026-05-03T06:07:19.999Z</time></trkpt><trkpt lat="48.97890920281533" lon="6.9045558116531645"><ele>218.0</ele><time>2026-05-03T06:07:20.999Z</time></trkpt><trkpt lat="48.97905337875985" lon="6.90448798928311"><ele>218.0</ele><time>2026-05-03T06:07:21.999Z</time></trkpt><trkpt lat="48.97918956842211" lon="6.904425180108501"><ele>218.0</ele><time>2026-05-03T06:07:22.999Z</time></trkpt><trkpt lat="48.9793238734191" lon="6.904366259616072"><ele>218.0</ele><time>2026-05-03T06:07:23.999Z</time></trkpt><trkpt lat="48.97946084552603" lon="6.904301365189138"><ele>218.5</ele><time>2026-05-03T06:07:24.999Z</time></trkpt><trkpt lat="48.97959712988605" lon="6.904235770132983"><ele>219.0</ele><time>2026-05-03T06:07:25.999Z</time></trkpt><trkpt lat="48.979728866990015" lon="6.904179947125998"><ele>219.5</ele><time>2026-05-03T06:07:26.999Z</time></trkpt><trkpt lat="48.9798536304222" lon="6.904138310341626"><ele>220.0</ele><time>2026-05-03T06:07:27.999Z</time></trkpt><trkpt lat="48.979971113259104" lon="6.904098239891608"><ele>220.0</ele><time>2026-05-03T06:07:28.999Z</time></trkpt><trkpt lat="48.98008261435084" lon="6.904088560136382"><ele>220.0</ele><time>2026-05-03T06:07:29.999Z</time></trkpt><trkpt lat="48.9801859953944" lon="6.904089470268735"><ele>220.0</ele><time>2026-05-03T06:07:30.999Z</time></trkpt><trkpt lat="48.980291170086275" lon="6.904097756639866"><ele>220.0</ele><time>2026-05-03T06:07:31.999Z</time></trkpt><trkpt lat="48.98038426567559" lon="6.904114877832702"><ele>220.0</ele><time>2026-05-03T06:07:32.999Z</time></trkpt><trkpt lat="48.98046639424736" lon="6.904123936274509"><ele>220.0</ele><time>2026-05-03T06:07:33.999Z</time></trkpt><trkpt lat="48.9805390918826" lon="6.904126744089453"><ele>220.0</ele><time>2026-05-03T06:07:34.999Z</time></trkpt><trkpt lat="48.98069721411842" lon="6.903442671373051"><ele>220.0</ele><time>2026-05-03T06:07:36Z</time></trkpt><trkpt lat="48.980785137674815" lon="6.90334129582206"><ele>220.0</ele><time>2026-05-03T06:07:37Z</time></trkpt><trkpt lat="48.98087572741699" lon="6.903246578559644"><ele>220.0</ele><time>2026-05-03T06:07:38Z</time></trkpt><trkpt lat="48.98096455942558" lon="6.903179788546508"><ele>220.0</ele><time>2026-05-03T06:07:39Z</time></trkpt><trkpt lat="48.98104776936515" lon="6.903122395996678"><ele>220.0</ele><time>2026-05-03T06:07:40Z</time></trkpt><trkpt lat="48.98111402138199" lon="6.9030665476419255"><ele>220.16666666666666</ele><time>2026-05-03T06:07:41Z</time></trkpt><trkpt lat="48.981170996818165" lon="6.903014895988238"><ele>220.33333333333331</ele><time>2026-05-03T06:07:42Z</time></trkpt><trkpt lat="48.98123888498479" lon="6.902941708210801"><ele>220.5</ele><time>2026-05-03T06:07:43Z</time></trkpt><trkpt lat="48.98130227833132" lon="6.902870675559054"><ele>220.66666666666669</ele><time>2026-05-03T06:07:44Z</time></trkpt><trkpt lat="48.98137341962238" lon="6.902796663226478"><ele>220.83333333333334</ele><time>2026-05-03T06:07:45Z</time></trkpt><trkpt lat="48.981447953476355" lon="6.9027317201548035"><ele>221.0</ele><time>2026-05-03T06:07:46Z</time></trkpt><trkpt lat="48.98152130066986" lon="6.902672133113192"><ele>221.00000000000003</ele><time>2026-05-03T06:07:47Z</time></trkpt><trkpt lat="48.98159142198215" lon="6.902611697778953"><ele>221.0</ele><time>2026-05-03T06:07:48Z</time></trkpt><trkpt lat="48.98166110285667" lon="6.902550161666334"><ele>221.0</ele><time>2026-05-03T06:07:49Z</time></trkpt><trkpt lat="48.981723005729336" lon="6.902501364667374"><ele>221.0</ele><time>2026-05-03T06:07:50Z</time></trkpt><trkpt lat="48.98177767719903" lon="6.902450973801649"><ele>221.00000000000003</ele><time>2026-05-03T06:07:51Z</time></trkpt><trkpt lat="48.98187100066051" lon="6.902373886697464"><ele>221.0</ele><time>2026-05-03T06:07:53Z</time></trkpt><trkpt lat="48.98189054495366" lon="6.902273699588235"><ele>221.4</ele><time>2026-05-03T06:07:55Z</time></trkpt><trkpt lat="48.98186839142809" lon="6.902118794557595"><ele>221.8</ele><time>2026-05-03T06:07:57Z</time></trkpt><trkpt lat="48.98184145864963" lon="6.901948706589076"><ele>222.20000000000002</ele><time>2026-05-03T06:07:59Z</time></trkpt><trkpt lat="48.981828886489815" lon="6.901849938012262"><ele>222.60000000000002</ele><time>2026-05-03T06:08:00Z</time></trkpt><trkpt lat="48.981810081929304" lon="6.901719149161628"><ele>223.0</ele><time>2026-05-03T06:08:01Z</time></trkpt><trkpt lat="48.98178457391726" lon="6.901591551833848"><ele>223.2</ele><time>2026-05-03T06:08:02Z</time></trkpt><trkpt lat="48.98176237055596" lon="6.901475840504286"><ele>223.4</ele><time>2026-05-03T06:08:03Z</time></trkpt><trkpt lat="48.98172252414683" lon="6.901284646397669"><ele>223.59999999999997</ele><time>2026-05-03T06:08:05Z</time></trkpt><trkpt lat="48.981699361847646" lon="6.901184962500017"><ele>223.79999999999998</ele><time>2026-05-03T06:08:06Z</time></trkpt><trkpt lat="48.98166563929224" lon="6.900987893148265"><ele>224.0</ele><time>2026-05-03T06:08:08Z</time></trkpt><trkpt lat="48.981648022002275" lon="6.900884870619922"><ele>224.2</ele><time>2026-05-03T06:08:09Z</time></trkpt><trkpt lat="48.98163152214987" lon="6.900752951027953"><ele>224.39999999999998</ele><time>2026-05-03T06:08:10Z</time></trkpt><trkpt lat="48.98160182010275" lon="6.900580172496069"><ele>224.6</ele><time>2026-05-03T06:08:12Z</time></trkpt><trkpt lat="48.98161657073826" lon="6.900388394768193"><ele>224.8</ele><time>2026-05-03T06:08:14Z</time></trkpt><trkpt lat="48.981651036083505" lon="6.9002987722523415"><ele>225.0</ele><time>2026-05-03T06:08:15Z</time></trkpt><trkpt lat="48.98174728254117" lon="6.900166493788727"><ele>225.33333333333334</ele><time>2026-05-03T06:08:17Z</time></trkpt><trkpt lat="48.98180645382289" lon="6.900115933764312"><ele>225.66666666666669</ele><time>2026-05-03T06:08:18Z</time></trkpt><trkpt lat="48.98187779196851" lon="6.900073664774381"><ele>226.0</ele><time>2026-05-03T06:08:19Z</time></trkpt><trkpt lat="48.981943801444565" lon="6.900039616308344"><ele>226.33333333333334</ele><time>2026-05-03T06:08:20Z</time></trkpt><trkpt lat="48.982013407192326" lon="6.900003698841086"><ele>226.66666666666669</ele><time>2026-05-03T06:08:21Z</time></trkpt><trkpt lat="48.98211524460718" lon="6.899994031395987"><ele>227.0</ele><time>2026-05-03T06:08:23Z</time></trkpt><trkpt lat="48.98224342753937" lon="6.8999398013519855"><ele>227.00000000000003</ele><time>2026-05-03T06:08:25Z</time></trkpt><trkpt lat="48.98231694105468" lon="6.899909076573158"><ele>227.0</ele><time>2026-05-03T06:08:26Z</time></trkpt><trkpt lat="48.982428613184055" lon="6.899884771907675"><ele>227.0</ele><time>2026-05-03T06:08:28Z</time></trkpt><trkpt lat="48.98254419204245" lon="6.899839213969797"><ele>227.0</ele><time>2026-05-03T06:08:30Z</time></trkpt><trkpt lat="48.982603370848175" lon="6.899804209899916"><ele>227.00000000000003</ele><time>2026-05-03T06:08:31Z</time></trkpt><trkpt lat="48.982666467722694" lon="6.8997747888436605"><ele>227.0</ele><time>2026-05-03T06:08:32Z</time></trkpt><trkpt lat="48.982731008474325" lon="6.89975169901014"><ele>227.33333333333334</ele><time>2026-05-03T06:08:33Z</time></trkpt><trkpt lat="48.98279474309379" lon="6.899736237397167"><ele>227.66666666666669</ele><time>2026-05-03T06:08:34Z</time></trkpt><trkpt lat="48.982863212603824" lon="6.899727076113144"><ele>228.0</ele><time>2026-05-03T06:08:35Z</time></trkpt><trkpt lat="48.98298012660754" lon="6.899700396340453"><ele>228.33333333333331</ele><time>2026-05-03T06:08:37Z</time></trkpt><trkpt lat="48.98309571513099" lon="6.899654707575957"><ele>228.66666666666666</ele><time>2026-05-03T06:08:39Z</time></trkpt><trkpt lat="48.983159061453165" lon="6.899636346222659"><ele>229.0</ele><time>2026-05-03T06:08:40Z</time></trkpt><trkpt lat="48.98327136183933" lon="6.899601789689781"><ele>228.99999999999997</ele><time>2026-05-03T06:08:42Z</time></trkpt><trkpt lat="48.98333396223309" lon="6.899578798283756"><ele>229.0</ele><time>2026-05-03T06:08:43Z</time></trkpt><trkpt lat="48.9834022308357" lon="6.89955324076821"><ele>229.0</ele><time>2026-05-03T06:08:44Z</time></trkpt><trkpt lat="48.98347416210173" lon="6.8995253152033476"><ele>229.0</ele><time>2026-05-03T06:08:45Z</time></trkpt><trkpt lat="48.98355119168492" lon="6.8994968777268815"><ele>228.99999999999997</ele><time>2026-05-03T06:08:46Z</time></trkpt><trkpt lat="48.983626474335935" lon="6.8994692894235525"><ele>229.0</ele><time>2026-05-03T06:08:47Z</time></trkpt><trkpt lat="48.983708774928466" lon="6.899443221502566"><ele>229.33333333333331</ele><time>2026-05-03T06:08:48Z</time></trkpt><trkpt lat="48.98379334591707" lon="6.899416141314175"><ele>229.66666666666666</ele><time>2026-05-03T06:08:49Z</time></trkpt><trkpt lat="48.98386327989825" lon="6.8993965211396535"><ele>230.0</ele><time>2026-05-03T06:08:50Z</time></trkpt><trkpt lat="48.9839838379298" lon="6.89936092474407"><ele>230.33333333333331</ele><time>2026-05-03T06:08:52Z</time></trkpt><trkpt lat="48.9840542167284" lon="6.899343870941883"><ele>230.66666666666666</ele><time>2026-05-03T06:08:53Z</time></trkpt><trkpt lat="48.98412172496083" lon="6.8993307307567875"><ele>231.0</ele><time>2026-05-03T06:08:54Z</time></trkpt><trkpt lat="48.984238862908555" lon="6.899296155954369"><ele>231.14285714285714</ele><time>2026-05-03T06:08:56Z</time></trkpt><trkpt lat="48.98430543804286" lon="6.899269823581012"><ele>231.28571428571428</ele><time>2026-05-03T06:08:57Z</time></trkpt><trkpt lat="48.984373562794374" lon="6.899243226108683"><ele>231.42857142857144</ele><time>2026-05-03T06:08:58Z</time></trkpt><trkpt lat="48.98444772160782" lon="6.899216502548478"><ele>231.57142857142858</ele><time>2026-05-03T06:08:59Z</time></trkpt><trkpt lat="48.9845126443007" lon="6.899181282068967"><ele>231.71428571428572</ele><time>2026-05-03T06:09:00Z</time></trkpt><trkpt lat="48.98457468409314" lon="6.899148937405446"><ele>231.8571428571429</ele><time>2026-05-03T06:09:01Z</time></trkpt><trkpt lat="48.98463513566106" lon="6.899118559078255"><ele>232.00000000000003</ele><time>2026-05-03T06:09:02Z</time></trkpt><trkpt lat="48.98470020969719" lon="6.899085250376053"><ele>231.71428571428575</ele><time>2026-05-03T06:09:03Z</time></trkpt><trkpt lat="48.98476531675012" lon="6.899056407882305"><ele>231.42857142857144</ele><time>2026-05-03T06:09:04Z</time></trkpt><trkpt lat="48.98483572965128" lon="6.899014572344165"><ele>231.14285714285714</ele><time>2026-05-03T06:09:05Z</time></trkpt><trkpt lat="48.984903531170616" lon="6.898970757522701"><ele>230.85714285714286</ele><time>2026-05-03T06:09:06Z</time></trkpt><trkpt lat="48.98496927845777" lon="6.898919405838306"><ele>230.57142857142856</ele><time>2026-05-03T06:09:07Z</time></trkpt><trkpt lat="48.9850375193725" lon="6.898864746430053"><ele>230.28571428571425</ele><time>2026-05-03T06:09:08Z</time></trkpt><trkpt lat="48.98510165697834" lon="6.898806768012925"><ele>229.99999999999997</ele><time>2026-05-03T06:09:08.999Z</time></trkpt><trkpt lat="48.985172266092164" lon="6.898744799454813"><ele>229.83333333333334</ele><time>2026-05-03T06:09:09.999Z</time></trkpt><trkpt lat="48.985241688927744" lon="6.89868800008833"><ele>229.66666666666669</ele><time>2026-05-03T06:09:10.999Z</time></trkpt><trkpt lat="48.98531145158325" lon="6.8986342299971914"><ele>229.5</ele><time>2026-05-03T06:09:11.999Z</time></trkpt><trkpt lat="48.98537054066094" lon="6.898590253605352"><ele>229.33333333333331</ele><time>2026-05-03T06:09:12.999Z</time></trkpt><trkpt lat="48.985466024592384" lon="6.898525731636351"><ele>229.16666666666666</ele><time>2026-05-03T06:09:14.999Z</time></trkpt><trkpt lat="48.985567345552276" lon="6.898450245161339"><ele>229.0</ele><time>2026-05-03T06:09:16.999Z</time></trkpt><trkpt lat="48.985666428425546" lon="6.898356758563976"><ele>229.16666666666666</ele><time>2026-05-03T06:09:18.999Z</time></trkpt><trkpt lat="48.98575963417799" lon="6.898241057277928"><ele>229.33333333333331</ele><time>2026-05-03T06:09:20.999Z</time></trkpt><trkpt lat="48.98581143063216" lon="6.898178634434365"><ele>229.5</ele><time>2026-05-03T06:09:21.999Z</time></trkpt><trkpt lat="48.985866760188685" lon="6.898115407939791"><ele>229.66666666666669</ele><time>2026-05-03T06:09:22.999Z</time></trkpt><trkpt lat="48.9859232103396" lon="6.898052715428004"><ele>229.83333333333334</ele><time>2026-05-03T06:09:23.999Z</time></trkpt><trkpt lat="48.98597982474317" lon="6.897995132938247"><ele>230.0</ele><time>2026-05-03T06:09:24.999Z</time></trkpt><trkpt lat="48.986041099323145" lon="6.897938508482275"><ele>230.00000000000003</ele><time>2026-05-03T06:09:25.999Z</time></trkpt><trkpt lat="48.98611271475646" lon="6.897881834102886"><ele>230.0</ele><time>2026-05-03T06:09:26.999Z</time></trkpt><trkpt lat="48.98618810944459" lon="6.897829474911478"><ele>230.0</ele><time>2026-05-03T06:09:27.999Z</time></trkpt><trkpt lat="48.98626917256696" lon="6.8977801609412746"><ele>230.0</ele><time>2026-05-03T06:09:28.999Z</time></trkpt><trkpt lat="48.98634477784904" lon="6.897731383037816"><ele>230.00000000000003</ele><time>2026-05-03T06:09:29.999Z</time></trkpt><trkpt lat="48.98642498859927" lon="6.897676590800849"><ele>230.0</ele><time>2026-05-03T06:09:30.999Z</time></trkpt><trkpt lat="48.98650241071432" lon="6.8976228830604835"><ele>230.16666666666669</ele><time>2026-05-03T06:09:31.999Z</time></trkpt><trkpt lat="48.986577132951915" lon="6.897572961851442"><ele>230.33333333333334</ele><time>2026-05-03T06:09:32.999Z</time></trkpt><trkpt lat="48.98665209178165" lon="6.897515591568028"><ele>230.5</ele><time>2026-05-03T06:09:33.999Z</time></trkpt><trkpt lat="48.98672475549855" lon="6.897459700071257"><ele>230.66666666666669</ele><time>2026-05-03T06:09:34.999Z</time></trkpt><trkpt lat="48.98679438764219" lon="6.897413171725219"><ele>230.83333333333334</ele><time>2026-05-03T06:09:35.999Z</time></trkpt><trkpt lat="48.986861135221545" lon="6.897359343283084"><ele>231.0</ele><time>2026-05-03T06:09:36.999Z</time></trkpt><trkpt lat="48.98693542131722" lon="6.897298553295723"><ele>230.5</ele><time>2026-05-03T06:09:37.999Z</time></trkpt><trkpt lat="48.9870053996622" lon="6.897252054968304"><ele>230.0</ele><time>2026-05-03T06:09:38.999Z</time></trkpt><trkpt lat="48.98706732524941" lon="6.897204613153389"><ele>229.5</ele><time>2026-05-03T06:09:39.999Z</time></trkpt><trkpt lat="48.9871244020781" lon="6.897163016758723"><ele>229.0</ele><time>2026-05-03T06:09:40.999Z</time></trkpt><trkpt lat="48.98722989036742" lon="6.897082091946649"><ele>228.5</ele><time>2026-05-03T06:09:43Z</time></trkpt><trkpt lat="48.98728825094065" lon="6.8970300522886525"><ele>228.0</ele><time>2026-05-03T06:09:44Z</time></trkpt><trkpt lat="48.98734715474088" lon="6.8969798298072815"><ele>228.0</ele><time>2026-05-03T06:09:45Z</time></trkpt><trkpt lat="48.98740924439671" lon="6.896934151296394"><ele>228.0</ele><time>2026-05-03T06:09:46Z</time></trkpt><trkpt lat="48.98752753647077" lon="6.8968386486567885"><ele>228.0</ele><time>2026-05-03T06:09:48Z</time></trkpt><trkpt lat="48.987594082838456" lon="6.8967875132574115"><ele>228.0</ele><time>2026-05-03T06:09:49Z</time></trkpt><trkpt lat="48.98765488150606" lon="6.896741466041044"><ele>228.0</ele><time>2026-05-03T06:09:50Z</time></trkpt><trkpt lat="48.98777013589572" lon="6.896652190538371"><ele>227.85714285714283</ele><time>2026-05-03T06:09:52Z</time></trkpt><trkpt lat="48.98783411959423" lon="6.8965983424046025"><ele>227.7142857142857</ele><time>2026-05-03T06:09:53Z</time></trkpt><trkpt lat="48.98789086726081" lon="6.896553466077164"><ele>227.57142857142856</ele><time>2026-05-03T06:09:54Z</time></trkpt><trkpt lat="48.98795219004768" lon="6.896506068274936"><ele>227.42857142857144</ele><time>2026-05-03T06:09:55Z</time></trkpt><trkpt lat="48.98801394932333" lon="6.896455191900134"><ele>227.2857142857143</ele><time>2026-05-03T06:09:56Z</time></trkpt><trkpt lat="48.98807268090515" lon="6.89640769789397"><ele>227.14285714285717</ele><time>2026-05-03T06:09:57Z</time></trkpt><trkpt lat="48.98816201901265" lon="6.896345170813661"><ele>227.0</ele><time>2026-05-03T06:09:58Z</time></trkpt><trkpt lat="48.98824807388813" lon="6.896290098371521"><ele>227.00000000000003</ele><time>2026-05-03T06:09:59Z</time></trkpt><trkpt lat="48.988317811430136" lon="6.896243198536072"><ele>227.0</ele><time>2026-05-03T06:10:00Z</time></trkpt><trkpt lat="48.988398223025264" lon="6.8961902733874645"><ele>227.0</ele><time>2026-05-03T06:10:01Z</time></trkpt><trkpt lat="48.98848736427731" lon="6.89614247123696"><ele>227.0</ele><time>2026-05-03T06:10:02Z</time></trkpt><trkpt lat="48.98856619684827" lon="6.896095900239034"><ele>227.00000000000003</ele><time>2026-05-03T06:10:03Z</time></trkpt><trkpt lat="48.98864967928845" lon="6.896055013006475"><ele>227.0</ele><time>2026-05-03T06:10:04Z</time></trkpt><trkpt lat="48.988733555003286" lon="6.896030554933889"><ele>227.16666666666669</ele><time>2026-05-03T06:10:05Z</time></trkpt><trkpt lat="48.98882393482256" lon="6.896008754468712"><ele>227.33333333333334</ele><time>2026-05-03T06:10:06Z</time></trkpt><trkpt lat="48.98890502456176" lon="6.89597938695472"><ele>227.5</ele><time>2026-05-03T06:10:07Z</time></trkpt><trkpt lat="48.98897749042195" lon="6.895938870683"><ele>227.66666666666669</ele><time>2026-05-03T06:10:08Z</time></trkpt><trkpt lat="48.98905324751344" lon="6.895877558700321"><ele>227.83333333333334</ele><time>2026-05-03T06:10:09Z</time></trkpt><trkpt lat="48.98912985248244" lon="6.895824024736586"><ele>228.0</ele><time>2026-05-03T06:10:10Z</time></trkpt><trkpt lat="48.98921002329082" lon="6.895774953632054"><ele>228.5</ele><time>2026-05-03T06:10:11Z</time></trkpt><trkpt lat="48.98928846348922" lon="6.895729855613015"><ele>229.0</ele><time>2026-05-03T06:10:12Z</time></trkpt><trkpt lat="48.98936718835692" lon="6.895679070501751"><ele>229.5</ele><time>2026-05-03T06:10:13Z</time></trkpt><trkpt lat="48.98943917908976" lon="6.89562826454789"><ele>230.0</ele><time>2026-05-03T06:10:14Z</time></trkpt><trkpt lat="48.989518845075935" lon="6.895582756509082"><ele>230.5</ele><time>2026-05-03T06:10:15Z</time></trkpt><trkpt lat="48.98959964018929" lon="6.8955393128199995"><ele>231.0</ele><time>2026-05-03T06:10:16Z</time></trkpt><trkpt lat="48.98968241449116" lon="6.895484947753579"><ele>231.0</ele><time>2026-05-03T06:10:17Z</time></trkpt><trkpt lat="48.9897534916903" lon="6.895436578256876"><ele>231.0</ele><time>2026-05-03T06:10:18Z</time></trkpt><trkpt lat="48.98982593833864" lon="6.895397230858498"><ele>231.0</ele><time>2026-05-03T06:10:19Z</time></trkpt><trkpt lat="48.98990197230202" lon="6.895342499885392"><ele>231.0</ele><time>2026-05-03T06:10:20Z</time></trkpt><trkpt lat="48.98996541602108" lon="6.8953089105775325"><ele>231.0</ele><time>2026-05-03T06:10:21Z</time></trkpt><trkpt lat="48.99002281522728" lon="6.8952694941674695"><ele>231.0</ele><time>2026-05-03T06:10:22Z</time></trkpt><trkpt lat="48.99007899145296" lon="6.8952215280971245"><ele>231.0</ele><time>2026-05-03T06:10:23Z</time></trkpt><trkpt lat="48.99013673424117" lon="6.895181707314073"><ele>231.16666666666666</ele><time>2026-05-03T06:10:24Z</time></trkpt><trkpt lat="48.9902042284052" lon="6.8951406306662495"><ele>231.33333333333331</ele><time>2026-05-03T06:10:25Z</time></trkpt><trkpt lat="48.99028797963479" lon="6.895070939162591"><ele>231.5</ele><time>2026-05-03T06:10:26Z</time></trkpt><trkpt lat="48.99035877453366" lon="6.895015085196818"><ele>231.66666666666666</ele><time>2026-05-03T06:10:27Z</time></trkpt><trkpt lat="48.990426425653915" lon="6.894965766493508"><ele>231.83333333333331</ele><time>2026-05-03T06:10:28Z</time></trkpt><trkpt lat="48.99050589459482" lon="6.89490982700579"><ele>232.0</ele><time>2026-05-03T06:10:29Z</time></trkpt><trkpt lat="48.9905965059744" lon="6.894855087541574"><ele>232.0</ele><time>2026-05-03T06:10:30Z</time></trkpt><trkpt lat="48.99069406151273" lon="6.89479711321618"><ele>232.0</ele><time>2026-05-03T06:10:31Z</time></trkpt><trkpt lat="48.99079832459296" lon="6.894737034832151"><ele>232.0</ele><time>2026-05-03T06:10:32Z</time></trkpt><trkpt lat="48.99089588390942" lon="6.894683483865911"><ele>232.0</ele><time>2026-05-03T06:10:33Z</time></trkpt><trkpt lat="48.9909922848422" lon="6.894625253691636"><ele>232.0</ele><time>2026-05-03T06:10:34Z</time></trkpt><trkpt lat="48.9910921737253" lon="6.894564276076437"><ele>231.75</ele><time>2026-05-03T06:10:35Z</time></trkpt><trkpt lat="48.991202585507786" lon="6.89449841322341"><ele>231.5</ele><time>2026-05-03T06:10:36Z</time></trkpt><trkpt lat="48.991305006063655" lon="6.894437722452048"><ele>231.25</ele><time>2026-05-03T06:10:37Z</time></trkpt><trkpt lat="48.99141320418212" lon="6.89437069009224"><ele>231.0</ele><time>2026-05-03T06:10:38Z</time></trkpt><trkpt lat="48.99151608916654" lon="6.894310848357326"><ele>231.0</ele><time>2026-05-03T06:10:39Z</time></trkpt><trkpt lat="48.991619072875885" lon="6.894248995192253"><ele>231.00000000000003</ele><time>2026-05-03T06:10:40Z</time></trkpt><trkpt lat="48.991721029839425" lon="6.894185920790325"><ele>231.00000000000003</ele><time>2026-05-03T06:10:41Z</time></trkpt><trkpt lat="48.99182015276375" lon="6.894125660094035"><ele>231.0</ele><time>2026-05-03T06:10:42Z</time></trkpt><trkpt lat="48.99191305418433" lon="6.894079325949312"><ele>231.0</ele><time>2026-05-03T06:10:43Z</time></trkpt><trkpt lat="48.99201572272154" lon="6.894054906514484"><ele>231.20000000000002</ele><time>2026-05-03T06:10:44Z</time></trkpt><trkpt lat="48.99212322077001" lon="6.894056070548569"><ele>231.40000000000003</ele><time>2026-05-03T06:10:45Z</time></trkpt><trkpt lat="48.99222820840287" lon="6.894050495478183"><ele>231.6</ele><time>2026-05-03T06:10:46Z</time></trkpt><trkpt lat="48.992325900949815" lon="6.894030983257898"><ele>231.8</ele><time>2026-05-03T06:10:47Z</time></trkpt><trkpt lat="48.992411425026276" lon="6.893990106623039"><ele>232.0</ele><time>2026-05-03T06:10:48Z</time></trkpt><trkpt lat="48.992490903188965" lon="6.89392916142482"><ele>231.83333333333331</ele><time>2026-05-03T06:10:49Z</time></trkpt><trkpt lat="48.99255873911903" lon="6.89384921249366"><ele>231.66666666666666</ele><time>2026-05-03T06:10:50Z</time></trkpt><trkpt lat="48.9926315101247" lon="6.893767333139177"><ele>231.5</ele><time>2026-05-03T06:10:51Z</time></trkpt><trkpt lat="48.99270525473291" lon="6.893688655036793"><ele>231.33333333333331</ele><time>2026-05-03T06:10:52Z</time></trkpt><trkpt lat="48.99276935396375" lon="6.893612562870793"><ele>231.16666666666666</ele><time>2026-05-03T06:10:53Z</time></trkpt><trkpt lat="48.99283351949891" lon="6.893526265088542"><ele>231.0</ele><time>2026-05-03T06:10:54Z</time></trkpt><trkpt lat="48.992901381788954" lon="6.893438313866474"><ele>230.66666666666666</ele><time>2026-05-03T06:10:55Z</time></trkpt><trkpt lat="48.992968280844984" lon="6.893354749888805"><ele>230.33333333333331</ele><time>2026-05-03T06:10:56Z</time></trkpt><trkpt lat="48.9930293661645" lon="6.893271702346755"><ele>230.0</ele><time>2026-05-03T06:10:57Z</time></trkpt><trkpt lat="48.993096282333504" lon="6.893183695159641"><ele>229.66666666666666</ele><time>2026-05-03T06:10:58Z</time></trkpt><trkpt lat="48.99317006516842" lon="6.893093126615653"><ele>229.33333333333331</ele><time>2026-05-03T06:10:59Z</time></trkpt><trkpt lat="48.993239902772366" lon="6.893004618004362"><ele>229.0</ele><time>2026-05-03T06:11:00Z</time></trkpt><trkpt lat="48.993314300272786" lon="6.892911894426441"><ele>229.33333333333331</ele><time>2026-05-03T06:11:01Z</time></trkpt><trkpt lat="48.99338466593667" lon="6.892824346173821"><ele>229.66666666666666</ele><time>2026-05-03T06:11:02Z</time></trkpt><trkpt lat="48.99344755229119" lon="6.892742206269596"><ele>230.0</ele><time>2026-05-03T06:11:03Z</time></trkpt><trkpt lat="48.9935116611465" lon="6.892663113730598"><ele>230.33333333333331</ele><time>2026-05-03T06:11:04Z</time></trkpt><trkpt lat="48.99357560498066" lon="6.892582185779399"><ele>230.66666666666666</ele><time>2026-05-03T06:11:05Z</time></trkpt><trkpt lat="48.9936353151965" lon="6.892507081957279"><ele>231.0</ele><time>2026-05-03T06:11:06Z</time></trkpt><trkpt lat="48.99369700665823" lon="6.8924304799589216"><ele>231.0</ele><time>2026-05-03T06:11:07Z</time></trkpt><trkpt lat="48.99376256120676" lon="6.892352737982413"><ele>231.0</ele><time>2026-05-03T06:11:08Z</time></trkpt><trkpt lat="48.9938218055212" lon="6.892277454105409"><ele>231.0</ele><time>2026-05-03T06:11:09Z</time></trkpt><trkpt lat="48.99388800697031" lon="6.892199490521465"><ele>231.0</ele><time>2026-05-03T06:11:10Z</time></trkpt><trkpt lat="48.993954348135375" lon="6.892127485066672"><ele>231.0</ele><time>2026-05-03T06:11:11Z</time></trkpt><trkpt lat="48.99402335693237" lon="6.892065314648254"><ele>231.0</ele><time>2026-05-03T06:11:12Z</time></trkpt><trkpt lat="48.99409140865703" lon="6.891999319215874"><ele>231.0</ele><time>2026-05-03T06:11:13Z</time></trkpt><trkpt lat="48.99416107794544" lon="6.8919304795195915"><ele>231.00000000000003</ele><time>2026-05-03T06:11:14Z</time></trkpt><trkpt lat="48.99422757083921" lon="6.891861058211118"><ele>231.00000000000003</ele><time>2026-05-03T06:11:15Z</time></trkpt><trkpt lat="48.994296951425085" lon="6.891790562146174"><ele>231.0</ele><time>2026-05-03T06:11:16Z</time></trkpt><trkpt lat="48.99443647095375" lon="6.891652766212086"><ele>231.0</ele><time>2026-05-03T06:11:18Z</time></trkpt><trkpt lat="48.99450824989381" lon="6.891581284103906"><ele>231.33333333333334</ele><time>2026-05-03T06:11:19Z</time></trkpt><trkpt lat="48.99458271587704" lon="6.891512908483406"><ele>231.66666666666669</ele><time>2026-05-03T06:11:20Z</time></trkpt><trkpt lat="48.99465772129764" lon="6.89144278675264"><ele>232.0</ele><time>2026-05-03T06:11:21Z</time></trkpt><trkpt lat="48.99473257907245" lon="6.891370054431384"><ele>232.33333333333334</ele><time>2026-05-03T06:11:22Z</time></trkpt><trkpt lat="48.994808365676484" lon="6.891293225548012"><ele>232.66666666666669</ele><time>2026-05-03T06:11:23Z</time></trkpt><trkpt lat="48.99488442559546" lon="6.891211480236688"><ele>233.0</ele><time>2026-05-03T06:11:24Z</time></trkpt><trkpt lat="48.994949793408175" lon="6.891128620537581"><ele>232.50000000000003</ele><time>2026-05-03T06:11:25Z</time></trkpt><trkpt lat="48.99501264019681" lon="6.891045605968784"><ele>232.0</ele><time>2026-05-03T06:11:26Z</time></trkpt><trkpt lat="48.99507040983979" lon="6.8909625871152675"><ele>231.5</ele><time>2026-05-03T06:11:27Z</time></trkpt><trkpt lat="48.9951167870749" lon="6.890879068840682"><ele>231.0</ele><time>2026-05-03T06:11:28Z</time></trkpt><trkpt lat="48.99514888781015" lon="6.890792424950613"><ele>230.50000000000003</ele><time>2026-05-03T06:11:29Z</time></trkpt><trkpt lat="48.99518480538652" lon="6.890617457958826"><ele>230.0</ele><time>2026-05-03T06:11:31Z</time></trkpt><trkpt lat="48.99514379183754" lon="6.890509464438344"><ele>229.8</ele><time>2026-05-03T06:11:32Z</time></trkpt><trkpt lat="48.99506336052923" lon="6.890430158550369"><ele>229.6</ele><time>2026-05-03T06:11:33Z</time></trkpt><trkpt lat="48.99498200128157" lon="6.89033417141359"><ele>229.39999999999998</ele><time>2026-05-03T06:11:34Z</time></trkpt><trkpt lat="48.99491454894939" lon="6.890195297912277"><ele>229.2</ele><time>2026-05-03T06:11:35Z</time></trkpt><trkpt lat="48.994846247520584" lon="6.890089769822169"><ele>229.0</ele><time>2026-05-03T06:11:36Z</time></trkpt><trkpt lat="48.99478212274216" lon="6.889992511157256"><ele>228.49999999999997</ele><time>2026-05-03T06:11:37Z</time></trkpt><trkpt lat="48.99471838985505" lon="6.889895846879932"><ele>228.0</ele><time>2026-05-03T06:11:38Z</time></trkpt><trkpt lat="48.99465923046007" lon="6.889806119261898"><ele>227.5</ele><time>2026-05-03T06:11:38.999Z</time></trkpt><trkpt lat="48.994601582618095" lon="6.889720142475809"><ele>227.0</ele><time>2026-05-03T06:11:39.999Z</time></trkpt><trkpt lat="48.99454698273121" lon="6.889639057176081"><ele>226.49999999999997</ele><time>2026-05-03T06:11:40.999Z</time></trkpt><trkpt lat="48.994488176610105" lon="6.8895066279611665"><ele>226.0</ele><time>2026-05-03T06:11:42.999Z</time></trkpt><trkpt lat="48.99454793418956" lon="6.889351941525471"><ele>226.0</ele><time>2026-05-03T06:11:44.999Z</time></trkpt><trkpt lat="48.99460357468257" lon="6.889288680584894"><ele>226.00000000000003</ele><time>2026-05-03T06:11:45.999Z</time></trkpt><trkpt lat="48.99466918441269" lon="6.889219163726545"><ele>226.00000000000003</ele><time>2026-05-03T06:11:46.999Z</time></trkpt><trkpt lat="48.99474473032145" lon="6.88912540010845"><ele>226.0</ele><time>2026-05-03T06:11:48Z</time></trkpt><trkpt lat="48.99482732448107" lon="6.889006157250865"><ele>226.0</ele><time>2026-05-03T06:11:49Z</time></trkpt><trkpt lat="48.99491077433293" lon="6.888890014305156"><ele>226.0</ele><time>2026-05-03T06:11:50Z</time></trkpt><trkpt lat="48.994984628635464" lon="6.888750981068149"><ele>226.0</ele><time>2026-05-03T06:11:51Z</time></trkpt><trkpt lat="48.99508697735976" lon="6.888660169819727"><ele>226.0</ele><time>2026-05-03T06:11:52Z</time></trkpt><trkpt lat="48.995207523518076" lon="6.888622307412776"><ele>226.0</ele><time>2026-05-03T06:11:53Z</time></trkpt><trkpt lat="48.99531337716097" lon="6.888578980858524"><ele>225.99999999999997</ele><time>2026-05-03T06:11:54Z</time></trkpt><trkpt lat="48.99540556807099" lon="6.888535820584035"><ele>226.0</ele><time>2026-05-03T06:11:55Z</time></trkpt><trkpt lat="48.99548822187357" lon="6.888487876171134"><ele>226.0</ele><time>2026-05-03T06:11:56Z</time></trkpt><trkpt lat="48.995556973949036" lon="6.888436454422455"><ele>226.0</ele><time>2026-05-03T06:11:57Z</time></trkpt><trkpt lat="48.99560629402451" lon="6.888373255818328"><ele>225.99999999999997</ele><time>2026-05-03T06:11:58Z</time></trkpt><trkpt lat="48.99564061206253" lon="6.888208264790114"><ele>226.0</ele><time>2026-05-03T06:12:00Z</time></trkpt><trkpt lat="48.995759048927646" lon="6.888176859476012"><ele>226.16666666666666</ele><time>2026-05-03T06:12:34Z</time></trkpt><trkpt lat="48.9958374188338" lon="6.888220345133423"><ele>226.33333333333331</ele><time>2026-05-03T06:12:35Z</time></trkpt><trkpt lat="48.99590177280434" lon="6.888254830835231"><ele>226.5</ele><time>2026-05-03T06:12:36Z</time></trkpt><trkpt lat="48.99598291872704" lon="6.888297375114999"><ele>226.66666666666669</ele><time>2026-05-03T06:12:37Z</time></trkpt><trkpt lat="48.9960787717189" lon="6.888348485741327"><ele>226.83333333333334</ele><time>2026-05-03T06:12:38Z</time></trkpt><trkpt lat="48.9961634942745" lon="6.88839196451125"><ele>227.0</ele><time>2026-05-03T06:12:39Z</time></trkpt><trkpt lat="48.99625644648858" lon="6.888431627232597"><ele>227.0</ele><time>2026-05-03T06:12:40Z</time></trkpt><trkpt lat="48.996367381917736" lon="6.88846050628831"><ele>227.0</ele><time>2026-05-03T06:12:41Z</time></trkpt><trkpt lat="48.99648360293565" lon="6.888449472954877"><ele>227.0</ele><time>2026-05-03T06:12:42Z</time></trkpt><trkpt lat="48.9965948347728" lon="6.888386040263749"><ele>227.0</ele><time>2026-05-03T06:12:43Z</time></trkpt><trkpt lat="48.99669318279632" lon="6.888287099605206"><ele>227.39999999999998</ele><time>2026-05-03T06:12:44Z</time></trkpt><trkpt lat="48.99678424514242" lon="6.888172766796099"><ele>227.79999999999998</ele><time>2026-05-03T06:12:45Z</time></trkpt><trkpt lat="48.996874108103604" lon="6.888091397621793"><ele>228.2</ele><time>2026-05-03T06:12:46Z</time></trkpt><trkpt lat="48.99697880069773" lon="6.888059375554233"><ele>228.6</ele><time>2026-05-03T06:12:47Z</time></trkpt><trkpt lat="48.99708476782069" lon="6.888047589225084"><ele>229.0</ele><time>2026-05-03T06:12:48Z</time></trkpt><trkpt lat="48.997185184255386" lon="6.888063151982062"><ele>229.0</ele><time>2026-05-03T06:12:49Z</time></trkpt><trkpt lat="48.99727598521232" lon="6.8881267979730545"><ele>228.99999999999997</ele><time>2026-05-03T06:12:50Z</time></trkpt><trkpt lat="48.997354358704506" lon="6.8882273894240065"><ele>228.99999999999997</ele><time>2026-05-03T06:12:51Z</time></trkpt><trkpt lat="48.99742362463064" lon="6.888361390388073"><ele>229.0</ele><time>2026-05-03T06:12:52Z</time></trkpt><trkpt lat="48.99749216320037" lon="6.888516812792108"><ele>229.0</ele><time>2026-05-03T06:12:53Z</time></trkpt><trkpt lat="48.99756578662237" lon="6.88868180998004"><ele>230.0</ele><time>2026-05-03T06:12:54Z</time></trkpt><trkpt lat="48.99765382053028" lon="6.888847991662815"><ele>231.0</ele><time>2026-05-03T06:12:55Z</time></trkpt><trkpt lat="48.99773761454934" lon="6.888983843152298"><ele>232.0</ele><time>2026-05-03T06:12:56Z</time></trkpt><trkpt lat="48.99782594207735" lon="6.889120089970981"><ele>233.0</ele><time>2026-05-03T06:12:57Z</time></trkpt><trkpt lat="48.997917146563644" lon="6.889259650303478"><ele>233.25</ele><time>2026-05-03T06:12:58Z</time></trkpt><trkpt lat="48.9980112915114" lon="6.889403344500154"><ele>233.5</ele><time>2026-05-03T06:12:59Z</time></trkpt><trkpt lat="48.99810162890041" lon="6.889545086420468"><ele>233.75</ele><time>2026-05-03T06:13:00Z</time></trkpt><trkpt lat="48.99818965889795" lon="6.889685706599745"><ele>234.0</ele><time>2026-05-03T06:13:01Z</time></trkpt><trkpt lat="48.99828828256247" lon="6.889826751001417"><ele>233.0</ele><time>2026-05-03T06:13:02Z</time></trkpt><trkpt lat="48.99839624137801" lon="6.889958067147713"><ele>232.0</ele><time>2026-05-03T06:13:03Z</time></trkpt><trkpt lat="48.99850972405176" lon="6.890079439497684"><ele>231.0</ele><time>2026-05-03T06:13:04Z</time></trkpt><trkpt lat="48.99862974552941" lon="6.890178172756127"><ele>230.0</ele><time>2026-05-03T06:13:05Z</time></trkpt><trkpt lat="48.998748681871774" lon="6.890263333453483"><ele>230.0</ele><time>2026-05-03T06:13:06Z</time></trkpt><trkpt lat="48.99886210868684" lon="6.890329489765284"><ele>230.0</ele><time>2026-05-03T06:13:07Z</time></trkpt><trkpt lat="48.998977253341536" lon="6.890395188431118"><ele>230.0</ele><time>2026-05-03T06:13:08Z</time></trkpt><trkpt lat="48.99908707550583" lon="6.890459955017073"><ele>230.0</ele><time>2026-05-03T06:13:09Z</time></trkpt><trkpt lat="48.99918652957623" lon="6.890534325040898"><ele>228.6</ele><time>2026-05-03T06:13:10Z</time></trkpt><trkpt lat="48.999292635646015" lon="6.8905750316702985"><ele>227.2</ele><time>2026-05-03T06:13:11Z</time></trkpt><trkpt lat="48.99940044057548" lon="6.8906016149188005"><ele>225.8</ele><time>2026-05-03T06:13:12Z</time></trkpt><trkpt lat="48.99950473889346" lon="6.890566798962537"><ele>224.4</ele><time>2026-05-03T06:13:13Z</time></trkpt><trkpt lat="48.99962200167018" lon="6.890512722355917"><ele>223.0</ele><time>2026-05-03T06:13:14Z</time></trkpt><trkpt lat="48.9997475329751" lon="6.890461222864613"><ele>223.0</ele><time>2026-05-03T06:13:15Z</time></trkpt><trkpt lat="48.99986991615802" lon="6.890370581266412"><ele>223.0</ele><time>2026-05-03T06:13:16Z</time></trkpt><trkpt lat="49.00000536087738" lon="6.890282491911134"><ele>223.0</ele><time>2026-05-03T06:13:17Z</time></trkpt><trkpt lat="49.00012484841228" lon="6.8902220185163205"><ele>223.0</ele><time>2026-05-03T06:13:18Z</time></trkpt><trkpt lat="49.000242651093174" lon="6.89016599025806"><ele>223.0</ele><time>2026-05-03T06:13:19Z</time></trkpt><trkpt lat="49.00035469483832" lon="6.890116500814689"><ele>223.0</ele><time>2026-05-03T06:13:20Z</time></trkpt><trkpt lat="49.00046754677503" lon="6.890086858775448"><ele>223.0</ele><time>2026-05-03T06:13:21Z</time></trkpt><trkpt lat="49.0005766580822" lon="6.890082353422864"><ele>223.0</ele><time>2026-05-03T06:13:22Z</time></trkpt><trkpt lat="49.000682953987784" lon="6.890086515592832"><ele>223.0</ele><time>2026-05-03T06:13:23Z</time></trkpt><trkpt lat="49.00079442114063" lon="6.890051238403109"><ele>222.0</ele><time>2026-05-03T06:13:24Z</time></trkpt><trkpt lat="49.000906638407955" lon="6.889957337577919"><ele>221.0</ele><time>2026-05-03T06:13:25Z</time></trkpt><trkpt lat="49.00102037656898" lon="6.889844374907027"><ele>220.0</ele><time>2026-05-03T06:13:26Z</time></trkpt><trkpt lat="49.00113258808317" lon="6.889730849398935"><ele>219.0</ele><time>2026-05-03T06:13:27Z</time></trkpt><trkpt lat="49.001238447820725" lon="6.889627484086937"><ele>219.0</ele><time>2026-05-03T06:13:28Z</time></trkpt><trkpt lat="49.00133702238482" lon="6.8895321338985225"><ele>218.99999999999997</ele><time>2026-05-03T06:13:29Z</time></trkpt><trkpt lat="49.0014298233593" lon="6.88944652403911"><ele>218.99999999999997</ele><time>2026-05-03T06:13:30Z</time></trkpt><trkpt lat="49.001522173340625" lon="6.889379495455047"><ele>219.0</ele><time>2026-05-03T06:13:31Z</time></trkpt><trkpt lat="49.001628251520714" lon="6.889331078346898"><ele>219.0</ele><time>2026-05-03T06:13:32Z</time></trkpt><trkpt lat="49.001742760668286" lon="6.889321415450981"><ele>218.5</ele><time>2026-05-03T06:13:33Z</time></trkpt><trkpt lat="49.001846550712266" lon="6.889348120046477"><ele>218.0</ele><time>2026-05-03T06:13:34Z</time></trkpt><trkpt lat="49.00194802977347" lon="6.8894197062473514"><ele>217.5</ele><time>2026-05-03T06:13:35Z</time></trkpt><trkpt lat="49.00201102226177" lon="6.88956576245811"><ele>217.0</ele><time>2026-05-03T06:13:36Z</time></trkpt><trkpt lat="49.0020930214559" lon="6.889710864976938"><ele>217.0</ele><time>2026-05-03T06:13:37Z</time></trkpt><trkpt lat="49.002160833394434" lon="6.8898782611520035"><ele>217.0</ele><time>2026-05-03T06:13:38Z</time></trkpt><trkpt lat="49.00223933068556" lon="6.89004568883303"><ele>217.0</ele><time>2026-05-03T06:13:39Z</time></trkpt><trkpt lat="49.002320933831015" lon="6.890208173141153"><ele>217.0</ele><time>2026-05-03T06:13:40Z</time></trkpt><trkpt lat="49.00240983707001" lon="6.8903604009316455"><ele>217.0</ele><time>2026-05-03T06:13:41Z</time></trkpt><trkpt lat="49.00251230017335" lon="6.890493289352422"><ele>217.0</ele><time>2026-05-03T06:13:42Z</time></trkpt><trkpt lat="49.0026305848841" lon="6.890601564619594"><ele>217.0</ele><time>2026-05-03T06:13:42.999Z</time></trkpt><trkpt lat="49.00274502571686" lon="6.890700702105723"><ele>217.0</ele><time>2026-05-03T06:13:43.999Z</time></trkpt><trkpt lat="49.00285429637566" lon="6.890800961131427"><ele>217.0</ele><time>2026-05-03T06:13:44.999Z</time></trkpt><trkpt lat="49.002956924670286" lon="6.890904244952356"><ele>217.0</ele><time>2026-05-03T06:13:45.999Z</time></trkpt><trkpt lat="49.00304920847368" lon="6.891000234211238"><ele>217.0</ele><time>2026-05-03T06:13:46.999Z</time></trkpt><trkpt lat="49.00313321031961" lon="6.891110117014292"><ele>217.0</ele><time>2026-05-03T06:13:47.999Z</time></trkpt><trkpt lat="49.00317847892159" lon="6.891280753940423"><ele>217.25</ele><time>2026-05-03T06:13:48.999Z</time></trkpt><trkpt lat="49.003233344674044" lon="6.891461940378995"><ele>217.5</ele><time>2026-05-03T06:13:49.999Z</time></trkpt><trkpt lat="49.00326418042085" lon="6.891674756389386"><ele>217.75</ele><time>2026-05-03T06:13:50.999Z</time></trkpt><trkpt lat="49.00330508084876" lon="6.891891123686125"><ele>218.0</ele><time>2026-05-03T06:13:51.999Z</time></trkpt><trkpt lat="49.00335139605916" lon="6.892109014700685"><ele>218.0</ele><time>2026-05-03T06:13:52.999Z</time></trkpt><trkpt lat="49.003399786290814" lon="6.892324638588811"><ele>218.0</ele><time>2026-05-03T06:13:54Z</time></trkpt><trkpt lat="49.003449303603944" lon="6.8925348992493225"><ele>218.0</ele><time>2026-05-03T06:13:55Z</time></trkpt><trkpt lat="49.00349772824199" lon="6.892741691659719"><ele>218.0</ele><time>2026-05-03T06:13:56Z</time></trkpt><trkpt lat="49.00354576913408" lon="6.8929479920720675"><ele>217.0</ele><time>2026-05-03T06:13:57Z</time></trkpt><trkpt lat="49.003614629077454" lon="6.893142794474416"><ele>216.0</ele><time>2026-05-03T06:13:58Z</time></trkpt><trkpt lat="49.00368886632884" lon="6.893344728121659"><ele>215.0</ele><time>2026-05-03T06:13:59Z</time></trkpt><trkpt lat="49.003769217383095" lon="6.893552306810313"><ele>215.0</ele><time>2026-05-03T06:14:00Z</time></trkpt><trkpt lat="49.00384901217985" lon="6.893767945517079"><ele>215.0</ele><time>2026-05-03T06:14:01Z</time></trkpt><trkpt lat="49.003930449789536" lon="6.894001334796143"><ele>215.0</ele><time>2026-05-03T06:14:02Z</time></trkpt><trkpt lat="49.00401519306422" lon="6.89423235463696"><ele>214.66666666666669</ele><time>2026-05-03T06:14:03Z</time></trkpt><trkpt lat="49.00410461556665" lon="6.894464271855589"><ele>214.33333333333331</ele><time>2026-05-03T06:14:04Z</time></trkpt><trkpt lat="49.0042007084423" lon="6.894698242730223"><ele>214.0</ele><time>2026-05-03T06:14:05Z</time></trkpt><trkpt lat="49.004301036975086" lon="6.894926249841729"><ele>214.0</ele><time>2026-05-03T06:14:06Z</time></trkpt><trkpt lat="49.00440306488438" lon="6.895151231086898"><ele>214.0</ele><time>2026-05-03T06:14:07Z</time></trkpt><trkpt lat="49.00450606441566" lon="6.895377564603427"><ele>214.0</ele><time>2026-05-03T06:14:08Z</time></trkpt><trkpt lat="49.004610004457945" lon="6.895608765599147"><ele>214.0</ele><time>2026-05-03T06:14:09Z</time></trkpt><trkpt lat="49.00471330559545" lon="6.895844664651975"><ele>214.0</ele><time>2026-05-03T06:14:10Z</time></trkpt><trkpt lat="49.00481708367907" lon="6.8960816391590205"><ele>214.0</ele><time>2026-05-03T06:14:11Z</time></trkpt><trkpt lat="49.004926845754724" lon="6.896318730610959"><ele>215.0</ele><time>2026-05-03T06:14:12Z</time></trkpt><trkpt lat="49.00504250600383" lon="6.896548222060415"><ele>216.0</ele><time>2026-05-03T06:14:13Z</time></trkpt><trkpt lat="49.00516865416372" lon="6.896767218967109"><ele>217.0</ele><time>2026-05-03T06:14:14Z</time></trkpt><trkpt lat="49.00530465623374" lon="6.89697452459272"><ele>217.33333333333331</ele><time>2026-05-03T06:14:15Z</time></trkpt><trkpt lat="49.005446682307046" lon="6.897181723411967"><ele>217.66666666666669</ele><time>2026-05-03T06:14:16Z</time></trkpt><trkpt lat="49.00558348197907" lon="6.897392632774118"><ele>218.0</ele><time>2026-05-03T06:14:17Z</time></trkpt><trkpt lat="49.00571895514005" lon="6.897608535839693"><ele>218.66666666666669</ele><time>2026-05-03T06:14:18Z</time></trkpt><trkpt lat="49.00585445671969" lon="6.89782092687704"><ele>219.33333333333331</ele><time>2026-05-03T06:14:19Z</time></trkpt><trkpt lat="49.0059915263076" lon="6.898030668664305"><ele>220.0</ele><time>2026-05-03T06:14:20Z</time></trkpt><trkpt lat="49.006126976339566" lon="6.898240183449126"><ele>220.33333333333331</ele><time>2026-05-03T06:14:21Z</time></trkpt><trkpt lat="49.00626282610144" lon="6.898451370103057"><ele>220.66666666666669</ele><time>2026-05-03T06:14:22Z</time></trkpt><trkpt lat="49.00639907442087" lon="6.898660539328723"><ele>221.0</ele><time>2026-05-03T06:14:23Z</time></trkpt><trkpt lat="49.00652831146626" lon="6.898862352484715"><ele>221.0</ele><time>2026-05-03T06:14:24Z</time></trkpt><trkpt lat="49.00665881071355" lon="6.899067848508965"><ele>221.0</ele><time>2026-05-03T06:14:25Z</time></trkpt><trkpt lat="49.00678376069328" lon="6.899266699779993"><ele>221.0</ele><time>2026-05-03T06:14:26Z</time></trkpt><trkpt lat="49.006910403008625" lon="6.899463415129708"><ele>223.0</ele><time>2026-05-03T06:14:27Z</time></trkpt><trkpt lat="49.00703493114091" lon="6.8996517524365375"><ele>225.0</ele><time>2026-05-03T06:14:28Z</time></trkpt><trkpt lat="49.00716405210411" lon="6.899837032695361"><ele>227.0</ele><time>2026-05-03T06:14:29Z</time></trkpt><trkpt lat="49.00729449635971" lon="6.900016319556051"><ele>228.0</ele><time>2026-05-03T06:14:30Z</time></trkpt><trkpt lat="49.00742896219521" lon="6.900190117875752"><ele>229.0</ele><time>2026-05-03T06:14:31Z</time></trkpt><trkpt lat="49.00756071743601" lon="6.900363099824955"><ele>230.0</ele><time>2026-05-03T06:14:32Z</time></trkpt><trkpt lat="49.00768361276051" lon="6.90053217830175"><ele>230.25</ele><time>2026-05-03T06:14:33Z</time></trkpt><trkpt lat="49.007796152888815" lon="6.900686207442581"><ele>230.5</ele><time>2026-05-03T06:14:34Z</time></trkpt><trkpt lat="49.007897116745404" lon="6.90081382355429"><ele>230.75</ele><time>2026-05-03T06:14:35Z</time></trkpt><trkpt lat="49.007986165431994" lon="6.900924314650679"><ele>231.0</ele><time>2026-05-03T06:14:36Z</time></trkpt><trkpt lat="49.00807411821048" lon="6.9010110723380125"><ele>231.0</ele><time>2026-05-03T06:14:37Z</time></trkpt><trkpt lat="49.00817166964743" lon="6.901038895227636"><ele>231.00000000000003</ele><time>2026-05-03T06:14:38Z</time></trkpt><trkpt lat="49.008266121393966" lon="6.901032344573766"><ele>231.00000000000003</ele><time>2026-05-03T06:14:39Z</time></trkpt><trkpt lat="49.008330018784235" lon="6.901011258712706"><ele>231.0</ele><time>2026-05-03T06:14:40Z</time></trkpt><trkpt lat="49.008405314011355" lon="6.900994473359279"><ele>231.0</ele><time>2026-05-03T06:14:42Z</time></trkpt><trkpt lat="49.0084237059895" lon="6.900775572189768"><ele>231.0</ele><time>2026-05-03T06:14:43Z</time></trkpt><trkpt lat="49.00844685859334" lon="6.900629670518097"><ele>231.00000000000003</ele><time>2026-05-03T06:14:44Z</time></trkpt><trkpt lat="49.008482890430074" lon="6.900491124463954"><ele>231.00000000000003</ele><time>2026-05-03T06:14:45Z</time></trkpt><trkpt lat="49.00854646790704" lon="6.900354030482086"><ele>231.0</ele><time>2026-05-03T06:14:46Z</time></trkpt><trkpt lat="49.00863667227366" lon="6.900208347545676"><ele>231.0</ele><time>2026-05-03T06:14:47Z</time></trkpt><trkpt lat="49.00876063950979" lon="6.900051270370903"><ele>231.0</ele><time>2026-05-03T06:14:48Z</time></trkpt><trkpt lat="49.00888766311784" lon="6.899908007029941"><ele>231.0</ele><time>2026-05-03T06:14:49Z</time></trkpt><trkpt lat="49.00902561144377" lon="6.899758967980406"><ele>231.0</ele><time>2026-05-03T06:14:50Z</time></trkpt><trkpt lat="49.00917836638552" lon="6.899603026600825"><ele>231.0</ele><time>2026-05-03T06:14:51Z</time></trkpt><trkpt lat="49.00934968589399" lon="6.899467690917272"><ele>231.0</ele><time>2026-05-03T06:14:52Z</time></trkpt><trkpt lat="49.00952461088104" lon="6.899343940057641"><ele>231.0</ele><time>2026-05-03T06:14:53Z</time></trkpt><trkpt lat="49.009699471117244" lon="6.899211245651738"><ele>231.0</ele><time>2026-05-03T06:14:54Z</time></trkpt><trkpt lat="49.00988211935965" lon="6.899065797822828"><ele>231.0</ele><time>2026-05-03T06:14:55Z</time></trkpt><trkpt lat="49.01005855875049" lon="6.898925838332754"><ele>231.0</ele><time>2026-05-03T06:14:56Z</time></trkpt><trkpt lat="49.01022356586084" lon="6.898807646340078"><ele>231.0</ele><time>2026-05-03T06:14:57Z</time></trkpt><trkpt lat="49.01039131046169" lon="6.898705580040272"><ele>231.0</ele><time>2026-05-03T06:14:58Z</time></trkpt><trkpt lat="49.010573041517695" lon="6.898626973476141"><ele>231.0</ele><time>2026-05-03T06:14:59Z</time></trkpt><trkpt lat="49.01076492889828" lon="6.898581434090017"><ele>231.33333333333331</ele><time>2026-05-03T06:15:00Z</time></trkpt><trkpt lat="49.010950901620355" lon="6.898554189207829"><ele>231.66666666666666</ele><time>2026-05-03T06:15:01Z</time></trkpt><trkpt lat="49.011120165694656" lon="6.898530402600394"><ele>232.0</ele><time>2026-05-03T06:15:02Z</time></trkpt><trkpt lat="49.01128032132541" lon="6.898496648753426"><ele>231.66666666666666</ele><time>2026-05-03T06:15:03Z</time></trkpt><trkpt lat="49.01143077067862" lon="6.898413802702988"><ele>231.33333333333331</ele><time>2026-05-03T06:15:04Z</time></trkpt><trkpt lat="49.01156971418013" lon="6.898275316098386"><ele>231.0</ele><time>2026-05-03T06:15:05Z</time></trkpt><trkpt lat="49.011684429349756" lon="6.898074071515225"><ele>232.33333333333331</ele><time>2026-05-03T06:15:06Z</time></trkpt><trkpt lat="49.011771964724794" lon="6.897845077964695"><ele>233.66666666666666</ele><time>2026-05-03T06:15:07Z</time></trkpt><trkpt lat="49.01186181179788" lon="6.897625719268403"><ele>235.0</ele><time>2026-05-03T06:15:08Z</time></trkpt><trkpt lat="49.01197915453137" lon="6.897432820884328"><ele>235.0</ele><time>2026-05-03T06:15:09Z</time></trkpt><trkpt lat="49.01212984486435" lon="6.89728117284673"><ele>235.0</ele><time>2026-05-03T06:15:10Z</time></trkpt><trkpt lat="49.01228701610186" lon="6.897133706115982"><ele>235.0</ele><time>2026-05-03T06:15:11Z</time></trkpt><trkpt lat="49.012430984017584" lon="6.896985637293266"><ele>235.66666666666666</ele><time>2026-05-03T06:15:12Z</time></trkpt><trkpt lat="49.01255735417431" lon="6.896829408912865"><ele>236.33333333333331</ele><time>2026-05-03T06:15:13Z</time></trkpt><trkpt lat="49.01266498331768" lon="6.896636668225988"><ele>237.0</ele><time>2026-05-03T06:15:14Z</time></trkpt><trkpt lat="49.012737244034795" lon="6.89639500183148"><ele>237.0</ele><time>2026-05-03T06:15:15Z</time></trkpt><trkpt lat="49.012769394480436" lon="6.896125481137697"><ele>237.0</ele><time>2026-05-03T06:15:16Z</time></trkpt><trkpt lat="49.01277526662812" lon="6.895861450055418"><ele>237.0</ele><time>2026-05-03T06:15:17Z</time></trkpt><trkpt lat="49.01278830374457" lon="6.895611675410103"><ele>235.66666666666669</ele><time>2026-05-03T06:15:18Z</time></trkpt><trkpt lat="49.01282765519248" lon="6.895384734929169"><ele>234.33333333333334</ele><time>2026-05-03T06:15:19Z</time></trkpt><trkpt lat="49.0129004518937" lon="6.895178384695429"><ele>233.0</ele><time>2026-05-03T06:15:20Z</time></trkpt><trkpt lat="49.013018977500415" lon="6.894986837528348"><ele>232.66666666666669</ele><time>2026-05-03T06:15:21Z</time></trkpt><trkpt lat="49.013177694872006" lon="6.894821455811169"><ele>232.33333333333331</ele><time>2026-05-03T06:15:22Z</time></trkpt><trkpt lat="49.01335748438579" lon="6.894686657476158"><ele>232.0</ele><time>2026-05-03T06:15:23Z</time></trkpt><trkpt lat="49.013542478383776" lon="6.894556574168611"><ele>232.0</ele><time>2026-05-03T06:15:24Z</time></trkpt><trkpt lat="49.01372393652076" lon="6.894418476454257"><ele>232.0</ele><time>2026-05-03T06:15:25Z</time></trkpt><trkpt lat="49.013902303159185" lon="6.89427648214548"><ele>232.0</ele><time>2026-05-03T06:15:26Z</time></trkpt><trkpt lat="49.01407815998246" lon="6.894136266442159"><ele>233.33333333333331</ele><time>2026-05-03T06:15:27Z</time></trkpt><trkpt lat="49.0142514239507" lon="6.893996064138758"><ele>234.66666666666669</ele><time>2026-05-03T06:15:28Z</time></trkpt><trkpt lat="49.01441975283972" lon="6.8938530005244205"><ele>236.0</ele><time>2026-05-03T06:15:29Z</time></trkpt><trkpt lat="49.014586203437936" lon="6.893704552467369"><ele>236.0</ele><time>2026-05-03T06:15:30Z</time></trkpt><trkpt lat="49.01475518641162" lon="6.893554472270823"><ele>236.0</ele><time>2026-05-03T06:15:31Z</time></trkpt><trkpt lat="49.01492959256988" lon="6.893405659063752"><ele>236.0</ele><time>2026-05-03T06:15:32Z</time></trkpt><trkpt lat="49.015106960703314" lon="6.893253481038403"><ele>236.33333333333334</ele><time>2026-05-03T06:15:33Z</time></trkpt><trkpt lat="49.015278788337525" lon="6.893090943186687"><ele>236.66666666666669</ele><time>2026-05-03T06:15:34Z</time></trkpt><trkpt lat="49.015445043649535" lon="6.892916183483619"><ele>237.0</ele><time>2026-05-03T06:15:35Z</time></trkpt><trkpt lat="49.015604244060334" lon="6.892733944804272"><ele>237.0</ele><time>2026-05-03T06:15:36Z</time></trkpt><trkpt lat="49.01575118156205" lon="6.8925630579592125"><ele>237.0</ele><time>2026-05-03T06:15:37Z</time></trkpt><trkpt lat="49.01589451607818" lon="6.892396469195578"><ele>237.0</ele><time>2026-05-03T06:15:38Z</time></trkpt><trkpt lat="49.01603126679814" lon="6.8922365805488"><ele>236.66666666666669</ele><time>2026-05-03T06:15:39Z</time></trkpt><trkpt lat="49.01616988499424" lon="6.8920777845923515"><ele>236.33333333333334</ele><time>2026-05-03T06:15:40Z</time></trkpt><trkpt lat="49.01630119956542" lon="6.891917210858826"><ele>236.0</ele><time>2026-05-03T06:15:41Z</time></trkpt><trkpt lat="49.01641243152807" lon="6.891757968766896"><ele>236.66666666666669</ele><time>2026-05-03T06:15:42Z</time></trkpt><trkpt lat="49.01649556748749" lon="6.891574390017678"><ele>237.33333333333331</ele><time>2026-05-03T06:15:43Z</time></trkpt><trkpt lat="49.01655096092367" lon="6.891353003731742"><ele>238.0</ele><time>2026-05-03T06:15:44Z</time></trkpt><trkpt lat="49.016578503790505" lon="6.891105842584303"><ele>238.33333333333331</ele><time>2026-05-03T06:15:45Z</time></trkpt><trkpt lat="49.01657214927304" lon="6.890852987175663"><ele>238.66666666666669</ele><time>2026-05-03T06:15:46Z</time></trkpt><trkpt lat="49.016543379597884" lon="6.890607237024642"><ele>239.0</ele><time>2026-05-03T06:15:47Z</time></trkpt><trkpt lat="49.01653833412595" lon="6.89038840290163"><ele>239.0</ele><time>2026-05-03T06:15:48Z</time></trkpt><trkpt lat="49.016527492636136" lon="6.890190603540947"><ele>239.0</ele><time>2026-05-03T06:15:48.999Z</time></trkpt><trkpt lat="49.01655901329255" lon="6.889995902523286"><ele>239.0</ele><time>2026-05-03T06:15:49.999Z</time></trkpt><trkpt lat="49.01662280524322" lon="6.8898069628082155"><ele>239.0</ele><time>2026-05-03T06:15:50.999Z</time></trkpt><trkpt lat="49.016711460315875" lon="6.889633075951293"><ele>239.66666666666669</ele><time>2026-05-03T06:15:51.999Z</time></trkpt><trkpt lat="49.01682702373842" lon="6.889474904843148"><ele>240.33333333333331</ele><time>2026-05-03T06:15:52.999Z</time></trkpt><trkpt lat="49.016965408831226" lon="6.889336470583275"><ele>241.0</ele><time>2026-05-03T06:15:53.999Z</time></trkpt><trkpt lat="49.01711722763316" lon="6.88920889899573"><ele>241.0</ele><time>2026-05-03T06:15:54.999Z</time></trkpt><trkpt lat="49.01726834202287" lon="6.889078870825606"><ele>241.0</ele><time>2026-05-03T06:15:55.999Z</time></trkpt><trkpt lat="49.01741266705915" lon="6.888919478261442"><ele>241.0</ele><time>2026-05-03T06:15:56.999Z</time></trkpt><trkpt lat="49.01754608152471" lon="6.888740822859357"><ele>240.33333333333331</ele><time>2026-05-03T06:15:57.999Z</time></trkpt><trkpt lat="49.01767458829426" lon="6.888559605158557"><ele>239.66666666666669</ele><time>2026-05-03T06:15:58.999Z</time></trkpt><trkpt lat="49.01780411284539" lon="6.888383143449339"><ele>239.0</ele><time>2026-05-03T06:16:00Z</time></trkpt><trkpt lat="49.01793496271934" lon="6.888209952722357"><ele>237.33333333333334</ele><time>2026-05-03T06:16:01Z</time></trkpt><trkpt lat="49.01806777114543" lon="6.888037656441028"><ele>235.66666666666669</ele><time>2026-05-03T06:16:02Z</time></trkpt><trkpt lat="49.01820080223802" lon="6.887866988496397"><ele>234.0</ele><time>2026-05-03T06:16:03Z</time></trkpt><trkpt lat="49.018334799896486" lon="6.8876997772136725"><ele>231.0</ele><time>2026-05-03T06:16:04Z</time></trkpt><trkpt lat="49.01847718866636" lon="6.887542299987098"><ele>228.0</ele><time>2026-05-03T06:16:05Z</time></trkpt><trkpt lat="49.01862876912119" lon="6.887405782254406"><ele>225.0</ele><time>2026-05-03T06:16:06Z</time></trkpt><trkpt lat="49.01878628365556" lon="6.887291617929925"><ele>225.0</ele><time>2026-05-03T06:16:07Z</time></trkpt><trkpt lat="49.018952006046035" lon="6.887194519645694"><ele>225.0</ele><time>2026-05-03T06:16:08Z</time></trkpt><trkpt lat="49.019125350234255" lon="6.887126456562161"><ele>225.0</ele><time>2026-05-03T06:16:09Z</time></trkpt><trkpt lat="49.01930006510285" lon="6.887074432082338"><ele>224.33333333333331</ele><time>2026-05-03T06:16:10Z</time></trkpt><trkpt lat="49.019476568737815" lon="6.887032682732561"><ele>223.66666666666666</ele><time>2026-05-03T06:16:11Z</time></trkpt><trkpt lat="49.01965134281518" lon="6.886992254278782"><ele>223.0</ele><time>2026-05-03T06:16:12Z</time></trkpt><trkpt lat="49.01982071299825" lon="6.886951371588317"><ele>223.0</ele><time>2026-05-03T06:16:13Z</time></trkpt><trkpt lat="49.01997713411032" lon="6.8869167310096815"><ele>223.0</ele><time>2026-05-03T06:16:14Z</time></trkpt><trkpt lat="49.020123738426236" lon="6.886887324571137"><ele>223.0</ele><time>2026-05-03T06:16:15Z</time></trkpt><trkpt lat="49.02026262664102" lon="6.8868629164368524"><ele>223.0</ele><time>2026-05-03T06:16:16Z</time></trkpt><trkpt lat="49.02039235607916" lon="6.886850810175389"><ele>222.75</ele><time>2026-05-03T06:16:17Z</time></trkpt><trkpt lat="49.02051455832764" lon="6.886853361699601"><ele>222.5</ele><time>2026-05-03T06:16:18Z</time></trkpt><trkpt lat="49.02063104119677" lon="6.886875505882201"><ele>222.25</ele><time>2026-05-03T06:16:19Z</time></trkpt><trkpt lat="49.020752178620086" lon="6.886915236482967"><ele>222.0</ele><time>2026-05-03T06:16:20Z</time></trkpt><trkpt lat="49.02086928511031" lon="6.886988972266397"><ele>222.75</ele><time>2026-05-03T06:16:21Z</time></trkpt><trkpt lat="49.02097223038756" lon="6.887093277299559"><ele>223.5</ele><time>2026-05-03T06:16:22Z</time></trkpt><trkpt lat="49.02106014979284" lon="6.887228672198156"><ele>224.25</ele><time>2026-05-03T06:16:23Z</time></trkpt><trkpt lat="49.021139866737315" lon="6.887374047235816"><ele>225.0</ele><time>2026-05-03T06:16:24Z</time></trkpt><trkpt lat="49.021210887044845" lon="6.887512846068361"><ele>225.0</ele><time>2026-05-03T06:16:25Z</time></trkpt><trkpt lat="49.02129154398629" lon="6.887617429318229"><ele>225.0</ele><time>2026-05-03T06:16:26Z</time></trkpt><trkpt lat="49.02138700471959" lon="6.887671331887706"><ele>225.0</ele><time>2026-05-03T06:16:27Z</time></trkpt><trkpt lat="49.02149781253551" lon="6.887697230266457"><ele>225.0</ele><time>2026-05-03T06:16:28Z</time></trkpt><trkpt lat="49.02161480269893" lon="6.887706592090699"><ele>225.0</ele><time>2026-05-03T06:16:29Z</time></trkpt><trkpt lat="49.021733704320724" lon="6.887692957417009"><ele>225.0</ele><time>2026-05-03T06:16:30Z</time></trkpt><trkpt lat="49.02185295600573" lon="6.887646592887745"><ele>225.0</ele><time>2026-05-03T06:16:31Z</time></trkpt><trkpt lat="49.021968557110306" lon="6.887583217425076"><ele>225.0</ele><time>2026-05-03T06:16:32Z</time></trkpt><trkpt lat="49.02207844748951" lon="6.8874889163263635"><ele>225.0</ele><time>2026-05-03T06:16:33Z</time></trkpt><trkpt lat="49.02218854982845" lon="6.8873808820017235"><ele>224.5</ele><time>2026-05-03T06:16:34Z</time></trkpt><trkpt lat="49.02228648024519" lon="6.8872558938842685"><ele>224.0</ele><time>2026-05-03T06:16:35Z</time></trkpt><trkpt lat="49.02238816289725" lon="6.887124705459533"><ele>223.5</ele><time>2026-05-03T06:16:36Z</time></trkpt><trkpt lat="49.02248842685874" lon="6.887004625132991"><ele>223.0</ele><time>2026-05-03T06:16:37Z</time></trkpt><trkpt lat="49.02258815098679" lon="6.88688426768882"><ele>223.25</ele><time>2026-05-03T06:16:38Z</time></trkpt><trkpt lat="49.02268307030734" lon="6.886757339599661"><ele>223.5</ele><time>2026-05-03T06:16:39Z</time></trkpt><trkpt lat="49.02276996492827" lon="6.886620011228995"><ele>223.75</ele><time>2026-05-03T06:16:40Z</time></trkpt><trkpt lat="49.022856544470955" lon="6.886482578644561"><ele>224.0</ele><time>2026-05-03T06:16:41Z</time></trkpt><trkpt lat="49.02293711338607" lon="6.8863451818234624"><ele>224.0</ele><time>2026-05-03T06:16:42Z</time></trkpt><trkpt lat="49.02300964102525" lon="6.886210278739626"><ele>224.0</ele><time>2026-05-03T06:16:43Z</time></trkpt><trkpt lat="49.023081267733424" lon="6.886064226719066"><ele>224.0</ele><time>2026-05-03T06:16:44Z</time></trkpt><trkpt lat="49.023162575064944" lon="6.885915532325576"><ele>224.0</ele><time>2026-05-03T06:16:45Z</time></trkpt><trkpt lat="49.02324422433035" lon="6.885761968388367"><ele>224.75</ele><time>2026-05-03T06:16:46Z</time></trkpt><trkpt lat="49.02331749277792" lon="6.885601316908299"><ele>225.5</ele><time>2026-05-03T06:16:47Z</time></trkpt><trkpt lat="49.02338172968225" lon="6.885432014183374"><ele>226.25</ele><time>2026-05-03T06:16:48Z</time></trkpt><trkpt lat="49.0234308219496" lon="6.885251337446429"><ele>227.0</ele><time>2026-05-03T06:16:49Z</time></trkpt><trkpt lat="49.023470112106054" lon="6.885078491336599"><ele>227.0</ele><time>2026-05-03T06:16:50Z</time></trkpt><trkpt lat="49.02350784850158" lon="6.884912013384308"><ele>227.0</ele><time>2026-05-03T06:16:51Z</time></trkpt><trkpt lat="49.02354788866095" lon="6.884749700125928"><ele>227.0</ele><time>2026-05-03T06:16:52Z</time></trkpt><trkpt lat="49.023609439266274" lon="6.884590315469603"><ele>227.0</ele><time>2026-05-03T06:16:53Z</time></trkpt><trkpt lat="49.02368318132182" lon="6.884431406153645"><ele>227.0</ele><time>2026-05-03T06:16:54Z</time></trkpt><trkpt lat="49.02377440871218" lon="6.88428815833154"><ele>227.0</ele><time>2026-05-03T06:16:55Z</time></trkpt><trkpt lat="49.02385829081366" lon="6.884131586989813"><ele>227.0</ele><time>2026-05-03T06:16:56Z</time></trkpt><trkpt lat="49.023943206033415" lon="6.883973090336112"><ele>227.0</ele><time>2026-05-03T06:16:57Z</time></trkpt><trkpt lat="49.024017997431315" lon="6.8837941707661345"><ele>226.75</ele><time>2026-05-03T06:16:58Z</time></trkpt><trkpt lat="49.024112183756266" lon="6.883647208384011"><ele>226.5</ele><time>2026-05-03T06:16:59Z</time></trkpt><trkpt lat="49.024200288481765" lon="6.883500142308041"><ele>226.25</ele><time>2026-05-03T06:17:00Z</time></trkpt><trkpt lat="49.024280694702334" lon="6.883346653006455"><ele>226.0</ele><time>2026-05-03T06:17:01Z</time></trkpt><trkpt lat="49.02436225094753" lon="6.8831828535260025"><ele>225.75</ele><time>2026-05-03T06:17:02Z</time></trkpt><trkpt lat="49.02444591093785" lon="6.88302474317351"><ele>225.5</ele><time>2026-05-03T06:17:03Z</time></trkpt><trkpt lat="49.02452941097365" lon="6.8828599866127265"><ele>225.25</ele><time>2026-05-03T06:17:04Z</time></trkpt><trkpt lat="49.02461549817266" lon="6.882699689034837"><ele>225.0</ele><time>2026-05-03T06:17:05Z</time></trkpt><trkpt lat="49.02469270639466" lon="6.8825502195480786"><ele>224.8</ele><time>2026-05-03T06:17:06Z</time></trkpt><trkpt lat="49.024767841279754" lon="6.882408103720542"><ele>224.6</ele><time>2026-05-03T06:17:07Z</time></trkpt><trkpt lat="49.024842208986975" lon="6.882267992400786"><ele>224.39999999999998</ele><time>2026-05-03T06:17:08Z</time></trkpt><trkpt lat="49.024907509105944" lon="6.882133290847627"><ele>224.2</ele><time>2026-05-03T06:17:09Z</time></trkpt><trkpt lat="49.02497464505069" lon="6.882017529812056"><ele>224.0</ele><time>2026-05-03T06:17:10Z</time></trkpt><trkpt lat="49.02502620642326" lon="6.881921473569795"><ele>224.00000000000003</ele><time>2026-05-03T06:17:11Z</time></trkpt><trkpt lat="49.025066670273745" lon="6.881842942974063"><ele>224.0</ele><time>2026-05-03T06:17:12Z</time></trkpt><trkpt lat="49.02511532732839" lon="6.881750184772101"><ele>224.0</ele><time>2026-05-03T06:17:14Z</time></trkpt><trkpt lat="49.02514221162206" lon="6.8816266306781975"><ele>224.0</ele><time>2026-05-03T06:17:26Z</time></trkpt><trkpt lat="49.02519341266107" lon="6.8814777554329165"><ele>224.00000000000003</ele><time>2026-05-03T06:17:28Z</time></trkpt><trkpt lat="49.025234265421545" lon="6.881396184337547"><ele>224.0</ele><time>2026-05-03T06:17:29Z</time></trkpt><trkpt lat="49.02528686758939" lon="6.881307810924411"><ele>224.0</ele><time>2026-05-03T06:17:30Z</time></trkpt><trkpt lat="49.0253467681269" lon="6.881211732189416"><ele>223.99999999999997</ele><time>2026-05-03T06:17:31Z</time></trkpt><trkpt lat="49.02540421905433" lon="6.881118514223486"><ele>223.99999999999997</ele><time>2026-05-03T06:17:32Z</time></trkpt><trkpt lat="49.0254717878474" lon="6.8810023510804434"><ele>224.0</ele><time>2026-05-03T06:17:33Z</time></trkpt><trkpt lat="49.025545037122484" lon="6.880871611479648"><ele>224.0</ele><time>2026-05-03T06:17:34Z</time></trkpt><trkpt lat="49.025620770230596" lon="6.880747373459501"><ele>224.0</ele><time>2026-05-03T06:17:35Z</time></trkpt><trkpt lat="49.025696386813856" lon="6.880634003295839"><ele>224.0</ele><time>2026-05-03T06:17:36Z</time></trkpt><trkpt lat="49.0257812607849" lon="6.8805118274075046"><ele>224.0</ele><time>2026-05-03T06:17:37Z</time></trkpt><trkpt lat="49.02587495354687" lon="6.8803952601146"><ele>224.0</ele><time>2026-05-03T06:17:38Z</time></trkpt><trkpt lat="49.025976876075354" lon="6.88028100531194"><ele>224.2</ele><time>2026-05-03T06:17:39Z</time></trkpt><trkpt lat="49.02607733864847" lon="6.880164219417744"><ele>224.39999999999998</ele><time>2026-05-03T06:17:40Z</time></trkpt><trkpt lat="49.026165404614204" lon="6.880049539904084"><ele>224.6</ele><time>2026-05-03T06:17:41Z</time></trkpt><trkpt lat="49.0262374520894" lon="6.879934461872917"><ele>224.8</ele><time>2026-05-03T06:17:42Z</time></trkpt><trkpt lat="49.02629507776866" lon="6.8798048764554025"><ele>225.0</ele><time>2026-05-03T06:17:43Z</time></trkpt><trkpt lat="49.02633708827226" lon="6.87965463608259"><ele>225.0</ele><time>2026-05-03T06:17:44Z</time></trkpt><trkpt lat="49.026370773130985" lon="6.879499684171975"><ele>225.0</ele><time>2026-05-03T06:17:45Z</time></trkpt><trkpt lat="49.0264054050861" lon="6.879346133368093"><ele>225.0</ele><time>2026-05-03T06:17:46Z</time></trkpt><trkpt lat="49.02644093985795" lon="6.87918831133193"><ele>225.0</ele><time>2026-05-03T06:17:47Z</time></trkpt><trkpt lat="49.02647855986296" lon="6.879033903035601"><ele>225.0</ele><time>2026-05-03T06:17:48Z</time></trkpt><trkpt lat="49.02651694151109" lon="6.878878295724601"><ele>225.0</ele><time>2026-05-03T06:17:49Z</time></trkpt><trkpt lat="49.026559151593105" lon="6.878737621927361"><ele>225.0</ele><time>2026-05-03T06:17:50Z</time></trkpt><trkpt lat="49.02660368311372" lon="6.878611633044254"><ele>225.0</ele><time>2026-05-03T06:17:51Z</time></trkpt><trkpt lat="49.02664930324309" lon="6.878491880377536"><ele>225.0</ele><time>2026-05-03T06:17:52Z</time></trkpt><trkpt lat="49.026692415241094" lon="6.878366721557561"><ele>225.0</ele><time>2026-05-03T06:17:53Z</time></trkpt><trkpt lat="49.026735119204076" lon="6.878234927838486"><ele>225.0</ele><time>2026-05-03T06:17:54Z</time></trkpt><trkpt lat="49.026780362325844" lon="6.878101160367662"><ele>225.0</ele><time>2026-05-03T06:17:55Z</time></trkpt><trkpt lat="49.026831746487645" lon="6.8779622235281845"><ele>225.0</ele><time>2026-05-03T06:17:56Z</time></trkpt><trkpt lat="49.026880845957756" lon="6.8778257230616155"><ele>225.0</ele><time>2026-05-03T06:17:57Z</time></trkpt><trkpt lat="49.026931054339194" lon="6.877686213384068"><ele>225.0</ele><time>2026-05-03T06:17:58Z</time></trkpt><trkpt lat="49.0269812379754" lon="6.8775394198594"><ele>225.0</ele><time>2026-05-03T06:17:59Z</time></trkpt><trkpt lat="49.02703663638878" lon="6.877387957687277"><ele>225.0</ele><time>2026-05-03T06:18:00Z</time></trkpt><trkpt lat="49.02709510829651" lon="6.877232078380441"><ele>225.0</ele><time>2026-05-03T06:18:01Z</time></trkpt><trkpt lat="49.027151624102636" lon="6.877071961147172"><ele>225.0</ele><time>2026-05-03T06:18:02Z</time></trkpt><trkpt lat="49.02720381665802" lon="6.876926469306675"><ele>225.0</ele><time>2026-05-03T06:18:03Z</time></trkpt><trkpt lat="49.02725492258285" lon="6.876786424142826"><ele>225.0</ele><time>2026-05-03T06:18:04Z</time></trkpt><trkpt lat="49.02730255590754" lon="6.876646435467776"><ele>225.0</ele><time>2026-05-03T06:18:05Z</time></trkpt><trkpt lat="49.02734843284681" lon="6.876516412852692"><ele>225.0</ele><time>2026-05-03T06:18:06Z</time></trkpt><trkpt lat="49.02739362593614" lon="6.876389723087464"><ele>225.0</ele><time>2026-05-03T06:18:07Z</time></trkpt><trkpt lat="49.02743466070864" lon="6.876277440644031"><ele>225.16666666666666</ele><time>2026-05-03T06:18:08Z</time></trkpt><trkpt lat="49.027473141950644" lon="6.876177780528064"><ele>225.33333333333331</ele><time>2026-05-03T06:18:09Z</time></trkpt><trkpt lat="49.02751208240894" lon="6.876082457005284"><ele>225.5</ele><time>2026-05-03T06:18:10Z</time></trkpt><trkpt lat="49.027558166532515" lon="6.875990641033627"><ele>225.66666666666666</ele><time>2026-05-03T06:18:11Z</time></trkpt><trkpt lat="49.02760640075112" lon="6.875908823122013"><ele>225.83333333333331</ele><time>2026-05-03T06:18:12Z</time></trkpt><trkpt lat="49.02766050475573" lon="6.875812169623016"><ele>226.0</ele><time>2026-05-03T06:18:13Z</time></trkpt><trkpt lat="49.027717647605805" lon="6.875704405209817"><ele>226.0</ele><time>2026-05-03T06:18:14Z</time></trkpt><trkpt lat="49.02778060657765" lon="6.875585224135169"><ele>226.00000000000003</ele><time>2026-05-03T06:18:15Z</time></trkpt><trkpt lat="49.02783631269908" lon="6.875467418218801"><ele>226.00000000000003</ele><time>2026-05-03T06:18:16Z</time></trkpt><trkpt lat="49.02789121336647" lon="6.875350946624039"><ele>226.0</ele><time>2026-05-03T06:18:17Z</time></trkpt><trkpt lat="49.02796147988758" lon="6.875228457556429"><ele>226.0</ele><time>2026-05-03T06:18:18Z</time></trkpt><trkpt lat="49.02803696002967" lon="6.8751049824218455"><ele>225.5</ele><time>2026-05-03T06:18:19Z</time></trkpt><trkpt lat="49.0281007624139" lon="6.8749744330856135"><ele>225.0</ele><time>2026-05-03T06:18:20Z</time></trkpt><trkpt lat="49.02814184823518" lon="6.874813583307394"><ele>224.5</ele><time>2026-05-03T06:18:21Z</time></trkpt><trkpt lat="49.02816665270841" lon="6.874637338057228"><ele>224.0</ele><time>2026-05-03T06:18:22Z</time></trkpt><trkpt lat="49.028180420855584" lon="6.874450041273262"><ele>224.5</ele><time>2026-05-03T06:18:23Z</time></trkpt><trkpt lat="49.028220276834" lon="6.874268296228892"><ele>225.0</ele><time>2026-05-03T06:18:24Z</time></trkpt><trkpt lat="49.02824041408888" lon="6.874082074122591"><ele>225.5</ele><time>2026-05-03T06:18:25Z</time></trkpt><trkpt lat="49.028273818738356" lon="6.873928528477515"><ele>226.0</ele><time>2026-05-03T06:18:26Z</time></trkpt><trkpt lat="49.02831284197574" lon="6.873782315296309"><ele>226.25</ele><time>2026-05-03T06:18:27Z</time></trkpt><trkpt lat="49.02836354482342" lon="6.8736280638863345"><ele>226.5</ele><time>2026-05-03T06:18:28Z</time></trkpt><trkpt lat="49.02842798718854" lon="6.873479901828094"><ele>226.75</ele><time>2026-05-03T06:18:29Z</time></trkpt><trkpt lat="49.02851442415108" lon="6.873349850770702"><ele>227.0</ele><time>2026-05-03T06:18:30Z</time></trkpt><trkpt lat="49.0286227202706" lon="6.873260006643577"><ele>227.75</ele><time>2026-05-03T06:18:31Z</time></trkpt><trkpt lat="49.028737406449" lon="6.873179665203205"><ele>228.5</ele><time>2026-05-03T06:18:32Z</time></trkpt><trkpt lat="49.02884616082524" lon="6.873095051509753"><ele>229.25</ele><time>2026-05-03T06:18:33Z</time></trkpt><trkpt lat="49.028954944831376" lon="6.872989611301455"><ele>230.0</ele><time>2026-05-03T06:18:34Z</time></trkpt><trkpt lat="49.02904591420248" lon="6.87286379062147"><ele>230.0</ele><time>2026-05-03T06:18:35Z</time></trkpt><trkpt lat="49.02911130534572" lon="6.8727047350195685"><ele>230.0</ele><time>2026-05-03T06:18:36Z</time></trkpt><trkpt lat="49.029157769318395" lon="6.872524418354478"><ele>230.0</ele><time>2026-05-03T06:18:37Z</time></trkpt><trkpt lat="49.02920037152068" lon="6.872341709202534"><ele>230.0</ele><time>2026-05-03T06:18:38Z</time></trkpt><trkpt lat="49.02925727986892" lon="6.872154302863953"><ele>231.25</ele><time>2026-05-03T06:18:39Z</time></trkpt><trkpt lat="49.02932051257793" lon="6.871969681163248"><ele>232.5</ele><time>2026-05-03T06:18:40Z</time></trkpt><trkpt lat="49.029393978709926" lon="6.871796352622996"><ele>233.75</ele><time>2026-05-03T06:18:41Z</time></trkpt><trkpt lat="49.0294773214176" lon="6.871632180138663"><ele>235.0</ele><time>2026-05-03T06:18:42Z</time></trkpt><trkpt lat="49.02955665918771" lon="6.871458650525873"><ele>235.25</ele><time>2026-05-03T06:18:43Z</time></trkpt><trkpt lat="49.029641364815944" lon="6.871286865787846"><ele>235.5</ele><time>2026-05-03T06:18:44Z</time></trkpt><trkpt lat="49.02972581248847" lon="6.8711286288291715"><ele>235.75</ele><time>2026-05-03T06:18:45Z</time></trkpt><trkpt lat="49.02979863387988" lon="6.870983038270894"><ele>236.0</ele><time>2026-05-03T06:18:46Z</time></trkpt><trkpt lat="49.029862402237626" lon="6.870847005199254"><ele>235.66666666666669</ele><time>2026-05-03T06:18:47Z</time></trkpt><trkpt lat="49.02993223452707" lon="6.870727332630965"><ele>235.33333333333334</ele><time>2026-05-03T06:18:48Z</time></trkpt><trkpt lat="49.02998808941479" lon="6.870611963119546"><ele>235.0</ele><time>2026-05-03T06:18:49Z</time></trkpt><trkpt lat="49.03004591515475" lon="6.8705108253983465"><ele>234.66666666666669</ele><time>2026-05-03T06:18:50Z</time></trkpt><trkpt lat="49.03009542878701" lon="6.870411011550782"><ele>234.33333333333334</ele><time>2026-05-03T06:18:51Z</time></trkpt><trkpt lat="49.03013613633932" lon="6.870325607285482"><ele>234.0</ele><time>2026-05-03T06:18:52Z</time></trkpt><trkpt lat="49.03020839360132" lon="6.870258446597919"><ele>234.66666666666666</ele><time>2026-05-03T06:18:54Z</time></trkpt><trkpt lat="49.03032460887007" lon="6.870329630013586"><ele>235.33333333333331</ele><time>2026-05-03T06:18:57Z</time></trkpt><trkpt lat="49.03038196782474" lon="6.87037425902601"><ele>236.0</ele><time>2026-05-03T06:18:58Z</time></trkpt><trkpt lat="49.03046309739778" lon="6.8704291498272685"><ele>236.66666666666666</ele><time>2026-05-03T06:18:59Z</time></trkpt><trkpt lat="49.030542478322445" lon="6.8704764954993385"><ele>237.33333333333331</ele><time>2026-05-03T06:19:00Z</time></trkpt><trkpt lat="49.03061693838254" lon="6.870531251105212"><ele>238.0</ele><time>2026-05-03T06:19:01Z</time></trkpt><trkpt lat="49.03069765397468" lon="6.870580716735974"><ele>238.0</ele><time>2026-05-03T06:19:02Z</time></trkpt><trkpt lat="49.03079955268532" lon="6.870624957048069"><ele>238.0</ele><time>2026-05-03T06:19:03Z</time></trkpt><trkpt lat="49.03088721271046" lon="6.870687227180791"><ele>238.0</ele><time>2026-05-03T06:19:04Z</time></trkpt><trkpt lat="49.03098205492737" lon="6.870754390591992"><ele>238.0</ele><time>2026-05-03T06:19:05Z</time></trkpt><trkpt lat="49.03106773723874" lon="6.870815210909799"><ele>238.0</ele><time>2026-05-03T06:19:06Z</time></trkpt><trkpt lat="49.03115434212641" lon="6.870878108653871"><ele>238.75</ele><time>2026-05-03T06:19:07Z</time></trkpt><trkpt lat="49.03123275074871" lon="6.870925942261139"><ele>239.5</ele><time>2026-05-03T06:19:08Z</time></trkpt><trkpt lat="49.03130011426661" lon="6.870959186593133"><ele>240.25</ele><time>2026-05-03T06:19:09Z</time></trkpt><trkpt lat="49.031384674096564" lon="6.871059921127678"><ele>241.0</ele><time>2026-05-03T06:19:11Z</time></trkpt><trkpt lat="49.03153034652788" lon="6.8708464640547815"><ele>241.25</ele><time>2026-05-03T06:19:14Z</time></trkpt><trkpt lat="49.03157313889692" lon="6.8707126162372"><ele>241.5</ele><time>2026-05-03T06:19:15Z</time></trkpt><trkpt lat="49.03162254443065" lon="6.870550151118377"><ele>241.75</ele><time>2026-05-03T06:19:16Z</time></trkpt><trkpt lat="49.03166535625218" lon="6.870369747649778"><ele>242.0</ele><time>2026-05-03T06:19:17Z</time></trkpt><trkpt lat="49.03170759521156" lon="6.870209796571068"><ele>243.0</ele><time>2026-05-03T06:19:18Z</time></trkpt><trkpt lat="49.031758298954614" lon="6.870051811555405"><ele>244.0</ele><time>2026-05-03T06:19:19Z</time></trkpt><trkpt lat="49.0318125557204" lon="6.869893914756329"><ele>245.0</ele><time>2026-05-03T06:19:20Z</time></trkpt><trkpt lat="49.03188552195825" lon="6.869758486923488"><ele>246.0</ele><time>2026-05-03T06:19:21Z</time></trkpt><trkpt lat="49.031937787682295" lon="6.869601587070522"><ele>246.0</ele><time>2026-05-03T06:19:22Z</time></trkpt><trkpt lat="49.032009579266706" lon="6.869465174696399"><ele>246.00000000000003</ele><time>2026-05-03T06:19:23Z</time></trkpt><trkpt lat="49.032071073019615" lon="6.869338991505847"><ele>246.00000000000003</ele><time>2026-05-03T06:19:24Z</time></trkpt><trkpt lat="49.032122444954354" lon="6.869225541836578"><ele>246.0</ele><time>2026-05-03T06:19:25Z</time></trkpt><trkpt lat="49.032168653525005" lon="6.869114439940415"><ele>246.0</ele><time>2026-05-03T06:19:26Z</time></trkpt><trkpt lat="49.03223051082668" lon="6.8690244698006095"><ele>246.16666666666666</ele><time>2026-05-03T06:19:27Z</time></trkpt><trkpt lat="49.03228715850017" lon="6.868932524765708"><ele>246.33333333333331</ele><time>2026-05-03T06:19:28Z</time></trkpt><trkpt lat="49.0323512408497" lon="6.868835502673708"><ele>246.5</ele><time>2026-05-03T06:19:29Z</time></trkpt><trkpt lat="49.03240670476961" lon="6.868726633409175"><ele>246.66666666666666</ele><time>2026-05-03T06:19:30Z</time></trkpt><trkpt lat="49.03247050196093" lon="6.868651775225427"><ele>246.83333333333331</ele><time>2026-05-03T06:19:31Z</time></trkpt><trkpt lat="49.03252897533325" lon="6.868572337645653"><ele>247.0</ele><time>2026-05-03T06:19:32Z</time></trkpt><trkpt lat="49.032590010783004" lon="6.868493606657879"><ele>246.66666666666666</ele><time>2026-05-03T06:19:33Z</time></trkpt><trkpt lat="49.032643297938606" lon="6.868418422540768"><ele>246.33333333333331</ele><time>2026-05-03T06:19:34Z</time></trkpt><trkpt lat="49.03269765759731" lon="6.868351448639023"><ele>246.0</ele><time>2026-05-03T06:19:35Z</time></trkpt><trkpt lat="49.03275613775891" lon="6.868275966742743"><ele>245.66666666666669</ele><time>2026-05-03T06:19:36Z</time></trkpt><trkpt lat="49.032817418388696" lon="6.86819920808459"><ele>245.33333333333334</ele><time>2026-05-03T06:19:37Z</time></trkpt><trkpt lat="49.03289135081214" lon="6.868126247196307"><ele>245.0</ele><time>2026-05-03T06:19:38Z</time></trkpt><trkpt lat="49.03295445975493" lon="6.868019066508383"><ele>245.0</ele><time>2026-05-03T06:19:39Z</time></trkpt><trkpt lat="49.033028353053766" lon="6.867924848353712"><ele>245.0</ele><time>2026-05-03T06:19:40Z</time></trkpt><trkpt lat="49.03311031703621" lon="6.867816659507568"><ele>245.0</ele><time>2026-05-03T06:19:41Z</time></trkpt><trkpt lat="49.033198692010686" lon="6.8677007330487445"><ele>245.0</ele><time>2026-05-03T06:19:42Z</time></trkpt><trkpt lat="49.03328773252835" lon="6.867573943413417"><ele>245.0</ele><time>2026-05-03T06:19:43Z</time></trkpt><trkpt lat="49.03337692599441" lon="6.867435388490254"><ele>245.2</ele><time>2026-05-03T06:19:44Z</time></trkpt><trkpt lat="49.033456716982656" lon="6.867302867387639"><ele>245.4</ele><time>2026-05-03T06:19:45Z</time></trkpt><trkpt lat="49.033530334985734" lon="6.8671841609556905"><ele>245.60000000000002</ele><time>2026-05-03T06:19:46Z</time></trkpt><trkpt lat="49.03359547349684" lon="6.867081338220752"><ele>245.8</ele><time>2026-05-03T06:19:47Z</time></trkpt><trkpt lat="49.03366264627083" lon="6.866976810822192"><ele>246.0</ele><time>2026-05-03T06:19:48Z</time></trkpt><trkpt lat="49.033725479165994" lon="6.866875593061262"><ele>246.25</ele><time>2026-05-03T06:19:49Z</time></trkpt><trkpt lat="49.03379013902264" lon="6.866773706934924"><ele>246.5</ele><time>2026-05-03T06:19:50Z</time></trkpt><trkpt lat="49.033848103115616" lon="6.866678887024032"><ele>246.75</ele><time>2026-05-03T06:19:51Z</time></trkpt><trkpt lat="49.03390811722964" lon="6.866581250374842"><ele>247.0</ele><time>2026-05-03T06:19:52Z</time></trkpt><trkpt lat="49.03403943743698" lon="6.866371204489429"><ele>247.0</ele><time>2026-05-03T06:19:54Z</time></trkpt><trkpt lat="49.034099967141294" lon="6.86627080258029"><ele>247.0</ele><time>2026-05-03T06:19:55Z</time></trkpt><trkpt lat="49.034158173919515" lon="6.86617593719741"><ele>247.0</ele><time>2026-05-03T06:19:56Z</time></trkpt><trkpt lat="49.03422630374032" lon="6.866075776922993"><ele>247.0</ele><time>2026-05-03T06:19:57Z</time></trkpt><trkpt lat="49.0342938859931" lon="6.865948037720005"><ele>247.0</ele><time>2026-05-03T06:19:58Z</time></trkpt><trkpt lat="49.03436494034916" lon="6.865828435118131"><ele>248.39999999999998</ele><time>2026-05-03T06:19:59Z</time></trkpt><trkpt lat="49.034425817198276" lon="6.865704291582039"><ele>249.79999999999998</ele><time>2026-05-03T06:20:00Z</time></trkpt><trkpt lat="49.03449204904998" lon="6.865552364904378"><ele>251.2</ele><time>2026-05-03T06:20:01Z</time></trkpt><trkpt lat="49.03455924628248" lon="6.865428216065411"><ele>252.6</ele><time>2026-05-03T06:20:02Z</time></trkpt><trkpt lat="49.034609009609575" lon="6.865318519420359"><ele>254.0</ele><time>2026-05-03T06:20:03Z</time></trkpt><trkpt lat="49.03466822819241" lon="6.865235517486202"><ele>254.6</ele><time>2026-05-03T06:20:04Z</time></trkpt><trkpt lat="49.03474672452502" lon="6.8650765656980095"><ele>255.2</ele><time>2026-05-03T06:20:05.999Z</time></trkpt><trkpt lat="49.03479196159744" lon="6.864992108583663"><ele>255.79999999999998</ele><time>2026-05-03T06:20:06.999Z</time></trkpt><trkpt lat="49.034915005758556" lon="6.864896393119584"><ele>256.4</ele><time>2026-05-03T06:20:08.999Z</time></trkpt><trkpt lat="49.03500632094216" lon="6.864893687099636"><ele>257.0</ele><time>2026-05-03T06:20:09.999Z</time></trkpt><trkpt lat="49.035113609687876" lon="6.864915130211595"><ele>258.0</ele><time>2026-05-03T06:20:10.999Z</time></trkpt><trkpt lat="49.03523446205426" lon="6.864895921813464"><ele>259.0</ele><time>2026-05-03T06:20:12Z</time></trkpt><trkpt lat="49.03534102301791" lon="6.864899744581869"><ele>260.0</ele><time>2026-05-03T06:20:13Z</time></trkpt><trkpt lat="49.03544170014441" lon="6.864895054105205"><ele>261.0</ele><time>2026-05-03T06:20:14Z</time></trkpt><trkpt lat="49.035535044258935" lon="6.864895008471745"><ele>262.0</ele><time>2026-05-03T06:20:15Z</time></trkpt><trkpt lat="49.03562754285736" lon="6.8648918198139555"><ele>262.0</ele><time>2026-05-03T06:20:16Z</time></trkpt><trkpt lat="49.035708226656425" lon="6.864887338503842"><ele>262.0</ele><time>2026-05-03T06:20:17Z</time></trkpt><trkpt lat="49.03578031575083" lon="6.864885691308492"><ele>262.0</ele><time>2026-05-03T06:20:18Z</time></trkpt><trkpt lat="49.035861638029644" lon="6.8648824604918035"><ele>262.0</ele><time>2026-05-03T06:20:19Z</time></trkpt><trkpt lat="49.03594852197163" lon="6.864879217978008"><ele>262.0</ele><time>2026-05-03T06:20:20Z</time></trkpt><trkpt lat="49.036038022553704" lon="6.864873583864488"><ele>262.0</ele><time>2026-05-03T06:20:21Z</time></trkpt><trkpt lat="49.036122530198696" lon="6.864869439111971"><ele>262.66666666666663</ele><time>2026-05-03T06:20:22Z</time></trkpt><trkpt lat="49.03619998176334" lon="6.864867571389443"><ele>263.3333333333333</ele><time>2026-05-03T06:20:23Z</time></trkpt><trkpt lat="49.036266438677046" lon="6.864862746608408"><ele>264.0</ele><time>2026-05-03T06:20:24Z</time></trkpt><trkpt lat="49.03638922880768" lon="6.864859973773789"><ele>264.6666666666667</ele><time>2026-05-03T06:20:26Z</time></trkpt><trkpt lat="49.036459249234426" lon="6.864855924618618"><ele>265.33333333333337</ele><time>2026-05-03T06:20:27Z</time></trkpt><trkpt lat="49.03652226742906" lon="6.864852487224715"><ele>266.0</ele><time>2026-05-03T06:20:28Z</time></trkpt><trkpt lat="49.03658853291503" lon="6.864849746929113"><ele>266.0</ele><time>2026-05-03T06:20:29Z</time></trkpt><trkpt lat="49.0366643006577" lon="6.864851725641365"><ele>266.0</ele><time>2026-05-03T06:20:30Z</time></trkpt><trkpt lat="49.036745712323295" lon="6.8648491820273305"><ele>266.0</ele><time>2026-05-03T06:20:31Z</time></trkpt><trkpt lat="49.03681362896844" lon="6.86484730724101"><ele>266.0</ele><time>2026-05-03T06:20:32Z</time></trkpt><trkpt lat="49.03690545832473" lon="6.864852856916036"><ele>266.0</ele><time>2026-05-03T06:20:34Z</time></trkpt><trkpt lat="49.036970496810724" lon="6.864861475692189"><ele>266.0</ele><time>2026-05-03T06:20:37Z</time></trkpt></trkseg><trkseg><trkpt lat="49.0370587344488" lon="6.864760012388009"><ele>266.0</ele><time>2026-05-03T06:47:09.999Z</time></trkpt><trkpt lat="49.03712613035016" lon="6.864858245067713"><ele>266.0</ele><time>2026-05-03T06:47:11.999Z</time></trkpt><trkpt lat="49.03718431808716" lon="6.865012009390793"><ele>266.0</ele><time>2026-05-03T06:47:13.999Z</time></trkpt><trkpt lat="49.03722685687042" lon="6.8652183347531865"><ele>266.0</ele><time>2026-05-03T06:47:15.999Z</time></trkpt><trkpt lat="49.037223816419825" lon="6.86533960102739"><ele>266.0</ele><time>2026-05-03T06:47:16.999Z</time></trkpt><trkpt lat="49.03725937687064" lon="6.8654199260399285"><ele>265.40000000000003</ele><time>2026-05-03T06:47:17.999Z</time></trkpt><trkpt lat="49.037297167780956" lon="6.865612329306092"><ele>264.8</ele><time>2026-05-03T06:47:19.999Z</time></trkpt><trkpt lat="49.03730993633636" lon="6.8657230048758295"><ele>264.20000000000005</ele><time>2026-05-03T06:47:20.999Z</time></trkpt><trkpt lat="49.03733540248676" lon="6.86583637956274"><ele>263.6</ele><time>2026-05-03T06:47:21.999Z</time></trkpt><trkpt lat="49.03737823220129" lon="6.865949708854066"><ele>263.0</ele><time>2026-05-03T06:47:22.999Z</time></trkpt><trkpt lat="49.037405150791166" lon="6.866075761503047"><ele>262.5</ele><time>2026-05-03T06:47:23.999Z</time></trkpt><trkpt lat="49.037431155690946" lon="6.8661798879113265"><ele>262.0</ele><time>2026-05-03T06:47:24.999Z</time></trkpt><trkpt lat="49.037455617372814" lon="6.866297135563178"><ele>261.5</ele><time>2026-05-03T06:47:25.999Z</time></trkpt><trkpt lat="49.037483043637124" lon="6.866415339443131"><ele>261.0</ele><time>2026-05-03T06:47:26.999Z</time></trkpt><trkpt lat="49.03750925209646" lon="6.866536678804863"><ele>260.5</ele><time>2026-05-03T06:47:28Z</time></trkpt><trkpt lat="49.03753738743074" lon="6.866656816848527"><ele>260.0</ele><time>2026-05-03T06:47:29Z</time></trkpt><trkpt lat="49.037565890337184" lon="6.866778112531261"><ele>259.33333333333337</ele><time>2026-05-03T06:47:30Z</time></trkpt><trkpt lat="49.03759288630694" lon="6.8669088793038"><ele>258.6666666666667</ele><time>2026-05-03T06:47:31Z</time></trkpt><trkpt lat="49.03762194734992" lon="6.8670324474660385"><ele>258.0</ele><time>2026-05-03T06:47:32Z</time></trkpt><trkpt lat="49.03764648594596" lon="6.867152746379691"><ele>257.3333333333333</ele><time>2026-05-03T06:47:33Z</time></trkpt><trkpt lat="49.0376731741171" lon="6.867266794651604"><ele>256.66666666666663</ele><time>2026-05-03T06:47:34Z</time></trkpt><trkpt lat="49.037687868471885" lon="6.867387705896998"><ele>256.0</ele><time>2026-05-03T06:47:35Z</time></trkpt><trkpt lat="49.037725841425235" lon="6.867491142598062"><ele>255.66666666666666</ele><time>2026-05-03T06:47:36Z</time></trkpt><trkpt lat="49.03774925097286" lon="6.867612141666125"><ele>255.33333333333331</ele><time>2026-05-03T06:47:37Z</time></trkpt><trkpt lat="49.0377791130543" lon="6.867733181312657"><ele>255.0</ele><time>2026-05-03T06:47:38Z</time></trkpt><trkpt lat="49.03780649913821" lon="6.867851547243765"><ele>254.66666666666669</ele><time>2026-05-03T06:47:39Z</time></trkpt><trkpt lat="49.037838035833076" lon="6.867972974101695"><ele>254.33333333333334</ele><time>2026-05-03T06:47:40Z</time></trkpt><trkpt lat="49.03786434253246" lon="6.868093879644923"><ele>254.0</ele><time>2026-05-03T06:47:41Z</time></trkpt><trkpt lat="49.03789252681174" lon="6.868227839464175"><ele>254.0</ele><time>2026-05-03T06:47:42Z</time></trkpt><trkpt lat="49.037922582230976" lon="6.868362885253801"><ele>253.99999999999997</ele><time>2026-05-03T06:47:43Z</time></trkpt><trkpt lat="49.03795462206571" lon="6.868504657044012"><ele>253.99999999999997</ele><time>2026-05-03T06:47:44Z</time></trkpt><trkpt lat="49.03798705136309" lon="6.868652130946895"><ele>254.0</ele><time>2026-05-03T06:47:45Z</time></trkpt><trkpt lat="49.038014714915334" lon="6.868779944847381"><ele>254.0</ele><time>2026-05-03T06:47:46Z</time></trkpt><trkpt lat="49.03804691309565" lon="6.868915349130766"><ele>253.6</ele><time>2026-05-03T06:47:47Z</time></trkpt><trkpt lat="49.03807788433369" lon="6.869053253206927"><ele>253.2</ele><time>2026-05-03T06:47:48Z</time></trkpt><trkpt lat="49.03810791921143" lon="6.869191164996839"><ele>252.79999999999998</ele><time>2026-05-03T06:47:49Z</time></trkpt><trkpt lat="49.03813646509104" lon="6.86932109030571"><ele>252.39999999999998</ele><time>2026-05-03T06:47:50Z</time></trkpt><trkpt lat="49.03816955265118" lon="6.869459685227978"><ele>252.0</ele><time>2026-05-03T06:47:51Z</time></trkpt><trkpt lat="49.03820279901705" lon="6.869591676090875"><ele>252.0</ele><time>2026-05-03T06:47:52Z</time></trkpt><trkpt lat="49.03823360144924" lon="6.869728697243947"><ele>252.0</ele><time>2026-05-03T06:47:53Z</time></trkpt><trkpt lat="49.03826619735046" lon="6.869947577896413"><ele>252.0</ele><time>2026-05-03T06:47:55Z</time></trkpt><trkpt lat="49.03825147043297" lon="6.870102456052085"><ele>252.0</ele><time>2026-05-03T06:47:57Z</time></trkpt><trkpt lat="49.03820634558446" lon="6.870175987369375"><ele>252.0</ele><time>2026-05-03T06:47:58Z</time></trkpt><trkpt lat="49.03814403364715" lon="6.870212847908126"><ele>251.83333333333334</ele><time>2026-05-03T06:47:59Z</time></trkpt><trkpt lat="49.038059733078214" lon="6.870285071687744"><ele>251.66666666666669</ele><time>2026-05-03T06:48:00Z</time></trkpt><trkpt lat="49.03798383469039" lon="6.870381538390194"><ele>251.5</ele><time>2026-05-03T06:48:01Z</time></trkpt><trkpt lat="49.03792032966033" lon="6.870453126831051"><ele>251.33333333333334</ele><time>2026-05-03T06:48:02Z</time></trkpt><trkpt lat="49.0378500015207" lon="6.870521964844456"><ele>251.16666666666669</ele><time>2026-05-03T06:48:03Z</time></trkpt><trkpt lat="49.03778366504608" lon="6.870588860473889"><ele>251.0</ele><time>2026-05-03T06:48:04Z</time></trkpt><trkpt lat="49.03771220336061" lon="6.870744681472347"><ele>251.0</ele><time>2026-05-03T06:48:06Z</time></trkpt><trkpt lat="49.03770463609679" lon="6.87085170822042"><ele>251.00000000000003</ele><time>2026-05-03T06:48:07Z</time></trkpt><trkpt lat="49.03772191147747" lon="6.87096487944877"><ele>251.00000000000003</ele><time>2026-05-03T06:48:08Z</time></trkpt><trkpt lat="49.03776762815926" lon="6.871083515644235"><ele>251.0</ele><time>2026-05-03T06:48:09Z</time></trkpt><trkpt lat="49.037828363471" lon="6.871215722248363"><ele>251.0</ele><time>2026-05-03T06:48:10Z</time></trkpt><trkpt lat="49.03789070410229" lon="6.871370676984622"><ele>251.25</ele><time>2026-05-03T06:48:11Z</time></trkpt><trkpt lat="49.037960559899936" lon="6.871528658485915"><ele>251.5</ele><time>2026-05-03T06:48:12Z</time></trkpt><trkpt lat="49.03803586413156" lon="6.871658326342422"><ele>251.75</ele><time>2026-05-03T06:48:13Z</time></trkpt><trkpt lat="49.03810589705012" lon="6.871798762465938"><ele>252.0</ele><time>2026-05-03T06:48:14Z</time></trkpt><trkpt lat="49.03818706968137" lon="6.8719132144691955"><ele>252.25</ele><time>2026-05-03T06:48:15Z</time></trkpt><trkpt lat="49.03827112668806" lon="6.872035479589885"><ele>252.5</ele><time>2026-05-03T06:48:16Z</time></trkpt><trkpt lat="49.03835026908652" lon="6.87217291662226"><ele>252.75</ele><time>2026-05-03T06:48:17Z</time></trkpt><trkpt lat="49.03843421991897" lon="6.872311049150832"><ele>253.0</ele><time>2026-05-03T06:48:18Z</time></trkpt><trkpt lat="49.038517481737934" lon="6.87244974220737"><ele>251.75</ele><time>2026-05-03T06:48:19Z</time></trkpt><trkpt lat="49.03860243088163" lon="6.872585191969114"><ele>250.5</ele><time>2026-05-03T06:48:20Z</time></trkpt><trkpt lat="49.03868665949587" lon="6.872719084284224"><ele>249.25</ele><time>2026-05-03T06:48:21Z</time></trkpt><trkpt lat="49.038772069912696" lon="6.872856364321527"><ele>248.0</ele><time>2026-05-03T06:48:22Z</time></trkpt><trkpt lat="49.038842391602195" lon="6.8729975208971545"><ele>248.0</ele><time>2026-05-03T06:48:23Z</time></trkpt><trkpt lat="49.03892668580723" lon="6.873097054579739"><ele>248.0</ele><time>2026-05-03T06:48:24Z</time></trkpt><trkpt lat="49.03899033422781" lon="6.873211299950639"><ele>248.0</ele><time>2026-05-03T06:48:25Z</time></trkpt><trkpt lat="49.0390345456358" lon="6.87333284803708"><ele>248.0</ele><time>2026-05-03T06:48:26Z</time></trkpt><trkpt lat="49.03907221996585" lon="6.873456344978311"><ele>248.0</ele><time>2026-05-03T06:48:27Z</time></trkpt><trkpt lat="49.03909907704556" lon="6.873594435681039"><ele>248.0</ele><time>2026-05-03T06:48:28Z</time></trkpt><trkpt lat="49.03912423786682" lon="6.8737362303010405"><ele>248.0</ele><time>2026-05-03T06:48:29Z</time></trkpt><trkpt lat="49.039143531572904" lon="6.87386603791083"><ele>248.0</ele><time>2026-05-03T06:48:30Z</time></trkpt><trkpt lat="49.039154994371465" lon="6.8739706211129326"><ele>248.0</ele><time>2026-05-03T06:48:31Z</time></trkpt><trkpt lat="49.0391677789411" lon="6.874104348353364"><ele>248.0</ele><time>2026-05-03T06:48:32.999Z</time></trkpt><trkpt lat="49.039284978734024" lon="6.874194563921932"><ele>248.0</ele><time>2026-05-03T06:48:36.999Z</time></trkpt><trkpt lat="49.03934767494489" lon="6.87421279554552"><ele>248.0</ele><time>2026-05-03T06:48:37.999Z</time></trkpt><trkpt lat="49.039437904044604" lon="6.874312586176339"><ele>248.0</ele><time>2026-05-03T06:48:39.999Z</time></trkpt><trkpt lat="49.03952058985726" lon="6.87444592257812"><ele>248.0</ele><time>2026-05-03T06:48:41.999Z</time></trkpt><trkpt lat="49.039628821300106" lon="6.8745461376047805"><ele>248.0</ele><time>2026-05-03T06:48:43.999Z</time></trkpt><trkpt lat="49.039677827927356" lon="6.874615042605492"><ele>248.00000000000003</ele><time>2026-05-03T06:48:44.999Z</time></trkpt><trkpt lat="49.03973229349949" lon="6.874682614535935"><ele>248.0</ele><time>2026-05-03T06:48:45.999Z</time></trkpt><trkpt lat="49.039794212640146" lon="6.874753890371999"><ele>248.0</ele><time>2026-05-03T06:48:46.999Z</time></trkpt><trkpt lat="49.03986796948983" lon="6.874832227967796"><ele>248.0</ele><time>2026-05-03T06:48:47.999Z</time></trkpt><trkpt lat="49.039951255981975" lon="6.874895939250429"><ele>248.00000000000003</ele><time>2026-05-03T06:48:48.999Z</time></trkpt><trkpt lat="49.04005209589644" lon="6.874947404643556"><ele>248.0</ele><time>2026-05-03T06:48:49.999Z</time></trkpt><trkpt lat="49.04015879590794" lon="6.874980231636999"><ele>247.0</ele><time>2026-05-03T06:48:50.999Z</time></trkpt><trkpt lat="49.04027042444418" lon="6.874973581096361"><ele>246.0</ele><time>2026-05-03T06:48:51.999Z</time></trkpt><trkpt lat="49.04039184296558" lon="6.874934829111859"><ele>245.0</ele><time>2026-05-03T06:48:52.999Z</time></trkpt><trkpt lat="49.04050697385705" lon="6.874872220493874"><ele>244.0</ele><time>2026-05-03T06:48:53.999Z</time></trkpt><trkpt lat="49.04063468172306" lon="6.874807060294264"><ele>244.0</ele><time>2026-05-03T06:48:54.999Z</time></trkpt><trkpt lat="49.040747314073286" lon="6.874762546524609"><ele>243.99999999999997</ele><time>2026-05-03T06:48:55.999Z</time></trkpt><trkpt lat="49.04084246883452" lon="6.874682822536579"><ele>243.99999999999997</ele><time>2026-05-03T06:48:56.999Z</time></trkpt><trkpt lat="49.040944804431206" lon="6.874626416092958"><ele>244.0</ele><time>2026-05-03T06:48:57.999Z</time></trkpt><trkpt lat="49.041044256153114" lon="6.87456759753417"><ele>244.0</ele><time>2026-05-03T06:48:58.999Z</time></trkpt><trkpt lat="49.041151463263226" lon="6.874503844400218"><ele>244.75</ele><time>2026-05-03T06:48:59.999Z</time></trkpt><trkpt lat="49.0412474763655" lon="6.874379179599192"><ele>245.5</ele><time>2026-05-03T06:49:00.999Z</time></trkpt><trkpt lat="49.041344168258654" lon="6.874217960583722"><ele>246.25</ele><time>2026-05-03T06:49:01.999Z</time></trkpt><trkpt lat="49.041450688612606" lon="6.874002194380512"><ele>247.0</ele><time>2026-05-03T06:49:02.999Z</time></trkpt><trkpt lat="49.04156108927374" lon="6.873807689865113"><ele>248.25</ele><time>2026-05-03T06:49:03.999Z</time></trkpt><trkpt lat="49.04166023755574" lon="6.873611486138719"><ele>249.5</ele><time>2026-05-03T06:49:04.999Z</time></trkpt><trkpt lat="49.04174782889615" lon="6.87344877873709"><ele>250.75</ele><time>2026-05-03T06:49:05.999Z</time></trkpt><trkpt lat="49.04181574927382" lon="6.873345140399689"><ele>252.0</ele><time>2026-05-03T06:49:06.999Z</time></trkpt><trkpt lat="49.041877979105024" lon="6.873257119923582"><ele>252.5</ele><time>2026-05-03T06:49:07.999Z</time></trkpt><trkpt lat="49.041929841155245" lon="6.873180966956838"><ele>253.0</ele><time>2026-05-03T06:49:08.999Z</time></trkpt><trkpt lat="49.042011063810214" lon="6.873059822966912"><ele>253.5</ele><time>2026-05-03T06:49:10.999Z</time></trkpt><trkpt lat="49.04205634240735" lon="6.872986785483008"><ele>254.0</ele><time>2026-05-03T06:49:11.999Z</time></trkpt><trkpt lat="49.04210581419322" lon="6.872906066716682"><ele>254.5</ele><time>2026-05-03T06:49:12.999Z</time></trkpt><trkpt lat="49.04217497227333" lon="6.872840279491111"><ele>255.0</ele><time>2026-05-03T06:49:13.999Z</time></trkpt><trkpt lat="49.04225298585862" lon="6.872747755264499"><ele>255.0</ele><time>2026-05-03T06:49:14.999Z</time></trkpt><trkpt lat="49.04233240084196" lon="6.872655211730069"><ele>255.0</ele><time>2026-05-03T06:49:15.999Z</time></trkpt><trkpt lat="49.042418399345394" lon="6.87257074527446"><ele>255.0</ele><time>2026-05-03T06:49:16.999Z</time></trkpt><trkpt lat="49.0425139097071" lon="6.872504109026888"><ele>255.0</ele><time>2026-05-03T06:49:17.999Z</time></trkpt><trkpt lat="49.042609390609556" lon="6.872439666770348"><ele>255.0</ele><time>2026-05-03T06:49:18.999Z</time></trkpt><trkpt lat="49.042704739919586" lon="6.8723698422464885"><ele>254.8</ele><time>2026-05-03T06:49:19.999Z</time></trkpt><trkpt lat="49.04279383248417" lon="6.872302114715895"><ele>254.6</ele><time>2026-05-03T06:49:20.999Z</time></trkpt><trkpt lat="49.04288636704488" lon="6.872244860438136"><ele>254.39999999999998</ele><time>2026-05-03T06:49:21.999Z</time></trkpt><trkpt lat="49.042974073301835" lon="6.872185598292223"><ele>254.2</ele><time>2026-05-03T06:49:22.999Z</time></trkpt><trkpt lat="49.043061671028376" lon="6.872123061370568"><ele>254.0</ele><time>2026-05-03T06:49:23.999Z</time></trkpt><trkpt lat="49.04315457668319" lon="6.872058742805619"><ele>254.0</ele><time>2026-05-03T06:49:24.999Z</time></trkpt><trkpt lat="49.043243181208" lon="6.871982966018718"><ele>253.99999999999997</ele><time>2026-05-03T06:49:25.999Z</time></trkpt><trkpt lat="49.04332996396003" lon="6.8718767670699"><ele>253.99999999999997</ele><time>2026-05-03T06:49:26.999Z</time></trkpt><trkpt lat="49.043412952409234" lon="6.871763362469897"><ele>254.0</ele><time>2026-05-03T06:49:27.999Z</time></trkpt><trkpt lat="49.043491477114976" lon="6.871633886829467"><ele>254.0</ele><time>2026-05-03T06:49:28.999Z</time></trkpt><trkpt lat="49.04357385649619" lon="6.87149199768212"><ele>256.75</ele><time>2026-05-03T06:49:29.999Z</time></trkpt><trkpt lat="49.04365770835009" lon="6.871364227303484"><ele>259.5</ele><time>2026-05-03T06:49:30.999Z</time></trkpt><trkpt lat="49.04373865278742" lon="6.871241516839418"><ele>262.25</ele><time>2026-05-03T06:49:31.999Z</time></trkpt><trkpt lat="49.04382834143157" lon="6.8711403398440325"><ele>265.0</ele><time>2026-05-03T06:49:32.999Z</time></trkpt><trkpt lat="49.04390243207845" lon="6.871020288853723"><ele>265.5</ele><time>2026-05-03T06:49:34Z</time></trkpt><trkpt lat="49.04399991079051" lon="6.870930518595388"><ele>266.0</ele><time>2026-05-03T06:49:35Z</time></trkpt><trkpt lat="49.04408092598206" lon="6.870810427976927"><ele>266.5</ele><time>2026-05-03T06:49:36Z</time></trkpt><trkpt lat="49.044177344884645" lon="6.870721454051092"><ele>267.0</ele><time>2026-05-03T06:49:37Z</time></trkpt><trkpt lat="49.044270939525774" lon="6.870619161006054"><ele>265.0</ele><time>2026-05-03T06:49:38Z</time></trkpt><trkpt lat="49.044364945049985" lon="6.870526040287812"><ele>263.0</ele><time>2026-05-03T06:49:39Z</time></trkpt><trkpt lat="49.044459245159175" lon="6.870426848197836"><ele>261.0</ele><time>2026-05-03T06:49:40Z</time></trkpt><trkpt lat="49.044545643306606" lon="6.870303080955449"><ele>259.0</ele><time>2026-05-03T06:49:41Z</time></trkpt><trkpt lat="49.04462133235399" lon="6.870168067314258"><ele>258.5</ele><time>2026-05-03T06:49:42Z</time></trkpt><trkpt lat="49.044692951790694" lon="6.870028678311104"><ele>258.0</ele><time>2026-05-03T06:49:43Z</time></trkpt><trkpt lat="49.044762628595876" lon="6.869889742894065"><ele>257.5</ele><time>2026-05-03T06:49:44Z</time></trkpt><trkpt lat="49.04483154106886" lon="6.8697427406045986"><ele>257.0</ele><time>2026-05-03T06:49:45Z</time></trkpt><trkpt lat="49.04491791503586" lon="6.869612307315296"><ele>256.2</ele><time>2026-05-03T06:49:46Z</time></trkpt><trkpt lat="49.04498312387985" lon="6.8694654093438166"><ele>255.39999999999998</ele><time>2026-05-03T06:49:47Z</time></trkpt><trkpt lat="49.045061102445445" lon="6.8693418742535775"><ele>254.60000000000002</ele><time>2026-05-03T06:49:48Z</time></trkpt><trkpt lat="49.0451370022187" lon="6.869231203951622"><ele>253.8</ele><time>2026-05-03T06:49:49Z</time></trkpt><trkpt lat="49.04521052091356" lon="6.8691308441725765"><ele>253.0</ele><time>2026-05-03T06:49:50Z</time></trkpt><trkpt lat="49.04528883588898" lon="6.869043240608036"><ele>251.99999999999997</ele><time>2026-05-03T06:49:51Z</time></trkpt><trkpt lat="49.04536385170406" lon="6.868973223339453"><ele>251.0</ele><time>2026-05-03T06:49:52Z</time></trkpt><trkpt lat="49.04543756686561" lon="6.868901314540437"><ele>250.0</ele><time>2026-05-03T06:49:53Z</time></trkpt><trkpt lat="49.04551394163704" lon="6.868839509452729"><ele>249.0</ele><time>2026-05-03T06:49:54Z</time></trkpt><trkpt lat="49.04559168964377" lon="6.868770088405294"><ele>247.99999999999997</ele><time>2026-05-03T06:49:55Z</time></trkpt><trkpt lat="49.04567527795458" lon="6.868705193084451"><ele>247.0</ele><time>2026-05-03T06:49:56Z</time></trkpt><trkpt lat="49.045761356092534" lon="6.868654641721835"><ele>245.39999999999998</ele><time>2026-05-03T06:49:57Z</time></trkpt><trkpt lat="49.04585776429346" lon="6.868629465454202"><ele>243.79999999999998</ele><time>2026-05-03T06:49:58Z</time></trkpt><trkpt lat="49.04595500429753" lon="6.868617613663871"><ele>242.2</ele><time>2026-05-03T06:49:59Z</time></trkpt><trkpt lat="49.046057414554525" lon="6.868601702379988"><ele>240.6</ele><time>2026-05-03T06:50:00Z</time></trkpt><trkpt lat="49.046158022400455" lon="6.868582313354839"><ele>239.0</ele><time>2026-05-03T06:50:01Z</time></trkpt><trkpt lat="49.04626359059823" lon="6.868594712027155"><ele>239.0</ele><time>2026-05-03T06:50:02Z</time></trkpt><trkpt lat="49.046362556346104" lon="6.8685955846078794"><ele>238.99999999999997</ele><time>2026-05-03T06:50:03Z</time></trkpt><trkpt lat="49.04647060039472" lon="6.868601877516207"><ele>238.99999999999997</ele><time>2026-05-03T06:50:04Z</time></trkpt><trkpt lat="49.04656723146514" lon="6.86861447667859"><ele>239.0</ele><time>2026-05-03T06:50:05Z</time></trkpt><trkpt lat="49.04665906896344" lon="6.868635990885105"><ele>239.0</ele><time>2026-05-03T06:50:06Z</time></trkpt><trkpt lat="49.046754531967785" lon="6.868672828806774"><ele>240.39999999999998</ele><time>2026-05-03T06:50:07Z</time></trkpt><trkpt lat="49.04684893922677" lon="6.868707300976978"><ele>241.79999999999998</ele><time>2026-05-03T06:50:08Z</time></trkpt><trkpt lat="49.04694677057873" lon="6.8687537062936785"><ele>243.20000000000002</ele><time>2026-05-03T06:50:09Z</time></trkpt><trkpt lat="49.047044453227144" lon="6.86880368403601"><ele>244.60000000000002</ele><time>2026-05-03T06:50:10Z</time></trkpt><trkpt lat="49.04715628960418" lon="6.868795846026403"><ele>246.0</ele><time>2026-05-03T06:50:11Z</time></trkpt><trkpt lat="49.047268439821124" lon="6.868808366895611"><ele>246.0</ele><time>2026-05-03T06:50:12Z</time></trkpt><trkpt lat="49.047370823654816" lon="6.86877240844803"><ele>246.00000000000003</ele><time>2026-05-03T06:50:13Z</time></trkpt><trkpt lat="49.04746253865065" lon="6.8687162269868365"><ele>246.00000000000003</ele><time>2026-05-03T06:50:14Z</time></trkpt><trkpt lat="49.04755729159022" lon="6.8686540691190565"><ele>246.0</ele><time>2026-05-03T06:50:15Z</time></trkpt><trkpt lat="49.04764742016089" lon="6.868596303267617"><ele>246.0</ele><time>2026-05-03T06:50:16Z</time></trkpt><trkpt lat="49.047739383940986" lon="6.8685429413573305"><ele>246.20000000000002</ele><time>2026-05-03T06:50:17Z</time></trkpt><trkpt lat="49.04782959926558" lon="6.868500185389071"><ele>246.40000000000003</ele><time>2026-05-03T06:50:18Z</time></trkpt><trkpt lat="49.04792447264879" lon="6.868448403489328"><ele>246.6</ele><time>2026-05-03T06:50:19Z</time></trkpt><trkpt lat="49.04802204816969" lon="6.868393239351585"><ele>246.8</ele><time>2026-05-03T06:50:20Z</time></trkpt><trkpt lat="49.04811143532744" lon="6.868349045022664"><ele>247.0</ele><time>2026-05-03T06:50:21Z</time></trkpt><trkpt lat="49.04819277886701" lon="6.868319194515751"><ele>247.6</ele><time>2026-05-03T06:50:22Z</time></trkpt><trkpt lat="49.04827921281324" lon="6.86830971623081"><ele>248.2</ele><time>2026-05-03T06:50:23Z</time></trkpt><trkpt lat="49.0483757631159" lon="6.868314426270777"><ele>248.8</ele><time>2026-05-03T06:50:24Z</time></trkpt><trkpt lat="49.048476819694066" lon="6.868344731706004"><ele>249.4</ele><time>2026-05-03T06:50:25Z</time></trkpt><trkpt lat="49.048572360900565" lon="6.86837668011243"><ele>250.0</ele><time>2026-05-03T06:50:26Z</time></trkpt><trkpt lat="49.04865926234765" lon="6.8684015663386315"><ele>247.0</ele><time>2026-05-03T06:50:27Z</time></trkpt><trkpt lat="49.04874499607958" lon="6.868424059623673"><ele>244.0</ele><time>2026-05-03T06:50:28Z</time></trkpt><trkpt lat="49.048830542060365" lon="6.868450279741681"><ele>241.0</ele><time>2026-05-03T06:50:29Z</time></trkpt><trkpt lat="49.048921158342516" lon="6.86847751529472"><ele>238.0</ele><time>2026-05-03T06:50:30Z</time></trkpt><trkpt lat="49.049014687030414" lon="6.868497769877996"><ele>235.0</ele><time>2026-05-03T06:50:31Z</time></trkpt><trkpt lat="49.04910927172088" lon="6.8685190843425685"><ele>235.8</ele><time>2026-05-03T06:50:32Z</time></trkpt><trkpt lat="49.04920623376628" lon="6.868543163158125"><ele>236.6</ele><time>2026-05-03T06:50:33Z</time></trkpt><trkpt lat="49.04930312856926" lon="6.86856206764631"><ele>237.39999999999998</ele><time>2026-05-03T06:50:34Z</time></trkpt><trkpt lat="49.049401274749464" lon="6.86857447820995"><ele>238.2</ele><time>2026-05-03T06:50:35Z</time></trkpt><trkpt lat="49.04949049283122" lon="6.868566065701865"><ele>239.0</ele><time>2026-05-03T06:50:36Z</time></trkpt><trkpt lat="49.04958787501548" lon="6.868542544550917"><ele>239.0</ele><time>2026-05-03T06:50:36.999Z</time></trkpt><trkpt lat="49.04968213138192" lon="6.868500605154718"><ele>238.99999999999997</ele><time>2026-05-03T06:50:37.999Z</time></trkpt><trkpt lat="49.04978368019718" lon="6.868439225713517"><ele>238.99999999999997</ele><time>2026-05-03T06:50:38.999Z</time></trkpt><trkpt lat="49.049894224490394" lon="6.868384580649558"><ele>239.0</ele><time>2026-05-03T06:50:39.999Z</time></trkpt><trkpt lat="49.05000332307489" lon="6.8683182166740995"><ele>239.0</ele><time>2026-05-03T06:50:40.999Z</time></trkpt><trkpt lat="49.05011003991145" lon="6.868260936063853"><ele>241.39999999999998</ele><time>2026-05-03T06:50:41.999Z</time></trkpt><trkpt lat="49.05021216410511" lon="6.868209291959496"><ele>243.79999999999998</ele><time>2026-05-03T06:50:42.999Z</time></trkpt><trkpt lat="49.050308118460414" lon="6.868157929308041"><ele>246.20000000000002</ele><time>2026-05-03T06:50:43.999Z</time></trkpt><trkpt lat="49.05039996981605" lon="6.868124052921126"><ele>248.60000000000002</ele><time>2026-05-03T06:50:44.999Z</time></trkpt><trkpt lat="49.050483991713364" lon="6.868087445868455"><ele>251.0</ele><time>2026-05-03T06:50:45.999Z</time></trkpt><trkpt lat="49.05056344058662" lon="6.868055633610672"><ele>251.00000000000003</ele><time>2026-05-03T06:50:46.999Z</time></trkpt><trkpt lat="49.05064613055339" lon="6.868020826187613"><ele>251.0</ele><time>2026-05-03T06:50:47.999Z</time></trkpt><trkpt lat="49.050730672465754" lon="6.867985283598434"><ele>251.0</ele><time>2026-05-03T06:50:48.999Z</time></trkpt><trkpt lat="49.05080280024638" lon="6.867948901771907"><ele>251.0</ele><time>2026-05-03T06:50:49.999Z</time></trkpt><trkpt lat="49.05086500713151" lon="6.867918064013874"><ele>251.00000000000003</ele><time>2026-05-03T06:50:50.999Z</time></trkpt><trkpt lat="49.05097221422931" lon="6.867871431253304"><ele>251.0</ele><time>2026-05-03T06:50:52.999Z</time></trkpt><trkpt lat="49.051046154566365" lon="6.867828786290465"><ele>252.16666666666669</ele><time>2026-05-03T06:50:54.999Z</time></trkpt><trkpt lat="49.0511057521524" lon="6.867773875711518"><ele>253.33333333333334</ele><time>2026-05-03T06:50:58.999Z</time></trkpt><trkpt lat="49.05120995707102" lon="6.867774434546112"><ele>254.5</ele><time>2026-05-03T06:51:01.999Z</time></trkpt><trkpt lat="49.05132186174119" lon="6.8677228089499565"><ele>255.66666666666669</ele><time>2026-05-03T06:51:03.999Z</time></trkpt><trkpt lat="49.05139291486099" lon="6.867688986996008"><ele>256.8333333333333</ele><time>2026-05-03T06:51:04.999Z</time></trkpt><trkpt lat="49.0514660674446" lon="6.8676591846186685"><ele>258.0</ele><time>2026-05-03T06:51:05.999Z</time></trkpt><trkpt lat="49.05154958742723" lon="6.86763549669199"><ele>257.2</ele><time>2026-05-03T06:51:06.999Z</time></trkpt><trkpt lat="49.051652825118154" lon="6.867591358994091"><ele>256.4</ele><time>2026-05-03T06:51:07.999Z</time></trkpt><trkpt lat="49.05176212562177" lon="6.867538045765978"><ele>255.59999999999997</ele><time>2026-05-03T06:51:08.999Z</time></trkpt><trkpt lat="49.05185835630456" lon="6.86749519411691"><ele>254.79999999999998</ele><time>2026-05-03T06:51:09.999Z</time></trkpt><trkpt lat="49.05196396221419" lon="6.867464387677524"><ele>254.0</ele><time>2026-05-03T06:51:10.999Z</time></trkpt><trkpt lat="49.05206222615901" lon="6.867441832052926"><ele>254.0</ele><time>2026-05-03T06:51:11.999Z</time></trkpt><trkpt lat="49.052161867120155" lon="6.867445887874362"><ele>253.99999999999997</ele><time>2026-05-03T06:51:12.999Z</time></trkpt><trkpt lat="49.0522708744835" lon="6.867442107639022"><ele>253.99999999999997</ele><time>2026-05-03T06:51:13.999Z</time></trkpt><trkpt lat="49.05237826795715" lon="6.867446538083575"><ele>254.0</ele><time>2026-05-03T06:51:14.999Z</time></trkpt><trkpt lat="49.05248009572958" lon="6.867459119862722"><ele>254.0</ele><time>2026-05-03T06:51:15.999Z</time></trkpt><trkpt lat="49.05255586199466" lon="6.867471799590659"><ele>254.0</ele><time>2026-05-03T06:51:16.999Z</time></trkpt><trkpt lat="49.052657488659925" lon="6.8675220201478435"><ele>253.99999999999997</ele><time>2026-05-03T06:51:18.999Z</time></trkpt><trkpt lat="49.052760665158786" lon="6.867558328027851"><ele>253.99999999999997</ele><time>2026-05-03T06:51:20.999Z</time></trkpt><trkpt lat="49.05287514854235" lon="6.867590272266606"><ele>254.0</ele><time>2026-05-03T06:51:22.999Z</time></trkpt><trkpt lat="49.05297743289818" lon="6.867632636437773"><ele>254.0</ele><time>2026-05-03T06:51:24.999Z</time></trkpt><trkpt lat="49.053089960454706" lon="6.867676318512607"><ele>253.50000000000003</ele><time>2026-05-03T06:51:26.999Z</time></trkpt><trkpt lat="49.05320674078808" lon="6.867721045094923"><ele>253.0</ele><time>2026-05-03T06:51:28.999Z</time></trkpt><trkpt lat="49.05332296643871" lon="6.867761777211005"><ele>252.5</ele><time>2026-05-03T06:51:30.999Z</time></trkpt><trkpt lat="49.05338579729976" lon="6.867781452575359"><ele>252.0</ele><time>2026-05-03T06:51:31.999Z</time></trkpt><trkpt lat="49.05344880465641" lon="6.867801675372583"><ele>251.50000000000003</ele><time>2026-05-03T06:51:32.999Z</time></trkpt><trkpt lat="49.05350497374029" lon="6.867856216665512"><ele>251.0</ele><time>2026-05-03T06:51:33.999Z</time></trkpt><trkpt lat="49.053569368752655" lon="6.867897648296469"><ele>250.20000000000002</ele><time>2026-05-03T06:51:34.999Z</time></trkpt><trkpt lat="49.05363088667916" lon="6.867955999105807"><ele>249.40000000000003</ele><time>2026-05-03T06:51:35.999Z</time></trkpt><trkpt lat="49.05370065445762" lon="6.868034693414147"><ele>248.6</ele><time>2026-05-03T06:51:36.999Z</time></trkpt><trkpt lat="49.05377724260962" lon="6.8681329254242565"><ele>247.8</ele><time>2026-05-03T06:51:37.999Z</time></trkpt><trkpt lat="49.053861896777796" lon="6.868233866800194"><ele>247.0</ele><time>2026-05-03T06:51:38.999Z</time></trkpt><trkpt lat="49.05394340610352" lon="6.868335243865951"><ele>246.5</ele><time>2026-05-03T06:51:40Z</time></trkpt><trkpt lat="49.05402962837203" lon="6.868448718115615"><ele>246.0</ele><time>2026-05-03T06:51:41Z</time></trkpt><trkpt lat="49.05413163513549" lon="6.868582436337999"><ele>245.5</ele><time>2026-05-03T06:51:42Z</time></trkpt><trkpt lat="49.05423829941811" lon="6.868718862943501"><ele>245.0</ele><time>2026-05-03T06:51:43Z</time></trkpt><trkpt lat="49.05433403149649" lon="6.868845234597222"><ele>245.0</ele><time>2026-05-03T06:51:44Z</time></trkpt><trkpt lat="49.05443103953634" lon="6.868971979006403"><ele>245.0</ele><time>2026-05-03T06:51:45Z</time></trkpt><trkpt lat="49.05452891432142" lon="6.8690989497086985"><ele>245.0</ele><time>2026-05-03T06:51:46Z</time></trkpt><trkpt lat="49.05462444020192" lon="6.869225224491951"><ele>245.0</ele><time>2026-05-03T06:51:47Z</time></trkpt><trkpt lat="49.05472173913108" lon="6.869348583216557"><ele>246.0</ele><time>2026-05-03T06:51:48Z</time></trkpt><trkpt lat="49.0548202281305" lon="6.869470706057063"><ele>247.0</ele><time>2026-05-03T06:51:49Z</time></trkpt><trkpt lat="49.05491587369668" lon="6.8696000159542185"><ele>248.0</ele><time>2026-05-03T06:51:50Z</time></trkpt><trkpt lat="49.05501520664507" lon="6.86972798111658"><ele>249.0</ele><time>2026-05-03T06:51:51Z</time></trkpt><trkpt lat="49.0551049122394" lon="6.8698528295254135"><ele>249.0</ele><time>2026-05-03T06:51:52Z</time></trkpt><trkpt lat="49.05519611103028" lon="6.869967261064982"><ele>249.0</ele><time>2026-05-03T06:51:53Z</time></trkpt><trkpt lat="49.05528263671671" lon="6.870074508788711"><ele>249.0</ele><time>2026-05-03T06:51:54Z</time></trkpt><trkpt lat="49.055373686533656" lon="6.870186614871879"><ele>249.0</ele><time>2026-05-03T06:51:55Z</time></trkpt><trkpt lat="49.05547007254423" lon="6.870297255732191"><ele>249.33333333333334</ele><time>2026-05-03T06:51:56Z</time></trkpt><trkpt lat="49.05555503699602" lon="6.870394363638841"><ele>249.66666666666669</ele><time>2026-05-03T06:51:57Z</time></trkpt><trkpt lat="49.05562861855178" lon="6.870482533348955"><ele>250.0</ele><time>2026-05-03T06:51:58Z</time></trkpt><trkpt lat="49.05570076835294" lon="6.870549964817659"><ele>250.33333333333334</ele><time>2026-05-03T06:51:59Z</time></trkpt><trkpt lat="49.05577559645432" lon="6.870592779428332"><ele>250.66666666666669</ele><time>2026-05-03T06:52:00Z</time></trkpt><trkpt lat="49.055855959968774" lon="6.8706127327438145"><ele>251.0</ele><time>2026-05-03T06:52:01Z</time></trkpt><trkpt lat="49.055927645587126" lon="6.87062556448939"><ele>251.00000000000003</ele><time>2026-05-03T06:52:02Z</time></trkpt><trkpt lat="49.05599422488767" lon="6.87064399186924"><ele>251.0</ele><time>2026-05-03T06:52:03Z</time></trkpt><trkpt lat="49.05610389110598" lon="6.870675760860176"><ele>251.0</ele><time>2026-05-03T06:52:05Z</time></trkpt><trkpt lat="49.05617026877564" lon="6.870673861560071"><ele>251.0</ele><time>2026-05-03T06:52:07Z</time></trkpt><trkpt lat="49.05616375149923" lon="6.870520875306316"><ele>251.00000000000003</ele><time>2026-05-03T06:52:10Z</time></trkpt><trkpt lat="49.056146745085925" lon="6.870420691724083"><ele>251.0</ele><time>2026-05-03T06:52:11Z</time></trkpt><trkpt lat="49.05611208175105" lon="6.870326261602428"><ele>251.0</ele><time>2026-05-03T06:52:12Z</time></trkpt><trkpt lat="49.05604540880307" lon="6.870168582462985"><ele>251.00000000000003</ele><time>2026-05-03T06:52:14Z</time></trkpt><trkpt lat="49.056003495627515" lon="6.870053733110072"><ele>251.00000000000003</ele><time>2026-05-03T06:52:15Z</time></trkpt><trkpt lat="49.05596743903528" lon="6.869940362419588"><ele>251.0</ele><time>2026-05-03T06:52:16Z</time></trkpt><trkpt lat="49.05594453711108" lon="6.8698245990802205"><ele>251.0</ele><time>2026-05-03T06:52:17Z</time></trkpt><trkpt lat="49.05592710350683" lon="6.869688397194792"><ele>251.16666666666669</ele><time>2026-05-03T06:52:18Z</time></trkpt><trkpt lat="49.055914500861476" lon="6.869562159740012"><ele>251.33333333333334</ele><time>2026-05-03T06:52:19Z</time></trkpt><trkpt lat="49.05591132186595" lon="6.869438924489443"><ele>251.5</ele><time>2026-05-03T06:52:20Z</time></trkpt><trkpt lat="49.055930960825854" lon="6.869316390124926"><ele>251.66666666666669</ele><time>2026-05-03T06:52:21Z</time></trkpt><trkpt lat="49.05595458057756" lon="6.869184841175464"><ele>251.83333333333334</ele><time>2026-05-03T06:52:22Z</time></trkpt><trkpt lat="49.05597905604191" lon="6.869045373928637"><ele>252.0</ele><time>2026-05-03T06:52:23Z</time></trkpt><trkpt lat="49.05599517782405" lon="6.86888359413668"><ele>252.2</ele><time>2026-05-03T06:52:24Z</time></trkpt><trkpt lat="49.0559815761493" lon="6.868728386003185"><ele>252.39999999999998</ele><time>2026-05-03T06:52:25Z</time></trkpt><trkpt lat="49.055963335204225" lon="6.868572427519463"><ele>252.60000000000002</ele><time>2026-05-03T06:52:26Z</time></trkpt><trkpt lat="49.05592971102608" lon="6.868405722736655"><ele>252.8</ele><time>2026-05-03T06:52:27Z</time></trkpt><trkpt lat="49.05593040710109" lon="6.868226780375986"><ele>253.0</ele><time>2026-05-03T06:52:28Z</time></trkpt><trkpt lat="49.05591634268596" lon="6.86804624442272"><ele>253.75</ele><time>2026-05-03T06:52:29Z</time></trkpt><trkpt lat="49.05590345028514" lon="6.8678577569826285"><ele>254.5</ele><time>2026-05-03T06:52:30Z</time></trkpt><trkpt lat="49.05589207535642" lon="6.867665958493688"><ele>255.25</ele><time>2026-05-03T06:52:31Z</time></trkpt><trkpt lat="49.055864913168854" lon="6.86747302930746"><ele>256.0</ele><time>2026-05-03T06:52:32Z</time></trkpt><trkpt lat="49.05585631975766" lon="6.8672741696159845"><ele>256.5</ele><time>2026-05-03T06:52:33Z</time></trkpt><trkpt lat="49.055862364225554" lon="6.867080306258096"><ele>257.0</ele><time>2026-05-03T06:52:34Z</time></trkpt><trkpt lat="49.05583779654972" lon="6.8669080128427495"><ele>257.5</ele><time>2026-05-03T06:52:35Z</time></trkpt><trkpt lat="49.05583360011083" lon="6.866739475743705"><ele>258.0</ele><time>2026-05-03T06:52:36Z</time></trkpt><trkpt lat="49.055837907763184" lon="6.8665635096557205"><ele>258.2</ele><time>2026-05-03T06:52:37Z</time></trkpt><trkpt lat="49.055829584850876" lon="6.866389788285875"><ele>258.4</ele><time>2026-05-03T06:52:38Z</time></trkpt><trkpt lat="49.05580454808456" lon="6.866222113782818"><ele>258.59999999999997</ele><time>2026-05-03T06:52:39Z</time></trkpt><trkpt lat="49.055796715042376" lon="6.866058428636987"><ele>258.8</ele><time>2026-05-03T06:52:40Z</time></trkpt><trkpt lat="49.055785373133986" lon="6.865896970585898"><ele>259.0</ele><time>2026-05-03T06:52:41Z</time></trkpt><trkpt lat="49.05575732268193" lon="6.865732891402763"><ele>257.75</ele><time>2026-05-03T06:52:42Z</time></trkpt><trkpt lat="49.05571446380912" lon="6.8655721637380145"><ele>256.5</ele><time>2026-05-03T06:52:43Z</time></trkpt><trkpt lat="49.05567760137642" lon="6.865413474296759"><ele>255.25</ele><time>2026-05-03T06:52:44Z</time></trkpt><trkpt lat="49.055644804936094" lon="6.865238660817855"><ele>254.0</ele><time>2026-05-03T06:52:45Z</time></trkpt><trkpt lat="49.05563345702926" lon="6.865057039280972"><ele>254.0</ele><time>2026-05-03T06:52:46Z</time></trkpt><trkpt lat="49.055610826547564" lon="6.86488200995798"><ele>253.99999999999997</ele><time>2026-05-03T06:52:47Z</time></trkpt><trkpt lat="49.05559066742737" lon="6.8647161553113545"><ele>253.99999999999997</ele><time>2026-05-03T06:52:48Z</time></trkpt><trkpt lat="49.05555878161419" lon="6.864565870608333"><ele>254.0</ele><time>2026-05-03T06:52:49Z</time></trkpt><trkpt lat="49.05554793652592" lon="6.864400184230871"><ele>254.0</ele><time>2026-05-03T06:52:50Z</time></trkpt><trkpt lat="49.05553256866689" lon="6.864230122506272"><ele>255.5</ele><time>2026-05-03T06:52:51Z</time></trkpt><trkpt lat="49.05551586064072" lon="6.86405145984698"><ele>257.0</ele><time>2026-05-03T06:52:52Z</time></trkpt><trkpt lat="49.055493675184074" lon="6.863883159667387"><ele>258.5</ele><time>2026-05-03T06:52:53Z</time></trkpt><trkpt lat="49.05545809588394" lon="6.863713982533957"><ele>260.0</ele><time>2026-05-03T06:52:54Z</time></trkpt><trkpt lat="49.05542173565744" lon="6.863542970158932"><ele>261.0</ele><time>2026-05-03T06:52:55Z</time></trkpt><trkpt lat="49.05538359331887" lon="6.863370250771702"><ele>262.0</ele><time>2026-05-03T06:52:56Z</time></trkpt><trkpt lat="49.055370246654014" lon="6.8631909548230245"><ele>263.0</ele><time>2026-05-03T06:52:57Z</time></trkpt><trkpt lat="49.05534755143772" lon="6.8630324795464155"><ele>264.0</ele><time>2026-05-03T06:52:58Z</time></trkpt><trkpt lat="49.05532911609456" lon="6.862891488114832"><ele>265.0</ele><time>2026-05-03T06:52:59Z</time></trkpt><trkpt lat="49.055312783063485" lon="6.862765842112231"><ele>265.0</ele><time>2026-05-03T06:52:59.999Z</time></trkpt><trkpt lat="49.05529696268072" lon="6.862644140332695"><ele>265.0</ele><time>2026-05-03T06:53:00.999Z</time></trkpt><trkpt lat="49.055266507649" lon="6.86254354146223"><ele>265.0</ele><time>2026-05-03T06:53:01.999Z</time></trkpt><trkpt lat="49.05526888539141" lon="6.862444210628709"><ele>265.0</ele><time>2026-05-03T06:53:02.999Z</time></trkpt><trkpt lat="49.05524603704741" lon="6.862295860183478"><ele>265.0</ele><time>2026-05-03T06:53:04.999Z</time></trkpt><trkpt lat="49.05522617483529" lon="6.862176412999098"><ele>265.0</ele><time>2026-05-03T06:53:06.999Z</time></trkpt><trkpt lat="49.05518392448489" lon="6.861979986518539"><ele>264.8</ele><time>2026-05-03T06:53:08.999Z</time></trkpt><trkpt lat="49.055154101287535" lon="6.8618253671593585"><ele>264.6</ele><time>2026-05-03T06:53:09.999Z</time></trkpt><trkpt lat="49.05512263414014" lon="6.861658646659566"><ele>264.4</ele><time>2026-05-03T06:53:10.999Z</time></trkpt><trkpt lat="49.05509495237377" lon="6.861504238036375"><ele>264.2</ele><time>2026-05-03T06:53:11.999Z</time></trkpt><trkpt lat="49.05506546239475" lon="6.861344484937149"><ele>264.0</ele><time>2026-05-03T06:53:12.999Z</time></trkpt><trkpt lat="49.05503382057868" lon="6.861170104732555"><ele>262.0</ele><time>2026-05-03T06:53:13.999Z</time></trkpt><trkpt lat="49.05500200976797" lon="6.861000289705071"><ele>260.0</ele><time>2026-05-03T06:53:14.999Z</time></trkpt><trkpt lat="49.05497016358415" lon="6.860826434607448"><ele>258.0</ele><time>2026-05-03T06:53:15.999Z</time></trkpt><trkpt lat="49.0549342165553" lon="6.860647904515729"><ele>256.0</ele><time>2026-05-03T06:53:16.999Z</time></trkpt><trkpt lat="49.05490489084694" lon="6.860474985733117"><ele>255.49999999999997</ele><time>2026-05-03T06:53:17.999Z</time></trkpt><trkpt lat="49.05487507471797" lon="6.860312953736685"><ele>255.0</ele><time>2026-05-03T06:53:18.999Z</time></trkpt><trkpt lat="49.0548526430089" lon="6.860176848076598"><ele>254.5</ele><time>2026-05-03T06:53:19.999Z</time></trkpt><trkpt lat="49.05482847438804" lon="6.860052453965496"><ele>254.0</ele><time>2026-05-03T06:53:20.999Z</time></trkpt><trkpt lat="49.0547858426406" lon="6.859958585506382"><ele>253.49999999999997</ele><time>2026-05-03T06:53:21.999Z</time></trkpt><trkpt lat="49.054770137769275" lon="6.859851544705506"><ele>253.0</ele><time>2026-05-03T06:53:22.999Z</time></trkpt><trkpt lat="49.05473764856852" lon="6.859751721937999"><ele>252.99999999999997</ele><time>2026-05-03T06:53:23.999Z</time></trkpt><trkpt lat="49.05470419589528" lon="6.859647806388648"><ele>253.0</ele><time>2026-05-03T06:53:24.999Z</time></trkpt><trkpt lat="49.05467250460441" lon="6.8595424042743565"><ele>253.0</ele><time>2026-05-03T06:53:25.999Z</time></trkpt><trkpt lat="49.054623664256795" lon="6.859431353557955"><ele>253.0</ele><time>2026-05-03T06:53:26.999Z</time></trkpt><trkpt lat="49.05460242521334" lon="6.859313177193876"><ele>252.99999999999997</ele><time>2026-05-03T06:53:27.999Z</time></trkpt><trkpt lat="49.05456337101563" lon="6.859187197120132"><ele>253.0</ele><time>2026-05-03T06:53:28.999Z</time></trkpt><trkpt lat="49.05453271403048" lon="6.85906500024387"><ele>253.49999999999997</ele><time>2026-05-03T06:53:29.999Z</time></trkpt><trkpt lat="49.05449818634944" lon="6.858932912829239"><ele>254.0</ele><time>2026-05-03T06:53:30.999Z</time></trkpt><trkpt lat="49.054465251943185" lon="6.858803470777755"><ele>254.5</ele><time>2026-05-03T06:53:31.999Z</time></trkpt><trkpt lat="49.0544293562155" lon="6.858675052671074"><ele>255.0</ele><time>2026-05-03T06:53:32.999Z</time></trkpt><trkpt lat="49.05440235039969" lon="6.858555700292378"><ele>255.49999999999997</ele><time>2026-05-03T06:53:33.999Z</time></trkpt><trkpt lat="49.05437109010879" lon="6.858436521482905"><ele>256.0</ele><time>2026-05-03T06:53:34.999Z</time></trkpt><trkpt lat="49.054353805221346" lon="6.858317860870195"><ele>256.16666666666663</ele><time>2026-05-03T06:53:35.999Z</time></trkpt><trkpt lat="49.05431261718907" lon="6.8582174260602775"><ele>256.3333333333333</ele><time>2026-05-03T06:53:36.999Z</time></trkpt><trkpt lat="49.05428462425595" lon="6.858108902186461"><ele>256.5</ele><time>2026-05-03T06:53:37.999Z</time></trkpt><trkpt lat="49.05425722396205" lon="6.857996484089274"><ele>256.6666666666667</ele><time>2026-05-03T06:53:38.999Z</time></trkpt><trkpt lat="49.05422739804765" lon="6.857882553949746"><ele>256.83333333333337</ele><time>2026-05-03T06:53:39.999Z</time></trkpt><trkpt lat="49.054196176328986" lon="6.857766270474499"><ele>257.0</ele><time>2026-05-03T06:53:40.999Z</time></trkpt><trkpt lat="49.05416618469205" lon="6.857654156658433"><ele>257.1666666666667</ele><time>2026-05-03T06:53:41.999Z</time></trkpt><trkpt lat="49.05413113048666" lon="6.857533886186494"><ele>257.33333333333337</ele><time>2026-05-03T06:53:42.999Z</time></trkpt><trkpt lat="49.05409579481161" lon="6.857426002395106"><ele>257.5</ele><time>2026-05-03T06:53:43.999Z</time></trkpt><trkpt lat="49.054060358153926" lon="6.857315637584591"><ele>257.6666666666667</ele><time>2026-05-03T06:53:44.999Z</time></trkpt><trkpt lat="49.05402808110364" lon="6.857205969576458"><ele>257.8333333333333</ele><time>2026-05-03T06:53:46Z</time></trkpt><trkpt lat="49.0539884185341" lon="6.857092666297745"><ele>258.0</ele><time>2026-05-03T06:53:47Z</time></trkpt><trkpt lat="49.053958425902884" lon="6.85697889672253"><ele>257.5</ele><time>2026-05-03T06:53:48Z</time></trkpt><trkpt lat="49.05391955130601" lon="6.856861538766419"><ele>257.0</ele><time>2026-05-03T06:53:49Z</time></trkpt><trkpt lat="49.05389249276427" lon="6.856735409697473"><ele>256.5</ele><time>2026-05-03T06:53:50Z</time></trkpt><trkpt lat="49.0538413939078" lon="6.85662442697343"><ele>256.0</ele><time>2026-05-03T06:53:51Z</time></trkpt><trkpt lat="49.053802856744525" lon="6.856508650727506"><ele>255.5</ele><time>2026-05-03T06:53:52Z</time></trkpt><trkpt lat="49.05376758657318" lon="6.856379639444798"><ele>255.0</ele><time>2026-05-03T06:53:53Z</time></trkpt><trkpt lat="49.05372678078997" lon="6.856251471117818"><ele>255.0</ele><time>2026-05-03T06:53:54Z</time></trkpt><trkpt lat="49.053693227410996" lon="6.856094874198864"><ele>255.0</ele><time>2026-05-03T06:53:55Z</time></trkpt><trkpt lat="49.05362975086477" lon="6.855946269345283"><ele>255.0</ele><time>2026-05-03T06:53:56Z</time></trkpt><trkpt lat="49.053577710318855" lon="6.855775910329057"><ele>255.0</ele><time>2026-05-03T06:53:57Z</time></trkpt><trkpt lat="49.05352276389196" lon="6.855596210597007"><ele>255.75</ele><time>2026-05-03T06:53:58Z</time></trkpt><trkpt lat="49.05346613576074" lon="6.855423904318736"><ele>256.5</ele><time>2026-05-03T06:53:59Z</time></trkpt><trkpt lat="49.053428000179075" lon="6.855245756513317"><ele>257.25</ele><time>2026-05-03T06:54:00Z</time></trkpt><trkpt lat="49.05336056603022" lon="6.855086992672183"><ele>258.0</ele><time>2026-05-03T06:54:01Z</time></trkpt><trkpt lat="49.05331932222205" lon="6.854910316024719"><ele>257.25</ele><time>2026-05-03T06:54:02Z</time></trkpt><trkpt lat="49.05326400971508" lon="6.854743026720125"><ele>256.5</ele><time>2026-05-03T06:54:03Z</time></trkpt><trkpt lat="49.0532093039148" lon="6.854577572212654"><ele>255.75</ele><time>2026-05-03T06:54:04Z</time></trkpt><trkpt lat="49.05315428160112" lon="6.854411160364713"><ele>255.0</ele><time>2026-05-03T06:54:05Z</time></trkpt><trkpt lat="49.053100383466735" lon="6.8542481489555644"><ele>255.0</ele><time>2026-05-03T06:54:06Z</time></trkpt><trkpt lat="49.053035521833266" lon="6.854090347276776"><ele>255.0</ele><time>2026-05-03T06:54:07Z</time></trkpt><trkpt lat="49.05297854267784" lon="6.8539341270426535"><ele>255.0</ele><time>2026-05-03T06:54:08Z</time></trkpt><trkpt lat="49.05294542387313" lon="6.853777174979332"><ele>255.0</ele><time>2026-05-03T06:54:09Z</time></trkpt><trkpt lat="49.05289799944444" lon="6.853630539416085"><ele>256.0</ele><time>2026-05-03T06:54:10Z</time></trkpt><trkpt lat="49.05279712882108" lon="6.853318648991513"><ele>257.0</ele><time>2026-05-03T06:54:12Z</time></trkpt><trkpt lat="49.052746429198244" lon="6.853161886537863"><ele>258.0</ele><time>2026-05-03T06:54:13Z</time></trkpt><trkpt lat="49.05268079821904" lon="6.853015660786729"><ele>258.0</ele><time>2026-05-03T06:54:14Z</time></trkpt><trkpt lat="49.052643943547324" lon="6.852848002908704"><ele>258.0</ele><time>2026-05-03T06:54:15Z</time></trkpt><trkpt lat="49.05257786073311" lon="6.85270183730641"><ele>258.0</ele><time>2026-05-03T06:54:16Z</time></trkpt><trkpt lat="49.052524340068" lon="6.852544826842584"><ele>258.0</ele><time>2026-05-03T06:54:17Z</time></trkpt><trkpt lat="49.05246985387976" lon="6.852382308973987"><ele>258.0</ele><time>2026-05-03T06:54:18Z</time></trkpt><trkpt lat="49.05240954202506" lon="6.85221616795505"><ele>258.0</ele><time>2026-05-03T06:54:19Z</time></trkpt><trkpt lat="49.0523485288021" lon="6.852048901791147"><ele>258.0</ele><time>2026-05-03T06:54:20Z</time></trkpt><trkpt lat="49.05228613255238" lon="6.851879027274521"><ele>258.0</ele><time>2026-05-03T06:54:21Z</time></trkpt><trkpt lat="49.05222280154835" lon="6.8517083048915755"><ele>258.5</ele><time>2026-05-03T06:54:22Z</time></trkpt><trkpt lat="49.05215752235955" lon="6.85153508729543"><ele>259.0</ele><time>2026-05-03T06:54:23Z</time></trkpt><trkpt lat="49.05210820784264" lon="6.851352904744947"><ele>259.5</ele><time>2026-05-03T06:54:24Z</time></trkpt><trkpt lat="49.05203306395544" lon="6.851191939272395"><ele>260.0</ele><time>2026-05-03T06:54:25Z</time></trkpt><trkpt lat="49.05197794226908" lon="6.851015874944652"><ele>260.0</ele><time>2026-05-03T06:54:26Z</time></trkpt><trkpt lat="49.05189954068088" lon="6.850861259299176"><ele>260.0</ele><time>2026-05-03T06:54:27Z</time></trkpt><trkpt lat="49.05183111046761" lon="6.8506994263553835"><ele>260.0</ele><time>2026-05-03T06:54:28Z</time></trkpt><trkpt lat="49.05177314156854" lon="6.8505302647858"><ele>260.0</ele><time>2026-05-03T06:54:29Z</time></trkpt><trkpt lat="49.05168905441822" lon="6.850387988947687"><ele>260.0</ele><time>2026-05-03T06:54:30Z</time></trkpt><trkpt lat="49.05163073450428" lon="6.850218438147766"><ele>260.0</ele><time>2026-05-03T06:54:31Z</time></trkpt><trkpt lat="49.05156057823685" lon="6.8500638923802075"><ele>260.0</ele><time>2026-05-03T06:54:32Z</time></trkpt><trkpt lat="49.051479304749854" lon="6.849918704965748"><ele>260.0</ele><time>2026-05-03T06:54:33Z</time></trkpt><trkpt lat="49.05141354577493" lon="6.849773979748489"><ele>260.6</ele><time>2026-05-03T06:54:34Z</time></trkpt><trkpt lat="49.05135636311895" lon="6.8496457617295645"><ele>261.2</ele><time>2026-05-03T06:54:35Z</time></trkpt><trkpt lat="49.05130395071807" lon="6.849527239846657"><ele>261.8</ele><time>2026-05-03T06:54:36Z</time></trkpt><trkpt lat="49.051252726581595" lon="6.8494068935531"><ele>262.4</ele><time>2026-05-03T06:54:37Z</time></trkpt><trkpt lat="49.051204276675044" lon="6.849286721035564"><ele>263.0</ele><time>2026-05-03T06:54:38Z</time></trkpt><trkpt lat="49.051160833311606" lon="6.849184266220873"><ele>263.0</ele><time>2026-05-03T06:54:39Z</time></trkpt><trkpt lat="49.05112246309596" lon="6.849105950875009"><ele>263.0</ele><time>2026-05-03T06:54:40Z</time></trkpt><trkpt lat="49.051069472648535" lon="6.848977144311626"><ele>263.0</ele><time>2026-05-03T06:54:42Z</time></trkpt><trkpt lat="49.05092445346386" lon="6.849053992159295"><ele>263.0</ele><time>2026-05-03T06:54:44Z</time></trkpt><trkpt lat="49.05083920142005" lon="6.849122104824704"><ele>263.0</ele><time>2026-05-03T06:54:45Z</time></trkpt><trkpt lat="49.05074758675651" lon="6.849156486284294"><ele>263.5</ele><time>2026-05-03T06:54:46Z</time></trkpt><trkpt lat="49.050631385801736" lon="6.8492219623456885"><ele>264.0</ele><time>2026-05-03T06:54:47Z</time></trkpt><trkpt lat="49.05051133651815" lon="6.849295876547923"><ele>264.5</ele><time>2026-05-03T06:54:48Z</time></trkpt><trkpt lat="49.05041359731638" lon="6.849358615543914"><ele>265.0</ele><time>2026-05-03T06:54:49Z</time></trkpt><trkpt lat="49.050315620293" lon="6.8494215072814475"><ele>265.0</ele><time>2026-05-03T06:54:50Z</time></trkpt><trkpt lat="49.05022270612478" lon="6.849505946204353"><ele>265.0</ele><time>2026-05-03T06:54:51Z</time></trkpt><trkpt lat="49.050123419423926" lon="6.849559152632319"><ele>265.0</ele><time>2026-05-03T06:54:52Z</time></trkpt><trkpt lat="49.05004653978931" lon="6.8496116726405205"><ele>265.0</ele><time>2026-05-03T06:54:53Z</time></trkpt><trkpt lat="49.04995812973977" lon="6.849626181951245"><ele>265.0</ele><time>2026-05-03T06:54:55Z</time></trkpt><trkpt lat="49.04990124660888" lon="6.849565746849117"><ele>264.6</ele><time>2026-05-03T06:54:57Z</time></trkpt><trkpt lat="49.04988800195466" lon="6.849416694510465"><ele>264.2</ele><time>2026-05-03T06:54:59Z</time></trkpt><trkpt lat="49.049865690966065" lon="6.849307127336509"><ele>263.8</ele><time>2026-05-03T06:55:00Z</time></trkpt><trkpt lat="49.049821433195206" lon="6.849168182443528"><ele>263.4</ele><time>2026-05-03T06:55:01Z</time></trkpt><trkpt lat="49.049791744893874" lon="6.849018354572912"><ele>263.0</ele><time>2026-05-03T06:55:02Z</time></trkpt><trkpt lat="49.04977708582693" lon="6.848878212422009"><ele>263.0</ele><time>2026-05-03T06:55:03Z</time></trkpt><trkpt lat="49.04975408650473" lon="6.8487668784152556"><ele>263.0</ele><time>2026-05-03T06:55:04Z</time></trkpt><trkpt lat="49.049729988855596" lon="6.848650227829985"><ele>263.0</ele><time>2026-05-03T06:55:05Z</time></trkpt><trkpt lat="49.04970605468325" lon="6.848534368724287"><ele>263.0</ele><time>2026-05-03T06:55:06Z</time></trkpt><trkpt lat="49.04968231855377" lon="6.848419013698611"><ele>263.0</ele><time>2026-05-03T06:55:07Z</time></trkpt><trkpt lat="49.049642640307795" lon="6.848308377920055"><ele>263.0</ele><time>2026-05-03T06:55:08Z</time></trkpt><trkpt lat="49.04962465997974" lon="6.848208100742081"><ele>263.42857142857144</ele><time>2026-05-03T06:55:09Z</time></trkpt><trkpt lat="49.04961822593108" lon="6.848102233367896"><ele>263.85714285714283</ele><time>2026-05-03T06:55:10Z</time></trkpt><trkpt lat="49.0495986560545" lon="6.848005508657181"><ele>264.2857142857143</ele><time>2026-05-03T06:55:11Z</time></trkpt><trkpt lat="49.04957890730944" lon="6.8479078996082325"><ele>264.7142857142857</ele><time>2026-05-03T06:55:12Z</time></trkpt><trkpt lat="49.04955750039132" lon="6.847802095505103"><ele>265.1428571428571</ele><time>2026-05-03T06:55:13Z</time></trkpt><trkpt lat="49.04953569243175" lon="6.847694308748103"><ele>265.57142857142856</ele><time>2026-05-03T06:55:14Z</time></trkpt><trkpt lat="49.049512178886815" lon="6.847578810311682"><ele>266.0</ele><time>2026-05-03T06:55:15Z</time></trkpt><trkpt lat="49.0494723194893" lon="6.847469795151504"><ele>266.0</ele><time>2026-05-03T06:55:16Z</time></trkpt><trkpt lat="49.049454695103385" lon="6.847346363457777"><ele>266.0</ele><time>2026-05-03T06:55:17Z</time></trkpt><trkpt lat="49.04942418935334" lon="6.847209384711276"><ele>266.0</ele><time>2026-05-03T06:55:18Z</time></trkpt><trkpt lat="49.04939522106119" lon="6.847078354035697"><ele>266.0</ele><time>2026-05-03T06:55:19Z</time></trkpt><trkpt lat="49.04937816165906" lon="6.8469330086793105"><ele>266.0</ele><time>2026-05-03T06:55:20Z</time></trkpt><trkpt lat="49.04933817884783" lon="6.846806578178126"><ele>266.0</ele><time>2026-05-03T06:55:21Z</time></trkpt><trkpt lat="49.04931145499833" lon="6.8466845942110295"><ele>266.0</ele><time>2026-05-03T06:55:22Z</time></trkpt><trkpt lat="49.04928450555741" lon="6.8465590259595395"><ele>266.0</ele><time>2026-05-03T06:55:23Z</time></trkpt><trkpt lat="49.04925747613165" lon="6.846432106499987"><ele>266.0</ele><time>2026-05-03T06:55:24Z</time></trkpt><trkpt lat="49.04924412507188" lon="6.846288478007954"><ele>266.0</ele><time>2026-05-03T06:55:25Z</time></trkpt><trkpt lat="49.049218177082345" lon="6.846164127679688"><ele>266.0</ele><time>2026-05-03T06:55:26Z</time></trkpt><trkpt lat="49.04919008706346" lon="6.846029512646754"><ele>266.2</ele><time>2026-05-03T06:55:27Z</time></trkpt><trkpt lat="49.049137154932254" lon="6.8457758471357835"><ele>266.40000000000003</ele><time>2026-05-03T06:55:28.999Z</time></trkpt><trkpt lat="49.049093968845874" lon="6.845652505362226"><ele>266.6</ele><time>2026-05-03T06:55:29.999Z</time></trkpt><trkpt lat="49.04907096744681" lon="6.845518741185352"><ele>266.8</ele><time>2026-05-03T06:55:30.999Z</time></trkpt><trkpt lat="49.04904338946614" lon="6.845392500502449"><ele>267.0</ele><time>2026-05-03T06:55:31.999Z</time></trkpt><trkpt lat="49.04902906589217" lon="6.845257854683359"><ele>266.4</ele><time>2026-05-03T06:55:32.999Z</time></trkpt><trkpt lat="49.04900112918922" lon="6.845123974013263"><ele>265.79999999999995</ele><time>2026-05-03T06:55:33.999Z</time></trkpt><trkpt lat="49.04897363521691" lon="6.844992215380683"><ele>265.2</ele><time>2026-05-03T06:55:34.999Z</time></trkpt><trkpt lat="49.0489473147755" lon="6.844866080765244"><ele>264.59999999999997</ele><time>2026-05-03T06:55:35.999Z</time></trkpt><trkpt lat="49.04891945784238" lon="6.844732582406"><ele>264.0</ele><time>2026-05-03T06:55:36.999Z</time></trkpt><trkpt lat="49.0488830547388" lon="6.844608456418264"><ele>264.0</ele><time>2026-05-03T06:55:37.999Z</time></trkpt><trkpt lat="49.048855024689615" lon="6.844482175702183"><ele>264.0</ele><time>2026-05-03T06:55:38.999Z</time></trkpt><trkpt lat="49.048826073826866" lon="6.844345067203769"><ele>264.0</ele><time>2026-05-03T06:55:39.999Z</time></trkpt><trkpt lat="49.04879704840561" lon="6.844216957878698"><ele>264.0</ele><time>2026-05-03T06:55:40.999Z</time></trkpt><trkpt lat="49.04876679510242" lon="6.8440854058632485"><ele>264.0</ele><time>2026-05-03T06:55:41.999Z</time></trkpt><trkpt lat="49.04874124260236" lon="6.843958925555531"><ele>264.0</ele><time>2026-05-03T06:55:42.999Z</time></trkpt><trkpt lat="49.048718493264296" lon="6.843848008122754"><ele>264.1666666666667</ele><time>2026-05-03T06:55:43.999Z</time></trkpt><trkpt lat="49.04871490531763" lon="6.843750132066655"><ele>264.3333333333333</ele><time>2026-05-03T06:55:44.999Z</time></trkpt><trkpt lat="49.04868567342724" lon="6.843643933276247"><ele>264.5</ele><time>2026-05-03T06:55:46.999Z</time></trkpt><trkpt lat="49.04872389362843" lon="6.843563275154994"><ele>264.66666666666663</ele><time>2026-05-03T06:55:48.999Z</time></trkpt><trkpt lat="49.048835146090006" lon="6.843506718934699"><ele>264.8333333333333</ele><time>2026-05-03T06:55:50.999Z</time></trkpt><trkpt lat="49.04891069231639" lon="6.84347703043742"><ele>265.0</ele><time>2026-05-03T06:55:52Z</time></trkpt><trkpt lat="49.04897731289279" lon="6.843433200894514"><ele>265.0</ele><time>2026-05-03T06:55:53Z</time></trkpt><trkpt lat="49.049039475950494" lon="6.843411819859956"><ele>265.0</ele><time>2026-05-03T06:55:54Z</time></trkpt><trkpt lat="49.049104817214264" lon="6.84338225930799"><ele>265.0</ele><time>2026-05-03T06:55:55Z</time></trkpt><trkpt lat="49.04917423677883" lon="6.843350859311306"><ele>265.0</ele><time>2026-05-03T06:55:56Z</time></trkpt><trkpt lat="49.04930526338308" lon="6.843296546394612"><ele>265.0</ele><time>2026-05-03T06:55:58Z</time></trkpt><trkpt lat="49.04937337289722" lon="6.843265117859627"><ele>265.0</ele><time>2026-05-03T06:55:59Z</time></trkpt><trkpt lat="49.04944666379323" lon="6.843232122034733"><ele>264.85714285714283</ele><time>2026-05-03T06:56:00Z</time></trkpt><trkpt lat="49.049523314329335" lon="6.843218135212891"><ele>264.7142857142857</ele><time>2026-05-03T06:56:01Z</time></trkpt><trkpt lat="49.049589533784165" lon="6.843169328444187"><ele>264.57142857142856</ele><time>2026-05-03T06:56:02Z</time></trkpt><trkpt lat="49.04966896433414" lon="6.843139145821102"><ele>264.42857142857144</ele><time>2026-05-03T06:56:03Z</time></trkpt><trkpt lat="49.04973418737685" lon="6.8431076869764444"><ele>264.2857142857143</ele><time>2026-05-03T06:56:04Z</time></trkpt><trkpt lat="49.04979771954911" lon="6.843078765186146"><ele>264.1428571428571</ele><time>2026-05-03T06:56:05Z</time></trkpt><trkpt lat="49.04985920866341" lon="6.843050730065928"><ele>264.0</ele><time>2026-05-03T06:56:06Z</time></trkpt><trkpt lat="49.04997193837168" lon="6.843002824187977"><ele>263.0</ele><time>2026-05-03T06:56:08Z</time></trkpt><trkpt lat="49.05008651775952" lon="6.842957567156315"><ele>262.0</ele><time>2026-05-03T06:56:10Z</time></trkpt><trkpt lat="49.05015261386825" lon="6.842950866143316"><ele>261.0</ele><time>2026-05-03T06:56:11Z</time></trkpt><trkpt lat="49.050264827996465" lon="6.842903634271036"><ele>260.0</ele><time>2026-05-03T06:56:13Z</time></trkpt><trkpt lat="49.05035375590326" lon="6.842932992147602"><ele>259.0</ele><time>2026-05-03T06:56:15Z</time></trkpt><trkpt lat="49.050404156408916" lon="6.843028205697366"><ele>259.0</ele><time>2026-05-03T06:56:17Z</time></trkpt><trkpt lat="49.050450373408104" lon="6.843123617813103"><ele>259.0</ele><time>2026-05-03T06:56:21Z</time></trkpt><trkpt lat="49.05049010171886" lon="6.8432645120143905"><ele>259.0</ele><time>2026-05-03T06:56:23Z</time></trkpt><trkpt lat="49.05055031704286" lon="6.843441953764162"><ele>259.0</ele><time>2026-05-03T06:56:25Z</time></trkpt><trkpt lat="49.05058568707204" lon="6.843540257842582"><ele>259.0</ele><time>2026-05-03T06:56:26Z</time></trkpt><trkpt lat="49.05062386223455" lon="6.843641860982584"><ele>259.0</ele><time>2026-05-03T06:56:27Z</time></trkpt><trkpt lat="49.050658339048674" lon="6.843757322920692"><ele>259.0</ele><time>2026-05-03T06:56:28Z</time></trkpt><trkpt lat="49.0506950566388" lon="6.843871167026297"><ele>259.0</ele><time>2026-05-03T06:56:29Z</time></trkpt><trkpt lat="49.05073380086864" lon="6.843986362784077"><ele>259.0</ele><time>2026-05-03T06:56:30Z</time></trkpt><trkpt lat="49.05077236206932" lon="6.844104524445519"><ele>259.0</ele><time>2026-05-03T06:56:31Z</time></trkpt><trkpt lat="49.05081393938831" lon="6.844216977818151"><ele>259.0</ele><time>2026-05-03T06:56:32Z</time></trkpt><trkpt lat="49.050849341980225" lon="6.84434141357291"><ele>258.3333333333333</ele><time>2026-05-03T06:56:33Z</time></trkpt><trkpt lat="49.05089660927966" lon="6.844458083349893"><ele>257.66666666666663</ele><time>2026-05-03T06:56:34Z</time></trkpt><trkpt lat="49.050947237798425" lon="6.844574476363092"><ele>257.0</ele><time>2026-05-03T06:56:35Z</time></trkpt><trkpt lat="49.05098574747643" lon="6.844684300939708"><ele>256.3333333333333</ele><time>2026-05-03T06:56:36Z</time></trkpt><trkpt lat="49.05102270996263" lon="6.844805443208466"><ele>255.66666666666666</ele><time>2026-05-03T06:56:37Z</time></trkpt><trkpt lat="49.05106950382607" lon="6.844922460802769"><ele>255.0</ele><time>2026-05-03T06:56:38Z</time></trkpt><trkpt lat="49.051123948236295" lon="6.845026242774216"><ele>254.8</ele><time>2026-05-03T06:56:39Z</time></trkpt><trkpt lat="49.0511752776757" lon="6.8451387753927735"><ele>254.6</ele><time>2026-05-03T06:56:40Z</time></trkpt><trkpt lat="49.05120168955412" lon="6.845252203451413"><ele>254.39999999999998</ele><time>2026-05-03T06:56:41Z</time></trkpt><trkpt lat="49.05130985217227" lon="6.845470646150081"><ele>254.2</ele><time>2026-05-03T06:56:43Z</time></trkpt><trkpt lat="49.051353389189764" lon="6.845583270120624"><ele>254.0</ele><time>2026-05-03T06:56:44Z</time></trkpt><trkpt lat="49.05139565862336" lon="6.845687359372967"><ele>254.0</ele><time>2026-05-03T06:56:45Z</time></trkpt><trkpt lat="49.05143545390711" lon="6.845776620993742"><ele>253.99999999999997</ele><time>2026-05-03T06:56:46Z</time></trkpt><trkpt lat="49.051496458031494" lon="6.845926758858997"><ele>253.99999999999997</ele><time>2026-05-03T06:56:48Z</time></trkpt><trkpt lat="49.051530826080686" lon="6.846040741206005"><ele>254.0</ele><time>2026-05-03T06:56:50Z</time></trkpt><trkpt lat="49.05165990140765" lon="6.845977380307674"><ele>254.0</ele><time>2026-05-03T06:56:52Z</time></trkpt><trkpt lat="49.05172928202665" lon="6.845912044085975"><ele>253.50000000000003</ele><time>2026-05-03T06:56:53Z</time></trkpt><trkpt lat="49.051786693817334" lon="6.8458420247386025"><ele>253.0</ele><time>2026-05-03T06:56:54Z</time></trkpt><trkpt lat="49.05184433963547" lon="6.845767369301958"><ele>252.5</ele><time>2026-05-03T06:56:55Z</time></trkpt><trkpt lat="49.05191038842943" lon="6.845696443000994"><ele>252.0</ele><time>2026-05-03T06:56:56Z</time></trkpt><trkpt lat="49.051980747559476" lon="6.845620419073348"><ele>251.50000000000003</ele><time>2026-05-03T06:56:57Z</time></trkpt><trkpt lat="49.05204606170043" lon="6.845524616964244"><ele>251.0</ele><time>2026-05-03T06:56:58Z</time></trkpt><trkpt lat="49.05212748557918" lon="6.845450705721432"><ele>251.0</ele><time>2026-05-03T06:56:59Z</time></trkpt><trkpt lat="49.052206594486776" lon="6.845365895194805"><ele>251.00000000000003</ele><time>2026-05-03T06:57:00Z</time></trkpt><trkpt lat="49.05228991322879" lon="6.845275986323595"><ele>251.00000000000003</ele><time>2026-05-03T06:57:01Z</time></trkpt><trkpt lat="49.052363357563564" lon="6.8451628595684575"><ele>251.0</ele><time>2026-05-03T06:57:02Z</time></trkpt><trkpt lat="49.05244099401116" lon="6.845084451869081"><ele>251.0</ele><time>2026-05-03T06:57:03Z</time></trkpt><trkpt lat="49.05250506157767" lon="6.845013389578033"><ele>251.4285714285714</ele><time>2026-05-03T06:57:04Z</time></trkpt><trkpt lat="49.05256398653268" lon="6.844959555702681"><ele>251.85714285714283</ele><time>2026-05-03T06:57:05Z</time></trkpt><trkpt lat="49.052644244235886" lon="6.844883477922064"><ele>252.28571428571428</ele><time>2026-05-03T06:57:07Z</time></trkpt><trkpt lat="49.0527051629882" lon="6.8448452924023355"><ele>252.7142857142857</ele><time>2026-05-03T06:57:08Z</time></trkpt><trkpt lat="49.05276840412875" lon="6.844773382351604"><ele>253.1428571428571</ele><time>2026-05-03T06:57:11Z</time></trkpt><trkpt lat="49.05282282922551" lon="6.844708249249323"><ele>253.57142857142858</ele><time>2026-05-03T06:57:12Z</time></trkpt><trkpt lat="49.05288641844526" lon="6.844660127751291"><ele>254.0</ele><time>2026-05-03T06:57:13Z</time></trkpt><trkpt lat="49.05296787879553" lon="6.844599406580544"><ele>254.0</ele><time>2026-05-03T06:57:14Z</time></trkpt><trkpt lat="49.05305939985444" lon="6.844520810471794"><ele>254.0</ele><time>2026-05-03T06:57:15Z</time></trkpt><trkpt lat="49.0531521808342" lon="6.8444268116017435"><ele>254.0</ele><time>2026-05-03T06:57:16Z</time></trkpt><trkpt lat="49.053267062989285" lon="6.844322568040873"><ele>254.0</ele><time>2026-05-03T06:57:17Z</time></trkpt><trkpt lat="49.05339312001106" lon="6.8442090082483436"><ele>252.66666666666669</ele><time>2026-05-03T06:57:18Z</time></trkpt><trkpt lat="49.05352459974172" lon="6.844088237489006"><ele>251.33333333333331</ele><time>2026-05-03T06:57:19Z</time></trkpt><trkpt lat="49.05368012247935" lon="6.843944484073927"><ele>250.0</ele><time>2026-05-03T06:57:20Z</time></trkpt><trkpt lat="49.05386037283837" lon="6.843774210543394"><ele>250.0</ele><time>2026-05-03T06:57:21Z</time></trkpt><trkpt lat="49.05405062979251" lon="6.843598340821349"><ele>250.0</ele><time>2026-05-03T06:57:22Z</time></trkpt><trkpt lat="49.05424034990636" lon="6.843423779280714"><ele>250.0</ele><time>2026-05-03T06:57:23Z</time></trkpt><trkpt lat="49.05442501428371" lon="6.843251799422876"><ele>249.66666666666666</ele><time>2026-05-03T06:57:24Z</time></trkpt><trkpt lat="49.05460758353498" lon="6.843087168888528"><ele>249.33333333333331</ele><time>2026-05-03T06:57:25Z</time></trkpt><trkpt lat="49.05479405943569" lon="6.842920107857245"><ele>249.0</ele><time>2026-05-03T06:57:25.999Z</time></trkpt><trkpt lat="49.05497904560756" lon="6.8427688090724015"><ele>250.0</ele><time>2026-05-03T06:57:26.999Z</time></trkpt><trkpt lat="49.055168175478364" lon="6.842631464035543"><ele>251.0</ele><time>2026-05-03T06:57:27.999Z</time></trkpt><trkpt lat="49.05534905762718" lon="6.842515762508282"><ele>252.0</ele><time>2026-05-03T06:57:28.999Z</time></trkpt><trkpt lat="49.055516299964744" lon="6.842419560215069"><ele>252.33333333333331</ele><time>2026-05-03T06:57:29.999Z</time></trkpt><trkpt lat="49.055679794419724" lon="6.842327526788113"><ele>252.66666666666666</ele><time>2026-05-03T06:57:30.999Z</time></trkpt><trkpt lat="49.0558461315793" lon="6.842245930918713"><ele>253.0</ele><time>2026-05-03T06:57:31.999Z</time></trkpt><trkpt lat="49.0560170118138" lon="6.842195882084351"><ele>254.0</ele><time>2026-05-03T06:57:32.999Z</time></trkpt><trkpt lat="49.05619562109987" lon="6.842177944166716"><ele>255.0</ele><time>2026-05-03T06:57:33.999Z</time></trkpt><trkpt lat="49.05637992079075" lon="6.842208646080928"><ele>256.0</ele><time>2026-05-03T06:57:34.999Z</time></trkpt><trkpt lat="49.05656084171698" lon="6.842258834248497"><ele>257.66666666666663</ele><time>2026-05-03T06:57:35.999Z</time></trkpt><trkpt lat="49.05672901641282" lon="6.842327185596339"><ele>259.3333333333333</ele><time>2026-05-03T06:57:36.999Z</time></trkpt><trkpt lat="49.056883360051934" lon="6.842385253816158"><ele>261.0</ele><time>2026-05-03T06:57:37.999Z</time></trkpt><trkpt lat="49.05703498311524" lon="6.8424396345355785"><ele>261.0</ele><time>2026-05-03T06:57:38.999Z</time></trkpt><trkpt lat="49.05718896252014" lon="6.842487304034614"><ele>261.0</ele><time>2026-05-03T06:57:39.999Z</time></trkpt><trkpt lat="49.05733823493462" lon="6.842526784632594"><ele>261.0</ele><time>2026-05-03T06:57:40.999Z</time></trkpt><trkpt lat="49.05748982182291" lon="6.842569753847457"><ele>262.0</ele><time>2026-05-03T06:57:41.999Z</time></trkpt><trkpt lat="49.05764684012008" lon="6.842625748007191"><ele>263.0</ele><time>2026-05-03T06:57:42.999Z</time></trkpt><trkpt lat="49.05780826917643" lon="6.842694650477483"><ele>264.0</ele><time>2026-05-03T06:57:43.999Z</time></trkpt><trkpt lat="49.057972995673495" lon="6.842800979352233"><ele>264.0</ele><time>2026-05-03T06:57:44.999Z</time></trkpt><trkpt lat="49.05813301712598" lon="6.842923122350407"><ele>264.0</ele><time>2026-05-03T06:57:45.999Z</time></trkpt><trkpt lat="49.05829484907328" lon="6.843056550176535"><ele>264.0</ele><time>2026-05-03T06:57:46.999Z</time></trkpt><trkpt lat="49.05846111856913" lon="6.843198691655091"><ele>265.0</ele><time>2026-05-03T06:57:47.999Z</time></trkpt><trkpt lat="49.05863089198847" lon="6.84334401356696"><ele>266.0</ele><time>2026-05-03T06:57:48.999Z</time></trkpt><trkpt lat="49.058803038471204" lon="6.843485968168152"><ele>267.0</ele><time>2026-05-03T06:57:49.999Z</time></trkpt><trkpt lat="49.0589739758694" lon="6.843624699849809"><ele>266.3333333333333</ele><time>2026-05-03T06:57:50.999Z</time></trkpt><trkpt lat="49.05914387345365" lon="6.843763656714676"><ele>265.66666666666663</ele><time>2026-05-03T06:57:51.999Z</time></trkpt><trkpt lat="49.05931722076471" lon="6.843903240139751"><ele>265.0</ele><time>2026-05-03T06:57:52.999Z</time></trkpt><trkpt lat="49.059492946357146" lon="6.8440479589320224"><ele>265.0</ele><time>2026-05-03T06:57:53.999Z</time></trkpt><trkpt lat="49.05966612386173" lon="6.84419477626574"><ele>265.0</ele><time>2026-05-03T06:57:54.999Z</time></trkpt><trkpt lat="49.05984094944548" lon="6.844343455524271"><ele>265.0</ele><time>2026-05-03T06:57:55.999Z</time></trkpt><trkpt lat="49.06001250203443" lon="6.844490587313796"><ele>261.3333333333333</ele><time>2026-05-03T06:57:56.999Z</time></trkpt><trkpt lat="49.06018838278568" lon="6.844634294293307"><ele>257.6666666666667</ele><time>2026-05-03T06:57:58Z</time></trkpt><trkpt lat="49.06036409323229" lon="6.844777513989732"><ele>254.0</ele><time>2026-05-03T06:57:59Z</time></trkpt><trkpt lat="49.06053684323864" lon="6.844916709258128"><ele>254.0</ele><time>2026-05-03T06:58:00Z</time></trkpt><trkpt lat="49.06071309038285" lon="6.845059271603033"><ele>254.0</ele><time>2026-05-03T06:58:01Z</time></trkpt><trkpt lat="49.060887497914436" lon="6.845201950261929"><ele>254.0</ele><time>2026-05-03T06:58:02Z</time></trkpt><trkpt lat="49.061064856125846" lon="6.845343257464331"><ele>253.66666666666669</ele><time>2026-05-03T06:58:03Z</time></trkpt><trkpt lat="49.06123455935655" lon="6.845483570778517"><ele>253.33333333333331</ele><time>2026-05-03T06:58:04Z</time></trkpt><trkpt lat="49.06140567446812" lon="6.8456211496113495"><ele>253.0</ele><time>2026-05-03T06:58:05Z</time></trkpt><trkpt lat="49.06157190105058" lon="6.845763553559425"><ele>253.33333333333331</ele><time>2026-05-03T06:58:06Z</time></trkpt><trkpt lat="49.06173851187209" lon="6.845904282735038"><ele>253.66666666666669</ele><time>2026-05-03T06:58:07Z</time></trkpt><trkpt lat="49.061899894279385" lon="6.8460437303195185"><ele>254.0</ele><time>2026-05-03T06:58:08Z</time></trkpt><trkpt lat="49.062068173341466" lon="6.846177057808601"><ele>254.0</ele><time>2026-05-03T06:58:09Z</time></trkpt><trkpt lat="49.062236216282486" lon="6.846317446529069"><ele>254.0</ele><time>2026-05-03T06:58:10Z</time></trkpt><trkpt lat="49.062409420080456" lon="6.846458548124059"><ele>254.0</ele><time>2026-05-03T06:58:11Z</time></trkpt><trkpt lat="49.06258022965369" lon="6.8466002718026955"><ele>254.0</ele><time>2026-05-03T06:58:12Z</time></trkpt><trkpt lat="49.06274558152587" lon="6.8467417646730535"><ele>254.0</ele><time>2026-05-03T06:58:13Z</time></trkpt><trkpt lat="49.0629087081593" lon="6.846876934948241"><ele>254.0</ele><time>2026-05-03T06:58:14Z</time></trkpt><trkpt lat="49.0630620813588" lon="6.846999983535179"><ele>254.0</ele><time>2026-05-03T06:58:15Z</time></trkpt><trkpt lat="49.06321386168644" lon="6.847129043563065"><ele>254.0</ele><time>2026-05-03T06:58:16Z</time></trkpt><trkpt lat="49.06336847156183" lon="6.847234324335277"><ele>254.0</ele><time>2026-05-03T06:58:17Z</time></trkpt><trkpt lat="49.06352871328293" lon="6.847311799360281"><ele>254.33333333333334</ele><time>2026-05-03T06:58:18Z</time></trkpt><trkpt lat="49.06370326690758" lon="6.847352185995831"><ele>254.66666666666669</ele><time>2026-05-03T06:58:19Z</time></trkpt><trkpt lat="49.06388115219796" lon="6.847359160833579"><ele>255.0</ele><time>2026-05-03T06:58:20Z</time></trkpt><trkpt lat="49.06406540060235" lon="6.84732495587229"><ele>251.66666666666669</ele><time>2026-05-03T06:58:21Z</time></trkpt><trkpt lat="49.064250596213135" lon="6.847272049259493"><ele>248.33333333333334</ele><time>2026-05-03T06:58:22Z</time></trkpt><trkpt lat="49.064432281987116" lon="6.847200933173981"><ele>245.0</ele><time>2026-05-03T06:58:23Z</time></trkpt><trkpt lat="49.06461406526758" lon="6.847128947479353"><ele>245.0</ele><time>2026-05-03T06:58:24Z</time></trkpt><trkpt lat="49.064794352267945" lon="6.847065977160436"><ele>245.0</ele><time>2026-05-03T06:58:25Z</time></trkpt><trkpt lat="49.06497073978327" lon="6.847005519420096"><ele>245.0</ele><time>2026-05-03T06:58:26Z</time></trkpt><trkpt lat="49.06514369382223" lon="6.846946228730679"><ele>244.33333333333334</ele><time>2026-05-03T06:58:27Z</time></trkpt><trkpt lat="49.0653158006027" lon="6.8468836426514255"><ele>243.66666666666669</ele><time>2026-05-03T06:58:28Z</time></trkpt><trkpt lat="49.06548858725873" lon="6.846824169012863"><ele>243.0</ele><time>2026-05-03T06:58:29Z</time></trkpt><trkpt lat="49.065657646819005" lon="6.846766503860255"><ele>243.0</ele><time>2026-05-03T06:58:30Z</time></trkpt><trkpt lat="49.06582819509318" lon="6.846704018597883"><ele>243.0</ele><time>2026-05-03T06:58:31Z</time></trkpt><trkpt lat="49.06599661765266" lon="6.846644435377126"><ele>243.0</ele><time>2026-05-03T06:58:32Z</time></trkpt><trkpt lat="49.0661664227684" lon="6.8465888012632545"><ele>243.0</ele><time>2026-05-03T06:58:33Z</time></trkpt><trkpt lat="49.06633446421423" lon="6.846529966676556"><ele>243.0</ele><time>2026-05-03T06:58:34Z</time></trkpt><trkpt lat="49.066501981945976" lon="6.846473355980648"><ele>243.0</ele><time>2026-05-03T06:58:35Z</time></trkpt><trkpt lat="49.06666880073922" lon="6.846414690641273"><ele>244.33333333333331</ele><time>2026-05-03T06:58:36Z</time></trkpt><trkpt lat="49.06683409058521" lon="6.846354070067517"><ele>245.66666666666666</ele><time>2026-05-03T06:58:37Z</time></trkpt><trkpt lat="49.0670010489887" lon="6.846296529879331"><ele>247.0</ele><time>2026-05-03T06:58:38Z</time></trkpt><trkpt lat="49.067166582729385" lon="6.846237475060835"><ele>247.0</ele><time>2026-05-03T06:58:39Z</time></trkpt><trkpt lat="49.067328502713494" lon="6.846179400229538"><ele>247.0</ele><time>2026-05-03T06:58:40Z</time></trkpt><trkpt lat="49.067478492401776" lon="6.846128903758242"><ele>247.0</ele><time>2026-05-03T06:58:41Z</time></trkpt><trkpt lat="49.0676170115067" lon="6.846082174432514"><ele>247.5</ele><time>2026-05-03T06:58:42Z</time></trkpt><trkpt lat="49.06774622279509" lon="6.846039801058019"><ele>248.0</ele><time>2026-05-03T06:58:43Z</time></trkpt><trkpt lat="49.06787862272397" lon="6.845994717412255"><ele>248.5</ele><time>2026-05-03T06:58:44Z</time></trkpt><trkpt lat="49.06800519497792" lon="6.84595101320125"><ele>249.0</ele><time>2026-05-03T06:58:45Z</time></trkpt><trkpt lat="49.06811904376952" lon="6.845912797893059"><ele>249.0</ele><time>2026-05-03T06:58:46Z</time></trkpt><trkpt lat="49.06822303359761" lon="6.8458787185038155"><ele>249.0</ele><time>2026-05-03T06:58:47Z</time></trkpt><trkpt lat="49.06831640529898" lon="6.845847796570057"><ele>249.0</ele><time>2026-05-03T06:58:48Z</time></trkpt><trkpt lat="49.068400101930806" lon="6.84582089025543"><ele>249.0</ele><time>2026-05-03T06:58:49Z</time></trkpt><trkpt lat="49.068469505049336" lon="6.8458038246418615"><ele>249.0</ele><time>2026-05-03T06:58:50Z</time></trkpt><trkpt lat="49.06854787828828" lon="6.845792593874959"><ele>249.0</ele><time>2026-05-03T06:58:52Z</time></trkpt><trkpt lat="49.068610977896384" lon="6.845776716889068"><ele>250.16666666666666</ele><time>2026-05-03T06:58:56Z</time></trkpt><trkpt lat="49.068666137611444" lon="6.845721918584799"><ele>251.33333333333331</ele><time>2026-05-03T06:59:12Z</time></trkpt><trkpt lat="49.06868990383841" lon="6.845549014399014"><ele>252.5</ele><time>2026-05-03T06:59:14Z</time></trkpt><trkpt lat="49.06867596200327" lon="6.845437431401162"><ele>253.66666666666666</ele><time>2026-05-03T06:59:15Z</time></trkpt><trkpt lat="49.06867979398505" lon="6.845295082468605"><ele>254.83333333333331</ele><time>2026-05-03T06:59:16Z</time></trkpt><trkpt lat="49.06866710278857" lon="6.845143773636767"><ele>256.0</ele><time>2026-05-03T06:59:17Z</time></trkpt><trkpt lat="49.06863517610706" lon="6.844961616991127"><ele>256.0</ele><time>2026-05-03T06:59:18Z</time></trkpt><trkpt lat="49.06863594220989" lon="6.844779839613569"><ele>256.0</ele><time>2026-05-03T06:59:19Z</time></trkpt><trkpt lat="49.06862021503187" lon="6.844596156975493"><ele>256.0</ele><time>2026-05-03T06:59:20Z</time></trkpt><trkpt lat="49.068588026183285" lon="6.844408698149551"><ele>256.0</ele><time>2026-05-03T06:59:21Z</time></trkpt><trkpt lat="49.0685723140256" lon="6.844218430190055"><ele>256.5</ele><time>2026-05-03T06:59:22Z</time></trkpt><trkpt lat="49.06855689229423" lon="6.844030021646864"><ele>257.0</ele><time>2026-05-03T06:59:23Z</time></trkpt><trkpt lat="49.068542405089936" lon="6.843843005186341"><ele>257.5</ele><time>2026-05-03T06:59:24Z</time></trkpt><trkpt lat="49.06853200295639" lon="6.8436760140734085"><ele>258.0</ele><time>2026-05-03T06:59:25Z</time></trkpt><trkpt lat="49.06851646630321" lon="6.843519407237016"><ele>258.75</ele><time>2026-05-03T06:59:26Z</time></trkpt><trkpt lat="49.0685025291351" lon="6.843365095706595"><ele>259.5</ele><time>2026-05-03T06:59:27Z</time></trkpt><trkpt lat="49.068493327803836" lon="6.8432321003636964"><ele>260.25</ele><time>2026-05-03T06:59:28Z</time></trkpt><trkpt lat="49.068506122561736" lon="6.843073258229182"><ele>261.0</ele><time>2026-05-03T06:59:30Z</time></trkpt><trkpt lat="49.06870986573708" lon="6.843008659711815"><ele>261.0</ele><time>2026-05-03T06:59:34Z</time></trkpt><trkpt lat="49.06877545952858" lon="6.843005947164644"><ele>261.0</ele><time>2026-05-03T06:59:35Z</time></trkpt><trkpt lat="49.06885512472158" lon="6.842996777129343"><ele>261.0</ele><time>2026-05-03T06:59:35.999Z</time></trkpt><trkpt lat="49.068933859663396" lon="6.8429829031298794"><ele>261.0</ele><time>2026-05-03T06:59:36.999Z</time></trkpt><trkpt lat="49.06902116368947" lon="6.842966477778975"><ele>261.0</ele><time>2026-05-03T06:59:37.999Z</time></trkpt><trkpt lat="49.06910374357792" lon="6.842949669519037"><ele>261.0</ele><time>2026-05-03T06:59:38.999Z</time></trkpt><trkpt lat="49.06917841821991" lon="6.842912095154207"><ele>260.2</ele><time>2026-05-03T06:59:39.999Z</time></trkpt><trkpt lat="49.06927534375279" lon="6.842848897707912"><ele>259.40000000000003</ele><time>2026-05-03T06:59:40.999Z</time></trkpt><trkpt lat="49.069374453233735" lon="6.8427981966238525"><ele>258.6</ele><time>2026-05-03T06:59:41.999Z</time></trkpt><trkpt lat="49.06946421408845" lon="6.842745448490823"><ele>257.8</ele><time>2026-05-03T06:59:42.999Z</time></trkpt><trkpt lat="49.06955097182346" lon="6.842686804342155"><ele>257.0</ele><time>2026-05-03T06:59:43.999Z</time></trkpt><trkpt lat="49.069641277897524" lon="6.842628041557805"><ele>257.0</ele><time>2026-05-03T06:59:44.999Z</time></trkpt><trkpt lat="49.06972160373385" lon="6.842564026485956"><ele>257.0</ele><time>2026-05-03T06:59:45.999Z</time></trkpt><trkpt lat="49.06980913057482" lon="6.842480798008461"><ele>257.0</ele><time>2026-05-03T06:59:46.999Z</time></trkpt><trkpt lat="49.06988145090452" lon="6.842416688669091"><ele>257.0</ele><time>2026-05-03T06:59:47.999Z</time></trkpt><trkpt lat="49.06995977284896" lon="6.842356026276952"><ele>257.0</ele><time>2026-05-03T06:59:48.999Z</time></trkpt><trkpt lat="49.0700379668567" lon="6.8423004342264075"><ele>257.4</ele><time>2026-05-03T06:59:49.999Z</time></trkpt><trkpt lat="49.07011692386238" lon="6.842224778707492"><ele>257.79999999999995</ele><time>2026-05-03T06:59:50.999Z</time></trkpt><trkpt lat="49.07019252505141" lon="6.842161137691108"><ele>258.2</ele><time>2026-05-03T06:59:51.999Z</time></trkpt><trkpt lat="49.07027208082395" lon="6.842090556652877"><ele>258.59999999999997</ele><time>2026-05-03T06:59:52.999Z</time></trkpt><trkpt lat="49.07035469250488" lon="6.842019143187705"><ele>259.0</ele><time>2026-05-03T06:59:53.999Z</time></trkpt><trkpt lat="49.070431738100325" lon="6.841967944148798"><ele>259.0</ele><time>2026-05-03T06:59:54.999Z</time></trkpt><trkpt lat="49.07049807330697" lon="6.841909275781528"><ele>259.0</ele><time>2026-05-03T06:59:55.999Z</time></trkpt><trkpt lat="49.07056223242948" lon="6.841838762716659"><ele>259.0</ele><time>2026-05-03T06:59:56.999Z</time></trkpt><trkpt lat="49.070633809011454" lon="6.841778259455828"><ele>259.0</ele><time>2026-05-03T06:59:57.999Z</time></trkpt><trkpt lat="49.07070653900011" lon="6.841737607051674"><ele>259.0</ele><time>2026-05-03T06:59:58.999Z</time></trkpt><trkpt lat="49.07078307669588" lon="6.841703101316205"><ele>259.0</ele><time>2026-05-03T06:59:59.999Z</time></trkpt><trkpt lat="49.07086683339001" lon="6.841656332072881"><ele>261.16666666666663</ele><time>2026-05-03T07:00:00.999Z</time></trkpt><trkpt lat="49.0709525097475" lon="6.841588386648106"><ele>263.3333333333333</ele><time>2026-05-03T07:00:01.999Z</time></trkpt><trkpt lat="49.07101023062959" lon="6.841536775262499"><ele>265.5</ele><time>2026-05-03T07:00:02.999Z</time></trkpt><trkpt lat="49.071070795615306" lon="6.841503202060034"><ele>267.6666666666667</ele><time>2026-05-03T07:00:05Z</time></trkpt><trkpt lat="49.07110884579927" lon="6.841593514563673"><ele>269.83333333333337</ele><time>2026-05-03T07:00:07Z</time></trkpt><trkpt lat="49.07114888151081" lon="6.8417108398805"><ele>272.0</ele><time>2026-05-03T07:00:09Z</time></trkpt><trkpt lat="49.0712516254223" lon="6.841671708908208"><ele>272.0</ele><time>2026-05-03T07:00:11Z</time></trkpt><trkpt lat="49.071298393664556" lon="6.841592075624885"><ele>272.0</ele><time>2026-05-03T07:00:12Z</time></trkpt><trkpt lat="49.07135331509357" lon="6.841494708890665"><ele>272.0</ele><time>2026-05-03T07:00:13Z</time></trkpt><trkpt lat="49.07142939634339" lon="6.841422538096983"><ele>272.0</ele><time>2026-05-03T07:00:14Z</time></trkpt><trkpt lat="49.071521906683905" lon="6.841330145358455"><ele>272.0</ele><time>2026-05-03T07:00:15Z</time></trkpt><trkpt lat="49.07161459946024" lon="6.841229014722041"><ele>274.33333333333337</ele><time>2026-05-03T07:00:16Z</time></trkpt><trkpt lat="49.07173311070477" lon="6.841094631804656"><ele>276.6666666666667</ele><time>2026-05-03T07:00:17Z</time></trkpt><trkpt lat="49.07186748018718" lon="6.840915554011087"><ele>279.0</ele><time>2026-05-03T07:00:18Z</time></trkpt><trkpt lat="49.07201347259491" lon="6.840726646157038"><ele>280.25</ele><time>2026-05-03T07:00:19Z</time></trkpt><trkpt lat="49.0721420186588" lon="6.840582151351434"><ele>281.5</ele><time>2026-05-03T07:00:20Z</time></trkpt><trkpt lat="49.07225763011235" lon="6.840463127061083"><ele>282.75</ele><time>2026-05-03T07:00:21Z</time></trkpt><trkpt lat="49.07236912768946" lon="6.840333020764032"><ele>284.0</ele><time>2026-05-03T07:00:22Z</time></trkpt><trkpt lat="49.07247333646961" lon="6.84022273822187"><ele>284.59999999999997</ele><time>2026-05-03T07:00:23Z</time></trkpt><trkpt lat="49.07256720399449" lon="6.840127245924399"><ele>285.2</ele><time>2026-05-03T07:00:24Z</time></trkpt><trkpt lat="49.0726558610932" lon="6.840034384773473"><ele>285.79999999999995</ele><time>2026-05-03T07:00:25Z</time></trkpt><trkpt lat="49.072744814629" lon="6.8399474987814335"><ele>286.4</ele><time>2026-05-03T07:00:26Z</time></trkpt><trkpt lat="49.07284207540802" lon="6.83986211647311"><ele>287.0</ele><time>2026-05-03T07:00:27Z</time></trkpt><trkpt lat="49.072940389159236" lon="6.839778824121152"><ele>287.0</ele><time>2026-05-03T07:00:28Z</time></trkpt><trkpt lat="49.07304007296561" lon="6.839685832445046"><ele>287.0</ele><time>2026-05-03T07:00:29Z</time></trkpt><trkpt lat="49.07314414307627" lon="6.8395908712365605"><ele>287.0</ele><time>2026-05-03T07:00:30Z</time></trkpt><trkpt lat="49.073254231190255" lon="6.839495394792855"><ele>287.0</ele><time>2026-05-03T07:00:31Z</time></trkpt><trkpt lat="49.073363482103154" lon="6.839398083695022"><ele>286.0</ele><time>2026-05-03T07:00:32Z</time></trkpt><trkpt lat="49.073484056243814" lon="6.839289365873619"><ele>285.0</ele><time>2026-05-03T07:00:33Z</time></trkpt><trkpt lat="49.0736146469949" lon="6.839164254639941"><ele>284.0</ele><time>2026-05-03T07:00:34Z</time></trkpt><trkpt lat="49.073758858522574" lon="6.839025601189867"><ele>284.0</ele><time>2026-05-03T07:00:35Z</time></trkpt><trkpt lat="49.073910178026466" lon="6.838889013845189"><ele>284.0</ele><time>2026-05-03T07:00:36Z</time></trkpt><trkpt lat="49.07406697138453" lon="6.838747292352161"><ele>284.0</ele><time>2026-05-03T07:00:37Z</time></trkpt><trkpt lat="49.074230257831864" lon="6.838597133910153"><ele>284.0</ele><time>2026-05-03T07:00:38Z</time></trkpt><trkpt lat="49.07439761294731" lon="6.8384468831682526"><ele>284.0</ele><time>2026-05-03T07:00:39Z</time></trkpt><trkpt lat="49.07457272552217" lon="6.838298742870454"><ele>284.0</ele><time>2026-05-03T07:00:40Z</time></trkpt><trkpt lat="49.07474202988769" lon="6.8381531299132"><ele>284.0</ele><time>2026-05-03T07:00:41Z</time></trkpt><trkpt lat="49.07490722573183" lon="6.837999807129475"><ele>284.0</ele><time>2026-05-03T07:00:42Z</time></trkpt><trkpt lat="49.07507080672785" lon="6.8378318935552"><ele>284.0</ele><time>2026-05-03T07:00:43Z</time></trkpt><trkpt lat="49.07522380102537" lon="6.83765871164806"><ele>283.6666666666667</ele><time>2026-05-03T07:00:44Z</time></trkpt><trkpt lat="49.07537491616576" lon="6.837474847637583"><ele>283.3333333333333</ele><time>2026-05-03T07:00:45Z</time></trkpt><trkpt lat="49.075521713554295" lon="6.837292547997191"><ele>283.0</ele><time>2026-05-03T07:00:46Z</time></trkpt><trkpt lat="49.07567046607121" lon="6.837115909335511"><ele>283.66666666666663</ele><time>2026-05-03T07:00:47Z</time></trkpt><trkpt lat="49.075816644231885" lon="6.8369362856016345"><ele>284.3333333333333</ele><time>2026-05-03T07:00:48Z</time></trkpt><trkpt lat="49.075958006963795" lon="6.836762785377188"><ele>285.0</ele><time>2026-05-03T07:00:49Z</time></trkpt><trkpt lat="49.07608576736877" lon="6.836603423495623"><ele>285.0</ele><time>2026-05-03T07:00:50Z</time></trkpt><trkpt lat="49.07620287064208" lon="6.836456508458652"><ele>285.0</ele><time>2026-05-03T07:00:51Z</time></trkpt><trkpt lat="49.07631601728743" lon="6.836321679473707"><ele>285.0</ele><time>2026-05-03T07:00:52Z</time></trkpt><trkpt lat="49.076416799324264" lon="6.836196698887284"><ele>285.0</ele><time>2026-05-03T07:00:53Z</time></trkpt><trkpt lat="49.0765043229296" lon="6.836066007770271"><ele>284.75</ele><time>2026-05-03T07:00:54Z</time></trkpt><trkpt lat="49.07657421097238" lon="6.835920130707195"><ele>284.5</ele><time>2026-05-03T07:00:55Z</time></trkpt><trkpt lat="49.076621903977994" lon="6.835745576021828"><ele>284.25</ele><time>2026-05-03T07:00:56Z</time></trkpt><trkpt lat="49.076664918632815" lon="6.83553781578505"><ele>284.0</ele><time>2026-05-03T07:00:57Z</time></trkpt><trkpt lat="49.07671075103233" lon="6.835294237162426"><ele>284.6666666666667</ele><time>2026-05-03T07:00:58Z</time></trkpt><trkpt lat="49.076767184923675" lon="6.835055032138766"><ele>285.3333333333333</ele><time>2026-05-03T07:00:59Z</time></trkpt><trkpt lat="49.07681834140732" lon="6.834817923385493"><ele>286.0</ele><time>2026-05-03T07:01:00Z</time></trkpt><trkpt lat="49.0768649565514" lon="6.834578302323726"><ele>286.0</ele><time>2026-05-03T07:01:01Z</time></trkpt><trkpt lat="49.07692065176097" lon="6.834344565274198"><ele>286.0</ele><time>2026-05-03T07:01:02Z</time></trkpt><trkpt lat="49.076966241070956" lon="6.834108508530787"><ele>286.0</ele><time>2026-05-03T07:01:03Z</time></trkpt><trkpt lat="49.077009425484185" lon="6.833878087605337"><ele>285.66666666666663</ele><time>2026-05-03T07:01:04Z</time></trkpt><trkpt lat="49.077045689160144" lon="6.833646938104639"><ele>285.3333333333333</ele><time>2026-05-03T07:01:05Z</time></trkpt><trkpt lat="49.07707657375265" lon="6.833414698501672"><ele>285.0</ele><time>2026-05-03T07:01:06Z</time></trkpt><trkpt lat="49.07710457824751" lon="6.833180806146191"><ele>285.0</ele><time>2026-05-03T07:01:07Z</time></trkpt><trkpt lat="49.07713299123803" lon="6.832946108092424"><ele>285.0</ele><time>2026-05-03T07:01:08Z</time></trkpt><trkpt lat="49.077163541210744" lon="6.8327106658545365"><ele>285.0</ele><time>2026-05-03T07:01:09Z</time></trkpt><trkpt lat="49.07719534187175" lon="6.832478575391644"><ele>284.6666666666667</ele><time>2026-05-03T07:01:10Z</time></trkpt><trkpt lat="49.07722664068057" lon="6.832245847706808"><ele>284.33333333333337</ele><time>2026-05-03T07:01:11Z</time></trkpt><trkpt lat="49.077256035426615" lon="6.832005879110375"><ele>284.0</ele><time>2026-05-03T07:01:12Z</time></trkpt><trkpt lat="49.07728683242032" lon="6.831768755741406"><ele>283.6666666666667</ele><time>2026-05-03T07:01:13Z</time></trkpt><trkpt lat="49.077342284321105" lon="6.831541013686269"><ele>283.3333333333333</ele><time>2026-05-03T07:01:14Z</time></trkpt><trkpt lat="49.07738682151045" lon="6.831308813456129"><ele>283.0</ele><time>2026-05-03T07:01:15Z</time></trkpt><trkpt lat="49.07744002789433" lon="6.831086440242025"><ele>283.3333333333333</ele><time>2026-05-03T07:01:16Z</time></trkpt><trkpt lat="49.077502271085756" lon="6.830868396531242"><ele>283.6666666666667</ele><time>2026-05-03T07:01:17Z</time></trkpt><trkpt lat="49.077565376904225" lon="6.830653315685627"><ele>284.0</ele><time>2026-05-03T07:01:18Z</time></trkpt><trkpt lat="49.07761135205684" lon="6.830430108913536"><ele>284.0</ele><time>2026-05-03T07:01:19Z</time></trkpt><trkpt lat="49.07766462514318" lon="6.830214311734137"><ele>284.0</ele><time>2026-05-03T07:01:20Z</time></trkpt><trkpt lat="49.077720263336126" lon="6.8300164867408135"><ele>284.0</ele><time>2026-05-03T07:01:21Z</time></trkpt><trkpt lat="49.07775129247855" lon="6.829819025123197"><ele>284.0</ele><time>2026-05-03T07:01:22Z</time></trkpt><trkpt lat="49.077771193115865" lon="6.8296102008052415"><ele>284.0</ele><time>2026-05-03T07:01:23Z</time></trkpt><trkpt lat="49.07775703750757" lon="6.82939373180104"><ele>284.0</ele><time>2026-05-03T07:01:24Z</time></trkpt><trkpt lat="49.07774390726522" lon="6.829179698950729"><ele>284.0</ele><time>2026-05-03T07:01:25Z</time></trkpt><trkpt lat="49.07774298238313" lon="6.828974214702074"><ele>284.0</ele><time>2026-05-03T07:01:26Z</time></trkpt><trkpt lat="49.07772633184883" lon="6.828792009416249"><ele>284.0</ele><time>2026-05-03T07:01:27Z</time></trkpt><trkpt lat="49.07770695471202" lon="6.828635009488471"><ele>284.0</ele><time>2026-05-03T07:01:28Z</time></trkpt><trkpt lat="49.077690771028635" lon="6.828517212571266"><ele>284.0</ele><time>2026-05-03T07:01:29Z</time></trkpt><trkpt lat="49.07767427866486" lon="6.8283967546747055"><ele>284.0</ele><time>2026-05-03T07:01:31Z</time></trkpt><trkpt lat="49.0776778395423" lon="6.828260431451021"><ele>284.0</ele><time>2026-05-03T07:01:39Z</time></trkpt><trkpt lat="49.07781713136907" lon="6.828125315477802"><ele>284.75</ele><time>2026-05-03T07:01:41Z</time></trkpt><trkpt lat="49.07790122671937" lon="6.828042630125729"><ele>285.5</ele><time>2026-05-03T07:01:42Z</time></trkpt><trkpt lat="49.07799106871164" lon="6.827952649149652"><ele>286.25</ele><time>2026-05-03T07:01:43Z</time></trkpt><trkpt lat="49.07810484287086" lon="6.827822979962759"><ele>287.0</ele><time>2026-05-03T07:01:44Z</time></trkpt><trkpt lat="49.078230649105876" lon="6.82766309107151"><ele>286.6666666666667</ele><time>2026-05-03T07:01:45Z</time></trkpt><trkpt lat="49.07835955592102" lon="6.827484167199972"><ele>286.3333333333333</ele><time>2026-05-03T07:01:46Z</time></trkpt><trkpt lat="49.078494775462694" lon="6.8272755700444705"><ele>286.0</ele><time>2026-05-03T07:01:47Z</time></trkpt><trkpt lat="49.07863682882762" lon="6.827054813824121"><ele>286.0</ele><time>2026-05-03T07:01:48Z</time></trkpt><trkpt lat="49.07878657312071" lon="6.826818072013302"><ele>286.0</ele><time>2026-05-03T07:01:49Z</time></trkpt><trkpt lat="49.07893277761015" lon="6.8265812104970385"><ele>286.0</ele><time>2026-05-03T07:01:50Z</time></trkpt><trkpt lat="49.079075059774574" lon="6.826354766400776"><ele>284.66666666666663</ele><time>2026-05-03T07:01:51Z</time></trkpt><trkpt lat="49.07921698097491" lon="6.826149112825765"><ele>283.3333333333333</ele><time>2026-05-03T07:01:52Z</time></trkpt><trkpt lat="49.079345235614724" lon="6.825904168936619"><ele>282.0</ele><time>2026-05-03T07:01:53Z</time></trkpt><trkpt lat="49.07948223530693" lon="6.825681619999239"><ele>282.0</ele><time>2026-05-03T07:01:54Z</time></trkpt><trkpt lat="49.07962008093928" lon="6.8254557077930755"><ele>282.0</ele><time>2026-05-03T07:01:55Z</time></trkpt><trkpt lat="49.079757750673735" lon="6.8252286301528695"><ele>282.0</ele><time>2026-05-03T07:01:56Z</time></trkpt><trkpt lat="49.07989445114209" lon="6.825002701606407"><ele>280.3333333333333</ele><time>2026-05-03T07:01:57Z</time></trkpt><trkpt lat="49.08003029641495" lon="6.824780340675097"><ele>278.66666666666663</ele><time>2026-05-03T07:01:58Z</time></trkpt><trkpt lat="49.08016207317349" lon="6.824568789251518"><ele>277.0</ele><time>2026-05-03T07:01:59Z</time></trkpt><trkpt lat="49.0802900770665" lon="6.824366526266341"><ele>276.3333333333333</ele><time>2026-05-03T07:02:00Z</time></trkpt><trkpt lat="49.08041408956642" lon="6.824166955513588"><ele>275.6666666666667</ele><time>2026-05-03T07:02:01Z</time></trkpt><trkpt lat="49.080534228311926" lon="6.823968164034328"><ele>275.0</ele><time>2026-05-03T07:02:02Z</time></trkpt><trkpt lat="49.080650420168716" lon="6.823775625124625"><ele>273.6666666666667</ele><time>2026-05-03T07:02:03Z</time></trkpt><trkpt lat="49.08078452701489" lon="6.8235822635418515"><ele>272.3333333333333</ele><time>2026-05-03T07:02:04Z</time></trkpt><trkpt lat="49.08093451488128" lon="6.823334819707899"><ele>271.0</ele><time>2026-05-03T07:02:05Z</time></trkpt><trkpt lat="49.08110167784225" lon="6.823059487722359"><ele>269.0</ele><time>2026-05-03T07:02:06Z</time></trkpt><trkpt lat="49.08127535319227" lon="6.822748046534199"><ele>267.0</ele><time>2026-05-03T07:02:07Z</time></trkpt><trkpt lat="49.081476573971116" lon="6.822447162217827"><ele>264.5</ele><time>2026-05-03T07:02:08Z</time></trkpt><trkpt lat="49.08166205322412" lon="6.822153364651048"><ele>262.0</ele><time>2026-05-03T07:02:09Z</time></trkpt><trkpt lat="49.08182608813726" lon="6.8218743307191065"><ele>260.5</ele><time>2026-05-03T07:02:10Z</time></trkpt><trkpt lat="49.081985130873925" lon="6.821612343914789"><ele>259.0</ele><time>2026-05-03T07:02:11Z</time></trkpt><trkpt lat="49.08213733407595" lon="6.821362604258881"><ele>259.0</ele><time>2026-05-03T07:02:12Z</time></trkpt><trkpt lat="49.08228656370245" lon="6.821119564287972"><ele>259.0</ele><time>2026-05-03T07:02:13Z</time></trkpt><trkpt lat="49.0824348079973" lon="6.820873775573921"><ele>259.0</ele><time>2026-05-03T07:02:14Z</time></trkpt><trkpt lat="49.08258377219217" lon="6.820628494898906"><ele>258.66666666666663</ele><time>2026-05-03T07:02:15Z</time></trkpt><trkpt lat="49.08273098353594" lon="6.820386806336619"><ele>258.3333333333333</ele><time>2026-05-03T07:02:16Z</time></trkpt><trkpt lat="49.08288339603863" lon="6.8201398373590685"><ele>258.0</ele><time>2026-05-03T07:02:17Z</time></trkpt><trkpt lat="49.08302457989413" lon="6.819907517458113"><ele>258.0</ele><time>2026-05-03T07:02:18Z</time></trkpt><trkpt lat="49.08316600769587" lon="6.819670807605856"><ele>258.0</ele><time>2026-05-03T07:02:19Z</time></trkpt><trkpt lat="49.083307781920254" lon="6.81943745719839"><ele>258.0</ele><time>2026-05-03T07:02:20Z</time></trkpt><trkpt lat="49.08344777169943" lon="6.819204305034741"><ele>258.0</ele><time>2026-05-03T07:02:21Z</time></trkpt><trkpt lat="49.083590876750314" lon="6.818971897457249"><ele>258.0</ele><time>2026-05-03T07:02:22Z</time></trkpt><trkpt lat="49.08373091648643" lon="6.8187438273244485"><ele>258.0</ele><time>2026-05-03T07:02:23Z</time></trkpt><trkpt lat="49.08386363666124" lon="6.818514880752118"><ele>257.6666666666667</ele><time>2026-05-03T07:02:24Z</time></trkpt><trkpt lat="49.08400065675953" lon="6.818287484962843"><ele>257.33333333333337</ele><time>2026-05-03T07:02:25Z</time></trkpt><trkpt lat="49.08413530897131" lon="6.818066883769809"><ele>257.0</ele><time>2026-05-03T07:02:26Z</time></trkpt><trkpt lat="49.084269218843" lon="6.817854130368035"><ele>257.6666666666667</ele><time>2026-05-03T07:02:27Z</time></trkpt><trkpt lat="49.084402375106514" lon="6.817642430275515"><ele>258.3333333333333</ele><time>2026-05-03T07:02:28Z</time></trkpt><trkpt lat="49.08452349905727" lon="6.817440599760924"><ele>259.0</ele><time>2026-05-03T07:02:29Z</time></trkpt><trkpt lat="49.084640736221786" lon="6.817256570980041"><ele>259.0</ele><time>2026-05-03T07:02:30Z</time></trkpt><trkpt lat="49.084746901713636" lon="6.81709164691211"><ele>259.0</ele><time>2026-05-03T07:02:31Z</time></trkpt><trkpt lat="49.084857887600016" lon="6.816934824817773"><ele>259.0</ele><time>2026-05-03T07:02:32Z</time></trkpt><trkpt lat="49.0849834618384" lon="6.816799303482704"><ele>261.0</ele><time>2026-05-03T07:02:33Z</time></trkpt><trkpt lat="49.085127282240364" lon="6.81669639545414"><ele>263.0</ele><time>2026-05-03T07:02:34Z</time></trkpt><trkpt lat="49.085287234062385" lon="6.816659553762386"><ele>265.0</ele><time>2026-05-03T07:02:35Z</time></trkpt><trkpt lat="49.08544976799288" lon="6.81664324683806"><ele>265.0</ele><time>2026-05-03T07:02:36Z</time></trkpt><trkpt lat="49.08561728086629" lon="6.816625592001481"><ele>265.0</ele><time>2026-05-03T07:02:37Z</time></trkpt><trkpt lat="49.08577868685819" lon="6.81663000318791"><ele>265.0</ele><time>2026-05-03T07:02:38Z</time></trkpt><trkpt lat="49.08594107923846" lon="6.816614894273444"><ele>265.5</ele><time>2026-05-03T07:02:39Z</time></trkpt><trkpt lat="49.08609621974571" lon="6.816599389987014"><ele>266.0</ele><time>2026-05-03T07:02:40Z</time></trkpt><trkpt lat="49.08624053942587" lon="6.816593098947553"><ele>266.5</ele><time>2026-05-03T07:02:41Z</time></trkpt><trkpt lat="49.08636981902533" lon="6.816590796265646"><ele>267.0</ele><time>2026-05-03T07:02:42Z</time></trkpt><trkpt lat="49.086490363776235" lon="6.816589956695471"><ele>268.0</ele><time>2026-05-03T07:02:43Z</time></trkpt><trkpt lat="49.08660382781333" lon="6.816592636400295"><ele>269.0</ele><time>2026-05-03T07:02:44Z</time></trkpt><trkpt lat="49.08670539793154" lon="6.816588299777572"><ele>270.0</ele><time>2026-05-03T07:02:45Z</time></trkpt><trkpt lat="49.086799158153894" lon="6.816578604233357"><ele>271.0</ele><time>2026-05-03T07:02:46Z</time></trkpt><trkpt lat="49.08688406215509" lon="6.81657175919955"><ele>272.0</ele><time>2026-05-03T07:02:47Z</time></trkpt><trkpt lat="49.086966541500345" lon="6.816566024563732"><ele>272.0</ele><time>2026-05-03T07:02:48Z</time></trkpt><trkpt lat="49.08704513610585" lon="6.816562234980498"><ele>272.0</ele><time>2026-05-03T07:02:49Z</time></trkpt><trkpt lat="49.087112716581245" lon="6.816559292911896"><ele>272.0</ele><time>2026-05-03T07:02:50Z</time></trkpt><trkpt lat="49.08723042050336" lon="6.816554664319213"><ele>272.0</ele><time>2026-05-03T07:02:52Z</time></trkpt><trkpt lat="49.087369207670186" lon="6.816542272284237"><ele>272.0</ele><time>2026-05-03T07:02:54Z</time></trkpt><trkpt lat="49.087464616200165" lon="6.816537432027061"><ele>273.0</ele><time>2026-05-03T07:02:55Z</time></trkpt><trkpt lat="49.087578265367824" lon="6.816528800565573"><ele>274.0</ele><time>2026-05-03T07:02:56Z</time></trkpt><trkpt lat="49.0877054086603" lon="6.816513728231743"><ele>275.0</ele><time>2026-05-03T07:02:57Z</time></trkpt><trkpt lat="49.087836925239955" lon="6.816496108017588"><ele>276.0</ele><time>2026-05-03T07:02:58Z</time></trkpt><trkpt lat="49.087973119320544" lon="6.816476529148649"><ele>276.0</ele><time>2026-05-03T07:02:59Z</time></trkpt><trkpt lat="49.08811163061991" lon="6.8164534103222145"><ele>276.0</ele><time>2026-05-03T07:03:00Z</time></trkpt><trkpt lat="49.088248322204535" lon="6.816426502430958"><ele>276.0</ele><time>2026-05-03T07:03:01Z</time></trkpt><trkpt lat="49.08838441523193" lon="6.816378835202869"><ele>276.0</ele><time>2026-05-03T07:03:02Z</time></trkpt><trkpt lat="49.088518045548554" lon="6.816308211562074"><ele>276.0</ele><time>2026-05-03T07:03:03Z</time></trkpt><trkpt lat="49.08863599773108" lon="6.816234052430169"><ele>276.0</ele><time>2026-05-03T07:03:04Z</time></trkpt><trkpt lat="49.08874152714767" lon="6.8161456064207515"><ele>276.0</ele><time>2026-05-03T07:03:05Z</time></trkpt><trkpt lat="49.088849723573325" lon="6.81604605332615"><ele>276.0</ele><time>2026-05-03T07:03:06Z</time></trkpt><trkpt lat="49.08895903877036" lon="6.815940033067605"><ele>276.0</ele><time>2026-05-03T07:03:07Z</time></trkpt><trkpt lat="49.08907645582603" lon="6.815838845636058"><ele>276.0</ele><time>2026-05-03T07:03:08Z</time></trkpt><trkpt lat="49.089196160166466" lon="6.815750895311339"><ele>276.0</ele><time>2026-05-03T07:03:09Z</time></trkpt><trkpt lat="49.089311251637746" lon="6.81564125849325"><ele>276.0</ele><time>2026-05-03T07:03:10Z</time></trkpt><trkpt lat="49.089419179903544" lon="6.815516150459177"><ele>276.0</ele><time>2026-05-03T07:03:11Z</time></trkpt><trkpt lat="49.089522744781384" lon="6.81538410024873"><ele>276.0</ele><time>2026-05-03T07:03:12Z</time></trkpt><trkpt lat="49.08962189886203" lon="6.815246113727562"><ele>276.0</ele><time>2026-05-03T07:03:13Z</time></trkpt><trkpt lat="49.08971915210725" lon="6.815100197170775"><ele>276.0</ele><time>2026-05-03T07:03:14Z</time></trkpt><trkpt lat="49.08981420708977" lon="6.814951401798877"><ele>275.75</ele><time>2026-05-03T07:03:15Z</time></trkpt><trkpt lat="49.08990508938966" lon="6.814799929048521"><ele>275.5</ele><time>2026-05-03T07:03:16Z</time></trkpt><trkpt lat="49.089992141829725" lon="6.81464422156605"><ele>275.25</ele><time>2026-05-03T07:03:17Z</time></trkpt><trkpt lat="49.09007453059" lon="6.814481356046679"><ele>275.0</ele><time>2026-05-03T07:03:18Z</time></trkpt><trkpt lat="49.09015234685932" lon="6.814311186837919"><ele>276.0</ele><time>2026-05-03T07:03:19Z</time></trkpt><trkpt lat="49.09022903460542" lon="6.81413989104171"><ele>277.0</ele><time>2026-05-03T07:03:20Z</time></trkpt><trkpt lat="49.09030159936794" lon="6.81396308470986"><ele>278.0</ele><time>2026-05-03T07:03:21Z</time></trkpt><trkpt lat="49.09037112946812" lon="6.813779034732206"><ele>279.0</ele><time>2026-05-03T07:03:22Z</time></trkpt><trkpt lat="49.090437568510076" lon="6.813593825761162"><ele>278.75</ele><time>2026-05-03T07:03:23Z</time></trkpt><trkpt lat="49.090494482653696" lon="6.813404114254598"><ele>278.5</ele><time>2026-05-03T07:03:24Z</time></trkpt><trkpt lat="49.09054977758803" lon="6.813207825575183"><ele>278.25</ele><time>2026-05-03T07:03:25Z</time></trkpt><trkpt lat="49.09060265308087" lon="6.812995320543443"><ele>278.0</ele><time>2026-05-03T07:03:26Z</time></trkpt><trkpt lat="49.09065095068372" lon="6.812763032249293"><ele>277.6666666666667</ele><time>2026-05-03T07:03:27Z</time></trkpt><trkpt lat="49.09069545223694" lon="6.812512567998115"><ele>277.3333333333333</ele><time>2026-05-03T07:03:28Z</time></trkpt><trkpt lat="49.09073319432952" lon="6.812245772572818"><ele>277.0</ele><time>2026-05-03T07:03:29Z</time></trkpt><trkpt lat="49.09076636117932" lon="6.811967396715107"><ele>279.0</ele><time>2026-05-03T07:03:30Z</time></trkpt><trkpt lat="49.09079987551963" lon="6.811673797625318"><ele>281.0</ele><time>2026-05-03T07:03:31Z</time></trkpt><trkpt lat="49.09083685755498" lon="6.811359403675911"><ele>283.0</ele><time>2026-05-03T07:03:32Z</time></trkpt><trkpt lat="49.09087489728214" lon="6.81101440901259"><ele>282.5</ele><time>2026-05-03T07:03:33Z</time></trkpt><trkpt lat="49.09091256509455" lon="6.8106604574324825"><ele>282.0</ele><time>2026-05-03T07:03:34Z</time></trkpt><trkpt lat="49.09095453426758" lon="6.810284853230917"><ele>281.5</ele><time>2026-05-03T07:03:35Z</time></trkpt><trkpt lat="49.09099557454257" lon="6.80989697245044"><ele>281.0</ele><time>2026-05-03T07:03:36Z</time></trkpt><trkpt lat="49.091037738434565" lon="6.809510944247142"><ele>280.0</ele><time>2026-05-03T07:03:37Z</time></trkpt><trkpt lat="49.091080352529175" lon="6.809125652582417"><ele>279.0</ele><time>2026-05-03T07:03:38Z</time></trkpt><trkpt lat="49.09112363662394" lon="6.8087391278879235"><ele>279.5</ele><time>2026-05-03T07:03:39Z</time></trkpt><trkpt lat="49.09116538804815" lon="6.808354366745081"><ele>280.0</ele><time>2026-05-03T07:03:40Z</time></trkpt><trkpt lat="49.09120698679656" lon="6.807969759918977"><ele>280.5</ele><time>2026-05-03T07:03:41Z</time></trkpt><trkpt lat="49.09124980737537" lon="6.807581679838558"><ele>281.0</ele><time>2026-05-03T07:03:42Z</time></trkpt><trkpt lat="49.09129123914488" lon="6.807197816211447"><ele>280.5</ele><time>2026-05-03T07:03:43Z</time></trkpt><trkpt lat="49.0913334370733" lon="6.806813572768085"><ele>280.0</ele><time>2026-05-03T07:03:44Z</time></trkpt><trkpt lat="49.091375861900254" lon="6.806428292053577"><ele>280.0</ele><time>2026-05-03T07:03:45Z</time></trkpt><trkpt lat="49.091417184201994" lon="6.806042093280821"><ele>280.0</ele><time>2026-05-03T07:03:46Z</time></trkpt><trkpt lat="49.091460043440215" lon="6.80565978305743"><ele>280.5</ele><time>2026-05-03T07:03:47Z</time></trkpt><trkpt lat="49.0915067603738" lon="6.805274206818622"><ele>281.0</ele><time>2026-05-03T07:03:48Z</time></trkpt><trkpt lat="49.09155255639899" lon="6.804891787944164"><ele>284.5</ele><time>2026-05-03T07:03:49Z</time></trkpt><trkpt lat="49.09159552468283" lon="6.8045036178192015"><ele>288.0</ele><time>2026-05-03T07:03:50Z</time></trkpt><trkpt lat="49.09163800207006" lon="6.804119908243166"><ele>289.0</ele><time>2026-05-03T07:03:51Z</time></trkpt><trkpt lat="49.091683777853774" lon="6.803733733283262"><ele>290.0</ele><time>2026-05-03T07:03:52Z</time></trkpt><trkpt lat="49.09173405576287" lon="6.803341348889016"><ele>292.0</ele><time>2026-05-03T07:03:53Z</time></trkpt><trkpt lat="49.0917849857602" lon="6.8029477451037526"><ele>294.0</ele><time>2026-05-03T07:03:54Z</time></trkpt><trkpt lat="49.0918365681925" lon="6.802551042694161"><ele>296.0</ele><time>2026-05-03T07:03:55Z</time></trkpt><trkpt lat="49.09189615744975" lon="6.802155930422234"><ele>298.0</ele><time>2026-05-03T07:03:56Z</time></trkpt><trkpt lat="49.09195774717792" lon="6.801761297672804"><ele>298.5</ele><time>2026-05-03T07:03:57Z</time></trkpt><trkpt lat="49.09201473060627" lon="6.801373281779805"><ele>299.0</ele><time>2026-05-03T07:03:58Z</time></trkpt><trkpt lat="49.09207170454651" lon="6.800983113790873"><ele>299.0</ele><time>2026-05-03T07:03:59Z</time></trkpt><trkpt lat="49.092133102348136" lon="6.800596934296391"><ele>299.0</ele><time>2026-05-03T07:04:00Z</time></trkpt><trkpt lat="49.092195854585405" lon="6.8002041365257995"><ele>298.5</ele><time>2026-05-03T07:04:01Z</time></trkpt><trkpt lat="49.09226090669373" lon="6.799815953464657"><ele>298.0</ele><time>2026-05-03T07:04:02Z</time></trkpt><trkpt lat="49.092326477454314" lon="6.799423346211994"><ele>296.0</ele><time>2026-05-03T07:04:03Z</time></trkpt><trkpt lat="49.09239632356773" lon="6.799027789346767"><ele>294.0</ele><time>2026-05-03T07:04:04Z</time></trkpt><trkpt lat="49.09246870782387" lon="6.7986359351313155"><ele>291.5</ele><time>2026-05-03T07:04:05Z</time></trkpt><trkpt lat="49.09254468988176" lon="6.798240893018679"><ele>289.0</ele><time>2026-05-03T07:04:06Z</time></trkpt><trkpt lat="49.09262190096626" lon="6.797848744299988"><ele>286.5</ele><time>2026-05-03T07:04:07Z</time></trkpt><trkpt lat="49.09269700392465" lon="6.7974735321619555"><ele>284.0</ele><time>2026-05-03T07:04:08Z</time></trkpt><trkpt lat="49.09277069520727" lon="6.7971206205778"><ele>280.5</ele><time>2026-05-03T07:04:09Z</time></trkpt><trkpt lat="49.09283944413338" lon="6.796783115360446"><ele>277.0</ele><time>2026-05-03T07:04:10Z</time></trkpt><trkpt lat="49.092905717966374" lon="6.796451186913255"><ele>277.0</ele><time>2026-05-03T07:04:11Z</time></trkpt><trkpt lat="49.09297380524109" lon="6.796117628233128"><ele>277.0</ele><time>2026-05-03T07:04:12Z</time></trkpt><trkpt lat="49.09303917995644" lon="6.79578467665097"><ele>275.5</ele><time>2026-05-03T07:04:13Z</time></trkpt><trkpt lat="49.09310308314872" lon="6.795450285958024"><ele>274.0</ele><time>2026-05-03T07:04:14Z</time></trkpt><trkpt lat="49.093167608117476" lon="6.795110325650826"><ele>273.0</ele><time>2026-05-03T07:04:15Z</time></trkpt><trkpt lat="49.09323175042779" lon="6.7947747705328245"><ele>272.0</ele><time>2026-05-03T07:04:16Z</time></trkpt><trkpt lat="49.09329997423997" lon="6.7944394484592046"><ele>273.0</ele><time>2026-05-03T07:04:17Z</time></trkpt><trkpt lat="49.09337010647615" lon="6.794107362297331"><ele>274.0</ele><time>2026-05-03T07:04:18Z</time></trkpt><trkpt lat="49.0934384800305" lon="6.793768436463688"><ele>274.0</ele><time>2026-05-03T07:04:19Z</time></trkpt><trkpt lat="49.093507905514805" lon="6.7934152895544955"><ele>274.0</ele><time>2026-05-03T07:04:20Z</time></trkpt><trkpt lat="49.09357877608735" lon="6.793064448683873"><ele>274.0</ele><time>2026-05-03T07:04:21Z</time></trkpt><trkpt lat="49.093650151993515" lon="6.792713462930711"><ele>274.0</ele><time>2026-05-03T07:04:22Z</time></trkpt><trkpt lat="49.09371728606092" lon="6.7923572584172165"><ele>274.0</ele><time>2026-05-03T07:04:23Z</time></trkpt><trkpt lat="49.09378452805252" lon="6.792006131267072"><ele>274.0</ele><time>2026-05-03T07:04:24Z</time></trkpt><trkpt lat="49.09385259763509" lon="6.791661229252043"><ele>274.0</ele><time>2026-05-03T07:04:25Z</time></trkpt><trkpt lat="49.09391938327884" lon="6.791328167202375"><ele>274.0</ele><time>2026-05-03T07:04:26Z</time></trkpt><trkpt lat="49.093985087385185" lon="6.791001428686891"><ele>274.66666666666663</ele><time>2026-05-03T07:04:27Z</time></trkpt><trkpt lat="49.09404967755671" lon="6.790674838177111"><ele>275.3333333333333</ele><time>2026-05-03T07:04:28Z</time></trkpt><trkpt lat="49.09411285421574" lon="6.790351335973427"><ele>276.0</ele><time>2026-05-03T07:04:29Z</time></trkpt><trkpt lat="49.09417582620307" lon="6.790026794498539"><ele>277.0</ele><time>2026-05-03T07:04:30Z</time></trkpt><trkpt lat="49.094236867970544" lon="6.789704400843289"><ele>278.0</ele><time>2026-05-03T07:04:31Z</time></trkpt><trkpt lat="49.09429829350079" lon="6.789385271403799"><ele>279.0</ele><time>2026-05-03T07:04:32Z</time></trkpt><trkpt lat="49.09436213854825" lon="6.789066328452775"><ele>279.3333333333333</ele><time>2026-05-03T07:04:33Z</time></trkpt><trkpt lat="49.09442316176869" lon="6.788753471760851"><ele>279.66666666666663</ele><time>2026-05-03T07:04:34Z</time></trkpt><trkpt lat="49.09448519467498" lon="6.788429687632763"><ele>280.0</ele><time>2026-05-03T07:04:35Z</time></trkpt><trkpt lat="49.09454426145989" lon="6.788110736535825"><ele>280.0</ele><time>2026-05-03T07:04:36Z</time></trkpt><trkpt lat="49.09460497884392" lon="6.787813515151462"><ele>280.0</ele><time>2026-05-03T07:04:37Z</time></trkpt><trkpt lat="49.09466205645899" lon="6.787537764078058"><ele>280.0</ele><time>2026-05-03T07:04:38Z</time></trkpt><trkpt lat="49.09471074798809" lon="6.787273598641416"><ele>280.0</ele><time>2026-05-03T07:04:39Z</time></trkpt><trkpt lat="49.094753926521626" lon="6.787022337378104"><ele>280.0</ele><time>2026-05-03T07:04:40Z</time></trkpt><trkpt lat="49.094795822681625" lon="6.786785414465752"><ele>280.0</ele><time>2026-05-03T07:04:41Z</time></trkpt><trkpt lat="49.0948395340505" lon="6.786568731024783"><ele>279.5</ele><time>2026-05-03T07:04:42Z</time></trkpt><trkpt lat="49.094884514342134" lon="6.786360837327017"><ele>279.0</ele><time>2026-05-03T07:04:43Z</time></trkpt><trkpt lat="49.09493153180353" lon="6.786174323147247"><ele>278.5</ele><time>2026-05-03T07:04:44Z</time></trkpt><trkpt lat="49.09498891861565" lon="6.786017037503746"><ele>278.0</ele><time>2026-05-03T07:04:45Z</time></trkpt><trkpt lat="49.09506029285089" lon="6.785896649838276"><ele>279.2</ele><time>2026-05-03T07:04:46Z</time></trkpt><trkpt lat="49.095143152348264" lon="6.785782179710308"><ele>280.4</ele><time>2026-05-03T07:04:47Z</time></trkpt><trkpt lat="49.095236692968314" lon="6.785687990965051"><ele>281.59999999999997</ele><time>2026-05-03T07:04:48Z</time></trkpt><trkpt lat="49.095332915005365" lon="6.785642797077683"><ele>282.8</ele><time>2026-05-03T07:04:49Z</time></trkpt><trkpt lat="49.09540457422659" lon="6.7855840338943265"><ele>284.0</ele><time>2026-05-03T07:04:50Z</time></trkpt><trkpt lat="49.095438589122566" lon="6.785466385759274"><ele>284.0</ele><time>2026-05-03T07:04:51Z</time></trkpt><trkpt lat="49.09543130741732" lon="6.785310310224131"><ele>284.0</ele><time>2026-05-03T07:04:52Z</time></trkpt><trkpt lat="49.095374853097894" lon="6.785157270786476"><ele>284.0</ele><time>2026-05-03T07:04:53Z</time></trkpt><trkpt lat="49.09531250540953" lon="6.785011728237823"><ele>284.0</ele><time>2026-05-03T07:04:54Z</time></trkpt><trkpt lat="49.09529533822079" lon="6.784812117337919"><ele>284.6666666666667</ele><time>2026-05-03T07:04:55Z</time></trkpt><trkpt lat="49.09530473216613" lon="6.784559161704707"><ele>285.3333333333333</ele><time>2026-05-03T07:04:56Z</time></trkpt><trkpt lat="49.09532436425343" lon="6.784289002367036"><ele>286.0</ele><time>2026-05-03T07:04:57Z</time></trkpt><trkpt lat="49.09534933990482" lon="6.784022516395767"><ele>286.3333333333333</ele><time>2026-05-03T07:04:58Z</time></trkpt><trkpt lat="49.09539605838459" lon="6.783738466233698"><ele>286.6666666666667</ele><time>2026-05-03T07:04:59Z</time></trkpt><trkpt lat="49.095451703783866" lon="6.783466689361609"><ele>287.0</ele><time>2026-05-03T07:05:00Z</time></trkpt><trkpt lat="49.09550565903418" lon="6.783182881369855"><ele>286.33333333333337</ele><time>2026-05-03T07:05:01Z</time></trkpt><trkpt lat="49.095562860877976" lon="6.782881281617725"><ele>285.6666666666667</ele><time>2026-05-03T07:05:02Z</time></trkpt><trkpt lat="49.09562023595306" lon="6.782585358169516"><ele>285.0</ele><time>2026-05-03T07:05:03Z</time></trkpt><trkpt lat="49.09568197115593" lon="6.782281393533057"><ele>283.6666666666667</ele><time>2026-05-03T07:05:04Z</time></trkpt><trkpt lat="49.09574621092026" lon="6.7819666871761815"><ele>282.33333333333337</ele><time>2026-05-03T07:05:05Z</time></trkpt><trkpt lat="49.09581029940952" lon="6.781639393439663"><ele>281.0</ele><time>2026-05-03T07:05:06Z</time></trkpt><trkpt lat="49.09587281511334" lon="6.781314846906042"><ele>279.33333333333337</ele><time>2026-05-03T07:05:07Z</time></trkpt><trkpt lat="49.09593388284466" lon="6.7809931510195645"><ele>277.6666666666667</ele><time>2026-05-03T07:05:08Z</time></trkpt><trkpt lat="49.09599583891665" lon="6.780676323486579"><ele>276.0</ele><time>2026-05-03T07:05:09Z</time></trkpt><trkpt lat="49.096060042554704" lon="6.7803572745266"><ele>276.3333333333333</ele><time>2026-05-03T07:05:10Z</time></trkpt><trkpt lat="49.09611817303434" lon="6.780056278738801"><ele>276.66666666666663</ele><time>2026-05-03T07:05:11Z</time></trkpt><trkpt lat="49.09617677766288" lon="6.779753725850522"><ele>277.0</ele><time>2026-05-03T07:05:12Z</time></trkpt><trkpt lat="49.09623323393004" lon="6.779466266242404"><ele>277.66666666666663</ele><time>2026-05-03T07:05:13Z</time></trkpt><trkpt lat="49.09628762920536" lon="6.7791990163935685"><ele>278.3333333333333</ele><time>2026-05-03T07:05:14Z</time></trkpt><trkpt lat="49.09633784127625" lon="6.778949729570818"><ele>279.0</ele><time>2026-05-03T07:05:15Z</time></trkpt><trkpt lat="49.09638159213946" lon="6.778719358652274"><ele>279.0</ele><time>2026-05-03T07:05:16Z</time></trkpt><trkpt lat="49.09642047008604" lon="6.778507016889774"><ele>279.0</ele><time>2026-05-03T07:05:17Z</time></trkpt><trkpt lat="49.09646136049484" lon="6.778302041560781"><ele>279.0</ele><time>2026-05-03T07:05:18Z</time></trkpt><trkpt lat="49.09649988086533" lon="6.778125995674071"><ele>279.0</ele><time>2026-05-03T07:05:19Z</time></trkpt><trkpt lat="49.09653162699007" lon="6.777969049757529"><ele>279.0</ele><time>2026-05-03T07:05:20Z</time></trkpt><trkpt lat="49.096553571512544" lon="6.7778560030926975"><ele>279.0</ele><time>2026-05-03T07:05:21Z</time></trkpt><trkpt lat="49.09658230394888" lon="6.77769831097513"><ele>279.0</ele><time>2026-05-03T07:05:23Z</time></trkpt><trkpt lat="49.09660206749601" lon="6.77759295955409"><ele>279.0</ele><time>2026-05-03T07:05:27Z</time></trkpt><trkpt lat="49.0966291303687" lon="6.777470090483075"><ele>279.0</ele><time>2026-05-03T07:05:30Z</time></trkpt><trkpt lat="49.09666419185235" lon="6.777289954551823"><ele>279.1666666666667</ele><time>2026-05-03T07:05:32Z</time></trkpt><trkpt lat="49.09668691763549" lon="6.777188051184221"><ele>279.3333333333333</ele><time>2026-05-03T07:05:33Z</time></trkpt><trkpt lat="49.096713615547586" lon="6.777062916497444"><ele>279.5</ele><time>2026-05-03T07:05:34Z</time></trkpt><trkpt lat="49.09673811323007" lon="6.7769448679280435"><ele>279.66666666666663</ele><time>2026-05-03T07:05:35Z</time></trkpt><trkpt lat="49.09676466819455" lon="6.776810031990287"><ele>279.8333333333333</ele><time>2026-05-03T07:05:36Z</time></trkpt><trkpt lat="49.09679401658859" lon="6.776665101936311"><ele>280.0</ele><time>2026-05-03T07:05:37Z</time></trkpt><trkpt lat="49.09682499531251" lon="6.776510935474438"><ele>280.0</ele><time>2026-05-03T07:05:38Z</time></trkpt><trkpt lat="49.09685533602462" lon="6.776356896395903"><ele>280.0</ele><time>2026-05-03T07:05:39Z</time></trkpt><trkpt lat="49.096887022683916" lon="6.776204355974022"><ele>280.0</ele><time>2026-05-03T07:05:40Z</time></trkpt><trkpt lat="49.09691881242068" lon="6.77604446585488"><ele>280.0</ele><time>2026-05-03T07:05:41Z</time></trkpt><trkpt lat="49.09694976491935" lon="6.775879065145293"><ele>280.0</ele><time>2026-05-03T07:05:42Z</time></trkpt><trkpt lat="49.096980853738685" lon="6.775720180271307"><ele>278.8</ele><time>2026-05-03T07:05:43Z</time></trkpt><trkpt lat="49.09700942157266" lon="6.7755614023137785"><ele>277.6</ele><time>2026-05-03T07:05:44Z</time></trkpt><trkpt lat="49.09704196618439" lon="6.775402732934152"><ele>276.4</ele><time>2026-05-03T07:05:45Z</time></trkpt><trkpt lat="49.097074965443994" lon="6.775252825500329"><ele>275.2</ele><time>2026-05-03T07:05:46Z</time></trkpt><trkpt lat="49.09710543292894" lon="6.7751081670471685"><ele>274.0</ele><time>2026-05-03T07:05:47Z</time></trkpt><trkpt lat="49.09713505233508" lon="6.774962983531703"><ele>273.4</ele><time>2026-05-03T07:05:48Z</time></trkpt><trkpt lat="49.097164335251115" lon="6.774812334355714"><ele>272.79999999999995</ele><time>2026-05-03T07:05:49Z</time></trkpt><trkpt lat="49.09719190313848" lon="6.774658651651224"><ele>272.20000000000005</ele><time>2026-05-03T07:05:50Z</time></trkpt><trkpt lat="49.09723736788234" lon="6.77450606591098"><ele>271.6</ele><time>2026-05-03T07:05:51Z</time></trkpt><trkpt lat="49.09726947142607" lon="6.774346309832571"><ele>271.0</ele><time>2026-05-03T07:05:52Z</time></trkpt><trkpt lat="49.09730200012288" lon="6.774184438213044"><ele>271.0</ele><time>2026-05-03T07:05:53Z</time></trkpt><trkpt lat="49.097334894088796" lon="6.7740195673896135"><ele>271.0</ele><time>2026-05-03T07:05:54Z</time></trkpt><trkpt lat="49.09735179976903" lon="6.773850234648869"><ele>271.0</ele><time>2026-05-03T07:05:55Z</time></trkpt><trkpt lat="49.09738373184993" lon="6.773691411221856"><ele>271.0</ele><time>2026-05-03T07:05:56Z</time></trkpt><trkpt lat="49.097430419085896" lon="6.773539560792276"><ele>271.0</ele><time>2026-05-03T07:05:57Z</time></trkpt><trkpt lat="49.09746079756638" lon="6.773387059039468"><ele>270.75</ele><time>2026-05-03T07:05:58Z</time></trkpt><trkpt lat="49.09749216240351" lon="6.773232050159989"><ele>270.5</ele><time>2026-05-03T07:05:59Z</time></trkpt><trkpt lat="49.09752498825199" lon="6.773069820849421"><ele>270.25</ele><time>2026-05-03T07:06:00Z</time></trkpt><trkpt lat="49.09755980957831" lon="6.772897729644561"><ele>270.0</ele><time>2026-05-03T07:06:01Z</time></trkpt><trkpt lat="49.09759676301979" lon="6.77271510115909"><ele>270.0</ele><time>2026-05-03T07:06:02Z</time></trkpt><trkpt lat="49.09763425154588" lon="6.772528806886274"><ele>270.0</ele><time>2026-05-03T07:06:03Z</time></trkpt><trkpt lat="49.09766910848786" lon="6.772354736688279"><ele>270.0</ele><time>2026-05-03T07:06:04Z</time></trkpt><trkpt lat="49.097703925939115" lon="6.772180863671452"><ele>270.0</ele><time>2026-05-03T07:06:05Z</time></trkpt><trkpt lat="49.097740002185716" lon="6.772000704501915"><ele>270.25</ele><time>2026-05-03T07:06:06Z</time></trkpt><trkpt lat="49.097776963068355" lon="6.77181612748478"><ele>270.5</ele><time>2026-05-03T07:06:07Z</time></trkpt><trkpt lat="49.09781543512714" lon="6.771624003390926"><ele>270.75</ele><time>2026-05-03T07:06:08Z</time></trkpt><trkpt lat="49.09785450787815" lon="6.771430595458083"><ele>271.0</ele><time>2026-05-03T07:06:09Z</time></trkpt><trkpt lat="49.097893934135534" lon="6.771235208950564"><ele>271.0</ele><time>2026-05-03T07:06:10Z</time></trkpt><trkpt lat="49.0979339933133" lon="6.771036685949683"><ele>271.0</ele><time>2026-05-03T07:06:11Z</time></trkpt><trkpt lat="49.097959651737185" lon="6.770830296475741"><ele>271.0</ele><time>2026-05-03T07:06:12Z</time></trkpt><trkpt lat="49.09800052636512" lon="6.770638879054162"><ele>271.0</ele><time>2026-05-03T07:06:13Z</time></trkpt><trkpt lat="49.09804300959686" lon="6.77045623960337"><ele>270.75</ele><time>2026-05-03T07:06:14Z</time></trkpt><trkpt lat="49.098079237887625" lon="6.770269174570132"><ele>270.5</ele><time>2026-05-03T07:06:15Z</time></trkpt><trkpt lat="49.098116686566385" lon="6.770078505940183"><ele>270.25</ele><time>2026-05-03T07:06:16Z</time></trkpt><trkpt lat="49.09815636384069" lon="6.769886182870869"><ele>270.0</ele><time>2026-05-03T07:06:17Z</time></trkpt><trkpt lat="49.09819487577106" lon="6.769690538235049"><ele>269.25</ele><time>2026-05-03T07:06:18Z</time></trkpt><trkpt lat="49.09823889603331" lon="6.7694948107048845"><ele>268.5</ele><time>2026-05-03T07:06:19Z</time></trkpt><trkpt lat="49.09828054175625" lon="6.7692951349853105"><ele>267.75</ele><time>2026-05-03T07:06:20Z</time></trkpt><trkpt lat="49.098320045581076" lon="6.769093948274106"><ele>267.0</ele><time>2026-05-03T07:06:21Z</time></trkpt><trkpt lat="49.098359753698695" lon="6.768890948819407"><ele>266.5</ele><time>2026-05-03T07:06:22Z</time></trkpt><trkpt lat="49.09840431016764" lon="6.7686871518747935"><ele>266.0</ele><time>2026-05-03T07:06:23Z</time></trkpt><trkpt lat="49.098443573223804" lon="6.768481868959055"><ele>265.5</ele><time>2026-05-03T07:06:24Z</time></trkpt><trkpt lat="49.098487285783484" lon="6.7682756328661124"><ele>265.0</ele><time>2026-05-03T07:06:25Z</time></trkpt><trkpt lat="49.09852604380483" lon="6.768067732302823"><ele>265.0</ele><time>2026-05-03T07:06:26Z</time></trkpt><trkpt lat="49.09856718933406" lon="6.767859578570243"><ele>265.0</ele><time>2026-05-03T07:06:27Z</time></trkpt><trkpt lat="49.09860863310551" lon="6.767648989410506"><ele>265.0</ele><time>2026-05-03T07:06:28Z</time></trkpt><trkpt lat="49.09864973333758" lon="6.767436615616522"><ele>265.0</ele><time>2026-05-03T07:06:29Z</time></trkpt><trkpt lat="49.09869112899259" lon="6.767223250987405"><ele>265.0</ele><time>2026-05-03T07:06:30Z</time></trkpt><trkpt lat="49.09873734499961" lon="6.76701124663303"><ele>265.0</ele><time>2026-05-03T07:06:31Z</time></trkpt><trkpt lat="49.09878079735523" lon="6.7667969710617095"><ele>265.0</ele><time>2026-05-03T07:06:32Z</time></trkpt><trkpt lat="49.09882191435818" lon="6.766579593096738"><ele>265.0</ele><time>2026-05-03T07:06:33Z</time></trkpt><trkpt lat="49.09886701244558" lon="6.766356570739149"><ele>264.66666666666663</ele><time>2026-05-03T07:06:34Z</time></trkpt><trkpt lat="49.09891363697661" lon="6.766130057833816"><ele>264.3333333333333</ele><time>2026-05-03T07:06:35Z</time></trkpt><trkpt lat="49.098959340937625" lon="6.765903424863411"><ele>264.0</ele><time>2026-05-03T07:06:36Z</time></trkpt><trkpt lat="49.09902198752206" lon="6.765679302551026"><ele>263.0</ele><time>2026-05-03T07:06:37Z</time></trkpt><trkpt lat="49.09906989964786" lon="6.76544678085807"><ele>262.0</ele><time>2026-05-03T07:06:38Z</time></trkpt><trkpt lat="49.09910437707326" lon="6.765206122296282"><ele>261.0</ele><time>2026-05-03T07:06:39Z</time></trkpt><trkpt lat="49.099154290032914" lon="6.764968743292319"><ele>263.3333333333333</ele><time>2026-05-03T07:06:40Z</time></trkpt><trkpt lat="49.099205213587794" lon="6.7647243910663155"><ele>265.66666666666663</ele><time>2026-05-03T07:06:41Z</time></trkpt><trkpt lat="49.09925536799195" lon="6.764472523000055"><ele>268.0</ele><time>2026-05-03T07:06:42Z</time></trkpt><trkpt lat="49.099306381798414" lon="6.764220312896204"><ele>268.3333333333333</ele><time>2026-05-03T07:06:43Z</time></trkpt><trkpt lat="49.0993585942486" lon="6.763966645425438"><ele>268.6666666666667</ele><time>2026-05-03T07:06:44Z</time></trkpt><trkpt lat="49.09940943723707" lon="6.76370594653926"><ele>269.0</ele><time>2026-05-03T07:06:45Z</time></trkpt><trkpt lat="49.09946184105088" lon="6.763442557280139"><ele>269.0</ele><time>2026-05-03T07:06:46Z</time></trkpt><trkpt lat="49.099514387151494" lon="6.763177954774811"><ele>269.0</ele><time>2026-05-03T07:06:47Z</time></trkpt><trkpt lat="49.09956875768945" lon="6.76291344485135"><ele>269.0</ele><time>2026-05-03T07:06:48Z</time></trkpt><trkpt lat="49.09962335227023" lon="6.762645101048899"><ele>268.6666666666667</ele><time>2026-05-03T07:06:49Z</time></trkpt><trkpt lat="49.09967786307394" lon="6.762373841016424"><ele>268.3333333333333</ele><time>2026-05-03T07:06:50Z</time></trkpt><trkpt lat="49.099735201563576" lon="6.762093835106798"><ele>268.0</ele><time>2026-05-03T07:06:51Z</time></trkpt><trkpt lat="49.09980938685537" lon="6.761815830719253"><ele>268.0</ele><time>2026-05-03T07:06:52Z</time></trkpt><trkpt lat="49.09987099729281" lon="6.761515585875321"><ele>268.0</ele><time>2026-05-03T07:06:53Z</time></trkpt><trkpt lat="49.09993007609543" lon="6.7612276785472885"><ele>268.0</ele><time>2026-05-03T07:06:54Z</time></trkpt><trkpt lat="49.09998636586279" lon="6.760953362827914"><ele>267.0</ele><time>2026-05-03T07:06:55Z</time></trkpt><trkpt lat="49.100025427493215" lon="6.760681839781026"><ele>266.0</ele><time>2026-05-03T07:06:56Z</time></trkpt><trkpt lat="49.10007777638475" lon="6.760424848006501"><ele>265.0</ele><time>2026-05-03T07:06:57Z</time></trkpt><trkpt lat="49.10013030244465" lon="6.760168127368949"><ele>264.0</ele><time>2026-05-03T07:06:58Z</time></trkpt><trkpt lat="49.100183107550684" lon="6.759909760087509"><ele>263.0</ele><time>2026-05-03T07:06:59Z</time></trkpt><trkpt lat="49.1002496973636" lon="6.7596653307460315"><ele>262.0</ele><time>2026-05-03T07:07:00Z</time></trkpt><trkpt lat="49.10030090886974" lon="6.759414627719545"><ele>262.0</ele><time>2026-05-03T07:07:01Z</time></trkpt><trkpt lat="49.10035214391973" lon="6.759162914300956"><ele>262.0</ele><time>2026-05-03T07:07:02Z</time></trkpt><trkpt lat="49.10038947546858" lon="6.758905876070709"><ele>262.0</ele><time>2026-05-03T07:07:03Z</time></trkpt><trkpt lat="49.10044185459089" lon="6.758654820165416"><ele>262.0</ele><time>2026-05-03T07:07:04Z</time></trkpt><trkpt lat="49.10049365620338" lon="6.758398942428888"><ele>262.0</ele><time>2026-05-03T07:07:05Z</time></trkpt><trkpt lat="49.10054742343313" lon="6.758143907279"><ele>262.0</ele><time>2026-05-03T07:07:06Z</time></trkpt><trkpt lat="49.10060366042346" lon="6.757886497135651"><ele>261.66666666666663</ele><time>2026-05-03T07:07:07Z</time></trkpt><trkpt lat="49.10065945475153" lon="6.757624311135123"><ele>261.3333333333333</ele><time>2026-05-03T07:07:08Z</time></trkpt><trkpt lat="49.10071333019015" lon="6.757354308065796"><ele>261.0</ele><time>2026-05-03T07:07:09Z</time></trkpt><trkpt lat="49.100766588196215" lon="6.757078258125026"><ele>261.3333333333333</ele><time>2026-05-03T07:07:10Z</time></trkpt><trkpt lat="49.100818182349066" lon="6.7567936880908395"><ele>261.66666666666663</ele><time>2026-05-03T07:07:11Z</time></trkpt><trkpt lat="49.10087385107281" lon="6.75650591227709"><ele>262.0</ele><time>2026-05-03T07:07:12Z</time></trkpt><trkpt lat="49.10093310370514" lon="6.756215296329327"><ele>260.66666666666663</ele><time>2026-05-03T07:07:13Z</time></trkpt><trkpt lat="49.100993983984225" lon="6.755919261133185"><ele>259.3333333333333</ele><time>2026-05-03T07:07:14Z</time></trkpt><trkpt lat="49.101053312762694" lon="6.755629071995427"><ele>258.0</ele><time>2026-05-03T07:07:15Z</time></trkpt><trkpt lat="49.10110978409068" lon="6.755344961634226"><ele>257.0</ele><time>2026-05-03T07:07:16Z</time></trkpt><trkpt lat="49.10116623651777" lon="6.755061176031098"><ele>256.0</ele><time>2026-05-03T07:07:17Z</time></trkpt><trkpt lat="49.10122160085641" lon="6.754782144590794"><ele>255.0</ele><time>2026-05-03T07:07:18Z</time></trkpt><trkpt lat="49.10127474369269" lon="6.754504152170294"><ele>254.33333333333331</ele><time>2026-05-03T07:07:19Z</time></trkpt><trkpt lat="49.10132711715432" lon="6.754227748228838"><ele>253.66666666666666</ele><time>2026-05-03T07:07:20Z</time></trkpt><trkpt lat="49.101377781808424" lon="6.753950811855019"><ele>253.0</ele><time>2026-05-03T07:07:21Z</time></trkpt><trkpt lat="49.101434742296654" lon="6.753675793980241"><ele>253.33333333333331</ele><time>2026-05-03T07:07:22Z</time></trkpt><trkpt lat="49.101492082214484" lon="6.753401056159195"><ele>253.66666666666669</ele><time>2026-05-03T07:07:23Z</time></trkpt><trkpt lat="49.10154756957888" lon="6.753122661207141"><ele>254.0</ele><time>2026-05-03T07:07:24Z</time></trkpt><trkpt lat="49.10160092193705" lon="6.7528481533665135"><ele>253.66666666666669</ele><time>2026-05-03T07:07:25Z</time></trkpt><trkpt lat="49.10167036308866" lon="6.752581688016709"><ele>253.33333333333331</ele><time>2026-05-03T07:07:26Z</time></trkpt><trkpt lat="49.10171082447577" lon="6.752301223682071"><ele>253.0</ele><time>2026-05-03T07:07:27Z</time></trkpt><trkpt lat="49.101767906146236" lon="6.752028931682583"><ele>253.33333333333331</ele><time>2026-05-03T07:07:28Z</time></trkpt><trkpt lat="49.10182492693127" lon="6.7517600520512255"><ele>253.66666666666669</ele><time>2026-05-03T07:07:29Z</time></trkpt><trkpt lat="49.10188045716756" lon="6.751494096986417"><ele>254.0</ele><time>2026-05-03T07:07:30Z</time></trkpt><trkpt lat="49.101933248450194" lon="6.751247886388003"><ele>253.33333333333334</ele><time>2026-05-03T07:07:31Z</time></trkpt><trkpt lat="49.101982839775594" lon="6.751008978847374"><ele>252.66666666666669</ele><time>2026-05-03T07:07:32Z</time></trkpt><trkpt lat="49.10202427926817" lon="6.750763075527988"><ele>252.0</ele><time>2026-05-03T07:07:33Z</time></trkpt><trkpt lat="49.10208993720329" lon="6.750521175032204"><ele>252.0</ele><time>2026-05-03T07:07:34Z</time></trkpt><trkpt lat="49.102127802003224" lon="6.750265171431024"><ele>252.0</ele><time>2026-05-03T07:07:35Z</time></trkpt><trkpt lat="49.1021825476889" lon="6.750015462053167"><ele>252.0</ele><time>2026-05-03T07:07:36Z</time></trkpt><trkpt lat="49.10223595252513" lon="6.749766047124023"><ele>252.0</ele><time>2026-05-03T07:07:37Z</time></trkpt><trkpt lat="49.10228602065026" lon="6.749514295744196"><ele>252.0</ele><time>2026-05-03T07:07:38Z</time></trkpt><trkpt lat="49.10233418983794" lon="6.749267649637297"><ele>252.0</ele><time>2026-05-03T07:07:39Z</time></trkpt><trkpt lat="49.102379737601375" lon="6.749030111758433"><ele>252.33333333333331</ele><time>2026-05-03T07:07:40Z</time></trkpt><trkpt lat="49.10242391639838" lon="6.748802637105054"><ele>252.66666666666666</ele><time>2026-05-03T07:07:41Z</time></trkpt><trkpt lat="49.10246962234338" lon="6.748580022690053"><ele>253.0</ele><time>2026-05-03T07:07:42Z</time></trkpt><trkpt lat="49.10251132156259" lon="6.748364535074797"><ele>252.0</ele><time>2026-05-03T07:07:43Z</time></trkpt><trkpt lat="49.10255164623563" lon="6.748152383667343"><ele>251.0</ele><time>2026-05-03T07:07:44Z</time></trkpt><trkpt lat="49.10259058358519" lon="6.747945391760893"><ele>250.0</ele><time>2026-05-03T07:07:45Z</time></trkpt><trkpt lat="49.10263296285312" lon="6.747743004620253"><ele>249.0</ele><time>2026-05-03T07:07:46Z</time></trkpt><trkpt lat="49.10266757273041" lon="6.747546047303446"><ele>248.2</ele><time>2026-05-03T07:07:47Z</time></trkpt><trkpt lat="49.10268943642553" lon="6.747365895235701"><ele>247.39999999999998</ele><time>2026-05-03T07:07:48Z</time></trkpt><trkpt lat="49.10270752561829" lon="6.74720193696619"><ele>246.6</ele><time>2026-05-03T07:07:49Z</time></trkpt><trkpt lat="49.10272222335779" lon="6.74706878212542"><ele>245.8</ele><time>2026-05-03T07:07:50Z</time></trkpt><trkpt lat="49.10275822002449" lon="6.746950689251134"><ele>245.0</ele><time>2026-05-03T07:07:52Z</time></trkpt><trkpt lat="49.10280121113449" lon="6.746832571364157"><ele>244.2</ele><time>2026-05-03T07:08:22Z</time></trkpt><trkpt lat="49.10287483001147" lon="6.746665216206546"><ele>243.4</ele><time>2026-05-03T07:08:24Z</time></trkpt><trkpt lat="49.10289051061728" lon="6.746538154713939"><ele>242.60000000000002</ele><time>2026-05-03T07:08:25Z</time></trkpt><trkpt lat="49.10290799863006" lon="6.746412375287298"><ele>241.8</ele><time>2026-05-03T07:08:26Z</time></trkpt><trkpt lat="49.10295672378198" lon="6.74625365550095"><ele>241.0</ele><time>2026-05-03T07:08:27Z</time></trkpt><trkpt lat="49.102996343173416" lon="6.746073667041519"><ele>241.33333333333331</ele><time>2026-05-03T07:08:28Z</time></trkpt><trkpt lat="49.103123047252595" lon="6.745964390543646"><ele>241.66666666666669</ele><time>2026-05-03T07:08:29Z</time></trkpt><trkpt lat="49.1032523088263" lon="6.7458472832208605"><ele>242.0</ele><time>2026-05-03T07:08:30Z</time></trkpt><trkpt lat="49.10340243910906" lon="6.745745784097126"><ele>242.0</ele><time>2026-05-03T07:08:31Z</time></trkpt><trkpt lat="49.103549967626" lon="6.74565967443676"><ele>242.0</ele><time>2026-05-03T07:08:32Z</time></trkpt><trkpt lat="49.103703406414944" lon="6.745559022125267"><ele>242.0</ele><time>2026-05-03T07:08:33Z</time></trkpt><trkpt lat="49.10385478038414" lon="6.7454590505565255"><ele>242.0</ele><time>2026-05-03T07:08:34Z</time></trkpt><trkpt lat="49.103993855020946" lon="6.7453702083277225"><ele>242.0</ele><time>2026-05-03T07:08:35Z</time></trkpt><trkpt lat="49.10412174182687" lon="6.745262579266287"><ele>242.0</ele><time>2026-05-03T07:08:36Z</time></trkpt><trkpt lat="49.10422319100378" lon="6.7451147499238715"><ele>242.0</ele><time>2026-05-03T07:08:37Z</time></trkpt><trkpt lat="49.10430731926309" lon="6.744920057813261"><ele>243.0</ele><time>2026-05-03T07:08:38Z</time></trkpt><trkpt lat="49.104390646138775" lon="6.7447154413102774"><ele>244.0</ele><time>2026-05-03T07:08:39Z</time></trkpt><trkpt lat="49.10450139926353" lon="6.744529353235151"><ele>245.0</ele><time>2026-05-03T07:08:40Z</time></trkpt><trkpt lat="49.10464001155778" lon="6.74438779342839"><ele>242.66666666666669</ele><time>2026-05-03T07:08:41Z</time></trkpt><trkpt lat="49.10480910377224" lon="6.744296453789378"><ele>240.33333333333331</ele><time>2026-05-03T07:08:42Z</time></trkpt><trkpt lat="49.104993168637364" lon="6.744236931801534"><ele>238.0</ele><time>2026-05-03T07:08:43Z</time></trkpt><trkpt lat="49.10515932642952" lon="6.744172248503333"><ele>237.33333333333331</ele><time>2026-05-03T07:08:44Z</time></trkpt><trkpt lat="49.10532770140543" lon="6.744111937280216"><ele>236.66666666666669</ele><time>2026-05-03T07:08:45Z</time></trkpt><trkpt lat="49.10549806996022" lon="6.744058223083869"><ele>236.0</ele><time>2026-05-03T07:08:46Z</time></trkpt><trkpt lat="49.10566992448882" lon="6.744014649123967"><ele>235.33333333333334</ele><time>2026-05-03T07:08:47Z</time></trkpt><trkpt lat="49.1058424734876" lon="6.743976494381535"><ele>234.66666666666669</ele><time>2026-05-03T07:08:48Z</time></trkpt><trkpt lat="49.10601498152246" lon="6.743939636728412"><ele>234.0</ele><time>2026-05-03T07:08:49Z</time></trkpt><trkpt lat="49.10618376463066" lon="6.743905637825268"><ele>234.0</ele><time>2026-05-03T07:08:50Z</time></trkpt><trkpt lat="49.106343213938096" lon="6.7438779575849574"><ele>234.0</ele><time>2026-05-03T07:08:51Z</time></trkpt><trkpt lat="49.10649901799517" lon="6.743855109003452"><ele>234.0</ele><time>2026-05-03T07:08:52Z</time></trkpt><trkpt lat="49.10665121807714" lon="6.743833098331681"><ele>234.0</ele><time>2026-05-03T07:08:53Z</time></trkpt><trkpt lat="49.10680374254866" lon="6.7438113120178835"><ele>234.0</ele><time>2026-05-03T07:08:54Z</time></trkpt><trkpt lat="49.10695132143177" lon="6.7437881680678595"><ele>234.0</ele><time>2026-05-03T07:08:55Z</time></trkpt><trkpt lat="49.107091944785545" lon="6.7437644779779555"><ele>234.0</ele><time>2026-05-03T07:08:56Z</time></trkpt><trkpt lat="49.10722781236706" lon="6.743738109293826"><ele>234.0</ele><time>2026-05-03T07:08:57Z</time></trkpt><trkpt lat="49.10735724803182" lon="6.743699901198477"><ele>234.0</ele><time>2026-05-03T07:08:58Z</time></trkpt><trkpt lat="49.10747694541131" lon="6.743639664382483"><ele>234.0</ele><time>2026-05-03T07:08:59Z</time></trkpt><trkpt lat="49.10757726134598" lon="6.743575907682086"><ele>234.0</ele><time>2026-05-03T07:09:00Z</time></trkpt><trkpt lat="49.10767674850482" lon="6.743524301560123"><ele>234.5</ele><time>2026-05-03T07:09:01Z</time></trkpt><trkpt lat="49.10776817122965" lon="6.743517580056117"><ele>235.0</ele><time>2026-05-03T07:09:02Z</time></trkpt><trkpt lat="49.10784479580208" lon="6.743572695516102"><ele>235.5</ele><time>2026-05-03T07:09:03Z</time></trkpt><trkpt lat="49.10790875591794" lon="6.743646215508121"><ele>236.0</ele><time>2026-05-03T07:09:04Z</time></trkpt><trkpt lat="49.10798505050378" lon="6.743667116402203"><ele>236.5</ele><time>2026-05-03T07:09:05Z</time></trkpt><trkpt lat="49.10806557753804" lon="6.743642355760582"><ele>237.0</ele><time>2026-05-03T07:09:06Z</time></trkpt><trkpt lat="49.10813608715468" lon="6.7435705496984655"><ele>235.16666666666666</ele><time>2026-05-03T07:09:07Z</time></trkpt><trkpt lat="49.10817656424152" lon="6.743466447939069"><ele>233.33333333333331</ele><time>2026-05-03T07:09:08Z</time></trkpt><trkpt lat="49.108180385683696" lon="6.743346873545657"><ele>231.5</ele><time>2026-05-03T07:09:09Z</time></trkpt><trkpt lat="49.1081558632618" lon="6.743228767265373"><ele>229.66666666666666</ele><time>2026-05-03T07:09:10Z</time></trkpt><trkpt lat="49.108130346543795" lon="6.7431019611017495"><ele>227.83333333333331</ele><time>2026-05-03T07:09:11Z</time></trkpt><trkpt lat="49.10814600590369" lon="6.742966667652957"><ele>226.0</ele><time>2026-05-03T07:09:12Z</time></trkpt><trkpt lat="49.10819798876737" lon="6.742839582896782"><ele>225.60000000000002</ele><time>2026-05-03T07:09:13Z</time></trkpt><trkpt lat="49.108269024762535" lon="6.742712566094829"><ele>225.20000000000002</ele><time>2026-05-03T07:09:14Z</time></trkpt><trkpt lat="49.108346585780765" lon="6.742589305969151"><ele>224.79999999999998</ele><time>2026-05-03T07:09:15Z</time></trkpt><trkpt lat="49.10841367369007" lon="6.742481504326253"><ele>224.39999999999998</ele><time>2026-05-03T07:09:16Z</time></trkpt><trkpt lat="49.108485816280584" lon="6.74237062080166"><ele>224.0</ele><time>2026-05-03T07:09:17Z</time></trkpt><trkpt lat="49.108565620230436" lon="6.7422547851290675"><ele>224.0</ele><time>2026-05-03T07:09:18Z</time></trkpt><trkpt lat="49.10864717207192" lon="6.742129552114314"><ele>224.0</ele><time>2026-05-03T07:09:19Z</time></trkpt><trkpt lat="49.10872527128974" lon="6.741995690291973"><ele>224.0</ele><time>2026-05-03T07:09:20Z</time></trkpt><trkpt lat="49.10879869321218" lon="6.741848606163315"><ele>224.0</ele><time>2026-05-03T07:09:21Z</time></trkpt><trkpt lat="49.10885902598522" lon="6.741685579445842"><ele>226.75</ele><time>2026-05-03T07:09:22Z</time></trkpt><trkpt lat="49.108905706511706" lon="6.741501287008198"><ele>229.5</ele><time>2026-05-03T07:09:23Z</time></trkpt><trkpt lat="49.108940431671165" lon="6.7413035293062675"><ele>232.25</ele><time>2026-05-03T07:09:24Z</time></trkpt><trkpt lat="49.108966597544494" lon="6.74110252723089"><ele>235.0</ele><time>2026-05-03T07:09:25Z</time></trkpt><trkpt lat="49.10898654830486" lon="6.740904633414692"><ele>239.0</ele><time>2026-05-03T07:09:26Z</time></trkpt><trkpt lat="49.109006225461805" lon="6.740709264960181"><ele>243.0</ele><time>2026-05-03T07:09:27Z</time></trkpt><trkpt lat="49.109025820632475" lon="6.740515343471322"><ele>247.0</ele><time>2026-05-03T07:09:28Z</time></trkpt><trkpt lat="49.10904224698929" lon="6.740318669126226"><ele>251.0</ele><time>2026-05-03T07:09:29Z</time></trkpt><trkpt lat="49.10905254187077" lon="6.7401229813481045"><ele>251.25</ele><time>2026-05-03T07:09:30Z</time></trkpt><trkpt lat="49.10905788866448" lon="6.739926829414171"><ele>251.5</ele><time>2026-05-03T07:09:31Z</time></trkpt><trkpt lat="49.109058160480444" lon="6.739732876222252"><ele>251.75</ele><time>2026-05-03T07:09:32Z</time></trkpt><trkpt lat="49.10905148586914" lon="6.739542818081352"><ele>252.0</ele><time>2026-05-03T07:09:33Z</time></trkpt><trkpt lat="49.109037155885154" lon="6.739353604150884"><ele>251.5</ele><time>2026-05-03T07:09:34Z</time></trkpt><trkpt lat="49.10901965604477" lon="6.739164388507791"><ele>251.0</ele><time>2026-05-03T07:09:35Z</time></trkpt><trkpt lat="49.10900534905337" lon="6.738972904505605"><ele>250.5</ele><time>2026-05-03T07:09:36Z</time></trkpt><trkpt lat="49.1089912541187" lon="6.738784092764897"><ele>250.0</ele><time>2026-05-03T07:09:37Z</time></trkpt><trkpt lat="49.10898009235801" lon="6.73858961442419"><ele>249.75</ele><time>2026-05-03T07:09:38Z</time></trkpt><trkpt lat="49.108963134320945" lon="6.738390430361852"><ele>249.5</ele><time>2026-05-03T07:09:39Z</time></trkpt><trkpt lat="49.10895013325832" lon="6.738187594672152"><ele>249.25</ele><time>2026-05-03T07:09:40Z</time></trkpt><trkpt lat="49.10893856035295" lon="6.737995435668512"><ele>249.0</ele><time>2026-05-03T07:09:41Z</time></trkpt><trkpt lat="49.108923856748994" lon="6.737806328917225"><ele>248.75</ele><time>2026-05-03T07:09:42Z</time></trkpt><trkpt lat="49.10891222055894" lon="6.737621607209007"><ele>248.5</ele><time>2026-05-03T07:09:43Z</time></trkpt><trkpt lat="49.10890253906274" lon="6.7374362366307805"><ele>248.25</ele><time>2026-05-03T07:09:44Z</time></trkpt><trkpt lat="49.108897018389605" lon="6.737249685049412"><ele>248.0</ele><time>2026-05-03T07:09:45Z</time></trkpt><trkpt lat="49.108891066633404" lon="6.7370639270322705"><ele>247.5</ele><time>2026-05-03T07:09:46Z</time></trkpt><trkpt lat="49.10888436318694" lon="6.7368715100623096"><ele>247.0</ele><time>2026-05-03T07:09:47Z</time></trkpt><trkpt lat="49.108879309932284" lon="6.736683062610746"><ele>246.5</ele><time>2026-05-03T07:09:48Z</time></trkpt><trkpt lat="49.108873716722144" lon="6.736499995480823"><ele>246.0</ele><time>2026-05-03T07:09:49Z</time></trkpt><trkpt lat="49.10886591523738" lon="6.73632465197719"><ele>246.0</ele><time>2026-05-03T07:09:50Z</time></trkpt><trkpt lat="49.10885997661908" lon="6.736158101737665"><ele>246.0</ele><time>2026-05-03T07:09:51Z</time></trkpt><trkpt lat="49.10885923174831" lon="6.7360171879480335"><ele>246.0</ele><time>2026-05-03T07:09:52Z</time></trkpt><trkpt lat="49.10886087596254" lon="6.735905044283607"><ele>246.0</ele><time>2026-05-03T07:09:53Z</time></trkpt><trkpt lat="49.10886668921525" lon="6.735801495994397"><ele>246.0</ele><time>2026-05-03T07:09:54Z</time></trkpt><trkpt lat="49.10888968109953" lon="6.735698897388163"><ele>246.0</ele><time>2026-05-03T07:09:55Z</time></trkpt><trkpt lat="49.10892553418252" lon="6.735588133136742"><ele>245.5</ele><time>2026-05-03T07:09:56Z</time></trkpt><trkpt lat="49.10894185746346" lon="6.735472359083301"><ele>245.0</ele><time>2026-05-03T07:09:57Z</time></trkpt><trkpt lat="49.10892513090695" lon="6.735358742424089"><ele>244.5</ele><time>2026-05-03T07:09:58Z</time></trkpt><trkpt lat="49.1088912780159" lon="6.735253016524701"><ele>244.0</ele><time>2026-05-03T07:09:59Z</time></trkpt><trkpt lat="49.10885867146783" lon="6.735137256431178"><ele>243.5</ele><time>2026-05-03T07:10:00Z</time></trkpt><trkpt lat="49.10884499900243" lon="6.734999358466493"><ele>243.0</ele><time>2026-05-03T07:10:01Z</time></trkpt><trkpt lat="49.108844738254334" lon="6.734842265922811"><ele>242.2</ele><time>2026-05-03T07:10:02Z</time></trkpt><trkpt lat="49.10884430881219" lon="6.734679572135745"><ele>241.4</ele><time>2026-05-03T07:10:03Z</time></trkpt><trkpt lat="49.10884260774939" lon="6.7345330641852605"><ele>240.59999999999997</ele><time>2026-05-03T07:10:04Z</time></trkpt><trkpt lat="49.10883935520126" lon="6.734378190538041"><ele>239.79999999999998</ele><time>2026-05-03T07:10:05Z</time></trkpt><trkpt lat="49.108838060372584" lon="6.734214041017015"><ele>239.0</ele><time>2026-05-03T07:10:06Z</time></trkpt><trkpt lat="49.108837434866714" lon="6.7340317417270965"><ele>237.75</ele><time>2026-05-03T07:10:07Z</time></trkpt><trkpt lat="49.10883705565258" lon="6.733841969580971"><ele>236.5</ele><time>2026-05-03T07:10:08Z</time></trkpt><trkpt lat="49.10884188775369" lon="6.733640042726596"><ele>235.25</ele><time>2026-05-03T07:10:09Z</time></trkpt><trkpt lat="49.10885542776953" lon="6.733422309211154"><ele>234.0</ele><time>2026-05-03T07:10:10Z</time></trkpt><trkpt lat="49.10887207511222" lon="6.732930495222219"><ele>236.0</ele><time>2026-05-03T07:10:12Z</time></trkpt><trkpt lat="49.10889163766637" lon="6.732694712454395"><ele>238.0</ele><time>2026-05-03T07:10:13Z</time></trkpt><trkpt lat="49.10892228985387" lon="6.732461618888972"><ele>240.0</ele><time>2026-05-03T07:10:14Z</time></trkpt><trkpt lat="49.108952168060014" lon="6.732225251431494"><ele>240.0</ele><time>2026-05-03T07:10:15Z</time></trkpt><trkpt lat="49.108979416712316" lon="6.73198328994546"><ele>240.0</ele><time>2026-05-03T07:10:16Z</time></trkpt><trkpt lat="49.10900797434137" lon="6.731732286534594"><ele>240.0</ele><time>2026-05-03T07:10:17Z</time></trkpt><trkpt lat="49.10903150803636" lon="6.731448951196739"><ele>241.33333333333331</ele><time>2026-05-03T07:10:18Z</time></trkpt><trkpt lat="49.10906130601072" lon="6.731124047175156"><ele>242.66666666666666</ele><time>2026-05-03T07:10:19Z</time></trkpt><trkpt lat="49.109089393653264" lon="6.730807989760583"><ele>244.0</ele><time>2026-05-03T07:10:20Z</time></trkpt><trkpt lat="49.10911741261353" lon="6.730525480228765"><ele>240.0</ele><time>2026-05-03T07:10:21Z</time></trkpt><trkpt lat="49.10914725585485" lon="6.730226137855664"><ele>236.0</ele><time>2026-05-03T07:10:22Z</time></trkpt><trkpt lat="49.109183038827055" lon="6.729929976911067"><ele>232.0</ele><time>2026-05-03T07:10:23Z</time></trkpt><trkpt lat="49.10921861595202" lon="6.72964692378718"><ele>232.66666666666666</ele><time>2026-05-03T07:10:24Z</time></trkpt><trkpt lat="49.109255611393905" lon="6.729378676386173"><ele>233.33333333333331</ele><time>2026-05-03T07:10:25Z</time></trkpt><trkpt lat="49.10928885909914" lon="6.729128694327418"><ele>234.0</ele><time>2026-05-03T07:10:26Z</time></trkpt><trkpt lat="49.109321404426346" lon="6.72889006802718"><ele>234.0</ele><time>2026-05-03T07:10:27Z</time></trkpt><trkpt lat="49.109347360195095" lon="6.728668667783418"><ele>234.0</ele><time>2026-05-03T07:10:28Z</time></trkpt><trkpt lat="49.10936844731456" lon="6.728465218376252"><ele>234.0</ele><time>2026-05-03T07:10:29Z</time></trkpt><trkpt lat="49.10938268482754" lon="6.728284377308136"><ele>234.0</ele><time>2026-05-03T07:10:30Z</time></trkpt><trkpt lat="49.10939485507237" lon="6.728118490463193"><ele>234.25</ele><time>2026-05-03T07:10:31Z</time></trkpt><trkpt lat="49.10940020214448" lon="6.727942135929943"><ele>234.5</ele><time>2026-05-03T07:10:32Z</time></trkpt><trkpt lat="49.10939124854319" lon="6.727760339609662"><ele>234.75</ele><time>2026-05-03T07:10:33Z</time></trkpt><trkpt lat="49.10934609585268" lon="6.727567869615389"><ele>235.0</ele><time>2026-05-03T07:10:34Z</time></trkpt><trkpt lat="49.10927888893476" lon="6.727337672668392"><ele>235.33333333333331</ele><time>2026-05-03T07:10:35Z</time></trkpt><trkpt lat="49.10921470272359" lon="6.727128377662365"><ele>235.66666666666669</ele><time>2026-05-03T07:10:36Z</time></trkpt><trkpt lat="49.109161208408835" lon="6.726900834346563"><ele>236.0</ele><time>2026-05-03T07:10:37Z</time></trkpt><trkpt lat="49.10911658077848" lon="6.726642331113444"><ele>236.0</ele><time>2026-05-03T07:10:38Z</time></trkpt><trkpt lat="49.10908366723988" lon="6.726396675660664"><ele>236.0</ele><time>2026-05-03T07:10:39Z</time></trkpt><trkpt lat="49.10905845109473" lon="6.726179332874265"><ele>236.0</ele><time>2026-05-03T07:10:40Z</time></trkpt><trkpt lat="49.10903922990835" lon="6.725960498210989"><ele>240.25</ele><time>2026-05-03T07:10:41Z</time></trkpt><trkpt lat="49.10901780896608" lon="6.7257386423362036"><ele>244.5</ele><time>2026-05-03T07:10:42Z</time></trkpt><trkpt lat="49.10900148078615" lon="6.725513573616299"><ele>248.75</ele><time>2026-05-03T07:10:43Z</time></trkpt><trkpt lat="49.10898065876811" lon="6.725288977948465"><ele>253.0</ele><time>2026-05-03T07:10:44Z</time></trkpt><trkpt lat="49.10895961941009" lon="6.725061874652968"><ele>253.0</ele><time>2026-05-03T07:10:45Z</time></trkpt><trkpt lat="49.108943175753296" lon="6.7248351297097235"><ele>253.0</ele><time>2026-05-03T07:10:46Z</time></trkpt><trkpt lat="49.10892250318092" lon="6.724607625860532"><ele>253.0</ele><time>2026-05-03T07:10:47Z</time></trkpt><trkpt lat="49.10890379629615" lon="6.724382374105105"><ele>253.0</ele><time>2026-05-03T07:10:48Z</time></trkpt><trkpt lat="49.108879492999044" lon="6.724155990743769"><ele>250.33333333333331</ele><time>2026-05-03T07:10:49Z</time></trkpt><trkpt lat="49.10885780804599" lon="6.723926543017408"><ele>247.66666666666669</ele><time>2026-05-03T07:10:50Z</time></trkpt><trkpt lat="49.1088391296284" lon="6.723697800716466"><ele>245.0</ele><time>2026-05-03T07:10:51Z</time></trkpt><trkpt lat="49.108821966249316" lon="6.723465845242075"><ele>243.33333333333334</ele><time>2026-05-03T07:10:52Z</time></trkpt><trkpt lat="49.10880159628003" lon="6.72323330725412"><ele>241.66666666666669</ele><time>2026-05-03T07:10:53Z</time></trkpt><trkpt lat="49.10877898604729" lon="6.722998587220249"><ele>240.0</ele><time>2026-05-03T07:10:54Z</time></trkpt><trkpt lat="49.10875651202133" lon="6.722764884873418"><ele>238.66666666666669</ele><time>2026-05-03T07:10:55Z</time></trkpt><trkpt lat="49.10872896667878" lon="6.722531583584594"><ele>237.33333333333334</ele><time>2026-05-03T07:10:56Z</time></trkpt><trkpt lat="49.10868929875985" lon="6.7223008780736375"><ele>236.0</ele><time>2026-05-03T07:10:57Z</time></trkpt><trkpt lat="49.108644390351685" lon="6.722073918511171"><ele>235.0</ele><time>2026-05-03T07:10:58Z</time></trkpt><trkpt lat="49.108596015171905" lon="6.721847440535675"><ele>234.0</ele><time>2026-05-03T07:10:59Z</time></trkpt><trkpt lat="49.108543806746944" lon="6.721623323779369"><ele>233.0</ele><time>2026-05-03T07:11:00Z</time></trkpt><trkpt lat="49.108490414422945" lon="6.721398547513682"><ele>233.0</ele><time>2026-05-03T07:11:01Z</time></trkpt><trkpt lat="49.108434711787744" lon="6.721171808668065"><ele>233.0</ele><time>2026-05-03T07:11:02Z</time></trkpt><trkpt lat="49.10838439647557" lon="6.720944062613325"><ele>233.0</ele><time>2026-05-03T07:11:03Z</time></trkpt><trkpt lat="49.10833495513569" lon="6.720714956840817"><ele>232.33333333333334</ele><time>2026-05-03T07:11:04Z</time></trkpt><trkpt lat="49.10828347960472" lon="6.720488711415096"><ele>231.66666666666669</ele><time>2026-05-03T07:11:05Z</time></trkpt><trkpt lat="49.10823037236276" lon="6.720261092788288"><ele>231.0</ele><time>2026-05-03T07:11:06Z</time></trkpt><trkpt lat="49.108179153477465" lon="6.720033450320906"><ele>236.66666666666669</ele><time>2026-05-03T07:11:07Z</time></trkpt><trkpt lat="49.108129106233626" lon="6.719811785471473"><ele>242.33333333333334</ele><time>2026-05-03T07:11:08Z</time></trkpt><trkpt lat="49.10808137791304" lon="6.7195960651051845"><ele>248.0</ele><time>2026-05-03T07:11:09Z</time></trkpt><trkpt lat="49.108035358569126" lon="6.71938212432073"><ele>248.0</ele><time>2026-05-03T07:11:10Z</time></trkpt><trkpt lat="49.10798627723418" lon="6.719171182959254"><ele>248.0</ele><time>2026-05-03T07:11:11Z</time></trkpt><trkpt lat="49.107939186170256" lon="6.71897258727767"><ele>248.0</ele><time>2026-05-03T07:11:12Z</time></trkpt><trkpt lat="49.10789584467292" lon="6.718788053909945"><ele>248.0</ele><time>2026-05-03T07:11:13Z</time></trkpt><trkpt lat="49.107857220339845" lon="6.718623178792867"><ele>246.0</ele><time>2026-05-03T07:11:14Z</time></trkpt><trkpt lat="49.10783195034134" lon="6.718486750795391"><ele>244.0</ele><time>2026-05-03T07:11:15Z</time></trkpt><trkpt lat="49.107822529668155" lon="6.718383296034396"><ele>242.0</ele><time>2026-05-03T07:11:16Z</time></trkpt><trkpt lat="49.10790584149752" lon="6.718229980161654"><ele>240.0</ele><time>2026-05-03T07:11:18Z</time></trkpt><trkpt lat="49.10797949355962" lon="6.718187826161257"><ele>238.0</ele><time>2026-05-03T07:11:19Z</time></trkpt><trkpt lat="49.10803256192117" lon="6.7180952449987945"><ele>237.99999999999997</ele><time>2026-05-03T07:11:20Z</time></trkpt><trkpt lat="49.10804772388446" lon="6.717968503738254"><ele>238.0</ele><time>2026-05-03T07:11:21Z</time></trkpt><trkpt lat="49.10803020136128" lon="6.717848307247812"><ele>238.0</ele><time>2026-05-03T07:11:22Z</time></trkpt><trkpt lat="49.107986577989635" lon="6.7177560459227115"><ele>238.0</ele><time>2026-05-03T07:11:23Z</time></trkpt><trkpt lat="49.107923789159734" lon="6.717680734993008"><ele>237.99999999999997</ele><time>2026-05-03T07:11:24Z</time></trkpt><trkpt lat="49.10786731923207" lon="6.717607047432704"><ele>238.0</ele><time>2026-05-03T07:11:25Z</time></trkpt><trkpt lat="49.10784860473188" lon="6.71749973630778"><ele>236.60000000000002</ele><time>2026-05-03T07:11:26Z</time></trkpt><trkpt lat="49.1078772556021" lon="6.717363132565044"><ele>235.20000000000002</ele><time>2026-05-03T07:11:27Z</time></trkpt><trkpt lat="49.107939756252954" lon="6.717232381676289"><ele>233.8</ele><time>2026-05-03T07:11:28Z</time></trkpt><trkpt lat="49.10796293946475" lon="6.717060412324336"><ele>232.4</ele><time>2026-05-03T07:11:29Z</time></trkpt><trkpt lat="49.10800104265565" lon="6.716878398370776"><ele>231.0</ele><time>2026-05-03T07:11:30Z</time></trkpt><trkpt lat="49.108029921451354" lon="6.716701899234659"><ele>230.75</ele><time>2026-05-03T07:11:31Z</time></trkpt><trkpt lat="49.108062484034605" lon="6.716539565372601"><ele>230.5</ele><time>2026-05-03T07:11:32Z</time></trkpt><trkpt lat="49.108043449008505" lon="6.716356997372274"><ele>230.25</ele><time>2026-05-03T07:11:33Z</time></trkpt><trkpt lat="49.10802620383275" lon="6.7161696836510005"><ele>230.0</ele><time>2026-05-03T07:11:34Z</time></trkpt><trkpt lat="49.10800411476156" lon="6.715976057780637"><ele>230.0</ele><time>2026-05-03T07:11:35Z</time></trkpt><trkpt lat="49.10796758533842" lon="6.715782000014356"><ele>230.0</ele><time>2026-05-03T07:11:36Z</time></trkpt><trkpt lat="49.107934249770075" lon="6.715589244527602"><ele>230.0</ele><time>2026-05-03T07:11:37Z</time></trkpt><trkpt lat="49.10789799870526" lon="6.7153983582094705"><ele>230.0</ele><time>2026-05-03T07:11:38Z</time></trkpt><trkpt lat="49.10787415681792" lon="6.715205089201745"><ele>229.75</ele><time>2026-05-03T07:11:39Z</time></trkpt><trkpt lat="49.107853316329084" lon="6.7150165786427305"><ele>229.5</ele><time>2026-05-03T07:11:40Z</time></trkpt><trkpt lat="49.107822743494495" lon="6.714835945871978"><ele>229.25</ele><time>2026-05-03T07:11:41Z</time></trkpt><trkpt lat="49.1077882912308" lon="6.7146579050222055"><ele>229.0</ele><time>2026-05-03T07:11:42Z</time></trkpt><trkpt lat="49.10775467217175" lon="6.714477215846064"><ele>230.25</ele><time>2026-05-03T07:11:43Z</time></trkpt><trkpt lat="49.10772064037557" lon="6.71429004401432"><ele>231.5</ele><time>2026-05-03T07:11:44Z</time></trkpt><trkpt lat="49.10769644979735" lon="6.714098937538036"><ele>232.75</ele><time>2026-05-03T07:11:45Z</time></trkpt><trkpt lat="49.107666494894936" lon="6.713901147061746"><ele>234.0</ele><time>2026-05-03T07:11:46Z</time></trkpt><trkpt lat="49.107655368903515" lon="6.7136967685927935"><ele>234.25</ele><time>2026-05-03T07:11:47Z</time></trkpt><trkpt lat="49.107630517000054" lon="6.713493998904523"><ele>234.5</ele><time>2026-05-03T07:11:48Z</time></trkpt><trkpt lat="49.10759500926464" lon="6.7132905679966095"><ele>234.75</ele><time>2026-05-03T07:11:49Z</time></trkpt><trkpt lat="49.10756117513745" lon="6.713088068347208"><ele>235.0</ele><time>2026-05-03T07:11:50Z</time></trkpt><trkpt lat="49.10752971113194" lon="6.7128810815298365"><ele>234.5</ele><time>2026-05-03T07:11:51Z</time></trkpt><trkpt lat="49.1075021404963" lon="6.712676436965636"><ele>234.0</ele><time>2026-05-03T07:11:52Z</time></trkpt><trkpt lat="49.10746466555805" lon="6.71247294536872"><ele>233.5</ele><time>2026-05-03T07:11:53Z</time></trkpt><trkpt lat="49.10743160913547" lon="6.712271442399362"><ele>233.0</ele><time>2026-05-03T07:11:54Z</time></trkpt><trkpt lat="49.107384435011426" lon="6.712068151102012"><ele>231.75</ele><time>2026-05-03T07:11:55Z</time></trkpt><trkpt lat="49.1073425291668" lon="6.711862519061984"><ele>230.5</ele><time>2026-05-03T07:11:56Z</time></trkpt><trkpt lat="49.10729242447744" lon="6.7116575576426865"><ele>229.25</ele><time>2026-05-03T07:11:57Z</time></trkpt><trkpt lat="49.107233356300235" lon="6.711455648996882"><ele>228.0</ele><time>2026-05-03T07:11:58Z</time></trkpt><trkpt lat="49.10717438613851" lon="6.71125326148551"><ele>228.5</ele><time>2026-05-03T07:11:59Z</time></trkpt><trkpt lat="49.10711810917072" lon="6.711051351538486"><ele>229.0</ele><time>2026-05-03T07:12:00Z</time></trkpt><trkpt lat="49.10706233823784" lon="6.710852936085046"><ele>229.5</ele><time>2026-05-03T07:12:01Z</time></trkpt><trkpt lat="49.10700264266796" lon="6.710654744097977"><ele>230.0</ele><time>2026-05-03T07:12:02Z</time></trkpt><trkpt lat="49.10693708516464" lon="6.710468409139756"><ele>230.0</ele><time>2026-05-03T07:12:03Z</time></trkpt><trkpt lat="49.10687534437948" lon="6.710289389202"><ele>230.0</ele><time>2026-05-03T07:12:04Z</time></trkpt><trkpt lat="49.106826809005554" lon="6.710121301860586"><ele>230.0</ele><time>2026-05-03T07:12:05Z</time></trkpt><trkpt lat="49.106784812857505" lon="6.709947670944248"><ele>230.0</ele><time>2026-05-03T07:12:06Z</time></trkpt><trkpt lat="49.10674426877335" lon="6.709771611176859"><ele>229.5</ele><time>2026-05-03T07:12:07Z</time></trkpt><trkpt lat="49.10669239659174" lon="6.709603338158003"><ele>229.0</ele><time>2026-05-03T07:12:08Z</time></trkpt><trkpt lat="49.10662835377284" lon="6.709442430889753"><ele>228.5</ele><time>2026-05-03T07:12:09Z</time></trkpt><trkpt lat="49.10656793545533" lon="6.709279111512049"><ele>228.0</ele><time>2026-05-03T07:12:10Z</time></trkpt><trkpt lat="49.10651445219815" lon="6.709110098936292"><ele>228.0</ele><time>2026-05-03T07:12:11Z</time></trkpt><trkpt lat="49.10645907370666" lon="6.708940157817631"><ele>228.0</ele><time>2026-05-03T07:12:12Z</time></trkpt><trkpt lat="49.10640775321032" lon="6.708781458068321"><ele>228.0</ele><time>2026-05-03T07:12:13Z</time></trkpt><trkpt lat="49.10635966286573" lon="6.70863350203211"><ele>228.0</ele><time>2026-05-03T07:12:14Z</time></trkpt><trkpt lat="49.106315423305965" lon="6.708485001701099"><ele>228.0</ele><time>2026-05-03T07:12:15Z</time></trkpt><trkpt lat="49.10627855853372" lon="6.708343343960809"><ele>228.0</ele><time>2026-05-03T07:12:16Z</time></trkpt><trkpt lat="49.10625727400023" lon="6.70820836240114"><ele>228.0</ele><time>2026-05-03T07:12:17Z</time></trkpt><trkpt lat="49.10623898551049" lon="6.708083968367076"><ele>228.0</ele><time>2026-05-03T07:12:18Z</time></trkpt><trkpt lat="49.10619592546526" lon="6.707993594686428"><ele>228.0</ele><time>2026-05-03T07:12:19Z</time></trkpt><trkpt lat="49.106139969008375" lon="6.707928807210892"><ele>228.0</ele><time>2026-05-03T07:12:20Z</time></trkpt><trkpt lat="49.106047715531666" lon="6.707931756517528"><ele>228.0</ele><time>2026-05-03T07:12:21Z</time></trkpt><trkpt lat="49.105965700444926" lon="6.707842339689613"><ele>228.0</ele><time>2026-05-03T07:12:22Z</time></trkpt><trkpt lat="49.10589394097043" lon="6.707723628193154"><ele>228.0</ele><time>2026-05-03T07:12:23Z</time></trkpt><trkpt lat="49.105830051935065" lon="6.707614201284575"><ele>228.0</ele><time>2026-05-03T07:12:24Z</time></trkpt><trkpt lat="49.1057598959638" lon="6.707511550442202"><ele>228.0</ele><time>2026-05-03T07:12:25Z</time></trkpt><trkpt lat="49.10569395911138" lon="6.707416503025537"><ele>228.4</ele><time>2026-05-03T07:12:26Z</time></trkpt><trkpt lat="49.105627924874426" lon="6.707319075892077"><ele>228.8</ele><time>2026-05-03T07:12:27Z</time></trkpt><trkpt lat="49.105555693748215" lon="6.707217579098224"><ele>229.2</ele><time>2026-05-03T07:12:28Z</time></trkpt><trkpt lat="49.10547764075116" lon="6.7071134990949846"><ele>229.6</ele><time>2026-05-03T07:12:29Z</time></trkpt><trkpt lat="49.10539632975998" lon="6.707012464325167"><ele>230.0</ele><time>2026-05-03T07:12:30Z</time></trkpt><trkpt lat="49.105321432288946" lon="6.706907964898241"><ele>230.0</ele><time>2026-05-03T07:12:31Z</time></trkpt><trkpt lat="49.10525334551533" lon="6.706790299244025"><ele>230.0</ele><time>2026-05-03T07:12:32Z</time></trkpt><trkpt lat="49.10515357539403" lon="6.706523997202855"><ele>230.0</ele><time>2026-05-03T07:12:34Z</time></trkpt><trkpt lat="49.10511847313873" lon="6.706387102829404"><ele>230.0</ele><time>2026-05-03T07:12:35Z</time></trkpt><trkpt lat="49.10509071395277" lon="6.706261685795313"><ele>230.0</ele><time>2026-05-03T07:12:36Z</time></trkpt><trkpt lat="49.10507645745493" lon="6.706159769381453"><ele>230.0</ele><time>2026-05-03T07:12:37Z</time></trkpt><trkpt lat="49.10506259295267" lon="6.7060066189219585"><ele>230.0</ele><time>2026-05-03T07:12:39Z</time></trkpt><trkpt lat="49.10505110577724" lon="6.705867208378287"><ele>230.0</ele><time>2026-05-03T07:12:41Z</time></trkpt><trkpt lat="49.10505810918344" lon="6.70567912479445"><ele>230.0</ele><time>2026-05-03T07:12:43Z</time></trkpt><trkpt lat="49.10508590692326" lon="6.705572352627287"><ele>230.00000000000003</ele><time>2026-05-03T07:12:44Z</time></trkpt><trkpt lat="49.10510656238124" lon="6.705474482578458"><ele>230.0</ele><time>2026-05-03T07:12:45Z</time></trkpt><trkpt lat="49.10509032111032" lon="6.705362039876961"><ele>230.0</ele><time>2026-05-03T07:12:46Z</time></trkpt><trkpt lat="49.1050487279972" lon="6.705260226115631"><ele>230.0</ele><time>2026-05-03T07:12:47Z</time></trkpt><trkpt lat="49.105000508982336" lon="6.705165176720927"><ele>230.00000000000003</ele><time>2026-05-03T07:12:48Z</time></trkpt><trkpt lat="49.1049730433472" lon="6.7050476189137"><ele>230.0</ele><time>2026-05-03T07:12:49Z</time></trkpt><trkpt lat="49.10496182322491" lon="6.704906628250376"><ele>230.2</ele><time>2026-05-03T07:12:50Z</time></trkpt><trkpt lat="49.104953203394764" lon="6.7047475293807794"><ele>230.4</ele><time>2026-05-03T07:12:51Z</time></trkpt><trkpt lat="49.1049416923305" lon="6.704587433964654"><ele>230.60000000000002</ele><time>2026-05-03T07:12:52Z</time></trkpt><trkpt lat="49.1049316877495" lon="6.704425818118469"><ele>230.8</ele><time>2026-05-03T07:12:53Z</time></trkpt><trkpt lat="49.10492379275073" lon="6.704263672964511"><ele>231.0</ele><time>2026-05-03T07:12:54Z</time></trkpt><trkpt lat="49.10491790113869" lon="6.704094896952226"><ele>231.0</ele><time>2026-05-03T07:12:55Z</time></trkpt><trkpt lat="49.1049167087816" lon="6.703934707842099"><ele>231.00000000000003</ele><time>2026-05-03T07:12:56Z</time></trkpt><trkpt lat="49.10491801356802" lon="6.703790075652143"><ele>231.00000000000003</ele><time>2026-05-03T07:12:57Z</time></trkpt><trkpt lat="49.10491910565918" lon="6.703650954379529"><ele>231.0</ele><time>2026-05-03T07:12:58Z</time></trkpt><trkpt lat="49.104921780836726" lon="6.703509806319595"><ele>231.0</ele><time>2026-05-03T07:12:59Z</time></trkpt><trkpt lat="49.10492588536375" lon="6.70335920276573"><ele>231.0</ele><time>2026-05-03T07:13:00Z</time></trkpt><trkpt lat="49.10492824235311" lon="6.703205315919218"><ele>231.0</ele><time>2026-05-03T07:13:01Z</time></trkpt><trkpt lat="49.104930086807215" lon="6.703062187884952"><ele>231.0</ele><time>2026-05-03T07:13:02Z</time></trkpt><trkpt lat="49.104932242202146" lon="6.702933368240179"><ele>231.0</ele><time>2026-05-03T07:13:03Z</time></trkpt><trkpt lat="49.10494191691814" lon="6.702816230858858"><ele>231.0</ele><time>2026-05-03T07:13:04Z</time></trkpt><trkpt lat="49.104949890851366" lon="6.7027041683507065"><ele>231.0</ele><time>2026-05-03T07:13:05Z</time></trkpt><trkpt lat="49.10495299204316" lon="6.702583602176504"><ele>231.0</ele><time>2026-05-03T07:13:06Z</time></trkpt><trkpt lat="49.104953472482144" lon="6.702460310847263"><ele>231.0</ele><time>2026-05-03T07:13:07Z</time></trkpt><trkpt lat="49.10495294340401" lon="6.702332874238487"><ele>231.0</ele><time>2026-05-03T07:13:08Z</time></trkpt><trkpt lat="49.10495409071561" lon="6.702216277204906"><ele>231.0</ele><time>2026-05-03T07:13:09Z</time></trkpt><trkpt lat="49.1049485930406" lon="6.702105606228279"><ele>231.0</ele><time>2026-05-03T07:13:10Z</time></trkpt><trkpt lat="49.10492395213876" lon="6.701978498678947"><ele>231.0</ele><time>2026-05-03T07:13:11Z</time></trkpt><trkpt lat="49.10488588623996" lon="6.701854106427921"><ele>231.60000000000002</ele><time>2026-05-03T07:13:12Z</time></trkpt><trkpt lat="49.10482990153619" lon="6.701732392444216"><ele>232.20000000000002</ele><time>2026-05-03T07:13:13Z</time></trkpt><trkpt lat="49.104757881814685" lon="6.7016254903210255"><ele>232.79999999999998</ele><time>2026-05-03T07:13:14Z</time></trkpt><trkpt lat="49.10467753159476" lon="6.701542454633596"><ele>233.39999999999998</ele><time>2026-05-03T07:13:15Z</time></trkpt><trkpt lat="49.10459964575185" lon="6.7014819232148195"><ele>234.0</ele><time>2026-05-03T07:13:16Z</time></trkpt><trkpt lat="49.10453120732685" lon="6.701421334194869"><ele>234.0</ele><time>2026-05-03T07:13:17Z</time></trkpt><trkpt lat="49.10447996840496" lon="6.701328677520901"><ele>234.0</ele><time>2026-05-03T07:13:18Z</time></trkpt><trkpt lat="49.10445868967578" lon="6.701219538671996"><ele>234.0</ele><time>2026-05-03T07:13:19Z</time></trkpt><trkpt lat="49.10445995182534" lon="6.701116954453969"><ele>234.0</ele><time>2026-05-03T07:13:20Z</time></trkpt><trkpt lat="49.10447308785627" lon="6.7010142045235845"><ele>234.0</ele><time>2026-05-03T07:13:21Z</time></trkpt><trkpt lat="49.10445638150791" lon="6.7008986824304095"><ele>234.0</ele><time>2026-05-03T07:13:22Z</time></trkpt><trkpt lat="49.10441222535949" lon="6.700780707668954"><ele>233.83333333333334</ele><time>2026-05-03T07:13:23Z</time></trkpt><trkpt lat="49.10435076986036" lon="6.700692969205189"><ele>233.66666666666669</ele><time>2026-05-03T07:13:24Z</time></trkpt><trkpt lat="49.104276395519705" lon="6.7006563970078465"><ele>233.5</ele><time>2026-05-03T07:13:25Z</time></trkpt><trkpt lat="49.10420224894761" lon="6.700669463689809"><ele>233.33333333333334</ele><time>2026-05-03T07:13:26Z</time></trkpt><trkpt lat="49.104131310407915" lon="6.7007165931278"><ele>233.16666666666669</ele><time>2026-05-03T07:13:27Z</time></trkpt><trkpt lat="49.10406746336421" lon="6.700790159015034"><ele>233.0</ele><time>2026-05-03T07:13:28Z</time></trkpt><trkpt lat="49.10402362264127" lon="6.700883996242787"><ele>233.60000000000002</ele><time>2026-05-03T07:13:29Z</time></trkpt><trkpt lat="49.10398826770028" lon="6.700973480122747"><ele>234.20000000000002</ele><time>2026-05-03T07:13:30Z</time></trkpt><trkpt lat="49.10388557730874" lon="6.701064800503691"><ele>234.8</ele><time>2026-05-03T07:13:32Z</time></trkpt><trkpt lat="49.10382221923378" lon="6.701072151100392"><ele>235.4</ele><time>2026-05-03T07:13:33Z</time></trkpt><trkpt lat="49.10371133338327" lon="6.701035767172542"><ele>236.0</ele><time>2026-05-03T07:13:35Z</time></trkpt><trkpt lat="49.10358500538067" lon="6.7009982153577745"><ele>236.0</ele><time>2026-05-03T07:13:37Z</time></trkpt><trkpt lat="49.10350484735912" lon="6.700983612465724"><ele>236.0</ele><time>2026-05-03T07:13:38Z</time></trkpt><trkpt lat="49.10342458051889" lon="6.700980567187726"><ele>236.0</ele><time>2026-05-03T07:13:39Z</time></trkpt><trkpt lat="49.103359054190676" lon="6.700977599553436"><ele>236.0</ele><time>2026-05-03T07:13:40Z</time></trkpt><trkpt lat="49.10328993801422" lon="6.700974623294705"><ele>236.0</ele><time>2026-05-03T07:13:41Z</time></trkpt><trkpt lat="49.103220232149106" lon="6.700932908713746"><ele>236.0</ele><time>2026-05-03T07:13:42Z</time></trkpt><trkpt lat="49.10317178840622" lon="6.700845391641444"><ele>236.0</ele><time>2026-05-03T07:13:43Z</time></trkpt><trkpt lat="49.103151158303305" lon="6.7007249746263655"><ele>238.60000000000002</ele><time>2026-05-03T07:13:44Z</time></trkpt><trkpt lat="49.10316123586328" lon="6.700584980161819"><ele>241.20000000000002</ele><time>2026-05-03T07:13:45Z</time></trkpt><trkpt lat="49.10317384954862" lon="6.700425486870256"><ele>243.79999999999998</ele><time>2026-05-03T07:13:46Z</time></trkpt><trkpt lat="49.10317392129223" lon="6.700251503034175"><ele>246.39999999999998</ele><time>2026-05-03T07:13:47Z</time></trkpt><trkpt lat="49.10317047327701" lon="6.700086394703722"><ele>249.0</ele><time>2026-05-03T07:13:48Z</time></trkpt><trkpt lat="49.10316698651761" lon="6.699916870558527"><ele>249.0</ele><time>2026-05-03T07:13:49Z</time></trkpt><trkpt lat="49.10316468602425" lon="6.699737675624334"><ele>249.0</ele><time>2026-05-03T07:13:50Z</time></trkpt><trkpt lat="49.103164215109885" lon="6.6995529569249195"><ele>249.0</ele><time>2026-05-03T07:13:51Z</time></trkpt><trkpt lat="49.103161065293314" lon="6.69916764520341"><ele>247.5</ele><time>2026-05-03T07:13:53Z</time></trkpt><trkpt lat="49.10315817632241" lon="6.698974822246378"><ele>246.0</ele><time>2026-05-03T07:13:54Z</time></trkpt><trkpt lat="49.1031556540359" lon="6.698782847691795"><ele>244.5</ele><time>2026-05-03T07:13:55Z</time></trkpt><trkpt lat="49.103155783325946" lon="6.69859024860021"><ele>243.0</ele><time>2026-05-03T07:13:56Z</time></trkpt><trkpt lat="49.10315604883208" lon="6.69840711383678"><ele>242.5</ele><time>2026-05-03T07:13:57Z</time></trkpt><trkpt lat="49.10315496876699" lon="6.698242658910199"><ele>242.0</ele><time>2026-05-03T07:13:58Z</time></trkpt><trkpt lat="49.10315439512748" lon="6.698090453948265"><ele>241.5</ele><time>2026-05-03T07:13:59Z</time></trkpt><trkpt lat="49.10315169254638" lon="6.697944685002948"><ele>241.0</ele><time>2026-05-03T07:14:00Z</time></trkpt><trkpt lat="49.103147356955965" lon="6.69763471295129"><ele>240.75</ele><time>2026-05-03T07:14:02Z</time></trkpt><trkpt lat="49.10314487919042" lon="6.697473430415628"><ele>240.5</ele><time>2026-05-03T07:14:03Z</time></trkpt><trkpt lat="49.103134516604186" lon="6.6973032349760935"><ele>240.25</ele><time>2026-05-03T07:14:04Z</time></trkpt><trkpt lat="49.10312057327463" lon="6.697126652028412"><ele>240.0</ele><time>2026-05-03T07:14:05Z</time></trkpt><trkpt lat="49.103118302838276" lon="6.696948104949105"><ele>240.2</ele><time>2026-05-03T07:14:06Z</time></trkpt><trkpt lat="49.10313266726065" lon="6.696772485861337"><ele>240.4</ele><time>2026-05-03T07:14:07Z</time></trkpt><trkpt lat="49.10318735216453" lon="6.696616221549175"><ele>240.60000000000002</ele><time>2026-05-03T07:14:08Z</time></trkpt><trkpt lat="49.103220573412415" lon="6.69646278322996"><ele>240.8</ele><time>2026-05-03T07:14:09Z</time></trkpt><trkpt lat="49.10326414695536" lon="6.696312648358105"><ele>241.0</ele><time>2026-05-03T07:14:10Z</time></trkpt><trkpt lat="49.10331713510714" lon="6.696166194853752"><ele>239.0</ele><time>2026-05-03T07:14:11Z</time></trkpt><trkpt lat="49.103375781337796" lon="6.696019157208042"><ele>237.0</ele><time>2026-05-03T07:14:12Z</time></trkpt><trkpt lat="49.10342321667126" lon="6.695859174535135"><ele>235.0</ele><time>2026-05-03T07:14:13Z</time></trkpt><trkpt lat="49.10348639415354" lon="6.695709363309621"><ele>233.0</ele><time>2026-05-03T07:14:14Z</time></trkpt><trkpt lat="49.10356403100454" lon="6.6955696472727055"><ele>233.0</ele><time>2026-05-03T07:14:15Z</time></trkpt><trkpt lat="49.10362872317044" lon="6.69541999979048"><ele>233.0</ele><time>2026-05-03T07:14:16Z</time></trkpt><trkpt lat="49.103696324344305" lon="6.6952700290316445"><ele>233.0</ele><time>2026-05-03T07:14:17Z</time></trkpt><trkpt lat="49.103767422818734" lon="6.6951257651550735"><ele>233.0</ele><time>2026-05-03T07:14:18Z</time></trkpt><trkpt lat="49.10384222201818" lon="6.694991774031959"><ele>233.2</ele><time>2026-05-03T07:14:19Z</time></trkpt><trkpt lat="49.10391796866358" lon="6.694871899943926"><ele>233.4</ele><time>2026-05-03T07:14:20Z</time></trkpt><trkpt lat="49.103980443202204" lon="6.694750689968478"><ele>233.59999999999997</ele><time>2026-05-03T07:14:21Z</time></trkpt><trkpt lat="49.104056210471384" lon="6.694666706666819"><ele>233.79999999999998</ele><time>2026-05-03T07:14:22Z</time></trkpt><trkpt lat="49.104132588613524" lon="6.694602212392764"><ele>234.0</ele><time>2026-05-03T07:14:23Z</time></trkpt><trkpt lat="49.10423231546969" lon="6.694544314981615"><ele>234.0</ele><time>2026-05-03T07:14:24Z</time></trkpt><trkpt lat="49.10437063336297" lon="6.694460029509917"><ele>234.0</ele><time>2026-05-03T07:14:25Z</time></trkpt><trkpt lat="49.10452138912656" lon="6.694332980273611"><ele>234.0</ele><time>2026-05-03T07:14:26Z</time></trkpt><trkpt lat="49.10468456533736" lon="6.6941565790591255"><ele>234.0</ele><time>2026-05-03T07:14:27Z</time></trkpt><trkpt lat="49.10483544107766" lon="6.6940152463283225"><ele>234.0</ele><time>2026-05-03T07:14:28Z</time></trkpt><trkpt lat="49.10497804286196" lon="6.693900591493359"><ele>234.0</ele><time>2026-05-03T07:14:29Z</time></trkpt><trkpt lat="49.105117985725535" lon="6.693787210987551"><ele>234.33333333333331</ele><time>2026-05-03T07:14:30Z</time></trkpt><trkpt lat="49.10525555300936" lon="6.693663694866745"><ele>234.66666666666666</ele><time>2026-05-03T07:14:31Z</time></trkpt><trkpt lat="49.10538674178169" lon="6.693543735395533"><ele>235.0</ele><time>2026-05-03T07:14:32Z</time></trkpt><trkpt lat="49.10551799459939" lon="6.693433982461625"><ele>235.0</ele><time>2026-05-03T07:14:33Z</time></trkpt><trkpt lat="49.10564568554137" lon="6.693324928358073"><ele>235.0</ele><time>2026-05-03T07:14:34Z</time></trkpt><trkpt lat="49.10576457096176" lon="6.693215341656763"><ele>235.0</ele><time>2026-05-03T07:14:35Z</time></trkpt><trkpt lat="49.105885578872176" lon="6.693101013480645"><ele>235.0</ele><time>2026-05-03T07:14:36Z</time></trkpt><trkpt lat="49.106007899877056" lon="6.692994051116575"><ele>235.75</ele><time>2026-05-03T07:14:37Z</time></trkpt><trkpt lat="49.10613511654057" lon="6.692883812664953"><ele>236.5</ele><time>2026-05-03T07:14:38Z</time></trkpt><trkpt lat="49.10626105340589" lon="6.69277265200128"><ele>237.25</ele><time>2026-05-03T07:14:39Z</time></trkpt><trkpt lat="49.10638337642359" lon="6.692662457767425"><ele>238.0</ele><time>2026-05-03T07:14:40Z</time></trkpt><trkpt lat="49.106506587785645" lon="6.692553558385279"><ele>238.75</ele><time>2026-05-03T07:14:41Z</time></trkpt><trkpt lat="49.106631357331864" lon="6.692441178008139"><ele>239.5</ele><time>2026-05-03T07:14:42Z</time></trkpt><trkpt lat="49.10675388112232" lon="6.692321118867799"><ele>240.25</ele><time>2026-05-03T07:14:43Z</time></trkpt><trkpt lat="49.10687591888515" lon="6.692185445130932"><ele>241.0</ele><time>2026-05-03T07:14:44Z</time></trkpt><trkpt lat="49.10699052111372" lon="6.692039609673383"><ele>241.25</ele><time>2026-05-03T07:14:45Z</time></trkpt><trkpt lat="49.107094989917684" lon="6.691892394779771"><ele>241.5</ele><time>2026-05-03T07:14:46Z</time></trkpt><trkpt lat="49.10718348580397" lon="6.691741045098753"><ele>241.75</ele><time>2026-05-03T07:14:47Z</time></trkpt><trkpt lat="49.10726402737622" lon="6.691583424261213"><ele>242.0</ele><time>2026-05-03T07:14:48Z</time></trkpt><trkpt lat="49.107345192238114" lon="6.691428135641863"><ele>240.75</ele><time>2026-05-03T07:14:49Z</time></trkpt><trkpt lat="49.10742828853993" lon="6.691284181200372"><ele>239.5</ele><time>2026-05-03T07:14:50Z</time></trkpt><trkpt lat="49.10750690000565" lon="6.69114769931005"><ele>238.25</ele><time>2026-05-03T07:14:51Z</time></trkpt><trkpt lat="49.10757828222007" lon="6.6910083918693095"><ele>237.0</ele><time>2026-05-03T07:14:52Z</time></trkpt><trkpt lat="49.107634220535004" lon="6.690875272303282"><ele>237.0</ele><time>2026-05-03T07:14:53Z</time></trkpt><trkpt lat="49.10768429816022" lon="6.690746169077874"><ele>237.0</ele><time>2026-05-03T07:14:54Z</time></trkpt><trkpt lat="49.10775032521705" lon="6.690656165494295"><ele>237.0</ele><time>2026-05-03T07:14:55Z</time></trkpt><trkpt lat="49.10780046562884" lon="6.6905810279914055"><ele>237.0</ele><time>2026-05-03T07:14:56Z</time></trkpt><trkpt lat="49.10794426733699" lon="6.690652177465516"><ele>237.0</ele><time>2026-05-03T07:14:57Z</time></trkpt><trkpt lat="49.10805028239697" lon="6.690695016390797"><ele>237.0</ele><time>2026-05-03T07:14:58Z</time></trkpt><trkpt lat="49.10815101880415" lon="6.690678862509935"><ele>237.0</ele><time>2026-05-03T07:14:59Z</time></trkpt><trkpt lat="49.10823995304739" lon="6.690591792548839"><ele>237.0</ele><time>2026-05-03T07:15:00Z</time></trkpt><trkpt lat="49.108315243179334" lon="6.690473398531437"><ele>237.0</ele><time>2026-05-03T07:15:01Z</time></trkpt><trkpt lat="49.10836717292606" lon="6.690335982199168"><ele>237.0</ele><time>2026-05-03T07:15:02Z</time></trkpt><trkpt lat="49.108391925230656" lon="6.690186763351935"><ele>236.83333333333334</ele><time>2026-05-03T07:15:03Z</time></trkpt><trkpt lat="49.10840505232085" lon="6.690041605480061"><ele>236.66666666666669</ele><time>2026-05-03T07:15:04Z</time></trkpt><trkpt lat="49.10842947940387" lon="6.6899240830671545"><ele>236.5</ele><time>2026-05-03T07:15:05Z</time></trkpt><trkpt lat="49.10847375288924" lon="6.689822545624998"><ele>236.33333333333334</ele><time>2026-05-03T07:15:06Z</time></trkpt><trkpt lat="49.10852564404919" lon="6.689730007593187"><ele>236.16666666666669</ele><time>2026-05-03T07:15:07Z</time></trkpt><trkpt lat="49.10857613323262" lon="6.68965489698332"><ele>236.0</ele><time>2026-05-03T07:15:08Z</time></trkpt><trkpt lat="49.108644136430115" lon="6.689571682810671"><ele>236.00000000000003</ele><time>2026-05-03T07:15:10Z</time></trkpt><trkpt lat="49.10870924110532" lon="6.689631710112875"><ele>236.0</ele><time>2026-05-03T07:15:11Z</time></trkpt><trkpt lat="49.10878275067937" lon="6.689770643717931"><ele>236.0</ele><time>2026-05-03T07:15:13Z</time></trkpt><trkpt lat="49.10883373705696" lon="6.68982763608824"><ele>236.0</ele><time>2026-05-03T07:15:14Z</time></trkpt><trkpt lat="49.10890970757642" lon="6.689875242209198"><ele>236.00000000000003</ele><time>2026-05-03T07:15:15Z</time></trkpt><trkpt lat="49.108974997412034" lon="6.689954326089032"><ele>236.0</ele><time>2026-05-03T07:15:16Z</time></trkpt><trkpt lat="49.109052500852385" lon="6.690033085131114"><ele>237.00000000000003</ele><time>2026-05-03T07:15:17Z</time></trkpt><trkpt lat="49.10911943285461" lon="6.690131751274444"><ele>238.0</ele><time>2026-05-03T07:15:18Z</time></trkpt><trkpt lat="49.10919655378224" lon="6.69020097143012"><ele>239.0</ele><time>2026-05-03T07:15:19Z</time></trkpt><trkpt lat="49.10928694042039" lon="6.690259624583293"><ele>240.0</ele><time>2026-05-03T07:15:20Z</time></trkpt><trkpt lat="49.10935589492815" lon="6.6902931530622425"><ele>241.00000000000003</ele><time>2026-05-03T07:15:21Z</time></trkpt><trkpt lat="49.10942830340133" lon="6.690287449779756"><ele>242.0</ele><time>2026-05-03T07:15:22Z</time></trkpt><trkpt lat="49.10949991878466" lon="6.690289909593171"><ele>242.00000000000003</ele><time>2026-05-03T07:15:23Z</time></trkpt><trkpt lat="49.10958248180638" lon="6.690287091866306"><ele>242.0</ele><time>2026-05-03T07:15:24Z</time></trkpt><trkpt lat="49.1096563420554" lon="6.690273514531449"><ele>242.0</ele><time>2026-05-03T07:15:25Z</time></trkpt><trkpt lat="49.10973301499352" lon="6.690258124688591"><ele>242.0</ele><time>2026-05-03T07:15:26Z</time></trkpt><trkpt lat="49.10980456662445" lon="6.690220940818975"><ele>242.00000000000003</ele><time>2026-05-03T07:15:27Z</time></trkpt><trkpt lat="49.109879908999744" lon="6.690175217436581"><ele>242.0</ele><time>2026-05-03T07:15:28Z</time></trkpt><trkpt lat="49.10994726800181" lon="6.690075459531357"><ele>243.00000000000003</ele><time>2026-05-03T07:15:29Z</time></trkpt><trkpt lat="49.10999104563766" lon="6.689936925453862"><ele>244.0</ele><time>2026-05-03T07:15:30Z</time></trkpt><trkpt lat="49.11002415026034" lon="6.689854833353647"><ele>245.0</ele><time>2026-05-03T07:15:31Z</time></trkpt><trkpt lat="49.11007789180506" lon="6.689779006621179"><ele>246.0</ele><time>2026-05-03T07:15:32Z</time></trkpt><trkpt lat="49.11014691296677" lon="6.689705980025255"><ele>247.00000000000003</ele><time>2026-05-03T07:15:33Z</time></trkpt><trkpt lat="49.1102277743178" lon="6.6896429769005925"><ele>248.0</ele><time>2026-05-03T07:15:34Z</time></trkpt><trkpt lat="49.1103114467044" lon="6.689555709929609"><ele>248.0</ele><time>2026-05-03T07:15:35Z</time></trkpt><trkpt lat="49.11039715520847" lon="6.689506375076964"><ele>248.0</ele><time>2026-05-03T07:15:36Z</time></trkpt><trkpt lat="49.11049883038277" lon="6.68944330881614"><ele>248.0</ele><time>2026-05-03T07:15:37Z</time></trkpt><trkpt lat="49.11059677577883" lon="6.689382569674867"><ele>248.0</ele><time>2026-05-03T07:15:38Z</time></trkpt><trkpt lat="49.11070067037428" lon="6.689317151983178"><ele>248.0</ele><time>2026-05-03T07:15:39Z</time></trkpt><trkpt lat="49.11079627929937" lon="6.689259357619652"><ele>248.0</ele><time>2026-05-03T07:15:40Z</time></trkpt><trkpt lat="49.11089131046897" lon="6.689200597136973"><ele>248.0</ele><time>2026-05-03T07:15:41Z</time></trkpt><trkpt lat="49.11099369302303" lon="6.6891417493305765"><ele>248.0</ele><time>2026-05-03T07:15:42Z</time></trkpt><trkpt lat="49.11109921435915" lon="6.689098572031526"><ele>248.0</ele><time>2026-05-03T07:15:43Z</time></trkpt><trkpt lat="49.11120333118447" lon="6.689022588219796"><ele>248.0</ele><time>2026-05-03T07:15:44Z</time></trkpt><trkpt lat="49.11131078509945" lon="6.688981393486241"><ele>248.0</ele><time>2026-05-03T07:15:45Z</time></trkpt><trkpt lat="49.11141366714042" lon="6.6889244118742255"><ele>248.0</ele><time>2026-05-03T07:15:46Z</time></trkpt><trkpt lat="49.11150832763094" lon="6.688850162829599"><ele>248.0</ele><time>2026-05-03T07:15:47Z</time></trkpt><trkpt lat="49.11160537985534" lon="6.688789607656135"><ele>248.0</ele><time>2026-05-03T07:15:48Z</time></trkpt><trkpt lat="49.11171101436906" lon="6.68872557108746"><ele>248.0</ele><time>2026-05-03T07:15:49Z</time></trkpt><trkpt lat="49.11181011081074" lon="6.688660565448227"><ele>248.0</ele><time>2026-05-03T07:15:50Z</time></trkpt><trkpt lat="49.111912405369154" lon="6.688599240783023"><ele>248.0</ele><time>2026-05-03T07:15:51Z</time></trkpt><trkpt lat="49.11202103955445" lon="6.6885377205208325"><ele>248.0</ele><time>2026-05-03T07:15:52Z</time></trkpt><trkpt lat="49.112124108383085" lon="6.688467991045735"><ele>248.0</ele><time>2026-05-03T07:15:53Z</time></trkpt><trkpt lat="49.11221908924419" lon="6.68840731158952"><ele>248.0</ele><time>2026-05-03T07:15:54Z</time></trkpt><trkpt lat="49.11232302663142" lon="6.688339623912918"><ele>249.2</ele><time>2026-05-03T07:15:55Z</time></trkpt><trkpt lat="49.11242314216337" lon="6.688284912063633"><ele>250.4</ele><time>2026-05-03T07:15:56Z</time></trkpt><trkpt lat="49.11252200289389" lon="6.688225339786705"><ele>251.59999999999997</ele><time>2026-05-03T07:15:57Z</time></trkpt><trkpt lat="49.11261777297268" lon="6.688167149007672"><ele>252.79999999999998</ele><time>2026-05-03T07:15:58Z</time></trkpt><trkpt lat="49.11271114359369" lon="6.688110353597326"><ele>254.0</ele><time>2026-05-03T07:15:59Z</time></trkpt><trkpt lat="49.11280442430689" lon="6.688052022455288"><ele>254.0</ele><time>2026-05-03T07:16:00Z</time></trkpt><trkpt lat="49.11289831983865" lon="6.687996285572127"><ele>253.99999999999997</ele><time>2026-05-03T07:16:01Z</time></trkpt><trkpt lat="49.112987613868114" lon="6.687943569385733"><ele>253.99999999999997</ele><time>2026-05-03T07:16:02Z</time></trkpt><trkpt lat="49.11306748927168" lon="6.687894811434579"><ele>254.0</ele><time>2026-05-03T07:16:03Z</time></trkpt><trkpt lat="49.11316244670021" lon="6.687839632801772"><ele>254.0</ele><time>2026-05-03T07:16:04Z</time></trkpt><trkpt lat="49.113243242645034" lon="6.687780862847831"><ele>254.6</ele><time>2026-05-03T07:16:05Z</time></trkpt><trkpt lat="49.113307962269374" lon="6.687738232705885"><ele>255.2</ele><time>2026-05-03T07:16:06Z</time></trkpt><trkpt lat="49.11336743451884" lon="6.687699209980447"><ele>255.79999999999998</ele><time>2026-05-03T07:16:07Z</time></trkpt><trkpt lat="49.11344769532605" lon="6.687665504115043"><ele>256.4</ele><time>2026-05-03T07:16:09Z</time></trkpt><trkpt lat="49.11342311605515" lon="6.687458831199218"><ele>257.0</ele><time>2026-05-03T07:16:11Z</time></trkpt><trkpt lat="49.11331649059315" lon="6.687337315472786"><ele>257.0</ele><time>2026-05-03T07:16:13Z</time></trkpt><trkpt lat="49.113243193999836" lon="6.687283501507901"><ele>257.0</ele><time>2026-05-03T07:16:14Z</time></trkpt><trkpt lat="49.11316953047556" lon="6.687212392226999"><ele>257.0</ele><time>2026-05-03T07:16:15Z</time></trkpt><trkpt lat="49.11310880916392" lon="6.687136885997304"><ele>257.0</ele><time>2026-05-03T07:16:16Z</time></trkpt><trkpt lat="49.1130364188773" lon="6.687044970204799"><ele>257.0</ele><time>2026-05-03T07:16:17Z</time></trkpt><trkpt lat="49.11297458039738" lon="6.686968230762312"><ele>257.0</ele><time>2026-05-03T07:16:18Z</time></trkpt><trkpt lat="49.11290675156879" lon="6.686883000060661"><ele>258.5</ele><time>2026-05-03T07:16:19Z</time></trkpt><trkpt lat="49.1128300509131" lon="6.686805109473939"><ele>260.0</ele><time>2026-05-03T07:16:20Z</time></trkpt><trkpt lat="49.11275621541656" lon="6.686719408058075"><ele>261.5</ele><time>2026-05-03T07:16:21Z</time></trkpt><trkpt lat="49.11269034043416" lon="6.686655355205652"><ele>263.0</ele><time>2026-05-03T07:16:22Z</time></trkpt><trkpt lat="49.112630138781675" lon="6.686586068218005"><ele>264.5</ele><time>2026-05-03T07:16:23Z</time></trkpt><trkpt lat="49.11255850025162" lon="6.686497933206244"><ele>266.0</ele><time>2026-05-03T07:16:24Z</time></trkpt><trkpt lat="49.11248378282689" lon="6.686433064192376"><ele>266.0</ele><time>2026-05-03T07:16:25Z</time></trkpt><trkpt lat="49.112409316648616" lon="6.686371780170589"><ele>266.0</ele><time>2026-05-03T07:16:26Z</time></trkpt><trkpt lat="49.11233451340331" lon="6.686295265089676"><ele>266.0</ele><time>2026-05-03T07:16:27Z</time></trkpt><trkpt lat="49.11227995627566" lon="6.6862229549531635"><ele>266.0</ele><time>2026-05-03T07:16:28Z</time></trkpt><trkpt lat="49.11223533753767" lon="6.68614827946144"><ele>266.0</ele><time>2026-05-03T07:16:29Z</time></trkpt><trkpt lat="49.11222177480143" lon="6.686051076161977"><ele>266.0</ele><time>2026-05-03T07:16:31Z</time></trkpt><trkpt lat="49.11225378210406" lon="6.685961526298102"><ele>266.0</ele><time>2026-05-03T07:16:32Z</time></trkpt><trkpt lat="49.11227764530366" lon="6.685865205912359"><ele>266.1666666666667</ele><time>2026-05-03T07:16:33Z</time></trkpt><trkpt lat="49.11231118178417" lon="6.685725675474213"><ele>266.33333333333337</ele><time>2026-05-03T07:16:34Z</time></trkpt><trkpt lat="49.112328966987675" lon="6.6855772957383195"><ele>266.5</ele><time>2026-05-03T07:16:35Z</time></trkpt><trkpt lat="49.11234146234013" lon="6.6854443871957265"><ele>266.6666666666667</ele><time>2026-05-03T07:16:36Z</time></trkpt><trkpt lat="49.11236360771828" lon="6.685325447690022"><ele>266.8333333333333</ele><time>2026-05-03T07:16:37Z</time></trkpt><trkpt lat="49.112384674901755" lon="6.685203889703679"><ele>267.0</ele><time>2026-05-03T07:16:38Z</time></trkpt><trkpt lat="49.11240899949226" lon="6.685070190015995"><ele>267.5</ele><time>2026-05-03T07:16:39Z</time></trkpt><trkpt lat="49.112431685079265" lon="6.684951933013324"><ele>268.0</ele><time>2026-05-03T07:16:40Z</time></trkpt><trkpt lat="49.112461810864204" lon="6.68481482516833"><ele>268.5</ele><time>2026-05-03T07:16:41Z</time></trkpt><trkpt lat="49.112483459859206" lon="6.684708980774333"><ele>269.0</ele><time>2026-05-03T07:16:42Z</time></trkpt><trkpt lat="49.1125157899239" lon="6.6845934578172965"><ele>269.5</ele><time>2026-05-03T07:16:43Z</time></trkpt><trkpt lat="49.11255538895401" lon="6.684474788516736"><ele>270.0</ele><time>2026-05-03T07:16:44Z</time></trkpt><trkpt lat="49.112600631813876" lon="6.6843813663920875"><ele>270.0</ele><time>2026-05-03T07:16:45Z</time></trkpt><trkpt lat="49.11263819080697" lon="6.684274087199087"><ele>270.0</ele><time>2026-05-03T07:16:46Z</time></trkpt><trkpt lat="49.11265870356488" lon="6.684157703801357"><ele>270.0</ele><time>2026-05-03T07:16:47Z</time></trkpt><trkpt lat="49.11268456094073" lon="6.684030837081715"><ele>270.0</ele><time>2026-05-03T07:16:48Z</time></trkpt><trkpt lat="49.112700933268435" lon="6.6839143282947795"><ele>270.0</ele><time>2026-05-03T07:16:49Z</time></trkpt><trkpt lat="49.11272090398036" lon="6.6838124474536365"><ele>270.0</ele><time>2026-05-03T07:16:50Z</time></trkpt><trkpt lat="49.112763031498446" lon="6.683699831634519"><ele>270.2</ele><time>2026-05-03T07:16:51Z</time></trkpt><trkpt lat="49.11281888828595" lon="6.683596799986264"><ele>270.4</ele><time>2026-05-03T07:16:52Z</time></trkpt><trkpt lat="49.11289654792026" lon="6.683503522708304"><ele>270.6</ele><time>2026-05-03T07:16:53Z</time></trkpt><trkpt lat="49.11294772826089" lon="6.6834073151009425"><ele>270.8</ele><time>2026-05-03T07:16:54Z</time></trkpt><trkpt lat="49.11298021784182" lon="6.683304564801939"><ele>271.0</ele><time>2026-05-03T07:16:55Z</time></trkpt><trkpt lat="49.11300367106954" lon="6.683103907093905"><ele>271.0</ele><time>2026-05-03T07:16:57Z</time></trkpt><trkpt lat="49.112983614823676" lon="6.682960187557864"><ele>271.0</ele><time>2026-05-03T07:16:58Z</time></trkpt><trkpt lat="49.112945146060234" lon="6.682808287319933"><ele>271.0</ele><time>2026-05-03T07:16:59Z</time></trkpt><trkpt lat="49.11291609592474" lon="6.68267330418652"><ele>271.0</ele><time>2026-05-03T07:17:00Z</time></trkpt><trkpt lat="49.11290875719143" lon="6.6825456780389905"><ele>271.0</ele><time>2026-05-03T07:17:01Z</time></trkpt><trkpt lat="49.11288836706139" lon="6.682407354769553"><ele>271.5</ele><time>2026-05-03T07:17:02Z</time></trkpt><trkpt lat="49.112867743601264" lon="6.6822501245530015"><ele>272.0</ele><time>2026-05-03T07:17:03Z</time></trkpt><trkpt lat="49.1128562736925" lon="6.682121601843037"><ele>272.5</ele><time>2026-05-03T07:17:04Z</time></trkpt><trkpt lat="49.112843514839696" lon="6.681993806593286"><ele>273.0</ele><time>2026-05-03T07:17:05Z</time></trkpt><trkpt lat="49.112828605574826" lon="6.681874003036453"><ele>273.5</ele><time>2026-05-03T07:17:06Z</time></trkpt><trkpt lat="49.112817879080225" lon="6.681755268016094"><ele>274.0</ele><time>2026-05-03T07:17:07Z</time></trkpt><trkpt lat="49.11280444978603" lon="6.6816240895968395"><ele>274.0</ele><time>2026-05-03T07:17:08Z</time></trkpt><trkpt lat="49.1127943475687" lon="6.681491606827678"><ele>274.0</ele><time>2026-05-03T07:17:09Z</time></trkpt><trkpt lat="49.11277003446905" lon="6.681377839631056"><ele>274.0</ele><time>2026-05-03T07:17:10Z</time></trkpt><trkpt lat="49.1127451801349" lon="6.681266600656661"><ele>274.0</ele><time>2026-05-03T07:17:11Z</time></trkpt><trkpt lat="49.112714658087754" lon="6.681154814643559"><ele>274.0</ele><time>2026-05-03T07:17:12Z</time></trkpt><trkpt lat="49.112687324105785" lon="6.6810333207038894"><ele>274.0</ele><time>2026-05-03T07:17:13Z</time></trkpt><trkpt lat="49.11267020266774" lon="6.680910654285123"><ele>274.0</ele><time>2026-05-03T07:17:14Z</time></trkpt><trkpt lat="49.11266634745209" lon="6.680781822505417"><ele>274.0</ele><time>2026-05-03T07:17:15Z</time></trkpt><trkpt lat="49.112650773067784" lon="6.680639081846918"><ele>274.0</ele><time>2026-05-03T07:17:16Z</time></trkpt><trkpt lat="49.1126339376711" lon="6.680523777927306"><ele>274.0</ele><time>2026-05-03T07:17:17Z</time></trkpt><trkpt lat="49.11262484709367" lon="6.680417084529444"><ele>274.0</ele><time>2026-05-03T07:17:18Z</time></trkpt><trkpt lat="49.11261883665841" lon="6.6802936483438815"><ele>274.0</ele><time>2026-05-03T07:17:19Z</time></trkpt><trkpt lat="49.11262475839671" lon="6.680180946718488"><ele>273.5</ele><time>2026-05-03T07:17:20Z</time></trkpt><trkpt lat="49.11264952028494" lon="6.68006519722463"><ele>273.0</ele><time>2026-05-03T07:17:21Z</time></trkpt><trkpt lat="49.11268766487355" lon="6.679943660506486"><ele>272.5</ele><time>2026-05-03T07:17:22Z</time></trkpt><trkpt lat="49.11272798550355" lon="6.679840411679187"><ele>272.0</ele><time>2026-05-03T07:17:23Z</time></trkpt><trkpt lat="49.1127607135517" lon="6.679745416807367"><ele>271.5</ele><time>2026-05-03T07:17:24Z</time></trkpt><trkpt lat="49.112797009766915" lon="6.679629167399338"><ele>271.0</ele><time>2026-05-03T07:17:25Z</time></trkpt><trkpt lat="49.11282269984665" lon="6.679514714895656"><ele>270.66666666666663</ele><time>2026-05-03T07:17:26Z</time></trkpt><trkpt lat="49.112840427423095" lon="6.679399204927319"><ele>270.3333333333333</ele><time>2026-05-03T07:17:27Z</time></trkpt><trkpt lat="49.11285570749058" lon="6.679277535386521"><ele>270.0</ele><time>2026-05-03T07:17:28Z</time></trkpt><trkpt lat="49.112860187471796" lon="6.679156231551779"><ele>269.6666666666667</ele><time>2026-05-03T07:17:29Z</time></trkpt><trkpt lat="49.112870245863746" lon="6.679029485802909"><ele>269.33333333333337</ele><time>2026-05-03T07:17:30Z</time></trkpt><trkpt lat="49.11287687410941" lon="6.6789244685408695"><ele>269.0</ele><time>2026-05-03T07:17:31Z</time></trkpt><trkpt lat="49.11288286550287" lon="6.678814549971561"><ele>269.0</ele><time>2026-05-03T07:17:32Z</time></trkpt><trkpt lat="49.112895330590305" lon="6.678713511434169"><ele>269.0</ele><time>2026-05-03T07:17:33Z</time></trkpt><trkpt lat="49.11296176211368" lon="6.678544117571018"><ele>269.0</ele><time>2026-05-03T07:17:35Z</time></trkpt><trkpt lat="49.11302335892628" lon="6.678369995010931"><ele>269.0</ele><time>2026-05-03T07:17:37Z</time></trkpt><trkpt lat="49.113088116145555" lon="6.678221919844813"><ele>269.0</ele><time>2026-05-03T07:17:39Z</time></trkpt><trkpt lat="49.113176385881374" lon="6.678081020383535"><ele>268.6666666666667</ele><time>2026-05-03T07:17:41Z</time></trkpt><trkpt lat="49.113261952681654" lon="6.677968570857702"><ele>268.33333333333337</ele><time>2026-05-03T07:17:43Z</time></trkpt><trkpt lat="49.113310641635024" lon="6.677907389658813"><ele>268.0</ele><time>2026-05-03T07:17:45Z</time></trkpt><trkpt lat="49.11333968044" lon="6.677812090540253"><ele>267.6666666666667</ele><time>2026-05-03T07:17:50Z</time></trkpt><trkpt lat="49.11327881859841" lon="6.677905569562853"><ele>267.3333333333333</ele><time>2026-05-03T07:18:13Z</time></trkpt><trkpt lat="49.11323444691362" lon="6.678008495399245"><ele>267.0</ele><time>2026-05-03T07:18:14Z</time></trkpt><trkpt lat="49.113175411117815" lon="6.678099234831921"><ele>267.0</ele><time>2026-05-03T07:18:15Z</time></trkpt><trkpt lat="49.11310203762289" lon="6.678198388731963"><ele>267.0</ele><time>2026-05-03T07:18:16Z</time></trkpt><trkpt lat="49.11304718382637" lon="6.678286352431969"><ele>267.0</ele><time>2026-05-03T07:18:17Z</time></trkpt><trkpt lat="49.113009321128715" lon="6.6783706549194"><ele>267.0</ele><time>2026-05-03T07:18:18Z</time></trkpt><trkpt lat="49.11297421217254" lon="6.678466579030643"><ele>267.0</ele><time>2026-05-03T07:18:19Z</time></trkpt><trkpt lat="49.11293433591327" lon="6.678602189988605"><ele>267.0</ele><time>2026-05-03T07:18:21Z</time></trkpt><trkpt lat="49.112898665904915" lon="6.678701289566538"><ele>266.8333333333333</ele><time>2026-05-03T07:18:24Z</time></trkpt><trkpt lat="49.11289422236279" lon="6.6788069281163205"><ele>266.6666666666667</ele><time>2026-05-03T07:18:38Z</time></trkpt><trkpt lat="49.11295508922834" lon="6.678860082849427"><ele>266.5</ele><time>2026-05-03T07:18:40Z</time></trkpt><trkpt lat="49.11305413784339" lon="6.678847812872421"><ele>266.33333333333337</ele><time>2026-05-03T07:18:42Z</time></trkpt><trkpt lat="49.11313435782426" lon="6.678849275937989"><ele>266.1666666666667</ele><time>2026-05-03T07:18:44Z</time></trkpt><trkpt lat="49.11321542977272" lon="6.678880949543717"><ele>266.0</ele><time>2026-05-03T07:18:46Z</time></trkpt><trkpt lat="49.11327856381262" lon="6.678905541491965"><ele>266.0</ele><time>2026-05-03T07:18:59Z</time></trkpt><trkpt lat="49.113361955611104" lon="6.678955845606789"><ele>266.0</ele><time>2026-05-03T07:19:01Z</time></trkpt><trkpt lat="49.113450454934664" lon="6.679024110471093"><ele>266.0</ele><time>2026-05-03T07:19:03Z</time></trkpt><trkpt lat="49.113549289056934" lon="6.679103913016449"><ele>266.0</ele><time>2026-05-03T07:19:05Z</time></trkpt><trkpt lat="49.113648646338866" lon="6.6792028676667865"><ele>266.0</ele><time>2026-05-03T07:19:07Z</time></trkpt><trkpt lat="49.11371685722183" lon="6.679294057006803"><ele>266.0</ele><time>2026-05-03T07:19:09Z</time></trkpt><trkpt lat="49.113798721011186" lon="6.679393642872952"><ele>266.0</ele><time>2026-05-03T07:19:11Z</time></trkpt><trkpt lat="49.11387028585098" lon="6.679507289198868"><ele>266.0</ele><time>2026-05-03T07:19:13Z</time></trkpt><trkpt lat="49.113951623305155" lon="6.6796407573451875"><ele>266.0</ele><time>2026-05-03T07:19:15Z</time></trkpt><trkpt lat="49.11403555855931" lon="6.679740128582857"><ele>266.0</ele><time>2026-05-03T07:19:17Z</time></trkpt><trkpt lat="49.11413312790104" lon="6.679848369765594"><ele>266.2</ele><time>2026-05-03T07:19:19Z</time></trkpt><trkpt lat="49.1142222839974" lon="6.6799400317644295"><ele>266.40000000000003</ele><time>2026-05-03T07:19:21Z</time></trkpt><trkpt lat="49.114312379107204" lon="6.680055272713317"><ele>266.6</ele><time>2026-05-03T07:19:23Z</time></trkpt><trkpt lat="49.114395101074" lon="6.680147306179647"><ele>266.8</ele><time>2026-05-03T07:19:25Z</time></trkpt><trkpt lat="49.114484000492574" lon="6.680268269949399"><ele>267.0</ele><time>2026-05-03T07:19:27Z</time></trkpt><trkpt lat="49.114580864140784" lon="6.680376252947843"><ele>267.4</ele><time>2026-05-03T07:19:29Z</time></trkpt><trkpt lat="49.11467967766946" lon="6.680485095204828"><ele>267.79999999999995</ele><time>2026-05-03T07:19:31Z</time></trkpt><trkpt lat="49.11473301995331" lon="6.680536375699631"><ele>268.2</ele><time>2026-05-03T07:19:32Z</time></trkpt><trkpt lat="49.114826622841804" lon="6.680629598417125"><ele>268.59999999999997</ele><time>2026-05-03T07:19:34Z</time></trkpt><trkpt lat="49.11492387569572" lon="6.680742866439698"><ele>269.0</ele><time>2026-05-03T07:19:36Z</time></trkpt><trkpt lat="49.115007033622405" lon="6.680849088631153"><ele>266.59999999999997</ele><time>2026-05-03T07:19:38Z</time></trkpt><trkpt lat="49.11508017225103" lon="6.680960945678245"><ele>264.2</ele><time>2026-05-03T07:19:40Z</time></trkpt><trkpt lat="49.11515104421608" lon="6.681064826945849"><ele>261.79999999999995</ele><time>2026-05-03T07:19:42Z</time></trkpt><trkpt lat="49.115223468845215" lon="6.681139281181648"><ele>259.4</ele><time>2026-05-03T07:19:44Z</time></trkpt><trkpt lat="49.11530331430103" lon="6.681224743720485"><ele>257.0</ele><time>2026-05-03T07:19:46Z</time></trkpt><trkpt lat="49.115374989384165" lon="6.681285907110355"><ele>257.0</ele><time>2026-05-03T07:19:48Z</time></trkpt><trkpt lat="49.115429221877896" lon="6.681361123588547"><ele>257.0</ele><time>2026-05-03T07:19:50Z</time></trkpt><trkpt lat="49.115506712405306" lon="6.681444743056283"><ele>257.0</ele><time>2026-05-03T07:19:52Z</time></trkpt><trkpt lat="49.11556838584194" lon="6.681500256824482"><ele>257.0</ele><time>2026-05-03T07:19:54Z</time></trkpt><trkpt lat="49.11565556309764" lon="6.6815938129816175"><ele>257.0</ele><time>2026-05-03T07:19:56Z</time></trkpt><trkpt lat="49.11572689863104" lon="6.6816791056007565"><ele>257.0</ele><time>2026-05-03T07:19:58Z</time></trkpt><trkpt lat="49.11581393304772" lon="6.681776906880819"><ele>255.39999999999998</ele><time>2026-05-03T07:20:00Z</time></trkpt><trkpt lat="49.11588531687433" lon="6.681896449032946"><ele>253.79999999999998</ele><time>2026-05-03T07:20:02Z</time></trkpt><trkpt lat="49.11597154350218" lon="6.6819767881985985"><ele>252.2</ele><time>2026-05-03T07:20:04Z</time></trkpt><trkpt lat="49.11604971872134" lon="6.682055257532547"><ele>250.6</ele><time>2026-05-03T07:20:06Z</time></trkpt><trkpt lat="49.11610386278553" lon="6.682116462214359"><ele>249.0</ele><time>2026-05-03T07:20:08Z</time></trkpt><trkpt lat="49.11618566981799" lon="6.682006915691846"><ele>249.0</ele><time>2026-05-03T07:20:28Z</time></trkpt><trkpt lat="49.11624670085915" lon="6.68190750266739"><ele>248.99999999999997</ele><time>2026-05-03T07:20:29Z</time></trkpt><trkpt lat="49.116298770126605" lon="6.681797258882255"><ele>248.99999999999997</ele><time>2026-05-03T07:20:30Z</time></trkpt><trkpt lat="49.11634820165929" lon="6.6816721353091735"><ele>249.0</ele><time>2026-05-03T07:20:31Z</time></trkpt><trkpt lat="49.116424371646666" lon="6.681567879937526"><ele>249.0</ele><time>2026-05-03T07:20:32Z</time></trkpt><trkpt lat="49.11650161440371" lon="6.681452807091741"><ele>248.0</ele><time>2026-05-03T07:20:33Z</time></trkpt><trkpt lat="49.11658256765524" lon="6.6813322072068155"><ele>246.99999999999997</ele><time>2026-05-03T07:20:34Z</time></trkpt><trkpt lat="49.1166582094981" lon="6.681219519655535"><ele>245.99999999999997</ele><time>2026-05-03T07:20:35Z</time></trkpt><trkpt lat="49.11672681341668" lon="6.681117316689656"><ele>245.0</ele><time>2026-05-03T07:20:36Z</time></trkpt><trkpt lat="49.116795365289754" lon="6.6810151911043105"><ele>244.0</ele><time>2026-05-03T07:20:37Z</time></trkpt><trkpt lat="49.11685844774456" lon="6.68088640846171"><ele>243.79999999999998</ele><time>2026-05-03T07:20:38Z</time></trkpt><trkpt lat="49.11691406013676" lon="6.680802393670068"><ele>243.59999999999997</ele><time>2026-05-03T07:20:39Z</time></trkpt><trkpt lat="49.11696500346714" lon="6.680676282751591"><ele>243.4</ele><time>2026-05-03T07:20:40Z</time></trkpt><trkpt lat="49.11701884527459" lon="6.680570011287922"><ele>243.2</ele><time>2026-05-03T07:20:41Z</time></trkpt><trkpt lat="49.11706647840012" lon="6.680434377636637"><ele>243.0</ele><time>2026-05-03T07:20:42Z</time></trkpt><trkpt lat="49.117141238588474" lon="6.680298388450154"><ele>243.16666666666666</ele><time>2026-05-03T07:20:43Z</time></trkpt><trkpt lat="49.11718008332773" lon="6.680211313534704"><ele>243.33333333333331</ele><time>2026-05-03T07:20:44Z</time></trkpt><trkpt lat="49.11722327894892" lon="6.680105139897031"><ele>243.5</ele><time>2026-05-03T07:20:45Z</time></trkpt><trkpt lat="49.11729734062442" lon="6.6800233429248514"><ele>243.66666666666666</ele><time>2026-05-03T07:20:46Z</time></trkpt><trkpt lat="49.1173653123565" lon="6.679946934440757"><ele>243.83333333333331</ele><time>2026-05-03T07:20:47Z</time></trkpt><trkpt lat="49.117420032859954" lon="6.67989346549479"><ele>244.0</ele><time>2026-05-03T07:20:48Z</time></trkpt><trkpt lat="49.11750302204689" lon="6.679782235280754"><ele>244.0</ele><time>2026-05-03T07:20:50Z</time></trkpt><trkpt lat="49.11744534032909" lon="6.6796020905122555"><ele>243.99999999999997</ele><time>2026-05-03T07:20:55Z</time></trkpt><trkpt lat="49.117375415701225" lon="6.6794880703194535"><ele>243.99999999999997</ele><time>2026-05-03T07:20:58Z</time></trkpt><trkpt lat="49.117315129423034" lon="6.6794209703282155"><ele>244.0</ele><time>2026-05-03T07:21:00Z</time></trkpt><trkpt lat="49.117245266678985" lon="6.679342714056704"><ele>244.0</ele><time>2026-05-03T07:21:02Z</time></trkpt><trkpt lat="49.11715486655523" lon="6.679268073349062"><ele>244.49999999999997</ele><time>2026-05-03T07:21:04Z</time></trkpt><trkpt lat="49.1170575363715" lon="6.67914456236885"><ele>245.0</ele><time>2026-05-03T07:21:06Z</time></trkpt><trkpt lat="49.11700346033174" lon="6.679072332841027"><ele>245.5</ele><time>2026-05-03T07:21:07Z</time></trkpt><trkpt lat="49.116942175893804" lon="6.679005333102272"><ele>246.0</ele><time>2026-05-03T07:21:08Z</time></trkpt><trkpt lat="49.11688443441422" lon="6.678908119741364"><ele>246.49999999999997</ele><time>2026-05-03T07:21:09Z</time></trkpt><trkpt lat="49.116822201153205" lon="6.678833024919475"><ele>247.0</ele><time>2026-05-03T07:21:10Z</time></trkpt><trkpt lat="49.11675143861943" lon="6.678779932924816"><ele>246.99999999999997</ele><time>2026-05-03T07:21:11Z</time></trkpt><trkpt lat="49.11669901761049" lon="6.678680637154248"><ele>247.0</ele><time>2026-05-03T07:21:12Z</time></trkpt><trkpt lat="49.116637613442435" lon="6.6785943593793515"><ele>247.0</ele><time>2026-05-03T07:21:13Z</time></trkpt><trkpt lat="49.11658698427118" lon="6.678502076136168"><ele>247.0</ele><time>2026-05-03T07:21:14Z</time></trkpt><trkpt lat="49.11653593422521" lon="6.678401310917132"><ele>246.99999999999997</ele><time>2026-05-03T07:21:15Z</time></trkpt><trkpt lat="49.116503567859766" lon="6.678316264460461"><ele>247.0</ele><time>2026-05-03T07:21:16Z</time></trkpt><trkpt lat="49.116475448735066" lon="6.678225740471558"><ele>247.83333333333331</ele><time>2026-05-03T07:21:17Z</time></trkpt><trkpt lat="49.11643964346266" lon="6.6780370768439345"><ele>248.66666666666666</ele><time>2026-05-03T07:21:19Z</time></trkpt><trkpt lat="49.11642098705502" lon="6.677915886959427"><ele>249.5</ele><time>2026-05-03T07:21:20Z</time></trkpt><trkpt lat="49.11642263366108" lon="6.677796717396698"><ele>250.33333333333331</ele><time>2026-05-03T07:21:21Z</time></trkpt><trkpt lat="49.116419114350165" lon="6.677676503543016"><ele>251.16666666666666</ele><time>2026-05-03T07:21:22Z</time></trkpt><trkpt lat="49.11642048336213" lon="6.677567772086235"><ele>252.0</ele><time>2026-05-03T07:21:23Z</time></trkpt><trkpt lat="49.11642261491518" lon="6.677460732657703"><ele>252.16666666666666</ele><time>2026-05-03T07:21:24Z</time></trkpt><trkpt lat="49.11641836877864" lon="6.677348000149072"><ele>252.33333333333331</ele><time>2026-05-03T07:21:25Z</time></trkpt><trkpt lat="49.11642779112919" lon="6.67720496648845"><ele>252.5</ele><time>2026-05-03T07:21:26Z</time></trkpt><trkpt lat="49.11640938158475" lon="6.677069275256986"><ele>252.66666666666666</ele><time>2026-05-03T07:21:27Z</time></trkpt><trkpt lat="49.11640578184897" lon="6.6769332504387435"><ele>252.83333333333331</ele><time>2026-05-03T07:21:28Z</time></trkpt><trkpt lat="49.11641055855777" lon="6.676808411571415"><ele>253.0</ele><time>2026-05-03T07:21:29Z</time></trkpt><trkpt lat="49.11638571730358" lon="6.676688986890512"><ele>253.0</ele><time>2026-05-03T07:21:30Z</time></trkpt><trkpt lat="49.11637913900514" lon="6.67657747830604"><ele>253.0</ele><time>2026-05-03T07:21:31Z</time></trkpt><trkpt lat="49.11636976313129" lon="6.676447549441202"><ele>253.0</ele><time>2026-05-03T07:21:32Z</time></trkpt><trkpt lat="49.116360145363736" lon="6.676320317221775"><ele>253.0</ele><time>2026-05-03T07:21:33Z</time></trkpt><trkpt lat="49.116325460708424" lon="6.6762093573779415"><ele>253.0</ele><time>2026-05-03T07:21:34Z</time></trkpt><trkpt lat="49.11625547785996" lon="6.676007275833657"><ele>252.99999999999997</ele><time>2026-05-03T07:21:36Z</time></trkpt><trkpt lat="49.11617432954675" lon="6.675969146480408"><ele>253.0</ele><time>2026-05-03T07:21:37Z</time></trkpt><trkpt lat="49.11610854259" lon="6.6759143775109635"><ele>253.0</ele><time>2026-05-03T07:21:38Z</time></trkpt><trkpt lat="49.11603124065512" lon="6.675850577812788"><ele>253.0</ele><time>2026-05-03T07:21:39Z</time></trkpt><trkpt lat="49.11594656102964" lon="6.675775510150753"><ele>252.99999999999997</ele><time>2026-05-03T07:21:40Z</time></trkpt><trkpt lat="49.11586839677658" lon="6.675696983131812"><ele>253.0</ele><time>2026-05-03T07:21:41Z</time></trkpt><trkpt lat="49.115785233602544" lon="6.675612271914105"><ele>253.25</ele><time>2026-05-03T07:21:42Z</time></trkpt><trkpt lat="49.115694197601705" lon="6.675522312014802"><ele>253.5</ele><time>2026-05-03T07:21:43Z</time></trkpt><trkpt lat="49.115604416953026" lon="6.675439031192801"><ele>253.75</ele><time>2026-05-03T07:21:44Z</time></trkpt><trkpt lat="49.115424827756016" lon="6.6752463360293754"><ele>254.0</ele><time>2026-05-03T07:21:46Z</time></trkpt><trkpt lat="49.11532353762687" lon="6.675154211185941"><ele>254.0</ele><time>2026-05-03T07:21:47Z</time></trkpt><trkpt lat="49.11522065344448" lon="6.675062279269231"><ele>254.0</ele><time>2026-05-03T07:21:48Z</time></trkpt><trkpt lat="49.115118129492444" lon="6.67497066925402"><ele>254.0</ele><time>2026-05-03T07:21:49Z</time></trkpt><trkpt lat="49.11501334440307" lon="6.674877038767012"><ele>254.0</ele><time>2026-05-03T07:21:50Z</time></trkpt><trkpt lat="49.114906419745346" lon="6.674799832253769"><ele>254.2</ele><time>2026-05-03T07:21:51Z</time></trkpt><trkpt lat="49.1148169346166" lon="6.674690330482225"><ele>254.39999999999998</ele><time>2026-05-03T07:21:52Z</time></trkpt><trkpt lat="49.11472547944379" lon="6.674599465734528"><ele>254.6</ele><time>2026-05-03T07:21:53Z</time></trkpt><trkpt lat="49.11464428568253" lon="6.674516482495458"><ele>254.8</ele><time>2026-05-03T07:21:54Z</time></trkpt><trkpt lat="49.11456074983867" lon="6.674431105536915"><ele>255.0</ele><time>2026-05-03T07:21:55Z</time></trkpt><trkpt lat="49.11446200668981" lon="6.674352655681863"><ele>255.0</ele><time>2026-05-03T07:21:56Z</time></trkpt><trkpt lat="49.11437652529018" lon="6.674251607002015"><ele>255.0</ele><time>2026-05-03T07:21:57Z</time></trkpt><trkpt lat="49.114282706335224" lon="6.674155167827528"><ele>255.0</ele><time>2026-05-03T07:21:58Z</time></trkpt><trkpt lat="49.114184433289196" lon="6.67407134678993"><ele>255.0</ele><time>2026-05-03T07:21:59Z</time></trkpt><trkpt lat="49.11410528035865" lon="6.673979795982903"><ele>255.0</ele><time>2026-05-03T07:22:00Z</time></trkpt><trkpt lat="49.11402794468385" lon="6.673899879393467"><ele>255.0</ele><time>2026-05-03T07:22:01Z</time></trkpt><trkpt lat="49.113954671846116" lon="6.673810758084946"><ele>255.0</ele><time>2026-05-03T07:22:02Z</time></trkpt><trkpt lat="49.11389179944746" lon="6.67373317461541"><ele>255.0</ele><time>2026-05-03T07:22:03Z</time></trkpt><trkpt lat="49.11382463673401" lon="6.673630244959082"><ele>255.0</ele><time>2026-05-03T07:22:04Z</time></trkpt><trkpt lat="49.113738105848036" lon="6.673555892039164"><ele>255.0</ele><time>2026-05-03T07:22:05Z</time></trkpt><trkpt lat="49.113673363162484" lon="6.673475541269856"><ele>254.6</ele><time>2026-05-03T07:22:06Z</time></trkpt><trkpt lat="49.11363168071307" lon="6.673378863147053"><ele>254.2</ele><time>2026-05-03T07:22:07Z</time></trkpt><trkpt lat="49.11354887037616" lon="6.6732305685773525"><ele>253.8</ele><time>2026-05-03T07:22:09Z</time></trkpt><trkpt lat="49.11348918068194" lon="6.673110702293828"><ele>253.4</ele><time>2026-05-03T07:22:11Z</time></trkpt><trkpt lat="49.113480014718654" lon="6.67291772082321"><ele>253.0</ele><time>2026-05-03T07:22:13Z</time></trkpt><trkpt lat="49.11348279657953" lon="6.6728102061727395"><ele>252.8571428571429</ele><time>2026-05-03T07:22:14Z</time></trkpt><trkpt lat="49.11348028928574" lon="6.672703345619526"><ele>252.71428571428572</ele><time>2026-05-03T07:22:15Z</time></trkpt><trkpt lat="49.11347481117097" lon="6.672587560766561"><ele>252.57142857142858</ele><time>2026-05-03T07:22:16Z</time></trkpt><trkpt lat="49.11347184548075" lon="6.672468211398309"><ele>252.42857142857144</ele><time>2026-05-03T07:22:17Z</time></trkpt><trkpt lat="49.11346666451599" lon="6.6723474069768285"><ele>252.28571428571428</ele><time>2026-05-03T07:22:18Z</time></trkpt><trkpt lat="49.113449089087666" lon="6.672241216328701"><ele>252.14285714285714</ele><time>2026-05-03T07:22:19Z</time></trkpt><trkpt lat="49.113424987512865" lon="6.672150821195623"><ele>252.0</ele><time>2026-05-03T07:22:20Z</time></trkpt><trkpt lat="49.113362272642306" lon="6.6720007486365125"><ele>251.75</ele><time>2026-05-03T07:22:22Z</time></trkpt><trkpt lat="49.11329104294026" lon="6.671867149804808"><ele>251.5</ele><time>2026-05-03T07:22:24Z</time></trkpt><trkpt lat="49.11322101328854" lon="6.671734791735233"><ele>251.25</ele><time>2026-05-03T07:22:26Z</time></trkpt><trkpt lat="49.11314016726297" lon="6.671652831926303"><ele>251.0</ele><time>2026-05-03T07:22:28Z</time></trkpt><trkpt lat="49.11322536168551" lon="6.671492017162962"><ele>251.0</ele><time>2026-05-03T07:22:29Z</time></trkpt><trkpt lat="49.11325878488538" lon="6.67134883716895"><ele>251.0</ele><time>2026-05-03T07:22:30Z</time></trkpt><trkpt lat="49.11330275474418" lon="6.671150519881424"><ele>251.0</ele><time>2026-05-03T07:22:31Z</time></trkpt><trkpt lat="49.11334438061162" lon="6.670976310275097"><ele>251.0</ele><time>2026-05-03T07:22:32Z</time></trkpt><trkpt lat="49.113390079356584" lon="6.67079957759116"><ele>250.5</ele><time>2026-05-03T07:22:33Z</time></trkpt><trkpt lat="49.113437208416855" lon="6.670616323549081"><ele>250.0</ele><time>2026-05-03T07:22:34Z</time></trkpt><trkpt lat="49.11347910906906" lon="6.670419998331066"><ele>249.5</ele><time>2026-05-03T07:22:35Z</time></trkpt><trkpt lat="49.11352060886998" lon="6.67021239251629"><ele>249.0</ele><time>2026-05-03T07:22:36Z</time></trkpt><trkpt lat="49.11356617623975" lon="6.669996081565123"><ele>248.33333333333331</ele><time>2026-05-03T07:22:37Z</time></trkpt><trkpt lat="49.11361276347906" lon="6.669783079871377"><ele>247.66666666666666</ele><time>2026-05-03T07:22:38Z</time></trkpt><trkpt lat="49.11365620057348" lon="6.669578992229922"><ele>247.0</ele><time>2026-05-03T07:22:39Z</time></trkpt><trkpt lat="49.11375096281429" lon="6.669176368973498"><ele>246.75</ele><time>2026-05-03T07:22:41Z</time></trkpt><trkpt lat="49.11379651096634" lon="6.66896314457375"><ele>246.5</ele><time>2026-05-03T07:22:42Z</time></trkpt><trkpt lat="49.113838204931575" lon="6.668759071182296"><ele>246.25</ele><time>2026-05-03T07:22:43Z</time></trkpt><trkpt lat="49.1138837857075" lon="6.668580507143367"><ele>246.0</ele><time>2026-05-03T07:22:44Z</time></trkpt><trkpt lat="49.11393516679911" lon="6.6684107394002945"><ele>245.75</ele><time>2026-05-03T07:22:45Z</time></trkpt><trkpt lat="49.11404125990903" lon="6.668293879113987"><ele>245.5</ele><time>2026-05-03T07:22:46Z</time></trkpt><trkpt lat="49.11411851608882" lon="6.6681376483013155"><ele>245.25</ele><time>2026-05-03T07:22:47Z</time></trkpt><trkpt lat="49.11415833127686" lon="6.667934893064274"><ele>245.0</ele><time>2026-05-03T07:22:48Z</time></trkpt><trkpt lat="49.11421721378873" lon="6.6677384951969705"><ele>246.25</ele><time>2026-05-03T07:22:49Z</time></trkpt><trkpt lat="49.11426468440446" lon="6.667530505408395"><ele>247.5</ele><time>2026-05-03T07:22:50Z</time></trkpt><trkpt lat="49.114298896434605" lon="6.667314887943741"><ele>248.75</ele><time>2026-05-03T07:22:51Z</time></trkpt><trkpt lat="49.11426585508511" lon="6.6670968818686855"><ele>250.0</ele><time>2026-05-03T07:22:52Z</time></trkpt><trkpt lat="49.1142817794988" lon="6.666909619260432"><ele>250.0</ele><time>2026-05-03T07:22:53Z</time></trkpt><trkpt lat="49.114320105940706" lon="6.666749816681262"><ele>250.0</ele><time>2026-05-03T07:22:54Z</time></trkpt><trkpt lat="49.114365330598076" lon="6.666558900555531"><ele>250.0</ele><time>2026-05-03T07:22:55Z</time></trkpt><trkpt lat="49.11441311404956" lon="6.666364325685216"><ele>250.0</ele><time>2026-05-03T07:22:56Z</time></trkpt><trkpt lat="49.11445516645602" lon="6.66619390391151"><ele>250.4</ele><time>2026-05-03T07:22:57Z</time></trkpt><trkpt lat="49.11448746804778" lon="6.666035046318686"><ele>250.8</ele><time>2026-05-03T07:22:58Z</time></trkpt><trkpt lat="49.114564417772556" lon="6.665943411208375"><ele>251.2</ele><time>2026-05-03T07:22:59Z</time></trkpt><trkpt lat="49.11465778311942" lon="6.665904467719939"><ele>251.6</ele><time>2026-05-03T07:23:00Z</time></trkpt><trkpt lat="49.114738652882075" lon="6.665842653476695"><ele>252.0</ele><time>2026-05-03T07:23:01Z</time></trkpt><trkpt lat="49.11478479554006" lon="6.665705753400962"><ele>252.0</ele><time>2026-05-03T07:23:02Z</time></trkpt><trkpt lat="49.11480879045644" lon="6.665552195561003"><ele>252.0</ele><time>2026-05-03T07:23:03Z</time></trkpt><trkpt lat="49.11483531630813" lon="6.665415653530586"><ele>252.0</ele><time>2026-05-03T07:23:04Z</time></trkpt><trkpt lat="49.11486015539975" lon="6.66529988644432"><ele>252.0</ele><time>2026-05-03T07:23:05Z</time></trkpt><trkpt lat="49.11488444423172" lon="6.665186221574875"><ele>252.0</ele><time>2026-05-03T07:23:06Z</time></trkpt><trkpt lat="49.114922825418816" lon="6.665088417415566"><ele>252.0</ele><time>2026-05-03T07:23:07Z</time></trkpt><trkpt lat="49.11491857489712" lon="6.664985428693028"><ele>252.2</ele><time>2026-05-03T07:23:08Z</time></trkpt><trkpt lat="49.114896314883964" lon="6.664804032739593"><ele>252.39999999999998</ele><time>2026-05-03T07:23:10Z</time></trkpt><trkpt lat="49.11482830132057" lon="6.664738327784225"><ele>252.60000000000002</ele><time>2026-05-03T07:23:11Z</time></trkpt><trkpt lat="49.11473427202531" lon="6.664744278468537"><ele>252.8</ele><time>2026-05-03T07:23:12Z</time></trkpt><trkpt lat="49.11466195184929" lon="6.664700209600781"><ele>253.0</ele><time>2026-05-03T07:23:13Z</time></trkpt><trkpt lat="49.114609331108355" lon="6.664594225228604"><ele>253.0</ele><time>2026-05-03T07:23:14Z</time></trkpt><trkpt lat="49.114565895746885" lon="6.664458086701589"><ele>253.0</ele><time>2026-05-03T07:23:15Z</time></trkpt><trkpt lat="49.114502738815794" lon="6.664345584447643"><ele>253.0</ele><time>2026-05-03T07:23:16Z</time></trkpt><trkpt lat="49.114405558953635" lon="6.664281756428939"><ele>253.0</ele><time>2026-05-03T07:23:17Z</time></trkpt><trkpt lat="49.11429265364351" lon="6.664273381240238"><ele>253.0</ele><time>2026-05-03T07:23:18Z</time></trkpt><trkpt lat="49.11419202963094" lon="6.664321338488365"><ele>252.5</ele><time>2026-05-03T07:23:19Z</time></trkpt><trkpt lat="49.11408999170994" lon="6.664366402140622"><ele>252.0</ele><time>2026-05-03T07:23:20Z</time></trkpt><trkpt lat="49.11398390835196" lon="6.6643379199531125"><ele>251.5</ele><time>2026-05-03T07:23:21Z</time></trkpt><trkpt lat="49.113874200554775" lon="6.664249354032852"><ele>251.0</ele><time>2026-05-03T07:23:22Z</time></trkpt><trkpt lat="49.11380962981576" lon="6.664047062572086"><ele>250.33333333333334</ele><time>2026-05-03T07:23:23Z</time></trkpt><trkpt lat="49.113707942147386" lon="6.663837428140234"><ele>249.66666666666669</ele><time>2026-05-03T07:23:24Z</time></trkpt><trkpt lat="49.113570877839145" lon="6.663593839330831"><ele>249.0</ele><time>2026-05-03T07:23:25Z</time></trkpt><trkpt lat="49.113439478278075" lon="6.663308293537521"><ele>249.0</ele><time>2026-05-03T07:23:26Z</time></trkpt><trkpt lat="49.113292551580656" lon="6.66300666297876"><ele>249.0</ele><time>2026-05-03T07:23:27Z</time></trkpt><trkpt lat="49.113147721465765" lon="6.662703983325089"><ele>251.33333333333331</ele><time>2026-05-03T07:23:28Z</time></trkpt><trkpt lat="49.11301603570833" lon="6.66243484376637"><ele>253.66666666666666</ele><time>2026-05-03T07:23:29Z</time></trkpt><trkpt lat="49.11289659873963" lon="6.66218880505877"><ele>256.0</ele><time>2026-05-03T07:23:30Z</time></trkpt><trkpt lat="49.11278670833928" lon="6.661957577491121"><ele>255.0</ele><time>2026-05-03T07:23:31Z</time></trkpt><trkpt lat="49.112670373836" lon="6.661719694558896"><ele>254.0</ele><time>2026-05-03T07:23:32Z</time></trkpt><trkpt lat="49.112555362450465" lon="6.6614841300319245"><ele>253.0</ele><time>2026-05-03T07:23:33Z</time></trkpt><trkpt lat="49.11244104124912" lon="6.661251000490091"><ele>254.66666666666666</ele><time>2026-05-03T07:23:34Z</time></trkpt><trkpt lat="49.1123265546023" lon="6.661016356291575"><ele>256.3333333333333</ele><time>2026-05-03T07:23:35Z</time></trkpt><trkpt lat="49.11221346933164" lon="6.6607815179662495"><ele>258.0</ele><time>2026-05-03T07:23:36Z</time></trkpt><trkpt lat="49.112101103511904" lon="6.660550178722386"><ele>258.0</ele><time>2026-05-03T07:23:37Z</time></trkpt><trkpt lat="49.11198825481889" lon="6.660317963377777"><ele>258.0</ele><time>2026-05-03T07:23:38Z</time></trkpt><trkpt lat="49.11187623203576" lon="6.660083289814525"><ele>258.0</ele><time>2026-05-03T07:23:39Z</time></trkpt><trkpt lat="49.11176530949493" lon="6.659848505620288"><ele>258.0</ele><time>2026-05-03T07:23:40Z</time></trkpt><trkpt lat="49.11165428953295" lon="6.659622973635802"><ele>258.0</ele><time>2026-05-03T07:23:41Z</time></trkpt><trkpt lat="49.111543589854385" lon="6.659404785823294"><ele>258.0</ele><time>2026-05-03T07:23:42Z</time></trkpt><trkpt lat="49.11143805243968" lon="6.65919427287206"><ele>259.0</ele><time>2026-05-03T07:23:43Z</time></trkpt><trkpt lat="49.11133483708817" lon="6.658979423504602"><ele>260.0</ele><time>2026-05-03T07:23:44Z</time></trkpt><trkpt lat="49.11123304483301" lon="6.6587627911110605"><ele>261.0</ele><time>2026-05-03T07:23:45Z</time></trkpt><trkpt lat="49.11112858748063" lon="6.658546252503161"><ele>261.0</ele><time>2026-05-03T07:23:46Z</time></trkpt><trkpt lat="49.11102122043072" lon="6.658322258335189"><ele>261.0</ele><time>2026-05-03T07:23:47Z</time></trkpt><trkpt lat="49.11091006221398" lon="6.658092801483727"><ele>261.0</ele><time>2026-05-03T07:23:48Z</time></trkpt><trkpt lat="49.110797102747085" lon="6.657864147067274"><ele>262.0</ele><time>2026-05-03T07:23:49Z</time></trkpt><trkpt lat="49.11068461010418" lon="6.657635711699521"><ele>263.0</ele><time>2026-05-03T07:23:50Z</time></trkpt><trkpt lat="49.11057100798028" lon="6.657402108080164"><ele>264.0</ele><time>2026-05-03T07:23:51Z</time></trkpt><trkpt lat="49.110456537296436" lon="6.657168384884597"><ele>264.0</ele><time>2026-05-03T07:23:52Z</time></trkpt><trkpt lat="49.110341584572964" lon="6.656935350186616"><ele>264.0</ele><time>2026-05-03T07:23:53Z</time></trkpt><trkpt lat="49.110225238912165" lon="6.656698335648808"><ele>264.0</ele><time>2026-05-03T07:23:54Z</time></trkpt><trkpt lat="49.110108445830804" lon="6.656455844740862"><ele>264.0</ele><time>2026-05-03T07:23:55Z</time></trkpt><trkpt lat="49.109989262731375" lon="6.656208864858919"><ele>264.0</ele><time>2026-05-03T07:23:56Z</time></trkpt><trkpt lat="49.10986716353531" lon="6.6559618113632055"><ele>264.0</ele><time>2026-05-03T07:23:57Z</time></trkpt><trkpt lat="49.10974035823781" lon="6.655712112785011"><ele>263.6666666666667</ele><time>2026-05-03T07:23:58Z</time></trkpt><trkpt lat="49.109633680687686" lon="6.65544082688982"><ele>263.33333333333337</ele><time>2026-05-03T07:23:59Z</time></trkpt><trkpt lat="49.10951542362824" lon="6.655190155666567"><ele>263.0</ele><time>2026-05-03T07:24:00Z</time></trkpt><trkpt lat="49.10939113738958" lon="6.654965445126306"><ele>262.33333333333337</ele><time>2026-05-03T07:24:01Z</time></trkpt><trkpt lat="49.109286172710696" lon="6.654741622248081"><ele>261.6666666666667</ele><time>2026-05-03T07:24:02Z</time></trkpt><trkpt lat="49.10919303403468" lon="6.654505857678809"><ele>261.0</ele><time>2026-05-03T07:24:03Z</time></trkpt><trkpt lat="49.10908782127334" lon="6.654281904493062"><ele>261.3333333333333</ele><time>2026-05-03T07:24:04Z</time></trkpt><trkpt lat="49.10898543058221" lon="6.654063958219642"><ele>261.66666666666663</ele><time>2026-05-03T07:24:05Z</time></trkpt><trkpt lat="49.10888391612629" lon="6.6538484485945"><ele>262.0</ele><time>2026-05-03T07:24:06Z</time></trkpt><trkpt lat="49.10878289976057" lon="6.6536367846857125"><ele>262.0</ele><time>2026-05-03T07:24:07Z</time></trkpt><trkpt lat="49.108681371670464" lon="6.65342875752126"><ele>262.0</ele><time>2026-05-03T07:24:08Z</time></trkpt><trkpt lat="49.10858043065645" lon="6.653222824338317"><ele>262.0</ele><time>2026-05-03T07:24:09Z</time></trkpt><trkpt lat="49.108485660904314" lon="6.653033194472337"><ele>262.0</ele><time>2026-05-03T07:24:10Z</time></trkpt><trkpt lat="49.10840749760101" lon="6.6528767933569934"><ele>262.0</ele><time>2026-05-03T07:24:11Z</time></trkpt><trkpt lat="49.10834571900144" lon="6.652749125318073"><ele>262.0</ele><time>2026-05-03T07:24:12Z</time></trkpt><trkpt lat="49.10829875115533" lon="6.65265077238923"><ele>262.0</ele><time>2026-05-03T07:24:13Z</time></trkpt><trkpt lat="49.10825822322167" lon="6.652565904483508"><ele>262.0</ele><time>2026-05-03T07:24:14Z</time></trkpt><trkpt lat="49.10805300979477" lon="6.652697699085636"><ele>261.75</ele><time>2026-05-03T07:24:15Z</time></trkpt><trkpt lat="49.107917415783575" lon="6.652766246101281"><ele>261.5</ele><time>2026-05-03T07:24:16Z</time></trkpt><trkpt lat="49.10778386723879" lon="6.652807343618904"><ele>261.25</ele><time>2026-05-03T07:24:17Z</time></trkpt><trkpt lat="49.107667615727856" lon="6.65285036883328"><ele>261.0</ele><time>2026-05-03T07:24:18Z</time></trkpt><trkpt lat="49.10755597144481" lon="6.652889296088339"><ele>261.0</ele><time>2026-05-03T07:24:19Z</time></trkpt><trkpt lat="49.107438153458595" lon="6.652920750880101"><ele>261.0</ele><time>2026-05-03T07:24:20Z</time></trkpt><trkpt lat="49.10732236275369" lon="6.652918653231889"><ele>261.0</ele><time>2026-05-03T07:24:21Z</time></trkpt><trkpt lat="49.1072072023192" lon="6.652898938630901"><ele>261.0</ele><time>2026-05-03T07:24:22Z</time></trkpt><trkpt lat="49.10708902023603" lon="6.652867388299106"><ele>260.6</ele><time>2026-05-03T07:24:23Z</time></trkpt><trkpt lat="49.10697351999066" lon="6.652813879740653"><ele>260.20000000000005</ele><time>2026-05-03T07:24:24Z</time></trkpt><trkpt lat="49.10686217893391" lon="6.652785164964807"><ele>259.79999999999995</ele><time>2026-05-03T07:24:25Z</time></trkpt><trkpt lat="49.106760246751826" lon="6.652739707812203"><ele>259.4</ele><time>2026-05-03T07:24:26Z</time></trkpt><trkpt lat="49.10666231052611" lon="6.652693212651514"><ele>259.0</ele><time>2026-05-03T07:24:27Z</time></trkpt><trkpt lat="49.10656074779271" lon="6.65266884583288"><ele>258.59999999999997</ele><time>2026-05-03T07:24:28Z</time></trkpt><trkpt lat="49.106454958634316" lon="6.652656501862691"><ele>258.2</ele><time>2026-05-03T07:24:29Z</time></trkpt><trkpt lat="49.106349197868894" lon="6.6526465432281245"><ele>257.79999999999995</ele><time>2026-05-03T07:24:30Z</time></trkpt><trkpt lat="49.10623991535277" lon="6.652642469669907"><ele>257.4</ele><time>2026-05-03T07:24:31Z</time></trkpt><trkpt lat="49.106135336007966" lon="6.652648896077291"><ele>257.0</ele><time>2026-05-03T07:24:32Z</time></trkpt><trkpt lat="49.106034952577005" lon="6.652672613585234"><ele>257.0</ele><time>2026-05-03T07:24:33Z</time></trkpt><trkpt lat="49.10594740866905" lon="6.652729483699016"><ele>257.0</ele><time>2026-05-03T07:24:34Z</time></trkpt><trkpt lat="49.10586330508598" lon="6.652806635247939"><ele>257.0</ele><time>2026-05-03T07:24:35Z</time></trkpt><trkpt lat="49.10577671735863" lon="6.652858809244624"><ele>257.0</ele><time>2026-05-03T07:24:36Z</time></trkpt><trkpt lat="49.10567494313858" lon="6.652835171652211"><ele>257.0</ele><time>2026-05-03T07:24:37Z</time></trkpt><trkpt lat="49.105579653720255" lon="6.65272531189222"><ele>256.75</ele><time>2026-05-03T07:24:38Z</time></trkpt><trkpt lat="49.10548386564706" lon="6.65261980198184"><ele>256.5</ele><time>2026-05-03T07:24:39Z</time></trkpt><trkpt lat="49.105385275106585" lon="6.6525037228811374"><ele>256.25</ele><time>2026-05-03T07:24:40Z</time></trkpt><trkpt lat="49.105328058862014" lon="6.65230079863501"><ele>256.0</ele><time>2026-05-03T07:24:41Z</time></trkpt><trkpt lat="49.10524668024916" lon="6.652084818747566"><ele>256.66666666666663</ele><time>2026-05-03T07:24:42Z</time></trkpt><trkpt lat="49.10517419595756" lon="6.651848439907495"><ele>257.3333333333333</ele><time>2026-05-03T07:24:43Z</time></trkpt><trkpt lat="49.10510262366967" lon="6.65164211216809"><ele>258.0</ele><time>2026-05-03T07:24:44Z</time></trkpt><trkpt lat="49.10504265954004" lon="6.65146193726132"><ele>258.0</ele><time>2026-05-03T07:24:45Z</time></trkpt><trkpt lat="49.104986314127004" lon="6.6512884687534175"><ele>258.0</ele><time>2026-05-03T07:24:46Z</time></trkpt><trkpt lat="49.104929624983335" lon="6.65111039491596"><ele>258.0</ele><time>2026-05-03T07:24:47Z</time></trkpt><trkpt lat="49.10486824252252" lon="6.650927926854169"><ele>258.0</ele><time>2026-05-03T07:24:48Z</time></trkpt><trkpt lat="49.10480287893946" lon="6.6507460485577505"><ele>258.25</ele><time>2026-05-03T07:24:49Z</time></trkpt><trkpt lat="49.10475413788829" lon="6.650572165328451"><ele>258.5</ele><time>2026-05-03T07:24:50Z</time></trkpt><trkpt lat="49.10472799559887" lon="6.650401410421561"><ele>258.75</ele><time>2026-05-03T07:24:51Z</time></trkpt><trkpt lat="49.104697163433094" lon="6.65023965456328"><ele>259.0</ele><time>2026-05-03T07:24:52Z</time></trkpt><trkpt lat="49.10474513271872" lon="6.6500730990205605"><ele>259.25</ele><time>2026-05-03T07:24:53Z</time></trkpt><trkpt lat="49.1047974088666" lon="6.649915366867858"><ele>259.5</ele><time>2026-05-03T07:24:54Z</time></trkpt><trkpt lat="49.10486059095651" lon="6.649763010804624"><ele>259.75</ele><time>2026-05-03T07:24:55Z</time></trkpt><trkpt lat="49.10496052761438" lon="6.649664254701942"><ele>260.0</ele><time>2026-05-03T07:24:56Z</time></trkpt><trkpt lat="49.10506859422717" lon="6.649612754618106"><ele>260.75</ele><time>2026-05-03T07:24:57Z</time></trkpt><trkpt lat="49.105147760478914" lon="6.6495605896333645"><ele>261.5</ele><time>2026-05-03T07:24:58Z</time></trkpt><trkpt lat="49.10516749592883" lon="6.649318481425319"><ele>262.25</ele><time>2026-05-03T07:25:00Z</time></trkpt><trkpt lat="49.105114737591315" lon="6.649158297287033"><ele>263.0</ele><time>2026-05-03T07:25:01Z</time></trkpt><trkpt lat="49.105070920032446" lon="6.648967331552227"><ele>263.5</ele><time>2026-05-03T07:25:02Z</time></trkpt><trkpt lat="49.10502880333803" lon="6.648749070549168"><ele>264.0</ele><time>2026-05-03T07:25:03Z</time></trkpt><trkpt lat="49.10498814238589" lon="6.648549573054784"><ele>264.5</ele><time>2026-05-03T07:25:04Z</time></trkpt><trkpt lat="49.104941407245576" lon="6.648364476466863"><ele>265.0</ele><time>2026-05-03T07:25:05Z</time></trkpt><trkpt lat="49.10490238666937" lon="6.648165242670766"><ele>265.25</ele><time>2026-05-03T07:25:06Z</time></trkpt><trkpt lat="49.10486416845455" lon="6.64796628856938"><ele>265.5</ele><time>2026-05-03T07:25:07Z</time></trkpt><trkpt lat="49.10484074566124" lon="6.647785285017505"><ele>265.75</ele><time>2026-05-03T07:25:08Z</time></trkpt><trkpt lat="49.10485567375692" lon="6.647609830770782"><ele>266.0</ele><time>2026-05-03T07:25:09Z</time></trkpt><trkpt lat="49.10493302957373" lon="6.64745284077834"><ele>266.0</ele><time>2026-05-03T07:25:10Z</time></trkpt><trkpt lat="49.10497914142921" lon="6.647253664534847"><ele>266.0</ele><time>2026-05-03T07:25:11Z</time></trkpt><trkpt lat="49.10499737293024" lon="6.6470536686995185"><ele>266.0</ele><time>2026-05-03T07:25:12Z</time></trkpt><trkpt lat="49.10495004204667" lon="6.646844127438425"><ele>266.0</ele><time>2026-05-03T07:25:13Z</time></trkpt><trkpt lat="49.10486765920029" lon="6.646640989035142"><ele>266.33333333333337</ele><time>2026-05-03T07:25:14Z</time></trkpt><trkpt lat="49.10476153600298" lon="6.646452027461792"><ele>266.6666666666667</ele><time>2026-05-03T07:25:14.999Z</time></trkpt><trkpt lat="49.10464135747567" lon="6.646257978973301"><ele>267.0</ele><time>2026-05-03T07:25:15.999Z</time></trkpt><trkpt lat="49.10453176304415" lon="6.646043365927179"><ele>267.0</ele><time>2026-05-03T07:25:16.999Z</time></trkpt><trkpt lat="49.10442870268797" lon="6.6458167598213915"><ele>267.0</ele><time>2026-05-03T07:25:17.999Z</time></trkpt><trkpt lat="49.10432130354517" lon="6.6455909657985766"><ele>267.0</ele><time>2026-05-03T07:25:19Z</time></trkpt><trkpt lat="49.10421041473878" lon="6.645375382157707"><ele>265.3333333333333</ele><time>2026-05-03T07:25:20Z</time></trkpt><trkpt lat="49.104101142470604" lon="6.645174286208244"><ele>263.66666666666663</ele><time>2026-05-03T07:25:21Z</time></trkpt><trkpt lat="49.103989547121415" lon="6.644971865243558"><ele>262.0</ele><time>2026-05-03T07:25:22Z</time></trkpt><trkpt lat="49.10387670052935" lon="6.644768772880855"><ele>262.0</ele><time>2026-05-03T07:25:23Z</time></trkpt><trkpt lat="49.103763810893874" lon="6.6445655685070095"><ele>262.0</ele><time>2026-05-03T07:25:24Z</time></trkpt><trkpt lat="49.10365237779407" lon="6.644363388490105"><ele>262.0</ele><time>2026-05-03T07:25:25Z</time></trkpt><trkpt lat="49.10354249037795" lon="6.644157772655241"><ele>263.0</ele><time>2026-05-03T07:25:26Z</time></trkpt><trkpt lat="49.10344772997197" lon="6.643937098133765"><ele>264.0</ele><time>2026-05-03T07:25:27Z</time></trkpt><trkpt lat="49.10333996256396" lon="6.6437346878487995"><ele>265.0</ele><time>2026-05-03T07:25:28Z</time></trkpt><trkpt lat="49.10323267983344" lon="6.643534276926456"><ele>267.0</ele><time>2026-05-03T07:25:29Z</time></trkpt><trkpt lat="49.10312661858106" lon="6.643336149366664"><ele>269.0</ele><time>2026-05-03T07:25:30Z</time></trkpt><trkpt lat="49.10302187288278" lon="6.64314115276495"><ele>271.0</ele><time>2026-05-03T07:25:31Z</time></trkpt><trkpt lat="49.10291547830056" lon="6.6429482669709445"><ele>271.0</ele><time>2026-05-03T07:25:32Z</time></trkpt><trkpt lat="49.10281026989245" lon="6.6427575306224345"><ele>271.0</ele><time>2026-05-03T07:25:33Z</time></trkpt><trkpt lat="49.1027024486871" lon="6.64259978592107"><ele>271.0</ele><time>2026-05-03T07:25:34Z</time></trkpt><trkpt lat="49.10262612765547" lon="6.64242359983238"><ele>271.0</ele><time>2026-05-03T07:25:35Z</time></trkpt><trkpt lat="49.10253294181389" lon="6.6422919663313165"><ele>271.0</ele><time>2026-05-03T07:25:36Z</time></trkpt><trkpt lat="49.10246549748257" lon="6.64216365388196"><ele>271.0</ele><time>2026-05-03T07:25:37Z</time></trkpt><trkpt lat="49.102424885591184" lon="6.642037882375342"><ele>271.0</ele><time>2026-05-03T07:25:38Z</time></trkpt><trkpt lat="49.10241027847706" lon="6.641891010988918"><ele>271.0</ele><time>2026-05-03T07:25:39Z</time></trkpt><trkpt lat="49.10243244612791" lon="6.641720908698147"><ele>271.5</ele><time>2026-05-03T07:25:40Z</time></trkpt><trkpt lat="49.10246232524384" lon="6.6415369413467085"><ele>272.0</ele><time>2026-05-03T07:25:41Z</time></trkpt><trkpt lat="49.10249910745363" lon="6.641368468402674"><ele>272.5</ele><time>2026-05-03T07:25:42Z</time></trkpt><trkpt lat="49.10253390963052" lon="6.64120966675806"><ele>273.0</ele><time>2026-05-03T07:25:43Z</time></trkpt><trkpt lat="49.102560632658026" lon="6.641013870465349"><ele>273.25</ele><time>2026-05-03T07:25:44Z</time></trkpt><trkpt lat="49.1025668736845" lon="6.640848111302974"><ele>273.5</ele><time>2026-05-03T07:25:45Z</time></trkpt><trkpt lat="49.10253563429899" lon="6.640673334979947"><ele>273.75</ele><time>2026-05-03T07:25:46Z</time></trkpt><trkpt lat="49.10242420704578" lon="6.640548011888691"><ele>274.0</ele><time>2026-05-03T07:25:47Z</time></trkpt><trkpt lat="49.10231394827687" lon="6.640419045566466"><ele>274.66666666666663</ele><time>2026-05-03T07:25:48Z</time></trkpt><trkpt lat="49.10218148360924" lon="6.640268402363978"><ele>275.3333333333333</ele><time>2026-05-03T07:25:49Z</time></trkpt><trkpt lat="49.102044603112944" lon="6.640085511251158"><ele>276.0</ele><time>2026-05-03T07:25:50Z</time></trkpt><trkpt lat="49.101900590535564" lon="6.639921131188049"><ele>276.0</ele><time>2026-05-03T07:25:51Z</time></trkpt><trkpt lat="49.1017681621987" lon="6.639775810043347"><ele>276.0</ele><time>2026-05-03T07:25:52Z</time></trkpt><trkpt lat="49.10162688314262" lon="6.63967350391926"><ele>276.0</ele><time>2026-05-03T07:25:53Z</time></trkpt><trkpt lat="49.101467003387555" lon="6.6395838730296015"><ele>285.0</ele><time>2026-05-03T07:25:54Z</time></trkpt><trkpt lat="49.10130357158007" lon="6.63945190052727"><ele>294.0</ele><time>2026-05-03T07:25:55Z</time></trkpt><trkpt lat="49.10112302487352" lon="6.639303162563678"><ele>303.0</ele><time>2026-05-03T07:25:56Z</time></trkpt><trkpt lat="49.100949664335964" lon="6.639158987753137"><ele>303.0</ele><time>2026-05-03T07:25:57Z</time></trkpt><trkpt lat="49.10079752537018" lon="6.639034501828341"><ele>303.0</ele><time>2026-05-03T07:25:58Z</time></trkpt><trkpt lat="49.10064182652776" lon="6.638918390248804"><ele>303.0</ele><time>2026-05-03T07:25:59Z</time></trkpt><trkpt lat="49.1004823978878" lon="6.638822846220052"><ele>306.3333333333333</ele><time>2026-05-03T07:26:00Z</time></trkpt><trkpt lat="49.10032652961284" lon="6.638750707230607"><ele>309.66666666666663</ele><time>2026-05-03T07:26:01Z</time></trkpt><trkpt lat="49.100170760310675" lon="6.638686162018291"><ele>313.0</ele><time>2026-05-03T07:26:02Z</time></trkpt><trkpt lat="49.10001277707759" lon="6.63862808794553"><ele>309.3333333333333</ele><time>2026-05-03T07:26:03Z</time></trkpt><trkpt lat="49.09985355512508" lon="6.63857372832506"><ele>305.6666666666667</ele><time>2026-05-03T07:26:04Z</time></trkpt><trkpt lat="49.099698186736894" lon="6.638530018788254"><ele>302.0</ele><time>2026-05-03T07:26:05Z</time></trkpt><trkpt lat="49.09955909319537" lon="6.638493933332709"><ele>302.0</ele><time>2026-05-03T07:26:06Z</time></trkpt><trkpt lat="49.099433052694714" lon="6.638463421833425"><ele>302.0</ele><time>2026-05-03T07:26:07Z</time></trkpt><trkpt lat="49.09933752378332" lon="6.638408565211187"><ele>302.0</ele><time>2026-05-03T07:26:08Z</time></trkpt><trkpt lat="49.09925834190552" lon="6.638304248624934"><ele>302.0</ele><time>2026-05-03T07:26:09Z</time></trkpt><trkpt lat="49.09917365923513" lon="6.638148429376998"><ele>302.0</ele><time>2026-05-03T07:26:10Z</time></trkpt><trkpt lat="49.09909417706003" lon="6.637946970134014"><ele>302.0</ele><time>2026-05-03T07:26:11Z</time></trkpt><trkpt lat="49.0990304835091" lon="6.637717617606627"><ele>302.0</ele><time>2026-05-03T07:26:12Z</time></trkpt><trkpt lat="49.09897487174157" lon="6.637451645570633"><ele>301.6666666666667</ele><time>2026-05-03T07:26:13Z</time></trkpt><trkpt lat="49.09891059138412" lon="6.637193322767975"><ele>301.3333333333333</ele><time>2026-05-03T07:26:14Z</time></trkpt><trkpt lat="49.0988694601346" lon="6.636966679844636"><ele>301.0</ele><time>2026-05-03T07:26:15Z</time></trkpt><trkpt lat="49.09883114633793" lon="6.636765169770263"><ele>302.75</ele><time>2026-05-03T07:26:16Z</time></trkpt><trkpt lat="49.09878693261268" lon="6.636580256968263"><ele>304.5</ele><time>2026-05-03T07:26:17Z</time></trkpt><trkpt lat="49.09872631257315" lon="6.636393401943616"><ele>306.25</ele><time>2026-05-03T07:26:18Z</time></trkpt><trkpt lat="49.098637534110935" lon="6.636225282099834"><ele>308.0</ele><time>2026-05-03T07:26:19Z</time></trkpt><trkpt lat="49.098522733068" lon="6.636085469667945"><ele>310.6666666666667</ele><time>2026-05-03T07:26:20Z</time></trkpt><trkpt lat="49.098387167470825" lon="6.63598581436188"><ele>313.3333333333333</ele><time>2026-05-03T07:26:21Z</time></trkpt><trkpt lat="49.098237143420874" lon="6.6359337796737865"><ele>316.0</ele><time>2026-05-03T07:26:22Z</time></trkpt><trkpt lat="49.09807616571961" lon="6.6359392315592665"><ele>318.3333333333333</ele><time>2026-05-03T07:26:23Z</time></trkpt><trkpt lat="49.0979199222308" lon="6.63600245975563"><ele>320.6666666666667</ele><time>2026-05-03T07:26:24Z</time></trkpt><trkpt lat="49.09777657703302" lon="6.636111588667495"><ele>323.0</ele><time>2026-05-03T07:26:25Z</time></trkpt><trkpt lat="49.09763638114045" lon="6.6362799317509085"><ele>323.0</ele><time>2026-05-03T07:26:26Z</time></trkpt><trkpt lat="49.097484366233886" lon="6.636424620066784"><ele>323.0</ele><time>2026-05-03T07:26:27Z</time></trkpt><trkpt lat="49.0973274444743" lon="6.636526339842392"><ele>323.0</ele><time>2026-05-03T07:26:28Z</time></trkpt><trkpt lat="49.09715732651028" lon="6.636598304271646"><ele>326.33333333333337</ele><time>2026-05-03T07:26:29Z</time></trkpt><trkpt lat="49.09697024903241" lon="6.63664123308761"><ele>329.6666666666667</ele><time>2026-05-03T07:26:30Z</time></trkpt><trkpt lat="49.09677288294133" lon="6.636692245644774"><ele>333.0</ele><time>2026-05-03T07:26:31Z</time></trkpt><trkpt lat="49.0965813717962" lon="6.636694078477798"><ele>334.0</ele><time>2026-05-03T07:26:32Z</time></trkpt><trkpt lat="49.09641496674916" lon="6.636701474422298"><ele>335.0</ele><time>2026-05-03T07:26:33Z</time></trkpt><trkpt lat="49.096262879472086" lon="6.636690114177087"><ele>336.0</ele><time>2026-05-03T07:26:34Z</time></trkpt><trkpt lat="49.09612799752049" lon="6.636625316448757"><ele>336.0</ele><time>2026-05-03T07:26:35Z</time></trkpt><trkpt lat="49.09600456905842" lon="6.636516335025139"><ele>336.0</ele><time>2026-05-03T07:26:36Z</time></trkpt><trkpt lat="49.09592021975655" lon="6.636333044770476"><ele>336.0</ele><time>2026-05-03T07:26:37Z</time></trkpt><trkpt lat="49.095824358796044" lon="6.636118397829489"><ele>338.0</ele><time>2026-05-03T07:26:38Z</time></trkpt><trkpt lat="49.09573730501882" lon="6.635871424218412"><ele>340.0</ele><time>2026-05-03T07:26:39Z</time></trkpt><trkpt lat="49.09565254484782" lon="6.6356389784595375"><ele>342.0</ele><time>2026-05-03T07:26:40Z</time></trkpt><trkpt lat="49.09558370580671" lon="6.6354386315955205"><ele>341.75</ele><time>2026-05-03T07:26:41Z</time></trkpt><trkpt lat="49.09553756961244" lon="6.635265667796132"><ele>341.5</ele><time>2026-05-03T07:26:42Z</time></trkpt><trkpt lat="49.095540571657736" lon="6.63508366929062"><ele>341.25</ele><time>2026-05-03T07:26:43Z</time></trkpt><trkpt lat="49.09560386636524" lon="6.634890746610159"><ele>341.0</ele><time>2026-05-03T07:26:44Z</time></trkpt><trkpt lat="49.095640138873584" lon="6.634692825709698"><ele>341.0</ele><time>2026-05-03T07:26:45Z</time></trkpt><trkpt lat="49.095646930881976" lon="6.6345192355684315"><ele>341.0</ele><time>2026-05-03T07:26:46Z</time></trkpt><trkpt lat="49.09559858738976" lon="6.634352470095387"><ele>341.0</ele><time>2026-05-03T07:26:47Z</time></trkpt><trkpt lat="49.09551241413101" lon="6.634209074513465"><ele>341.0</ele><time>2026-05-03T07:26:48Z</time></trkpt><trkpt lat="49.095417178957" lon="6.634092810382555"><ele>341.4</ele><time>2026-05-03T07:26:49Z</time></trkpt><trkpt lat="49.09529192153264" lon="6.634072939926274"><ele>341.8</ele><time>2026-05-03T07:26:50Z</time></trkpt><trkpt lat="49.09518745053366" lon="6.634086893922052"><ele>342.2</ele><time>2026-05-03T07:26:51Z</time></trkpt><trkpt lat="49.09509905950966" lon="6.6341063586973865"><ele>342.59999999999997</ele><time>2026-05-03T07:26:52Z</time></trkpt><trkpt lat="49.09502026629888" lon="6.634083715050192"><ele>343.0</ele><time>2026-05-03T07:26:53Z</time></trkpt><trkpt lat="49.094964141781404" lon="6.633995810934821"><ele>343.0</ele><time>2026-05-03T07:26:54Z</time></trkpt><trkpt lat="49.094931744746226" lon="6.633857054177198"><ele>343.0</ele><time>2026-05-03T07:26:55Z</time></trkpt><trkpt lat="49.09493204102043" lon="6.633709520530512"><ele>343.0</ele><time>2026-05-03T07:26:56Z</time></trkpt><trkpt lat="49.09496295502595" lon="6.633586538851146"><ele>343.0</ele><time>2026-05-03T07:26:57Z</time></trkpt><trkpt lat="49.09499040901707" lon="6.633475217835835"><ele>343.0</ele><time>2026-05-03T07:26:58Z</time></trkpt><trkpt lat="49.09501107539956" lon="6.6333478465579825"><ele>343.0</ele><time>2026-05-03T07:26:59Z</time></trkpt><trkpt lat="49.095044888129344" lon="6.633158384169099"><ele>343.25</ele><time>2026-05-03T07:27:00Z</time></trkpt><trkpt lat="49.09508211747374" lon="6.632945582056676"><ele>343.5</ele><time>2026-05-03T07:27:01Z</time></trkpt><trkpt lat="49.095121743411525" lon="6.6327354942959555"><ele>343.75</ele><time>2026-05-03T07:27:02Z</time></trkpt><trkpt lat="49.0951637719902" lon="6.6325147795631025"><ele>344.0</ele><time>2026-05-03T07:27:03Z</time></trkpt><trkpt lat="49.0952048454066" lon="6.632299080874036"><ele>344.0</ele><time>2026-05-03T07:27:04Z</time></trkpt><trkpt lat="49.09524585139095" lon="6.632083736390403"><ele>344.0</ele><time>2026-05-03T07:27:05Z</time></trkpt><trkpt lat="49.09528905929181" lon="6.631866337822464"><ele>344.0</ele><time>2026-05-03T07:27:06Z</time></trkpt><trkpt lat="49.09532169842398" lon="6.631642214705509"><ele>344.0</ele><time>2026-05-03T07:27:07Z</time></trkpt><trkpt lat="49.09536110541499" lon="6.6314194145304"><ele>344.5</ele><time>2026-05-03T07:27:08Z</time></trkpt><trkpt lat="49.0954041121561" lon="6.631201652186865"><ele>345.0</ele><time>2026-05-03T07:27:09Z</time></trkpt><trkpt lat="49.09544901707011" lon="6.630988849985384"><ele>345.5</ele><time>2026-05-03T07:27:10Z</time></trkpt><trkpt lat="49.09549261935761" lon="6.630783615460404"><ele>346.0</ele><time>2026-05-03T07:27:11Z</time></trkpt><trkpt lat="49.095529816148286" lon="6.630584945247649"><ele>346.0</ele><time>2026-05-03T07:27:12Z</time></trkpt><trkpt lat="49.09556572057238" lon="6.630394904113917"><ele>346.0</ele><time>2026-05-03T07:27:13Z</time></trkpt><trkpt lat="49.09559319577123" lon="6.630214754674362"><ele>346.0</ele><time>2026-05-03T07:27:14Z</time></trkpt><trkpt lat="49.09560447296019" lon="6.630050555128266"><ele>346.0</ele><time>2026-05-03T07:27:15Z</time></trkpt><trkpt lat="49.09559379148312" lon="6.629895840352042"><ele>346.16666666666663</ele><time>2026-05-03T07:27:16Z</time></trkpt><trkpt lat="49.0955711172341" lon="6.629767358864135"><ele>346.3333333333333</ele><time>2026-05-03T07:27:17Z</time></trkpt><trkpt lat="49.09556153115245" lon="6.629670557622145"><ele>346.5</ele><time>2026-05-03T07:27:18Z</time></trkpt><trkpt lat="49.09557274246492" lon="6.629569353682695"><ele>346.6666666666667</ele><time>2026-05-03T07:27:20Z</time></trkpt><trkpt lat="49.09563483553779" lon="6.629501541108148"><ele>346.83333333333337</ele><time>2026-05-03T07:27:21Z</time></trkpt><trkpt lat="49.09573604947682" lon="6.629441470610744"><ele>347.0</ele><time>2026-05-03T07:27:23Z</time></trkpt><trkpt lat="49.09588792332798" lon="6.629487053737695"><ele>347.5</ele><time>2026-05-03T07:27:25Z</time></trkpt><trkpt lat="49.09599328857144" lon="6.629561512655792"><ele>348.0</ele><time>2026-05-03T07:27:26Z</time></trkpt><trkpt lat="49.09614193850844" lon="6.629684487136291"><ele>348.5</ele><time>2026-05-03T07:27:27Z</time></trkpt><trkpt lat="49.09626691060577" lon="6.6297893658325"><ele>349.0</ele><time>2026-05-03T07:27:28Z</time></trkpt><trkpt lat="49.096362004340975" lon="6.629864551861116"><ele>349.0</ele><time>2026-05-03T07:27:29Z</time></trkpt><trkpt lat="49.09644410425993" lon="6.629905993225817"><ele>349.0</ele><time>2026-05-03T07:27:30Z</time></trkpt><trkpt lat="49.09651976661477" lon="6.629899829907814"><ele>349.0</ele><time>2026-05-03T07:27:31Z</time></trkpt><trkpt lat="49.09659690488336" lon="6.62984979254751"><ele>349.0</ele><time>2026-05-03T07:27:32Z</time></trkpt><trkpt lat="49.096651696943084" lon="6.629773092329553"><ele>349.0</ele><time>2026-05-03T07:27:33Z</time></trkpt><trkpt lat="49.09669961228416" lon="6.629652922424283"><ele>349.0</ele><time>2026-05-03T07:27:34Z</time></trkpt><trkpt lat="49.096765886485" lon="6.6294870970670345"><ele>349.79999999999995</ele><time>2026-05-03T07:27:35Z</time></trkpt><trkpt lat="49.09683538286913" lon="6.629327899162931"><ele>350.59999999999997</ele><time>2026-05-03T07:27:36Z</time></trkpt><trkpt lat="49.09688629146986" lon="6.629191625552648"><ele>351.4</ele><time>2026-05-03T07:27:37Z</time></trkpt><trkpt lat="49.09693929584494" lon="6.629085351735907"><ele>352.2</ele><time>2026-05-03T07:27:38Z</time></trkpt><trkpt lat="49.09696107564686" lon="6.628970355118868"><ele>353.0</ele><time>2026-05-03T07:27:39Z</time></trkpt><trkpt lat="49.09701194117812" lon="6.628866908658338"><ele>353.0</ele><time>2026-05-03T07:27:40Z</time></trkpt><trkpt lat="49.09704848499249" lon="6.628755042135906"><ele>353.0</ele><time>2026-05-03T07:27:41Z</time></trkpt><trkpt lat="49.0970846865163" lon="6.6286436596850065"><ele>353.0</ele><time>2026-05-03T07:27:42Z</time></trkpt><trkpt lat="49.09711746924016" lon="6.628507040441616"><ele>353.0</ele><time>2026-05-03T07:27:43Z</time></trkpt><trkpt lat="49.09716046037864" lon="6.6283776269676"><ele>353.0</ele><time>2026-05-03T07:27:44Z</time></trkpt><trkpt lat="49.09720254467884" lon="6.6282428315585875"><ele>352.79999999999995</ele><time>2026-05-03T07:27:45Z</time></trkpt><trkpt lat="49.0972476818851" lon="6.628100341006173"><ele>352.6</ele><time>2026-05-03T07:27:46Z</time></trkpt><trkpt lat="49.09729081779262" lon="6.627953406362216"><ele>352.4</ele><time>2026-05-03T07:27:47Z</time></trkpt><trkpt lat="49.09735190719088" lon="6.627822500473762"><ele>352.20000000000005</ele><time>2026-05-03T07:27:48Z</time></trkpt><trkpt lat="49.09740043108331" lon="6.627673445361622"><ele>352.0</ele><time>2026-05-03T07:27:49Z</time></trkpt><trkpt lat="49.097449600806506" lon="6.627522405997433"><ele>353.25</ele><time>2026-05-03T07:27:50Z</time></trkpt><trkpt lat="49.097499565214946" lon="6.627368925761485"><ele>354.5</ele><time>2026-05-03T07:27:51Z</time></trkpt><trkpt lat="49.097548844738675" lon="6.627219332555951"><ele>355.75</ele><time>2026-05-03T07:27:52Z</time></trkpt><trkpt lat="49.097603208021205" lon="6.627062849007806"><ele>357.0</ele><time>2026-05-03T07:27:53Z</time></trkpt><trkpt lat="49.09766706254889" lon="6.62690538506604"><ele>357.25</ele><time>2026-05-03T07:27:54Z</time></trkpt><trkpt lat="49.097732877402166" lon="6.626760969179738"><ele>357.5</ele><time>2026-05-03T07:27:55Z</time></trkpt><trkpt lat="49.09778750367143" lon="6.626613870917617"><ele>357.75</ele><time>2026-05-03T07:27:56Z</time></trkpt><trkpt lat="49.0978648842" lon="6.626483723076749"><ele>358.0</ele><time>2026-05-03T07:27:57Z</time></trkpt><trkpt lat="49.09794105441007" lon="6.626342729398518"><ele>358.0</ele><time>2026-05-03T07:27:58Z</time></trkpt><trkpt lat="49.09801500053825" lon="6.6262101318312965"><ele>358.0</ele><time>2026-05-03T07:27:59Z</time></trkpt><trkpt lat="49.098092598569345" lon="6.626074763483739"><ele>358.0</ele><time>2026-05-03T07:28:00Z</time></trkpt><trkpt lat="49.09816873305076" lon="6.62594244916896"><ele>358.0</ele><time>2026-05-03T07:28:01Z</time></trkpt><trkpt lat="49.09824652290487" lon="6.625811677169814"><ele>358.5</ele><time>2026-05-03T07:28:02Z</time></trkpt><trkpt lat="49.09832634951498" lon="6.625683642825816"><ele>359.0</ele><time>2026-05-03T07:28:03Z</time></trkpt><trkpt lat="49.09840506725458" lon="6.625561789479987"><ele>359.5</ele><time>2026-05-03T07:28:04Z</time></trkpt><trkpt lat="49.09848615627329" lon="6.625440361635659"><ele>360.0</ele><time>2026-05-03T07:28:05Z</time></trkpt><trkpt lat="49.09857315635451" lon="6.625312640481514"><ele>358.75</ele><time>2026-05-03T07:28:06Z</time></trkpt><trkpt lat="49.09865488685248" lon="6.625175826169948"><ele>357.5</ele><time>2026-05-03T07:28:07Z</time></trkpt><trkpt lat="49.098730119586044" lon="6.625033112946571"><ele>356.25</ele><time>2026-05-03T07:28:08Z</time></trkpt><trkpt lat="49.0988040145249" lon="6.624884574240225"><ele>355.0</ele><time>2026-05-03T07:28:09Z</time></trkpt><trkpt lat="49.098887466032025" lon="6.624748881627618"><ele>355.0</ele><time>2026-05-03T07:28:10Z</time></trkpt><trkpt lat="49.098964527209134" lon="6.624604834098283"><ele>355.0</ele><time>2026-05-03T07:28:11Z</time></trkpt><trkpt lat="49.099024731478124" lon="6.62444913050204"><ele>355.0</ele><time>2026-05-03T07:28:12Z</time></trkpt><trkpt lat="49.09911178420099" lon="6.624326492156537"><ele>355.0</ele><time>2026-05-03T07:28:13Z</time></trkpt><trkpt lat="49.099188375182855" lon="6.624186347974242"><ele>356.5</ele><time>2026-05-03T07:28:14Z</time></trkpt><trkpt lat="49.0992643350679" lon="6.624049097738659"><ele>358.0</ele><time>2026-05-03T07:28:15Z</time></trkpt><trkpt lat="49.099343736521064" lon="6.623907623564108"><ele>359.5</ele><time>2026-05-03T07:28:16Z</time></trkpt><trkpt lat="49.09941347753363" lon="6.62375940468015"><ele>361.0</ele><time>2026-05-03T07:28:17Z</time></trkpt><trkpt lat="49.09948838543633" lon="6.623614660518083"><ele>361.0</ele><time>2026-05-03T07:28:18Z</time></trkpt><trkpt lat="49.09956863481287" lon="6.623470310137802"><ele>361.0</ele><time>2026-05-03T07:28:19Z</time></trkpt><trkpt lat="49.09964805655209" lon="6.623328497597995"><ele>361.0</ele><time>2026-05-03T07:28:20Z</time></trkpt><trkpt lat="49.09971989736462" lon="6.623182678104784"><ele>361.0</ele><time>2026-05-03T07:28:21Z</time></trkpt><trkpt lat="49.09978602044626" lon="6.623043824364344"><ele>361.0</ele><time>2026-05-03T07:28:22Z</time></trkpt><trkpt lat="49.09985442784889" lon="6.622899536440154"><ele>361.0</ele><time>2026-05-03T07:28:23Z</time></trkpt><trkpt lat="49.09991671357786" lon="6.622761016126459"><ele>361.0</ele><time>2026-05-03T07:28:24Z</time></trkpt><trkpt lat="49.09997909722697" lon="6.622608777818871"><ele>361.0</ele><time>2026-05-03T07:28:25Z</time></trkpt><trkpt lat="49.10004733169833" lon="6.6224530483507555"><ele>362.25</ele><time>2026-05-03T07:28:26Z</time></trkpt><trkpt lat="49.10011222924049" lon="6.6223014869476176"><ele>363.5</ele><time>2026-05-03T07:28:27Z</time></trkpt><trkpt lat="49.10017157008409" lon="6.622140382131548"><ele>364.75</ele><time>2026-05-03T07:28:28Z</time></trkpt><trkpt lat="49.10023346783013" lon="6.621976578943513"><ele>366.0</ele><time>2026-05-03T07:28:29Z</time></trkpt><trkpt lat="49.10028342814657" lon="6.621797514646378"><ele>366.0</ele><time>2026-05-03T07:28:30Z</time></trkpt><trkpt lat="49.10036220598545" lon="6.621644625528482"><ele>366.0</ele><time>2026-05-03T07:28:31Z</time></trkpt><trkpt lat="49.10042632272317" lon="6.62148341031753"><ele>366.0</ele><time>2026-05-03T07:28:32Z</time></trkpt><trkpt lat="49.10049498637846" lon="6.621310762159933"><ele>366.0</ele><time>2026-05-03T07:28:33Z</time></trkpt><trkpt lat="49.10056168984445" lon="6.621143043220786"><ele>365.5</ele><time>2026-05-03T07:28:34Z</time></trkpt><trkpt lat="49.10062597446224" lon="6.6209814057972345"><ele>365.0</ele><time>2026-05-03T07:28:35Z</time></trkpt><trkpt lat="49.10068449998246" lon="6.620802043915605"><ele>364.5</ele><time>2026-05-03T07:28:36Z</time></trkpt><trkpt lat="49.10075277088848" lon="6.620658622630834"><ele>364.0</ele><time>2026-05-03T07:28:37Z</time></trkpt><trkpt lat="49.100802421825165" lon="6.620486840469086"><ele>365.16666666666663</ele><time>2026-05-03T07:28:38Z</time></trkpt><trkpt lat="49.10085244737354" lon="6.620339397533298"><ele>366.3333333333333</ele><time>2026-05-03T07:28:39Z</time></trkpt><trkpt lat="49.10089646354711" lon="6.620219397498026"><ele>367.5</ele><time>2026-05-03T07:28:40Z</time></trkpt><trkpt lat="49.100941909120316" lon="6.620116582765612"><ele>368.6666666666667</ele><time>2026-05-03T07:28:41Z</time></trkpt><trkpt lat="49.10098487582544" lon="6.620038047723658"><ele>369.83333333333337</ele><time>2026-05-03T07:28:42Z</time></trkpt><trkpt lat="49.10104976328267" lon="6.619959520632566"><ele>371.0</ele><time>2026-05-03T07:28:43Z</time></trkpt><trkpt lat="49.10111932579318" lon="6.619892313860995"><ele>371.0</ele><time>2026-05-03T07:28:44Z</time></trkpt><trkpt lat="49.10119026557179" lon="6.61981257107422"><ele>371.0</ele><time>2026-05-03T07:28:45Z</time></trkpt><trkpt lat="49.1012648986383" lon="6.6197384716359124"><ele>371.0</ele><time>2026-05-03T07:28:46Z</time></trkpt><trkpt lat="49.10134542682491" lon="6.619687080657997"><ele>371.0</ele><time>2026-05-03T07:28:47Z</time></trkpt><trkpt lat="49.101402990949225" lon="6.619591910347685"><ele>371.0</ele><time>2026-05-03T07:28:48Z</time></trkpt><trkpt lat="49.10145620830235" lon="6.619508020334589"><ele>371.0</ele><time>2026-05-03T07:28:49Z</time></trkpt><trkpt lat="49.10149708194829" lon="6.619422494794551"><ele>371.0</ele><time>2026-05-03T07:28:50Z</time></trkpt><trkpt lat="49.101567400202136" lon="6.619286328286251"><ele>371.0</ele><time>2026-05-03T07:28:52Z</time></trkpt><trkpt lat="49.101625611641936" lon="6.6191761484164"><ele>371.0</ele><time>2026-05-03T07:28:54Z</time></trkpt><trkpt lat="49.10167337284297" lon="6.61907208711908"><ele>371.0</ele><time>2026-05-03T07:28:56Z</time></trkpt><trkpt lat="49.10172282899081" lon="6.619006639268607"><ele>371.0</ele><time>2026-05-03T07:28:59Z</time></trkpt><trkpt lat="49.10176908540474" lon="6.618898312358001"><ele>371.0</ele><time>2026-05-03T07:29:02Z</time></trkpt><trkpt lat="49.1018027350883" lon="6.618810427741269"><ele>371.4</ele><time>2026-05-03T07:29:04Z</time></trkpt><trkpt lat="49.10184845837978" lon="6.618672680678661"><ele>371.8</ele><time>2026-05-03T07:29:06Z</time></trkpt><trkpt lat="49.10188874487206" lon="6.618540432408704"><ele>372.2</ele><time>2026-05-03T07:29:08Z</time></trkpt><trkpt lat="49.101929272441645" lon="6.618359579650116"><ele>372.59999999999997</ele><time>2026-05-03T07:29:10Z</time></trkpt><trkpt lat="49.10194635029972" lon="6.618253408569796"><ele>373.0</ele><time>2026-05-03T07:29:11Z</time></trkpt><trkpt lat="49.10194781189496" lon="6.618146603201664"><ele>373.0</ele><time>2026-05-03T07:29:12Z</time></trkpt><trkpt lat="49.101976028286735" lon="6.618047617594549"><ele>373.0</ele><time>2026-05-03T07:29:13Z</time></trkpt><trkpt lat="49.101991940689324" lon="6.617940299348212"><ele>373.0</ele><time>2026-05-03T07:29:14Z</time></trkpt><trkpt lat="49.10200856915754" lon="6.617835837543378"><ele>373.0</ele><time>2026-05-03T07:29:15Z</time></trkpt><trkpt lat="49.10202425560289" lon="6.617737293836097"><ele>373.0</ele><time>2026-05-03T07:29:16Z</time></trkpt><trkpt lat="49.1020414649133" lon="6.617629183521224"><ele>373.0</ele><time>2026-05-03T07:29:17Z</time></trkpt><trkpt lat="49.10204502600251" lon="6.617486838549024"><ele>373.0</ele><time>2026-05-03T07:29:18Z</time></trkpt><trkpt lat="49.10206207022643" lon="6.617359649299958"><ele>373.2</ele><time>2026-05-03T07:29:19Z</time></trkpt><trkpt lat="49.10207540265741" lon="6.617229762849547"><ele>373.4</ele><time>2026-05-03T07:29:20Z</time></trkpt><trkpt lat="49.10210423972152" lon="6.617093535238775"><ele>373.59999999999997</ele><time>2026-05-03T07:29:21Z</time></trkpt><trkpt lat="49.10210152700988" lon="6.6169431290632925"><ele>373.79999999999995</ele><time>2026-05-03T07:29:22Z</time></trkpt><trkpt lat="49.10210692394813" lon="6.616790404202011"><ele>374.0</ele><time>2026-05-03T07:29:23Z</time></trkpt><trkpt lat="49.102112737159054" lon="6.6166401422907075"><ele>374.0</ele><time>2026-05-03T07:29:24Z</time></trkpt><trkpt lat="49.10211424871287" lon="6.616497325143816"><ele>374.0</ele><time>2026-05-03T07:29:25Z</time></trkpt><trkpt lat="49.10213283324638" lon="6.616361049853209"><ele>374.0</ele><time>2026-05-03T07:29:26Z</time></trkpt><trkpt lat="49.102139495656004" lon="6.616214607798491"><ele>374.0</ele><time>2026-05-03T07:29:27Z</time></trkpt><trkpt lat="49.102145406759476" lon="6.61608468134059"><ele>374.0</ele><time>2026-05-03T07:29:28Z</time></trkpt><trkpt lat="49.102137078433366" lon="6.615942316858283"><ele>373.6</ele><time>2026-05-03T07:29:29Z</time></trkpt><trkpt lat="49.10214109092075" lon="6.615807718198497"><ele>373.2</ele><time>2026-05-03T07:29:30Z</time></trkpt><trkpt lat="49.102147380206794" lon="6.615661459786409"><ele>372.8</ele><time>2026-05-03T07:29:31Z</time></trkpt><trkpt lat="49.10215645536927" lon="6.61552487960418"><ele>372.40000000000003</ele><time>2026-05-03T07:29:32Z</time></trkpt><trkpt lat="49.102162353507886" lon="6.615386136366536"><ele>372.0</ele><time>2026-05-03T07:29:33Z</time></trkpt><trkpt lat="49.102176704060646" lon="6.615247605229359"><ele>371.6</ele><time>2026-05-03T07:29:34Z</time></trkpt><trkpt lat="49.10218241617784" lon="6.615107871013918"><ele>371.20000000000005</ele><time>2026-05-03T07:29:35Z</time></trkpt><trkpt lat="49.10218921075966" lon="6.614962992051611"><ele>370.8</ele><time>2026-05-03T07:29:36Z</time></trkpt><trkpt lat="49.10219653204595" lon="6.614807251636313"><ele>370.4</ele><time>2026-05-03T07:29:37Z</time></trkpt><trkpt lat="49.10221760505479" lon="6.614647894393772"><ele>370.0</ele><time>2026-05-03T07:29:38Z</time></trkpt><trkpt lat="49.10222412383739" lon="6.614485080761975"><ele>369.6</ele><time>2026-05-03T07:29:39Z</time></trkpt><trkpt lat="49.102230733051236" lon="6.614321262158618"><ele>369.2</ele><time>2026-05-03T07:29:40Z</time></trkpt><trkpt lat="49.1022373845272" lon="6.614168315931353"><ele>368.79999999999995</ele><time>2026-05-03T07:29:41Z</time></trkpt><trkpt lat="49.10224327977354" lon="6.614032759156894"><ele>368.4</ele><time>2026-05-03T07:29:42Z</time></trkpt><trkpt lat="49.102233578810605" lon="6.613909799893072"><ele>368.0</ele><time>2026-05-03T07:29:43Z</time></trkpt><trkpt lat="49.102252053292695" lon="6.613797097841256"><ele>368.0</ele><time>2026-05-03T07:29:44Z</time></trkpt><trkpt lat="49.102255549450575" lon="6.613689945407724"><ele>368.0</ele><time>2026-05-03T07:29:45Z</time></trkpt><trkpt lat="49.1022590598936" lon="6.613582325187226"><ele>368.0</ele><time>2026-05-03T07:29:46Z</time></trkpt><trkpt lat="49.10226493267616" lon="6.613476931533442"><ele>368.0</ele><time>2026-05-03T07:29:47Z</time></trkpt><trkpt lat="49.102286110521504" lon="6.613324092245142"><ele>368.0</ele><time>2026-05-03T07:29:49Z</time></trkpt><trkpt lat="49.10233200826636" lon="6.613258215034699"><ele>368.0</ele><time>2026-05-03T07:29:50Z</time></trkpt><trkpt lat="49.102446322767754" lon="6.613182614525415"><ele>368.0</ele><time>2026-05-03T07:29:52Z</time></trkpt><trkpt lat="49.10251729257887" lon="6.613236248675294"><ele>368.0</ele><time>2026-05-03T07:29:53Z</time></trkpt><trkpt lat="49.10261431847685" lon="6.613257478539431"><ele>368.0</ele><time>2026-05-03T07:29:54Z</time></trkpt><trkpt lat="49.10271369880578" lon="6.613287045992076"><ele>368.0</ele><time>2026-05-03T07:29:55Z</time></trkpt><trkpt lat="49.102834102059894" lon="6.613300173885618"><ele>368.0</ele><time>2026-05-03T07:29:56Z</time></trkpt><trkpt lat="49.10296513728273" lon="6.613338168972624"><ele>368.0</ele><time>2026-05-03T07:29:57Z</time></trkpt><trkpt lat="49.10307796988979" lon="6.613372610633797"><ele>368.0</ele><time>2026-05-03T07:29:58Z</time></trkpt><trkpt lat="49.103173223807275" lon="6.613428003497539"><ele>368.0</ele><time>2026-05-03T07:29:59Z</time></trkpt><trkpt lat="49.103264697733565" lon="6.613457252439267"><ele>368.0</ele><time>2026-05-03T07:30:00Z</time></trkpt><trkpt lat="49.103364450790124" lon="6.613489148724469"><ele>368.0</ele><time>2026-05-03T07:30:01Z</time></trkpt><trkpt lat="49.103464302839235" lon="6.613521076643479"><ele>368.79999999999995</ele><time>2026-05-03T07:30:02Z</time></trkpt><trkpt lat="49.10357263418039" lon="6.613529750174215"><ele>369.6</ele><time>2026-05-03T07:30:03Z</time></trkpt><trkpt lat="49.10366854385189" lon="6.613550489082897"><ele>370.4</ele><time>2026-05-03T07:30:04Z</time></trkpt><trkpt lat="49.10377651711722" lon="6.613556241182268"><ele>371.20000000000005</ele><time>2026-05-03T07:30:05Z</time></trkpt><trkpt lat="49.10387702948696" lon="6.613485518785886"><ele>372.0</ele><time>2026-05-03T07:30:06Z</time></trkpt><trkpt lat="49.10397229477261" lon="6.613414409771931"><ele>372.0</ele><time>2026-05-03T07:30:07Z</time></trkpt><trkpt lat="49.104056277985066" lon="6.613340190827215"><ele>372.0</ele><time>2026-05-03T07:30:08Z</time></trkpt><trkpt lat="49.10413127222699" lon="6.613237804647876"><ele>372.0</ele><time>2026-05-03T07:30:09Z</time></trkpt><trkpt lat="49.10421616015464" lon="6.613124517713553"><ele>372.0</ele><time>2026-05-03T07:30:10Z</time></trkpt><trkpt lat="49.104326514325834" lon="6.6130191788765735"><ele>372.0</ele><time>2026-05-03T07:30:11Z</time></trkpt><trkpt lat="49.104423884496384" lon="6.6129108314805976"><ele>371.5</ele><time>2026-05-03T07:30:12Z</time></trkpt><trkpt lat="49.10451579754818" lon="6.612822673687838"><ele>371.0</ele><time>2026-05-03T07:30:13Z</time></trkpt><trkpt lat="49.104609441548696" lon="6.612743579627423"><ele>370.5</ele><time>2026-05-03T07:30:14Z</time></trkpt><trkpt lat="49.10471906818884" lon="6.6126546362396885"><ele>370.0</ele><time>2026-05-03T07:30:15Z</time></trkpt><trkpt lat="49.10483959576609" lon="6.612560103687938"><ele>368.75</ele><time>2026-05-03T07:30:16Z</time></trkpt><trkpt lat="49.10493615089756" lon="6.612456091792658"><ele>367.5</ele><time>2026-05-03T07:30:17Z</time></trkpt><trkpt lat="49.10504964057772" lon="6.612393458081425"><ele>366.25</ele><time>2026-05-03T07:30:18Z</time></trkpt><trkpt lat="49.105156615961256" lon="6.612278921629391"><ele>365.0</ele><time>2026-05-03T07:30:19Z</time></trkpt><trkpt lat="49.10526732955162" lon="6.612180955541584"><ele>365.0</ele><time>2026-05-03T07:30:20Z</time></trkpt><trkpt lat="49.105370004738774" lon="6.612094007293381"><ele>365.0</ele><time>2026-05-03T07:30:21Z</time></trkpt><trkpt lat="49.10548072799713" lon="6.61205602268648"><ele>365.0</ele><time>2026-05-03T07:30:22Z</time></trkpt><trkpt lat="49.10558385115844" lon="6.6120018256936985"><ele>365.0</ele><time>2026-05-03T07:30:23Z</time></trkpt><trkpt lat="49.10568261417293" lon="6.611946315373486"><ele>365.0</ele><time>2026-05-03T07:30:24Z</time></trkpt><trkpt lat="49.10577399167751" lon="6.6119798736241595"><ele>365.0</ele><time>2026-05-03T07:30:25Z</time></trkpt><trkpt lat="49.105868778587705" lon="6.611980849948212"><ele>365.0</ele><time>2026-05-03T07:30:26Z</time></trkpt><trkpt lat="49.105947015324475" lon="6.6119602076220145"><ele>365.0</ele><time>2026-05-03T07:30:27Z</time></trkpt><trkpt lat="49.10601517009593" lon="6.611965395668366"><ele>365.0</ele><time>2026-05-03T07:30:28Z</time></trkpt><trkpt lat="49.10609822000459" lon="6.6119608008445026"><ele>365.0</ele><time>2026-05-03T07:30:30Z</time></trkpt><trkpt lat="49.10621829678526" lon="6.611891282295152"><ele>365.0</ele><time>2026-05-03T07:30:33Z</time></trkpt><trkpt lat="49.10628534394532" lon="6.611839585712597"><ele>365.0</ele><time>2026-05-03T07:30:34Z</time></trkpt><trkpt lat="49.106381615852875" lon="6.611746438468588"><ele>365.0</ele><time>2026-05-03T07:30:35Z</time></trkpt><trkpt lat="49.106488886240356" lon="6.611659536186312"><ele>365.0</ele><time>2026-05-03T07:30:36Z</time></trkpt><trkpt lat="49.10660142901435" lon="6.611548911629004"><ele>365.0</ele><time>2026-05-03T07:30:37Z</time></trkpt><trkpt lat="49.1067310878883" lon="6.611466919063983"><ele>366.0</ele><time>2026-05-03T07:30:38Z</time></trkpt><trkpt lat="49.10682602631205" lon="6.61138205438443"><ele>367.0</ele><time>2026-05-03T07:30:39Z</time></trkpt><trkpt lat="49.106930607661916" lon="6.61136245713419"><ele>368.0</ele><time>2026-05-03T07:30:40Z</time></trkpt><trkpt lat="49.10706606975469" lon="6.611369094172443"><ele>369.0</ele><time>2026-05-03T07:30:41Z</time></trkpt><trkpt lat="49.10721308523396" lon="6.611358686505001"><ele>369.0</ele><time>2026-05-03T07:30:42Z</time></trkpt><trkpt lat="49.1073515030749" lon="6.611361198249485"><ele>369.0</ele><time>2026-05-03T07:30:43Z</time></trkpt><trkpt lat="49.10748194689373" lon="6.61133772173255"><ele>369.0</ele><time>2026-05-03T07:30:44Z</time></trkpt><trkpt lat="49.10759934819699" lon="6.611322673725477"><ele>369.0</ele><time>2026-05-03T07:30:45Z</time></trkpt><trkpt lat="49.107711791978744" lon="6.611290441191695"><ele>371.0</ele><time>2026-05-03T07:30:46Z</time></trkpt><trkpt lat="49.10783604669537" lon="6.611264441202147"><ele>373.0</ele><time>2026-05-03T07:30:47Z</time></trkpt><trkpt lat="49.10796100852735" lon="6.611165255859"><ele>375.0</ele><time>2026-05-03T07:30:48Z</time></trkpt><trkpt lat="49.10809151441874" lon="6.611101580345519"><ele>377.0</ele><time>2026-05-03T07:30:49Z</time></trkpt><trkpt lat="49.10823573369038" lon="6.611054257515716"><ele>378.25</ele><time>2026-05-03T07:30:50Z</time></trkpt><trkpt lat="49.108382202424195" lon="6.6110262421666"><ele>379.5</ele><time>2026-05-03T07:30:51Z</time></trkpt><trkpt lat="49.108529433991805" lon="6.611010025542154"><ele>380.75</ele><time>2026-05-03T07:30:52Z</time></trkpt><trkpt lat="49.108680493423854" lon="6.610984111391984"><ele>382.0</ele><time>2026-05-03T07:30:53Z</time></trkpt><trkpt lat="49.10882948120698" lon="6.610951080079645"><ele>382.0</ele><time>2026-05-03T07:30:54Z</time></trkpt><trkpt lat="49.10898210648372" lon="6.610917957604062"><ele>382.0</ele><time>2026-05-03T07:30:55Z</time></trkpt><trkpt lat="49.10912856005695" lon="6.610887531823368"><ele>382.0</ele><time>2026-05-03T07:30:56Z</time></trkpt><trkpt lat="49.10928156507891" lon="6.610858002712637"><ele>383.3333333333333</ele><time>2026-05-03T07:30:57Z</time></trkpt><trkpt lat="49.109434951834" lon="6.610816266197939"><ele>384.66666666666663</ele><time>2026-05-03T07:30:58Z</time></trkpt><trkpt lat="49.10958855331867" lon="6.610759638646564"><ele>386.0</ele><time>2026-05-03T07:30:59Z</time></trkpt><trkpt lat="49.109740238465584" lon="6.610693345237462"><ele>386.0</ele><time>2026-05-03T07:31:00Z</time></trkpt><trkpt lat="49.10989610671794" lon="6.610624416782671"><ele>386.0</ele><time>2026-05-03T07:31:01Z</time></trkpt><trkpt lat="49.11003751304218" lon="6.610548722413461"><ele>386.0</ele><time>2026-05-03T07:31:02Z</time></trkpt><trkpt lat="49.11017862885237" lon="6.6105089534054455"><ele>386.5</ele><time>2026-05-03T07:31:03Z</time></trkpt><trkpt lat="49.110321600822" lon="6.610448998608667"><ele>387.0</ele><time>2026-05-03T07:31:04Z</time></trkpt><trkpt lat="49.110447886512354" lon="6.610371195303011"><ele>387.5</ele><time>2026-05-03T07:31:05Z</time></trkpt><trkpt lat="49.11059387643649" lon="6.610324371603364"><ele>388.0</ele><time>2026-05-03T07:31:06Z</time></trkpt><trkpt lat="49.11072680198833" lon="6.610293480826498"><ele>388.5</ele><time>2026-05-03T07:31:07Z</time></trkpt><trkpt lat="49.11086637647319" lon="6.610276452777136"><ele>389.0</ele><time>2026-05-03T07:31:08Z</time></trkpt><trkpt lat="49.11100785604178" lon="6.610263799216309"><ele>389.5</ele><time>2026-05-03T07:31:09Z</time></trkpt><trkpt lat="49.11113849719866" lon="6.6102579919671145"><ele>390.0</ele><time>2026-05-03T07:31:10Z</time></trkpt><trkpt lat="49.11129020120801" lon="6.610231708843405"><ele>390.0</ele><time>2026-05-03T07:31:11Z</time></trkpt><trkpt lat="49.11143534906802" lon="6.610208905951857"><ele>390.0</ele><time>2026-05-03T07:31:12Z</time></trkpt><trkpt lat="49.111565266614804" lon="6.610185264455873"><ele>390.0</ele><time>2026-05-03T07:31:13Z</time></trkpt><trkpt lat="49.11169656835624" lon="6.61014404310779"><ele>390.0</ele><time>2026-05-03T07:31:14Z</time></trkpt><trkpt lat="49.111819656152015" lon="6.610100141418159"><ele>390.0</ele><time>2026-05-03T07:31:15Z</time></trkpt><trkpt lat="49.11195083430061" lon="6.610044531644863"><ele>390.0</ele><time>2026-05-03T07:31:16Z</time></trkpt></trkseg></trk></gpx>